<?xml version='1.0' encoding='UTF-8'?><gpx version="1.1" creator="JPX - https://github.com/jenetics/jpx" xmlns="http://www.topografix.com/GPX/1/1"><trk><trkseg><trkpt lat="45.96029245966066" lon="12.60735124989768"><ele>30.0</ele><time>2026-04-12T07:21:57.185Z</time></trkpt><trkpt lat="45.96013772992332" lon="12.607280613527713"><ele>30.0</ele><time>2026-04-12T07:24:47Z</time></trkpt><trkpt lat="45.96009486096912" lon="12.607152957785654"><ele>30.0</ele><time>2026-04-12T07:24:49Z</time></trkpt><trkpt lat="45.960010732911094" lon="12.60710130269772"><ele>30.0</ele><time>2026-04-12T07:24:52Z</time></trkpt><trkpt lat="45.95987800685977" lon="12.607066034601846"><ele>29.833333333333332</ele><time>2026-04-12T07:24:56Z</time></trkpt><trkpt lat="45.959820653696354" lon="12.607108463878413"><ele>29.666666666666664</ele><time>2026-04-12T07:24:57Z</time></trkpt><trkpt lat="45.959693500695494" lon="12.607158295372546"><ele>29.5</ele><time>2026-04-12T07:24:59Z</time></trkpt><trkpt lat="45.959632471113075" lon="12.607212805345862"><ele>29.333333333333332</ele><time>2026-04-12T07:25:00Z</time></trkpt><trkpt lat="45.95958438229048" lon="12.607299821918225"><ele>29.166666666666664</ele><time>2026-04-12T07:25:01Z</time></trkpt><trkpt lat="45.959512330092416" lon="12.60736326891224"><ele>29.0</ele><time>2026-04-12T07:25:02Z</time></trkpt><trkpt lat="45.959450245886494" lon="12.60744704935478"><ele>29.0</ele><time>2026-04-12T07:25:03Z</time></trkpt><trkpt lat="45.959390679542054" lon="12.60754635803896"><ele>29.0</ele><time>2026-04-12T07:25:04Z</time></trkpt><trkpt lat="45.959330160221405" lon="12.607648318173414"><ele>29.0</ele><time>2026-04-12T07:25:05Z</time></trkpt><trkpt lat="45.95927313398162" lon="12.60776085771186"><ele>29.0</ele><time>2026-04-12T07:25:06Z</time></trkpt><trkpt lat="45.95922354926842" lon="12.607875783215897"><ele>29.0</ele><time>2026-04-12T07:25:07Z</time></trkpt><trkpt lat="45.95916410469759" lon="12.60798499709554"><ele>29.6</ele><time>2026-04-12T07:25:08Z</time></trkpt><trkpt lat="45.959103925792526" lon="12.608082412902853"><ele>30.2</ele><time>2026-04-12T07:25:09Z</time></trkpt><trkpt lat="45.9590578195101" lon="12.608153297665615"><ele>30.800000000000004</ele><time>2026-04-12T07:25:10Z</time></trkpt><trkpt lat="45.95909368232796" lon="12.608253904528695"><ele>31.400000000000002</ele><time>2026-04-12T07:25:11Z</time></trkpt><trkpt lat="45.95907922909697" lon="12.608346031948876"><ele>32.0</ele><time>2026-04-12T07:25:12Z</time></trkpt><trkpt lat="45.9590890786168" lon="12.608568858303864"><ele>32.2</ele><time>2026-04-12T07:25:14Z</time></trkpt><trkpt lat="45.95909947855715" lon="12.608713251955196"><ele>32.400000000000006</ele><time>2026-04-12T07:25:15Z</time></trkpt><trkpt lat="45.95910874365739" lon="12.60886459638237"><ele>32.599999999999994</ele><time>2026-04-12T07:25:16Z</time></trkpt><trkpt lat="45.95911521394416" lon="12.609020003761211"><ele>32.8</ele><time>2026-04-12T07:25:17Z</time></trkpt><trkpt lat="45.959113818148765" lon="12.609178040437273"><ele>33.0</ele><time>2026-04-12T07:25:18Z</time></trkpt><trkpt lat="45.9591082691392" lon="12.60935794142407"><ele>32.75</ele><time>2026-04-12T07:25:19Z</time></trkpt><trkpt lat="45.95911155092062" lon="12.60953406247121"><ele>32.5</ele><time>2026-04-12T07:25:20Z</time></trkpt><trkpt lat="45.95909837229476" lon="12.609702577451674"><ele>32.25</ele><time>2026-04-12T07:25:21Z</time></trkpt><trkpt lat="45.959094407104985" lon="12.609876890829618"><ele>32.0</ele><time>2026-04-12T07:25:22Z</time></trkpt><trkpt lat="45.95908334537108" lon="12.610044642047596"><ele>32.0</ele><time>2026-04-12T07:25:23Z</time></trkpt><trkpt lat="45.95907103311139" lon="12.610207298472009"><ele>32.0</ele><time>2026-04-12T07:25:24Z</time></trkpt><trkpt lat="45.959041825052005" lon="12.610367904579963"><ele>32.0</ele><time>2026-04-12T07:25:25Z</time></trkpt><trkpt lat="45.959010895904356" lon="12.610490312325744"><ele>32.0</ele><time>2026-04-12T07:25:26Z</time></trkpt><trkpt lat="45.95898385835061" lon="12.610614485461948"><ele>32.0</ele><time>2026-04-12T07:25:27Z</time></trkpt><trkpt lat="45.958955934994954" lon="12.610741305410638"><ele>32.2</ele><time>2026-04-12T07:25:28Z</time></trkpt><trkpt lat="45.95893318884939" lon="12.610863319835511"><ele>32.400000000000006</ele><time>2026-04-12T07:25:29Z</time></trkpt><trkpt lat="45.95891865882475" lon="12.610987726424417"><ele>32.599999999999994</ele><time>2026-04-12T07:25:30Z</time></trkpt><trkpt lat="45.958888018364675" lon="12.611112144708876"><ele>32.8</ele><time>2026-04-12T07:25:31Z</time></trkpt><trkpt lat="45.95889592064706" lon="12.611249750403976"><ele>33.0</ele><time>2026-04-12T07:25:32Z</time></trkpt><trkpt lat="45.958885497751865" lon="12.611373650900209"><ele>33.285714285714285</ele><time>2026-04-12T07:25:33Z</time></trkpt><trkpt lat="45.9588871109847" lon="12.611474600745373"><ele>33.57142857142857</ele><time>2026-04-12T07:25:34Z</time></trkpt><trkpt lat="45.958889354312184" lon="12.611577697155433"><ele>33.85714285714286</ele><time>2026-04-12T07:25:36Z</time></trkpt><trkpt lat="45.95890253120822" lon="12.611679488076065"><ele>34.14285714285714</ele><time>2026-04-12T07:26:05Z</time></trkpt><trkpt lat="45.95891920007242" lon="12.611774997136127"><ele>34.42857142857143</ele><time>2026-04-12T07:26:06Z</time></trkpt><trkpt lat="45.95893580029369" lon="12.61188077465496"><ele>34.714285714285715</ele><time>2026-04-12T07:26:07Z</time></trkpt><trkpt lat="45.9589499650806" lon="12.612000958494427"><ele>35.0</ele><time>2026-04-12T07:26:08Z</time></trkpt><trkpt lat="45.95896048007166" lon="12.612103189340148"><ele>35.0</ele><time>2026-04-12T07:26:09Z</time></trkpt><trkpt lat="45.95896796894436" lon="12.612196513538525"><ele>35.0</ele><time>2026-04-12T07:26:10Z</time></trkpt><trkpt lat="45.958958478394884" lon="12.612344782258159"><ele>35.0</ele><time>2026-04-12T07:26:12Z</time></trkpt><trkpt lat="45.95890794614456" lon="12.612422327820767"><ele>35.0</ele><time>2026-04-12T07:26:14Z</time></trkpt><trkpt lat="45.958826472520805" lon="12.612405116311765"><ele>35.0</ele><time>2026-04-12T07:26:15Z</time></trkpt><trkpt lat="45.95873168773026" lon="12.612414608333598"><ele>35.0</ele><time>2026-04-12T07:26:16Z</time></trkpt><trkpt lat="45.958605933135914" lon="12.612441776127593"><ele>35.0</ele><time>2026-04-12T07:26:17Z</time></trkpt><trkpt lat="45.95848077630823" lon="12.612470838980702"><ele>35.0</ele><time>2026-04-12T07:26:18Z</time></trkpt><trkpt lat="45.95830838006585" lon="12.612522917908182"><ele>35.0</ele><time>2026-04-12T07:26:19Z</time></trkpt><trkpt lat="45.958171837687146" lon="12.612540451083992"><ele>35.0</ele><time>2026-04-12T07:26:20Z</time></trkpt><trkpt lat="45.95807032396733" lon="12.612564773693943"><ele>34.6</ele><time>2026-04-12T07:26:21Z</time></trkpt><trkpt lat="45.95798579031735" lon="12.612588223219868"><ele>34.2</ele><time>2026-04-12T07:26:22Z</time></trkpt><trkpt lat="45.95791365184908" lon="12.612606579366187"><ele>33.8</ele><time>2026-04-12T07:26:23Z</time></trkpt><trkpt lat="45.957848892937555" lon="12.612612941575918"><ele>33.4</ele><time>2026-04-12T07:26:24Z</time></trkpt><trkpt lat="45.95775301638213" lon="12.612637851695517"><ele>33.0</ele><time>2026-04-12T07:26:26Z</time></trkpt><trkpt lat="45.95773875990903" lon="12.612854716424998"><ele>32.8</ele><time>2026-04-12T07:26:30Z</time></trkpt><trkpt lat="45.957789583449824" lon="12.612997459542491"><ele>32.599999999999994</ele><time>2026-04-12T07:26:31Z</time></trkpt><trkpt lat="45.95781701818516" lon="12.61312409795891"><ele>32.400000000000006</ele><time>2026-04-12T07:26:32Z</time></trkpt><trkpt lat="45.95785161750168" lon="12.613234590514327"><ele>32.2</ele><time>2026-04-12T07:26:33Z</time></trkpt><trkpt lat="45.957887684750496" lon="12.61334977126558"><ele>32.0</ele><time>2026-04-12T07:26:34Z</time></trkpt><trkpt lat="45.95792497492298" lon="12.613470660391695"><ele>31.999999999999996</ele><time>2026-04-12T07:26:35Z</time></trkpt><trkpt lat="45.95796026494303" lon="12.61358509271475"><ele>32.0</ele><time>2026-04-12T07:26:36Z</time></trkpt><trkpt lat="45.95799627412157" lon="12.613703535633837"><ele>32.0</ele><time>2026-04-12T07:26:37Z</time></trkpt><trkpt lat="45.95802996556922" lon="12.613814824606923"><ele>32.0</ele><time>2026-04-12T07:26:38Z</time></trkpt><trkpt lat="45.95806615379492" lon="12.613934360966542"><ele>31.999999999999996</ele><time>2026-04-12T07:26:39Z</time></trkpt><trkpt lat="45.95810888153014" lon="12.61403965064161"><ele>32.0</ele><time>2026-04-12T07:26:40Z</time></trkpt><trkpt lat="45.95813937589281" lon="12.614160475207418"><ele>31.666666666666664</ele><time>2026-04-12T07:26:41Z</time></trkpt><trkpt lat="45.95817767160296" lon="12.614281828764042"><ele>31.333333333333332</ele><time>2026-04-12T07:26:42Z</time></trkpt><trkpt lat="45.95821619869508" lon="12.614416340601023"><ele>31.0</ele><time>2026-04-12T07:26:42.999Z</time></trkpt><trkpt lat="45.95825270571148" lon="12.614543768186449"><ele>30.666666666666664</ele><time>2026-04-12T07:26:43.999Z</time></trkpt><trkpt lat="45.958284626249316" lon="12.614655538635876"><ele>30.333333333333332</ele><time>2026-04-12T07:26:44.999Z</time></trkpt><trkpt lat="45.95831101595241" lon="12.614756839299492"><ele>30.0</ele><time>2026-04-12T07:26:45.999Z</time></trkpt><trkpt lat="45.95833286716262" lon="12.614854730672736"><ele>29.857142857142858</ele><time>2026-04-12T07:26:46.999Z</time></trkpt><trkpt lat="45.958335821517444" lon="12.614951412911333"><ele>29.714285714285715</ele><time>2026-04-12T07:26:47.999Z</time></trkpt><trkpt lat="45.958316624387905" lon="12.61503859928032"><ele>29.571428571428573</ele><time>2026-04-12T07:26:48.999Z</time></trkpt><trkpt lat="45.958249917199566" lon="12.61509208999976"><ele>29.42857142857143</ele><time>2026-04-12T07:26:49.999Z</time></trkpt><trkpt lat="45.958199536635924" lon="12.61517808243464"><ele>29.285714285714285</ele><time>2026-04-12T07:26:50.999Z</time></trkpt><trkpt lat="45.9581488572524" lon="12.615268977590281"><ele>29.142857142857146</ele><time>2026-04-12T07:26:51.999Z</time></trkpt><trkpt lat="45.95810360286194" lon="12.615350142937078"><ele>29.000000000000004</ele><time>2026-04-12T07:26:52.999Z</time></trkpt><trkpt lat="45.958064031798045" lon="12.615422343722537"><ele>28.5</ele><time>2026-04-12T07:26:53.999Z</time></trkpt><trkpt lat="45.95801904209597" lon="12.615507274058475"><ele>28.0</ele><time>2026-04-12T07:26:55.999Z</time></trkpt><trkpt lat="45.95819842890382" lon="12.615604543966416"><ele>27.5</ele><time>2026-04-12T07:26:57.999Z</time></trkpt><trkpt lat="45.958300944288794" lon="12.615550365450938"><ele>27.0</ele><time>2026-04-12T07:26:58.999Z</time></trkpt><trkpt lat="45.95843997709978" lon="12.615540172539783"><ele>27.0</ele><time>2026-04-12T07:26:59.999Z</time></trkpt><trkpt lat="45.958615391501034" lon="12.615550968939178"><ele>27.0</ele><time>2026-04-12T07:27:00.999Z</time></trkpt><trkpt lat="45.95877590108876" lon="12.6155655863602"><ele>27.0</ele><time>2026-04-12T07:27:01.999Z</time></trkpt><trkpt lat="45.95890008016694" lon="12.615569284579735"><ele>27.0</ele><time>2026-04-12T07:27:02.999Z</time></trkpt><trkpt lat="45.95900723774973" lon="12.61555761731264"><ele>27.000000000000004</ele><time>2026-04-12T07:27:03.999Z</time></trkpt><trkpt lat="45.95911515527496" lon="12.61552786280316"><ele>27.000000000000004</ele><time>2026-04-12T07:27:04.999Z</time></trkpt><trkpt lat="45.95920243371387" lon="12.615478048993946"><ele>27.0</ele><time>2026-04-12T07:27:05.999Z</time></trkpt><trkpt lat="45.95927030018358" lon="12.615419806233195"><ele>27.0</ele><time>2026-04-12T07:27:06.999Z</time></trkpt><trkpt lat="45.95933299008476" lon="12.615401494102112"><ele>26.5</ele><time>2026-04-12T07:27:07.999Z</time></trkpt><trkpt lat="45.959411998794025" lon="12.615597572799137"><ele>26.0</ele><time>2026-04-12T07:27:10.999Z</time></trkpt><trkpt lat="45.959407075331555" lon="12.615749491988268"><ele>25.5</ele><time>2026-04-12T07:27:11.999Z</time></trkpt><trkpt lat="45.95941399760651" lon="12.615918284267721"><ele>25.0</ele><time>2026-04-12T07:27:12.999Z</time></trkpt><trkpt lat="45.959430308422675" lon="12.616097701901575"><ele>25.75</ele><time>2026-04-12T07:27:13.999Z</time></trkpt><trkpt lat="45.95944793329023" lon="12.616259853048566"><ele>26.5</ele><time>2026-04-12T07:27:14.999Z</time></trkpt><trkpt lat="45.959508328146896" lon="12.616394196887793"><ele>27.25</ele><time>2026-04-12T07:27:15.999Z</time></trkpt><trkpt lat="45.95956761324557" lon="12.616568008782826"><ele>28.0</ele><time>2026-04-12T07:27:16.999Z</time></trkpt><trkpt lat="45.959643115205814" lon="12.616729729552857"><ele>28.0</ele><time>2026-04-12T07:27:17.999Z</time></trkpt><trkpt lat="45.9597041865476" lon="12.616877560140658"><ele>27.999999999999996</ele><time>2026-04-12T07:27:18.999Z</time></trkpt><trkpt lat="45.95975876075724" lon="12.617003114023888"><ele>27.999999999999996</ele><time>2026-04-12T07:27:19.999Z</time></trkpt><trkpt lat="45.95981597335656" lon="12.617096005740844"><ele>28.0</ele><time>2026-04-12T07:27:20.999Z</time></trkpt><trkpt lat="45.95989756060762" lon="12.617180651677346"><ele>28.0</ele><time>2026-04-12T07:27:21.999Z</time></trkpt><trkpt lat="45.960005855536" lon="12.617268102798628"><ele>28.799999999999997</ele><time>2026-04-12T07:27:22.999Z</time></trkpt><trkpt lat="45.96010346814585" lon="12.617359354988348"><ele>29.599999999999998</ele><time>2026-04-12T07:27:23.999Z</time></trkpt><trkpt lat="45.96017472743594" lon="12.617421856896502"><ele>30.400000000000002</ele><time>2026-04-12T07:27:24.999Z</time></trkpt><trkpt lat="45.96024551489157" lon="12.617504674417479"><ele>31.200000000000003</ele><time>2026-04-12T07:27:26.999Z</time></trkpt><trkpt lat="45.960293879649285" lon="12.617586842257024"><ele>32.0</ele><time>2026-04-12T07:27:27.999Z</time></trkpt><trkpt lat="45.9604093220666" lon="12.617647118037148"><ele>32.0</ele><time>2026-04-12T07:27:28.999Z</time></trkpt><trkpt lat="45.96054053355701" lon="12.617725140899894"><ele>32.0</ele><time>2026-04-12T07:27:29.999Z</time></trkpt><trkpt lat="45.960670130442345" lon="12.617784822844685"><ele>32.0</ele><time>2026-04-12T07:27:31Z</time></trkpt><trkpt lat="45.96078389610991" lon="12.617820048163"><ele>32.0</ele><time>2026-04-12T07:27:32Z</time></trkpt><trkpt lat="45.960887539658906" lon="12.617834037745261"><ele>31.8</ele><time>2026-04-12T07:27:33Z</time></trkpt><trkpt lat="45.960998239801434" lon="12.617843688807795"><ele>31.6</ele><time>2026-04-12T07:27:34Z</time></trkpt><trkpt lat="45.96110177505865" lon="12.617851931229927"><ele>31.400000000000002</ele><time>2026-04-12T07:27:35Z</time></trkpt><trkpt lat="45.96119105628976" lon="12.617853471590442"><ele>31.200000000000003</ele><time>2026-04-12T07:27:36Z</time></trkpt><trkpt lat="45.96127321219842" lon="12.61785303384163"><ele>31.0</ele><time>2026-04-12T07:27:37Z</time></trkpt><trkpt lat="45.96137437286016" lon="12.617869695077772"><ele>31.0</ele><time>2026-04-12T07:27:38Z</time></trkpt><trkpt lat="45.96149214130405" lon="12.61782836987869"><ele>31.0</ele><time>2026-04-12T07:27:39Z</time></trkpt><trkpt lat="45.96162074027405" lon="12.61780011129371"><ele>31.0</ele><time>2026-04-12T07:27:40Z</time></trkpt><trkpt lat="45.96172917871369" lon="12.617755619493176"><ele>31.0</ele><time>2026-04-12T07:27:41Z</time></trkpt><trkpt lat="45.96181648957284" lon="12.617738080713815"><ele>31.25</ele><time>2026-04-12T07:27:42Z</time></trkpt><trkpt lat="45.961892504254486" lon="12.617742646466217"><ele>31.5</ele><time>2026-04-12T07:27:43Z</time></trkpt><trkpt lat="45.96199229925383" lon="12.617735914921463"><ele>31.75</ele><time>2026-04-12T07:27:45Z</time></trkpt><trkpt lat="45.96204768953527" lon="12.617958098502795"><ele>32.0</ele><time>2026-04-12T07:27:46Z</time></trkpt><trkpt lat="45.9620733892917" lon="12.618135538448472"><ele>32.0</ele><time>2026-04-12T07:27:47Z</time></trkpt><trkpt lat="45.962124412651704" lon="12.618337346185317"><ele>32.0</ele><time>2026-04-12T07:27:48Z</time></trkpt><trkpt lat="45.96215655805089" lon="12.618580362321747"><ele>32.0</ele><time>2026-04-12T07:27:49Z</time></trkpt><trkpt lat="45.962189400599" lon="12.61883027945595"><ele>32.33333333333333</ele><time>2026-04-12T07:27:50Z</time></trkpt><trkpt lat="45.96222792274812" lon="12.619075617132356"><ele>32.666666666666664</ele><time>2026-04-12T07:27:51Z</time></trkpt><trkpt lat="45.96226457335728" lon="12.619308477810398"><ele>33.0</ele><time>2026-04-12T07:27:52Z</time></trkpt><trkpt lat="45.96229813433263" lon="12.61953802345051"><ele>33.333333333333336</ele><time>2026-04-12T07:27:53Z</time></trkpt><trkpt lat="45.962330046715714" lon="12.61976416906176"><ele>33.66666666666667</ele><time>2026-04-12T07:27:54Z</time></trkpt><trkpt lat="45.96236227252963" lon="12.619989223382417"><ele>34.0</ele><time>2026-04-12T07:27:55Z</time></trkpt><trkpt lat="45.962396434023844" lon="12.620208901269827"><ele>33.333333333333336</ele><time>2026-04-12T07:27:56Z</time></trkpt><trkpt lat="45.96243044899383" lon="12.62042782642993"><ele>32.666666666666664</ele><time>2026-04-12T07:27:57Z</time></trkpt><trkpt lat="45.962468901007185" lon="12.620640337130354"><ele>32.0</ele><time>2026-04-12T07:27:58Z</time></trkpt><trkpt lat="45.962504466704644" lon="12.620863919034274"><ele>32.0</ele><time>2026-04-12T07:27:59Z</time></trkpt><trkpt lat="45.96258503421749" lon="12.621083605815102"><ele>32.0</ele><time>2026-04-12T07:28:00Z</time></trkpt><trkpt lat="45.96268261806831" lon="12.621285439390194"><ele>32.0</ele><time>2026-04-12T07:28:01Z</time></trkpt><trkpt lat="45.96277181458944" lon="12.621498176249947"><ele>32.0</ele><time>2026-04-12T07:28:02Z</time></trkpt><trkpt lat="45.96285541301716" lon="12.621711914209925"><ele>32.0</ele><time>2026-04-12T07:28:03Z</time></trkpt><trkpt lat="45.96292420723581" lon="12.621940875204178"><ele>32.0</ele><time>2026-04-12T07:28:04Z</time></trkpt><trkpt lat="45.96299470908237" lon="12.622200920244492"><ele>32.33333333333333</ele><time>2026-04-12T07:28:05Z</time></trkpt><trkpt lat="45.96306112485325" lon="12.622456865423953"><ele>32.666666666666664</ele><time>2026-04-12T07:28:06Z</time></trkpt><trkpt lat="45.96310972104732" lon="12.62267632727025"><ele>33.0</ele><time>2026-04-12T07:28:07Z</time></trkpt><trkpt lat="45.963143996666886" lon="12.622883321157595"><ele>33.0</ele><time>2026-04-12T07:28:08Z</time></trkpt><trkpt lat="45.96317143355484" lon="12.623107970923895"><ele>33.0</ele><time>2026-04-12T07:28:09Z</time></trkpt><trkpt lat="45.963204841882465" lon="12.623385211396794"><ele>33.0</ele><time>2026-04-12T07:28:10Z</time></trkpt><trkpt lat="45.96321797200643" lon="12.623711126330358"><ele>32.0</ele><time>2026-04-12T07:28:11Z</time></trkpt><trkpt lat="45.96324666599602" lon="12.62405038667813"><ele>31.0</ele><time>2026-04-12T07:28:12Z</time></trkpt><trkpt lat="45.96327656602195" lon="12.624393327016904"><ele>31.5</ele><time>2026-04-12T07:28:13Z</time></trkpt><trkpt lat="45.963324630305465" lon="12.624758184382598"><ele>32.0</ele><time>2026-04-12T07:28:14Z</time></trkpt><trkpt lat="45.963350161888364" lon="12.625078383397344"><ele>33.0</ele><time>2026-04-12T07:28:15Z</time></trkpt><trkpt lat="45.96337593290726" lon="12.625373491196697"><ele>34.0</ele><time>2026-04-12T07:28:16Z</time></trkpt><trkpt lat="45.96339949484142" lon="12.625648917278511"><ele>35.0</ele><time>2026-04-12T07:28:17Z</time></trkpt><trkpt lat="45.96342288517403" lon="12.625899108248706"><ele>35.0</ele><time>2026-04-12T07:28:18Z</time></trkpt><trkpt lat="45.9634451540868" lon="12.626127170208294"><ele>35.0</ele><time>2026-04-12T07:28:19Z</time></trkpt><trkpt lat="45.9634607401804" lon="12.62632543888271"><ele>35.0</ele><time>2026-04-12T07:28:20Z</time></trkpt><trkpt lat="45.96345450430292" lon="12.626491365148704"><ele>35.0</ele><time>2026-04-12T07:28:21Z</time></trkpt><trkpt lat="45.96347639632513" lon="12.626628767659493"><ele>35.0</ele><time>2026-04-12T07:28:22Z</time></trkpt><trkpt lat="45.96348169998497" lon="12.626756537469644"><ele>35.0</ele><time>2026-04-12T07:28:24Z</time></trkpt><trkpt lat="45.96353065811959" lon="12.626834085413456"><ele>35.0</ele><time>2026-04-12T07:28:27Z</time></trkpt><trkpt lat="45.963580673039765" lon="12.626926676617675"><ele>35.0</ele><time>2026-04-12T07:28:28Z</time></trkpt><trkpt lat="45.96362575001956" lon="12.627081994452395"><ele>35.0</ele><time>2026-04-12T07:28:29Z</time></trkpt><trkpt lat="45.963666562101984" lon="12.627289458103037"><ele>35.0</ele><time>2026-04-12T07:28:30Z</time></trkpt><trkpt lat="45.963719871167086" lon="12.627540365808343"><ele>35.0</ele><time>2026-04-12T07:28:31Z</time></trkpt><trkpt lat="45.96377636836149" lon="12.627795031817817"><ele>35.0</ele><time>2026-04-12T07:28:32Z</time></trkpt><trkpt lat="45.96383360840273" lon="12.628044656663935"><ele>35.0</ele><time>2026-04-12T07:28:33Z</time></trkpt><trkpt lat="45.9638885999757" lon="12.628298071485455"><ele>35.0</ele><time>2026-04-12T07:28:34Z</time></trkpt><trkpt lat="45.96393612417911" lon="12.628517230438366"><ele>35.0</ele><time>2026-04-12T07:28:35Z</time></trkpt><trkpt lat="45.96398080002711" lon="12.628726194087031"><ele>34.25</ele><time>2026-04-12T07:28:36Z</time></trkpt><trkpt lat="45.96401298315818" lon="12.628902209500227"><ele>33.5</ele><time>2026-04-12T07:28:37Z</time></trkpt><trkpt lat="45.96403132988296" lon="12.629049119438712"><ele>32.75</ele><time>2026-04-12T07:28:38Z</time></trkpt><trkpt lat="45.96402774674451" lon="12.629202896703182"><ele>32.0</ele><time>2026-04-12T07:28:39Z</time></trkpt><trkpt lat="45.96398187884899" lon="12.629366221658607"><ele>31.8</ele><time>2026-04-12T07:28:40Z</time></trkpt><trkpt lat="45.96395206697453" lon="12.6295326473574"><ele>31.6</ele><time>2026-04-12T07:28:41Z</time></trkpt><trkpt lat="45.963953640267675" lon="12.629657219135305"><ele>31.400000000000002</ele><time>2026-04-12T07:28:42Z</time></trkpt><trkpt lat="45.963989574213265" lon="12.629742169219572"><ele>31.200000000000003</ele><time>2026-04-12T07:28:43Z</time></trkpt><trkpt lat="45.96406249718636" lon="12.629766744859094"><ele>31.0</ele><time>2026-04-12T07:28:44Z</time></trkpt><trkpt lat="45.964182058823496" lon="12.62981177206607"><ele>31.500000000000004</ele><time>2026-04-12T07:28:45Z</time></trkpt><trkpt lat="45.96430942610738" lon="12.62985582930232"><ele>32.0</ele><time>2026-04-12T07:28:46Z</time></trkpt><trkpt lat="45.96440638718899" lon="12.629889071349842"><ele>32.5</ele><time>2026-04-12T07:28:47Z</time></trkpt><trkpt lat="45.96445984282602" lon="12.629942474752065"><ele>33.0</ele><time>2026-04-12T07:28:48Z</time></trkpt><trkpt lat="45.964475606665104" lon="12.630034487035012"><ele>33.5</ele><time>2026-04-12T07:28:49Z</time></trkpt><trkpt lat="45.96445086059294" lon="12.630143879696833"><ele>34.0</ele><time>2026-04-12T07:28:50Z</time></trkpt><trkpt lat="45.96436190051635" lon="12.630265981614512"><ele>34.0</ele><time>2026-04-12T07:28:51Z</time></trkpt><trkpt lat="45.964261128443596" lon="12.63045889034878"><ele>34.0</ele><time>2026-04-12T07:28:52Z</time></trkpt><trkpt lat="45.96417870341508" lon="12.630672573293793"><ele>34.0</ele><time>2026-04-12T07:28:53Z</time></trkpt><trkpt lat="45.96412230380328" lon="12.630883533451174"><ele>34.0</ele><time>2026-04-12T07:28:54Z</time></trkpt><trkpt lat="45.96408837567653" lon="12.631097421081432"><ele>34.0</ele><time>2026-04-12T07:28:55Z</time></trkpt><trkpt lat="45.96406740894706" lon="12.63132084295595"><ele>34.0</ele><time>2026-04-12T07:28:56Z</time></trkpt><trkpt lat="45.964066812152176" lon="12.63154789579613"><ele>34.0</ele><time>2026-04-12T07:28:57Z</time></trkpt><trkpt lat="45.96409230531317" lon="12.631774383935877"><ele>34.0</ele><time>2026-04-12T07:28:58Z</time></trkpt><trkpt lat="45.9641319041732" lon="12.631972607039891"><ele>34.0</ele><time>2026-04-12T07:28:58.999Z</time></trkpt><trkpt lat="45.96417385468255" lon="12.632145311507237"><ele>34.0</ele><time>2026-04-12T07:28:59.999Z</time></trkpt><trkpt lat="45.96422248204013" lon="12.63230433849633"><ele>34.0</ele><time>2026-04-12T07:29:00.999Z</time></trkpt><trkpt lat="45.964273399448764" lon="12.632469688445786"><ele>34.0</ele><time>2026-04-12T07:29:01.999Z</time></trkpt><trkpt lat="45.964311982787606" lon="12.632598719675933"><ele>34.0</ele><time>2026-04-12T07:29:02.999Z</time></trkpt><trkpt lat="45.96433734832312" lon="12.632714126213417"><ele>34.0</ele><time>2026-04-12T07:29:03.999Z</time></trkpt><trkpt lat="45.96432698077755" lon="12.632849517371467"><ele>34.0</ele><time>2026-04-12T07:29:04.999Z</time></trkpt><trkpt lat="45.96433978703058" lon="12.633022019853378"><ele>34.0</ele><time>2026-04-12T07:29:05.999Z</time></trkpt><trkpt lat="45.96439530112358" lon="12.633202029115735"><ele>34.0</ele><time>2026-04-12T07:29:06.999Z</time></trkpt><trkpt lat="45.96445171067281" lon="12.633397444490937"><ele>34.0</ele><time>2026-04-12T07:29:07.999Z</time></trkpt><trkpt lat="45.96453001842237" lon="12.633593702392814"><ele>34.0</ele><time>2026-04-12T07:29:08.999Z</time></trkpt><trkpt lat="45.964611069314195" lon="12.633799202677478"><ele>34.0</ele><time>2026-04-12T07:29:09.999Z</time></trkpt><trkpt lat="45.96468077696933" lon="12.633989557221406"><ele>34.0</ele><time>2026-04-12T07:29:10.999Z</time></trkpt><trkpt lat="45.9647333405573" lon="12.634176282629285"><ele>34.0</ele><time>2026-04-12T07:29:11.999Z</time></trkpt><trkpt lat="45.964778291473245" lon="12.63436367164979"><ele>34.0</ele><time>2026-04-12T07:29:12.999Z</time></trkpt><trkpt lat="45.96481915753774" lon="12.634541571599623"><ele>33.75</ele><time>2026-04-12T07:29:13.999Z</time></trkpt><trkpt lat="45.96486954485127" lon="12.63469793545501"><ele>33.5</ele><time>2026-04-12T07:29:14.999Z</time></trkpt><trkpt lat="45.96495337269095" lon="12.63481076274045"><ele>33.25</ele><time>2026-04-12T07:29:15.999Z</time></trkpt><trkpt lat="45.96506992527651" lon="12.6349573184221"><ele>33.0</ele><time>2026-04-12T07:29:16.999Z</time></trkpt><trkpt lat="45.96520715688499" lon="12.635113048401044"><ele>33.0</ele><time>2026-04-12T07:29:17.999Z</time></trkpt><trkpt lat="45.965303492745896" lon="12.63527312706955"><ele>33.0</ele><time>2026-04-12T07:29:18.999Z</time></trkpt><trkpt lat="45.96541963535123" lon="12.635431836936409"><ele>33.0</ele><time>2026-04-12T07:29:19.999Z</time></trkpt><trkpt lat="45.965538344795746" lon="12.635630854192629"><ele>33.0</ele><time>2026-04-12T07:29:20.999Z</time></trkpt><trkpt lat="45.965642789617426" lon="12.635805134381421"><ele>33.0</ele><time>2026-04-12T07:29:21.999Z</time></trkpt><trkpt lat="45.965739854961065" lon="12.635962459531195"><ele>33.0</ele><time>2026-04-12T07:29:22.999Z</time></trkpt><trkpt lat="45.96580854142399" lon="12.636081951322199"><ele>33.0</ele><time>2026-04-12T07:29:23.999Z</time></trkpt><trkpt lat="45.96585791280859" lon="12.636202313778272"><ele>33.5</ele><time>2026-04-12T07:29:25.999Z</time></trkpt><trkpt lat="45.96581290194801" lon="12.63634606220671"><ele>34.0</ele><time>2026-04-12T07:29:27.999Z</time></trkpt><trkpt lat="45.96578528337484" lon="12.636503016629678"><ele>34.5</ele><time>2026-04-12T07:29:28.999Z</time></trkpt><trkpt lat="45.965736334441466" lon="12.636677018080851"><ele>35.0</ele><time>2026-04-12T07:29:29.999Z</time></trkpt><trkpt lat="45.965694702532154" lon="12.636845455379072"><ele>35.166666666666664</ele><time>2026-04-12T07:29:30.999Z</time></trkpt><trkpt lat="45.96565841215188" lon="12.636987806014925"><ele>35.33333333333333</ele><time>2026-04-12T07:29:31.999Z</time></trkpt><trkpt lat="45.96562613411384" lon="12.637110474464869"><ele>35.5</ele><time>2026-04-12T07:29:32.999Z</time></trkpt><trkpt lat="45.965595668896306" lon="12.637210683687762"><ele>35.666666666666664</ele><time>2026-04-12T07:29:33.999Z</time></trkpt><trkpt lat="45.96554418303945" lon="12.637273227186132"><ele>35.833333333333336</ele><time>2026-04-12T07:29:34.999Z</time></trkpt><trkpt lat="45.96550400133905" lon="12.637355583544151"><ele>36.0</ele><time>2026-04-12T07:29:35.999Z</time></trkpt><trkpt lat="45.965512929643026" lon="12.637498395003895"><ele>36.0</ele><time>2026-04-12T07:29:37Z</time></trkpt><trkpt lat="45.96551247426402" lon="12.637661374349635"><ele>36.0</ele><time>2026-04-12T07:29:38Z</time></trkpt><trkpt lat="45.96552222947721" lon="12.63787768928713"><ele>36.0</ele><time>2026-04-12T07:29:39Z</time></trkpt><trkpt lat="45.96550187256025" lon="12.638088028323677"><ele>36.0</ele><time>2026-04-12T07:29:40Z</time></trkpt><trkpt lat="45.96549903857479" lon="12.638246833430152"><ele>36.0</ele><time>2026-04-12T07:29:41Z</time></trkpt><trkpt lat="45.96549122865246" lon="12.638383581532551"><ele>36.0</ele><time>2026-04-12T07:29:42Z</time></trkpt><trkpt lat="45.96548503676268" lon="12.638491829073553"><ele>36.0</ele><time>2026-04-12T07:29:43Z</time></trkpt><trkpt lat="45.965483956019035" lon="12.63859943974163"><ele>36.0</ele><time>2026-04-12T07:29:44Z</time></trkpt><trkpt lat="45.965487650909985" lon="12.638691651477243"><ele>36.0</ele><time>2026-04-12T07:29:45Z</time></trkpt><trkpt lat="45.96550313263785" lon="12.638874990974644"><ele>36.0</ele><time>2026-04-12T07:29:47Z</time></trkpt><trkpt lat="45.96551370445535" lon="12.638974116429152"><ele>35.833333333333336</ele><time>2026-04-12T07:29:48Z</time></trkpt><trkpt lat="45.96555387906472" lon="12.639136654290773"><ele>35.666666666666664</ele><time>2026-04-12T07:29:50Z</time></trkpt><trkpt lat="45.965600853651246" lon="12.639210170353234"><ele>35.5</ele><time>2026-04-12T07:29:51Z</time></trkpt><trkpt lat="45.96570335995185" lon="12.639234811494207"><ele>35.33333333333333</ele><time>2026-04-12T07:29:53Z</time></trkpt><trkpt lat="45.96578311177605" lon="12.639265242406529"><ele>35.166666666666664</ele><time>2026-04-12T07:29:55Z</time></trkpt><trkpt lat="45.96585137769633" lon="12.639296337337317"><ele>35.0</ele><time>2026-04-12T07:29:58Z</time></trkpt><trkpt lat="45.965913726011856" lon="12.639328363014085"><ele>35.0</ele><time>2026-04-12T07:30:02Z</time></trkpt><trkpt lat="45.9660588825482" lon="12.639384170230004"><ele>35.0</ele><time>2026-04-12T07:30:04Z</time></trkpt><trkpt lat="45.9661871979593" lon="12.639410554306679"><ele>35.0</ele><time>2026-04-12T07:30:05Z</time></trkpt><trkpt lat="45.96633357640434" lon="12.6394611955972"><ele>35.0</ele><time>2026-04-12T07:30:06Z</time></trkpt><trkpt lat="45.966483082534026" lon="12.639526845426886"><ele>35.25</ele><time>2026-04-12T07:30:07Z</time></trkpt><trkpt lat="45.96661959631543" lon="12.639586365142943"><ele>35.5</ele><time>2026-04-12T07:30:08Z</time></trkpt><trkpt lat="45.96675516877991" lon="12.639645507845058"><ele>35.75</ele><time>2026-04-12T07:30:09Z</time></trkpt><trkpt lat="45.966886002621074" lon="12.639709625408724"><ele>36.0</ele><time>2026-04-12T07:30:10Z</time></trkpt><trkpt lat="45.967013362785735" lon="12.639750996667336"><ele>36.0</ele><time>2026-04-12T07:30:11Z</time></trkpt><trkpt lat="45.9671373366301" lon="12.639819264487222"><ele>36.0</ele><time>2026-04-12T07:30:12Z</time></trkpt><trkpt lat="45.96725747100866" lon="12.639876947589935"><ele>36.0</ele><time>2026-04-12T07:30:13Z</time></trkpt><trkpt lat="45.96737434279274" lon="12.639926974196749"><ele>36.0</ele><time>2026-04-12T07:30:14Z</time></trkpt><trkpt lat="45.96747623685013" lon="12.639986770404336"><ele>36.2</ele><time>2026-04-12T07:30:15Z</time></trkpt><trkpt lat="45.96756546468031" lon="12.640064078763404"><ele>36.400000000000006</ele><time>2026-04-12T07:30:16Z</time></trkpt><trkpt lat="45.96764258358919" lon="12.640150873553731"><ele>36.6</ele><time>2026-04-12T07:30:17Z</time></trkpt><trkpt lat="45.96772158636555" lon="12.640248137235297"><ele>36.800000000000004</ele><time>2026-04-12T07:30:18Z</time></trkpt><trkpt lat="45.967802306899365" lon="12.64034067299885"><ele>37.0</ele><time>2026-04-12T07:30:19Z</time></trkpt><trkpt lat="45.96788367773929" lon="12.640432471885989"><ele>37.0</ele><time>2026-04-12T07:30:20Z</time></trkpt><trkpt lat="45.967965178189075" lon="12.640519831170693"><ele>37.0</ele><time>2026-04-12T07:30:21Z</time></trkpt><trkpt lat="45.96804207442547" lon="12.640601677703547"><ele>37.0</ele><time>2026-04-12T07:30:22Z</time></trkpt><trkpt lat="45.96811674811283" lon="12.640676184358698"><ele>37.0</ele><time>2026-04-12T07:30:23Z</time></trkpt><trkpt lat="45.96818221159653" lon="12.640749252993606"><ele>37.0</ele><time>2026-04-12T07:30:24Z</time></trkpt><trkpt lat="45.96822534507229" lon="12.640824883262704"><ele>37.0</ele><time>2026-04-12T07:30:25Z</time></trkpt><trkpt lat="45.96825589787652" lon="12.640940307181552"><ele>37.0</ele><time>2026-04-12T07:30:26Z</time></trkpt><trkpt lat="45.968293980197025" lon="12.641074406016555"><ele>37.0</ele><time>2026-04-12T07:30:27Z</time></trkpt><trkpt lat="45.96834769406646" lon="12.641197994079928"><ele>37.0</ele><time>2026-04-12T07:30:28Z</time></trkpt><trkpt lat="45.968393722404706" lon="12.641291875696329"><ele>37.0</ele><time>2026-04-12T07:30:29Z</time></trkpt><trkpt lat="45.96844323191063" lon="12.641399287476428"><ele>37.0</ele><time>2026-04-12T07:30:31Z</time></trkpt><trkpt lat="45.968287158620804" lon="12.641576457244858"><ele>37.2</ele><time>2026-04-12T07:30:33Z</time></trkpt><trkpt lat="45.96817972731819" lon="12.641686002854982"><ele>37.400000000000006</ele><time>2026-04-12T07:30:34Z</time></trkpt><trkpt lat="45.968113709256244" lon="12.641750361593443"><ele>37.599999999999994</ele><time>2026-04-12T07:30:35Z</time></trkpt><trkpt lat="45.96803094158826" lon="12.641838342055296"><ele>37.8</ele><time>2026-04-12T07:30:37Z</time></trkpt><trkpt lat="45.96798050740836" lon="12.641898885899785"><ele>38.0</ele><time>2026-04-12T07:30:38Z</time></trkpt><trkpt lat="45.96790106605646" lon="12.641946095262536"><ele>37.857142857142854</ele><time>2026-04-12T07:30:39Z</time></trkpt><trkpt lat="45.967832946090496" lon="12.642006289942925"><ele>37.714285714285715</ele><time>2026-04-12T07:30:40Z</time></trkpt><trkpt lat="45.96778815766573" lon="12.642075474942759"><ele>37.57142857142857</ele><time>2026-04-12T07:30:41Z</time></trkpt><trkpt lat="45.96772293225286" lon="12.64211190368555"><ele>37.42857142857143</ele><time>2026-04-12T07:30:42Z</time></trkpt><trkpt lat="45.96768412449503" lon="12.642188179968175"><ele>37.285714285714285</ele><time>2026-04-12T07:30:43Z</time></trkpt><trkpt lat="45.967633853432204" lon="12.642243482034958"><ele>37.142857142857146</ele><time>2026-04-12T07:30:44Z</time></trkpt><trkpt lat="45.96757836474684" lon="12.642297316076215"><ele>37.0</ele><time>2026-04-12T07:30:45Z</time></trkpt><trkpt lat="45.96752551074708" lon="12.642362140302353"><ele>37.0</ele><time>2026-04-12T07:30:46Z</time></trkpt><trkpt lat="45.967450604614854" lon="12.642403346801814"><ele>37.0</ele><time>2026-04-12T07:30:47Z</time></trkpt><trkpt lat="45.967391929296014" lon="12.642479280528821"><ele>37.0</ele><time>2026-04-12T07:30:48Z</time></trkpt><trkpt lat="45.967326539591575" lon="12.642503931074476"><ele>37.0</ele><time>2026-04-12T07:30:49Z</time></trkpt><trkpt lat="45.967247751435224" lon="12.642533259535092"><ele>37.0</ele><time>2026-04-12T07:30:51Z</time></trkpt><trkpt lat="45.96717509872968" lon="12.642687277996288"><ele>37.0</ele><time>2026-04-12T07:30:53Z</time></trkpt><trkpt lat="45.967163065188956" lon="12.64277748618488"><ele>37.0</ele><time>2026-04-12T07:30:54Z</time></trkpt><trkpt lat="45.96715386868107" lon="12.642876101637974"><ele>37.0</ele><time>2026-04-12T07:30:59Z</time></trkpt><trkpt lat="45.96731572443013" lon="12.642882332398031"><ele>37.0</ele><time>2026-04-12T07:30:59.999Z</time></trkpt><trkpt lat="45.967394855814966" lon="12.642876902985536"><ele>37.0</ele><time>2026-04-12T07:31:00.999Z</time></trkpt><trkpt lat="45.96748759286369" lon="12.642879324314853"><ele>37.0</ele><time>2026-04-12T07:31:01.999Z</time></trkpt><trkpt lat="45.96758428409996" lon="12.642887316792963"><ele>37.6</ele><time>2026-04-12T07:31:02.999Z</time></trkpt><trkpt lat="45.96769161126187" lon="12.64289378125036"><ele>38.2</ele><time>2026-04-12T07:31:03.999Z</time></trkpt><trkpt lat="45.967801970969596" lon="12.64289555269497"><ele>38.8</ele><time>2026-04-12T07:31:04.999Z</time></trkpt><trkpt lat="45.96790813980558" lon="12.642893828226724"><ele>39.4</ele><time>2026-04-12T07:31:05.999Z</time></trkpt><trkpt lat="45.968005715769955" lon="12.642897517271901"><ele>40.0</ele><time>2026-04-12T07:31:06.999Z</time></trkpt><trkpt lat="45.968096144209554" lon="12.642901635849803"><ele>40.0</ele><time>2026-04-12T07:31:07.999Z</time></trkpt><trkpt lat="45.96818738271578" lon="12.642906639523368"><ele>40.0</ele><time>2026-04-12T07:31:08.999Z</time></trkpt><trkpt lat="45.96826875606223" lon="12.642914991097774"><ele>40.0</ele><time>2026-04-12T07:31:09.999Z</time></trkpt><trkpt lat="45.96833885756991" lon="12.642925076781923"><ele>40.0</ele><time>2026-04-12T07:31:10.999Z</time></trkpt><trkpt lat="45.96845220688546" lon="12.642911027393936"><ele>40.0</ele><time>2026-04-12T07:31:12.999Z</time></trkpt><trkpt lat="45.9685202206957" lon="12.642929857400956"><ele>40.0</ele><time>2026-04-12T07:31:14.999Z</time></trkpt><trkpt lat="45.96861894788522" lon="12.642925190513337"><ele>40.0</ele><time>2026-04-12T07:31:17.999Z</time></trkpt><trkpt lat="45.96875320070824" lon="12.643383556441623"><ele>40.0</ele><time>2026-04-12T07:31:19.999Z</time></trkpt><trkpt lat="45.968795594563645" lon="12.643453099250593"><ele>40.0</ele><time>2026-04-12T07:31:21.999Z</time></trkpt><trkpt lat="45.968772774960044" lon="12.64336857900854"><ele>40.0</ele><time>2026-04-12T07:31:29.999Z</time></trkpt><trkpt lat="45.96868306278717" lon="12.643227890633055"><ele>40.0</ele><time>2026-04-12T07:31:31.999Z</time></trkpt><trkpt lat="45.968617506689" lon="12.643117420159331"><ele>40.0</ele><time>2026-04-12T07:31:32.999Z</time></trkpt><trkpt lat="45.96857237420827" lon="12.643036005311064"><ele>40.0</ele><time>2026-04-12T07:31:33.999Z</time></trkpt><trkpt lat="45.96851187160443" lon="12.642989079618731"><ele>40.0</ele><time>2026-04-12T07:31:34.999Z</time></trkpt><trkpt lat="45.96848104401228" lon="12.642901026940448"><ele>40.0</ele><time>2026-04-12T07:31:43Z</time></trkpt><trkpt lat="45.96846775285947" lon="12.64280298791591"><ele>40.0</ele><time>2026-04-12T07:31:45Z</time></trkpt><trkpt lat="45.96844663170357" lon="12.64271389996223"><ele>40.0</ele><time>2026-04-12T07:31:47Z</time></trkpt><trkpt lat="45.96842278156798" lon="12.64261330129463"><ele>40.0</ele><time>2026-04-12T07:31:48Z</time></trkpt><trkpt lat="45.968399844417846" lon="12.642516553576147"><ele>40.0</ele><time>2026-04-12T07:31:49Z</time></trkpt><trkpt lat="45.96837644177073" lon="12.642417842425335"><ele>40.0</ele><time>2026-04-12T07:31:50Z</time></trkpt><trkpt lat="45.96835383303767" lon="12.642322479967017"><ele>40.0</ele><time>2026-04-12T07:31:51Z</time></trkpt><trkpt lat="45.968333045531" lon="12.642234799147475"><ele>40.0</ele><time>2026-04-12T07:31:52Z</time></trkpt><trkpt lat="45.96829310468299" lon="12.642091015708212"><ele>40.0</ele><time>2026-04-12T07:31:54Z</time></trkpt><trkpt lat="45.9682449541364" lon="12.642018980504988"><ele>40.0</ele><time>2026-04-12T07:31:57Z</time></trkpt><trkpt lat="45.96820156995677" lon="12.641941767818922"><ele>40.0</ele><time>2026-04-12T07:31:58Z</time></trkpt><trkpt lat="45.968491238833124" lon="12.641444310783324"><ele>40.0</ele><time>2026-04-12T07:31:59Z</time></trkpt><trkpt lat="45.968533235850586" lon="12.641347196383544"><ele>40.0</ele><time>2026-04-12T07:32:02Z</time></trkpt><trkpt lat="45.96859872097045" lon="12.641301183035466"><ele>40.0</ele><time>2026-04-12T07:32:03Z</time></trkpt><trkpt lat="45.96865770576624" lon="12.64120281905289"><ele>40.0</ele><time>2026-04-12T07:32:04Z</time></trkpt><trkpt lat="45.96874160943846" lon="12.641107788092452"><ele>40.0</ele><time>2026-04-12T07:32:05Z</time></trkpt><trkpt lat="45.96883043555879" lon="12.641009940765885"><ele>39.6</ele><time>2026-04-12T07:32:06Z</time></trkpt><trkpt lat="45.96890330087157" lon="12.640922907091788"><ele>39.2</ele><time>2026-04-12T07:32:07Z</time></trkpt><trkpt lat="45.96896705672756" lon="12.640846059389391"><ele>38.8</ele><time>2026-04-12T07:32:08Z</time></trkpt><trkpt lat="45.9690239043758" lon="12.640783439316092"><ele>38.4</ele><time>2026-04-12T07:32:09Z</time></trkpt><trkpt lat="45.96909784261351" lon="12.640697585374173"><ele>38.0</ele><time>2026-04-12T07:32:11Z</time></trkpt><trkpt lat="45.96918831448669" lon="12.640615427524807"><ele>38.599999999999994</ele><time>2026-04-12T07:32:13Z</time></trkpt><trkpt lat="45.96926995770138" lon="12.640549263524571"><ele>39.199999999999996</ele><time>2026-04-12T07:32:14Z</time></trkpt><trkpt lat="45.96935755592883" lon="12.640476738002743"><ele>39.8</ele><time>2026-04-12T07:32:15Z</time></trkpt><trkpt lat="45.96944828449698" lon="12.640403488036508"><ele>40.4</ele><time>2026-04-12T07:32:16Z</time></trkpt><trkpt lat="45.96953877648992" lon="12.640331959189663"><ele>41.0</ele><time>2026-04-12T07:32:17Z</time></trkpt><trkpt lat="45.9696290919131" lon="12.640263255688962"><ele>41.0</ele><time>2026-04-12T07:32:18Z</time></trkpt><trkpt lat="45.96973034814912" lon="12.640202766229232"><ele>41.0</ele><time>2026-04-12T07:32:19Z</time></trkpt><trkpt lat="45.96985441592995" lon="12.640157108970078"><ele>41.0</ele><time>2026-04-12T07:32:20Z</time></trkpt><trkpt lat="45.96997693725763" lon="12.640133011554227"><ele>41.0</ele><time>2026-04-12T07:32:21Z</time></trkpt><trkpt lat="45.97008081787645" lon="12.64011543858397"><ele>41.0</ele><time>2026-04-12T07:32:22Z</time></trkpt><trkpt lat="45.97018330529162" lon="12.640100139076347"><ele>41.0</ele><time>2026-04-12T07:32:23Z</time></trkpt><trkpt lat="45.970283980956474" lon="12.640086585684749"><ele>41.0</ele><time>2026-04-12T07:32:24Z</time></trkpt><trkpt lat="45.97038206422125" lon="12.640078864062952"><ele>41.0</ele><time>2026-04-12T07:32:25Z</time></trkpt><trkpt lat="45.97048095466487" lon="12.640075847477107"><ele>41.0</ele><time>2026-04-12T07:32:26Z</time></trkpt><trkpt lat="45.97058929317804" lon="12.640078850083782"><ele>41.0</ele><time>2026-04-12T07:32:27Z</time></trkpt><trkpt lat="45.970703250119655" lon="12.640083999905848"><ele>41.0</ele><time>2026-04-12T07:32:28Z</time></trkpt><trkpt lat="45.97082348001943" lon="12.640100542558912"><ele>41.0</ele><time>2026-04-12T07:32:29Z</time></trkpt><trkpt lat="45.97095567634591" lon="12.64012800274861"><ele>41.0</ele><time>2026-04-12T07:32:30Z</time></trkpt><trkpt lat="45.971073004346685" lon="12.640160572918763"><ele>41.166666666666664</ele><time>2026-04-12T07:32:31Z</time></trkpt><trkpt lat="45.971173787519916" lon="12.640195184026233"><ele>41.33333333333333</ele><time>2026-04-12T07:32:32Z</time></trkpt><trkpt lat="45.9712659837643" lon="12.64022799904334"><ele>41.5</ele><time>2026-04-12T07:32:33Z</time></trkpt><trkpt lat="45.97134207887372" lon="12.64026153355313"><ele>41.666666666666664</ele><time>2026-04-12T07:32:34Z</time></trkpt><trkpt lat="45.97140986484817" lon="12.640298827432977"><ele>41.833333333333336</ele><time>2026-04-12T07:32:35Z</time></trkpt><trkpt lat="45.971478550473634" lon="12.640346687423675"><ele>42.0</ele><time>2026-04-12T07:32:36Z</time></trkpt><trkpt lat="45.97155635942478" lon="12.640419777100849"><ele>42.0</ele><time>2026-04-12T07:32:37Z</time></trkpt><trkpt lat="45.971657930518866" lon="12.640527580910666"><ele>42.0</ele><time>2026-04-12T07:32:38Z</time></trkpt><trkpt lat="45.97174315937351" lon="12.640639806087805"><ele>42.0</ele><time>2026-04-12T07:32:39Z</time></trkpt><trkpt lat="45.97180363480426" lon="12.640777825341871"><ele>42.0</ele><time>2026-04-12T07:32:40Z</time></trkpt><trkpt lat="45.971859558941134" lon="12.640957501539214"><ele>42.333333333333336</ele><time>2026-04-12T07:32:41Z</time></trkpt><trkpt lat="45.97191231587137" lon="12.641164618879488"><ele>42.66666666666667</ele><time>2026-04-12T07:32:42Z</time></trkpt><trkpt lat="45.97195772877378" lon="12.641380619729116"><ele>43.0</ele><time>2026-04-12T07:32:43Z</time></trkpt><trkpt lat="45.97200981569985" lon="12.64159521145835"><ele>43.0</ele><time>2026-04-12T07:32:44Z</time></trkpt><trkpt lat="45.97206819638652" lon="12.641799866748274"><ele>43.0</ele><time>2026-04-12T07:32:45Z</time></trkpt><trkpt lat="45.97212209755559" lon="12.64199413188538"><ele>43.0</ele><time>2026-04-12T07:32:46Z</time></trkpt><trkpt lat="45.972177422508956" lon="12.642191476003303"><ele>43.0</ele><time>2026-04-12T07:32:47Z</time></trkpt><trkpt lat="45.97223363117218" lon="12.642393372355427"><ele>43.0</ele><time>2026-04-12T07:32:48Z</time></trkpt><trkpt lat="45.97228722229709" lon="12.642589572396007"><ele>43.0</ele><time>2026-04-12T07:32:49Z</time></trkpt><trkpt lat="45.97234302592948" lon="12.642781139924283"><ele>43.0</ele><time>2026-04-12T07:32:50Z</time></trkpt><trkpt lat="45.97239573224719" lon="12.642968682342996"><ele>43.0</ele><time>2026-04-12T07:32:51Z</time></trkpt><trkpt lat="45.97244507280771" lon="12.643155010363284"><ele>42.75</ele><time>2026-04-12T07:32:52Z</time></trkpt><trkpt lat="45.97249498448308" lon="12.643338980033757"><ele>42.5</ele><time>2026-04-12T07:32:52.999Z</time></trkpt><trkpt lat="45.97254313025006" lon="12.643522977725608"><ele>42.25</ele><time>2026-04-12T07:32:53.999Z</time></trkpt><trkpt lat="45.97259083871362" lon="12.643706984448896"><ele>42.0</ele><time>2026-04-12T07:32:54.999Z</time></trkpt><trkpt lat="45.97263972881463" lon="12.643888084261162"><ele>42.75</ele><time>2026-04-12T07:32:55.999Z</time></trkpt><trkpt lat="45.972689560719665" lon="12.644069688928985"><ele>43.5</ele><time>2026-04-12T07:32:56.999Z</time></trkpt><trkpt lat="45.97274086270383" lon="12.64425256885478"><ele>44.25</ele><time>2026-04-12T07:32:57.999Z</time></trkpt><trkpt lat="45.97279315401192" lon="12.644437118941038"><ele>45.0</ele><time>2026-04-12T07:32:58.999Z</time></trkpt><trkpt lat="45.97284423708027" lon="12.6446236939362"><ele>45.0</ele><time>2026-04-12T07:32:59.999Z</time></trkpt><trkpt lat="45.97289437704309" lon="12.644813861848618"><ele>45.0</ele><time>2026-04-12T07:33:00.999Z</time></trkpt><trkpt lat="45.97294386181504" lon="12.64500417965373"><ele>45.0</ele><time>2026-04-12T07:33:01.999Z</time></trkpt><trkpt lat="45.9730001352005" lon="12.645199742052473"><ele>45.0</ele><time>2026-04-12T07:33:02.999Z</time></trkpt><trkpt lat="45.97305887455473" lon="12.645399149647067"><ele>45.0</ele><time>2026-04-12T07:33:03.999Z</time></trkpt><trkpt lat="45.97311242699895" lon="12.645591308423526"><ele>45.0</ele><time>2026-04-12T07:33:04.999Z</time></trkpt><trkpt lat="45.97316476928243" lon="12.645779246409187"><ele>45.0</ele><time>2026-04-12T07:33:05.999Z</time></trkpt><trkpt lat="45.97321532811706" lon="12.645961950636822"><ele>45.0</ele><time>2026-04-12T07:33:06.999Z</time></trkpt><trkpt lat="45.97326084768901" lon="12.646139743675063"><ele>44.75</ele><time>2026-04-12T07:33:07.999Z</time></trkpt><trkpt lat="45.973306160870834" lon="12.646314924340368"><ele>44.5</ele><time>2026-04-12T07:33:08.999Z</time></trkpt><trkpt lat="45.97335102361762" lon="12.646489685920965"><ele>44.25</ele><time>2026-04-12T07:33:09.999Z</time></trkpt><trkpt lat="45.97339709730865" lon="12.6466653763505"><ele>44.0</ele><time>2026-04-12T07:33:10.999Z</time></trkpt><trkpt lat="45.973447834147166" lon="12.6468425013296"><ele>44.25</ele><time>2026-04-12T07:33:11.999Z</time></trkpt><trkpt lat="45.9734971687214" lon="12.647020076868682"><ele>44.5</ele><time>2026-04-12T07:33:12.999Z</time></trkpt><trkpt lat="45.97354546896692" lon="12.647201722761455"><ele>44.75</ele><time>2026-04-12T07:33:13.999Z</time></trkpt><trkpt lat="45.97359342265305" lon="12.64738250514411"><ele>45.0</ele><time>2026-04-12T07:33:14.999Z</time></trkpt><trkpt lat="45.97364322393019" lon="12.647562545290674"><ele>45.0</ele><time>2026-04-12T07:33:15.999Z</time></trkpt><trkpt lat="45.97369398823696" lon="12.647744445238269"><ele>45.0</ele><time>2026-04-12T07:33:16.999Z</time></trkpt><trkpt lat="45.973741491948665" lon="12.647923118630361"><ele>45.0</ele><time>2026-04-12T07:33:17.999Z</time></trkpt><trkpt lat="45.97378407363644" lon="12.648087711553694"><ele>45.0</ele><time>2026-04-12T07:33:18.999Z</time></trkpt><trkpt lat="45.97382455244781" lon="12.64824346628215"><ele>45.0</ele><time>2026-04-12T07:33:19.999Z</time></trkpt><trkpt lat="45.9738633950451" lon="12.648390275457393"><ele>45.0</ele><time>2026-04-12T07:33:20.999Z</time></trkpt><trkpt lat="45.9738974082124" lon="12.648526513588054"><ele>45.0</ele><time>2026-04-12T07:33:21.999Z</time></trkpt><trkpt lat="45.97392364559141" lon="12.648651649778792"><ele>45.0</ele><time>2026-04-12T07:33:22.999Z</time></trkpt><trkpt lat="45.97394164114367" lon="12.64877367612303"><ele>45.0</ele><time>2026-04-12T07:33:23.999Z</time></trkpt><trkpt lat="45.973949883866055" lon="12.648888625771882"><ele>44.666666666666664</ele><time>2026-04-12T07:33:24.999Z</time></trkpt><trkpt lat="45.97395861952439" lon="12.648999587833941"><ele>44.333333333333336</ele><time>2026-04-12T07:33:25.999Z</time></trkpt><trkpt lat="45.973983739493356" lon="12.649104560867578"><ele>44.0</ele><time>2026-04-12T07:33:26.999Z</time></trkpt><trkpt lat="45.97402187780959" lon="12.649205768736428"><ele>43.66666666666667</ele><time>2026-04-12T07:33:27.999Z</time></trkpt><trkpt lat="45.97406926658737" lon="12.649308838274406"><ele>43.333333333333336</ele><time>2026-04-12T07:33:28.999Z</time></trkpt><trkpt lat="45.974124297931624" lon="12.649420708366062"><ele>43.0</ele><time>2026-04-12T07:33:29.999Z</time></trkpt><trkpt lat="45.974179307509246" lon="12.649559523120812"><ele>43.0</ele><time>2026-04-12T07:33:30.999Z</time></trkpt><trkpt lat="45.97423392202177" lon="12.649717908190185"><ele>43.0</ele><time>2026-04-12T07:33:31.999Z</time></trkpt><trkpt lat="45.9742906685332" lon="12.649895475770808"><ele>43.0</ele><time>2026-04-12T07:33:32.999Z</time></trkpt><trkpt lat="45.974348943361214" lon="12.650101916431428"><ele>43.0</ele><time>2026-04-12T07:33:33.999Z</time></trkpt><trkpt lat="45.97440472866827" lon="12.6503105637349"><ele>43.0</ele><time>2026-04-12T07:33:34.999Z</time></trkpt><trkpt lat="45.97446312770515" lon="12.650528174394756"><ele>43.0</ele><time>2026-04-12T07:33:35.999Z</time></trkpt><trkpt lat="45.97452287111825" lon="12.650747287189956"><ele>43.0</ele><time>2026-04-12T07:33:36.999Z</time></trkpt><trkpt lat="45.974581914467024" lon="12.65096612281193"><ele>42.66666666666667</ele><time>2026-04-12T07:33:37.999Z</time></trkpt><trkpt lat="45.97464027654103" lon="12.651183080933128"><ele>42.333333333333336</ele><time>2026-04-12T07:33:38.999Z</time></trkpt><trkpt lat="45.97469658424564" lon="12.651394207441164"><ele>42.0</ele><time>2026-04-12T07:33:39.999Z</time></trkpt><trkpt lat="45.97475256064293" lon="12.651601425541108"><ele>42.0</ele><time>2026-04-12T07:33:40.999Z</time></trkpt><trkpt lat="45.97480881973709" lon="12.651803024393233"><ele>42.0</ele><time>2026-04-12T07:33:41.999Z</time></trkpt><trkpt lat="45.97486541630298" lon="12.652005697427851"><ele>42.0</ele><time>2026-04-12T07:33:42.999Z</time></trkpt><trkpt lat="45.97491960653779" lon="12.652212026825378"><ele>42.0</ele><time>2026-04-12T07:33:43.999Z</time></trkpt><trkpt lat="45.97497256609791" lon="12.65241813807086"><ele>42.0</ele><time>2026-04-12T07:33:44.999Z</time></trkpt><trkpt lat="45.975023151018206" lon="12.65262733420774"><ele>42.0</ele><time>2026-04-12T07:33:45.999Z</time></trkpt><trkpt lat="45.97506782360742" lon="12.652836919822917"><ele>42.0</ele><time>2026-04-12T07:33:46.999Z</time></trkpt><trkpt lat="45.975110145573886" lon="12.653049067094742"><ele>42.0</ele><time>2026-04-12T07:33:47.999Z</time></trkpt><trkpt lat="45.975149514991664" lon="12.65326452864123"><ele>42.0</ele><time>2026-04-12T07:33:48.999Z</time></trkpt><trkpt lat="45.97518714625857" lon="12.653486188142557"><ele>40.666666666666664</ele><time>2026-04-12T07:33:49.999Z</time></trkpt><trkpt lat="45.975221109708066" lon="12.653712689386072"><ele>39.33333333333333</ele><time>2026-04-12T07:33:50.999Z</time></trkpt><trkpt lat="45.97525285425644" lon="12.65393744552401"><ele>38.0</ele><time>2026-04-12T07:33:51.999Z</time></trkpt><trkpt lat="45.97527786017675" lon="12.654157710061096"><ele>38.0</ele><time>2026-04-12T07:33:52.999Z</time></trkpt><trkpt lat="45.97530081273102" lon="12.654376793343992"><ele>38.0</ele><time>2026-04-12T07:33:53.999Z</time></trkpt><trkpt lat="45.97531765514129" lon="12.654594806600361"><ele>38.0</ele><time>2026-04-12T07:33:54.999Z</time></trkpt><trkpt lat="45.97533172598005" lon="12.654813745187141"><ele>37.666666666666664</ele><time>2026-04-12T07:33:56Z</time></trkpt><trkpt lat="45.975344512071636" lon="12.655041628697667"><ele>37.333333333333336</ele><time>2026-04-12T07:33:57Z</time></trkpt><trkpt lat="45.97535546300824" lon="12.655295170829502"><ele>37.0</ele><time>2026-04-12T07:33:58Z</time></trkpt><trkpt lat="45.97536081201524" lon="12.65553422841951"><ele>38.333333333333336</ele><time>2026-04-12T07:33:59Z</time></trkpt><trkpt lat="45.97536245955053" lon="12.655754740610812"><ele>39.666666666666664</ele><time>2026-04-12T07:34:00Z</time></trkpt><trkpt lat="45.97536328115554" lon="12.65596728259282"><ele>41.0</ele><time>2026-04-12T07:34:01Z</time></trkpt><trkpt lat="45.97536263438988" lon="12.65619683451452"><ele>41.33333333333333</ele><time>2026-04-12T07:34:02Z</time></trkpt><trkpt lat="45.97535630105595" lon="12.656433159529318"><ele>41.666666666666664</ele><time>2026-04-12T07:34:03Z</time></trkpt><trkpt lat="45.975344666872594" lon="12.65666088926914"><ele>42.0</ele><time>2026-04-12T07:34:04Z</time></trkpt><trkpt lat="45.97532826379739" lon="12.656878744953449"><ele>41.4</ele><time>2026-04-12T07:34:05Z</time></trkpt><trkpt lat="45.97530849749558" lon="12.65708273222081"><ele>40.800000000000004</ele><time>2026-04-12T07:34:06Z</time></trkpt><trkpt lat="45.97528885358621" lon="12.657251521979408"><ele>40.2</ele><time>2026-04-12T07:34:07Z</time></trkpt><trkpt lat="45.97527025663942" lon="12.657374884404053"><ele>39.6</ele><time>2026-04-12T07:34:08Z</time></trkpt><trkpt lat="45.975255481073404" lon="12.657465744458516"><ele>39.0</ele><time>2026-04-12T07:34:09Z</time></trkpt><trkpt lat="45.97523911524484" lon="12.65757857216182"><ele>39.0</ele><time>2026-04-12T07:34:11Z</time></trkpt><trkpt lat="45.97523081216792" lon="12.657669540037801"><ele>39.0</ele><time>2026-04-12T07:34:24Z</time></trkpt><trkpt lat="45.97521189640289" lon="12.657769153441597"><ele>39.0</ele><time>2026-04-12T07:34:26Z</time></trkpt><trkpt lat="45.97537223866445" lon="12.657825439437797"><ele>39.0</ele><time>2026-04-12T07:34:27Z</time></trkpt><trkpt lat="45.975464159498976" lon="12.657822816530235"><ele>39.0</ele><time>2026-04-12T07:34:28Z</time></trkpt><trkpt lat="45.97558693193029" lon="12.65780146930831"><ele>39.0</ele><time>2026-04-12T07:34:29Z</time></trkpt><trkpt lat="45.975713179288526" lon="12.657773217241434"><ele>39.0</ele><time>2026-04-12T07:34:30Z</time></trkpt><trkpt lat="45.975817860397896" lon="12.657752777501265"><ele>39.0</ele><time>2026-04-12T07:34:31Z</time></trkpt><trkpt lat="45.97590690194348" lon="12.657765466727879"><ele>39.0</ele><time>2026-04-12T07:34:32Z</time></trkpt><trkpt lat="45.97597379866136" lon="12.65781887702339"><ele>39.0</ele><time>2026-04-12T07:34:33Z</time></trkpt><trkpt lat="45.976024018310525" lon="12.65791166492753"><ele>39.0</ele><time>2026-04-12T07:34:34Z</time></trkpt><trkpt lat="45.97608051816586" lon="12.658072161023329"><ele>39.0</ele><time>2026-04-12T07:34:35Z</time></trkpt><trkpt lat="45.9761453060038" lon="12.658328124147587"><ele>39.0</ele><time>2026-04-12T07:34:36Z</time></trkpt><trkpt lat="45.97620924809974" lon="12.658617822779362"><ele>40.0</ele><time>2026-04-12T07:34:37Z</time></trkpt><trkpt lat="45.97628308902654" lon="12.658926333396908"><ele>41.0</ele><time>2026-04-12T07:34:38Z</time></trkpt><trkpt lat="45.97636736945087" lon="12.659257515833556"><ele>41.5</ele><time>2026-04-12T07:34:39Z</time></trkpt><trkpt lat="45.9764487411088" lon="12.65960047452512"><ele>42.0</ele><time>2026-04-12T07:34:40Z</time></trkpt><trkpt lat="45.97652579201999" lon="12.659937563550187"><ele>42.0</ele><time>2026-04-12T07:34:41Z</time></trkpt><trkpt lat="45.976602580433074" lon="12.66026464853757"><ele>42.0</ele><time>2026-04-12T07:34:42Z</time></trkpt><trkpt lat="45.976676911120876" lon="12.660576014379968"><ele>42.0</ele><time>2026-04-12T07:34:43Z</time></trkpt><trkpt lat="45.97674636204919" lon="12.660869905941018"><ele>42.0</ele><time>2026-04-12T07:34:44Z</time></trkpt><trkpt lat="45.976807058424676" lon="12.661146956848517"><ele>42.0</ele><time>2026-04-12T07:34:45Z</time></trkpt><trkpt lat="45.976858796763736" lon="12.661432547854934"><ele>42.0</ele><time>2026-04-12T07:34:46Z</time></trkpt><trkpt lat="45.97690238637295" lon="12.661749883763115"><ele>42.0</ele><time>2026-04-12T07:34:47Z</time></trkpt><trkpt lat="45.97694395244227" lon="12.662091543401601"><ele>42.0</ele><time>2026-04-12T07:34:48Z</time></trkpt><trkpt lat="45.976981597683285" lon="12.662412752500927"><ele>42.0</ele><time>2026-04-12T07:34:49Z</time></trkpt><trkpt lat="45.97702215828732" lon="12.662728491716353"><ele>42.0</ele><time>2026-04-12T07:34:50Z</time></trkpt><trkpt lat="45.97707044359904" lon="12.663061432113524"><ele>42.0</ele><time>2026-04-12T07:34:51Z</time></trkpt><trkpt lat="45.97713185176628" lon="12.663391317187985"><ele>42.0</ele><time>2026-04-12T07:34:52Z</time></trkpt><trkpt lat="45.9772096412844" lon="12.663735363247698"><ele>42.0</ele><time>2026-04-12T07:34:53Z</time></trkpt><trkpt lat="45.977300721603484" lon="12.664084559910242"><ele>42.0</ele><time>2026-04-12T07:34:54Z</time></trkpt><trkpt lat="45.977393790992906" lon="12.66442225714732"><ele>42.0</ele><time>2026-04-12T07:34:55Z</time></trkpt><trkpt lat="45.97748093161964" lon="12.664737335916811"><ele>42.0</ele><time>2026-04-12T07:34:56Z</time></trkpt><trkpt lat="45.97757501040976" lon="12.66505272584316"><ele>43.5</ele><time>2026-04-12T07:34:57Z</time></trkpt><trkpt lat="45.977680872848104" lon="12.665381872957814"><ele>45.0</ele><time>2026-04-12T07:34:58Z</time></trkpt><trkpt lat="45.97780042660715" lon="12.665720061680172"><ele>45.0</ele><time>2026-04-12T07:34:59Z</time></trkpt><trkpt lat="45.97792676907826" lon="12.66604377035243"><ele>45.0</ele><time>2026-04-12T07:35:00Z</time></trkpt><trkpt lat="45.978042102133266" lon="12.66633423595541"><ele>44.666666666666664</ele><time>2026-04-12T07:35:01Z</time></trkpt><trkpt lat="45.978144700944135" lon="12.666611099328021"><ele>44.33333333333333</ele><time>2026-04-12T07:35:02Z</time></trkpt><trkpt lat="45.97824012524244" lon="12.6668954494418"><ele>44.0</ele><time>2026-04-12T07:35:03Z</time></trkpt><trkpt lat="45.97832197205611" lon="12.667192556621918"><ele>43.5</ele><time>2026-04-12T07:35:04Z</time></trkpt><trkpt lat="45.97839409978536" lon="12.667523989869284"><ele>43.0</ele><time>2026-04-12T07:35:05Z</time></trkpt><trkpt lat="45.97845634798873" lon="12.667874474368878"><ele>43.0</ele><time>2026-04-12T07:35:06Z</time></trkpt><trkpt lat="45.97850558510367" lon="12.668224861810646"><ele>43.0</ele><time>2026-04-12T07:35:07Z</time></trkpt><trkpt lat="45.97855048710779" lon="12.668567212641317"><ele>43.0</ele><time>2026-04-12T07:35:08Z</time></trkpt><trkpt lat="45.97859615957212" lon="12.66888582686996"><ele>43.0</ele><time>2026-04-12T07:35:09Z</time></trkpt><trkpt lat="45.97865014418513" lon="12.669193519530602"><ele>43.0</ele><time>2026-04-12T07:35:10Z</time></trkpt><trkpt lat="45.97871743734948" lon="12.669507844576822"><ele>43.0</ele><time>2026-04-12T07:35:11Z</time></trkpt><trkpt lat="45.97880003805307" lon="12.669841435293721"><ele>43.0</ele><time>2026-04-12T07:35:12Z</time></trkpt><trkpt lat="45.97888608199382" lon="12.670197617277653"><ele>43.0</ele><time>2026-04-12T07:35:13Z</time></trkpt><trkpt lat="45.978974616473366" lon="12.670566216777006"><ele>43.0</ele><time>2026-04-12T07:35:14Z</time></trkpt><trkpt lat="45.97906725108036" lon="12.67094807729645"><ele>43.0</ele><time>2026-04-12T07:35:15Z</time></trkpt><trkpt lat="45.97916097708768" lon="12.671338122764102"><ele>43.0</ele><time>2026-04-12T07:35:16Z</time></trkpt><trkpt lat="45.97925761221692" lon="12.671736868545565"><ele>43.0</ele><time>2026-04-12T07:35:17Z</time></trkpt><trkpt lat="45.979355921422794" lon="12.672137008602668"><ele>43.0</ele><time>2026-04-12T07:35:18Z</time></trkpt><trkpt lat="45.97945341835209" lon="12.672537076091768"><ele>42.0</ele><time>2026-04-12T07:35:19Z</time></trkpt><trkpt lat="45.9795498842024" lon="12.672936232247743"><ele>41.0</ele><time>2026-04-12T07:35:20Z</time></trkpt><trkpt lat="45.97964535102179" lon="12.67333681445298"><ele>41.0</ele><time>2026-04-12T07:35:21Z</time></trkpt><trkpt lat="45.979734381890765" lon="12.673707179641944"><ele>41.0</ele><time>2026-04-12T07:35:22Z</time></trkpt><trkpt lat="45.97981735687998" lon="12.674051229510987"><ele>41.0</ele><time>2026-04-12T07:35:23Z</time></trkpt><trkpt lat="45.979892778506084" lon="12.67435520613497"><ele>41.0</ele><time>2026-04-12T07:35:24Z</time></trkpt><trkpt lat="45.97996214197534" lon="12.674638424998303"><ele>41.0</ele><time>2026-04-12T07:35:25Z</time></trkpt><trkpt lat="45.98002769844432" lon="12.67490874255009"><ele>43.0</ele><time>2026-04-12T07:35:26Z</time></trkpt><trkpt lat="45.98009018934923" lon="12.675162535781737"><ele>45.0</ele><time>2026-04-12T07:35:27Z</time></trkpt><trkpt lat="45.98015053770415" lon="12.675400393525482"><ele>47.0</ele><time>2026-04-12T07:35:28Z</time></trkpt><trkpt lat="45.980206467059794" lon="12.675624595632971"><ele>47.25</ele><time>2026-04-12T07:35:28.999Z</time></trkpt><trkpt lat="45.98026152815127" lon="12.675835635119041"><ele>47.5</ele><time>2026-04-12T07:35:29.999Z</time></trkpt><trkpt lat="45.98031409241694" lon="12.676034824932948"><ele>47.75</ele><time>2026-04-12T07:35:30.999Z</time></trkpt><trkpt lat="45.980362265290445" lon="12.676223157437686"><ele>48.0</ele><time>2026-04-12T07:35:31.999Z</time></trkpt><trkpt lat="45.980406214906914" lon="12.67640168774767"><ele>47.25</ele><time>2026-04-12T07:35:32.999Z</time></trkpt><trkpt lat="45.9804451217299" lon="12.676568821574584"><ele>46.5</ele><time>2026-04-12T07:35:33.999Z</time></trkpt><trkpt lat="45.98048407078373" lon="12.676725799333509"><ele>45.75</ele><time>2026-04-12T07:35:34.999Z</time></trkpt><trkpt lat="45.98052497360358" lon="12.676882282914754"><ele>45.0</ele><time>2026-04-12T07:35:35.999Z</time></trkpt><trkpt lat="45.98056727249762" lon="12.67704228325945"><ele>44.75</ele><time>2026-04-12T07:35:36.999Z</time></trkpt><trkpt lat="45.98060955621062" lon="12.6772019517006"><ele>44.5</ele><time>2026-04-12T07:35:37.999Z</time></trkpt><trkpt lat="45.980653734951844" lon="12.67736072532713"><ele>44.25</ele><time>2026-04-12T07:35:38.999Z</time></trkpt><trkpt lat="45.980697889773715" lon="12.67751992642506"><ele>44.0</ele><time>2026-04-12T07:35:39.999Z</time></trkpt><trkpt lat="45.9807430755397" lon="12.677677730790071"><ele>43.6</ele><time>2026-04-12T07:35:40.999Z</time></trkpt><trkpt lat="45.98079093004113" lon="12.67783049725143"><ele>43.2</ele><time>2026-04-12T07:35:41.999Z</time></trkpt><trkpt lat="45.98083842643661" lon="12.677972523293032"><ele>42.800000000000004</ele><time>2026-04-12T07:35:42.999Z</time></trkpt><trkpt lat="45.980882682586035" lon="12.678093770412488"><ele>42.400000000000006</ele><time>2026-04-12T07:35:43.999Z</time></trkpt><trkpt lat="45.98092454801597" lon="12.67821134458475"><ele>42.0</ele><time>2026-04-12T07:35:44.999Z</time></trkpt><trkpt lat="45.98096593330002" lon="12.67831753764829"><ele>42.0</ele><time>2026-04-12T07:35:45.999Z</time></trkpt><trkpt lat="45.98100517952775" lon="12.678412626020787"><ele>42.0</ele><time>2026-04-12T07:35:46.999Z</time></trkpt><trkpt lat="45.981043630953124" lon="12.678503355598592"><ele>42.0</ele><time>2026-04-12T07:35:47.999Z</time></trkpt><trkpt lat="45.981081712396765" lon="12.678593052442201"><ele>42.0</ele><time>2026-04-12T07:35:48.999Z</time></trkpt><trkpt lat="45.98112252124729" lon="12.678687571659662"><ele>42.0</ele><time>2026-04-12T07:35:49.999Z</time></trkpt><trkpt lat="45.98116788679317" lon="12.678785533707014"><ele>42.0</ele><time>2026-04-12T07:35:50.999Z</time></trkpt><trkpt lat="45.98121730789013" lon="12.678883496458813"><ele>42.400000000000006</ele><time>2026-04-12T07:35:51.999Z</time></trkpt><trkpt lat="45.981271571974695" lon="12.678981924187331"><ele>42.800000000000004</ele><time>2026-04-12T07:35:52.999Z</time></trkpt><trkpt lat="45.98133099200485" lon="12.679081289127312"><ele>43.2</ele><time>2026-04-12T07:35:53.999Z</time></trkpt><trkpt lat="45.98139319440483" lon="12.679178320546203"><ele>43.6</ele><time>2026-04-12T07:35:55Z</time></trkpt><trkpt lat="45.98145852365115" lon="12.679276692069115"><ele>44.0</ele><time>2026-04-12T07:35:56Z</time></trkpt><trkpt lat="45.98152732412818" lon="12.679380668673272"><ele>43.800000000000004</ele><time>2026-04-12T07:35:57Z</time></trkpt><trkpt lat="45.98160062779135" lon="12.679487118744383"><ele>43.6</ele><time>2026-04-12T07:35:58Z</time></trkpt><trkpt lat="45.981674672961006" lon="12.6795935780077"><ele>43.4</ele><time>2026-04-12T07:35:59Z</time></trkpt><trkpt lat="45.98174985707251" lon="12.679703769281389"><ele>43.2</ele><time>2026-04-12T07:36:00Z</time></trkpt><trkpt lat="45.98182446514514" lon="12.679818358264956"><ele>43.0</ele><time>2026-04-12T07:36:01Z</time></trkpt><trkpt lat="45.98190021208557" lon="12.679937029462947"><ele>43.5</ele><time>2026-04-12T07:36:02Z</time></trkpt><trkpt lat="45.98198079755419" lon="12.680061330429258"><ele>44.0</ele><time>2026-04-12T07:36:03Z</time></trkpt><trkpt lat="45.98207302842257" lon="12.680207645401325"><ele>44.5</ele><time>2026-04-12T07:36:04Z</time></trkpt><trkpt lat="45.982174923953785" lon="12.680364075044105"><ele>45.0</ele><time>2026-04-12T07:36:05Z</time></trkpt><trkpt lat="45.98227132814528" lon="12.680512383982272"><ele>45.0</ele><time>2026-04-12T07:36:06Z</time></trkpt><trkpt lat="45.982368362174384" lon="12.680659500686474"><ele>45.0</ele><time>2026-04-12T07:36:07Z</time></trkpt><trkpt lat="45.98246631850117" lon="12.680808362404788"><ele>45.0</ele><time>2026-04-12T07:36:08Z</time></trkpt><trkpt lat="45.98256442528877" lon="12.68096078808875"><ele>45.0</ele><time>2026-04-12T07:36:09Z</time></trkpt><trkpt lat="45.98266532016699" lon="12.681115968399409"><ele>45.333333333333336</ele><time>2026-04-12T07:36:10Z</time></trkpt><trkpt lat="45.982773016420374" lon="12.68128203131007"><ele>45.66666666666667</ele><time>2026-04-12T07:36:11Z</time></trkpt><trkpt lat="45.98288323303487" lon="12.681447477698548"><ele>46.0</ele><time>2026-04-12T07:36:12Z</time></trkpt><trkpt lat="45.98299325738905" lon="12.68161397951593"><ele>46.0</ele><time>2026-04-12T07:36:13Z</time></trkpt><trkpt lat="45.98310225381236" lon="12.681780174765905"><ele>46.0</ele><time>2026-04-12T07:36:14Z</time></trkpt><trkpt lat="45.98321048634389" lon="12.681945850028361"><ele>46.0</ele><time>2026-04-12T07:36:15Z</time></trkpt><trkpt lat="45.98331219484964" lon="12.68210535608901"><ele>45.25</ele><time>2026-04-12T07:36:16Z</time></trkpt><trkpt lat="45.98341209636365" lon="12.682264243551089"><ele>44.5</ele><time>2026-04-12T07:36:17Z</time></trkpt><trkpt lat="45.98350505404027" lon="12.68241359143177"><ele>43.75</ele><time>2026-04-12T07:36:18Z</time></trkpt><trkpt lat="45.98358828304274" lon="12.68255298526354"><ele>43.0</ele><time>2026-04-12T07:36:19Z</time></trkpt><trkpt lat="45.98366655441561" lon="12.682685007880284"><ele>42.75</ele><time>2026-04-12T07:36:20Z</time></trkpt><trkpt lat="45.98374665357529" lon="12.682820099981347"><ele>42.5</ele><time>2026-04-12T07:36:21Z</time></trkpt><trkpt lat="45.9838328929017" lon="12.682971423886071"><ele>42.25</ele><time>2026-04-12T07:36:22Z</time></trkpt><trkpt lat="45.98393461778629" lon="12.683158852252536"><ele>42.0</ele><time>2026-04-12T07:36:23Z</time></trkpt><trkpt lat="45.98404617002145" lon="12.683367977356333"><ele>42.0</ele><time>2026-04-12T07:36:24Z</time></trkpt><trkpt lat="45.98415828828786" lon="12.683578284322207"><ele>42.0</ele><time>2026-04-12T07:36:25Z</time></trkpt><trkpt lat="45.984273169670175" lon="12.683798908894325"><ele>42.0</ele><time>2026-04-12T07:36:26Z</time></trkpt><trkpt lat="45.984382153518276" lon="12.684009182419508"><ele>41.666666666666664</ele><time>2026-04-12T07:36:27Z</time></trkpt><trkpt lat="45.98448412893688" lon="12.684201142740108"><ele>41.33333333333333</ele><time>2026-04-12T07:36:28Z</time></trkpt><trkpt lat="45.984577873909224" lon="12.684381160285755"><ele>41.0</ele><time>2026-04-12T07:36:29Z</time></trkpt><trkpt lat="45.98466680045693" lon="12.684551195499544"><ele>42.666666666666664</ele><time>2026-04-12T07:36:30Z</time></trkpt><trkpt lat="45.98475423191173" lon="12.68471062070404"><ele>44.333333333333336</ele><time>2026-04-12T07:36:31Z</time></trkpt><trkpt lat="45.984847014352496" lon="12.684875692257823"><ele>46.0</ele><time>2026-04-12T07:36:32Z</time></trkpt><trkpt lat="45.98495504348735" lon="12.68506136025561"><ele>46.66666666666667</ele><time>2026-04-12T07:36:33Z</time></trkpt><trkpt lat="45.985077688412865" lon="12.685269349327625"><ele>47.333333333333336</ele><time>2026-04-12T07:36:34Z</time></trkpt><trkpt lat="45.985191739499825" lon="12.685460594541212"><ele>48.0</ele><time>2026-04-12T07:36:35Z</time></trkpt><trkpt lat="45.985296466842016" lon="12.685638078076993"><ele>48.0</ele><time>2026-04-12T07:36:36Z</time></trkpt><trkpt lat="45.98539232154654" lon="12.685805172938965"><ele>48.0</ele><time>2026-04-12T07:36:37Z</time></trkpt><trkpt lat="45.985478101761885" lon="12.685953531170467"><ele>48.0</ele><time>2026-04-12T07:36:38Z</time></trkpt><trkpt lat="45.985553736026006" lon="12.686083396510634"><ele>48.0</ele><time>2026-04-12T07:36:39Z</time></trkpt><trkpt lat="45.98561515142549" lon="12.68618562550233"><ele>48.0</ele><time>2026-04-12T07:36:40Z</time></trkpt><trkpt lat="45.98565881726231" lon="12.686269795382255"><ele>48.0</ele><time>2026-04-12T07:36:41Z</time></trkpt><trkpt lat="45.985705089593296" lon="12.686400970355525"><ele>48.0</ele><time>2026-04-12T07:36:43Z</time></trkpt><trkpt lat="45.98559937887678" lon="12.686603014247744"><ele>48.0</ele><time>2026-04-12T07:36:45Z</time></trkpt><trkpt lat="45.98549401102041" lon="12.686743754476273"><ele>48.0</ele><time>2026-04-12T07:36:46Z</time></trkpt><trkpt lat="45.985361039852634" lon="12.68690141443314"><ele>48.0</ele><time>2026-04-12T07:36:47Z</time></trkpt><trkpt lat="45.985216924723815" lon="12.687069211821177"><ele>48.0</ele><time>2026-04-12T07:36:48Z</time></trkpt><trkpt lat="45.98507715083945" lon="12.68724790448672"><ele>47.333333333333336</ele><time>2026-04-12T07:36:49Z</time></trkpt><trkpt lat="45.98495253810313" lon="12.687405369127246"><ele>46.66666666666667</ele><time>2026-04-12T07:36:50Z</time></trkpt><trkpt lat="45.98483802861296" lon="12.687546382967128"><ele>46.0</ele><time>2026-04-12T07:36:51Z</time></trkpt><trkpt lat="45.98472787238934" lon="12.687680830342947"><ele>46.0</ele><time>2026-04-12T07:36:52Z</time></trkpt><trkpt lat="45.984616219757626" lon="12.687816093110545"><ele>46.0</ele><time>2026-04-12T07:36:53Z</time></trkpt><trkpt lat="45.98449901847283" lon="12.687968216955293"><ele>46.0</ele><time>2026-04-12T07:36:54Z</time></trkpt><trkpt lat="45.984355644481866" lon="12.68813729213168"><ele>46.0</ele><time>2026-04-12T07:36:55Z</time></trkpt><trkpt lat="45.98420820415581" lon="12.688321001878567"><ele>46.0</ele><time>2026-04-12T07:36:56Z</time></trkpt><trkpt lat="45.98407596688944" lon="12.688493886116149"><ele>46.0</ele><time>2026-04-12T07:36:57Z</time></trkpt><trkpt lat="45.98394378784183" lon="12.688656507187664"><ele>45.333333333333336</ele><time>2026-04-12T07:36:58Z</time></trkpt><trkpt lat="45.98381521719346" lon="12.68885298609945"><ele>44.666666666666664</ele><time>2026-04-12T07:36:59Z</time></trkpt><trkpt lat="45.98367664458906" lon="12.689072141169364"><ele>44.0</ele><time>2026-04-12T07:37:00Z</time></trkpt><trkpt lat="45.98354828101249" lon="12.689275444802254"><ele>44.0</ele><time>2026-04-12T07:37:01Z</time></trkpt><trkpt lat="45.98343346842999" lon="12.689460067316233"><ele>44.0</ele><time>2026-04-12T07:37:02Z</time></trkpt><trkpt lat="45.98331220746422" lon="12.689653159089286"><ele>44.0</ele><time>2026-04-12T07:37:03Z</time></trkpt><trkpt lat="45.98319710693461" lon="12.689841363198328"><ele>44.0</ele><time>2026-04-12T07:37:04Z</time></trkpt><trkpt lat="45.983094072396916" lon="12.690015662159205"><ele>44.0</ele><time>2026-04-12T07:37:05Z</time></trkpt><trkpt lat="45.98299895732258" lon="12.690176674400126"><ele>44.0</ele><time>2026-04-12T07:37:06Z</time></trkpt><trkpt lat="45.98290419602104" lon="12.690320258272257"><ele>44.0</ele><time>2026-04-12T07:37:07Z</time></trkpt><trkpt lat="45.98282078578581" lon="12.69045101013516"><ele>44.0</ele><time>2026-04-12T07:37:08Z</time></trkpt><trkpt lat="45.98274634415872" lon="12.690566753488497"><ele>44.0</ele><time>2026-04-12T07:37:09Z</time></trkpt><trkpt lat="45.98268157168672" lon="12.690663433344556"><ele>44.0</ele><time>2026-04-12T07:37:10Z</time></trkpt><trkpt lat="45.98263766015496" lon="12.690734365032911"><ele>44.0</ele><time>2026-04-12T07:37:12Z</time></trkpt><trkpt lat="45.982721121884" lon="12.690932464250217"><ele>44.0</ele><time>2026-04-12T07:37:19Z</time></trkpt><trkpt lat="45.982810317243235" lon="12.691061284148194"><ele>43.75</ele><time>2026-04-12T07:37:20Z</time></trkpt><trkpt lat="45.98289619935044" lon="12.691202456066708"><ele>43.5</ele><time>2026-04-12T07:37:21Z</time></trkpt><trkpt lat="45.982967037460526" lon="12.6913415267943"><ele>43.25</ele><time>2026-04-12T07:37:22Z</time></trkpt><trkpt lat="45.983027327983045" lon="12.691471776549738"><ele>43.0</ele><time>2026-04-12T07:37:23Z</time></trkpt><trkpt lat="45.98308299034404" lon="12.69159733385315"><ele>43.0</ele><time>2026-04-12T07:37:24Z</time></trkpt><trkpt lat="45.98313508836" lon="12.691708871141676"><ele>43.0</ele><time>2026-04-12T07:37:25Z</time></trkpt><trkpt lat="45.983185249845754" lon="12.691809232193958"><ele>43.0</ele><time>2026-04-12T07:37:26Z</time></trkpt><trkpt lat="45.98323045497395" lon="12.691899979125845"><ele>43.0</ele><time>2026-04-12T07:37:27Z</time></trkpt><trkpt lat="45.98327179917712" lon="12.691985020256936"><ele>43.0</ele><time>2026-04-12T07:37:28Z</time></trkpt><trkpt lat="45.98330664764301" lon="12.692060757480794"><ele>43.0</ele><time>2026-04-12T07:37:29Z</time></trkpt><trkpt lat="45.98337802749209" lon="12.692209151264288"><ele>43.0</ele><time>2026-04-12T07:37:31Z</time></trkpt><trkpt lat="45.983415181097946" lon="12.692287211033596"><ele>43.0</ele><time>2026-04-12T07:37:32Z</time></trkpt><trkpt lat="45.9834796815335" lon="12.692429440841765"><ele>43.0</ele><time>2026-04-12T07:37:34Z</time></trkpt><trkpt lat="45.983592241170726" lon="12.692536849048643"><ele>43.0</ele><time>2026-04-12T07:37:36Z</time></trkpt><trkpt lat="45.98367824936924" lon="12.692609338563868"><ele>43.0</ele><time>2026-04-12T07:37:37Z</time></trkpt><trkpt lat="45.983771852467555" lon="12.692711278818681"><ele>42.5</ele><time>2026-04-12T07:37:38Z</time></trkpt><trkpt lat="45.98385968934732" lon="12.692833096280543"><ele>42.0</ele><time>2026-04-12T07:37:39Z</time></trkpt><trkpt lat="45.983952867432926" lon="12.692976058895956"><ele>41.5</ele><time>2026-04-12T07:37:40Z</time></trkpt><trkpt lat="45.984060894621265" lon="12.693148023489375"><ele>41.0</ele><time>2026-04-12T07:37:41Z</time></trkpt><trkpt lat="45.984166683780735" lon="12.693311315609627"><ele>41.33333333333333</ele><time>2026-04-12T07:37:42Z</time></trkpt><trkpt lat="45.984272405096334" lon="12.693478835099132"><ele>41.666666666666664</ele><time>2026-04-12T07:37:43Z</time></trkpt><trkpt lat="45.984369829311404" lon="12.69364161293996"><ele>42.0</ele><time>2026-04-12T07:37:44Z</time></trkpt><trkpt lat="45.98446716826822" lon="12.693806234614621"><ele>41.5</ele><time>2026-04-12T07:37:45Z</time></trkpt><trkpt lat="45.984565496833" lon="12.693964895509144"><ele>41.0</ele><time>2026-04-12T07:37:46Z</time></trkpt><trkpt lat="45.98466014797773" lon="12.694121203346274"><ele>40.5</ele><time>2026-04-12T07:37:47Z</time></trkpt><trkpt lat="45.984753612036684" lon="12.69427272937743"><ele>40.0</ele><time>2026-04-12T07:37:48Z</time></trkpt><trkpt lat="45.98484170178275" lon="12.694414585102072"><ele>40.2</ele><time>2026-04-12T07:37:49Z</time></trkpt><trkpt lat="45.98492500636507" lon="12.6945424202375"><ele>40.4</ele><time>2026-04-12T07:37:50Z</time></trkpt><trkpt lat="45.98501010351621" lon="12.6946516599494"><ele>40.599999999999994</ele><time>2026-04-12T07:37:51Z</time></trkpt><trkpt lat="45.98509705036041" lon="12.694746457673142"><ele>40.8</ele><time>2026-04-12T07:37:52Z</time></trkpt><trkpt lat="45.985191007711" lon="12.694807449458331"><ele>41.0</ele><time>2026-04-12T07:37:53Z</time></trkpt><trkpt lat="45.98529624026889" lon="12.694836679936087"><ele>41.199999999999996</ele><time>2026-04-12T07:37:54Z</time></trkpt><trkpt lat="45.985411957770204" lon="12.694846924196124"><ele>41.4</ele><time>2026-04-12T07:37:55Z</time></trkpt><trkpt lat="45.98552956161855" lon="12.694837423199948"><ele>41.6</ele><time>2026-04-12T07:37:56Z</time></trkpt><trkpt lat="45.98563209985274" lon="12.694820812685911"><ele>41.8</ele><time>2026-04-12T07:37:57Z</time></trkpt><trkpt lat="45.98572511385524" lon="12.694813261778474"><ele>42.0</ele><time>2026-04-12T07:37:58Z</time></trkpt><trkpt lat="45.98579731289462" lon="12.694830632044223"><ele>42.0</ele><time>2026-04-12T07:37:59Z</time></trkpt><trkpt lat="45.9858538850686" lon="12.694889601279145"><ele>42.0</ele><time>2026-04-12T07:38:00Z</time></trkpt><trkpt lat="45.98591257293465" lon="12.694982939194158"><ele>42.0</ele><time>2026-04-12T07:38:00.999Z</time></trkpt><trkpt lat="45.985990747941365" lon="12.695131692189541"><ele>42.0</ele><time>2026-04-12T07:38:01.999Z</time></trkpt><trkpt lat="45.986082543627745" lon="12.695312618816539"><ele>42.0</ele><time>2026-04-12T07:38:02.999Z</time></trkpt><trkpt lat="45.986162379219415" lon="12.695460695364043"><ele>42.2</ele><time>2026-04-12T07:38:03.999Z</time></trkpt><trkpt lat="45.98623478701868" lon="12.69559217858578"><ele>42.400000000000006</ele><time>2026-04-12T07:38:04.999Z</time></trkpt><trkpt lat="45.98629646530437" lon="12.695712336354676"><ele>42.599999999999994</ele><time>2026-04-12T07:38:05.999Z</time></trkpt><trkpt lat="45.986342011710995" lon="12.695804652621062"><ele>42.8</ele><time>2026-04-12T07:38:06.999Z</time></trkpt><trkpt lat="45.986409318122945" lon="12.695906575190094"><ele>43.0</ele><time>2026-04-12T07:38:08.999Z</time></trkpt><trkpt lat="45.98650931718272" lon="12.69601549864235"><ele>43.0</ele><time>2026-04-12T07:38:10.999Z</time></trkpt><trkpt lat="45.98661308271484" lon="12.696046999072923"><ele>43.0</ele><time>2026-04-12T07:38:11.999Z</time></trkpt><trkpt lat="45.9867517686491" lon="12.696076383072063"><ele>43.0</ele><time>2026-04-12T07:38:12.999Z</time></trkpt><trkpt lat="45.98692080227314" lon="12.696095174436062"><ele>43.0</ele><time>2026-04-12T07:38:13.999Z</time></trkpt><trkpt lat="45.98708702305402" lon="12.69611222754557"><ele>43.25</ele><time>2026-04-12T07:38:14.999Z</time></trkpt><trkpt lat="45.98722890424357" lon="12.69612424828399"><ele>43.5</ele><time>2026-04-12T07:38:15.999Z</time></trkpt><trkpt lat="45.98735484612451" lon="12.696133382068323"><ele>43.75</ele><time>2026-04-12T07:38:16.999Z</time></trkpt><trkpt lat="45.98746236322914" lon="12.696145996859478"><ele>44.0</ele><time>2026-04-12T07:38:17.999Z</time></trkpt><trkpt lat="45.987554137349434" lon="12.696186095167523"><ele>44.25</ele><time>2026-04-12T07:38:18.999Z</time></trkpt><trkpt lat="45.987643852535946" lon="12.69625683790539"><ele>44.5</ele><time>2026-04-12T07:38:19.999Z</time></trkpt><trkpt lat="45.98773980387773" lon="12.696359464772783"><ele>44.75</ele><time>2026-04-12T07:38:21Z</time></trkpt><trkpt lat="45.98782848287139" lon="12.696488020756092"><ele>45.0</ele><time>2026-04-12T07:38:22Z</time></trkpt><trkpt lat="45.98790309411405" lon="12.6966279124469"><ele>45.0</ele><time>2026-04-12T07:38:23Z</time></trkpt><trkpt lat="45.98797927254127" lon="12.696800249376375"><ele>45.0</ele><time>2026-04-12T07:38:24Z</time></trkpt><trkpt lat="45.98803713826546" lon="12.696976578803863"><ele>45.0</ele><time>2026-04-12T07:38:25Z</time></trkpt><trkpt lat="45.98808998405965" lon="12.697170498612314"><ele>45.0</ele><time>2026-04-12T07:38:26Z</time></trkpt><trkpt lat="45.98813976134483" lon="12.697392860815771"><ele>44.333333333333336</ele><time>2026-04-12T07:38:27Z</time></trkpt><trkpt lat="45.988197573490204" lon="12.697638423014428"><ele>43.66666666666667</ele><time>2026-04-12T07:38:28Z</time></trkpt><trkpt lat="45.988244104462474" lon="12.697846034288277"><ele>43.0</ele><time>2026-04-12T07:38:29Z</time></trkpt><trkpt lat="45.988287035754574" lon="12.698041443388334"><ele>43.0</ele><time>2026-04-12T07:38:30Z</time></trkpt><trkpt lat="45.988326427892986" lon="12.698226427210669"><ele>43.0</ele><time>2026-04-12T07:38:31Z</time></trkpt><trkpt lat="45.98836429803751" lon="12.698400323323312"><ele>43.0</ele><time>2026-04-12T07:38:32Z</time></trkpt><trkpt lat="45.98840796077558" lon="12.69855925932268"><ele>43.0</ele><time>2026-04-12T07:38:33Z</time></trkpt><trkpt lat="45.98845864068351" lon="12.698708855191711"><ele>43.0</ele><time>2026-04-12T07:38:34Z</time></trkpt><trkpt lat="45.988530385531405" lon="12.698851314869579"><ele>43.0</ele><time>2026-04-12T07:38:35Z</time></trkpt><trkpt lat="45.98862377267316" lon="12.699008615560432"><ele>43.0</ele><time>2026-04-12T07:38:36Z</time></trkpt><trkpt lat="45.98872875257156" lon="12.699166663867889"><ele>43.0</ele><time>2026-04-12T07:38:37Z</time></trkpt><trkpt lat="45.98883298337193" lon="12.699329388431604"><ele>42.66666666666667</ele><time>2026-04-12T07:38:38Z</time></trkpt><trkpt lat="45.98893016270886" lon="12.69949154436561"><ele>42.333333333333336</ele><time>2026-04-12T07:38:39Z</time></trkpt><trkpt lat="45.98903387277799" lon="12.699666264842524"><ele>42.0</ele><time>2026-04-12T07:38:40Z</time></trkpt><trkpt lat="45.98913990092002" lon="12.69984111281783"><ele>42.333333333333336</ele><time>2026-04-12T07:38:41Z</time></trkpt><trkpt lat="45.98923736451133" lon="12.70000094131678"><ele>42.66666666666667</ele><time>2026-04-12T07:38:42Z</time></trkpt><trkpt lat="45.98933438861095" lon="12.700164192338452"><ele>43.0</ele><time>2026-04-12T07:38:43Z</time></trkpt><trkpt lat="45.989441440146265" lon="12.700338930233087"><ele>43.0</ele><time>2026-04-12T07:38:44Z</time></trkpt><trkpt lat="45.98954367225579" lon="12.700507168255065"><ele>43.0</ele><time>2026-04-12T07:38:45Z</time></trkpt><trkpt lat="45.98964699519362" lon="12.700672867578783"><ele>43.0</ele><time>2026-04-12T07:38:46Z</time></trkpt><trkpt lat="45.989745524655866" lon="12.70082870429526"><ele>43.0</ele><time>2026-04-12T07:38:47Z</time></trkpt><trkpt lat="45.98983853466199" lon="12.700982131964148"><ele>43.0</ele><time>2026-04-12T07:38:48Z</time></trkpt><trkpt lat="45.98993231104142" lon="12.701134317989743"><ele>43.0</ele><time>2026-04-12T07:38:49Z</time></trkpt><trkpt lat="45.99001730901994" lon="12.701274195960494"><ele>43.0</ele><time>2026-04-12T07:38:50Z</time></trkpt><trkpt lat="45.990097085257936" lon="12.701408941876828"><ele>43.0</ele><time>2026-04-12T07:38:51Z</time></trkpt><trkpt lat="45.990167869609664" lon="12.70152506560623"><ele>43.0</ele><time>2026-04-12T07:38:52Z</time></trkpt><trkpt lat="45.99023217412278" lon="12.701631123385699"><ele>43.0</ele><time>2026-04-12T07:38:53Z</time></trkpt><trkpt lat="45.99027978739066" lon="12.701708080768075"><ele>43.0</ele><time>2026-04-12T07:38:54Z</time></trkpt><trkpt lat="45.990309565205465" lon="12.701808393480281"><ele>43.0</ele><time>2026-04-12T07:38:56Z</time></trkpt><trkpt lat="45.99016478476844" lon="12.7019198828455"><ele>42.75</ele><time>2026-04-12T07:39:04Z</time></trkpt><trkpt lat="45.99005119163098" lon="12.701946646290695"><ele>42.5</ele><time>2026-04-12T07:39:05Z</time></trkpt><trkpt lat="45.98992585385653" lon="12.701987860097958"><ele>42.25</ele><time>2026-04-12T07:39:06Z</time></trkpt><trkpt lat="45.989797114464736" lon="12.702035402324372"><ele>42.0</ele><time>2026-04-12T07:39:07Z</time></trkpt><trkpt lat="45.98968056363708" lon="12.702081323036447"><ele>42.0</ele><time>2026-04-12T07:39:08Z</time></trkpt><trkpt lat="45.98957219226197" lon="12.702120906592066"><ele>42.0</ele><time>2026-04-12T07:39:09Z</time></trkpt><trkpt lat="45.9894723044542" lon="12.702154551034907"><ele>42.0</ele><time>2026-04-12T07:39:10Z</time></trkpt><trkpt lat="45.98937874587447" lon="12.702186057886692"><ele>42.0</ele><time>2026-04-12T07:39:11Z</time></trkpt><trkpt lat="45.98929546592612" lon="12.702183778749136"><ele>42.0</ele><time>2026-04-12T07:39:12Z</time></trkpt><trkpt lat="45.98922467713342" lon="12.702199534426054"><ele>42.25</ele><time>2026-04-12T07:39:13Z</time></trkpt><trkpt lat="45.98915394392607" lon="12.702212927605009"><ele>42.5</ele><time>2026-04-12T07:39:14Z</time></trkpt><trkpt lat="45.98904501316223" lon="12.702226885584619"><ele>42.75</ele><time>2026-04-12T07:39:16Z</time></trkpt><trkpt lat="45.98902813921913" lon="12.702500683322503"><ele>43.0</ele><time>2026-04-12T07:39:17Z</time></trkpt><trkpt lat="45.989026275940105" lon="12.702637837711631"><ele>43.0</ele><time>2026-04-12T07:39:18Z</time></trkpt><trkpt lat="45.98904301279675" lon="12.702839583133816"><ele>43.0</ele><time>2026-04-12T07:39:19Z</time></trkpt><trkpt lat="45.989062310090276" lon="12.70302326863671"><ele>43.0</ele><time>2026-04-12T07:39:20Z</time></trkpt><trkpt lat="45.98908319196255" lon="12.703184520430824"><ele>43.0</ele><time>2026-04-12T07:39:21Z</time></trkpt><trkpt lat="45.98909613445591" lon="12.703337507884669"><ele>43.0</ele><time>2026-04-12T07:39:22Z</time></trkpt><trkpt lat="45.98910340655556" lon="12.703479346071381"><ele>43.0</ele><time>2026-04-12T07:39:23Z</time></trkpt><trkpt lat="45.9891234517722" lon="12.703626477914522"><ele>43.0</ele><time>2026-04-12T07:39:24Z</time></trkpt><trkpt lat="45.98914671384648" lon="12.703782126504011"><ele>43.0</ele><time>2026-04-12T07:39:25Z</time></trkpt><trkpt lat="45.989163891369444" lon="12.703944723693345"><ele>43.0</ele><time>2026-04-12T07:39:26Z</time></trkpt><trkpt lat="45.98918485406714" lon="12.704108870724811"><ele>43.2</ele><time>2026-04-12T07:39:27Z</time></trkpt><trkpt lat="45.98920910258514" lon="12.704272350581954"><ele>43.4</ele><time>2026-04-12T07:39:28Z</time></trkpt><trkpt lat="45.98923201422365" lon="12.704433313001166"><ele>43.6</ele><time>2026-04-12T07:39:29Z</time></trkpt><trkpt lat="45.989250434154954" lon="12.704588605537882"><ele>43.800000000000004</ele><time>2026-04-12T07:39:30Z</time></trkpt><trkpt lat="45.989264664402555" lon="12.704734840980745"><ele>44.0</ele><time>2026-04-12T07:39:31Z</time></trkpt><trkpt lat="45.98928136615188" lon="12.704875790067504"><ele>44.0</ele><time>2026-04-12T07:39:32Z</time></trkpt><trkpt lat="45.98929963425016" lon="12.705011818721085"><ele>44.0</ele><time>2026-04-12T07:39:33Z</time></trkpt><trkpt lat="45.98931164881122" lon="12.705151570574921"><ele>44.0</ele><time>2026-04-12T07:39:34Z</time></trkpt><trkpt lat="45.98931448563961" lon="12.705304218128084"><ele>44.0</ele><time>2026-04-12T07:39:35Z</time></trkpt><trkpt lat="45.989321060241934" lon="12.70546184468361"><ele>44.0</ele><time>2026-04-12T07:39:36Z</time></trkpt><trkpt lat="45.98933482175841" lon="12.705630160629036"><ele>44.0</ele><time>2026-04-12T07:39:37Z</time></trkpt><trkpt lat="45.98934791118019" lon="12.705796702861921"><ele>44.0</ele><time>2026-04-12T07:39:38Z</time></trkpt><trkpt lat="45.989358914393236" lon="12.705956471198336"><ele>44.0</ele><time>2026-04-12T07:39:39Z</time></trkpt><trkpt lat="45.989365056338954" lon="12.706112157113537"><ele>44.0</ele><time>2026-04-12T07:39:40Z</time></trkpt><trkpt lat="45.989365066218525" lon="12.706263371830463"><ele>44.0</ele><time>2026-04-12T07:39:41Z</time></trkpt><trkpt lat="45.98935966733482" lon="12.706415841001617"><ele>44.0</ele><time>2026-04-12T07:39:42Z</time></trkpt><trkpt lat="45.98935472576227" lon="12.706571591254225"><ele>44.0</ele><time>2026-04-12T07:39:43Z</time></trkpt><trkpt lat="45.9893552552199" lon="12.70671845539605"><ele>44.0</ele><time>2026-04-12T07:39:44Z</time></trkpt><trkpt lat="45.98935213483311" lon="12.706855033468171"><ele>44.0</ele><time>2026-04-12T07:39:45Z</time></trkpt><trkpt lat="45.98935178401374" lon="12.706972193327292"><ele>44.0</ele><time>2026-04-12T07:39:46Z</time></trkpt><trkpt lat="45.989346017365136" lon="12.707063980926362"><ele>44.0</ele><time>2026-04-12T07:39:47Z</time></trkpt><trkpt lat="45.98933300028864" lon="12.707179967456725"><ele>44.0</ele><time>2026-04-12T07:39:49Z</time></trkpt><trkpt lat="45.98924984975514" lon="12.707272377986685"><ele>44.0</ele><time>2026-04-12T07:40:16.999Z</time></trkpt><trkpt lat="45.989175955618435" lon="12.707327057856196"><ele>44.0</ele><time>2026-04-12T07:40:17.999Z</time></trkpt><trkpt lat="45.98908746584187" lon="12.707362523148202"><ele>44.0</ele><time>2026-04-12T07:40:18.999Z</time></trkpt><trkpt lat="45.988994689185965" lon="12.707407186855463"><ele>44.0</ele><time>2026-04-12T07:40:19.999Z</time></trkpt><trkpt lat="45.988894588566126" lon="12.707446856089412"><ele>44.0</ele><time>2026-04-12T07:40:20.999Z</time></trkpt><trkpt lat="45.98882418919605" lon="12.70747649176871"><ele>44.0</ele><time>2026-04-12T07:40:21.999Z</time></trkpt><trkpt lat="45.98876250561637" lon="12.707579724543077"><ele>44.0</ele><time>2026-04-12T07:40:23.999Z</time></trkpt><trkpt lat="45.988860830094" lon="12.707717375705155"><ele>44.0</ele><time>2026-04-12T07:40:25.999Z</time></trkpt><trkpt lat="45.98895468512175" lon="12.707779536995446"><ele>44.0</ele><time>2026-04-12T07:40:26.999Z</time></trkpt><trkpt lat="45.989042197990905" lon="12.70787018516148"><ele>44.0</ele><time>2026-04-12T07:40:28Z</time></trkpt><trkpt lat="45.98913238456281" lon="12.707981712179608"><ele>44.0</ele><time>2026-04-12T07:40:29Z</time></trkpt><trkpt lat="45.98922442955022" lon="12.708110198212434"><ele>44.0</ele><time>2026-04-12T07:40:30Z</time></trkpt><trkpt lat="45.989321375350656" lon="12.708243527465733"><ele>44.0</ele><time>2026-04-12T07:40:31Z</time></trkpt><trkpt lat="45.989408908529605" lon="12.708363196043019"><ele>44.0</ele><time>2026-04-12T07:40:32Z</time></trkpt><trkpt lat="45.98948431423159" lon="12.708475714388522"><ele>44.0</ele><time>2026-04-12T07:40:33Z</time></trkpt><trkpt lat="45.98956470511349" lon="12.708580789198704"><ele>44.0</ele><time>2026-04-12T07:40:34Z</time></trkpt><trkpt lat="45.989645800484645" lon="12.708685711374233"><ele>44.0</ele><time>2026-04-12T07:40:35Z</time></trkpt><trkpt lat="45.98972629464368" lon="12.708797466544643"><ele>44.2</ele><time>2026-04-12T07:40:36Z</time></trkpt><trkpt lat="45.98980218769048" lon="12.708903255513725"><ele>44.400000000000006</ele><time>2026-04-12T07:40:37Z</time></trkpt><trkpt lat="45.98987384249508" lon="12.709010872320535"><ele>44.6</ele><time>2026-04-12T07:40:38Z</time></trkpt><trkpt lat="45.98993627328067" lon="12.70913988743735"><ele>44.8</ele><time>2026-04-12T07:40:39Z</time></trkpt><trkpt lat="45.9900089978213" lon="12.709288458842034"><ele>45.0</ele><time>2026-04-12T07:40:40Z</time></trkpt><trkpt lat="45.990078248045165" lon="12.709435546616337"><ele>45.25</ele><time>2026-04-12T07:40:41Z</time></trkpt><trkpt lat="45.99015533500803" lon="12.709587522753868"><ele>45.5</ele><time>2026-04-12T07:40:42Z</time></trkpt><trkpt lat="45.9902462461541" lon="12.709750674431184"><ele>45.75</ele><time>2026-04-12T07:40:43Z</time></trkpt><trkpt lat="45.99033006896417" lon="12.709889501214331"><ele>46.0</ele><time>2026-04-12T07:40:44Z</time></trkpt><trkpt lat="45.990407751193295" lon="12.710016379782415"><ele>46.0</ele><time>2026-04-12T07:40:45Z</time></trkpt><trkpt lat="45.9904758002011" lon="12.710149787932552"><ele>46.0</ele><time>2026-04-12T07:40:46Z</time></trkpt><trkpt lat="45.99054571243361" lon="12.71030069390089"><ele>46.0</ele><time>2026-04-12T07:40:47Z</time></trkpt><trkpt lat="45.9906153828283" lon="12.710464091881988"><ele>46.0</ele><time>2026-04-12T07:40:48Z</time></trkpt><trkpt lat="45.990675810018054" lon="12.71064025495533"><ele>45.75</ele><time>2026-04-12T07:40:49Z</time></trkpt><trkpt lat="45.99073309203288" lon="12.710828573954107"><ele>45.5</ele><time>2026-04-12T07:40:50Z</time></trkpt><trkpt lat="45.99078614353433" lon="12.711024058396724"><ele>45.25</ele><time>2026-04-12T07:40:51Z</time></trkpt><trkpt lat="45.9908363416982" lon="12.711218403247647"><ele>45.0</ele><time>2026-04-12T07:40:52Z</time></trkpt><trkpt lat="45.99087962501107" lon="12.71140161457223"><ele>45.0</ele><time>2026-04-12T07:40:53Z</time></trkpt><trkpt lat="45.9908973724699" lon="12.711579775673398"><ele>45.0</ele><time>2026-04-12T07:40:54Z</time></trkpt><trkpt lat="45.99092794694741" lon="12.71175407715746"><ele>45.0</ele><time>2026-04-12T07:40:55Z</time></trkpt><trkpt lat="45.99095996324804" lon="12.71197938554607"><ele>45.0</ele><time>2026-04-12T07:40:56Z</time></trkpt><trkpt lat="45.99098725789549" lon="12.71217841667971"><ele>44.666666666666664</ele><time>2026-04-12T07:40:57Z</time></trkpt><trkpt lat="45.99101408726399" lon="12.712367925990096"><ele>44.33333333333333</ele><time>2026-04-12T07:40:58Z</time></trkpt><trkpt lat="45.9910542064419" lon="12.71257461193553"><ele>44.0</ele><time>2026-04-12T07:40:59Z</time></trkpt><trkpt lat="45.99112775564432" lon="12.712813330618241"><ele>44.0</ele><time>2026-04-12T07:41:00Z</time></trkpt><trkpt lat="45.991194885273885" lon="12.713050685129858"><ele>44.0</ele><time>2026-04-12T07:41:01Z</time></trkpt><trkpt lat="45.991261489740616" lon="12.713287476589173"><ele>44.0</ele><time>2026-04-12T07:41:02Z</time></trkpt><trkpt lat="45.991324677036374" lon="12.713517974294444"><ele>44.0</ele><time>2026-04-12T07:41:03Z</time></trkpt><trkpt lat="45.99138340063713" lon="12.713732188790612"><ele>44.0</ele><time>2026-04-12T07:41:04Z</time></trkpt><trkpt lat="45.99143951650026" lon="12.713936890595646"><ele>44.0</ele><time>2026-04-12T07:41:05Z</time></trkpt><trkpt lat="45.99151105117522" lon="12.714136338144339"><ele>44.0</ele><time>2026-04-12T07:41:06Z</time></trkpt><trkpt lat="45.99156590530011" lon="12.714344842816685"><ele>44.0</ele><time>2026-04-12T07:41:07Z</time></trkpt><trkpt lat="45.9916223564319" lon="12.71455746020435"><ele>44.0</ele><time>2026-04-12T07:41:08Z</time></trkpt><trkpt lat="45.991681369227656" lon="12.714768937561045"><ele>44.5</ele><time>2026-04-12T07:41:09Z</time></trkpt><trkpt lat="45.991734339144465" lon="12.71496670581316"><ele>45.0</ele><time>2026-04-12T07:41:10Z</time></trkpt><trkpt lat="45.991780024647866" lon="12.715150681416118"><ele>45.5</ele><time>2026-04-12T07:41:11Z</time></trkpt><trkpt lat="45.99182768609263" lon="12.715322065653314"><ele>46.0</ele><time>2026-04-12T07:41:12Z</time></trkpt><trkpt lat="45.9918725013093" lon="12.71548452634927"><ele>46.0</ele><time>2026-04-12T07:41:13Z</time></trkpt><trkpt lat="45.99191595766805" lon="12.715645035859824"><ele>46.0</ele><time>2026-04-12T07:41:14Z</time></trkpt><trkpt lat="45.99196081343077" lon="12.71580715121759"><ele>46.0</ele><time>2026-04-12T07:41:15Z</time></trkpt><trkpt lat="45.99200088084663" lon="12.715954647242096"><ele>46.0</ele><time>2026-04-12T07:41:16Z</time></trkpt><trkpt lat="45.992035958519374" lon="12.716090282393129"><ele>45.599999999999994</ele><time>2026-04-12T07:41:17Z</time></trkpt><trkpt lat="45.99206390068522" lon="12.716195062449232"><ele>45.2</ele><time>2026-04-12T07:41:18Z</time></trkpt><trkpt lat="45.99206508479437" lon="12.716313782344711"><ele>44.8</ele><time>2026-04-12T07:41:20Z</time></trkpt><trkpt lat="45.991938192818814" lon="12.716397242848837"><ele>44.400000000000006</ele><time>2026-04-12T07:41:22Z</time></trkpt><trkpt lat="45.99184400574743" lon="12.716441722931702"><ele>44.0</ele><time>2026-04-12T07:41:23Z</time></trkpt><trkpt lat="45.99173196274234" lon="12.716492287374795"><ele>43.75</ele><time>2026-04-12T07:41:24Z</time></trkpt><trkpt lat="45.991608460990015" lon="12.716547037125574"><ele>43.5</ele><time>2026-04-12T07:41:25Z</time></trkpt><trkpt lat="45.991478007311784" lon="12.716599829035005"><ele>43.25</ele><time>2026-04-12T07:41:26Z</time></trkpt><trkpt lat="45.9913438477283" lon="12.716653704360642"><ele>43.0</ele><time>2026-04-12T07:41:27Z</time></trkpt><trkpt lat="45.991217970346604" lon="12.71670534367268"><ele>43.0</ele><time>2026-04-12T07:41:28Z</time></trkpt><trkpt lat="45.99108878444127" lon="12.716759067092605"><ele>43.0</ele><time>2026-04-12T07:41:29Z</time></trkpt><trkpt lat="45.990972860565115" lon="12.716807440488601"><ele>43.0</ele><time>2026-04-12T07:41:30Z</time></trkpt><trkpt lat="45.990868263088345" lon="12.716853714967302"><ele>43.0</ele><time>2026-04-12T07:41:31Z</time></trkpt><trkpt lat="45.99077436184092" lon="12.716896206720683"><ele>42.66666666666667</ele><time>2026-04-12T07:41:32Z</time></trkpt><trkpt lat="45.990692780683915" lon="12.716916776497959"><ele>42.333333333333336</ele><time>2026-04-12T07:41:33Z</time></trkpt><trkpt lat="45.990626331117824" lon="12.716939964216795"><ele>42.0</ele><time>2026-04-12T07:41:34Z</time></trkpt><trkpt lat="45.99059824183199" lon="12.717097860393205"><ele>41.666666666666664</ele><time>2026-04-12T07:41:35Z</time></trkpt><trkpt lat="45.99057138928551" lon="12.717187437518652"><ele>41.33333333333333</ele><time>2026-04-12T07:41:36Z</time></trkpt><trkpt lat="45.99055742077485" lon="12.717304887146181"><ele>41.0</ele><time>2026-04-12T07:41:37Z</time></trkpt><trkpt lat="45.99055518923753" lon="12.717432952358477"><ele>41.0</ele><time>2026-04-12T07:41:38Z</time></trkpt><trkpt lat="45.99055674299891" lon="12.717568523739446"><ele>41.0</ele><time>2026-04-12T07:41:39Z</time></trkpt><trkpt lat="45.99056147067931" lon="12.717707714318196"><ele>41.0</ele><time>2026-04-12T07:41:40Z</time></trkpt><trkpt lat="45.99054621608724" lon="12.717842800578056"><ele>41.0</ele><time>2026-04-12T07:41:41Z</time></trkpt><trkpt lat="45.99054157090237" lon="12.71796325475768"><ele>41.0</ele><time>2026-04-12T07:41:42Z</time></trkpt><trkpt lat="45.99052965955253" lon="12.718074949386295"><ele>41.0</ele><time>2026-04-12T07:41:43Z</time></trkpt><trkpt lat="45.99051325934903" lon="12.718179704120285"><ele>41.0</ele><time>2026-04-12T07:41:44Z</time></trkpt><trkpt lat="45.990497300563725" lon="12.7182803184714"><ele>41.0</ele><time>2026-04-12T07:41:45Z</time></trkpt><trkpt lat="45.990480507532915" lon="12.718381076604688"><ele>41.0</ele><time>2026-04-12T07:41:46Z</time></trkpt><trkpt lat="45.99046111917278" lon="12.718497406832297"><ele>41.0</ele><time>2026-04-12T07:41:47Z</time></trkpt><trkpt lat="45.99043965474279" lon="12.718626192093746"><ele>41.0</ele><time>2026-04-12T07:41:48Z</time></trkpt><trkpt lat="45.99041560142269" lon="12.718770508907982"><ele>41.0</ele><time>2026-04-12T07:41:49Z</time></trkpt><trkpt lat="45.990386480175694" lon="12.718945232629496"><ele>41.33333333333333</ele><time>2026-04-12T07:41:50Z</time></trkpt><trkpt lat="45.99035205065383" lon="12.719151805312048"><ele>41.666666666666664</ele><time>2026-04-12T07:41:51Z</time></trkpt><trkpt lat="45.990447294827895" lon="12.719390612524995"><ele>42.0</ele><time>2026-04-12T07:41:52Z</time></trkpt><trkpt lat="45.99045147114872" lon="12.719562849320043"><ele>42.2</ele><time>2026-04-12T07:41:53Z</time></trkpt><trkpt lat="45.990453649931155" lon="12.719722326078951"><ele>42.400000000000006</ele><time>2026-04-12T07:41:54Z</time></trkpt><trkpt lat="45.990458142289945" lon="12.71986469678509"><ele>42.599999999999994</ele><time>2026-04-12T07:41:55Z</time></trkpt><trkpt lat="45.99045928443465" lon="12.71999959950262"><ele>42.8</ele><time>2026-04-12T07:41:56Z</time></trkpt><trkpt lat="45.99045896884581" lon="12.720134991083421"><ele>43.0</ele><time>2026-04-12T07:41:57Z</time></trkpt><trkpt lat="45.99045672025276" lon="12.720287442708786"><ele>43.0</ele><time>2026-04-12T07:41:58Z</time></trkpt><trkpt lat="45.99044920050205" lon="12.720444711943951"><ele>43.0</ele><time>2026-04-12T07:41:59Z</time></trkpt><trkpt lat="45.990427093954175" lon="12.720591851713175"><ele>43.0</ele><time>2026-04-12T07:42:00Z</time></trkpt><trkpt lat="45.990395727157505" lon="12.72077066290229"><ele>43.0</ele><time>2026-04-12T07:42:01Z</time></trkpt><trkpt lat="45.99034549506301" lon="12.720979279097618"><ele>42.25</ele><time>2026-04-12T07:42:02Z</time></trkpt><trkpt lat="45.99029516955882" lon="12.721173601167537"><ele>41.5</ele><time>2026-04-12T07:42:03Z</time></trkpt><trkpt lat="45.99024686996302" lon="12.721370741463405"><ele>40.75</ele><time>2026-04-12T07:42:04Z</time></trkpt><trkpt lat="45.99020977815315" lon="12.721560357484048"><ele>40.0</ele><time>2026-04-12T07:42:05Z</time></trkpt><trkpt lat="45.99018121017785" lon="12.721723316456417"><ele>40.0</ele><time>2026-04-12T07:42:06Z</time></trkpt><trkpt lat="45.990159111836945" lon="12.721865501479678"><ele>40.0</ele><time>2026-04-12T07:42:07Z</time></trkpt><trkpt lat="45.99013882177168" lon="12.722000277174189"><ele>40.0</ele><time>2026-04-12T07:42:08Z</time></trkpt><trkpt lat="45.99013265328718" lon="12.722122592867235"><ele>40.0</ele><time>2026-04-12T07:42:09Z</time></trkpt><trkpt lat="45.99013664557501" lon="12.722271795285113"><ele>40.0</ele><time>2026-04-12T07:42:10Z</time></trkpt><trkpt lat="45.9901516178707" lon="12.72245508562676"><ele>39.5</ele><time>2026-04-12T07:42:11Z</time></trkpt><trkpt lat="45.990168349634175" lon="12.722664441551126"><ele>39.0</ele><time>2026-04-12T07:42:12Z</time></trkpt><trkpt lat="45.99019114128111" lon="12.72287298650298"><ele>38.5</ele><time>2026-04-12T07:42:13Z</time></trkpt><trkpt lat="45.9902045987326" lon="12.723034250640671"><ele>38.0</ele><time>2026-04-12T07:42:14Z</time></trkpt><trkpt lat="45.99021100409655" lon="12.723185059106664"><ele>38.0</ele><time>2026-04-12T07:42:15Z</time></trkpt><trkpt lat="45.99020934376821" lon="12.723342042421502"><ele>38.0</ele><time>2026-04-12T07:42:16Z</time></trkpt><trkpt lat="45.990187695294736" lon="12.723506693938553"><ele>38.0</ele><time>2026-04-12T07:42:17Z</time></trkpt><trkpt lat="45.99014673993513" lon="12.723684248009047"><ele>38.0</ele><time>2026-04-12T07:42:18Z</time></trkpt><trkpt lat="45.990069294544064" lon="12.7238891173101"><ele>37.666666666666664</ele><time>2026-04-12T07:42:19Z</time></trkpt><trkpt lat="45.989975524939176" lon="12.724148697284313"><ele>37.333333333333336</ele><time>2026-04-12T07:42:20Z</time></trkpt><trkpt lat="45.98988411197332" lon="12.724434135385733"><ele>37.0</ele><time>2026-04-12T07:42:21Z</time></trkpt><trkpt lat="45.989805339321336" lon="12.72466337713589"><ele>37.0</ele><time>2026-04-12T07:42:22Z</time></trkpt><trkpt lat="45.989724685947024" lon="12.724898308927898"><ele>37.0</ele><time>2026-04-12T07:42:23Z</time></trkpt><trkpt lat="45.989651971519" lon="12.725101755031405"><ele>37.0</ele><time>2026-04-12T07:42:24Z</time></trkpt><trkpt lat="45.989588077368964" lon="12.725281691079397"><ele>37.0</ele><time>2026-04-12T07:42:25Z</time></trkpt><trkpt lat="45.989528905838135" lon="12.725447673854301"><ele>37.0</ele><time>2026-04-12T07:42:26Z</time></trkpt><trkpt lat="45.98947961042164" lon="12.725606311502526"><ele>37.0</ele><time>2026-04-12T07:42:27Z</time></trkpt><trkpt lat="45.98942871615597" lon="12.72577332040009"><ele>37.0</ele><time>2026-04-12T07:42:28Z</time></trkpt><trkpt lat="45.989391791671125" lon="12.725932135507266"><ele>37.0</ele><time>2026-04-12T07:42:29Z</time></trkpt><trkpt lat="45.98937301631876" lon="12.7260618946055"><ele>37.0</ele><time>2026-04-12T07:42:30Z</time></trkpt><trkpt lat="45.98936827102089" lon="12.726168920383472"><ele>37.0</ele><time>2026-04-12T07:42:31Z</time></trkpt><trkpt lat="45.98937230941121" lon="12.726266931116333"><ele>37.0</ele><time>2026-04-12T07:42:32Z</time></trkpt><trkpt lat="45.9893762265452" lon="12.726359938596923"><ele>37.0</ele><time>2026-04-12T07:42:33Z</time></trkpt><trkpt lat="45.98938148039573" lon="12.726485776141322"><ele>37.0</ele><time>2026-04-12T07:42:34Z</time></trkpt><trkpt lat="45.98938019834648" lon="12.726617064750066"><ele>37.0</ele><time>2026-04-12T07:42:35Z</time></trkpt><trkpt lat="45.98938389846901" lon="12.726731672036406"><ele>37.0</ele><time>2026-04-12T07:42:36Z</time></trkpt><trkpt lat="45.9893895700257" lon="12.726835619161758"><ele>37.0</ele><time>2026-04-12T07:42:37Z</time></trkpt><trkpt lat="45.989407557601375" lon="12.726928771610106"><ele>37.0</ele><time>2026-04-12T07:42:39Z</time></trkpt><trkpt lat="45.98947241050481" lon="12.726981804568968"><ele>37.0</ele><time>2026-04-12T07:42:41Z</time></trkpt><trkpt lat="45.98956610545841" lon="12.72694039097929"><ele>37.0</ele><time>2026-04-12T07:42:43Z</time></trkpt><trkpt lat="45.98961610709025" lon="12.726884893400477"><ele>37.0</ele><time>2026-04-12T07:42:44Z</time></trkpt><trkpt lat="45.98968441009913" lon="12.726856624985308"><ele>37.0</ele><time>2026-04-12T07:42:45Z</time></trkpt><trkpt lat="45.98977180115371" lon="12.726826938169522"><ele>37.0</ele><time>2026-04-12T07:42:46Z</time></trkpt><trkpt lat="45.989869477080376" lon="12.726781115871477"><ele>37.0</ele><time>2026-04-12T07:42:47Z</time></trkpt><trkpt lat="45.989940256461196" lon="12.7267420163592"><ele>37.0</ele><time>2026-04-12T07:42:48Z</time></trkpt><trkpt lat="45.990013592796195" lon="12.726704356116445"><ele>37.0</ele><time>2026-04-12T07:42:49Z</time></trkpt><trkpt lat="45.99009723114897" lon="12.72665362872709"><ele>37.16666666666667</ele><time>2026-04-12T07:42:50Z</time></trkpt><trkpt lat="45.99019894942448" lon="12.726598995335934"><ele>37.333333333333336</ele><time>2026-04-12T07:42:51Z</time></trkpt><trkpt lat="45.99028260584332" lon="12.726555096523692"><ele>37.5</ele><time>2026-04-12T07:42:52Z</time></trkpt><trkpt lat="45.99036421428688" lon="12.726526809320552"><ele>37.666666666666664</ele><time>2026-04-12T07:42:53Z</time></trkpt><trkpt lat="45.990449053152005" lon="12.726503689238145"><ele>37.83333333333333</ele><time>2026-04-12T07:42:54Z</time></trkpt><trkpt lat="45.99052589418881" lon="12.72648856502833"><ele>38.0</ele><time>2026-04-12T07:42:55Z</time></trkpt><trkpt lat="45.99060403878729" lon="12.726458857998974"><ele>38.0</ele><time>2026-04-12T07:42:57Z</time></trkpt><trkpt lat="45.99065242033897" lon="12.726340892607976"><ele>38.0</ele><time>2026-04-12T07:42:59Z</time></trkpt><trkpt lat="45.99068579472097" lon="12.726259978161941"><ele>38.0</ele><time>2026-04-12T07:43:00Z</time></trkpt><trkpt lat="45.990727084650395" lon="12.726173012064436"><ele>38.0</ele><time>2026-04-12T07:43:01Z</time></trkpt><trkpt lat="45.990768927965675" lon="12.72609148541078"><ele>38.0</ele><time>2026-04-12T07:43:02Z</time></trkpt><trkpt lat="45.990807727380236" lon="12.726008419488975"><ele>38.0</ele><time>2026-04-12T07:43:03Z</time></trkpt><trkpt lat="45.990845221357326" lon="12.72592664291553"><ele>38.0</ele><time>2026-04-12T07:43:04Z</time></trkpt><trkpt lat="45.990882955538495" lon="12.725834065862417"><ele>38.33333333333333</ele><time>2026-04-12T07:43:05Z</time></trkpt><trkpt lat="45.99091141856968" lon="12.725751474908703"><ele>38.666666666666664</ele><time>2026-04-12T07:43:06Z</time></trkpt><trkpt lat="45.99092361560024" lon="12.72562537150954"><ele>39.0</ele><time>2026-04-12T07:43:08Z</time></trkpt><trkpt lat="45.990880211889774" lon="12.725500531976746"><ele>39.333333333333336</ele><time>2026-04-12T07:43:10Z</time></trkpt><trkpt lat="45.990942415492036" lon="12.725438632954164"><ele>39.66666666666667</ele><time>2026-04-12T07:43:14Z</time></trkpt><trkpt lat="45.99104269405021" lon="12.725456794915623"><ele>40.0</ele><time>2026-04-12T07:43:16Z</time></trkpt><trkpt lat="45.99114980884001" lon="12.725440195267096"><ele>40.0</ele><time>2026-04-12T07:43:18Z</time></trkpt><trkpt lat="45.99124226405823" lon="12.72542666055772"><ele>40.0</ele><time>2026-04-12T07:43:20Z</time></trkpt><trkpt lat="45.991309540675786" lon="12.725411837497123"><ele>40.0</ele><time>2026-04-12T07:43:21Z</time></trkpt><trkpt lat="45.99138918222662" lon="12.725402417441456"><ele>40.0</ele><time>2026-04-12T07:43:22Z</time></trkpt><trkpt lat="45.99147099839752" lon="12.725399298554892"><ele>40.0</ele><time>2026-04-12T07:43:23Z</time></trkpt><trkpt lat="45.9915692313718" lon="12.725393111418134"><ele>40.0</ele><time>2026-04-12T07:43:24Z</time></trkpt><trkpt lat="45.99168068486259" lon="12.725386590612935"><ele>40.0</ele><time>2026-04-12T07:43:25Z</time></trkpt><trkpt lat="45.99180086281468" lon="12.725379710257542"><ele>40.0</ele><time>2026-04-12T07:43:26Z</time></trkpt><trkpt lat="45.99191162995468" lon="12.725374487813585"><ele>40.0</ele><time>2026-04-12T07:43:27Z</time></trkpt><trkpt lat="45.99201130357224" lon="12.725367941025642"><ele>40.0</ele><time>2026-04-12T07:43:28Z</time></trkpt><trkpt lat="45.99208905984113" lon="12.725363802171243"><ele>40.0</ele><time>2026-04-12T07:43:29Z</time></trkpt><trkpt lat="45.99216836673383" lon="12.725356157893234"><ele>40.0</ele><time>2026-04-12T07:43:30Z</time></trkpt><trkpt lat="45.992251760012905" lon="12.72534785445342"><ele>40.0</ele><time>2026-04-12T07:43:31Z</time></trkpt><trkpt lat="45.99232992229911" lon="12.72534183910966"><ele>40.0</ele><time>2026-04-12T07:43:32Z</time></trkpt><trkpt lat="45.99241613190775" lon="12.725300854756114"><ele>40.0</ele><time>2026-04-12T07:43:34Z</time></trkpt><trkpt lat="45.992460231825135" lon="12.725193405687829"><ele>40.0</ele><time>2026-04-12T07:43:36Z</time></trkpt><trkpt lat="45.99252538053968" lon="12.725096494338088"><ele>40.0</ele><time>2026-04-12T07:43:38Z</time></trkpt><trkpt lat="45.992644260802884" lon="12.725032177842479"><ele>40.0</ele><time>2026-04-12T07:43:40Z</time></trkpt><trkpt lat="45.99273789158165" lon="12.725002555805302"><ele>40.0</ele><time>2026-04-12T07:43:41Z</time></trkpt><trkpt lat="45.9928538280585" lon="12.72497659074105"><ele>40.0</ele><time>2026-04-12T07:43:42Z</time></trkpt><trkpt lat="45.99296731567332" lon="12.724947174965175"><ele>40.0</ele><time>2026-04-12T07:43:43Z</time></trkpt><trkpt lat="45.99307151759121" lon="12.724919900046759"><ele>40.0</ele><time>2026-04-12T07:43:44Z</time></trkpt><trkpt lat="45.99316179883761" lon="12.724895304235792"><ele>40.0</ele><time>2026-04-12T07:43:45Z</time></trkpt><trkpt lat="45.99324858548579" lon="12.724861168187308"><ele>40.0</ele><time>2026-04-12T07:43:46Z</time></trkpt><trkpt lat="45.993344695612706" lon="12.72482422094921"><ele>40.0</ele><time>2026-04-12T07:43:47Z</time></trkpt><trkpt lat="45.99344859082881" lon="12.72479675597434"><ele>40.0</ele><time>2026-04-12T07:43:48Z</time></trkpt><trkpt lat="45.993557478867004" lon="12.72476514295738"><ele>40.0</ele><time>2026-04-12T07:43:49Z</time></trkpt><trkpt lat="45.993666536506055" lon="12.7247234704"><ele>40.2</ele><time>2026-04-12T07:43:50Z</time></trkpt><trkpt lat="45.99377709466165" lon="12.72467761121338"><ele>40.4</ele><time>2026-04-12T07:43:51Z</time></trkpt><trkpt lat="45.99388852318367" lon="12.724634675299031"><ele>40.599999999999994</ele><time>2026-04-12T07:43:52Z</time></trkpt><trkpt lat="45.99399698408407" lon="12.724588458666943"><ele>40.8</ele><time>2026-04-12T07:43:53Z</time></trkpt><trkpt lat="45.99408520230315" lon="12.724545562421767"><ele>41.0</ele><time>2026-04-12T07:43:54Z</time></trkpt><trkpt lat="45.99418375191842" lon="12.724511265039341"><ele>41.0</ele><time>2026-04-12T07:43:56Z</time></trkpt><trkpt lat="45.99426160895885" lon="12.724749590459577"><ele>41.0</ele><time>2026-04-12T07:44:00Z</time></trkpt><trkpt lat="45.99427646855668" lon="12.724921035040131"><ele>41.0</ele><time>2026-04-12T07:44:01Z</time></trkpt><trkpt lat="45.994306491445116" lon="12.725117537589572"><ele>41.0</ele><time>2026-04-12T07:44:02Z</time></trkpt><trkpt lat="45.994339190943116" lon="12.725350117606713"><ele>42.33333333333333</ele><time>2026-04-12T07:44:03Z</time></trkpt><trkpt lat="45.99437353644307" lon="12.725580602659317"><ele>43.666666666666664</ele><time>2026-04-12T07:44:04Z</time></trkpt><trkpt lat="45.99440085618781" lon="12.725797366636325"><ele>45.0</ele><time>2026-04-12T07:44:05Z</time></trkpt><trkpt lat="45.994433509023665" lon="12.72600992510228"><ele>44.75</ele><time>2026-04-12T07:44:06Z</time></trkpt><trkpt lat="45.994458501079045" lon="12.726197497572011"><ele>44.5</ele><time>2026-04-12T07:44:07Z</time></trkpt><trkpt lat="45.99448238943531" lon="12.72637473638218"><ele>44.25</ele><time>2026-04-12T07:44:08Z</time></trkpt><trkpt lat="45.9945018075386" lon="12.726552656935349"><ele>44.0</ele><time>2026-04-12T07:44:09Z</time></trkpt><trkpt lat="45.99450696496528" lon="12.726723061466501"><ele>44.0</ele><time>2026-04-12T07:44:10Z</time></trkpt><trkpt lat="45.994499666298545" lon="12.726894205982902"><ele>44.0</ele><time>2026-04-12T07:44:11Z</time></trkpt><trkpt lat="45.99447145423786" lon="12.727064147196753"><ele>44.0</ele><time>2026-04-12T07:44:12Z</time></trkpt><trkpt lat="45.99441890094699" lon="12.727274059953496"><ele>44.0</ele><time>2026-04-12T07:44:13Z</time></trkpt><trkpt lat="45.99434042822435" lon="12.727497967301444"><ele>43.666666666666664</ele><time>2026-04-12T07:44:14Z</time></trkpt><trkpt lat="45.99428627561619" lon="12.727759220566565"><ele>43.333333333333336</ele><time>2026-04-12T07:44:15Z</time></trkpt><trkpt lat="45.994257791364575" lon="12.727988672499915"><ele>43.0</ele><time>2026-04-12T07:44:16Z</time></trkpt><trkpt lat="45.99424553794659" lon="12.72819990815087"><ele>43.0</ele><time>2026-04-12T07:44:17Z</time></trkpt><trkpt lat="45.994247166333025" lon="12.728400291200165"><ele>43.0</ele><time>2026-04-12T07:44:18Z</time></trkpt><trkpt lat="45.9942832270294" lon="12.72861314514499"><ele>43.0</ele><time>2026-04-12T07:44:19Z</time></trkpt><trkpt lat="45.994332437570094" lon="12.72886101979527"><ele>43.333333333333336</ele><time>2026-04-12T07:44:20Z</time></trkpt><trkpt lat="45.99439966673688" lon="12.729144596617926"><ele>43.666666666666664</ele><time>2026-04-12T07:44:21Z</time></trkpt><trkpt lat="45.99444343098163" lon="12.72943548923149"><ele>44.0</ele><time>2026-04-12T07:44:22Z</time></trkpt><trkpt lat="45.994476897849395" lon="12.72971224449703"><ele>44.33333333333333</ele><time>2026-04-12T07:44:23Z</time></trkpt><trkpt lat="45.99452396769806" lon="12.729983724957846"><ele>44.666666666666664</ele><time>2026-04-12T07:44:24Z</time></trkpt><trkpt lat="45.99457415128727" lon="12.730251886287506"><ele>45.0</ele><time>2026-04-12T07:44:25Z</time></trkpt><trkpt lat="45.994619432549754" lon="12.730505057636256"><ele>45.0</ele><time>2026-04-12T07:44:26Z</time></trkpt><trkpt lat="45.9946626716417" lon="12.730755870013825"><ele>45.0</ele><time>2026-04-12T07:44:27Z</time></trkpt><trkpt lat="45.99470393148836" lon="12.731000507349776"><ele>45.0</ele><time>2026-04-12T07:44:28Z</time></trkpt><trkpt lat="45.99473711871649" lon="12.731218447309875"><ele>45.0</ele><time>2026-04-12T07:44:29Z</time></trkpt><trkpt lat="45.99477814924681" lon="12.731417149536004"><ele>45.0</ele><time>2026-04-12T07:44:30Z</time></trkpt><trkpt lat="45.99478112520413" lon="12.731630913724098"><ele>45.0</ele><time>2026-04-12T07:44:31Z</time></trkpt><trkpt lat="45.99480144093844" lon="12.731865571942809"><ele>44.666666666666664</ele><time>2026-04-12T07:44:32Z</time></trkpt><trkpt lat="45.99478620043636" lon="12.73211940921291"><ele>44.33333333333333</ele><time>2026-04-12T07:44:33Z</time></trkpt><trkpt lat="45.99478221663156" lon="12.732379684484608"><ele>44.0</ele><time>2026-04-12T07:44:34Z</time></trkpt><trkpt lat="45.99477849506642" lon="12.732629647389892"><ele>44.0</ele><time>2026-04-12T07:44:35Z</time></trkpt><trkpt lat="45.99477723462646" lon="12.732849428277179"><ele>44.0</ele><time>2026-04-12T07:44:36Z</time></trkpt><trkpt lat="45.99477469586672" lon="12.733064017422793"><ele>44.0</ele><time>2026-04-12T07:44:37Z</time></trkpt><trkpt lat="45.994763487000746" lon="12.733273375901788"><ele>44.0</ele><time>2026-04-12T07:44:38Z</time></trkpt><trkpt lat="45.99474077493935" lon="12.733479461020375"><ele>43.666666666666664</ele><time>2026-04-12T07:44:39Z</time></trkpt><trkpt lat="45.99470158786892" lon="12.733674073507212"><ele>43.333333333333336</ele><time>2026-04-12T07:44:40Z</time></trkpt><trkpt lat="45.99464410426577" lon="12.733883687772419"><ele>43.0</ele><time>2026-04-12T07:44:41Z</time></trkpt><trkpt lat="45.99456743372857" lon="12.734100614678423"><ele>43.0</ele><time>2026-04-12T07:44:42Z</time></trkpt><trkpt lat="45.99449475463415" lon="12.734325821640876"><ele>43.0</ele><time>2026-04-12T07:44:43Z</time></trkpt><trkpt lat="45.99443282235395" lon="12.734563088080769"><ele>43.0</ele><time>2026-04-12T07:44:44Z</time></trkpt><trkpt lat="45.994386417076655" lon="12.734786152542501"><ele>42.333333333333336</ele><time>2026-04-12T07:44:45Z</time></trkpt><trkpt lat="45.9943575659461" lon="12.735022591871976"><ele>41.666666666666664</ele><time>2026-04-12T07:44:46Z</time></trkpt><trkpt lat="45.99431679533132" lon="12.735277104758273"><ele>41.0</ele><time>2026-04-12T07:44:47Z</time></trkpt><trkpt lat="45.99426346171847" lon="12.735545318815497"><ele>41.0</ele><time>2026-04-12T07:44:48Z</time></trkpt><trkpt lat="45.99422913331428" lon="12.735820379747727"><ele>41.0</ele><time>2026-04-12T07:44:49Z</time></trkpt><trkpt lat="45.99419486610562" lon="12.736085926379017"><ele>41.0</ele><time>2026-04-12T07:44:50Z</time></trkpt><trkpt lat="45.99415581511675" lon="12.736320994380637"><ele>41.25</ele><time>2026-04-12T07:44:51Z</time></trkpt><trkpt lat="45.99412170794557" lon="12.736547371544866"><ele>41.5</ele><time>2026-04-12T07:44:52Z</time></trkpt><trkpt lat="45.99409460101842" lon="12.736753080198183"><ele>41.75</ele><time>2026-04-12T07:44:53Z</time></trkpt><trkpt lat="45.994081933916256" lon="12.736945941884457"><ele>42.0</ele><time>2026-04-12T07:44:54Z</time></trkpt><trkpt lat="45.994096329995585" lon="12.73713812358223"><ele>42.0</ele><time>2026-04-12T07:44:55Z</time></trkpt><trkpt lat="45.994135844944125" lon="12.737340197998295"><ele>42.0</ele><time>2026-04-12T07:44:56Z</time></trkpt><trkpt lat="45.99421353658504" lon="12.737555796749112"><ele>42.0</ele><time>2026-04-12T07:44:57Z</time></trkpt><trkpt lat="45.994286538520164" lon="12.737789311810525"><ele>41.666666666666664</ele><time>2026-04-12T07:44:58Z</time></trkpt><trkpt lat="45.99436321472794" lon="12.738006363124397"><ele>41.33333333333333</ele><time>2026-04-12T07:44:59Z</time></trkpt><trkpt lat="45.994423478470864" lon="12.738206419590728"><ele>41.0</ele><time>2026-04-12T07:45:00Z</time></trkpt><trkpt lat="45.994473577191066" lon="12.738409706710742"><ele>41.0</ele><time>2026-04-12T07:45:01Z</time></trkpt><trkpt lat="45.994500175071444" lon="12.738600337734317"><ele>41.0</ele><time>2026-04-12T07:45:02Z</time></trkpt><trkpt lat="45.99452769614958" lon="12.738767316768172"><ele>41.0</ele><time>2026-04-12T07:45:03Z</time></trkpt><trkpt lat="45.9945280726111" lon="12.73893247558828"><ele>41.0</ele><time>2026-04-12T07:45:04Z</time></trkpt><trkpt lat="45.99451141805175" lon="12.739134168335372"><ele>41.0</ele><time>2026-04-12T07:45:05Z</time></trkpt><trkpt lat="45.99448879014492" lon="12.739382667258534"><ele>41.0</ele><time>2026-04-12T07:45:06Z</time></trkpt><trkpt lat="45.99446523495475" lon="12.739641349565368"><ele>41.0</ele><time>2026-04-12T07:45:07Z</time></trkpt><trkpt lat="45.99443897588049" lon="12.739929725745577"><ele>41.0</ele><time>2026-04-12T07:45:08Z</time></trkpt><trkpt lat="45.99441061410692" lon="12.740240162790021"><ele>41.0</ele><time>2026-04-12T07:45:09Z</time></trkpt><trkpt lat="45.9943808317483" lon="12.740536422067155"><ele>41.0</ele><time>2026-04-12T07:45:10Z</time></trkpt><trkpt lat="45.994355996923744" lon="12.740797948713757"><ele>41.0</ele><time>2026-04-12T07:45:11Z</time></trkpt><trkpt lat="45.99433636575583" lon="12.741028751020211"><ele>41.0</ele><time>2026-04-12T07:45:12Z</time></trkpt><trkpt lat="45.99433343547925" lon="12.741270071106028"><ele>41.0</ele><time>2026-04-12T07:45:13Z</time></trkpt><trkpt lat="45.994306657215866" lon="12.74152251251303"><ele>41.33333333333333</ele><time>2026-04-12T07:45:14Z</time></trkpt><trkpt lat="45.994285087177964" lon="12.741782678888407"><ele>41.666666666666664</ele><time>2026-04-12T07:45:15Z</time></trkpt><trkpt lat="45.99426444027797" lon="12.742044424054878"><ele>42.0</ele><time>2026-04-12T07:45:16Z</time></trkpt><trkpt lat="45.99424699614351" lon="12.742294970482845"><ele>42.333333333333336</ele><time>2026-04-12T07:45:17Z</time></trkpt><trkpt lat="45.994228430322636" lon="12.7425410614853"><ele>42.66666666666667</ele><time>2026-04-12T07:45:18Z</time></trkpt><trkpt lat="45.99419186090658" lon="12.74278210813624"><ele>43.0</ele><time>2026-04-12T07:45:19Z</time></trkpt><trkpt lat="45.99417258742996" lon="12.743022322740195"><ele>43.333333333333336</ele><time>2026-04-12T07:45:20Z</time></trkpt><trkpt lat="45.994155275717674" lon="12.743259162284602"><ele>43.666666666666664</ele><time>2026-04-12T07:45:21Z</time></trkpt><trkpt lat="45.99415242257716" lon="12.743504964648263"><ele>44.0</ele><time>2026-04-12T07:45:22Z</time></trkpt><trkpt lat="45.994126920027355" lon="12.743756266408234"><ele>43.33333333333333</ele><time>2026-04-12T07:45:23Z</time></trkpt><trkpt lat="45.994121354365056" lon="12.743999120682128"><ele>42.666666666666664</ele><time>2026-04-12T07:45:24Z</time></trkpt><trkpt lat="45.994120656119705" lon="12.744243665670837"><ele>42.0</ele><time>2026-04-12T07:45:25Z</time></trkpt><trkpt lat="45.994130588415544" lon="12.744494511582845"><ele>42.0</ele><time>2026-04-12T07:45:26Z</time></trkpt><trkpt lat="45.994153725986095" lon="12.744724959873917"><ele>42.0</ele><time>2026-04-12T07:45:27Z</time></trkpt><trkpt lat="45.994150358183596" lon="12.74494475654158"><ele>42.0</ele><time>2026-04-12T07:45:28Z</time></trkpt><trkpt lat="45.99411991733372" lon="12.745133653900334"><ele>42.0</ele><time>2026-04-12T07:45:29Z</time></trkpt><trkpt lat="45.994104502808625" lon="12.745339704698845"><ele>42.0</ele><time>2026-04-12T07:45:30Z</time></trkpt><trkpt lat="45.99409324434518" lon="12.745569491872649"><ele>42.0</ele><time>2026-04-12T07:45:31Z</time></trkpt><trkpt lat="45.99404915790056" lon="12.745832473536575"><ele>42.0</ele><time>2026-04-12T07:45:32Z</time></trkpt><trkpt lat="45.99399935552342" lon="12.746122672268346"><ele>41.5</ele><time>2026-04-12T07:45:33Z</time></trkpt><trkpt lat="45.99392239995516" lon="12.746437269791034"><ele>41.0</ele><time>2026-04-12T07:45:34Z</time></trkpt><trkpt lat="45.99385959360182" lon="12.746777541682514"><ele>41.0</ele><time>2026-04-12T07:45:35Z</time></trkpt><trkpt lat="45.99382236270316" lon="12.747086395973867"><ele>41.0</ele><time>2026-04-12T07:45:36Z</time></trkpt><trkpt lat="45.9937701343569" lon="12.74738441785495"><ele>41.0</ele><time>2026-04-12T07:45:37Z</time></trkpt><trkpt lat="45.99372644928366" lon="12.747653690088873"><ele>41.25</ele><time>2026-04-12T07:45:38Z</time></trkpt><trkpt lat="45.99366615851284" lon="12.747893720574393"><ele>41.5</ele><time>2026-04-12T07:45:39Z</time></trkpt><trkpt lat="45.993628550930474" lon="12.748095308604686"><ele>41.75</ele><time>2026-04-12T07:45:40Z</time></trkpt><trkpt lat="45.99359900661608" lon="12.748253674887449"><ele>42.0</ele><time>2026-04-12T07:45:41Z</time></trkpt><trkpt lat="45.99357652105237" lon="12.74837420449078"><ele>42.0</ele><time>2026-04-12T07:45:42Z</time></trkpt><trkpt lat="45.993551847978935" lon="12.748506459604094"><ele>42.0</ele><time>2026-04-12T07:45:44Z</time></trkpt><trkpt lat="45.99386384183246" lon="12.748542879895082"><ele>42.0</ele><time>2026-04-12T07:45:48Z</time></trkpt><trkpt lat="45.9939936669656" lon="12.748551008464625"><ele>42.0</ele><time>2026-04-12T07:45:49Z</time></trkpt><trkpt lat="45.994136982685326" lon="12.748576814054646"><ele>42.0</ele><time>2026-04-12T07:45:50Z</time></trkpt><trkpt lat="45.99428746557859" lon="12.748588628075117"><ele>42.0</ele><time>2026-04-12T07:45:51Z</time></trkpt><trkpt lat="45.994450857141416" lon="12.748593403955104"><ele>42.333333333333336</ele><time>2026-04-12T07:45:52Z</time></trkpt><trkpt lat="45.99462496926849" lon="12.7485889985001"><ele>42.66666666666667</ele><time>2026-04-12T07:45:53Z</time></trkpt><trkpt lat="45.99477748507388" lon="12.748582811541032"><ele>43.0</ele><time>2026-04-12T07:45:54Z</time></trkpt><trkpt lat="45.99491595225047" lon="12.748577148667234"><ele>43.25</ele><time>2026-04-12T07:45:55Z</time></trkpt><trkpt lat="45.99504302033281" lon="12.748574572298374"><ele>43.5</ele><time>2026-04-12T07:45:56Z</time></trkpt><trkpt lat="45.995168649395275" lon="12.748583691362501"><ele>43.75</ele><time>2026-04-12T07:45:57Z</time></trkpt><trkpt lat="45.99529992813004" lon="12.748619995150992"><ele>44.0</ele><time>2026-04-12T07:45:58Z</time></trkpt><trkpt lat="45.995444251186036" lon="12.748678794057263"><ele>44.0</ele><time>2026-04-12T07:45:59Z</time></trkpt><trkpt lat="45.99559148500208" lon="12.748748172473313"><ele>44.0</ele><time>2026-04-12T07:46:00Z</time></trkpt><trkpt lat="45.995731091859724" lon="12.748810415437632"><ele>44.0</ele><time>2026-04-12T07:46:01Z</time></trkpt><trkpt lat="45.99587702977263" lon="12.748827041123246"><ele>44.0</ele><time>2026-04-12T07:46:02Z</time></trkpt><trkpt lat="45.99604384670516" lon="12.748812055281585"><ele>44.5</ele><time>2026-04-12T07:46:03Z</time></trkpt><trkpt lat="45.996199280159914" lon="12.748802226051936"><ele>45.0</ele><time>2026-04-12T07:46:04Z</time></trkpt><trkpt lat="45.996330830167935" lon="12.748807960188238"><ele>45.5</ele><time>2026-04-12T07:46:05Z</time></trkpt><trkpt lat="45.99644957947223" lon="12.748846563651142"><ele>46.0</ele><time>2026-04-12T07:46:06Z</time></trkpt><trkpt lat="45.996569355822686" lon="12.748908493861173"><ele>45.5</ele><time>2026-04-12T07:46:07Z</time></trkpt><trkpt lat="45.99669723575199" lon="12.749002332393928"><ele>45.0</ele><time>2026-04-12T07:46:08Z</time></trkpt><trkpt lat="45.99682283828853" lon="12.749089532539436"><ele>44.5</ele><time>2026-04-12T07:46:09Z</time></trkpt><trkpt lat="45.99692750605234" lon="12.749170769839951"><ele>44.0</ele><time>2026-04-12T07:46:10Z</time></trkpt><trkpt lat="45.99701116756334" lon="12.749252113699413"><ele>44.0</ele><time>2026-04-12T07:46:11Z</time></trkpt><trkpt lat="45.99709629003075" lon="12.749321809342684"><ele>44.0</ele><time>2026-04-12T07:46:12Z</time></trkpt><trkpt lat="45.997202627902595" lon="12.749348101794785"><ele>44.0</ele><time>2026-04-12T07:46:13Z</time></trkpt><trkpt lat="45.9973367451124" lon="12.749349245338525"><ele>44.0</ele><time>2026-04-12T07:46:14Z</time></trkpt><trkpt lat="45.99746206281743" lon="12.749380683321062"><ele>44.33333333333333</ele><time>2026-04-12T07:46:15Z</time></trkpt><trkpt lat="45.997610316603215" lon="12.749465154524037"><ele>44.666666666666664</ele><time>2026-04-12T07:46:16Z</time></trkpt><trkpt lat="45.99776844642083" lon="12.749547108225755"><ele>45.0</ele><time>2026-04-12T07:46:17Z</time></trkpt><trkpt lat="45.99791004174882" lon="12.749604190887155"><ele>45.0</ele><time>2026-04-12T07:46:18Z</time></trkpt><trkpt lat="45.99802780025385" lon="12.749655545636116"><ele>45.0</ele><time>2026-04-12T07:46:19Z</time></trkpt><trkpt lat="45.99812453229539" lon="12.74972770448708"><ele>45.0</ele><time>2026-04-12T07:46:20Z</time></trkpt><trkpt lat="45.99821384495191" lon="12.749835417844968"><ele>45.0</ele><time>2026-04-12T07:46:21Z</time></trkpt><trkpt lat="45.99829927041927" lon="12.749957423194617"><ele>45.6</ele><time>2026-04-12T07:46:22Z</time></trkpt><trkpt lat="45.99836493034068" lon="12.75003338350282"><ele>46.2</ele><time>2026-04-12T07:46:23Z</time></trkpt><trkpt lat="45.99842774082957" lon="12.750072733478532"><ele>46.8</ele><time>2026-04-12T07:46:24Z</time></trkpt><trkpt lat="45.99857412702043" lon="12.750010749341197"><ele>47.4</ele><time>2026-04-12T07:46:26Z</time></trkpt><trkpt lat="45.99868791785579" lon="12.749939457065413"><ele>48.0</ele><time>2026-04-12T07:46:27Z</time></trkpt><trkpt lat="45.998816023706226" lon="12.749829123209167"><ele>48.0</ele><time>2026-04-12T07:46:28Z</time></trkpt><trkpt lat="45.99893544403833" lon="12.74975703813365"><ele>48.0</ele><time>2026-04-12T07:46:29Z</time></trkpt><trkpt lat="45.99905678552301" lon="12.749718728684105"><ele>48.0</ele><time>2026-04-12T07:46:30Z</time></trkpt><trkpt lat="45.99919266637346" lon="12.749713076898791"><ele>48.0</ele><time>2026-04-12T07:46:31Z</time></trkpt><trkpt lat="45.99934736203059" lon="12.749726621318583"><ele>48.0</ele><time>2026-04-12T07:46:32Z</time></trkpt><trkpt lat="45.999495947606974" lon="12.749735141470172"><ele>48.0</ele><time>2026-04-12T07:46:33Z</time></trkpt><trkpt lat="45.99961978155287" lon="12.749715131955462"><ele>48.0</ele><time>2026-04-12T07:46:34Z</time></trkpt><trkpt lat="45.999740797384" lon="12.749705782931269"><ele>48.0</ele><time>2026-04-12T07:46:35Z</time></trkpt><trkpt lat="45.999839786648" lon="12.749737670806702"><ele>48.0</ele><time>2026-04-12T07:46:36Z</time></trkpt><trkpt lat="45.999915270681875" lon="12.749740367766554"><ele>48.0</ele><time>2026-04-12T07:46:37Z</time></trkpt><trkpt lat="45.99997962408393" lon="12.749744208973823"><ele>48.0</ele><time>2026-04-12T07:46:39Z</time></trkpt><trkpt lat="45.9999702290484" lon="12.749951943002435"><ele>48.0</ele><time>2026-04-12T07:46:43Z</time></trkpt><trkpt lat="45.99994569123609" lon="12.750133282569191"><ele>48.0</ele><time>2026-04-12T07:46:44Z</time></trkpt><trkpt lat="45.99990333823523" lon="12.750347356452243"><ele>47.666666666666664</ele><time>2026-04-12T07:46:45Z</time></trkpt><trkpt lat="45.99985966166464" lon="12.750612775591772"><ele>47.33333333333333</ele><time>2026-04-12T07:46:46Z</time></trkpt><trkpt lat="45.999808201928815" lon="12.75090804141478"><ele>47.0</ele><time>2026-04-12T07:46:47Z</time></trkpt><trkpt lat="45.9997553517984" lon="12.751232305339592"><ele>46.666666666666664</ele><time>2026-04-12T07:46:48Z</time></trkpt><trkpt lat="45.999712124433614" lon="12.751545994636967"><ele>46.333333333333336</ele><time>2026-04-12T07:46:49Z</time></trkpt><trkpt lat="45.999678535415626" lon="12.7518646655919"><ele>46.0</ele><time>2026-04-12T07:46:50Z</time></trkpt><trkpt lat="45.999652362335624" lon="12.752160147875117"><ele>46.0</ele><time>2026-04-12T07:46:51Z</time></trkpt><trkpt lat="45.999629335896536" lon="12.752441160744128"><ele>46.0</ele><time>2026-04-12T07:46:52Z</time></trkpt><trkpt lat="45.99960556076276" lon="12.752738409192837"><ele>46.0</ele><time>2026-04-12T07:46:53Z</time></trkpt><trkpt lat="45.99958256515251" lon="12.753014378629013"><ele>46.333333333333336</ele><time>2026-04-12T07:46:54Z</time></trkpt><trkpt lat="45.999564350449326" lon="12.75327151697961"><ele>46.666666666666664</ele><time>2026-04-12T07:46:55Z</time></trkpt><trkpt lat="45.99954756789331" lon="12.753518512193658"><ele>47.0</ele><time>2026-04-12T07:46:56Z</time></trkpt><trkpt lat="45.99953233542659" lon="12.753745881263248"><ele>47.0</ele><time>2026-04-12T07:46:57Z</time></trkpt><trkpt lat="45.999526240009374" lon="12.753962697202288"><ele>47.0</ele><time>2026-04-12T07:46:58Z</time></trkpt><trkpt lat="45.999532963954884" lon="12.75418103411952"><ele>47.0</ele><time>2026-04-12T07:46:59Z</time></trkpt><trkpt lat="45.99954867470837" lon="12.75439852280996"><ele>47.33333333333333</ele><time>2026-04-12T07:47:00Z</time></trkpt><trkpt lat="45.99957083543803" lon="12.75461110674549"><ele>47.666666666666664</ele><time>2026-04-12T07:47:01Z</time></trkpt><trkpt lat="45.99960168472767" lon="12.754823836215502"><ele>48.0</ele><time>2026-04-12T07:47:02Z</time></trkpt><trkpt lat="45.999647350998785" lon="12.755057773316908"><ele>48.33333333333333</ele><time>2026-04-12T07:47:03Z</time></trkpt><trkpt lat="45.99970168974799" lon="12.755293032720958"><ele>48.666666666666664</ele><time>2026-04-12T07:47:04Z</time></trkpt><trkpt lat="45.99975551659942" lon="12.755504442617873"><ele>49.0</ele><time>2026-04-12T07:47:05Z</time></trkpt><trkpt lat="45.99980964653454" lon="12.755696531327652"><ele>49.0</ele><time>2026-04-12T07:47:06Z</time></trkpt><trkpt lat="45.999858228718914" lon="12.755875232920582"><ele>49.0</ele><time>2026-04-12T07:47:07Z</time></trkpt><trkpt lat="45.999900689365546" lon="12.756028705593142"><ele>49.0</ele><time>2026-04-12T07:47:08Z</time></trkpt><trkpt lat="45.99994269622841" lon="12.756168949974846"><ele>49.0</ele><time>2026-04-12T07:47:09Z</time></trkpt><trkpt lat="45.99999351866333" lon="12.756318970976789"><ele>48.5</ele><time>2026-04-12T07:47:10Z</time></trkpt><trkpt lat="46.000055405211036" lon="12.756476766086454"><ele>48.0</ele><time>2026-04-12T07:47:11Z</time></trkpt><trkpt lat="46.000127576367966" lon="12.756650831139996"><ele>47.5</ele><time>2026-04-12T07:47:12Z</time></trkpt><trkpt lat="46.00020477128679" lon="12.75681027659305"><ele>47.0</ele><time>2026-04-12T07:47:13Z</time></trkpt><trkpt lat="46.0002829828299" lon="12.756955743311606"><ele>47.0</ele><time>2026-04-12T07:47:14Z</time></trkpt><trkpt lat="46.000343343140884" lon="12.75706744271949"><ele>47.0</ele><time>2026-04-12T07:47:15Z</time></trkpt><trkpt lat="46.00038748374751" lon="12.757147459909865"><ele>47.0</ele><time>2026-04-12T07:47:16Z</time></trkpt><trkpt lat="46.00041207511554" lon="12.757253650274333"><ele>47.0</ele><time>2026-04-12T07:47:18Z</time></trkpt><trkpt lat="46.00025860885176" lon="12.75738996847257"><ele>47.0</ele><time>2026-04-12T07:47:21Z</time></trkpt><trkpt lat="46.00015668151748" lon="12.757447099145585"><ele>47.0</ele><time>2026-04-12T07:47:22Z</time></trkpt><trkpt lat="46.00005050139928" lon="12.757523833907841"><ele>47.0</ele><time>2026-04-12T07:47:23Z</time></trkpt><trkpt lat="45.99992201039255" lon="12.757628974387327"><ele>47.0</ele><time>2026-04-12T07:47:24Z</time></trkpt><trkpt lat="45.9997780806329" lon="12.757739207458721"><ele>47.0</ele><time>2026-04-12T07:47:25Z</time></trkpt><trkpt lat="45.999646771553415" lon="12.757841779070041"><ele>46.75</ele><time>2026-04-12T07:47:26Z</time></trkpt><trkpt lat="45.999523213790404" lon="12.757943056303997"><ele>46.5</ele><time>2026-04-12T07:47:27Z</time></trkpt><trkpt lat="45.99939236125181" lon="12.758025358725513"><ele>46.25</ele><time>2026-04-12T07:47:28Z</time></trkpt><trkpt lat="45.99924638710273" lon="12.758078613061944"><ele>46.0</ele><time>2026-04-12T07:47:29Z</time></trkpt><trkpt lat="45.99907754767624" lon="12.758132571688721"><ele>45.333333333333336</ele><time>2026-04-12T07:47:30Z</time></trkpt><trkpt lat="45.99889180132619" lon="12.758200967475611"><ele>44.666666666666664</ele><time>2026-04-12T07:47:31Z</time></trkpt><trkpt lat="45.99870984825626" lon="12.758287013046447"><ele>44.0</ele><time>2026-04-12T07:47:32Z</time></trkpt><trkpt lat="45.998549976090736" lon="12.758367748087"><ele>44.0</ele><time>2026-04-12T07:47:33Z</time></trkpt><trkpt lat="45.99840487890566" lon="12.758441836409506"><ele>44.0</ele><time>2026-04-12T07:47:34Z</time></trkpt><trkpt lat="45.998269970285556" lon="12.75851296355259"><ele>44.0</ele><time>2026-04-12T07:47:35Z</time></trkpt><trkpt lat="45.99814941433482" lon="12.75857283367716"><ele>44.0</ele><time>2026-04-12T07:47:36Z</time></trkpt><trkpt lat="45.998038563486666" lon="12.758631943662053"><ele>43.83333333333333</ele><time>2026-04-12T07:47:37Z</time></trkpt><trkpt lat="45.99794075433505" lon="12.75868066429011"><ele>43.666666666666664</ele><time>2026-04-12T07:47:38Z</time></trkpt><trkpt lat="45.99786114314665" lon="12.758709803932238"><ele>43.5</ele><time>2026-04-12T07:47:39Z</time></trkpt><trkpt lat="45.997798645858225" lon="12.758721608267475"><ele>43.333333333333336</ele><time>2026-04-12T07:47:40Z</time></trkpt><trkpt lat="45.99770778740861" lon="12.758625203890617"><ele>43.16666666666667</ele><time>2026-04-12T07:47:42Z</time></trkpt><trkpt lat="45.99767745735639" lon="12.758541313381334"><ele>43.0</ele><time>2026-04-12T07:47:43Z</time></trkpt><trkpt lat="45.997652897063425" lon="12.758437372563762"><ele>43.0</ele><time>2026-04-12T07:47:44Z</time></trkpt><trkpt lat="45.997618724766895" lon="12.7583312552149"><ele>43.0</ele><time>2026-04-12T07:47:45Z</time></trkpt><trkpt lat="45.99758243486202" lon="12.758257083324274"><ele>43.0</ele><time>2026-04-12T07:47:46Z</time></trkpt><trkpt lat="45.997491604619846" lon="12.75824706586378"><ele>43.0</ele><time>2026-04-12T07:47:48Z</time></trkpt><trkpt lat="45.99741164329027" lon="12.758279551116967"><ele>43.0</ele><time>2026-04-12T07:47:49Z</time></trkpt><trkpt lat="45.99730790423131" lon="12.758316057347356"><ele>43.0</ele><time>2026-04-12T07:47:50Z</time></trkpt><trkpt lat="45.997187822054954" lon="12.758356441933389"><ele>43.25</ele><time>2026-04-12T07:47:51Z</time></trkpt><trkpt lat="45.99706599375189" lon="12.758398620349562"><ele>43.5</ele><time>2026-04-12T07:47:52Z</time></trkpt><trkpt lat="45.99694148135645" lon="12.758440124009047"><ele>43.75</ele><time>2026-04-12T07:47:53Z</time></trkpt><trkpt lat="45.99682746505375" lon="12.758468745326622"><ele>44.0</ele><time>2026-04-12T07:47:54Z</time></trkpt><trkpt lat="45.996732757779704" lon="12.758493365890207"><ele>44.0</ele><time>2026-04-12T07:47:55Z</time></trkpt><trkpt lat="45.99662945908267" lon="12.758516152322613"><ele>44.0</ele><time>2026-04-12T07:47:56Z</time></trkpt><trkpt lat="45.99652647813098" lon="12.758539004381264"><ele>44.0</ele><time>2026-04-12T07:47:57Z</time></trkpt><trkpt lat="45.99642520221928" lon="12.75855962944803"><ele>44.0</ele><time>2026-04-12T07:47:58Z</time></trkpt><trkpt lat="45.99633933349841" lon="12.75857475343758"><ele>44.0</ele><time>2026-04-12T07:47:59Z</time></trkpt><trkpt lat="45.996247758481495" lon="12.758601629677303"><ele>43.800000000000004</ele><time>2026-04-12T07:48:00Z</time></trkpt><trkpt lat="45.996151730554324" lon="12.758626136654648"><ele>43.6</ele><time>2026-04-12T07:48:01Z</time></trkpt><trkpt lat="45.996049776114525" lon="12.758652543896773"><ele>43.4</ele><time>2026-04-12T07:48:02Z</time></trkpt><trkpt lat="45.9959524965092" lon="12.758671551460743"><ele>43.2</ele><time>2026-04-12T07:48:03Z</time></trkpt><trkpt lat="45.99585314080368" lon="12.758672852441878"><ele>43.0</ele><time>2026-04-12T07:48:04Z</time></trkpt><trkpt lat="45.99574832005418" lon="12.758693528029564"><ele>42.8</ele><time>2026-04-12T07:48:05Z</time></trkpt><trkpt lat="45.995659867734325" lon="12.75871388038456"><ele>42.599999999999994</ele><time>2026-04-12T07:48:06Z</time></trkpt><trkpt lat="45.995577776080054" lon="12.758731471412647"><ele>42.400000000000006</ele><time>2026-04-12T07:48:07Z</time></trkpt><trkpt lat="45.995512356131336" lon="12.758737125930605"><ele>42.2</ele><time>2026-04-12T07:48:08Z</time></trkpt><trkpt lat="45.99541963429771" lon="12.758681867014264"><ele>42.0</ele><time>2026-04-12T07:48:10Z</time></trkpt><trkpt lat="45.99541975238159" lon="12.758486838849523"><ele>42.400000000000006</ele><time>2026-04-12T07:48:12Z</time></trkpt><trkpt lat="45.995428155620104" lon="12.758353570837507"><ele>42.800000000000004</ele><time>2026-04-12T07:48:13Z</time></trkpt><trkpt lat="45.99542926237077" lon="12.758191706990502"><ele>43.2</ele><time>2026-04-12T07:48:14Z</time></trkpt><trkpt lat="45.99542684038804" lon="12.75801800677734"><ele>43.6</ele><time>2026-04-12T07:48:15Z</time></trkpt><trkpt lat="45.99542571547886" lon="12.757880365240206"><ele>44.0</ele><time>2026-04-12T07:48:16Z</time></trkpt><trkpt lat="45.99542163118386" lon="12.75778062931815"><ele>44.0</ele><time>2026-04-12T07:48:17Z</time></trkpt><trkpt lat="45.99542444473576" lon="12.757682180513466"><ele>44.0</ele><time>2026-04-12T07:48:18Z</time></trkpt><trkpt lat="45.99539406782487" lon="12.757567663676772"><ele>44.0</ele><time>2026-04-12T07:48:20Z</time></trkpt><trkpt lat="45.99531592683808" lon="12.75755817671898"><ele>44.0</ele><time>2026-04-12T07:48:22Z</time></trkpt><trkpt lat="45.99519577827287" lon="12.75756150057351"><ele>44.0</ele><time>2026-04-12T07:48:24Z</time></trkpt><trkpt lat="45.995071705373164" lon="12.757557991374274"><ele>43.6</ele><time>2026-04-12T07:48:26Z</time></trkpt><trkpt lat="45.99494661455104" lon="12.757544721274279"><ele>43.2</ele><time>2026-04-12T07:48:28Z</time></trkpt><trkpt lat="45.994823047676284" lon="12.757544962005571"><ele>42.800000000000004</ele><time>2026-04-12T07:48:30Z</time></trkpt><trkpt lat="45.99475989457619" lon="12.757554805598012"><ele>42.400000000000006</ele><time>2026-04-12T07:48:31Z</time></trkpt><trkpt lat="45.994644476517344" lon="12.75758074640586"><ele>42.0</ele><time>2026-04-12T07:48:33Z</time></trkpt><trkpt lat="45.99453051766281" lon="12.757621246775178"><ele>42.0</ele><time>2026-04-12T07:48:35Z</time></trkpt><trkpt lat="45.99441596944621" lon="12.75767158105896"><ele>42.0</ele><time>2026-04-12T07:48:37Z</time></trkpt><trkpt lat="45.994336277077814" lon="12.757709955230942"><ele>42.0</ele><time>2026-04-12T07:48:39Z</time></trkpt><trkpt lat="45.99425229551206" lon="12.75775909527442"><ele>42.0</ele><time>2026-04-12T07:48:41Z</time></trkpt><trkpt lat="45.994153556139096" lon="12.757806194039464"><ele>42.0</ele><time>2026-04-12T07:48:43Z</time></trkpt><trkpt lat="45.99407695256272" lon="12.757794582668625"><ele>42.0</ele><time>2026-04-12T07:49:02Z</time></trkpt><trkpt lat="45.9939946457052" lon="12.757831423346884"><ele>42.0</ele><time>2026-04-12T07:49:05Z</time></trkpt><trkpt lat="45.993939904066806" lon="12.757882273541071"><ele>42.0</ele><time>2026-04-12T07:49:07Z</time></trkpt><trkpt lat="45.99387464263489" lon="12.757903978039211"><ele>42.0</ele><time>2026-04-12T07:49:09Z</time></trkpt><trkpt lat="45.99378809598481" lon="12.75793919181258"><ele>42.0</ele><time>2026-04-12T07:49:11Z</time></trkpt><trkpt lat="45.99370649022445" lon="12.757971197323744"><ele>42.0</ele><time>2026-04-12T07:49:13Z</time></trkpt><trkpt lat="45.99363289908953" lon="12.758002739464853"><ele>42.0</ele><time>2026-04-12T07:49:15Z</time></trkpt><trkpt lat="45.99353768482465" lon="12.758043175700031"><ele>42.0</ele><time>2026-04-12T07:49:18Z</time></trkpt><trkpt lat="45.99344566312778" lon="12.75809766282372"><ele>42.0</ele><time>2026-04-12T07:49:20Z</time></trkpt><trkpt lat="45.99333518498101" lon="12.75814289958396"><ele>42.0</ele><time>2026-04-12T07:49:22Z</time></trkpt><trkpt lat="45.99323265062539" lon="12.758169522960747"><ele>42.0</ele><time>2026-04-12T07:49:24Z</time></trkpt><trkpt lat="45.993188324784484" lon="12.758070855049008"><ele>42.2</ele><time>2026-04-12T07:49:26Z</time></trkpt><trkpt lat="45.9931871587766" lon="12.75788301431357"><ele>42.400000000000006</ele><time>2026-04-12T07:49:28Z</time></trkpt><trkpt lat="45.993179605880016" lon="12.757792718521088"><ele>42.599999999999994</ele><time>2026-04-12T07:49:29Z</time></trkpt><trkpt lat="45.99308217872239" lon="12.757722177923098"><ele>42.8</ele><time>2026-04-12T07:49:31Z</time></trkpt><trkpt lat="45.99298685219972" lon="12.757714848327314"><ele>43.0</ele><time>2026-04-12T07:49:32Z</time></trkpt><trkpt lat="45.99289749514448" lon="12.757719208883636"><ele>43.0</ele><time>2026-04-12T07:49:33Z</time></trkpt><trkpt lat="45.992823615331275" lon="12.757717255444454"><ele>43.0</ele><time>2026-04-12T07:49:34Z</time></trkpt><trkpt lat="45.992746236730994" lon="12.75775018474041"><ele>43.0</ele><time>2026-04-12T07:49:36Z</time></trkpt><trkpt lat="45.99269316804511" lon="12.75791187680025"><ele>43.0</ele><time>2026-04-12T07:49:38Z</time></trkpt><trkpt lat="45.99262838582749" lon="12.758051474351031"><ele>43.0</ele><time>2026-04-12T07:49:39Z</time></trkpt><trkpt lat="45.992563995827595" lon="12.758219771634803"><ele>42.66666666666667</ele><time>2026-04-12T07:49:40Z</time></trkpt><trkpt lat="45.99249581599837" lon="12.758423606483156"><ele>42.333333333333336</ele><time>2026-04-12T07:49:41Z</time></trkpt><trkpt lat="45.99241976618447" lon="12.758628778969966"><ele>42.0</ele><time>2026-04-12T07:49:42Z</time></trkpt><trkpt lat="45.99234083288805" lon="12.758796273721261"><ele>42.0</ele><time>2026-04-12T07:49:43Z</time></trkpt><trkpt lat="45.992284896233706" lon="12.758952012482172"><ele>42.0</ele><time>2026-04-12T07:49:44Z</time></trkpt><trkpt lat="45.99222608739794" lon="12.759101898631155"><ele>42.0</ele><time>2026-04-12T07:49:45Z</time></trkpt><trkpt lat="45.99216936609051" lon="12.759230610968551"><ele>42.0</ele><time>2026-04-12T07:49:46Z</time></trkpt><trkpt lat="45.992102617879844" lon="12.759321843574487"><ele>42.0</ele><time>2026-04-12T07:49:47Z</time></trkpt><trkpt lat="45.99201999544716" lon="12.759397331869918"><ele>42.2</ele><time>2026-04-12T07:49:48Z</time></trkpt><trkpt lat="45.991915717888965" lon="12.759476338408122"><ele>42.400000000000006</ele><time>2026-04-12T07:49:49Z</time></trkpt><trkpt lat="45.99181429141758" lon="12.759541846395141"><ele>42.599999999999994</ele><time>2026-04-12T07:49:50Z</time></trkpt><trkpt lat="45.9917293564819" lon="12.759628039450822"><ele>42.8</ele><time>2026-04-12T07:49:51Z</time></trkpt><trkpt lat="45.991656106675656" lon="12.759704247596792"><ele>43.0</ele><time>2026-04-12T07:49:52Z</time></trkpt><trkpt lat="45.99160064491367" lon="12.75978503347365"><ele>43.0</ele><time>2026-04-12T07:49:53Z</time></trkpt><trkpt lat="45.991546267866596" lon="12.759868296236428"><ele>43.0</ele><time>2026-04-12T07:49:54Z</time></trkpt><trkpt lat="45.99149925805774" lon="12.759964334136255"><ele>43.0</ele><time>2026-04-12T07:49:55Z</time></trkpt><trkpt lat="45.9914581897723" lon="12.76004823540399"><ele>43.0</ele><time>2026-04-12T07:49:56Z</time></trkpt><trkpt lat="45.99142047071423" lon="12.760125294299685"><ele>43.0</ele><time>2026-04-12T07:49:57Z</time></trkpt><trkpt lat="45.99136917729189" lon="12.76026655143787"><ele>43.0</ele><time>2026-04-12T07:49:59Z</time></trkpt><trkpt lat="45.991307501432516" lon="12.760319566202815"><ele>42.66666666666667</ele><time>2026-04-12T07:50:00Z</time></trkpt><trkpt lat="45.991258813947404" lon="12.760380253525984"><ele>42.333333333333336</ele><time>2026-04-12T07:50:01Z</time></trkpt><trkpt lat="45.991199915492174" lon="12.76041425171552"><ele>42.0</ele><time>2026-04-12T07:50:02Z</time></trkpt><trkpt lat="45.991115459266936" lon="12.760443633231391"><ele>41.666666666666664</ele><time>2026-04-12T07:50:03Z</time></trkpt><trkpt lat="45.99102832125958" lon="12.760483784011443"><ele>41.33333333333333</ele><time>2026-04-12T07:50:04Z</time></trkpt><trkpt lat="45.99094865452057" lon="12.760542522717948"><ele>41.0</ele><time>2026-04-12T07:50:05Z</time></trkpt><trkpt lat="45.99087713724928" lon="12.76060671370678"><ele>40.5</ele><time>2026-04-12T07:50:06Z</time></trkpt><trkpt lat="45.99081179052741" lon="12.760669715466449"><ele>40.0</ele><time>2026-04-12T07:50:07Z</time></trkpt><trkpt lat="45.99075280790229" lon="12.760717973799043"><ele>39.5</ele><time>2026-04-12T07:50:08Z</time></trkpt><trkpt lat="45.99065971663516" lon="12.760750182335297"><ele>39.0</ele><time>2026-04-12T07:50:10Z</time></trkpt><trkpt lat="45.99058719774053" lon="12.76076512121285"><ele>38.5</ele><time>2026-04-12T07:50:12Z</time></trkpt><trkpt lat="45.9904799768334" lon="12.760786737991957"><ele>38.0</ele><time>2026-04-12T07:50:14Z</time></trkpt><trkpt lat="45.99041709029666" lon="12.760807171349633"><ele>38.0</ele><time>2026-04-12T07:50:15Z</time></trkpt><trkpt lat="45.99034577694866" lon="12.760839338105587"><ele>38.0</ele><time>2026-04-12T07:50:16Z</time></trkpt><trkpt lat="45.990279809479475" lon="12.760895986499495"><ele>38.0</ele><time>2026-04-12T07:50:17Z</time></trkpt><trkpt lat="45.990226530966" lon="12.76096457731219"><ele>38.0</ele><time>2026-04-12T07:50:18Z</time></trkpt><trkpt lat="45.99017167502398" lon="12.761061140325216"><ele>38.0</ele><time>2026-04-12T07:50:19Z</time></trkpt><trkpt lat="45.9901211229139" lon="12.761161427082932"><ele>38.0</ele><time>2026-04-12T07:50:20Z</time></trkpt><trkpt lat="45.99007646822853" lon="12.761279689220656"><ele>38.0</ele><time>2026-04-12T07:50:21Z</time></trkpt><trkpt lat="45.990033609972805" lon="12.761407292170581"><ele>38.0</ele><time>2026-04-12T07:50:22Z</time></trkpt><trkpt lat="45.98998714211808" lon="12.76155626500283"><ele>38.0</ele><time>2026-04-12T07:50:23Z</time></trkpt><trkpt lat="45.989954363981795" lon="12.761684784951388"><ele>38.0</ele><time>2026-04-12T07:50:24Z</time></trkpt><trkpt lat="45.98992049301657" lon="12.761839093379926"><ele>38.0</ele><time>2026-04-12T07:50:25Z</time></trkpt><trkpt lat="45.98988416573435" lon="12.76199755499469"><ele>38.5</ele><time>2026-04-12T07:50:26Z</time></trkpt><trkpt lat="45.98984598861241" lon="12.76216276367007"><ele>39.0</ele><time>2026-04-12T07:50:27Z</time></trkpt><trkpt lat="45.98980742774728" lon="12.762322967493843"><ele>39.5</ele><time>2026-04-12T07:50:28Z</time></trkpt><trkpt lat="45.98976998189244" lon="12.762478907433277"><ele>40.0</ele><time>2026-04-12T07:50:29Z</time></trkpt><trkpt lat="45.98973147774661" lon="12.762651380470803"><ele>40.2</ele><time>2026-04-12T07:50:30Z</time></trkpt><trkpt lat="45.989691092033034" lon="12.762821540104882"><ele>40.4</ele><time>2026-04-12T07:50:31Z</time></trkpt><trkpt lat="45.98965407441459" lon="12.762973130878649"><ele>40.599999999999994</ele><time>2026-04-12T07:50:32Z</time></trkpt><trkpt lat="45.98962423057081" lon="12.763080680714955"><ele>40.8</ele><time>2026-04-12T07:50:33Z</time></trkpt><trkpt lat="45.98959294166868" lon="12.763165699682924"><ele>41.0</ele><time>2026-04-12T07:50:34Z</time></trkpt><trkpt lat="45.98953198742151" lon="12.76329238585876"><ele>41.0</ele><time>2026-04-12T07:50:36Z</time></trkpt><trkpt lat="45.98947591549264" lon="12.763403453220397"><ele>41.0</ele><time>2026-04-12T07:50:38Z</time></trkpt><trkpt lat="45.98946092485556" lon="12.76354924117685"><ele>41.0</ele><time>2026-04-12T07:50:40Z</time></trkpt><trkpt lat="45.98945884405102" lon="12.763662615988128"><ele>41.0</ele><time>2026-04-12T07:50:41Z</time></trkpt><trkpt lat="45.98947254104054" lon="12.763772664465412"><ele>41.0</ele><time>2026-04-12T07:50:42Z</time></trkpt><trkpt lat="45.98949334214959" lon="12.763916830493834"><ele>41.33333333333333</ele><time>2026-04-12T07:50:43Z</time></trkpt><trkpt lat="45.989490561407045" lon="12.76402544332768"><ele>41.666666666666664</ele><time>2026-04-12T07:50:44Z</time></trkpt><trkpt lat="45.98948520259418" lon="12.764121459314161"><ele>42.0</ele><time>2026-04-12T07:50:45Z</time></trkpt><trkpt lat="45.98948713599847" lon="12.764223255574832"><ele>42.333333333333336</ele><time>2026-04-12T07:50:46Z</time></trkpt><trkpt lat="45.989518912016806" lon="12.76435694773964"><ele>42.66666666666667</ele><time>2026-04-12T07:50:48Z</time></trkpt><trkpt lat="45.98949539692043" lon="12.76448047163025"><ele>43.0</ele><time>2026-04-12T07:50:50Z</time></trkpt><trkpt lat="45.98947019999519" lon="12.764574631876153"><ele>43.0</ele><time>2026-04-12T07:50:51Z</time></trkpt><trkpt lat="45.98944542663633" lon="12.764743526425498"><ele>43.0</ele><time>2026-04-12T07:50:53Z</time></trkpt><trkpt lat="45.98943184788967" lon="12.764861799944613"><ele>43.0</ele><time>2026-04-12T07:50:54Z</time></trkpt><trkpt lat="45.989401953976355" lon="12.764989366050932"><ele>43.0</ele><time>2026-04-12T07:50:55Z</time></trkpt><trkpt lat="45.98935099431355" lon="12.765122731752566"><ele>43.0</ele><time>2026-04-12T07:50:56Z</time></trkpt><trkpt lat="45.989280214329185" lon="12.765265473287322"><ele>43.0</ele><time>2026-04-12T07:50:57Z</time></trkpt><trkpt lat="45.98919521671852" lon="12.765388149257115"><ele>43.0</ele><time>2026-04-12T07:50:58Z</time></trkpt><trkpt lat="45.989091025977054" lon="12.765498887591539"><ele>43.0</ele><time>2026-04-12T07:50:59Z</time></trkpt><trkpt lat="45.988975371201974" lon="12.765604687486864"><ele>43.0</ele><time>2026-04-12T07:51:00Z</time></trkpt><trkpt lat="45.988885861845795" lon="12.765704317654615"><ele>43.0</ele><time>2026-04-12T07:51:01Z</time></trkpt><trkpt lat="45.98881816450601" lon="12.76581099259041"><ele>43.0</ele><time>2026-04-12T07:51:02Z</time></trkpt><trkpt lat="45.98876170898033" lon="12.765922449667155"><ele>43.0</ele><time>2026-04-12T07:51:03Z</time></trkpt><trkpt lat="45.988734548842" lon="12.766034279924465"><ele>43.0</ele><time>2026-04-12T07:51:04Z</time></trkpt><trkpt lat="45.988721911879644" lon="12.766162820359892"><ele>43.0</ele><time>2026-04-12T07:51:05Z</time></trkpt><trkpt lat="45.98872668269404" lon="12.76632485540852"><ele>42.599999999999994</ele><time>2026-04-12T07:51:06Z</time></trkpt><trkpt lat="45.988709209722074" lon="12.766450026247357"><ele>42.199999999999996</ele><time>2026-04-12T07:51:07Z</time></trkpt><trkpt lat="45.9886741486492" lon="12.76657815088927"><ele>41.8</ele><time>2026-04-12T07:51:08Z</time></trkpt><trkpt lat="45.98864914084589" lon="12.766720522759822"><ele>41.4</ele><time>2026-04-12T07:51:09Z</time></trkpt><trkpt lat="45.98865420015296" lon="12.766877281785808"><ele>41.0</ele><time>2026-04-12T07:51:10Z</time></trkpt><trkpt lat="45.98868236107287" lon="12.76705343379851"><ele>40.8</ele><time>2026-04-12T07:51:11Z</time></trkpt><trkpt lat="45.988721596772244" lon="12.76721633542952"><ele>40.599999999999994</ele><time>2026-04-12T07:51:12Z</time></trkpt><trkpt lat="45.98875831332095" lon="12.767348927494535"><ele>40.4</ele><time>2026-04-12T07:51:13Z</time></trkpt><trkpt lat="45.988800490698395" lon="12.76750355079401"><ele>40.2</ele><time>2026-04-12T07:51:14Z</time></trkpt><trkpt lat="45.98884819061299" lon="12.767651724282116"><ele>40.0</ele><time>2026-04-12T07:51:15Z</time></trkpt><trkpt lat="45.98887553270272" lon="12.767783952086685"><ele>39.833333333333336</ele><time>2026-04-12T07:51:16Z</time></trkpt><trkpt lat="45.98887873319085" lon="12.767925083330233"><ele>39.66666666666667</ele><time>2026-04-12T07:51:17Z</time></trkpt><trkpt lat="45.98887832170269" lon="12.76806768254454"><ele>39.5</ele><time>2026-04-12T07:51:18Z</time></trkpt><trkpt lat="45.98889372238933" lon="12.768185845101907"><ele>39.333333333333336</ele><time>2026-04-12T07:51:19Z</time></trkpt><trkpt lat="45.98893152697597" lon="12.768279589590694"><ele>39.166666666666664</ele><time>2026-04-12T07:51:20Z</time></trkpt><trkpt lat="45.98899023629725" lon="12.768349090405515"><ele>39.0</ele><time>2026-04-12T07:51:21Z</time></trkpt><trkpt lat="45.989061576978145" lon="12.768360422097953"><ele>39.0</ele><time>2026-04-12T07:51:22Z</time></trkpt><trkpt lat="45.98911908458474" lon="12.768403616583322"><ele>39.0</ele><time>2026-04-12T07:51:23Z</time></trkpt><trkpt lat="45.98917378686588" lon="12.768498779727103"><ele>39.0</ele><time>2026-04-12T07:51:24Z</time></trkpt><trkpt lat="45.989227647057106" lon="12.768587658727213"><ele>39.0</ele><time>2026-04-12T07:51:25Z</time></trkpt><trkpt lat="45.989305567371304" lon="12.768670666718934"><ele>39.0</ele><time>2026-04-12T07:51:26Z</time></trkpt><trkpt lat="45.98941050760062" lon="12.7687428647859"><ele>39.0</ele><time>2026-04-12T07:51:27Z</time></trkpt><trkpt lat="45.98952307534394" lon="12.768814809494689"><ele>39.75</ele><time>2026-04-12T07:51:28Z</time></trkpt><trkpt lat="45.98965496431062" lon="12.768896586355211"><ele>40.5</ele><time>2026-04-12T07:51:29Z</time></trkpt><trkpt lat="45.98977993382012" lon="12.768974072861587"><ele>41.25</ele><time>2026-04-12T07:51:30Z</time></trkpt><trkpt lat="45.98990160772818" lon="12.769049516089474"><ele>42.0</ele><time>2026-04-12T07:51:31Z</time></trkpt><trkpt lat="45.990018954471005" lon="12.769122276426517"><ele>42.0</ele><time>2026-04-12T07:51:32Z</time></trkpt><trkpt lat="45.99013969549955" lon="12.769197141217642"><ele>42.0</ele><time>2026-04-12T07:51:33Z</time></trkpt><trkpt lat="45.99026983892635" lon="12.769277835879722"><ele>42.0</ele><time>2026-04-12T07:51:34Z</time></trkpt><trkpt lat="45.99039834948172" lon="12.769357518166741"><ele>42.0</ele><time>2026-04-12T07:51:35Z</time></trkpt><trkpt lat="45.99053233803797" lon="12.769415767491608"><ele>42.0</ele><time>2026-04-12T07:51:36Z</time></trkpt><trkpt lat="45.99066151600946" lon="12.76949768759035"><ele>42.0</ele><time>2026-04-12T07:51:37Z</time></trkpt><trkpt lat="45.99079746764953" lon="12.769579652376834"><ele>42.0</ele><time>2026-04-12T07:51:38Z</time></trkpt><trkpt lat="45.99093937320529" lon="12.769692976949004"><ele>42.0</ele><time>2026-04-12T07:51:39Z</time></trkpt><trkpt lat="45.99109349066569" lon="12.769788536660247"><ele>42.0</ele><time>2026-04-12T07:51:40Z</time></trkpt><trkpt lat="45.99124879401058" lon="12.769884831669536"><ele>42.0</ele><time>2026-04-12T07:51:41Z</time></trkpt><trkpt lat="45.99140386263892" lon="12.76998098108012"><ele>42.0</ele><time>2026-04-12T07:51:42Z</time></trkpt><trkpt lat="45.99155885933281" lon="12.770076734344673"><ele>42.0</ele><time>2026-04-12T07:51:43Z</time></trkpt><trkpt lat="45.991710949850244" lon="12.770169483720178"><ele>42.0</ele><time>2026-04-12T07:51:44Z</time></trkpt><trkpt lat="45.99186442177291" lon="12.770263075384154"><ele>42.333333333333336</ele><time>2026-04-12T07:51:45Z</time></trkpt><trkpt lat="45.992014821497754" lon="12.770354793606723"><ele>42.66666666666667</ele><time>2026-04-12T07:51:46Z</time></trkpt><trkpt lat="45.99216445038082" lon="12.770445918188999"><ele>43.0</ele><time>2026-04-12T07:51:47Z</time></trkpt><trkpt lat="45.99231366159218" lon="12.770536470629011"><ele>43.0</ele><time>2026-04-12T07:51:48Z</time></trkpt><trkpt lat="45.99246280524944" lon="12.770626981810647"><ele>43.0</ele><time>2026-04-12T07:51:49Z</time></trkpt><trkpt lat="45.99261764903274" lon="12.770720952258747"><ele>43.0</ele><time>2026-04-12T07:51:50Z</time></trkpt><trkpt lat="45.99277363910154" lon="12.770815618774348"><ele>43.333333333333336</ele><time>2026-04-12T07:51:51Z</time></trkpt><trkpt lat="45.992931493319816" lon="12.770886273473431"><ele>43.666666666666664</ele><time>2026-04-12T07:51:52Z</time></trkpt><trkpt lat="45.993059414267414" lon="12.770990456035056"><ele>44.0</ele><time>2026-04-12T07:51:53Z</time></trkpt><trkpt lat="45.99319583048128" lon="12.771051834550834"><ele>44.0</ele><time>2026-04-12T07:51:54Z</time></trkpt><trkpt lat="45.99331473381682" lon="12.771131824165902"><ele>44.0</ele><time>2026-04-12T07:51:55Z</time></trkpt><trkpt lat="45.993415626950245" lon="12.771218819682352"><ele>44.0</ele><time>2026-04-12T07:51:56Z</time></trkpt><trkpt lat="45.99351982239967" lon="12.771288506712144"><ele>44.0</ele><time>2026-04-12T07:51:57Z</time></trkpt><trkpt lat="45.99363544521824" lon="12.77134777460253"><ele>44.25</ele><time>2026-04-12T07:51:58Z</time></trkpt><trkpt lat="45.99376223966997" lon="12.771446164879297"><ele>44.5</ele><time>2026-04-12T07:51:59Z</time></trkpt><trkpt lat="45.993895182905185" lon="12.77154792714341"><ele>44.75</ele><time>2026-04-12T07:52:00Z</time></trkpt><trkpt lat="45.994022747907636" lon="12.771659900719891"><ele>45.0</ele><time>2026-04-12T07:52:01Z</time></trkpt><trkpt lat="45.99415267575825" lon="12.771771185203415"><ele>44.666666666666664</ele><time>2026-04-12T07:52:02Z</time></trkpt><trkpt lat="45.9942711375786" lon="12.7719087743134"><ele>44.33333333333333</ele><time>2026-04-12T07:52:03Z</time></trkpt><trkpt lat="45.994395992369896" lon="12.772034048197488"><ele>44.0</ele><time>2026-04-12T07:52:04Z</time></trkpt><trkpt lat="45.99451855213354" lon="12.7721614470442"><ele>44.0</ele><time>2026-04-12T07:52:05Z</time></trkpt><trkpt lat="45.99464398386534" lon="12.772295439432535"><ele>44.0</ele><time>2026-04-12T07:52:06Z</time></trkpt><trkpt lat="45.99476636495901" lon="12.772431107423651"><ele>44.0</ele><time>2026-04-12T07:52:07Z</time></trkpt><trkpt lat="45.994889123390955" lon="12.77257406454392"><ele>43.666666666666664</ele><time>2026-04-12T07:52:08Z</time></trkpt><trkpt lat="45.995011293881234" lon="12.772724672586776"><ele>43.333333333333336</ele><time>2026-04-12T07:52:09Z</time></trkpt><trkpt lat="45.995129662646114" lon="12.772875256693967"><ele>43.0</ele><time>2026-04-12T07:52:10Z</time></trkpt><trkpt lat="45.99524871432813" lon="12.773028754594382"><ele>43.0</ele><time>2026-04-12T07:52:11Z</time></trkpt><trkpt lat="45.995375158708946" lon="12.773195603354045"><ele>43.0</ele><time>2026-04-12T07:52:12Z</time></trkpt><trkpt lat="45.9954885473193" lon="12.773350889576529"><ele>43.0</ele><time>2026-04-12T07:52:13Z</time></trkpt><trkpt lat="45.99559893224154" lon="12.773502062290351"><ele>43.333333333333336</ele><time>2026-04-12T07:52:14Z</time></trkpt><trkpt lat="45.995712675553165" lon="12.773657834312372"><ele>43.666666666666664</ele><time>2026-04-12T07:52:15Z</time></trkpt><trkpt lat="45.995826529273735" lon="12.773813757544378"><ele>44.0</ele><time>2026-04-12T07:52:16Z</time></trkpt><trkpt lat="45.995933238605915" lon="12.77395989659889"><ele>44.0</ele><time>2026-04-12T07:52:17Z</time></trkpt><trkpt lat="45.99604414414522" lon="12.774089362377662"><ele>44.0</ele><time>2026-04-12T07:52:18Z</time></trkpt><trkpt lat="45.99612889497008" lon="12.774221475153308"><ele>44.0</ele><time>2026-04-12T07:52:19Z</time></trkpt><trkpt lat="45.996214048148374" lon="12.774349958337693"><ele>44.0</ele><time>2026-04-12T07:52:20Z</time></trkpt><trkpt lat="45.996300285267935" lon="12.77450210526149"><ele>44.0</ele><time>2026-04-12T07:52:21Z</time></trkpt><trkpt lat="45.996407963915956" lon="12.774652186208952"><ele>44.0</ele><time>2026-04-12T07:52:22Z</time></trkpt><trkpt lat="45.996557824678696" lon="12.77481563643944"><ele>44.0</ele><time>2026-04-12T07:52:23Z</time></trkpt><trkpt lat="45.99670922872539" lon="12.775022414350131"><ele>45.0</ele><time>2026-04-12T07:52:24Z</time></trkpt><trkpt lat="45.996859537364266" lon="12.775222883572452"><ele>46.0</ele><time>2026-04-12T07:52:25Z</time></trkpt><trkpt lat="45.99699495189054" lon="12.775419847153566"><ele>47.0</ele><time>2026-04-12T07:52:26Z</time></trkpt><trkpt lat="45.997132670806955" lon="12.775608582273753"><ele>47.0</ele><time>2026-04-12T07:52:27Z</time></trkpt><trkpt lat="45.99728288475623" lon="12.775809478779124"><ele>47.0</ele><time>2026-04-12T07:52:28Z</time></trkpt><trkpt lat="45.99743232293004" lon="12.776017724065435"><ele>47.0</ele><time>2026-04-12T07:52:29Z</time></trkpt><trkpt lat="45.99758549058689" lon="12.776222897088763"><ele>47.0</ele><time>2026-04-12T07:52:30Z</time></trkpt><trkpt lat="45.99773908035838" lon="12.776431560365314"><ele>47.0</ele><time>2026-04-12T07:52:31Z</time></trkpt><trkpt lat="45.99789688165706" lon="12.776641765127225"><ele>47.0</ele><time>2026-04-12T07:52:32Z</time></trkpt><trkpt lat="45.99805644423404" lon="12.776859968740169"><ele>46.666666666666664</ele><time>2026-04-12T07:52:33Z</time></trkpt><trkpt lat="45.99820301025861" lon="12.7770548495306"><ele>46.333333333333336</ele><time>2026-04-12T07:52:34Z</time></trkpt><trkpt lat="45.99834192234919" lon="12.777237686751446"><ele>46.0</ele><time>2026-04-12T07:52:35Z</time></trkpt><trkpt lat="45.99847123877308" lon="12.77740853803831"><ele>46.66666666666667</ele><time>2026-04-12T07:52:36Z</time></trkpt><trkpt lat="45.99860903693669" lon="12.777588449332226"><ele>47.333333333333336</ele><time>2026-04-12T07:52:37Z</time></trkpt><trkpt lat="45.998745424775066" lon="12.777772628942376"><ele>48.0</ele><time>2026-04-12T07:52:38Z</time></trkpt><trkpt lat="45.99888146322083" lon="12.777969916062371"><ele>48.33333333333333</ele><time>2026-04-12T07:52:39Z</time></trkpt><trkpt lat="45.99901246819267" lon="12.778174791843645"><ele>48.666666666666664</ele><time>2026-04-12T07:52:40Z</time></trkpt><trkpt lat="45.9991408321593" lon="12.77839656538005"><ele>49.0</ele><time>2026-04-12T07:52:41Z</time></trkpt><trkpt lat="45.9992674209991" lon="12.77863200204309"><ele>49.0</ele><time>2026-04-12T07:52:42Z</time></trkpt><trkpt lat="45.99939699476481" lon="12.778874981115516"><ele>49.0</ele><time>2026-04-12T07:52:43Z</time></trkpt><trkpt lat="45.99950513859618" lon="12.779097154776478"><ele>49.0</ele><time>2026-04-12T07:52:44Z</time></trkpt><trkpt lat="45.999611070543466" lon="12.779319458856627"><ele>49.0</ele><time>2026-04-12T07:52:45Z</time></trkpt><trkpt lat="45.99970075441323" lon="12.779545531341292"><ele>49.0</ele><time>2026-04-12T07:52:46Z</time></trkpt><trkpt lat="45.999805365283855" lon="12.779764347554313"><ele>49.0</ele><time>2026-04-12T07:52:47Z</time></trkpt><trkpt lat="45.999921721442625" lon="12.78000761274611"><ele>48.666666666666664</ele><time>2026-04-12T07:52:48Z</time></trkpt><trkpt lat="46.00002761350921" lon="12.780227715508289"><ele>48.33333333333333</ele><time>2026-04-12T07:52:49Z</time></trkpt><trkpt lat="46.00013965058853" lon="12.780460591053563"><ele>48.0</ele><time>2026-04-12T07:52:50Z</time></trkpt><trkpt lat="46.00024748033389" lon="12.780684721383402"><ele>48.0</ele><time>2026-04-12T07:52:51Z</time></trkpt><trkpt lat="46.000342818426184" lon="12.780882887095682"><ele>48.0</ele><time>2026-04-12T07:52:52Z</time></trkpt><trkpt lat="46.0004370620838" lon="12.781075227266859"><ele>48.0</ele><time>2026-04-12T07:52:53Z</time></trkpt><trkpt lat="46.00053990524078" lon="12.78128058399292"><ele>48.0</ele><time>2026-04-12T07:52:54Z</time></trkpt><trkpt lat="46.00064237361364" lon="12.781482181140847"><ele>48.0</ele><time>2026-04-12T07:52:55Z</time></trkpt><trkpt lat="46.00073864060423" lon="12.78167157762196"><ele>48.0</ele><time>2026-04-12T07:52:56Z</time></trkpt><trkpt lat="46.00082561368988" lon="12.78184965701212"><ele>48.25</ele><time>2026-04-12T07:52:57Z</time></trkpt><trkpt lat="46.00091028723696" lon="12.78202738007146"><ele>48.5</ele><time>2026-04-12T07:52:58Z</time></trkpt><trkpt lat="46.00100734928758" lon="12.78219631028368"><ele>48.75</ele><time>2026-04-12T07:52:59Z</time></trkpt><trkpt lat="46.00107514852674" lon="12.782358929383005"><ele>49.0</ele><time>2026-04-12T07:53:00Z</time></trkpt><trkpt lat="46.001140099119766" lon="12.782516473299856"><ele>49.0</ele><time>2026-04-12T07:53:01Z</time></trkpt><trkpt lat="46.00118456601469" lon="12.782689328206635"><ele>49.0</ele><time>2026-04-12T07:53:02Z</time></trkpt><trkpt lat="46.00123887100644" lon="12.782850009968405"><ele>49.0</ele><time>2026-04-12T07:53:03Z</time></trkpt><trkpt lat="46.00129012654931" lon="12.782982453956246"><ele>49.0</ele><time>2026-04-12T07:53:04Z</time></trkpt><trkpt lat="46.001343273854026" lon="12.783053788293747"><ele>49.0</ele><time>2026-04-12T07:53:05Z</time></trkpt><trkpt lat="46.00139022765176" lon="12.78311831162904"><ele>49.0</ele><time>2026-04-12T07:53:08Z</time></trkpt><trkpt lat="46.00147715953362" lon="12.782903320655539"><ele>49.0</ele><time>2026-04-12T07:53:14Z</time></trkpt><trkpt lat="46.00144019296833" lon="12.782749445727582"><ele>49.0</ele><time>2026-04-12T07:53:15Z</time></trkpt><trkpt lat="46.00139667595378" lon="12.782545631244378"><ele>49.0</ele><time>2026-04-12T07:53:16Z</time></trkpt><trkpt lat="46.001364085437395" lon="12.782372610593224"><ele>48.99999999999999</ele><time>2026-04-12T07:53:17Z</time></trkpt><trkpt lat="46.00135681595579" lon="12.782240807932398"><ele>49.0</ele><time>2026-04-12T07:53:18Z</time></trkpt><trkpt lat="46.001379392802946" lon="12.782133128855556"><ele>49.0</ele><time>2026-04-12T07:53:19Z</time></trkpt><trkpt lat="46.00142698781364" lon="12.78204808929146"><ele>49.0</ele><time>2026-04-12T07:53:20Z</time></trkpt><trkpt lat="46.00149069556579" lon="12.781990731040159"><ele>48.99999999999999</ele><time>2026-04-12T07:53:21Z</time></trkpt><trkpt lat="46.00156133421727" lon="12.781949996465583"><ele>49.0</ele><time>2026-04-12T07:53:22Z</time></trkpt><trkpt lat="46.00162956983853" lon="12.781940234250694"><ele>49.6</ele><time>2026-04-12T07:53:23Z</time></trkpt><trkpt lat="46.001686454466" lon="12.781984050000554"><ele>50.2</ele><time>2026-04-12T07:53:24Z</time></trkpt><trkpt lat="46.00176715544178" lon="12.781995737202356"><ele>50.800000000000004</ele><time>2026-04-12T07:53:26Z</time></trkpt><trkpt lat="46.00183801506378" lon="12.782284260061962"><ele>51.400000000000006</ele><time>2026-04-12T07:53:30Z</time></trkpt><trkpt lat="46.00185663765777" lon="12.782394708778508"><ele>52.0</ele><time>2026-04-12T07:53:39Z</time></trkpt><trkpt lat="46.001925641469796" lon="12.7825023250093"><ele>52.0</ele><time>2026-04-12T07:53:42Z</time></trkpt><trkpt lat="46.00197670009008" lon="12.78258270153284"><ele>52.0</ele><time>2026-04-12T07:53:43Z</time></trkpt><trkpt lat="46.002019471999716" lon="12.782689142986944"><ele>52.0</ele><time>2026-04-12T07:53:44Z</time></trkpt><trkpt lat="46.00207309431216" lon="12.782836936032663"><ele>52.0</ele><time>2026-04-12T07:53:45Z</time></trkpt><trkpt lat="46.00211308731768" lon="12.782974202996998"><ele>52.0</ele><time>2026-04-12T07:53:46Z</time></trkpt><trkpt lat="46.00215013567139" lon="12.783107401922441"><ele>52.0</ele><time>2026-04-12T07:53:47Z</time></trkpt><trkpt lat="46.00219470400753" lon="12.783244146378397"><ele>52.0</ele><time>2026-04-12T07:53:48Z</time></trkpt><trkpt lat="46.00224751075082" lon="12.783380198567071"><ele>52.0</ele><time>2026-04-12T07:53:49Z</time></trkpt><trkpt lat="46.00230456743558" lon="12.783516927969401"><ele>52.0</ele><time>2026-04-12T07:53:50Z</time></trkpt><trkpt lat="46.00236562361662" lon="12.783650896601566"><ele>52.0</ele><time>2026-04-12T07:53:51Z</time></trkpt><trkpt lat="46.00243660664648" lon="12.783779399157376"><ele>52.0</ele><time>2026-04-12T07:53:52Z</time></trkpt><trkpt lat="46.00251467143647" lon="12.783901532132369"><ele>52.0</ele><time>2026-04-12T07:53:53Z</time></trkpt><trkpt lat="46.002600994843355" lon="12.784007005391496"><ele>52.0</ele><time>2026-04-12T07:53:54Z</time></trkpt><trkpt lat="46.00268998942285" lon="12.784107087097501"><ele>52.0</ele><time>2026-04-12T07:53:55Z</time></trkpt><trkpt lat="46.002777519658466" lon="12.784203383202385"><ele>52.0</ele><time>2026-04-12T07:53:56Z</time></trkpt><trkpt lat="46.00287974495605" lon="12.784299361484269"><ele>52.0</ele><time>2026-04-12T07:53:57Z</time></trkpt><trkpt lat="46.002965970843974" lon="12.784398232795574"><ele>52.0</ele><time>2026-04-12T07:53:58Z</time></trkpt><trkpt lat="46.003051612489834" lon="12.784503304112372"><ele>52.0</ele><time>2026-04-12T07:53:59Z</time></trkpt><trkpt lat="46.003137284279376" lon="12.784631648679277"><ele>52.0</ele><time>2026-04-12T07:54:00Z</time></trkpt><trkpt lat="46.00323085884857" lon="12.784791651993483"><ele>52.0</ele><time>2026-04-12T07:54:01Z</time></trkpt><trkpt lat="46.003330510596264" lon="12.78496121837584"><ele>52.0</ele><time>2026-04-12T07:54:02Z</time></trkpt><trkpt lat="46.00343578216558" lon="12.785127729428167"><ele>52.0</ele><time>2026-04-12T07:54:03Z</time></trkpt><trkpt lat="46.00354915214103" lon="12.785291481649935"><ele>52.0</ele><time>2026-04-12T07:54:04Z</time></trkpt><trkpt lat="46.0036551468223" lon="12.785442195741556"><ele>52.0</ele><time>2026-04-12T07:54:05Z</time></trkpt><trkpt lat="46.003745496529966" lon="12.78559718825113"><ele>52.0</ele><time>2026-04-12T07:54:06Z</time></trkpt><trkpt lat="46.00382163801836" lon="12.785773337492301"><ele>52.0</ele><time>2026-04-12T07:54:07Z</time></trkpt><trkpt lat="46.003883960979856" lon="12.785958550768267"><ele>52.0</ele><time>2026-04-12T07:54:08Z</time></trkpt><trkpt lat="46.003944645829996" lon="12.786186583948716"><ele>52.0</ele><time>2026-04-12T07:54:09Z</time></trkpt><trkpt lat="46.004016296610104" lon="12.786437714409907"><ele>52.0</ele><time>2026-04-12T07:54:10Z</time></trkpt><trkpt lat="46.00408022827884" lon="12.786657731144595"><ele>52.0</ele><time>2026-04-12T07:54:11Z</time></trkpt><trkpt lat="46.00414558716173" lon="12.786859541199842"><ele>52.5</ele><time>2026-04-12T07:54:12Z</time></trkpt><trkpt lat="46.004218285245855" lon="12.787056838065956"><ele>53.0</ele><time>2026-04-12T07:54:13Z</time></trkpt><trkpt lat="46.00428689647166" lon="12.787223135995124"><ele>53.5</ele><time>2026-04-12T07:54:14Z</time></trkpt><trkpt lat="46.00436609701978" lon="12.78736334737513"><ele>54.0</ele><time>2026-04-12T07:54:15Z</time></trkpt><trkpt lat="46.00445559574683" lon="12.787497744413262"><ele>54.0</ele><time>2026-04-12T07:54:16Z</time></trkpt><trkpt lat="46.00454169142496" lon="12.787608118452656"><ele>54.0</ele><time>2026-04-12T07:54:17Z</time></trkpt><trkpt lat="46.00464252786494" lon="12.787714479386796"><ele>54.0</ele><time>2026-04-12T07:54:18Z</time></trkpt><trkpt lat="46.004771794839804" lon="12.787820971399869"><ele>54.0</ele><time>2026-04-12T07:54:19Z</time></trkpt><trkpt lat="46.00492541260421" lon="12.787934843099515"><ele>54.0</ele><time>2026-04-12T07:54:20Z</time></trkpt><trkpt lat="46.005083186670525" lon="12.78806154085595"><ele>54.0</ele><time>2026-04-12T07:54:21Z</time></trkpt><trkpt lat="46.00521615308711" lon="12.788172155846746"><ele>54.0</ele><time>2026-04-12T07:54:22Z</time></trkpt><trkpt lat="46.00532510731614" lon="12.78826786361829"><ele>54.0</ele><time>2026-04-12T07:54:23Z</time></trkpt><trkpt lat="46.00543180667367" lon="12.788368881424569"><ele>54.0</ele><time>2026-04-12T07:54:24Z</time></trkpt><trkpt lat="46.00553552211436" lon="12.788466804624298"><ele>54.0</ele><time>2026-04-12T07:54:25Z</time></trkpt><trkpt lat="46.005650300091254" lon="12.78855227972563"><ele>54.0</ele><time>2026-04-12T07:54:26Z</time></trkpt><trkpt lat="46.00579056721424" lon="12.788620587337062"><ele>54.33333333333333</ele><time>2026-04-12T07:54:27Z</time></trkpt><trkpt lat="46.005943242948916" lon="12.788686334364339"><ele>54.666666666666664</ele><time>2026-04-12T07:54:28Z</time></trkpt><trkpt lat="46.00609582187083" lon="12.788743922610129"><ele>55.0</ele><time>2026-04-12T07:54:29Z</time></trkpt><trkpt lat="46.00624964374036" lon="12.788799030816696"><ele>55.0</ele><time>2026-04-12T07:54:30Z</time></trkpt><trkpt lat="46.00640553345642" lon="12.788849010024103"><ele>55.0</ele><time>2026-04-12T07:54:31Z</time></trkpt><trkpt lat="46.006563318568645" lon="12.788899660859837"><ele>55.0</ele><time>2026-04-12T07:54:32Z</time></trkpt><trkpt lat="46.00671420524185" lon="12.788964663996362"><ele>55.0</ele><time>2026-04-12T07:54:33Z</time></trkpt><trkpt lat="46.006849963043685" lon="12.789026865325365"><ele>55.0</ele><time>2026-04-12T07:54:34Z</time></trkpt><trkpt lat="46.006969244184354" lon="12.789079360804163"><ele>55.0</ele><time>2026-04-12T07:54:35Z</time></trkpt><trkpt lat="46.00708967034329" lon="12.789142548837688"><ele>55.0</ele><time>2026-04-12T07:54:36Z</time></trkpt><trkpt lat="46.007218252020095" lon="12.789217783877259"><ele>55.0</ele><time>2026-04-12T07:54:37Z</time></trkpt><trkpt lat="46.00734619024191" lon="12.789315501452734"><ele>55.0</ele><time>2026-04-12T07:54:38Z</time></trkpt><trkpt lat="46.00746691623114" lon="12.78942480137046"><ele>55.0</ele><time>2026-04-12T07:54:39Z</time></trkpt><trkpt lat="46.00758292519144" lon="12.789563091146517"><ele>55.0</ele><time>2026-04-12T07:54:40Z</time></trkpt><trkpt lat="46.00770089201977" lon="12.789698296296796"><ele>54.666666666666664</ele><time>2026-04-12T07:54:41Z</time></trkpt><trkpt lat="46.00783022824549" lon="12.78982353602655"><ele>54.33333333333333</ele><time>2026-04-12T07:54:42Z</time></trkpt><trkpt lat="46.00796534988229" lon="12.789933930632314"><ele>54.0</ele><time>2026-04-12T07:54:43Z</time></trkpt><trkpt lat="46.0080984217018" lon="12.790016394906598"><ele>54.0</ele><time>2026-04-12T07:54:44Z</time></trkpt><trkpt lat="46.008229395092584" lon="12.790066589853708"><ele>54.0</ele><time>2026-04-12T07:54:45Z</time></trkpt><trkpt lat="46.008352015060034" lon="12.790097432010137"><ele>54.0</ele><time>2026-04-12T07:54:46Z</time></trkpt><trkpt lat="46.00847014349913" lon="12.790098960692893"><ele>54.0</ele><time>2026-04-12T07:54:47Z</time></trkpt><trkpt lat="46.00860252471256" lon="12.790084812677158"><ele>54.33333333333333</ele><time>2026-04-12T07:54:48Z</time></trkpt><trkpt lat="46.00875036115701" lon="12.790056577523155"><ele>54.666666666666664</ele><time>2026-04-12T07:54:49Z</time></trkpt><trkpt lat="46.008907773462155" lon="12.790046790573097"><ele>55.0</ele><time>2026-04-12T07:54:50Z</time></trkpt><trkpt lat="46.009066895182315" lon="12.790053246179188"><ele>55.33333333333333</ele><time>2026-04-12T07:54:51Z</time></trkpt><trkpt lat="46.00921834169714" lon="12.790076611413598"><ele>55.66666666666667</ele><time>2026-04-12T07:54:52Z</time></trkpt><trkpt lat="46.00937400764588" lon="12.79011704251295"><ele>56.0</ele><time>2026-04-12T07:54:53Z</time></trkpt><trkpt lat="46.009531999915176" lon="12.79017046996148"><ele>56.0</ele><time>2026-04-12T07:54:54Z</time></trkpt><trkpt lat="46.00968516502891" lon="12.790234299946821"><ele>56.0</ele><time>2026-04-12T07:54:55Z</time></trkpt><trkpt lat="46.00984948090353" lon="12.790311625801387"><ele>56.0</ele><time>2026-04-12T07:54:56Z</time></trkpt><trkpt lat="46.01001278380575" lon="12.79039394120635"><ele>56.0</ele><time>2026-04-12T07:54:57Z</time></trkpt><trkpt lat="46.010182882728316" lon="12.790482265316744"><ele>56.0</ele><time>2026-04-12T07:54:58Z</time></trkpt><trkpt lat="46.010342416163724" lon="12.790566691349502"><ele>56.0</ele><time>2026-04-12T07:54:59Z</time></trkpt><trkpt lat="46.01049219815225" lon="12.790644078177685"><ele>56.0</ele><time>2026-04-12T07:55:00Z</time></trkpt><trkpt lat="46.0106351034245" lon="12.790715832386784"><ele>56.0</ele><time>2026-04-12T07:55:01Z</time></trkpt><trkpt lat="46.01075418056637" lon="12.79077601219138"><ele>56.0</ele><time>2026-04-12T07:55:02Z</time></trkpt><trkpt lat="46.01087205481707" lon="12.790837776894616"><ele>56.0</ele><time>2026-04-12T07:55:03Z</time></trkpt><trkpt lat="46.01098612062195" lon="12.790894420384907"><ele>56.0</ele><time>2026-04-12T07:55:04Z</time></trkpt><trkpt lat="46.01109439070347" lon="12.790957224900644"><ele>56.0</ele><time>2026-04-12T07:55:05Z</time></trkpt><trkpt lat="46.01119991793663" lon="12.791021854045022"><ele>56.0</ele><time>2026-04-12T07:55:06Z</time></trkpt><trkpt lat="46.01130429744334" lon="12.791083775384438"><ele>56.0</ele><time>2026-04-12T07:55:07Z</time></trkpt><trkpt lat="46.01142392921404" lon="12.791150196862779"><ele>56.0</ele><time>2026-04-12T07:55:08Z</time></trkpt><trkpt lat="46.011557077313626" lon="12.79121285893403"><ele>56.0</ele><time>2026-04-12T07:55:09Z</time></trkpt><trkpt lat="46.01169910602771" lon="12.79125456061306"><ele>56.0</ele><time>2026-04-12T07:55:10Z</time></trkpt><trkpt lat="46.01182266262063" lon="12.791265941496823"><ele>56.0</ele><time>2026-04-12T07:55:11Z</time></trkpt><trkpt lat="46.011931163343306" lon="12.791259211316339"><ele>56.25</ele><time>2026-04-12T07:55:12Z</time></trkpt><trkpt lat="46.01202996319123" lon="12.791244606865067"><ele>56.5</ele><time>2026-04-12T07:55:13Z</time></trkpt><trkpt lat="46.012123665977605" lon="12.791242132056581"><ele>56.75</ele><time>2026-04-12T07:55:14Z</time></trkpt><trkpt lat="46.01224271071173" lon="12.79124671916954"><ele>57.0</ele><time>2026-04-12T07:55:15Z</time></trkpt><trkpt lat="46.012381307644034" lon="12.7912706601484"><ele>57.66666666666667</ele><time>2026-04-12T07:55:16Z</time></trkpt><trkpt lat="46.01252824263683" lon="12.791315012334774"><ele>58.333333333333336</ele><time>2026-04-12T07:55:17Z</time></trkpt><trkpt lat="46.01268937671539" lon="12.791379235533327"><ele>59.0</ele><time>2026-04-12T07:55:18Z</time></trkpt><trkpt lat="46.012842548143105" lon="12.791435149457524"><ele>59.0</ele><time>2026-04-12T07:55:19Z</time></trkpt><trkpt lat="46.012989347551134" lon="12.791504236773358"><ele>59.0</ele><time>2026-04-12T07:55:20Z</time></trkpt><trkpt lat="46.013149915420236" lon="12.791566299118662"><ele>59.0</ele><time>2026-04-12T07:55:21Z</time></trkpt><trkpt lat="46.01330682455834" lon="12.791630014728872"><ele>59.5</ele><time>2026-04-12T07:55:22Z</time></trkpt><trkpt lat="46.01343933909867" lon="12.791676109622982"><ele>60.0</ele><time>2026-04-12T07:55:23Z</time></trkpt><trkpt lat="46.01355732806965" lon="12.791723100892327"><ele>60.5</ele><time>2026-04-12T07:55:24Z</time></trkpt><trkpt lat="46.013688369709314" lon="12.791776528728562"><ele>61.0</ele><time>2026-04-12T07:55:25Z</time></trkpt><trkpt lat="46.01382507750772" lon="12.791831101342547"><ele>60.666666666666664</ele><time>2026-04-12T07:55:26Z</time></trkpt><trkpt lat="46.01396391233823" lon="12.791898469318795"><ele>60.33333333333333</ele><time>2026-04-12T07:55:27Z</time></trkpt><trkpt lat="46.01411001762398" lon="12.791965842780886"><ele>60.0</ele><time>2026-04-12T07:55:28Z</time></trkpt><trkpt lat="46.014256992296716" lon="12.792032638220673"><ele>60.66666666666667</ele><time>2026-04-12T07:55:29Z</time></trkpt><trkpt lat="46.01440520865864" lon="12.792102888851678"><ele>61.333333333333336</ele><time>2026-04-12T07:55:30Z</time></trkpt><trkpt lat="46.01455157200035" lon="12.792175556592305"><ele>62.0</ele><time>2026-04-12T07:55:31Z</time></trkpt><trkpt lat="46.014686555999226" lon="12.79224210848949"><ele>62.0</ele><time>2026-04-12T07:55:32Z</time></trkpt><trkpt lat="46.01480467397384" lon="12.792302822123396"><ele>62.0</ele><time>2026-04-12T07:55:33Z</time></trkpt><trkpt lat="46.014924360766486" lon="12.792363218923832"><ele>62.0</ele><time>2026-04-12T07:55:34Z</time></trkpt><trkpt lat="46.01505110082667" lon="12.792425642646917"><ele>62.0</ele><time>2026-04-12T07:55:35Z</time></trkpt><trkpt lat="46.015179844889026" lon="12.79249355716788"><ele>61.75</ele><time>2026-04-12T07:55:36Z</time></trkpt><trkpt lat="46.015309970805546" lon="12.792555407613706"><ele>61.5</ele><time>2026-04-12T07:55:37Z</time></trkpt><trkpt lat="46.015436676662205" lon="12.792613380485342"><ele>61.25</ele><time>2026-04-12T07:55:38Z</time></trkpt><trkpt lat="46.01555000067422" lon="12.792659818880125"><ele>61.0</ele><time>2026-04-12T07:55:39Z</time></trkpt><trkpt lat="46.01566250077934" lon="12.792693250803769"><ele>61.199999999999996</ele><time>2026-04-12T07:55:40Z</time></trkpt><trkpt lat="46.015778566846436" lon="12.792722872005923"><ele>61.39999999999999</ele><time>2026-04-12T07:55:41Z</time></trkpt><trkpt lat="46.01589228631103" lon="12.792750146439182"><ele>61.6</ele><time>2026-04-12T07:55:42Z</time></trkpt><trkpt lat="46.01600349834001" lon="12.79276798123656"><ele>61.8</ele><time>2026-04-12T07:55:43Z</time></trkpt><trkpt lat="46.01610467967055" lon="12.792793726239612"><ele>62.0</ele><time>2026-04-12T07:55:44Z</time></trkpt><trkpt lat="46.01619160060493" lon="12.792812169769679"><ele>62.0</ele><time>2026-04-12T07:55:45Z</time></trkpt><trkpt lat="46.01629176885345" lon="12.79283924181127"><ele>62.0</ele><time>2026-04-12T07:55:46Z</time></trkpt><trkpt lat="46.016416221171475" lon="12.792873860723162"><ele>62.0</ele><time>2026-04-12T07:55:47Z</time></trkpt><trkpt lat="46.01655960673633" lon="12.792899187397818"><ele>62.0</ele><time>2026-04-12T07:55:48Z</time></trkpt><trkpt lat="46.01670684057053" lon="12.792920762612098"><ele>62.25</ele><time>2026-04-12T07:55:49Z</time></trkpt><trkpt lat="46.01685138748721" lon="12.792950106646371"><ele>62.5</ele><time>2026-04-12T07:55:50Z</time></trkpt><trkpt lat="46.01696679694034" lon="12.792982943226999"><ele>62.75</ele><time>2026-04-12T07:55:51Z</time></trkpt><trkpt lat="46.01707244077313" lon="12.793018377528872"><ele>63.0</ele><time>2026-04-12T07:55:52Z</time></trkpt><trkpt lat="46.017162751646175" lon="12.793055757149933"><ele>63.0</ele><time>2026-04-12T07:55:53Z</time></trkpt><trkpt lat="46.017257838804184" lon="12.79309192626579"><ele>63.0</ele><time>2026-04-12T07:55:54Z</time></trkpt><trkpt lat="46.01733624411672" lon="12.793099479311637"><ele>63.0</ele><time>2026-04-12T07:55:55Z</time></trkpt><trkpt lat="46.01742020861072" lon="12.79309003453334"><ele>63.0</ele><time>2026-04-12T07:55:56Z</time></trkpt><trkpt lat="46.017535038857694" lon="12.793124292618717"><ele>63.0</ele><time>2026-04-12T07:55:58Z</time></trkpt><trkpt lat="46.01762724271559" lon="12.793216323263925"><ele>63.0</ele><time>2026-04-12T07:58:24Z</time></trkpt><trkpt lat="46.01771022256243" lon="12.793354254548493"><ele>63.0</ele><time>2026-04-12T07:58:26Z</time></trkpt><trkpt lat="46.01774591445803" lon="12.79346131996501"><ele>63.0</ele><time>2026-04-12T07:58:27Z</time></trkpt><trkpt lat="46.01777510267839" lon="12.79358173270847"><ele>63.0</ele><time>2026-04-12T07:58:28Z</time></trkpt><trkpt lat="46.017801786904556" lon="12.793732232469369"><ele>63.0</ele><time>2026-04-12T07:58:29Z</time></trkpt><trkpt lat="46.0178302421832" lon="12.793894288159649"><ele>63.0</ele><time>2026-04-12T07:58:30Z</time></trkpt><trkpt lat="46.017855884667554" lon="12.794003995017093"><ele>63.0</ele><time>2026-04-12T07:58:31Z</time></trkpt><trkpt lat="46.01789504775677" lon="12.794148696916567"><ele>63.0</ele><time>2026-04-12T07:58:33Z</time></trkpt><trkpt lat="46.01794379766975" lon="12.794251482645883"><ele>63.0</ele><time>2026-04-12T07:58:35Z</time></trkpt><trkpt lat="46.018023741650225" lon="12.794361129829522"><ele>63.0</ele><time>2026-04-12T07:58:37Z</time></trkpt><trkpt lat="46.01808924000864" lon="12.794680062846172"><ele>63.0</ele><time>2026-04-12T07:58:39Z</time></trkpt><trkpt lat="46.01819382974614" lon="12.794725794355244"><ele>63.0</ele><time>2026-04-12T07:58:40Z</time></trkpt><trkpt lat="46.018311188983205" lon="12.794777109232777"><ele>63.0</ele><time>2026-04-12T07:58:41Z</time></trkpt><trkpt lat="46.018427573324686" lon="12.794829372062953"><ele>63.0</ele><time>2026-04-12T07:58:42Z</time></trkpt><trkpt lat="46.01855403496346" lon="12.794887556410021"><ele>63.25</ele><time>2026-04-12T07:58:43Z</time></trkpt><trkpt lat="46.018671698504775" lon="12.794942770000015"><ele>63.5</ele><time>2026-04-12T07:58:44Z</time></trkpt><trkpt lat="46.018787993603766" lon="12.794998601876205"><ele>63.75</ele><time>2026-04-12T07:58:45Z</time></trkpt><trkpt lat="46.018913280002884" lon="12.795058749884989"><ele>64.0</ele><time>2026-04-12T07:58:46Z</time></trkpt><trkpt lat="46.01904195900482" lon="12.79512142549087"><ele>64.0</ele><time>2026-04-12T07:58:47Z</time></trkpt><trkpt lat="46.019170620594274" lon="12.795185387152978"><ele>64.0</ele><time>2026-04-12T07:58:48Z</time></trkpt><trkpt lat="46.01930592874295" lon="12.795252652890376"><ele>64.0</ele><time>2026-04-12T07:58:49Z</time></trkpt><trkpt lat="46.019441641965706" lon="12.795320296372607"><ele>64.0</ele><time>2026-04-12T07:58:50Z</time></trkpt><trkpt lat="46.01958075595986" lon="12.795390169140056"><ele>64.0</ele><time>2026-04-12T07:58:51Z</time></trkpt><trkpt lat="46.01971626208121" lon="12.795458229772729"><ele>64.0</ele><time>2026-04-12T07:58:52Z</time></trkpt><trkpt lat="46.0198478185684" lon="12.795524312333518"><ele>64.0</ele><time>2026-04-12T07:58:53Z</time></trkpt><trkpt lat="46.0199797014262" lon="12.795587070298717"><ele>64.0</ele><time>2026-04-12T07:58:54Z</time></trkpt><trkpt lat="46.02011736720519" lon="12.795652580237476"><ele>64.25</ele><time>2026-04-12T07:58:55.001Z</time></trkpt><trkpt lat="46.020253299542574" lon="12.795715246485914"><ele>64.5</ele><time>2026-04-12T07:58:56.001Z</time></trkpt><trkpt lat="46.02037820799781" lon="12.795769161676668"><ele>64.75</ele><time>2026-04-12T07:58:57.001Z</time></trkpt><trkpt lat="46.02047862782723" lon="12.795811138543364"><ele>65.0</ele><time>2026-04-12T07:58:58.001Z</time></trkpt><trkpt lat="46.020575867314044" lon="12.795849125586424"><ele>65.0</ele><time>2026-04-12T07:58:59.001Z</time></trkpt><trkpt lat="46.02066341246401" lon="12.795882536115387"><ele>65.0</ele><time>2026-04-12T07:59:00.001Z</time></trkpt><trkpt lat="46.02073959915016" lon="12.79591161165506"><ele>65.0</ele><time>2026-04-12T07:59:01Z</time></trkpt><trkpt lat="46.02083266856819" lon="12.795947130451054"><ele>65.0</ele><time>2026-04-12T07:59:03Z</time></trkpt><trkpt lat="46.020929089547515" lon="12.795729372069724"><ele>65.0</ele><time>2026-04-12T07:59:05Z</time></trkpt><trkpt lat="46.02090470519363" lon="12.795872144143532"><ele>65.0</ele><time>2026-04-12T07:59:06Z</time></trkpt><trkpt lat="46.020865057734774" lon="12.79602894482658"><ele>65.0</ele><time>2026-04-12T07:59:07Z</time></trkpt><trkpt lat="46.020830093387225" lon="12.796167402460924"><ele>65.0</ele><time>2026-04-12T07:59:08Z</time></trkpt><trkpt lat="46.02079681936684" lon="12.796276799238548"><ele>65.0</ele><time>2026-04-12T07:59:09Z</time></trkpt><trkpt lat="46.020778140752746" lon="12.7964074980703"><ele>65.0</ele><time>2026-04-12T07:59:11Z</time></trkpt><trkpt lat="46.020831879351654" lon="12.796477576596317"><ele>65.2</ele><time>2026-04-12T07:59:13Z</time></trkpt><trkpt lat="46.02089724681258" lon="12.796511874354794"><ele>65.4</ele><time>2026-04-12T07:59:14Z</time></trkpt><trkpt lat="46.020983372052164" lon="12.796533315717017"><ele>65.6</ele><time>2026-04-12T07:59:15Z</time></trkpt><trkpt lat="46.021081670433595" lon="12.796546154531088"><ele>65.8</ele><time>2026-04-12T07:59:16Z</time></trkpt><trkpt lat="46.02117899895862" lon="12.796531906791245"><ele>66.0</ele><time>2026-04-12T07:59:17Z</time></trkpt><trkpt lat="46.02128863007633" lon="12.796473117233258"><ele>66.0</ele><time>2026-04-12T07:59:18Z</time></trkpt><trkpt lat="46.02138860058067" lon="12.796416949435123"><ele>66.0</ele><time>2026-04-12T07:59:19Z</time></trkpt><trkpt lat="46.021482061808285" lon="12.796411572966385"><ele>66.0</ele><time>2026-04-12T07:59:20Z</time></trkpt><trkpt lat="46.021596490339554" lon="12.796443777061265"><ele>66.0</ele><time>2026-04-12T07:59:21Z</time></trkpt><trkpt lat="46.0217275054356" lon="12.79639989594248"><ele>66.5</ele><time>2026-04-12T07:59:22Z</time></trkpt><trkpt lat="46.02185529804457" lon="12.796438622655762"><ele>67.0</ele><time>2026-04-12T07:59:23Z</time></trkpt><trkpt lat="46.02199138275445" lon="12.796477300431322"><ele>67.5</ele><time>2026-04-12T07:59:24Z</time></trkpt><trkpt lat="46.0221158841515" lon="12.796512540063889"><ele>68.0</ele><time>2026-04-12T07:59:25Z</time></trkpt><trkpt lat="46.022248793804835" lon="12.796548823561915"><ele>68.0</ele><time>2026-04-12T07:59:26Z</time></trkpt><trkpt lat="46.022401264135794" lon="12.796589441981249"><ele>68.0</ele><time>2026-04-12T07:59:27Z</time></trkpt><trkpt lat="46.02254618581047" lon="12.796624773172459"><ele>68.0</ele><time>2026-04-12T07:59:28Z</time></trkpt><trkpt lat="46.022685514890306" lon="12.796658217738175"><ele>68.0</ele><time>2026-04-12T07:59:29Z</time></trkpt><trkpt lat="46.022835046936876" lon="12.796691246267256"><ele>67.75</ele><time>2026-04-12T07:59:30Z</time></trkpt><trkpt lat="46.02298686540941" lon="12.796723561141782"><ele>67.5</ele><time>2026-04-12T07:59:31Z</time></trkpt><trkpt lat="46.023133784809886" lon="12.79675188926452"><ele>67.25</ele><time>2026-04-12T07:59:32Z</time></trkpt><trkpt lat="46.02327029400089" lon="12.796777488953701"><ele>67.0</ele><time>2026-04-12T07:59:33Z</time></trkpt><trkpt lat="46.02341680114549" lon="12.796802989435493"><ele>67.0</ele><time>2026-04-12T07:59:34Z</time></trkpt><trkpt lat="46.0235776533241" lon="12.796828809004072"><ele>67.0</ele><time>2026-04-12T07:59:35Z</time></trkpt><trkpt lat="46.02372445723893" lon="12.796850169341864"><ele>67.0</ele><time>2026-04-12T07:59:36Z</time></trkpt><trkpt lat="46.0238615779171" lon="12.796870120706876"><ele>67.0</ele><time>2026-04-12T07:59:37Z</time></trkpt><trkpt lat="46.02397267915217" lon="12.796886286227291"><ele>67.25</ele><time>2026-04-12T07:59:38Z</time></trkpt><trkpt lat="46.02407099417723" lon="12.796900591252847"><ele>67.5</ele><time>2026-04-12T07:59:39Z</time></trkpt><trkpt lat="46.02417773353416" lon="12.796916122108037"><ele>67.75</ele><time>2026-04-12T07:59:40Z</time></trkpt><trkpt lat="46.0243086631994" lon="12.79693517266331"><ele>68.0</ele><time>2026-04-12T07:59:41Z</time></trkpt><trkpt lat="46.02442454761484" lon="12.7969520341204"><ele>68.25</ele><time>2026-04-12T07:59:42Z</time></trkpt><trkpt lat="46.02453883447248" lon="12.796969178585874"><ele>68.5</ele><time>2026-04-12T07:59:43Z</time></trkpt><trkpt lat="46.02466094587437" lon="12.796987862"><ele>68.75</ele><time>2026-04-12T07:59:44Z</time></trkpt><trkpt lat="46.024790663232565" lon="12.797009763993051"><ele>69.0</ele><time>2026-04-12T07:59:45Z</time></trkpt><trkpt lat="46.024932321830356" lon="12.797035327530374"><ele>68.33333333333333</ele><time>2026-04-12T07:59:46Z</time></trkpt><trkpt lat="46.02508231729455" lon="12.797063291711945"><ele>67.66666666666666</ele><time>2026-04-12T07:59:47Z</time></trkpt><trkpt lat="46.025236395273325" lon="12.797095053743929"><ele>67.0</ele><time>2026-04-12T07:59:48Z</time></trkpt><trkpt lat="46.025382991773796" lon="12.797126402238778"><ele>67.0</ele><time>2026-04-12T07:59:49Z</time></trkpt><trkpt lat="46.025522939586004" lon="12.797157685065294"><ele>67.0</ele><time>2026-04-12T07:59:50Z</time></trkpt><trkpt lat="46.02566037565766" lon="12.797189462735025"><ele>67.0</ele><time>2026-04-12T07:59:51Z</time></trkpt><trkpt lat="46.02578664080111" lon="12.797219860817101"><ele>67.0</ele><time>2026-04-12T07:59:52Z</time></trkpt><trkpt lat="46.02590415375771" lon="12.797248151740233"><ele>67.75</ele><time>2026-04-12T07:59:53Z</time></trkpt><trkpt lat="46.02602794489525" lon="12.7972797178204"><ele>68.5</ele><time>2026-04-12T07:59:54Z</time></trkpt><trkpt lat="46.026177050831606" lon="12.797317854957837"><ele>69.25</ele><time>2026-04-12T07:59:55Z</time></trkpt><trkpt lat="46.02634131910697" lon="12.797362988574825"><ele>70.0</ele><time>2026-04-12T07:59:56Z</time></trkpt><trkpt lat="46.026510018180275" lon="12.797411350678615"><ele>70.66666666666666</ele><time>2026-04-12T07:59:57Z</time></trkpt><trkpt lat="46.02665975713899" lon="12.797456366633178"><ele>71.33333333333333</ele><time>2026-04-12T07:59:58Z</time></trkpt><trkpt lat="46.02681162123504" lon="12.797503492878125"><ele>72.0</ele><time>2026-04-12T07:59:59Z</time></trkpt><trkpt lat="46.02698076598527" lon="12.797557733917621"><ele>72.0</ele><time>2026-04-12T08:00:00Z</time></trkpt><trkpt lat="46.027154727599" lon="12.797631620922731"><ele>72.0</ele><time>2026-04-12T08:00:01Z</time></trkpt><trkpt lat="46.02732581464226" lon="12.797685410973148"><ele>72.0</ele><time>2026-04-12T08:00:02Z</time></trkpt><trkpt lat="46.02748368292012" lon="12.797741627244143"><ele>72.25</ele><time>2026-04-12T08:00:03Z</time></trkpt><trkpt lat="46.02763729020947" lon="12.797767479378278"><ele>72.5</ele><time>2026-04-12T08:00:04Z</time></trkpt><trkpt lat="46.027776926203515" lon="12.79781164247795"><ele>72.75</ele><time>2026-04-12T08:00:05Z</time></trkpt><trkpt lat="46.027906018361705" lon="12.797852470924896"><ele>73.0</ele><time>2026-04-12T08:00:06Z</time></trkpt><trkpt lat="46.02803724901337" lon="12.79789397569981"><ele>73.0</ele><time>2026-04-12T08:00:07Z</time></trkpt><trkpt lat="46.02818985503934" lon="12.79794224098514"><ele>73.0</ele><time>2026-04-12T08:00:08Z</time></trkpt><trkpt lat="46.028359878008814" lon="12.797996014788586"><ele>73.0</ele><time>2026-04-12T08:00:09Z</time></trkpt><trkpt lat="46.02854764869157" lon="12.798055401675773"><ele>73.0</ele><time>2026-04-12T08:00:10Z</time></trkpt><trkpt lat="46.02872430965491" lon="12.798111274908035"><ele>73.0</ele><time>2026-04-12T08:00:11Z</time></trkpt><trkpt lat="46.02889952462911" lon="12.798166690791888"><ele>73.0</ele><time>2026-04-12T08:00:12Z</time></trkpt><trkpt lat="46.029081418215796" lon="12.798224218935873"><ele>73.0</ele><time>2026-04-12T08:00:13Z</time></trkpt><trkpt lat="46.02928058138389" lon="12.798287208970827"><ele>73.0</ele><time>2026-04-12T08:00:14Z</time></trkpt><trkpt lat="46.029454941328886" lon="12.798342385546261"><ele>73.0</ele><time>2026-04-12T08:00:15Z</time></trkpt><trkpt lat="46.02961530952314" lon="12.798393782986356"><ele>73.0</ele><time>2026-04-12T08:00:16Z</time></trkpt><trkpt lat="46.02975771680696" lon="12.798439424010423"><ele>73.0</ele><time>2026-04-12T08:00:17Z</time></trkpt><trkpt lat="46.02988765268725" lon="12.798481067971663"><ele>73.0</ele><time>2026-04-12T08:00:18Z</time></trkpt><trkpt lat="46.03002519525471" lon="12.79852514958131"><ele>73.0</ele><time>2026-04-12T08:00:19Z</time></trkpt><trkpt lat="46.030150981274225" lon="12.798565463733597"><ele>73.2</ele><time>2026-04-12T08:00:20Z</time></trkpt><trkpt lat="46.03025953335412" lon="12.79860025417819"><ele>73.4</ele><time>2026-04-12T08:00:21Z</time></trkpt><trkpt lat="46.030353844062496" lon="12.798630480486608"><ele>73.60000000000001</ele><time>2026-04-12T08:00:22Z</time></trkpt><trkpt lat="46.030427738412314" lon="12.798654163345466"><ele>73.8</ele><time>2026-04-12T08:00:23Z</time></trkpt><trkpt lat="46.030489753126474" lon="12.798674038799975"><ele>74.0</ele><time>2026-04-12T08:00:25Z</time></trkpt><trkpt lat="46.03045333717248" lon="12.798914059383362"><ele>74.0</ele><time>2026-04-12T08:00:26Z</time></trkpt><trkpt lat="46.03040944860802" lon="12.799070635705498"><ele>74.0</ele><time>2026-04-12T08:00:27Z</time></trkpt><trkpt lat="46.030353872068645" lon="12.799284621690374"><ele>74.0</ele><time>2026-04-12T08:00:28Z</time></trkpt><trkpt lat="46.03030592045644" lon="12.799501781740132"><ele>74.0</ele><time>2026-04-12T08:00:29Z</time></trkpt><trkpt lat="46.030270832981564" lon="12.79968594182049"><ele>74.4</ele><time>2026-04-12T08:00:30Z</time></trkpt><trkpt lat="46.03024982959847" lon="12.799819604730203"><ele>74.80000000000001</ele><time>2026-04-12T08:00:31Z</time></trkpt><trkpt lat="46.0302448042284" lon="12.799913904586631"><ele>75.19999999999999</ele><time>2026-04-12T08:00:32Z</time></trkpt><trkpt lat="46.030286192774" lon="12.800027285792904"><ele>75.6</ele><time>2026-04-12T08:00:34Z</time></trkpt><trkpt lat="46.03046723608774" lon="12.80009076271302"><ele>76.0</ele><time>2026-04-12T08:00:36Z</time></trkpt><trkpt lat="46.030573911556495" lon="12.80015149241673"><ele>76.0</ele><time>2026-04-12T08:00:37Z</time></trkpt><trkpt lat="46.03063911070948" lon="12.800235787569486"><ele>76.0</ele><time>2026-04-12T08:00:38Z</time></trkpt><trkpt lat="46.03067807488286" lon="12.800346369455447"><ele>76.0</ele><time>2026-04-12T08:00:39Z</time></trkpt><trkpt lat="46.03071545326179" lon="12.800502407087915"><ele>76.0</ele><time>2026-04-12T08:00:40Z</time></trkpt><trkpt lat="46.03076912240408" lon="12.800693483541794"><ele>76.0</ele><time>2026-04-12T08:00:41Z</time></trkpt><trkpt lat="46.030845439791364" lon="12.800888946000057"><ele>76.0</ele><time>2026-04-12T08:00:42Z</time></trkpt><trkpt lat="46.03094332783827" lon="12.801091023179723"><ele>76.0</ele><time>2026-04-12T08:00:43Z</time></trkpt><trkpt lat="46.031062929733785" lon="12.801299037891434"><ele>76.0</ele><time>2026-04-12T08:00:44Z</time></trkpt><trkpt lat="46.03118561751576" lon="12.801492611347081"><ele>76.0</ele><time>2026-04-12T08:00:45Z</time></trkpt><trkpt lat="46.03130226229402" lon="12.801672566808353"><ele>76.0</ele><time>2026-04-12T08:00:46Z</time></trkpt><trkpt lat="46.03141648591426" lon="12.801838350305008"><ele>76.0</ele><time>2026-04-12T08:00:47.001Z</time></trkpt><trkpt lat="46.031551432485564" lon="12.802020416567377"><ele>75.66666666666666</ele><time>2026-04-12T08:00:48.001Z</time></trkpt><trkpt lat="46.03168327957838" lon="12.802190600277685"><ele>75.33333333333333</ele><time>2026-04-12T08:00:49.001Z</time></trkpt><trkpt lat="46.03182387787801" lon="12.802379892825781"><ele>75.0</ele><time>2026-04-12T08:00:50.001Z</time></trkpt><trkpt lat="46.031960825073064" lon="12.802563852394625"><ele>75.33333333333333</ele><time>2026-04-12T08:00:51.001Z</time></trkpt><trkpt lat="46.03208381299446" lon="12.802723689135616"><ele>75.66666666666666</ele><time>2026-04-12T08:00:52.001Z</time></trkpt><trkpt lat="46.03221035089679" lon="12.802878835858301"><ele>76.0</ele><time>2026-04-12T08:00:53.001Z</time></trkpt><trkpt lat="46.032339663690365" lon="12.803024193198933"><ele>76.0</ele><time>2026-04-12T08:00:54.001Z</time></trkpt><trkpt lat="46.03245578904543" lon="12.803150603480807"><ele>76.0</ele><time>2026-04-12T08:00:55.001Z</time></trkpt><trkpt lat="46.03255869446911" lon="12.803261459816927"><ele>76.0</ele><time>2026-04-12T08:00:56.001Z</time></trkpt><trkpt lat="46.03265690917787" lon="12.803358313976723"><ele>76.0</ele><time>2026-04-12T08:00:57.001Z</time></trkpt><trkpt lat="46.03272049040836" lon="12.803495955134013"><ele>76.75</ele><time>2026-04-12T08:00:58.001Z</time></trkpt><trkpt lat="46.03280757847704" lon="12.803595991654488"><ele>77.5</ele><time>2026-04-12T08:00:59.001Z</time></trkpt><trkpt lat="46.03288976900057" lon="12.803748650790594"><ele>78.25</ele><time>2026-04-12T08:01:00.001Z</time></trkpt><trkpt lat="46.03299965058111" lon="12.803936728189655"><ele>79.0</ele><time>2026-04-12T08:01:01.001Z</time></trkpt><trkpt lat="46.03314046759234" lon="12.80413696763772"><ele>79.0</ele><time>2026-04-12T08:01:02.001Z</time></trkpt><trkpt lat="46.033268933238524" lon="12.804370888745057"><ele>79.0</ele><time>2026-04-12T08:01:03.001Z</time></trkpt><trkpt lat="46.03340455625188" lon="12.804591943638538"><ele>79.0</ele><time>2026-04-12T08:01:04.001Z</time></trkpt><trkpt lat="46.033520894718734" lon="12.804786885029763"><ele>79.0</ele><time>2026-04-12T08:01:05.001Z</time></trkpt><trkpt lat="46.03362049442341" lon="12.804959836413593"><ele>79.0</ele><time>2026-04-12T08:01:06.001Z</time></trkpt><trkpt lat="46.033714212885954" lon="12.805120602968303"><ele>79.0</ele><time>2026-04-12T08:01:06.999Z</time></trkpt><trkpt lat="46.03380324965484" lon="12.805271924813784"><ele>79.0</ele><time>2026-04-12T08:01:07.999Z</time></trkpt><trkpt lat="46.0338816569538" lon="12.805412897695103"><ele>79.0</ele><time>2026-04-12T08:01:08.999Z</time></trkpt><trkpt lat="46.033951040489335" lon="12.805543469831388"><ele>79.0</ele><time>2026-04-12T08:01:09.999Z</time></trkpt><trkpt lat="46.034005903906674" lon="12.805661658295561"><ele>79.0</ele><time>2026-04-12T08:01:10.999Z</time></trkpt><trkpt lat="46.03404559842794" lon="12.805779799283135"><ele>79.0</ele><time>2026-04-12T08:01:11.999Z</time></trkpt><trkpt lat="46.034072193344805" lon="12.805897670089152"><ele>79.0</ele><time>2026-04-12T08:01:13Z</time></trkpt><trkpt lat="46.03408615671668" lon="12.80600082503431"><ele>78.83333333333333</ele><time>2026-04-12T08:01:14Z</time></trkpt><trkpt lat="46.034099558360076" lon="12.806106478056014"><ele>78.66666666666666</ele><time>2026-04-12T08:01:15Z</time></trkpt><trkpt lat="46.034112335439836" lon="12.80620489909311"><ele>78.5</ele><time>2026-04-12T08:01:16Z</time></trkpt><trkpt lat="46.03411637211596" lon="12.806298195746267"><ele>78.33333333333333</ele><time>2026-04-12T08:01:17Z</time></trkpt><trkpt lat="46.034120472461204" lon="12.806416663502972"><ele>78.16666666666667</ele><time>2026-04-12T08:01:19Z</time></trkpt><trkpt lat="46.03414677286909" lon="12.806537394670515"><ele>78.0</ele><time>2026-04-12T08:02:03Z</time></trkpt><trkpt lat="46.03417607215303" lon="12.80669351290426"><ele>78.0</ele><time>2026-04-12T08:02:04Z</time></trkpt><trkpt lat="46.03420900521098" lon="12.80686085447464"><ele>78.0</ele><time>2026-04-12T08:02:05Z</time></trkpt><trkpt lat="46.034242212601576" lon="12.807034997758214"><ele>78.0</ele><time>2026-04-12T08:02:06Z</time></trkpt><trkpt lat="46.03427806384892" lon="12.807215844563443"><ele>78.0</ele><time>2026-04-12T08:02:07Z</time></trkpt><trkpt lat="46.03431509714887" lon="12.807402557908228"><ele>78.0</ele><time>2026-04-12T08:02:08Z</time></trkpt><trkpt lat="46.03435416535187" lon="12.80759651614858"><ele>78.0</ele><time>2026-04-12T08:02:09Z</time></trkpt><trkpt lat="46.03439432754287" lon="12.807796826314892"><ele>78.0</ele><time>2026-04-12T08:02:10Z</time></trkpt><trkpt lat="46.03443053259519" lon="12.807983726198207"><ele>78.0</ele><time>2026-04-12T08:02:11Z</time></trkpt><trkpt lat="46.03446259603601" lon="12.808145062367212"><ele>78.16666666666667</ele><time>2026-04-12T08:02:12Z</time></trkpt><trkpt lat="46.03449032147483" lon="12.808275363900211"><ele>78.33333333333333</ele><time>2026-04-12T08:02:13Z</time></trkpt><trkpt lat="46.03449458385355" lon="12.808388332089647"><ele>78.5</ele><time>2026-04-12T08:02:14Z</time></trkpt><trkpt lat="46.0345176966902" lon="12.808519567534955"><ele>78.66666666666666</ele><time>2026-04-12T08:02:16Z</time></trkpt><trkpt lat="46.03458663689547" lon="12.808515349195023"><ele>78.83333333333333</ele><time>2026-04-12T08:02:17Z</time></trkpt><trkpt lat="46.03466089332895" lon="12.808485106547547"><ele>79.0</ele><time>2026-04-12T08:02:19Z</time></trkpt><trkpt lat="46.034731746894195" lon="12.808429513067965"><ele>79.0</ele><time>2026-04-12T08:02:20Z</time></trkpt><trkpt lat="46.03482777542839" lon="12.808361710859181"><ele>79.0</ele><time>2026-04-12T08:02:21Z</time></trkpt><trkpt lat="46.034938723603496" lon="12.808293060916965"><ele>79.0</ele><time>2026-04-12T08:02:22Z</time></trkpt><trkpt lat="46.035054374176525" lon="12.808226463531335"><ele>79.0</ele><time>2026-04-12T08:02:23Z</time></trkpt><trkpt lat="46.03515966551877" lon="12.808170506485475"><ele>79.25</ele><time>2026-04-12T08:02:24Z</time></trkpt><trkpt lat="46.035252625039476" lon="12.808124847999848"><ele>79.5</ele><time>2026-04-12T08:02:25Z</time></trkpt><trkpt lat="46.03535752095122" lon="12.808094773261505"><ele>79.75</ele><time>2026-04-12T08:02:26Z</time></trkpt><trkpt lat="46.03547930424452" lon="12.808035852832552"><ele>80.0</ele><time>2026-04-12T08:02:27Z</time></trkpt><trkpt lat="46.03561501230082" lon="12.80797019552847"><ele>80.0</ele><time>2026-04-12T08:02:28Z</time></trkpt><trkpt lat="46.035746747873496" lon="12.807852347746746"><ele>80.0</ele><time>2026-04-12T08:02:29Z</time></trkpt><trkpt lat="46.035903926906705" lon="12.80775859198734"><ele>80.0</ele><time>2026-04-12T08:02:30Z</time></trkpt><trkpt lat="46.03607631125498" lon="12.807655193136311"><ele>80.0</ele><time>2026-04-12T08:02:31Z</time></trkpt><trkpt lat="46.036260754335935" lon="12.807551325408525"><ele>80.0</ele><time>2026-04-12T08:02:32Z</time></trkpt><trkpt lat="46.03642167109115" lon="12.807457845348496"><ele>80.0</ele><time>2026-04-12T08:02:33Z</time></trkpt><trkpt lat="46.03656782570653" lon="12.807373760589456"><ele>80.5</ele><time>2026-04-12T08:02:34Z</time></trkpt><trkpt lat="46.036720045393665" lon="12.807285604906326"><ele>81.0</ele><time>2026-04-12T08:02:35Z</time></trkpt><trkpt lat="46.03685934940146" lon="12.807204826411906"><ele>81.5</ele><time>2026-04-12T08:02:36Z</time></trkpt><trkpt lat="46.036976343263284" lon="12.807135252423985"><ele>82.0</ele><time>2026-04-12T08:02:37Z</time></trkpt><trkpt lat="46.037075976975316" lon="12.807078734058859"><ele>82.0</ele><time>2026-04-12T08:02:38Z</time></trkpt><trkpt lat="46.03716429731782" lon="12.807026757976324"><ele>82.0</ele><time>2026-04-12T08:02:39Z</time></trkpt><trkpt lat="46.037237769521475" lon="12.806984232482925"><ele>82.0</ele><time>2026-04-12T08:02:40Z</time></trkpt><trkpt lat="46.03731959887376" lon="12.806935110152263"><ele>82.0</ele><time>2026-04-12T08:02:41Z</time></trkpt><trkpt lat="46.037424670024826" lon="12.806874705417995"><ele>82.0</ele><time>2026-04-12T08:02:42Z</time></trkpt><trkpt lat="46.03753867486122" lon="12.806812085794698"><ele>81.75</ele><time>2026-04-12T08:02:43Z</time></trkpt><trkpt lat="46.03765965469654" lon="12.806741598804356"><ele>81.5</ele><time>2026-04-12T08:02:44Z</time></trkpt><trkpt lat="46.03780235129042" lon="12.806660664885987"><ele>81.25</ele><time>2026-04-12T08:02:45Z</time></trkpt><trkpt lat="46.037953638839845" lon="12.806571809324948"><ele>81.0</ele><time>2026-04-12T08:02:46Z</time></trkpt><trkpt lat="46.038106438870514" lon="12.806482405345955"><ele>81.0</ele><time>2026-04-12T08:02:47Z</time></trkpt><trkpt lat="46.038247065705654" lon="12.806398945730793"><ele>81.0</ele><time>2026-04-12T08:02:48Z</time></trkpt><trkpt lat="46.03836823460954" lon="12.806327987360335"><ele>81.0</ele><time>2026-04-12T08:02:49Z</time></trkpt><trkpt lat="46.03846998849985" lon="12.806271691580084"><ele>81.0</ele><time>2026-04-12T08:02:50Z</time></trkpt><trkpt lat="46.03855037503246" lon="12.80622731422095"><ele>81.5</ele><time>2026-04-12T08:02:51Z</time></trkpt><trkpt lat="46.038608166958994" lon="12.806188722299872"><ele>82.0</ele><time>2026-04-12T08:02:52Z</time></trkpt><trkpt lat="46.038673078286585" lon="12.806133426484575"><ele>82.5</ele><time>2026-04-12T08:02:54Z</time></trkpt><trkpt lat="46.03872135375247" lon="12.80606783506944"><ele>83.0</ele><time>2026-04-12T08:02:57Z</time></trkpt><trkpt lat="46.03871785660217" lon="12.805896720413893"><ele>83.5</ele><time>2026-04-12T08:02:59Z</time></trkpt><trkpt lat="46.03869404408143" lon="12.805755958883958"><ele>84.0</ele><time>2026-04-12T08:03:00Z</time></trkpt><trkpt lat="46.038662009270226" lon="12.80561037223181"><ele>84.0</ele><time>2026-04-12T08:03:01Z</time></trkpt><trkpt lat="46.03862946421471" lon="12.805435675089058"><ele>84.0</ele><time>2026-04-12T08:03:02Z</time></trkpt><trkpt lat="46.038608954701495" lon="12.80524754651021"><ele>84.0</ele><time>2026-04-12T08:03:03Z</time></trkpt><trkpt lat="46.03858785672361" lon="12.805047871164659"><ele>84.0</ele><time>2026-04-12T08:03:04.001Z</time></trkpt><trkpt lat="46.03857463003299" lon="12.804848765454631"><ele>83.66666666666667</ele><time>2026-04-12T08:03:05.001Z</time></trkpt><trkpt lat="46.03856202550571" lon="12.804639563830472"><ele>83.33333333333334</ele><time>2026-04-12T08:03:06.001Z</time></trkpt><trkpt lat="46.038553603862475" lon="12.804408909753906"><ele>83.0</ele><time>2026-04-12T08:03:07.001Z</time></trkpt><trkpt lat="46.038546076487265" lon="12.80417266194725"><ele>82.75</ele><time>2026-04-12T08:03:08.001Z</time></trkpt><trkpt lat="46.03855000841912" lon="12.803944779811202"><ele>82.5</ele><time>2026-04-12T08:03:09.001Z</time></trkpt><trkpt lat="46.03856032606703" lon="12.803742378671613"><ele>82.25</ele><time>2026-04-12T08:03:10.001Z</time></trkpt><trkpt lat="46.03856780535636" lon="12.803558185901638"><ele>82.0</ele><time>2026-04-12T08:03:11.001Z</time></trkpt><trkpt lat="46.03857904985027" lon="12.803382486175185"><ele>82.5</ele><time>2026-04-12T08:03:12.001Z</time></trkpt><trkpt lat="46.038583612585064" lon="12.803201521779467"><ele>83.0</ele><time>2026-04-12T08:03:13Z</time></trkpt><trkpt lat="46.03859932800386" lon="12.803036497309028"><ele>83.5</ele><time>2026-04-12T08:03:14Z</time></trkpt><trkpt lat="46.03862375082204" lon="12.802874765734305"><ele>84.0</ele><time>2026-04-12T08:03:15Z</time></trkpt><trkpt lat="46.03864484101525" lon="12.802727186149507"><ele>83.83333333333333</ele><time>2026-04-12T08:03:16Z</time></trkpt><trkpt lat="46.03866860093239" lon="12.802596604655644"><ele>83.66666666666667</ele><time>2026-04-12T08:03:17Z</time></trkpt><trkpt lat="46.03869592694595" lon="12.802467971175563"><ele>83.5</ele><time>2026-04-12T08:03:18Z</time></trkpt><trkpt lat="46.038708161992886" lon="12.802347621962616"><ele>83.33333333333334</ele><time>2026-04-12T08:03:19Z</time></trkpt><trkpt lat="46.038689880679996" lon="12.802250570565313"><ele>83.16666666666667</ele><time>2026-04-12T08:03:20Z</time></trkpt><trkpt lat="46.038635838500134" lon="12.802173757234067"><ele>83.0</ele><time>2026-04-12T08:03:21Z</time></trkpt><trkpt lat="46.03855442703368" lon="12.802125600369978"><ele>83.0</ele><time>2026-04-12T08:03:22Z</time></trkpt><trkpt lat="46.03856936877769" lon="12.801854823288346"><ele>83.0</ele><time>2026-04-12T08:03:23Z</time></trkpt><trkpt lat="46.03857436978276" lon="12.80173624519277"><ele>83.0</ele><time>2026-04-12T08:03:27Z</time></trkpt><trkpt lat="46.03868575299122" lon="12.801798427079383"><ele>83.0</ele><time>2026-04-12T08:03:29Z</time></trkpt><trkpt lat="46.03874413706391" lon="12.80184694036834"><ele>83.0</ele><time>2026-04-12T08:03:30Z</time></trkpt><trkpt lat="46.03880797820699" lon="12.801901324529537"><ele>83.0</ele><time>2026-04-12T08:03:31Z</time></trkpt><trkpt lat="46.038876259363924" lon="12.801959488726201"><ele>83.0</ele><time>2026-04-12T08:03:32Z</time></trkpt><trkpt lat="46.03893231705951" lon="12.802007421765218"><ele>83.0</ele><time>2026-04-12T08:03:34Z</time></trkpt><trkpt lat="46.0389893994153" lon="12.80205657393985"><ele>83.0</ele><time>2026-04-12T08:03:37Z</time></trkpt><trkpt lat="46.039160620527156" lon="12.801967890462311"><ele>83.4</ele><time>2026-04-12T08:03:39Z</time></trkpt><trkpt lat="46.0392126497912" lon="12.802143286968315"><ele>83.80000000000001</ele><time>2026-04-12T08:03:41Z</time></trkpt><trkpt lat="46.03925534177158" lon="12.802232077353946"><ele>84.2</ele><time>2026-04-12T08:03:42Z</time></trkpt><trkpt lat="46.03930282493871" lon="12.802301218249756"><ele>84.6</ele><time>2026-04-12T08:03:43Z</time></trkpt><trkpt lat="46.03929005893953" lon="12.802528278869227"><ele>85.0</ele><time>2026-04-12T08:03:45Z</time></trkpt><trkpt lat="46.0392026975052" lon="12.802186340613316"><ele>85.0</ele><time>2026-04-12T08:03:54Z</time></trkpt><trkpt lat="46.039159313867415" lon="12.802097213711226"><ele>85.0</ele><time>2026-04-12T08:03:55Z</time></trkpt><trkpt lat="46.039126927943954" lon="12.801982197257788"><ele>85.0</ele><time>2026-04-12T08:03:56Z</time></trkpt><trkpt lat="46.03910829567378" lon="12.801865545496852"><ele>85.0</ele><time>2026-04-12T08:03:57Z</time></trkpt><trkpt lat="46.039099418545" lon="12.801773028003955"><ele>85.0</ele><time>2026-04-12T08:03:58Z</time></trkpt><trkpt lat="46.03908803681936" lon="12.801620972480885"><ele>85.0</ele><time>2026-04-12T08:04:00Z</time></trkpt><trkpt lat="46.03905793374625" lon="12.801516489982768"><ele>84.66666666666666</ele><time>2026-04-12T08:04:02Z</time></trkpt><trkpt lat="46.03903822870491" lon="12.801421018939152"><ele>84.33333333333333</ele><time>2026-04-12T08:04:04Z</time></trkpt><trkpt lat="46.03902161290722" lon="12.801318197654716"><ele>84.0</ele><time>2026-04-12T08:04:06Z</time></trkpt><trkpt lat="46.03899474272332" lon="12.801192927434855"><ele>83.66666666666667</ele><time>2026-04-12T08:04:08Z</time></trkpt><trkpt lat="46.038957636824364" lon="12.801097734376908"><ele>83.33333333333334</ele><time>2026-04-12T08:04:11Z</time></trkpt><trkpt lat="46.03900833638877" lon="12.80122422505566"><ele>83.0</ele><time>2026-04-12T08:04:42.001Z</time></trkpt><trkpt lat="46.03904185500023" lon="12.80137343943496"><ele>83.0</ele><time>2026-04-12T08:04:44.001Z</time></trkpt><trkpt lat="46.039052250771356" lon="12.801528390177394"><ele>83.0</ele><time>2026-04-12T08:04:46.001Z</time></trkpt><trkpt lat="46.039079474405" lon="12.80162518134881"><ele>83.0</ele><time>2026-04-12T08:04:48.001Z</time></trkpt><trkpt lat="46.03910480734118" lon="12.801721853534788"><ele>83.0</ele><time>2026-04-12T08:04:51.001Z</time></trkpt><trkpt lat="46.0391325327661" lon="12.801915314530323"><ele>83.0</ele><time>2026-04-12T08:04:53.001Z</time></trkpt><trkpt lat="46.03915555756621" lon="12.80201258280206"><ele>83.4</ele><time>2026-04-12T08:04:54.001Z</time></trkpt><trkpt lat="46.03919251068896" lon="12.802108222311468"><ele>83.80000000000001</ele><time>2026-04-12T08:04:55.001Z</time></trkpt><trkpt lat="46.03923891445141" lon="12.802189600283771"><ele>84.2</ele><time>2026-04-12T08:04:56.001Z</time></trkpt><trkpt lat="46.03930435552289" lon="12.802281728567355"><ele>84.6</ele><time>2026-04-12T08:04:57.001Z</time></trkpt><trkpt lat="46.03937407740404" lon="12.802365993660937"><ele>85.0</ele><time>2026-04-12T08:04:58.001Z</time></trkpt><trkpt lat="46.03940664846885" lon="12.802630964933785"><ele>85.0</ele><time>2026-04-12T08:04:59.001Z</time></trkpt><trkpt lat="46.03953470740967" lon="12.802743574702031"><ele>85.0</ele><time>2026-04-12T08:05:00.001Z</time></trkpt><trkpt lat="46.039652985244345" lon="12.802846504544652"><ele>85.0</ele><time>2026-04-12T08:05:01.001Z</time></trkpt><trkpt lat="46.039767851177174" lon="12.802946465600352"><ele>85.0</ele><time>2026-04-12T08:05:02.001Z</time></trkpt><trkpt lat="46.03988127754716" lon="12.803045172898258"><ele>85.0</ele><time>2026-04-12T08:05:03.001Z</time></trkpt><trkpt lat="46.03998855557298" lon="12.803138531039734"><ele>85.0</ele><time>2026-04-12T08:05:04.001Z</time></trkpt><trkpt lat="46.04009973762066" lon="12.803235286069837"><ele>85.0</ele><time>2026-04-12T08:05:05.001Z</time></trkpt><trkpt lat="46.04020612420004" lon="12.80332786812665"><ele>85.0</ele><time>2026-04-12T08:05:06.001Z</time></trkpt><trkpt lat="46.040318643374526" lon="12.80342578663709"><ele>84.75</ele><time>2026-04-12T08:05:07.001Z</time></trkpt><trkpt lat="46.040429783335284" lon="12.803522722146678"><ele>84.5</ele><time>2026-04-12T08:05:08.001Z</time></trkpt><trkpt lat="46.04053656859274" lon="12.80361631274657"><ele>84.25</ele><time>2026-04-12T08:05:09.001Z</time></trkpt><trkpt lat="46.0406547238279" lon="12.803719868559167"><ele>84.0</ele><time>2026-04-12T08:05:10.001Z</time></trkpt><trkpt lat="46.04077353478016" lon="12.803823998947458"><ele>83.75</ele><time>2026-04-12T08:05:11.001Z</time></trkpt><trkpt lat="46.04088455469773" lon="12.80392130099479"><ele>83.5</ele><time>2026-04-12T08:05:12.001Z</time></trkpt><trkpt lat="46.04098742736257" lon="12.804011462704212"><ele>83.25</ele><time>2026-04-12T08:05:13.001Z</time></trkpt><trkpt lat="46.04108124371359" lon="12.804093687019392"><ele>83.0</ele><time>2026-04-12T08:05:14.001Z</time></trkpt><trkpt lat="46.04119379509437" lon="12.804192020729191"><ele>83.0</ele><time>2026-04-12T08:05:15.001Z</time></trkpt><trkpt lat="46.04130860771876" lon="12.804292130574108"><ele>83.0</ele><time>2026-04-12T08:05:16.001Z</time></trkpt><trkpt lat="46.04142179765066" lon="12.804390825576096"><ele>83.0</ele><time>2026-04-12T08:05:17.001Z</time></trkpt><trkpt lat="46.04154642468101" lon="12.804499492903686"><ele>83.0</ele><time>2026-04-12T08:05:18.001Z</time></trkpt><trkpt lat="46.041687642408526" lon="12.804622626313451"><ele>83.5</ele><time>2026-04-12T08:05:19Z</time></trkpt><trkpt lat="46.04180592590806" lon="12.804725762595337"><ele>84.0</ele><time>2026-04-12T08:05:20Z</time></trkpt><trkpt lat="46.041918570069626" lon="12.804823981768706"><ele>84.5</ele><time>2026-04-12T08:05:21Z</time></trkpt><trkpt lat="46.042028141305686" lon="12.804919521392721"><ele>85.0</ele><time>2026-04-12T08:05:22Z</time></trkpt><trkpt lat="46.04213675750052" lon="12.805014228248233"><ele>85.0</ele><time>2026-04-12T08:05:23Z</time></trkpt><trkpt lat="46.042242856499044" lon="12.805106909115938"><ele>85.0</ele><time>2026-04-12T08:05:24Z</time></trkpt><trkpt lat="46.042341241776136" lon="12.805193044856555"><ele>85.0</ele><time>2026-04-12T08:05:25Z</time></trkpt><trkpt lat="46.04243721274695" lon="12.80527706683689"><ele>85.0</ele><time>2026-04-12T08:05:26Z</time></trkpt><trkpt lat="46.04251883294977" lon="12.805348524849114"><ele>85.0</ele><time>2026-04-12T08:05:27Z</time></trkpt><trkpt lat="46.042601989742145" lon="12.80542132804761"><ele>85.5</ele><time>2026-04-12T08:05:28Z</time></trkpt><trkpt lat="46.04270375429912" lon="12.805510422284813"><ele>86.0</ele><time>2026-04-12T08:05:29Z</time></trkpt><trkpt lat="46.042817450472135" lon="12.805609441273766"><ele>86.5</ele><time>2026-04-12T08:05:30Z</time></trkpt><trkpt lat="46.042929470718484" lon="12.80570686817339"><ele>87.0</ele><time>2026-04-12T08:05:31Z</time></trkpt><trkpt lat="46.04302856984975" lon="12.805793057373293"><ele>87.0</ele><time>2026-04-12T08:05:32Z</time></trkpt><trkpt lat="46.04311653077102" lon="12.805869559319106"><ele>87.0</ele><time>2026-04-12T08:05:33Z</time></trkpt><trkpt lat="46.04320211970562" lon="12.80594399952461"><ele>87.0</ele><time>2026-04-12T08:05:34Z</time></trkpt><trkpt lat="46.04328024521472" lon="12.806012343943564"><ele>87.0</ele><time>2026-04-12T08:05:35Z</time></trkpt><trkpt lat="46.04337122706999" lon="12.806092347615937"><ele>87.0</ele><time>2026-04-12T08:05:36Z</time></trkpt><trkpt lat="46.04348155039531" lon="12.806189358907172"><ele>87.0</ele><time>2026-04-12T08:05:37Z</time></trkpt><trkpt lat="46.04360026222197" lon="12.806293746546883"><ele>87.0</ele><time>2026-04-12T08:05:38Z</time></trkpt><trkpt lat="46.04372904334243" lon="12.806406988851958"><ele>87.0</ele><time>2026-04-12T08:05:39Z</time></trkpt><trkpt lat="46.0438598651389" lon="12.806521045569836"><ele>87.0</ele><time>2026-04-12T08:05:40Z</time></trkpt><trkpt lat="46.04397760496054" lon="12.806622138928793"><ele>87.0</ele><time>2026-04-12T08:05:41Z</time></trkpt><trkpt lat="46.0440889023621" lon="12.806717457646066"><ele>87.0</ele><time>2026-04-12T08:05:42Z</time></trkpt><trkpt lat="46.04419581576357" lon="12.806808658475966"><ele>87.0</ele><time>2026-04-12T08:05:43Z</time></trkpt><trkpt lat="46.044314454789934" lon="12.80690986156373"><ele>87.0</ele><time>2026-04-12T08:05:44Z</time></trkpt><trkpt lat="46.044438746774645" lon="12.80701588695639"><ele>87.25</ele><time>2026-04-12T08:05:45Z</time></trkpt><trkpt lat="46.044552362468345" lon="12.80711172939658"><ele>87.5</ele><time>2026-04-12T08:05:46Z</time></trkpt><trkpt lat="46.04465308554748" lon="12.807195899754738"><ele>87.75</ele><time>2026-04-12T08:05:47Z</time></trkpt><trkpt lat="46.044749661528336" lon="12.807276604592856"><ele>88.0</ele><time>2026-04-12T08:05:48Z</time></trkpt><trkpt lat="46.044873024854695" lon="12.807379460904647"><ele>88.5</ele><time>2026-04-12T08:05:49Z</time></trkpt><trkpt lat="46.04500806923301" lon="12.807489164631967"><ele>89.0</ele><time>2026-04-12T08:05:50Z</time></trkpt><trkpt lat="46.04512692665485" lon="12.807585718334272"><ele>89.5</ele><time>2026-04-12T08:05:51Z</time></trkpt><trkpt lat="46.0452424203086" lon="12.807677713614792"><ele>90.0</ele><time>2026-04-12T08:05:52Z</time></trkpt><trkpt lat="46.045341222780394" lon="12.807753870554796"><ele>90.25</ele><time>2026-04-12T08:05:53Z</time></trkpt><trkpt lat="46.0454426092089" lon="12.807832019442266"><ele>90.5</ele><time>2026-04-12T08:05:54Z</time></trkpt><trkpt lat="46.04556911518047" lon="12.807925449413927"><ele>90.75</ele><time>2026-04-12T08:05:55Z</time></trkpt><trkpt lat="46.04570403344487" lon="12.808023887940989"><ele>91.0</ele><time>2026-04-12T08:05:56Z</time></trkpt><trkpt lat="46.04582491264116" lon="12.808109186583266"><ele>91.0</ele><time>2026-04-12T08:05:57Z</time></trkpt><trkpt lat="46.045950554376866" lon="12.80819748404575"><ele>91.0</ele><time>2026-04-12T08:05:58Z</time></trkpt><trkpt lat="46.04606510064438" lon="12.808276925254749"><ele>91.0</ele><time>2026-04-12T08:05:59Z</time></trkpt><trkpt lat="46.04618187378921" lon="12.8083577336491"><ele>91.0</ele><time>2026-04-12T08:06:00Z</time></trkpt><trkpt lat="46.04630959212723" lon="12.808444637561246"><ele>91.0</ele><time>2026-04-12T08:06:01Z</time></trkpt><trkpt lat="46.04643673701055" lon="12.80853001665947"><ele>91.0</ele><time>2026-04-12T08:06:02Z</time></trkpt><trkpt lat="46.0465922418645" lon="12.808634439733625"><ele>91.0</ele><time>2026-04-12T08:06:03Z</time></trkpt><trkpt lat="46.04676508355232" lon="12.808749282415501"><ele>91.0</ele><time>2026-04-12T08:06:04Z</time></trkpt><trkpt lat="46.04694237835949" lon="12.808865904725225"><ele>91.0</ele><time>2026-04-12T08:06:05Z</time></trkpt><trkpt lat="46.047098658765556" lon="12.808968704091745"><ele>91.0</ele><time>2026-04-12T08:06:06Z</time></trkpt><trkpt lat="46.047247561766305" lon="12.80906661115285"><ele>91.0</ele><time>2026-04-12T08:06:07Z</time></trkpt><trkpt lat="46.04739922125231" lon="12.809165053108867"><ele>91.0</ele><time>2026-04-12T08:06:08Z</time></trkpt><trkpt lat="46.04756296319854" lon="12.809271337798574"><ele>91.0</ele><time>2026-04-12T08:06:09Z</time></trkpt><trkpt lat="46.04772330331401" lon="12.809375414272301"><ele>91.0</ele><time>2026-04-12T08:06:10Z</time></trkpt><trkpt lat="46.047881480378855" lon="12.809478086943166"><ele>91.0</ele><time>2026-04-12T08:06:11Z</time></trkpt><trkpt lat="46.048046590707415" lon="12.809584776353816"><ele>91.0</ele><time>2026-04-12T08:06:12Z</time></trkpt><trkpt lat="46.048207680526225" lon="12.809688836102069"><ele>90.5</ele><time>2026-04-12T08:06:13Z</time></trkpt><trkpt lat="46.048355041479354" lon="12.809784029321722"><ele>90.0</ele><time>2026-04-12T08:06:14Z</time></trkpt><trkpt lat="46.048486253447784" lon="12.809868788708902"><ele>89.5</ele><time>2026-04-12T08:06:15Z</time></trkpt><trkpt lat="46.04860868841407" lon="12.809948276982569"><ele>89.0</ele><time>2026-04-12T08:06:16Z</time></trkpt><trkpt lat="46.048718065223866" lon="12.81002046276403"><ele>89.0</ele><time>2026-04-12T08:06:17Z</time></trkpt><trkpt lat="46.04882225218907" lon="12.810091137437647"><ele>89.0</ele><time>2026-04-12T08:06:18Z</time></trkpt><trkpt lat="46.0489256141769" lon="12.8101597287782"><ele>89.0</ele><time>2026-04-12T08:06:19Z</time></trkpt><trkpt lat="46.049042067043224" lon="12.81023700737636"><ele>89.0</ele><time>2026-04-12T08:06:20Z</time></trkpt><trkpt lat="46.04915956504743" lon="12.810313906750517"><ele>90.0</ele><time>2026-04-12T08:06:21Z</time></trkpt><trkpt lat="46.04925784081234" lon="12.81037762911632"><ele>91.0</ele><time>2026-04-12T08:06:22Z</time></trkpt><trkpt lat="46.049361802485485" lon="12.810445038283298"><ele>92.0</ele><time>2026-04-12T08:06:23Z</time></trkpt><trkpt lat="46.04944748230246" lon="12.810500593449415"><ele>93.0</ele><time>2026-04-12T08:06:24Z</time></trkpt><trkpt lat="46.04955966399945" lon="12.810573126268473"><ele>94.0</ele><time>2026-04-12T08:06:25Z</time></trkpt><trkpt lat="46.04967979001152" lon="12.810650774213649"><ele>94.0</ele><time>2026-04-12T08:06:26Z</time></trkpt><trkpt lat="46.04981648386971" lon="12.8107414936792"><ele>94.0</ele><time>2026-04-12T08:06:27Z</time></trkpt><trkpt lat="46.04997113661005" lon="12.810843261075389"><ele>94.0</ele><time>2026-04-12T08:06:28Z</time></trkpt><trkpt lat="46.05014054633407" lon="12.810953823722548"><ele>94.0</ele><time>2026-04-12T08:06:29Z</time></trkpt><trkpt lat="46.05029781617796" lon="12.811055960450455"><ele>94.0</ele><time>2026-04-12T08:06:30Z</time></trkpt><trkpt lat="46.05044526608474" lon="12.811153816724977"><ele>94.0</ele><time>2026-04-12T08:06:31Z</time></trkpt><trkpt lat="46.050572106846154" lon="12.811239406368763"><ele>94.0</ele><time>2026-04-12T08:06:32Z</time></trkpt><trkpt lat="46.05067438870875" lon="12.811308424255861"><ele>94.0</ele><time>2026-04-12T08:06:33Z</time></trkpt><trkpt lat="46.050754801697025" lon="12.811362685272226"><ele>94.0</ele><time>2026-04-12T08:06:34Z</time></trkpt><trkpt lat="46.05083655936249" lon="12.811417853899703"><ele>94.0</ele><time>2026-04-12T08:06:35.001Z</time></trkpt><trkpt lat="46.05093278435596" lon="12.811482784652839"><ele>94.0</ele><time>2026-04-12T08:06:36.001Z</time></trkpt><trkpt lat="46.05105430315993" lon="12.811567029439104"><ele>94.66666666666666</ele><time>2026-04-12T08:06:37.001Z</time></trkpt><trkpt lat="46.05118355289492" lon="12.811660259043354"><ele>95.33333333333333</ele><time>2026-04-12T08:06:38.001Z</time></trkpt><trkpt lat="46.05132195593633" lon="12.811763296065672"><ele>96.0</ele><time>2026-04-12T08:06:39.001Z</time></trkpt><trkpt lat="46.051463915763236" lon="12.81187552185982"><ele>96.66666666666666</ele><time>2026-04-12T08:06:40.001Z</time></trkpt><trkpt lat="46.05160298825752" lon="12.811989582894947"><ele>97.33333333333333</ele><time>2026-04-12T08:06:41.001Z</time></trkpt><trkpt lat="46.05175360497113" lon="12.812124260606991"><ele>98.0</ele><time>2026-04-12T08:06:42.001Z</time></trkpt><trkpt lat="46.05191988412829" lon="12.812275101668437"><ele>96.66666666666666</ele><time>2026-04-12T08:06:43.001Z</time></trkpt><trkpt lat="46.05207849810014" lon="12.812412919079037"><ele>95.33333333333333</ele><time>2026-04-12T08:06:44.001Z</time></trkpt><trkpt lat="46.05221506593688" lon="12.812531581419286"><ele>94.0</ele><time>2026-04-12T08:06:45.001Z</time></trkpt><trkpt lat="46.05234346356357" lon="12.81264198851753"><ele>94.5</ele><time>2026-04-12T08:06:46.001Z</time></trkpt><trkpt lat="46.05246852632625" lon="12.812749903799878"><ele>95.0</ele><time>2026-04-12T08:06:47.001Z</time></trkpt><trkpt lat="46.05257989359842" lon="12.812839137627767"><ele>95.5</ele><time>2026-04-12T08:06:48.001Z</time></trkpt><trkpt lat="46.05268819076634" lon="12.812925170289926"><ele>96.0</ele><time>2026-04-12T08:06:49.001Z</time></trkpt><trkpt lat="46.052817644792455" lon="12.813022892709109"><ele>96.0</ele><time>2026-04-12T08:06:50.001Z</time></trkpt><trkpt lat="46.05294800405951" lon="12.813115758416663"><ele>96.0</ele><time>2026-04-12T08:06:51.001Z</time></trkpt><trkpt lat="46.053093594023146" lon="12.81321871210282"><ele>96.0</ele><time>2026-04-12T08:06:52.001Z</time></trkpt><trkpt lat="46.05326519731396" lon="12.813276187201348"><ele>97.0</ele><time>2026-04-12T08:06:53.001Z</time></trkpt><trkpt lat="46.053450746359665" lon="12.813319056769869"><ele>98.0</ele><time>2026-04-12T08:06:54.001Z</time></trkpt><trkpt lat="46.05363979461094" lon="12.813341692594655"><ele>99.0</ele><time>2026-04-12T08:06:55.001Z</time></trkpt><trkpt lat="46.053825595641115" lon="12.813342244007282"><ele>99.0</ele><time>2026-04-12T08:06:56.001Z</time></trkpt><trkpt lat="46.05421388593217" lon="12.812299671240066"><ele>99.0</ele><time>2026-04-12T08:06:57.001Z</time></trkpt><trkpt lat="46.054363063129074" lon="12.81227769846115"><ele>99.0</ele><time>2026-04-12T08:06:58.001Z</time></trkpt><trkpt lat="46.0545066238351" lon="12.812257835421299"><ele>99.0</ele><time>2026-04-12T08:06:59.001Z</time></trkpt><trkpt lat="46.05463455239505" lon="12.812238347447474"><ele>99.0</ele><time>2026-04-12T08:07:00.001Z</time></trkpt><trkpt lat="46.05474694337843" lon="12.81221591613729"><ele>99.0</ele><time>2026-04-12T08:07:01.001Z</time></trkpt><trkpt lat="46.054840021706276" lon="12.812194759284289"><ele>99.0</ele><time>2026-04-12T08:07:02.001Z</time></trkpt><trkpt lat="46.0549181480834" lon="12.81217406824442"><ele>99.0</ele><time>2026-04-12T08:07:03.001Z</time></trkpt><trkpt lat="46.05499006165931" lon="12.81215829801915"><ele>99.0</ele><time>2026-04-12T08:07:06.001Z</time></trkpt><trkpt lat="46.05508999836524" lon="12.812154001038273"><ele>99.0</ele><time>2026-04-12T08:07:13.001Z</time></trkpt><trkpt lat="46.05518292237678" lon="12.812139182692858"><ele>99.0</ele><time>2026-04-12T08:07:14.001Z</time></trkpt><trkpt lat="46.05529954686432" lon="12.812124133267393"><ele>99.0</ele><time>2026-04-12T08:07:15.001Z</time></trkpt><trkpt lat="46.05545404135798" lon="12.812107712994138"><ele>99.0</ele><time>2026-04-12T08:07:16.001Z</time></trkpt><trkpt lat="46.0556325509472" lon="12.812089134997379"><ele>99.0</ele><time>2026-04-12T08:07:17.001Z</time></trkpt><trkpt lat="46.05581800285312" lon="12.812065044876052"><ele>99.0</ele><time>2026-04-12T08:07:18.001Z</time></trkpt><trkpt lat="46.05601470170219" lon="12.812041044206183"><ele>99.0</ele><time>2026-04-12T08:07:19.001Z</time></trkpt><trkpt lat="46.05621929250462" lon="12.812016517802999"><ele>99.0</ele><time>2026-04-12T08:07:20.001Z</time></trkpt><trkpt lat="46.056433673471" lon="12.81198950019428"><ele>99.66666666666666</ele><time>2026-04-12T08:07:21.001Z</time></trkpt><trkpt lat="46.05665170938638" lon="12.811957182511314"><ele>100.33333333333333</ele><time>2026-04-12T08:07:22.001Z</time></trkpt><trkpt lat="46.05686034407912" lon="12.811932094310878"><ele>101.0</ele><time>2026-04-12T08:07:23.001Z</time></trkpt><trkpt lat="46.0570429739664" lon="12.811910068483574"><ele>101.0</ele><time>2026-04-12T08:07:24.001Z</time></trkpt><trkpt lat="46.057221714445426" lon="12.811885834853864"><ele>101.0</ele><time>2026-04-12T08:07:25Z</time></trkpt><trkpt lat="46.057409501293364" lon="12.811860621970684"><ele>101.0</ele><time>2026-04-12T08:07:26Z</time></trkpt><trkpt lat="46.057603681393836" lon="12.811838879021089"><ele>101.33333333333333</ele><time>2026-04-12T08:07:27Z</time></trkpt><trkpt lat="46.05780579047041" lon="12.81181717878976"><ele>101.66666666666666</ele><time>2026-04-12T08:07:28Z</time></trkpt><trkpt lat="46.0580085910292" lon="12.811791679349115"><ele>102.0</ele><time>2026-04-12T08:07:29Z</time></trkpt><trkpt lat="46.05820043158672" lon="12.811766720187928"><ele>102.66666666666666</ele><time>2026-04-12T08:07:30Z</time></trkpt><trkpt lat="46.0583682421117" lon="12.811748784849298"><ele>103.33333333333333</ele><time>2026-04-12T08:07:31Z</time></trkpt><trkpt lat="46.058529481470536" lon="12.811728121889075"><ele>104.0</ele><time>2026-04-12T08:07:32Z</time></trkpt><trkpt lat="46.05868600108397" lon="12.811710790094807"><ele>104.0</ele><time>2026-04-12T08:07:33Z</time></trkpt><trkpt lat="46.05884449544731" lon="12.811699942686836"><ele>104.0</ele><time>2026-04-12T08:07:34Z</time></trkpt><trkpt lat="46.0590027878478" lon="12.811702584680416"><ele>104.0</ele><time>2026-04-12T08:07:35Z</time></trkpt><trkpt lat="46.05915724383924" lon="12.81171888640743"><ele>103.66666666666666</ele><time>2026-04-12T08:07:36Z</time></trkpt><trkpt lat="46.05930606824288" lon="12.811758008327873"><ele>103.33333333333334</ele><time>2026-04-12T08:07:37Z</time></trkpt><trkpt lat="46.05944759389709" lon="12.811812072478672"><ele>103.0</ele><time>2026-04-12T08:07:38Z</time></trkpt><trkpt lat="46.05959121379982" lon="12.811887001120018"><ele>103.0</ele><time>2026-04-12T08:07:39Z</time></trkpt><trkpt lat="46.059736826902814" lon="12.81197952725716"><ele>103.0</ele><time>2026-04-12T08:07:40Z</time></trkpt><trkpt lat="46.05988179430455" lon="12.812118297270091"><ele>103.0</ele><time>2026-04-12T08:07:41Z</time></trkpt><trkpt lat="46.06002224563705" lon="12.812234086506157"><ele>103.25</ele><time>2026-04-12T08:07:42Z</time></trkpt><trkpt lat="46.0601401656159" lon="12.812336774513085"><ele>103.5</ele><time>2026-04-12T08:07:43Z</time></trkpt><trkpt lat="46.060247553668425" lon="12.812435199233006"><ele>103.75</ele><time>2026-04-12T08:07:44Z</time></trkpt><trkpt lat="46.060341559340046" lon="12.812536542172099"><ele>104.0</ele><time>2026-04-12T08:07:45Z</time></trkpt><trkpt lat="46.06043122460583" lon="12.812613616749832"><ele>103.80000000000001</ele><time>2026-04-12T08:07:46Z</time></trkpt><trkpt lat="46.06051776501706" lon="12.812672712133887"><ele>103.60000000000001</ele><time>2026-04-12T08:07:47Z</time></trkpt><trkpt lat="46.060600089184746" lon="12.812733136197519"><ele>103.4</ele><time>2026-04-12T08:07:48Z</time></trkpt><trkpt lat="46.06068005842928" lon="12.81279546879004"><ele>103.2</ele><time>2026-04-12T08:07:49Z</time></trkpt><trkpt lat="46.06075360519082" lon="12.812858707077204"><ele>103.0</ele><time>2026-04-12T08:07:50Z</time></trkpt><trkpt lat="46.060829425101446" lon="12.812919732488547"><ele>103.0</ele><time>2026-04-12T08:07:51Z</time></trkpt><trkpt lat="46.06090766684792" lon="12.812980828180342"><ele>103.0</ele><time>2026-04-12T08:07:52Z</time></trkpt><trkpt lat="46.06099127732294" lon="12.813046933114293"><ele>103.0</ele><time>2026-04-12T08:07:53Z</time></trkpt><trkpt lat="46.061076465196294" lon="12.813116916480588"><ele>103.0</ele><time>2026-04-12T08:07:54Z</time></trkpt><trkpt lat="46.06116317887668" lon="12.813189485247477"><ele>103.0</ele><time>2026-04-12T08:07:55Z</time></trkpt><trkpt lat="46.06125427561692" lon="12.813259451600278"><ele>103.0</ele><time>2026-04-12T08:07:56Z</time></trkpt><trkpt lat="46.06134838013017" lon="12.813330834751877"><ele>103.0</ele><time>2026-04-12T08:07:57Z</time></trkpt><trkpt lat="46.06143994045932" lon="12.81341238905496"><ele>103.0</ele><time>2026-04-12T08:07:58Z</time></trkpt><trkpt lat="46.061541559773616" lon="12.813491664156238"><ele>103.0</ele><time>2026-04-12T08:07:59Z</time></trkpt><trkpt lat="46.061668306752246" lon="12.813568516326436"><ele>103.33333333333334</ele><time>2026-04-12T08:08:00Z</time></trkpt><trkpt lat="46.06179212612244" lon="12.81363020029312"><ele>103.66666666666666</ele><time>2026-04-12T08:08:01Z</time></trkpt><trkpt lat="46.06193299457637" lon="12.8136845306518"><ele>104.0</ele><time>2026-04-12T08:08:02Z</time></trkpt><trkpt lat="46.062072893484824" lon="12.813964366191035"><ele>104.0</ele><time>2026-04-12T08:08:03Z</time></trkpt><trkpt lat="46.06223043441854" lon="12.813981294568299"><ele>104.0</ele><time>2026-04-12T08:08:04Z</time></trkpt><trkpt lat="46.06239064797307" lon="12.813998510133588"><ele>104.0</ele><time>2026-04-12T08:08:05Z</time></trkpt><trkpt lat="46.06257929620868" lon="12.814020141239103"><ele>104.5</ele><time>2026-04-12T08:08:06Z</time></trkpt><trkpt lat="46.06280229591545" lon="12.814048309711493"><ele>105.0</ele><time>2026-04-12T08:08:07Z</time></trkpt><trkpt lat="46.06303876316033" lon="12.81407817712022"><ele>105.0</ele><time>2026-04-12T08:08:08Z</time></trkpt><trkpt lat="46.063259410974005" lon="12.814104378377811"><ele>105.0</ele><time>2026-04-12T08:08:09Z</time></trkpt><trkpt lat="46.06344849168725" lon="12.814126392218222"><ele>105.0</ele><time>2026-04-12T08:08:10Z</time></trkpt><trkpt lat="46.063639353278724" lon="12.81414861340779"><ele>105.66666666666666</ele><time>2026-04-12T08:08:11Z</time></trkpt><trkpt lat="46.06384010055606" lon="12.814171985543501"><ele>106.33333333333333</ele><time>2026-04-12T08:08:12Z</time></trkpt><trkpt lat="46.06404835048786" lon="12.814196231187346"><ele>107.0</ele><time>2026-04-12T08:08:13Z</time></trkpt><trkpt lat="46.06425556106988" lon="12.814220355804025"><ele>107.66666666666666</ele><time>2026-04-12T08:08:14Z</time></trkpt><trkpt lat="46.06443736362123" lon="12.814241522290628"><ele>108.33333333333334</ele><time>2026-04-12T08:08:15Z</time></trkpt><trkpt lat="46.06459836860614" lon="12.814260883406705"><ele>109.0</ele><time>2026-04-12T08:08:16Z</time></trkpt><trkpt lat="46.06477235218469" lon="12.8142818126201"><ele>109.0</ele><time>2026-04-12T08:08:17Z</time></trkpt><trkpt lat="46.06496979073125" lon="12.814305563328713"><ele>109.0</ele><time>2026-04-12T08:08:18Z</time></trkpt><trkpt lat="46.065167437816356" lon="12.814329339126882"><ele>109.0</ele><time>2026-04-12T08:08:19Z</time></trkpt><trkpt lat="46.06536132922528" lon="12.814352621197239"><ele>108.66666666666667</ele><time>2026-04-12T08:08:20Z</time></trkpt><trkpt lat="46.06554323234455" lon="12.81437475348807"><ele>108.33333333333334</ele><time>2026-04-12T08:08:21Z</time></trkpt><trkpt lat="46.06570521748436" lon="12.814394972229207"><ele>108.0</ele><time>2026-04-12T08:08:22Z</time></trkpt><trkpt lat="46.06584946000734" lon="12.814412755887593"><ele>108.0</ele><time>2026-04-12T08:08:23Z</time></trkpt><trkpt lat="46.065980432925095" lon="12.814427738316416"><ele>108.00000000000001</ele><time>2026-04-12T08:08:24Z</time></trkpt><trkpt lat="46.06609660054206" lon="12.814441027121772"><ele>108.00000000000001</ele><time>2026-04-12T08:08:25Z</time></trkpt><trkpt lat="46.06619664611199" lon="12.814452471663312"><ele>108.0</ele><time>2026-04-12T08:08:26Z</time></trkpt><trkpt lat="46.06628611431586" lon="12.814462706228147"><ele>108.0</ele><time>2026-04-12T08:08:27Z</time></trkpt><trkpt lat="46.06638676728633" lon="12.81447583111873"><ele>108.0</ele><time>2026-04-12T08:08:28Z</time></trkpt><trkpt lat="46.06649753218202" lon="12.814490902908236"><ele>108.0</ele><time>2026-04-12T08:08:29Z</time></trkpt><trkpt lat="46.06663353002673" lon="12.814510647760573"><ele>108.0</ele><time>2026-04-12T08:08:30Z</time></trkpt><trkpt lat="46.06676467765194" lon="12.814530049261048"><ele>108.0</ele><time>2026-04-12T08:08:31Z</time></trkpt><trkpt lat="46.066903753308225" lon="12.814552692690413"><ele>108.33333333333334</ele><time>2026-04-12T08:08:32Z</time></trkpt><trkpt lat="46.06707014439825" lon="12.81458399832179"><ele>108.66666666666667</ele><time>2026-04-12T08:08:33Z</time></trkpt><trkpt lat="46.067239619146534" lon="12.814622109189859"><ele>109.0</ele><time>2026-04-12T08:08:34Z</time></trkpt><trkpt lat="46.06739794695749" lon="12.814661902944172"><ele>110.0</ele><time>2026-04-12T08:08:35Z</time></trkpt><trkpt lat="46.06754416262455" lon="12.814702652817047"><ele>111.0</ele><time>2026-04-12T08:08:36Z</time></trkpt><trkpt lat="46.06769304496421" lon="12.8147457548099"><ele>112.0</ele><time>2026-04-12T08:08:37Z</time></trkpt><trkpt lat="46.06784890095204" lon="12.81479483096997"><ele>112.0</ele><time>2026-04-12T08:08:38Z</time></trkpt><trkpt lat="46.068023579452195" lon="12.814851344868487"><ele>112.0</ele><time>2026-04-12T08:08:39Z</time></trkpt><trkpt lat="46.06820775615377" lon="12.814914121781175"><ele>112.0</ele><time>2026-04-12T08:08:40Z</time></trkpt><trkpt lat="46.06837611126729" lon="12.8149747935062"><ele>112.39999999999999</ele><time>2026-04-12T08:08:41Z</time></trkpt><trkpt lat="46.06851746894196" lon="12.815026781434362"><ele>112.79999999999998</ele><time>2026-04-12T08:08:42Z</time></trkpt><trkpt lat="46.068633391856274" lon="12.815069545527722"><ele>113.2</ele><time>2026-04-12T08:08:43Z</time></trkpt><trkpt lat="46.068724219958455" lon="12.81510305603795"><ele>113.6</ele><time>2026-04-12T08:08:44.001Z</time></trkpt><trkpt lat="46.06879574017185" lon="12.815129443012287"><ele>114.0</ele><time>2026-04-12T08:08:45.001Z</time></trkpt><trkpt lat="46.068861604567395" lon="12.815153743319003"><ele>114.0</ele><time>2026-04-12T08:08:46.001Z</time></trkpt><trkpt lat="46.06892619808926" lon="12.815177574743498"><ele>114.0</ele><time>2026-04-12T08:08:48.001Z</time></trkpt><trkpt lat="46.0689535039067" lon="12.815080996647772"><ele>114.0</ele><time>2026-04-12T08:08:50.001Z</time></trkpt><trkpt lat="46.068916902151216" lon="12.81519497715908"><ele>114.0</ele><time>2026-04-12T08:08:51.001Z</time></trkpt><trkpt lat="46.068885477601995" lon="12.815304883720293"><ele>114.0</ele><time>2026-04-12T08:08:52.001Z</time></trkpt><trkpt lat="46.06883206051086" lon="12.81539053003339"><ele>114.0</ele><time>2026-04-12T08:08:54.001Z</time></trkpt><trkpt lat="46.06871959301689" lon="12.815384340027975"><ele>114.0</ele><time>2026-04-12T08:09:10.001Z</time></trkpt><trkpt lat="46.068690985736055" lon="12.815041420444636"><ele>114.0</ele><time>2026-04-12T08:09:11.001Z</time></trkpt><trkpt lat="46.06860603622207" lon="12.81501007879684"><ele>114.0</ele><time>2026-04-12T08:09:12.001Z</time></trkpt><trkpt lat="46.06851009912227" lon="12.814974706637853"><ele>114.0</ele><time>2026-04-12T08:09:13.001Z</time></trkpt><trkpt lat="46.06838872098868" lon="12.814930066701926"><ele>113.5</ele><time>2026-04-12T08:09:14.001Z</time></trkpt><trkpt lat="46.06825397721575" lon="12.81488142444211"><ele>113.0</ele><time>2026-04-12T08:09:15.001Z</time></trkpt><trkpt lat="46.068112185568566" lon="12.814831825021407"><ele>112.5</ele><time>2026-04-12T08:09:16.001Z</time></trkpt><trkpt lat="46.06795431175866" lon="12.814779127639639"><ele>112.0</ele><time>2026-04-12T08:09:17.001Z</time></trkpt><trkpt lat="46.0677942081211" lon="12.814728703983308"><ele>112.0</ele><time>2026-04-12T08:09:18.001Z</time></trkpt><trkpt lat="46.06765492912407" lon="12.81468593716963"><ele>112.0</ele><time>2026-04-12T08:09:19.001Z</time></trkpt><trkpt lat="46.0675172798391" lon="12.814646223869108"><ele>112.0</ele><time>2026-04-12T08:09:20.001Z</time></trkpt><trkpt lat="46.06737654142106" lon="12.814607280797295"><ele>112.0</ele><time>2026-04-12T08:09:21.001Z</time></trkpt><trkpt lat="46.06723110335983" lon="12.814571512478658"><ele>111.25</ele><time>2026-04-12T08:09:22.001Z</time></trkpt><trkpt lat="46.06708761166148" lon="12.81453911735109"><ele>110.5</ele><time>2026-04-12T08:09:23.001Z</time></trkpt><trkpt lat="46.066940237167465" lon="12.81451096406737"><ele>109.75</ele><time>2026-04-12T08:09:24.001Z</time></trkpt><trkpt lat="46.066788735631015" lon="12.81448571870161"><ele>109.0</ele><time>2026-04-12T08:09:25.001Z</time></trkpt><trkpt lat="46.06664389779959" lon="12.814464108476074"><ele>108.75</ele><time>2026-04-12T08:09:26.001Z</time></trkpt><trkpt lat="46.066505163354535" lon="12.814443907067883"><ele>108.5</ele><time>2026-04-12T08:09:27.001Z</time></trkpt><trkpt lat="46.06636958127646" lon="12.81442545840062"><ele>108.25</ele><time>2026-04-12T08:09:28.001Z</time></trkpt><trkpt lat="46.066230131011814" lon="12.814408330561818"><ele>108.0</ele><time>2026-04-12T08:09:29.001Z</time></trkpt><trkpt lat="46.066078532480994" lon="12.81439098870073"><ele>108.0</ele><time>2026-04-12T08:09:30.001Z</time></trkpt><trkpt lat="46.06593402801245" lon="12.81437445834724"><ele>108.0</ele><time>2026-04-12T08:09:31Z</time></trkpt><trkpt lat="46.065806930333096" lon="12.814359869798155"><ele>108.0</ele><time>2026-04-12T08:09:32Z</time></trkpt><trkpt lat="46.0656833892704" lon="12.814344196675185"><ele>108.0</ele><time>2026-04-12T08:09:33Z</time></trkpt><trkpt lat="46.06556407134872" lon="12.814329297586246"><ele>108.25</ele><time>2026-04-12T08:09:34Z</time></trkpt><trkpt lat="46.06544028499417" lon="12.814314236417198"><ele>108.5</ele><time>2026-04-12T08:09:35Z</time></trkpt><trkpt lat="46.06531264617949" lon="12.814298706507367"><ele>108.75</ele><time>2026-04-12T08:09:36Z</time></trkpt><trkpt lat="46.06519001849679" lon="12.814284067891833"><ele>109.0</ele><time>2026-04-12T08:09:37Z</time></trkpt><trkpt lat="46.06508245531651" lon="12.814271128667132"><ele>109.0</ele><time>2026-04-12T08:09:38Z</time></trkpt><trkpt lat="46.06498553076582" lon="12.814259469206158"><ele>109.0</ele><time>2026-04-12T08:09:39Z</time></trkpt><trkpt lat="46.064905084245524" lon="12.814249791955516"><ele>109.0</ele><time>2026-04-12T08:09:40Z</time></trkpt><trkpt lat="46.064826524667836" lon="12.814240341682911"><ele>109.0</ele><time>2026-04-12T08:09:41Z</time></trkpt><trkpt lat="46.06472517885482" lon="12.814228150384018"><ele>109.0</ele><time>2026-04-12T08:09:42Z</time></trkpt><trkpt lat="46.064591668287406" lon="12.814212089835893"><ele>109.0</ele><time>2026-04-12T08:09:43Z</time></trkpt><trkpt lat="46.06444980304358" lon="12.81419502426762"><ele>109.0</ele><time>2026-04-12T08:09:44Z</time></trkpt><trkpt lat="46.06429291106215" lon="12.814176727315072"><ele>109.0</ele><time>2026-04-12T08:09:45Z</time></trkpt><trkpt lat="46.06413774336074" lon="12.814158661809433"><ele>108.33333333333334</ele><time>2026-04-12T08:09:46Z</time></trkpt><trkpt lat="46.06398638498712" lon="12.81414103981246"><ele>107.66666666666666</ele><time>2026-04-12T08:09:47Z</time></trkpt><trkpt lat="46.06383618630106" lon="12.814123552830075"><ele>107.0</ele><time>2026-04-12T08:09:48Z</time></trkpt><trkpt lat="46.063687441817976" lon="12.814106235159132"><ele>107.0</ele><time>2026-04-12T08:09:49Z</time></trkpt><trkpt lat="46.06353406358371" lon="12.814088378010993"><ele>107.0</ele><time>2026-04-12T08:09:50Z</time></trkpt><trkpt lat="46.06337135849743" lon="12.814069437027168"><ele>107.0</ele><time>2026-04-12T08:09:51Z</time></trkpt><trkpt lat="46.0631910337795" lon="12.81404844257618"><ele>106.33333333333333</ele><time>2026-04-12T08:09:52Z</time></trkpt><trkpt lat="46.062994678420125" lon="12.814024606322656"><ele>105.66666666666666</ele><time>2026-04-12T08:09:53Z</time></trkpt><trkpt lat="46.062808283110485" lon="12.814001063273615"><ele>105.0</ele><time>2026-04-12T08:09:54Z</time></trkpt><trkpt lat="46.06263811651395" lon="12.813979570084221"><ele>105.0</ele><time>2026-04-12T08:09:55Z</time></trkpt><trkpt lat="46.06248253537721" lon="12.813960434113858"><ele>105.0</ele><time>2026-04-12T08:09:56Z</time></trkpt><trkpt lat="46.06233352852668" lon="12.813944422768834"><ele>105.0</ele><time>2026-04-12T08:09:57Z</time></trkpt><trkpt lat="46.06217929822729" lon="12.813927850122122"><ele>104.66666666666666</ele><time>2026-04-12T08:09:58Z</time></trkpt><trkpt lat="46.06201755759006" lon="12.813910470469564"><ele>104.33333333333333</ele><time>2026-04-12T08:09:59Z</time></trkpt><trkpt lat="46.06186544312539" lon="12.813892661809271"><ele>104.0</ele><time>2026-04-12T08:10:00Z</time></trkpt><trkpt lat="46.06170922472038" lon="12.813872619917317"><ele>104.0</ele><time>2026-04-12T08:10:01Z</time></trkpt><trkpt lat="46.06154557013832" lon="12.81385199951811"><ele>104.0</ele><time>2026-04-12T08:10:02Z</time></trkpt><trkpt lat="46.06138008880453" lon="12.813832154440279"><ele>104.0</ele><time>2026-04-12T08:10:03Z</time></trkpt><trkpt lat="46.06121442589243" lon="12.813812911236974"><ele>104.0</ele><time>2026-04-12T08:10:04Z</time></trkpt><trkpt lat="46.06103493384722" lon="12.813793157060976"><ele>104.0</ele><time>2026-04-12T08:10:05Z</time></trkpt><trkpt lat="46.06083279317854" lon="12.813770910326395"><ele>104.0</ele><time>2026-04-12T08:10:06Z</time></trkpt><trkpt lat="46.06063737318761" lon="12.813746312703476"><ele>103.66666666666666</ele><time>2026-04-12T08:10:07Z</time></trkpt><trkpt lat="46.06044494546265" lon="12.81371938174851"><ele>103.33333333333334</ele><time>2026-04-12T08:10:08Z</time></trkpt><trkpt lat="46.060261483923746" lon="12.813694851470526"><ele>103.0</ele><time>2026-04-12T08:10:09Z</time></trkpt><trkpt lat="46.06009987092079" lon="12.813678168854084"><ele>102.25</ele><time>2026-04-12T08:10:10Z</time></trkpt><trkpt lat="46.05994859400401" lon="12.813662553160148"><ele>101.5</ele><time>2026-04-12T08:10:11Z</time></trkpt><trkpt lat="46.059809023307814" lon="12.813646763268908"><ele>100.75</ele><time>2026-04-12T08:10:12Z</time></trkpt><trkpt lat="46.05965792168854" lon="12.813627600929642"><ele>100.0</ele><time>2026-04-12T08:10:13Z</time></trkpt><trkpt lat="46.05949039446991" lon="12.813607154750171"><ele>100.0</ele><time>2026-04-12T08:10:14Z</time></trkpt><trkpt lat="46.05933120331704" lon="12.813593646175603"><ele>100.0</ele><time>2026-04-12T08:10:15Z</time></trkpt><trkpt lat="46.059199470874205" lon="12.813588132375102"><ele>100.0</ele><time>2026-04-12T08:10:16Z</time></trkpt><trkpt lat="46.05909485137383" lon="12.813585959427243"><ele>100.0</ele><time>2026-04-12T08:10:17Z</time></trkpt><trkpt lat="46.05898656768206" lon="12.813586680350127"><ele>100.0</ele><time>2026-04-12T08:10:18Z</time></trkpt><trkpt lat="46.058854224265836" lon="12.813588806405935"><ele>100.0</ele><time>2026-04-12T08:10:19Z</time></trkpt><trkpt lat="46.05871218298427" lon="12.813594394752604"><ele>100.0</ele><time>2026-04-12T08:10:20Z</time></trkpt><trkpt lat="46.05855908444913" lon="12.813607903432748"><ele>100.0</ele><time>2026-04-12T08:10:21Z</time></trkpt><trkpt lat="46.05841414269749" lon="12.813626934205695"><ele>100.5</ele><time>2026-04-12T08:10:22Z</time></trkpt><trkpt lat="46.05827635421977" lon="12.813648120597035"><ele>101.0</ele><time>2026-04-12T08:10:23Z</time></trkpt><trkpt lat="46.05813808718829" lon="12.813672300899613"><ele>101.5</ele><time>2026-04-12T08:10:24Z</time></trkpt><trkpt lat="46.058009095699866" lon="12.813697232049202"><ele>102.0</ele><time>2026-04-12T08:10:25Z</time></trkpt><trkpt lat="46.057893557910944" lon="12.81372121067974"><ele>102.0</ele><time>2026-04-12T08:10:26Z</time></trkpt><trkpt lat="46.05775230644386" lon="12.813751909411025"><ele>102.0</ele><time>2026-04-12T08:10:27Z</time></trkpt><trkpt lat="46.05757657398975" lon="12.8137916973338"><ele>102.0</ele><time>2026-04-12T08:10:28Z</time></trkpt><trkpt lat="46.05740146264144" lon="12.813831344568698"><ele>101.0</ele><time>2026-04-12T08:10:29Z</time></trkpt><trkpt lat="46.05722980382954" lon="12.813870210160218"><ele>100.0</ele><time>2026-04-12T08:10:30Z</time></trkpt><trkpt lat="46.05707994527791" lon="12.81390269098267"><ele>99.0</ele><time>2026-04-12T08:10:31Z</time></trkpt><trkpt lat="46.056932701303055" lon="12.813933569997946"><ele>99.0</ele><time>2026-04-12T08:10:32Z</time></trkpt><trkpt lat="46.05680135881157" lon="12.81396036313374"><ele>99.0</ele><time>2026-04-12T08:10:33Z</time></trkpt><trkpt lat="46.05668112910892" lon="12.813982197707732"><ele>99.0</ele><time>2026-04-12T08:10:34Z</time></trkpt><trkpt lat="46.05656432091749" lon="12.813999930487194"><ele>99.0</ele><time>2026-04-12T08:10:35Z</time></trkpt><trkpt lat="46.05643342093862" lon="12.81401661189069"><ele>99.0</ele><time>2026-04-12T08:10:36Z</time></trkpt><trkpt lat="46.0562682672232" lon="12.814030774900672"><ele>99.0</ele><time>2026-04-12T08:10:37Z</time></trkpt><trkpt lat="46.05610755725313" lon="12.814039082882593"><ele>99.0</ele><time>2026-04-12T08:10:38Z</time></trkpt><trkpt lat="46.05596390549393" lon="12.814044151616642"><ele>99.0</ele><time>2026-04-12T08:10:39Z</time></trkpt><trkpt lat="46.05581426382612" lon="12.814045092872067"><ele>99.0</ele><time>2026-04-12T08:10:40Z</time></trkpt><trkpt lat="46.05564870620254" lon="12.814038059611512"><ele>99.0</ele><time>2026-04-12T08:10:41Z</time></trkpt><trkpt lat="46.0554986839435" lon="12.814027868463844"><ele>98.75</ele><time>2026-04-12T08:10:42Z</time></trkpt><trkpt lat="46.05536868404406" lon="12.814015316908021"><ele>98.5</ele><time>2026-04-12T08:10:43Z</time></trkpt><trkpt lat="46.055237003012486" lon="12.81399718752577"><ele>98.25</ele><time>2026-04-12T08:10:44Z</time></trkpt><trkpt lat="46.05509229367583" lon="12.813973909530809"><ele>98.0</ele><time>2026-04-12T08:10:45Z</time></trkpt><trkpt lat="46.05493588868559" lon="12.813944134201558"><ele>97.75</ele><time>2026-04-12T08:10:46Z</time></trkpt><trkpt lat="46.054787887358586" lon="12.813911023624875"><ele>97.5</ele><time>2026-04-12T08:10:47Z</time></trkpt><trkpt lat="46.05465354924306" lon="12.813878565518594"><ele>97.25</ele><time>2026-04-12T08:10:48Z</time></trkpt><trkpt lat="46.05455270058272" lon="12.813850495144411"><ele>97.0</ele><time>2026-04-12T08:10:49Z</time></trkpt><trkpt lat="46.05446995143246" lon="12.813827536233745"><ele>97.0</ele><time>2026-04-12T08:10:50Z</time></trkpt><trkpt lat="46.05437602650742" lon="12.813795334291862"><ele>97.0</ele><time>2026-04-12T08:10:52.001Z</time></trkpt><trkpt lat="46.05410770959047" lon="12.814697612209663"><ele>96.33333333333334</ele><time>2026-04-12T08:10:55.001Z</time></trkpt><trkpt lat="46.05401807580684" lon="12.814932073455175"><ele>95.66666666666667</ele><time>2026-04-12T08:10:56.001Z</time></trkpt><trkpt lat="46.05393248090766" lon="12.81513391885958"><ele>95.0</ele><time>2026-04-12T08:10:57.001Z</time></trkpt><trkpt lat="46.05383645310492" lon="12.81534301726374"><ele>94.66666666666667</ele><time>2026-04-12T08:10:58.001Z</time></trkpt><trkpt lat="46.05374377155659" lon="12.815554124823866"><ele>94.33333333333333</ele><time>2026-04-12T08:10:59.001Z</time></trkpt><trkpt lat="46.053653420834785" lon="12.815776729661511"><ele>94.0</ele><time>2026-04-12T08:11:00.001Z</time></trkpt><trkpt lat="46.05356349913469" lon="12.815990702382344"><ele>94.0</ele><time>2026-04-12T08:11:01.001Z</time></trkpt><trkpt lat="46.05338503909068" lon="12.816115059354544"><ele>94.0</ele><time>2026-04-12T08:11:02.001Z</time></trkpt><trkpt lat="46.05329796682988" lon="12.81632311659426"><ele>94.0</ele><time>2026-04-12T08:11:03.001Z</time></trkpt><trkpt lat="46.0532226608572" lon="12.816506857949761"><ele>94.0</ele><time>2026-04-12T08:11:04.001Z</time></trkpt><trkpt lat="46.053154548227106" lon="12.816671653154515"><ele>94.0</ele><time>2026-04-12T08:11:05.001Z</time></trkpt><trkpt lat="46.053095938746345" lon="12.816811592821649"><ele>94.0</ele><time>2026-04-12T08:11:06.001Z</time></trkpt><trkpt lat="46.05305392763484" lon="12.816910013645494"><ele>94.0</ele><time>2026-04-12T08:11:07.001Z</time></trkpt><trkpt lat="46.05301737910716" lon="12.81699563747798"><ele>94.0</ele><time>2026-04-12T08:11:09.001Z</time></trkpt><trkpt lat="46.05296816581108" lon="12.817100300813912"><ele>94.0</ele><time>2026-04-12T08:11:16.001Z</time></trkpt><trkpt lat="46.05291593981399" lon="12.817190246464076"><ele>94.0</ele><time>2026-04-12T08:11:17.001Z</time></trkpt><trkpt lat="46.05287178158942" lon="12.817306601557648"><ele>94.0</ele><time>2026-04-12T08:11:18.001Z</time></trkpt><trkpt lat="46.052817524207725" lon="12.81744240915007"><ele>94.0</ele><time>2026-04-12T08:11:19.001Z</time></trkpt><trkpt lat="46.052762767007785" lon="12.817574580186827"><ele>94.0</ele><time>2026-04-12T08:11:20.001Z</time></trkpt><trkpt lat="46.052712887841615" lon="12.817693288268496"><ele>94.0</ele><time>2026-04-12T08:11:21.001Z</time></trkpt><trkpt lat="46.05266957876558" lon="12.817800448614152"><ele>94.0</ele><time>2026-04-12T08:11:22.001Z</time></trkpt><trkpt lat="46.05263877539556" lon="12.817884135954529"><ele>94.0</ele><time>2026-04-12T08:11:23.001Z</time></trkpt><trkpt lat="46.05260199718311" lon="12.81803545870285"><ele>94.0</ele><time>2026-04-12T08:11:25.001Z</time></trkpt><trkpt lat="46.0525368130061" lon="12.818135305721325"><ele>94.0</ele><time>2026-04-12T08:11:27.001Z</time></trkpt><trkpt lat="46.05262391134895" lon="12.818363360788666"><ele>93.6</ele><time>2026-04-12T08:11:29.001Z</time></trkpt><trkpt lat="46.05265766368403" lon="12.818494032498233"><ele>93.2</ele><time>2026-04-12T08:11:30.001Z</time></trkpt><trkpt lat="46.05269503185561" lon="12.818653236876496"><ele>92.8</ele><time>2026-04-12T08:11:31.001Z</time></trkpt><trkpt lat="46.052718724014476" lon="12.818763376855472"><ele>92.39999999999999</ele><time>2026-04-12T08:11:32.001Z</time></trkpt><trkpt lat="46.05275220214767" lon="12.818921113306699"><ele>92.0</ele><time>2026-04-12T08:11:33.001Z</time></trkpt><trkpt lat="46.05278476780103" lon="12.819093979331994"><ele>92.0</ele><time>2026-04-12T08:11:34.001Z</time></trkpt><trkpt lat="46.052814070732964" lon="12.819272301789768"><ele>92.0</ele><time>2026-04-12T08:11:35.001Z</time></trkpt><trkpt lat="46.05284414947616" lon="12.819464106306846"><ele>92.0</ele><time>2026-04-12T08:11:36.001Z</time></trkpt><trkpt lat="46.05287781637338" lon="12.819653040831684"><ele>92.0</ele><time>2026-04-12T08:11:37Z</time></trkpt><trkpt lat="46.052916105106746" lon="12.819843449589332"><ele>92.0</ele><time>2026-04-12T08:11:38Z</time></trkpt><trkpt lat="46.052959542367766" lon="12.82003996400108"><ele>92.0</ele><time>2026-04-12T08:11:39Z</time></trkpt><trkpt lat="46.05300141156768" lon="12.820234763103404"><ele>92.0</ele><time>2026-04-12T08:11:40Z</time></trkpt><trkpt lat="46.05304035448247" lon="12.820428875334459"><ele>92.0</ele><time>2026-04-12T08:11:41Z</time></trkpt><trkpt lat="46.05308070999355" lon="12.820625194917856"><ele>92.0</ele><time>2026-04-12T08:11:42Z</time></trkpt><trkpt lat="46.05312174272512" lon="12.820823547711163"><ele>92.0</ele><time>2026-04-12T08:11:43Z</time></trkpt><trkpt lat="46.053161963010766" lon="12.821024867928449"><ele>92.0</ele><time>2026-04-12T08:11:44Z</time></trkpt><trkpt lat="46.053206373417446" lon="12.82122807291181"><ele>92.0</ele><time>2026-04-12T08:11:45Z</time></trkpt><trkpt lat="46.05325097815902" lon="12.821430925678381"><ele>92.0</ele><time>2026-04-12T08:11:46Z</time></trkpt><trkpt lat="46.05329847067901" lon="12.821635111099148"><ele>92.0</ele><time>2026-04-12T08:11:47Z</time></trkpt><trkpt lat="46.053345253246064" lon="12.821874294964747"><ele>92.0</ele><time>2026-04-12T08:11:48Z</time></trkpt><trkpt lat="46.05338198984457" lon="12.822092298683597"><ele>92.33333333333334</ele><time>2026-04-12T08:11:49Z</time></trkpt><trkpt lat="46.05342180277739" lon="12.82231737864503"><ele>92.66666666666667</ele><time>2026-04-12T08:11:50Z</time></trkpt><trkpt lat="46.053462954997414" lon="12.822542356776813"><ele>93.0</ele><time>2026-04-12T08:11:51Z</time></trkpt><trkpt lat="46.05350258399509" lon="12.822753096273294"><ele>93.25</ele><time>2026-04-12T08:11:52Z</time></trkpt><trkpt lat="46.05354360539585" lon="12.822959912511267"><ele>93.5</ele><time>2026-04-12T08:11:53Z</time></trkpt><trkpt lat="46.05358609055199" lon="12.823161304558148"><ele>93.75</ele><time>2026-04-12T08:11:54Z</time></trkpt><trkpt lat="46.0536256798018" lon="12.823361044169795"><ele>94.0</ele><time>2026-04-12T08:11:55Z</time></trkpt><trkpt lat="46.05366193060503" lon="12.82355704109847"><ele>94.25</ele><time>2026-04-12T08:11:56Z</time></trkpt><trkpt lat="46.05369790069876" lon="12.823753324341151"><ele>94.5</ele><time>2026-04-12T08:11:57Z</time></trkpt><trkpt lat="46.053734478376214" lon="12.823952677012965"><ele>94.75</ele><time>2026-04-12T08:11:58Z</time></trkpt><trkpt lat="46.0537709318729" lon="12.824145973518723"><ele>95.0</ele><time>2026-04-12T08:11:59Z</time></trkpt><trkpt lat="46.053809567095335" lon="12.824336100071976"><ele>94.5</ele><time>2026-04-12T08:12:00Z</time></trkpt><trkpt lat="46.053846951271055" lon="12.82450920447788"><ele>94.0</ele><time>2026-04-12T08:12:01Z</time></trkpt><trkpt lat="46.05388730861484" lon="12.824699686278725"><ele>93.5</ele><time>2026-04-12T08:12:02Z</time></trkpt><trkpt lat="46.05393608100438" lon="12.824930293962124"><ele>93.0</ele><time>2026-04-12T08:12:03Z</time></trkpt><trkpt lat="46.05399096459146" lon="12.825195450441091"><ele>93.0</ele><time>2026-04-12T08:12:04Z</time></trkpt><trkpt lat="46.05404307588596" lon="12.82545533653424"><ele>93.0</ele><time>2026-04-12T08:12:05Z</time></trkpt><trkpt lat="46.05409104355328" lon="12.825703381310678"><ele>93.0</ele><time>2026-04-12T08:12:06Z</time></trkpt><trkpt lat="46.05414016629872" lon="12.82594994048734"><ele>93.33333333333333</ele><time>2026-04-12T08:12:07Z</time></trkpt><trkpt lat="46.05419310182577" lon="12.826197187192207"><ele>93.66666666666666</ele><time>2026-04-12T08:12:08Z</time></trkpt><trkpt lat="46.05424693481911" lon="12.826447401892231"><ele>94.0</ele><time>2026-04-12T08:12:09Z</time></trkpt><trkpt lat="46.05430226003749" lon="12.826701519633167"><ele>93.66666666666666</ele><time>2026-04-12T08:12:10Z</time></trkpt><trkpt lat="46.0543535844008" lon="12.826948542122919"><ele>93.33333333333333</ele><time>2026-04-12T08:12:11Z</time></trkpt><trkpt lat="46.05440171845623" lon="12.827191831706362"><ele>93.0</ele><time>2026-04-12T08:12:12Z</time></trkpt><trkpt lat="46.054444639149835" lon="12.827407813885623"><ele>93.0</ele><time>2026-04-12T08:12:13Z</time></trkpt><trkpt lat="46.054483660048575" lon="12.827609053631718"><ele>93.0</ele><time>2026-04-12T08:12:14Z</time></trkpt><trkpt lat="46.054519127912506" lon="12.827794572378297"><ele>93.0</ele><time>2026-04-12T08:12:15Z</time></trkpt><trkpt lat="46.05455279947593" lon="12.827958997805263"><ele>93.0</ele><time>2026-04-12T08:12:16Z</time></trkpt><trkpt lat="46.054584835126" lon="12.828116519970106"><ele>93.5</ele><time>2026-04-12T08:12:17Z</time></trkpt><trkpt lat="46.054613776253845" lon="12.82826272740416"><ele>94.0</ele><time>2026-04-12T08:12:18Z</time></trkpt><trkpt lat="46.05463447414768" lon="12.828463150575946"><ele>94.5</ele><time>2026-04-12T08:12:19Z</time></trkpt><trkpt lat="46.05467833799519" lon="12.828700390546876"><ele>95.0</ele><time>2026-04-12T08:12:20Z</time></trkpt><trkpt lat="46.05473065720716" lon="12.828958891758454"><ele>95.0</ele><time>2026-04-12T08:12:21Z</time></trkpt><trkpt lat="46.05478950432933" lon="12.829232085081827"><ele>95.0</ele><time>2026-04-12T08:12:22Z</time></trkpt><trkpt lat="46.05486691773891" lon="12.829511527045556"><ele>95.0</ele><time>2026-04-12T08:12:23Z</time></trkpt><trkpt lat="46.05491576129424" lon="12.829763637719848"><ele>95.66666666666667</ele><time>2026-04-12T08:12:24Z</time></trkpt><trkpt lat="46.054966938188024" lon="12.830021967997817"><ele>96.33333333333334</ele><time>2026-04-12T08:12:25Z</time></trkpt><trkpt lat="46.05502291477758" lon="12.830295603742911"><ele>97.0</ele><time>2026-04-12T08:12:26Z</time></trkpt><trkpt lat="46.05505962955677" lon="12.830584393753131"><ele>97.0</ele><time>2026-04-12T08:12:27Z</time></trkpt><trkpt lat="46.05511650227338" lon="12.8308705610558"><ele>97.0</ele><time>2026-04-12T08:12:28Z</time></trkpt><trkpt lat="46.05518874351767" lon="12.831145193817996"><ele>97.0</ele><time>2026-04-12T08:12:29Z</time></trkpt><trkpt lat="46.055246463531994" lon="12.83144612083124"><ele>97.0</ele><time>2026-04-12T08:12:30Z</time></trkpt><trkpt lat="46.05530542717177" lon="12.83173837495149"><ele>97.0</ele><time>2026-04-12T08:12:31Z</time></trkpt><trkpt lat="46.055364154631775" lon="12.832024155049487"><ele>97.0</ele><time>2026-04-12T08:12:32Z</time></trkpt><trkpt lat="46.05541648762531" lon="12.832282179896533"><ele>97.0</ele><time>2026-04-12T08:12:33Z</time></trkpt><trkpt lat="46.05546289319899" lon="12.83251706179885"><ele>97.0</ele><time>2026-04-12T08:12:34Z</time></trkpt><trkpt lat="46.05549991526727" lon="12.832725353391105"><ele>97.0</ele><time>2026-04-12T08:12:35Z</time></trkpt><trkpt lat="46.055537135590875" lon="12.832927674046902"><ele>96.5</ele><time>2026-04-12T08:12:36Z</time></trkpt><trkpt lat="46.05557511668653" lon="12.833109887794702"><ele>96.0</ele><time>2026-04-12T08:12:37Z</time></trkpt><trkpt lat="46.05560527524118" lon="12.833287029453302"><ele>95.5</ele><time>2026-04-12T08:12:38Z</time></trkpt><trkpt lat="46.05564573872187" lon="12.833499785156544"><ele>95.0</ele><time>2026-04-12T08:12:39Z</time></trkpt><trkpt lat="46.05569458440171" lon="12.833743488454344"><ele>95.0</ele><time>2026-04-12T08:12:40Z</time></trkpt><trkpt lat="46.055747765542606" lon="12.834003155319525"><ele>95.0</ele><time>2026-04-12T08:12:41Z</time></trkpt><trkpt lat="46.05580198487784" lon="12.834281024881003"><ele>95.0</ele><time>2026-04-12T08:12:42Z</time></trkpt><trkpt lat="46.05585458482075" lon="12.834560571391764"><ele>96.0</ele><time>2026-04-12T08:12:43Z</time></trkpt><trkpt lat="46.055910975859845" lon="12.834851409008898"><ele>97.0</ele><time>2026-04-12T08:12:44Z</time></trkpt><trkpt lat="46.05596894015433" lon="12.835146471994483"><ele>98.0</ele><time>2026-04-12T08:12:45Z</time></trkpt><trkpt lat="46.05603023673293" lon="12.835447217939013"><ele>98.0</ele><time>2026-04-12T08:12:46Z</time></trkpt><trkpt lat="46.056083907878865" lon="12.835735961910485"><ele>98.0</ele><time>2026-04-12T08:12:47Z</time></trkpt><trkpt lat="46.05614384873321" lon="12.836034935621907"><ele>98.0</ele><time>2026-04-12T08:12:48Z</time></trkpt><trkpt lat="46.05621012330921" lon="12.836363144626944"><ele>97.5</ele><time>2026-04-12T08:12:49Z</time></trkpt><trkpt lat="46.05628204219959" lon="12.836713907476362"><ele>97.0</ele><time>2026-04-12T08:12:50Z</time></trkpt><trkpt lat="46.05636307641441" lon="12.837106934779591"><ele>96.5</ele><time>2026-04-12T08:12:51Z</time></trkpt><trkpt lat="46.05643310855233" lon="12.837453132906742"><ele>96.0</ele><time>2026-04-12T08:12:52Z</time></trkpt><trkpt lat="46.056497018835316" lon="12.837772126351796"><ele>96.0</ele><time>2026-04-12T08:12:53Z</time></trkpt><trkpt lat="46.056552187459204" lon="12.838050204777403"><ele>96.0</ele><time>2026-04-12T08:12:54Z</time></trkpt><trkpt lat="46.056598643185005" lon="12.838289086333491"><ele>96.0</ele><time>2026-04-12T08:12:55Z</time></trkpt><trkpt lat="46.05664433489012" lon="12.83851345782209"><ele>96.66666666666666</ele><time>2026-04-12T08:12:56Z</time></trkpt><trkpt lat="46.05668888837302" lon="12.838721579829887"><ele>97.33333333333333</ele><time>2026-04-12T08:12:57Z</time></trkpt><trkpt lat="46.05673174095155" lon="12.838934934702475"><ele>98.0</ele><time>2026-04-12T08:12:58Z</time></trkpt><trkpt lat="46.0567790968135" lon="12.839188143812665"><ele>98.0</ele><time>2026-04-12T08:12:59Z</time></trkpt><trkpt lat="46.05682013013181" lon="12.83944070119572"><ele>98.0</ele><time>2026-04-12T08:13:00Z</time></trkpt><trkpt lat="46.05685661878219" lon="12.839663550909183"><ele>98.0</ele><time>2026-04-12T08:13:01Z</time></trkpt><trkpt lat="46.05689396106804" lon="12.839870971086532"><ele>98.0</ele><time>2026-04-12T08:13:02Z</time></trkpt><trkpt lat="46.05692939671977" lon="12.840061254426102"><ele>98.0</ele><time>2026-04-12T08:13:03Z</time></trkpt><trkpt lat="46.05696856837637" lon="12.840239474120413"><ele>98.0</ele><time>2026-04-12T08:13:04.001Z</time></trkpt><trkpt lat="46.05701629694204" lon="12.840409963049499"><ele>98.0</ele><time>2026-04-12T08:13:05.001Z</time></trkpt><trkpt lat="46.057071385700596" lon="12.840575737970049"><ele>98.2</ele><time>2026-04-12T08:13:06.001Z</time></trkpt><trkpt lat="46.057130337855924" lon="12.840715984694768"><ele>98.4</ele><time>2026-04-12T08:13:07.001Z</time></trkpt><trkpt lat="46.05719678876074" lon="12.840831227323205"><ele>98.60000000000001</ele><time>2026-04-12T08:13:08.001Z</time></trkpt><trkpt lat="46.05726131115638" lon="12.840925987069078"><ele>98.80000000000001</ele><time>2026-04-12T08:13:09.001Z</time></trkpt><trkpt lat="46.05733290078986" lon="12.841035045519225"><ele>99.0</ele><time>2026-04-12T08:13:11.001Z</time></trkpt><trkpt lat="46.05738080600379" lon="12.84110031722633"><ele>99.16666666666667</ele><time>2026-04-12T08:13:12.001Z</time></trkpt><trkpt lat="46.05743937736804" lon="12.841171663865433"><ele>99.33333333333334</ele><time>2026-04-12T08:13:13.001Z</time></trkpt><trkpt lat="46.05750367893347" lon="12.841249234636836"><ele>99.5</ele><time>2026-04-12T08:13:14.001Z</time></trkpt><trkpt lat="46.05756543963332" lon="12.84132689680822"><ele>99.66666666666667</ele><time>2026-04-12T08:13:15.001Z</time></trkpt><trkpt lat="46.05762134220059" lon="12.84140928582477"><ele>99.83333333333334</ele><time>2026-04-12T08:13:16.001Z</time></trkpt><trkpt lat="46.05767605349053" lon="12.841498359809947"><ele>100.0</ele><time>2026-04-12T08:13:17.001Z</time></trkpt><trkpt lat="46.057735966268424" lon="12.841585137172506"><ele>100.0</ele><time>2026-04-12T08:13:18.001Z</time></trkpt><trkpt lat="46.0578153266899" lon="12.841692918848857"><ele>100.0</ele><time>2026-04-12T08:13:19.001Z</time></trkpt><trkpt lat="46.05789986222665" lon="12.841802918761466"><ele>100.0</ele><time>2026-04-12T08:13:20.001Z</time></trkpt><trkpt lat="46.057991710893056" lon="12.841914463770298"><ele>100.0</ele><time>2026-04-12T08:13:21.001Z</time></trkpt><trkpt lat="46.058080910563085" lon="12.842053620769818"><ele>99.66666666666667</ele><time>2026-04-12T08:13:22.001Z</time></trkpt><trkpt lat="46.05818734832427" lon="12.842192986636103"><ele>99.33333333333334</ele><time>2026-04-12T08:13:23.001Z</time></trkpt><trkpt lat="46.058303224257145" lon="12.842338000857726"><ele>99.0</ele><time>2026-04-12T08:13:24.001Z</time></trkpt><trkpt lat="46.058435343094324" lon="12.842491313268628"><ele>98.66666666666666</ele><time>2026-04-12T08:13:25.001Z</time></trkpt><trkpt lat="46.0585699739846" lon="12.842669056353843"><ele>98.33333333333333</ele><time>2026-04-12T08:13:26.001Z</time></trkpt><trkpt lat="46.05871920297365" lon="12.842872135917942"><ele>98.0</ele><time>2026-04-12T08:13:27.001Z</time></trkpt><trkpt lat="46.058850354653366" lon="12.843076405712418"><ele>98.0</ele><time>2026-04-12T08:13:28.001Z</time></trkpt><trkpt lat="46.05897332642007" lon="12.843243521001215"><ele>98.0</ele><time>2026-04-12T08:13:29.001Z</time></trkpt><trkpt lat="46.05910912664055" lon="12.843391374196045"><ele>98.0</ele><time>2026-04-12T08:13:30.001Z</time></trkpt><trkpt lat="46.059242356521096" lon="12.843564382307122"><ele>98.66666666666666</ele><time>2026-04-12T08:13:31.001Z</time></trkpt><trkpt lat="46.05937323175539" lon="12.843766376273393"><ele>99.33333333333334</ele><time>2026-04-12T08:13:32.001Z</time></trkpt><trkpt lat="46.05948223223955" lon="12.843893454971562"><ele>100.0</ele><time>2026-04-12T08:13:33.001Z</time></trkpt><trkpt lat="46.05959362302916" lon="12.84405014113837"><ele>100.0</ele><time>2026-04-12T08:13:34.001Z</time></trkpt><trkpt lat="46.05970365663057" lon="12.844199819314586"><ele>100.0</ele><time>2026-04-12T08:13:35.001Z</time></trkpt><trkpt lat="46.05981025967687" lon="12.84434164670769"><ele>100.0</ele><time>2026-04-12T08:13:36.001Z</time></trkpt><trkpt lat="46.05991374480273" lon="12.8444848515566"><ele>100.0</ele><time>2026-04-12T08:13:37.001Z</time></trkpt><trkpt lat="46.06002287934016" lon="12.844635921161455"><ele>100.0</ele><time>2026-04-12T08:13:38.001Z</time></trkpt><trkpt lat="46.0601443585891" lon="12.84479503705762"><ele>100.0</ele><time>2026-04-12T08:13:39.001Z</time></trkpt><trkpt lat="46.060252378186185" lon="12.844934380508942"><ele>100.0</ele><time>2026-04-12T08:13:40.001Z</time></trkpt><trkpt lat="46.06034302759557" lon="12.845057204695474"><ele>100.0</ele><time>2026-04-12T08:13:41.001Z</time></trkpt><trkpt lat="46.060424518506245" lon="12.845171338994907"><ele>100.0</ele><time>2026-04-12T08:13:42.001Z</time></trkpt><trkpt lat="46.06050542982568" lon="12.84528410415977"><ele>100.0</ele><time>2026-04-12T08:13:43Z</time></trkpt><trkpt lat="46.060589865300074" lon="12.84539741072759"><ele>100.0</ele><time>2026-04-12T08:13:44Z</time></trkpt><trkpt lat="46.060680637403564" lon="12.845507700652952"><ele>100.0</ele><time>2026-04-12T08:13:45Z</time></trkpt><trkpt lat="46.0607679109591" lon="12.845624911696062"><ele>100.0</ele><time>2026-04-12T08:13:46Z</time></trkpt><trkpt lat="46.06083740480404" lon="12.845748154315286"><ele>100.0</ele><time>2026-04-12T08:13:47Z</time></trkpt><trkpt lat="46.060934856477346" lon="12.845864123563024"><ele>100.0</ele><time>2026-04-12T08:13:48Z</time></trkpt><trkpt lat="46.061019372714064" lon="12.845978108903982"><ele>100.0</ele><time>2026-04-12T08:13:49Z</time></trkpt><trkpt lat="46.061105512828796" lon="12.846086466276834"><ele>100.0</ele><time>2026-04-12T08:13:50Z</time></trkpt><trkpt lat="46.061192497013" lon="12.846201153504326"><ele>100.0</ele><time>2026-04-12T08:13:51Z</time></trkpt><trkpt lat="46.06128312390739" lon="12.846324900930535"><ele>100.0</ele><time>2026-04-12T08:13:52Z</time></trkpt><trkpt lat="46.061356614582465" lon="12.846426244097112"><ele>100.0</ele><time>2026-04-12T08:13:53Z</time></trkpt><trkpt lat="46.06143208826201" lon="12.846522114892256"><ele>100.0</ele><time>2026-04-12T08:13:54Z</time></trkpt><trkpt lat="46.06151992864609" lon="12.846631342428742"><ele>100.0</ele><time>2026-04-12T08:13:55Z</time></trkpt><trkpt lat="46.06161304933024" lon="12.84675820030004"><ele>100.0</ele><time>2026-04-12T08:13:56Z</time></trkpt><trkpt lat="46.06170553873995" lon="12.846884574065422"><ele>100.0</ele><time>2026-04-12T08:13:57Z</time></trkpt><trkpt lat="46.06180290785488" lon="12.847008469051648"><ele>100.0</ele><time>2026-04-12T08:13:58Z</time></trkpt><trkpt lat="46.061924463320466" lon="12.847149781485214"><ele>100.33333333333334</ele><time>2026-04-12T08:13:59Z</time></trkpt><trkpt lat="46.06204821310363" lon="12.847280569301518"><ele>100.66666666666666</ele><time>2026-04-12T08:14:00Z</time></trkpt><trkpt lat="46.062192503784075" lon="12.84742557589844"><ele>101.0</ele><time>2026-04-12T08:14:01Z</time></trkpt><trkpt lat="46.06231531722315" lon="12.847552573369052"><ele>101.33333333333333</ele><time>2026-04-12T08:14:02Z</time></trkpt><trkpt lat="46.06243013400705" lon="12.847672595267781"><ele>101.66666666666666</ele><time>2026-04-12T08:14:03Z</time></trkpt><trkpt lat="46.062565489792384" lon="12.847805426654126"><ele>102.0</ele><time>2026-04-12T08:14:04Z</time></trkpt><trkpt lat="46.06270553300413" lon="12.847936684593796"><ele>102.0</ele><time>2026-04-12T08:14:05Z</time></trkpt><trkpt lat="46.06283057765564" lon="12.848056182049973"><ele>102.0</ele><time>2026-04-12T08:14:06Z</time></trkpt><trkpt lat="46.06294115180301" lon="12.848161634394474"><ele>102.0</ele><time>2026-04-12T08:14:07Z</time></trkpt><trkpt lat="46.06304565579341" lon="12.84826542174663"><ele>102.0</ele><time>2026-04-12T08:14:08Z</time></trkpt><trkpt lat="46.06316086072333" lon="12.848372372918197"><ele>102.0</ele><time>2026-04-12T08:14:09Z</time></trkpt><trkpt lat="46.06328026144385" lon="12.848489550572753"><ele>102.0</ele><time>2026-04-12T08:14:10Z</time></trkpt><trkpt lat="46.063400256327014" lon="12.848607250176775"><ele>102.0</ele><time>2026-04-12T08:14:11Z</time></trkpt><trkpt lat="46.06351316903995" lon="12.848717907049972"><ele>102.0</ele><time>2026-04-12T08:14:12Z</time></trkpt><trkpt lat="46.06361340268905" lon="12.84881161466195"><ele>101.66666666666667</ele><time>2026-04-12T08:14:13Z</time></trkpt><trkpt lat="46.063698330884286" lon="12.848893398702801"><ele>101.33333333333334</ele><time>2026-04-12T08:14:14Z</time></trkpt><trkpt lat="46.06376892826622" lon="12.848972875791887"><ele>101.0</ele><time>2026-04-12T08:14:15Z</time></trkpt><trkpt lat="46.06382835016507" lon="12.849050835565958"><ele>100.66666666666667</ele><time>2026-04-12T08:14:16Z</time></trkpt><trkpt lat="46.06387499808794" lon="12.84912329379768"><ele>100.33333333333334</ele><time>2026-04-12T08:14:17Z</time></trkpt><trkpt lat="46.06394164542934" lon="12.849183048226898"><ele>100.0</ele><time>2026-04-12T08:14:19Z</time></trkpt><trkpt lat="46.06380672675549" lon="12.849419145505525"><ele>100.0</ele><time>2026-04-12T08:14:20Z</time></trkpt><trkpt lat="46.06373966149017" lon="12.849569935500416"><ele>100.0</ele><time>2026-04-12T08:14:21Z</time></trkpt><trkpt lat="46.063694638316115" lon="12.849708981123962"><ele>100.0</ele><time>2026-04-12T08:14:22Z</time></trkpt><trkpt lat="46.06366743500622" lon="12.849875707068664"><ele>100.0</ele><time>2026-04-12T08:14:23Z</time></trkpt><trkpt lat="46.06368703925176" lon="12.850069975649458"><ele>99.75</ele><time>2026-04-12T08:14:24Z</time></trkpt><trkpt lat="46.063705364859466" lon="12.850267046659907"><ele>99.5</ele><time>2026-04-12T08:14:25Z</time></trkpt><trkpt lat="46.063734155023745" lon="12.850465137838382"><ele>99.25</ele><time>2026-04-12T08:14:26Z</time></trkpt><trkpt lat="46.063761071003846" lon="12.850649112859934"><ele>99.0</ele><time>2026-04-12T08:14:27Z</time></trkpt><trkpt lat="46.06378541335134" lon="12.850826037011227"><ele>99.25</ele><time>2026-04-12T08:14:28Z</time></trkpt><trkpt lat="46.06382111454449" lon="12.851008204228096"><ele>99.5</ele><time>2026-04-12T08:14:29Z</time></trkpt><trkpt lat="46.0638600657464" lon="12.851189866328701"><ele>99.75</ele><time>2026-04-12T08:14:30Z</time></trkpt><trkpt lat="46.06389492929269" lon="12.851372099321242"><ele>100.0</ele><time>2026-04-12T08:14:31Z</time></trkpt><trkpt lat="46.06392260273402" lon="12.85155948839889"><ele>100.0</ele><time>2026-04-12T08:14:32Z</time></trkpt><trkpt lat="46.06394731716825" lon="12.85173896186846"><ele>100.0</ele><time>2026-04-12T08:14:33Z</time></trkpt><trkpt lat="46.06396756883393" lon="12.851891372055702"><ele>100.0</ele><time>2026-04-12T08:14:34Z</time></trkpt><trkpt lat="46.063988707573735" lon="12.852026244693658"><ele>100.0</ele><time>2026-04-12T08:14:35Z</time></trkpt><trkpt lat="46.064012538418815" lon="12.852172534014194"><ele>100.0</ele><time>2026-04-12T08:14:36Z</time></trkpt><trkpt lat="46.06403972461123" lon="12.852331816667492"><ele>100.0</ele><time>2026-04-12T08:14:37Z</time></trkpt><trkpt lat="46.06406730471085" lon="12.85250011734025"><ele>100.0</ele><time>2026-04-12T08:14:38Z</time></trkpt><trkpt lat="46.06409608451621" lon="12.852673781173197"><ele>100.0</ele><time>2026-04-12T08:14:39Z</time></trkpt><trkpt lat="46.06412701584654" lon="12.85286298760516"><ele>100.0</ele><time>2026-04-12T08:14:40Z</time></trkpt><trkpt lat="46.06415988851659" lon="12.85306849773966"><ele>100.0</ele><time>2026-04-12T08:14:41Z</time></trkpt><trkpt lat="46.06418699972785" lon="12.853245518544234"><ele>100.0</ele><time>2026-04-12T08:14:42Z</time></trkpt><trkpt lat="46.06421095679003" lon="12.853402112109325"><ele>100.0</ele><time>2026-04-12T08:14:43Z</time></trkpt><trkpt lat="46.06423175705515" lon="12.853568769782765"><ele>100.0</ele><time>2026-04-12T08:14:44Z</time></trkpt><trkpt lat="46.064244621606" lon="12.85375167533979"><ele>100.0</ele><time>2026-04-12T08:14:45Z</time></trkpt><trkpt lat="46.06425650433416" lon="12.853943058419883"><ele>100.0</ele><time>2026-04-12T08:14:46Z</time></trkpt><trkpt lat="46.06426861190147" lon="12.85413652921093"><ele>100.0</ele><time>2026-04-12T08:14:47Z</time></trkpt><trkpt lat="46.06427511549649" lon="12.854332648073974"><ele>100.0</ele><time>2026-04-12T08:14:48Z</time></trkpt><trkpt lat="46.0642665046792" lon="12.854533439474507"><ele>99.75</ele><time>2026-04-12T08:14:49Z</time></trkpt><trkpt lat="46.06427301490348" lon="12.854740302897053"><ele>99.5</ele><time>2026-04-12T08:14:50Z</time></trkpt><trkpt lat="46.064279335347805" lon="12.854941136310387"><ele>99.25</ele><time>2026-04-12T08:14:51Z</time></trkpt><trkpt lat="46.06428700784205" lon="12.855125955032735"><ele>99.0</ele><time>2026-04-12T08:14:52Z</time></trkpt><trkpt lat="46.06429523184736" lon="12.855321092821846"><ele>99.0</ele><time>2026-04-12T08:14:53Z</time></trkpt><trkpt lat="46.06432023307607" lon="12.855519899262893"><ele>99.0</ele><time>2026-04-12T08:14:54Z</time></trkpt><trkpt lat="46.064320034765615" lon="12.855729103026661"><ele>99.0</ele><time>2026-04-12T08:14:55Z</time></trkpt><trkpt lat="46.06433488600548" lon="12.855939310984926"><ele>99.0</ele><time>2026-04-12T08:14:56Z</time></trkpt><trkpt lat="46.06434312751838" lon="12.856153017681452"><ele>98.33333333333334</ele><time>2026-04-12T08:14:57Z</time></trkpt><trkpt lat="46.06434942965518" lon="12.856366820109024"><ele>97.66666666666667</ele><time>2026-04-12T08:14:58Z</time></trkpt><trkpt lat="46.064356059466554" lon="12.856593891218521"><ele>97.0</ele><time>2026-04-12T08:14:59.001Z</time></trkpt><trkpt lat="46.06436707252753" lon="12.856813411011093"><ele>96.75</ele><time>2026-04-12T08:15:00.001Z</time></trkpt><trkpt lat="46.0643605422975" lon="12.857021846753312"><ele>96.5</ele><time>2026-04-12T08:15:01.001Z</time></trkpt><trkpt lat="46.064367047365444" lon="12.857212803780834"><ele>96.25</ele><time>2026-04-12T08:15:02.001Z</time></trkpt><trkpt lat="46.06439067561567" lon="12.85738214440149"><ele>96.0</ele><time>2026-04-12T08:15:03.001Z</time></trkpt><trkpt lat="46.06438882976569" lon="12.857537122103983"><ele>96.4</ele><time>2026-04-12T08:15:04.001Z</time></trkpt><trkpt lat="46.064402165881006" lon="12.85768423314694"><ele>96.8</ele><time>2026-04-12T08:15:05.001Z</time></trkpt><trkpt lat="46.06440681135024" lon="12.857834761009093"><ele>97.2</ele><time>2026-04-12T08:15:06.001Z</time></trkpt><trkpt lat="46.06441078324254" lon="12.857978626231443"><ele>97.60000000000001</ele><time>2026-04-12T08:15:07.001Z</time></trkpt><trkpt lat="46.06441634332227" lon="12.858108959479825"><ele>98.0</ele><time>2026-04-12T08:15:08.001Z</time></trkpt><trkpt lat="46.06441947571999" lon="12.858242852468745"><ele>98.0</ele><time>2026-04-12T08:15:09.001Z</time></trkpt><trkpt lat="46.06440978581248" lon="12.858389247660226"><ele>98.0</ele><time>2026-04-12T08:15:10.001Z</time></trkpt><trkpt lat="46.064413636859385" lon="12.858535200440718"><ele>98.0</ele><time>2026-04-12T08:15:11.001Z</time></trkpt><trkpt lat="46.0644177036787" lon="12.858665245989487"><ele>98.0</ele><time>2026-04-12T08:15:12.001Z</time></trkpt><trkpt lat="46.064422225860355" lon="12.858801862445068"><ele>98.0</ele><time>2026-04-12T08:15:13.001Z</time></trkpt><trkpt lat="46.06442646886248" lon="12.858930044717738"><ele>97.99999999999999</ele><time>2026-04-12T08:15:14.001Z</time></trkpt><trkpt lat="46.06443042369838" lon="12.85904952165877"><ele>98.0</ele><time>2026-04-12T08:15:15.001Z</time></trkpt><trkpt lat="46.064434284585346" lon="12.859166159962891"><ele>98.0</ele><time>2026-04-12T08:15:16.001Z</time></trkpt><trkpt lat="46.06443764852813" lon="12.859289801336805"><ele>98.0</ele><time>2026-04-12T08:15:17.001Z</time></trkpt><trkpt lat="46.06444058526274" lon="12.859417029772665"><ele>97.99999999999999</ele><time>2026-04-12T08:15:18.001Z</time></trkpt><trkpt lat="46.06444266741915" lon="12.859526868968416"><ele>98.0</ele><time>2026-04-12T08:15:19.001Z</time></trkpt><trkpt lat="46.064443385853274" lon="12.859625785759164"><ele>97.99999999999999</ele><time>2026-04-12T08:15:20.001Z</time></trkpt><trkpt lat="46.064444162351535" lon="12.859732697177005"><ele>98.0</ele><time>2026-04-12T08:15:21.001Z</time></trkpt><trkpt lat="46.06444568894225" lon="12.859833875720184"><ele>98.0</ele><time>2026-04-12T08:15:22.001Z</time></trkpt><trkpt lat="46.06446560159889" lon="12.860009856853576"><ele>98.0</ele><time>2026-04-12T08:15:24.001Z</time></trkpt><trkpt lat="46.06446809209465" lon="12.860103865895201"><ele>97.99999999999999</ele><time>2026-04-12T08:15:25.001Z</time></trkpt><trkpt lat="46.06446398876407" lon="12.860209399392879"><ele>98.0</ele><time>2026-04-12T08:15:26.001Z</time></trkpt><trkpt lat="46.06444955712117" lon="12.86030492027453"><ele>97.66666666666666</ele><time>2026-04-12T08:15:27.001Z</time></trkpt><trkpt lat="46.064422037360245" lon="12.86041195925189"><ele>97.33333333333333</ele><time>2026-04-12T08:15:28.001Z</time></trkpt><trkpt lat="46.06438840330386" lon="12.860511254614583"><ele>97.0</ele><time>2026-04-12T08:15:29.001Z</time></trkpt><trkpt lat="46.06432843358427" lon="12.860591645108975"><ele>96.66666666666666</ele><time>2026-04-12T08:15:30.001Z</time></trkpt><trkpt lat="46.06428522716544" lon="12.860707764078976"><ele>96.33333333333333</ele><time>2026-04-12T08:15:31.001Z</time></trkpt><trkpt lat="46.064216441536935" lon="12.860789838193217"><ele>96.0</ele><time>2026-04-12T08:15:32.001Z</time></trkpt><trkpt lat="46.064168212462974" lon="12.86088737786974"><ele>95.83333333333333</ele><time>2026-04-12T08:15:33.001Z</time></trkpt><trkpt lat="46.06411064731289" lon="12.860969921635586"><ele>95.66666666666667</ele><time>2026-04-12T08:15:34.001Z</time></trkpt><trkpt lat="46.06404712936244" lon="12.86106530349998"><ele>95.5</ele><time>2026-04-12T08:15:35.001Z</time></trkpt><trkpt lat="46.06399247748529" lon="12.861166771663642"><ele>95.33333333333334</ele><time>2026-04-12T08:15:36.001Z</time></trkpt><trkpt lat="46.063942366770696" lon="12.861260714719842"><ele>95.16666666666667</ele><time>2026-04-12T08:15:37.001Z</time></trkpt><trkpt lat="46.06388604297382" lon="12.861354818409643"><ele>95.0</ele><time>2026-04-12T08:15:38.001Z</time></trkpt><trkpt lat="46.06384008285555" lon="12.861441808908635"><ele>95.0</ele><time>2026-04-12T08:15:39.001Z</time></trkpt><trkpt lat="46.06379759619879" lon="12.861523108755152"><ele>95.0</ele><time>2026-04-12T08:15:40.001Z</time></trkpt><trkpt lat="46.06374652283991" lon="12.861608488515625"><ele>95.0</ele><time>2026-04-12T08:15:41.001Z</time></trkpt><trkpt lat="46.06369492006663" lon="12.861705949636793"><ele>95.0</ele><time>2026-04-12T08:15:42.001Z</time></trkpt><trkpt lat="46.06364892582427" lon="12.86180828178758"><ele>95.0</ele><time>2026-04-12T08:15:43.001Z</time></trkpt><trkpt lat="46.06361813306588" lon="12.86190569263364"><ele>95.0</ele><time>2026-04-12T08:15:44.001Z</time></trkpt><trkpt lat="46.06359670565006" lon="12.862015553998923"><ele>95.0</ele><time>2026-04-12T08:15:45.001Z</time></trkpt><trkpt lat="46.06357566106292" lon="12.862116244897079"><ele>95.0</ele><time>2026-04-12T08:15:46.001Z</time></trkpt><trkpt lat="46.06355900882879" lon="12.862250130611084"><ele>95.0</ele><time>2026-04-12T08:15:48.001Z</time></trkpt><trkpt lat="46.063532846170624" lon="12.862335006743814"><ele>95.0</ele><time>2026-04-12T08:15:49Z</time></trkpt><trkpt lat="46.06352677640484" lon="12.862455897457327"><ele>95.0</ele><time>2026-04-12T08:15:50Z</time></trkpt><trkpt lat="46.06351277143617" lon="12.862596299639343"><ele>95.0</ele><time>2026-04-12T08:15:51Z</time></trkpt><trkpt lat="46.06349752756201" lon="12.86280374401194"><ele>95.0</ele><time>2026-04-12T08:15:52Z</time></trkpt><trkpt lat="46.063485516599236" lon="12.863053295904157"><ele>95.0</ele><time>2026-04-12T08:15:53Z</time></trkpt><trkpt lat="46.06347705655207" lon="12.863322427263435"><ele>95.0</ele><time>2026-04-12T08:15:54Z</time></trkpt><trkpt lat="46.063458045288684" lon="12.86355179732332"><ele>95.0</ele><time>2026-04-12T08:15:55Z</time></trkpt><trkpt lat="46.0634526021729" lon="12.863783360018596"><ele>95.0</ele><time>2026-04-12T08:15:56Z</time></trkpt><trkpt lat="46.06344646370875" lon="12.864016045929464"><ele>95.0</ele><time>2026-04-12T08:15:57Z</time></trkpt><trkpt lat="46.06343791247848" lon="12.864254731292402"><ele>94.33333333333334</ele><time>2026-04-12T08:15:58Z</time></trkpt><trkpt lat="46.06342790794822" lon="12.864532088023559"><ele>93.66666666666667</ele><time>2026-04-12T08:15:59Z</time></trkpt><trkpt lat="46.06340940534578" lon="12.864790402852002"><ele>93.0</ele><time>2026-04-12T08:16:00Z</time></trkpt><trkpt lat="46.06338902233586" lon="12.865014421038182"><ele>92.75</ele><time>2026-04-12T08:16:01Z</time></trkpt><trkpt lat="46.06338080005281" lon="12.865214753789312"><ele>92.5</ele><time>2026-04-12T08:16:02Z</time></trkpt><trkpt lat="46.063370413024884" lon="12.865406618767127"><ele>92.25</ele><time>2026-04-12T08:16:03Z</time></trkpt><trkpt lat="46.063363975845625" lon="12.865579403442874"><ele>92.0</ele><time>2026-04-12T08:16:04Z</time></trkpt><trkpt lat="46.06335852092337" lon="12.865748895574427"><ele>92.0</ele><time>2026-04-12T08:16:05Z</time></trkpt><trkpt lat="46.063350211538975" lon="12.865890951600083"><ele>92.0</ele><time>2026-04-12T08:16:06Z</time></trkpt><trkpt lat="46.06335054238654" lon="12.866011532959574"><ele>92.0</ele><time>2026-04-12T08:16:07Z</time></trkpt><trkpt lat="46.06336866231809" lon="12.86610250322703"><ele>92.0</ele><time>2026-04-12T08:16:08Z</time></trkpt><trkpt lat="46.06337259959629" lon="12.866194145525466"><ele>92.0</ele><time>2026-04-12T08:17:23.001Z</time></trkpt><trkpt lat="46.06342792409802" lon="12.866300145414824"><ele>92.0</ele><time>2026-04-12T08:17:25.001Z</time></trkpt><trkpt lat="46.063466654083534" lon="12.866375189145868"><ele>92.0</ele><time>2026-04-12T08:17:26.001Z</time></trkpt><trkpt lat="46.063500947622785" lon="12.866501205798832"><ele>92.0</ele><time>2026-04-12T08:17:27.001Z</time></trkpt><trkpt lat="46.0635554544776" lon="12.866610384018022"><ele>92.0</ele><time>2026-04-12T08:17:28.001Z</time></trkpt><trkpt lat="46.06362159953987" lon="12.866702847591633"><ele>92.0</ele><time>2026-04-12T08:17:29.001Z</time></trkpt><trkpt lat="46.06366952731096" lon="12.866819154447013"><ele>92.0</ele><time>2026-04-12T08:17:30.001Z</time></trkpt><trkpt lat="46.06371282792862" lon="12.866951871330011"><ele>92.0</ele><time>2026-04-12T08:17:31.001Z</time></trkpt><trkpt lat="46.06374806041932" lon="12.867093193489888"><ele>92.0</ele><time>2026-04-12T08:17:32.001Z</time></trkpt><trkpt lat="46.06377938875761" lon="12.867278408719674"><ele>92.0</ele><time>2026-04-12T08:17:33.001Z</time></trkpt><trkpt lat="46.063801186635544" lon="12.867459544169138"><ele>92.0</ele><time>2026-04-12T08:17:34.001Z</time></trkpt><trkpt lat="46.063814586980605" lon="12.867637864367948"><ele>92.0</ele><time>2026-04-12T08:17:35.001Z</time></trkpt><trkpt lat="46.06381617641379" lon="12.867811037961904"><ele>92.0</ele><time>2026-04-12T08:17:36.001Z</time></trkpt><trkpt lat="46.06380315294538" lon="12.867988799920397"><ele>92.0</ele><time>2026-04-12T08:17:37.001Z</time></trkpt><trkpt lat="46.06377935209653" lon="12.86818133035165"><ele>92.0</ele><time>2026-04-12T08:17:38.001Z</time></trkpt><trkpt lat="46.06374781847784" lon="12.868420847218516"><ele>92.33333333333334</ele><time>2026-04-12T08:17:39.001Z</time></trkpt><trkpt lat="46.06370663435647" lon="12.868694893971487"><ele>92.66666666666667</ele><time>2026-04-12T08:17:40.001Z</time></trkpt><trkpt lat="46.06367201054913" lon="12.868944396753514"><ele>93.0</ele><time>2026-04-12T08:17:41.001Z</time></trkpt><trkpt lat="46.06363983686991" lon="12.869181772047265"><ele>92.66666666666667</ele><time>2026-04-12T08:17:42.001Z</time></trkpt><trkpt lat="46.06360995682319" lon="12.869400884262243"><ele>92.33333333333334</ele><time>2026-04-12T08:17:43.001Z</time></trkpt><trkpt lat="46.06358133442964" lon="12.869626627866797"><ele>92.0</ele><time>2026-04-12T08:17:44.001Z</time></trkpt><trkpt lat="46.06355462750026" lon="12.869852111321034"><ele>92.0</ele><time>2026-04-12T08:17:45.001Z</time></trkpt><trkpt lat="46.063533221042825" lon="12.870075126627425"><ele>92.0</ele><time>2026-04-12T08:17:46.001Z</time></trkpt><trkpt lat="46.063526429093166" lon="12.870313989485927"><ele>92.0</ele><time>2026-04-12T08:17:47.001Z</time></trkpt><trkpt lat="46.06352572187022" lon="12.870568540003113"><ele>92.33333333333334</ele><time>2026-04-12T08:17:48.001Z</time></trkpt><trkpt lat="46.06352861104561" lon="12.87082315427378"><ele>92.66666666666667</ele><time>2026-04-12T08:17:49.001Z</time></trkpt><trkpt lat="46.063531285186926" lon="12.871077016235432"><ele>93.0</ele><time>2026-04-12T08:17:50.001Z</time></trkpt><trkpt lat="46.0635304654992" lon="12.871320867704034"><ele>93.0</ele><time>2026-04-12T08:17:51.001Z</time></trkpt><trkpt lat="46.06352640111606" lon="12.871531806336082"><ele>93.0</ele><time>2026-04-12T08:17:52.001Z</time></trkpt><trkpt lat="46.06351869708622" lon="12.871747395581913"><ele>93.0</ele><time>2026-04-12T08:17:53.001Z</time></trkpt><trkpt lat="46.0635090195579" lon="12.871959484130475"><ele>93.0</ele><time>2026-04-12T08:17:54.001Z</time></trkpt><trkpt lat="46.06350741331885" lon="12.872150414501167"><ele>92.66666666666667</ele><time>2026-04-12T08:17:55Z</time></trkpt><trkpt lat="46.06351406348407" lon="12.8723696062184"><ele>92.33333333333334</ele><time>2026-04-12T08:17:56Z</time></trkpt><trkpt lat="46.063530807389014" lon="12.87260866365008"><ele>92.0</ele><time>2026-04-12T08:17:57Z</time></trkpt><trkpt lat="46.06355902443628" lon="12.872862136173934"><ele>92.0</ele><time>2026-04-12T08:17:58Z</time></trkpt><trkpt lat="46.06356812533859" lon="12.873106127438568"><ele>92.0</ele><time>2026-04-12T08:17:59Z</time></trkpt><trkpt lat="46.06358342489871" lon="12.873315199473563"><ele>92.0</ele><time>2026-04-12T08:18:00Z</time></trkpt><trkpt lat="46.06359713554401" lon="12.873527575168504"><ele>92.66666666666667</ele><time>2026-04-12T08:18:01Z</time></trkpt><trkpt lat="46.063624849684736" lon="12.873733673368777"><ele>93.33333333333333</ele><time>2026-04-12T08:18:02Z</time></trkpt><trkpt lat="46.06362394566171" lon="12.873958586227038"><ele>94.0</ele><time>2026-04-12T08:18:03Z</time></trkpt><trkpt lat="46.06363000591913" lon="12.874187755982215"><ele>94.0</ele><time>2026-04-12T08:18:04Z</time></trkpt><trkpt lat="46.06363581773461" lon="12.874425781308958"><ele>94.0</ele><time>2026-04-12T08:18:05Z</time></trkpt><trkpt lat="46.06364289671449" lon="12.874660433728742"><ele>94.0</ele><time>2026-04-12T08:18:06Z</time></trkpt><trkpt lat="46.06365297635112" lon="12.874893854389548"><ele>93.33333333333333</ele><time>2026-04-12T08:18:07Z</time></trkpt><trkpt lat="46.06366151663328" lon="12.875125506499423"><ele>92.66666666666667</ele><time>2026-04-12T08:18:08Z</time></trkpt><trkpt lat="46.06366572082472" lon="12.875357600944168"><ele>92.0</ele><time>2026-04-12T08:18:09Z</time></trkpt><trkpt lat="46.06367183905265" lon="12.875584424746847"><ele>92.0</ele><time>2026-04-12T08:18:10Z</time></trkpt><trkpt lat="46.063679382543036" lon="12.875812412500633"><ele>92.0</ele><time>2026-04-12T08:18:11Z</time></trkpt><trkpt lat="46.063696518696965" lon="12.876040111000313"><ele>92.0</ele><time>2026-04-12T08:18:12Z</time></trkpt><trkpt lat="46.063712248436794" lon="12.876265077222856"><ele>91.66666666666667</ele><time>2026-04-12T08:18:13Z</time></trkpt><trkpt lat="46.06373767539939" lon="12.876487145440755"><ele>91.33333333333333</ele><time>2026-04-12T08:18:14Z</time></trkpt><trkpt lat="46.063773989877376" lon="12.876742041739808"><ele>91.0</ele><time>2026-04-12T08:18:15Z</time></trkpt><trkpt lat="46.06382058151684" lon="12.877007829257847"><ele>91.0</ele><time>2026-04-12T08:18:16Z</time></trkpt><trkpt lat="46.06386442515283" lon="12.877235289097744"><ele>91.0</ele><time>2026-04-12T08:18:17Z</time></trkpt><trkpt lat="46.06390191447619" lon="12.877444250958732"><ele>91.0</ele><time>2026-04-12T08:18:18Z</time></trkpt><trkpt lat="46.06393736647392" lon="12.877659175438163"><ele>91.33333333333333</ele><time>2026-04-12T08:18:19Z</time></trkpt><trkpt lat="46.06396099366138" lon="12.877881407123706"><ele>91.66666666666667</ele><time>2026-04-12T08:18:20Z</time></trkpt><trkpt lat="46.0639833121886" lon="12.87813387574355"><ele>92.0</ele><time>2026-04-12T08:18:21Z</time></trkpt><trkpt lat="46.064001076480075" lon="12.878398227363077"><ele>91.66666666666667</ele><time>2026-04-12T08:18:22Z</time></trkpt><trkpt lat="46.06401608282191" lon="12.878661607000797"><ele>91.33333333333333</ele><time>2026-04-12T08:18:23Z</time></trkpt><trkpt lat="46.0640245976035" lon="12.878921189997481"><ele>91.0</ele><time>2026-04-12T08:18:24Z</time></trkpt><trkpt lat="46.06403002872108" lon="12.879188796606995"><ele>91.0</ele><time>2026-04-12T08:18:25Z</time></trkpt><trkpt lat="46.064029130238914" lon="12.879438390300967"><ele>91.0</ele><time>2026-04-12T08:18:26Z</time></trkpt><trkpt lat="46.064022113760416" lon="12.879652484625645"><ele>91.0</ele><time>2026-04-12T08:18:27Z</time></trkpt><trkpt lat="46.06401933367856" lon="12.87984665773679"><ele>91.0</ele><time>2026-04-12T08:18:28Z</time></trkpt><trkpt lat="46.064024269138024" lon="12.880030736294104"><ele>91.0</ele><time>2026-04-12T08:18:29Z</time></trkpt><trkpt lat="46.06403333791881" lon="12.880211334935714"><ele>91.0</ele><time>2026-04-12T08:18:30Z</time></trkpt><trkpt lat="46.06404740246668" lon="12.880395531046574"><ele>91.0</ele><time>2026-04-12T08:18:31Z</time></trkpt><trkpt lat="46.0640665174202" lon="12.880557828917214"><ele>91.0</ele><time>2026-04-12T08:18:32Z</time></trkpt><trkpt lat="46.064085420769935" lon="12.880699455419595"><ele>91.0</ele><time>2026-04-12T08:18:33Z</time></trkpt><trkpt lat="46.06410157529638" lon="12.880814299495649"><ele>91.0</ele><time>2026-04-12T08:18:34Z</time></trkpt><trkpt lat="46.06411705693996" lon="12.880905921004628"><ele>91.0</ele><time>2026-04-12T08:18:35Z</time></trkpt><trkpt lat="46.06413670341471" lon="12.88099363734933"><ele>91.0</ele><time>2026-04-12T08:18:36Z</time></trkpt><trkpt lat="46.06414880283973" lon="12.881091612538148"><ele>91.0</ele><time>2026-04-12T08:18:37Z</time></trkpt><trkpt lat="46.06415342030374" lon="12.881199273414992"><ele>91.0</ele><time>2026-04-12T08:18:38Z</time></trkpt><trkpt lat="46.06417666929185" lon="12.881316746463963"><ele>91.0</ele><time>2026-04-12T08:18:39Z</time></trkpt><trkpt lat="46.06423070847338" lon="12.881492980357221"><ele>91.0</ele><time>2026-04-12T08:18:40Z</time></trkpt><trkpt lat="46.064282728833405" lon="12.881682055330517"><ele>91.0</ele><time>2026-04-12T08:18:41Z</time></trkpt><trkpt lat="46.064334121753404" lon="12.881871458746811"><ele>90.8</ele><time>2026-04-12T08:18:42Z</time></trkpt><trkpt lat="46.06437875822959" lon="12.882040966715678"><ele>90.6</ele><time>2026-04-12T08:18:43Z</time></trkpt><trkpt lat="46.06441822046262" lon="12.882195083798887"><ele>90.4</ele><time>2026-04-12T08:18:44Z</time></trkpt><trkpt lat="46.06444676571633" lon="12.882314166295837"><ele>90.2</ele><time>2026-04-12T08:18:45Z</time></trkpt><trkpt lat="46.06446541880144" lon="12.882436954885693"><ele>90.0</ele><time>2026-04-12T08:18:47Z</time></trkpt><trkpt lat="46.064489343737705" lon="12.88255204077408"><ele>90.4</ele><time>2026-04-12T08:19:19.001Z</time></trkpt><trkpt lat="46.06450122124279" lon="12.882667805060336"><ele>90.8</ele><time>2026-04-12T08:19:20.001Z</time></trkpt><trkpt lat="46.06455369855941" lon="12.882795911428687"><ele>91.19999999999999</ele><time>2026-04-12T08:19:21.001Z</time></trkpt><trkpt lat="46.06460576844262" lon="12.882950508531225"><ele>91.6</ele><time>2026-04-12T08:19:22.001Z</time></trkpt><trkpt lat="46.06465216985973" lon="12.883120545252268"><ele>92.0</ele><time>2026-04-12T08:19:23.001Z</time></trkpt><trkpt lat="46.06469275168903" lon="12.883309473147207"><ele>92.0</ele><time>2026-04-12T08:19:24.001Z</time></trkpt><trkpt lat="46.06473214692523" lon="12.883512281551328"><ele>92.0</ele><time>2026-04-12T08:19:25.001Z</time></trkpt><trkpt lat="46.06477395073511" lon="12.88372391533836"><ele>92.0</ele><time>2026-04-12T08:19:26.001Z</time></trkpt><trkpt lat="46.064816868133285" lon="12.883938628140292"><ele>92.0</ele><time>2026-04-12T08:19:27.001Z</time></trkpt><trkpt lat="46.064857888517665" lon="12.884152118248977"><ele>92.0</ele><time>2026-04-12T08:19:28.001Z</time></trkpt><trkpt lat="46.06489796041818" lon="12.884361689531346"><ele>92.0</ele><time>2026-04-12T08:19:29.001Z</time></trkpt><trkpt lat="46.064935169514186" lon="12.884565638343943"><ele>91.75</ele><time>2026-04-12T08:19:30.001Z</time></trkpt><trkpt lat="46.06497730749849" lon="12.88476085906503"><ele>91.5</ele><time>2026-04-12T08:19:31.001Z</time></trkpt><trkpt lat="46.06502631512509" lon="12.88494734861484"><ele>91.25</ele><time>2026-04-12T08:19:32.001Z</time></trkpt><trkpt lat="46.065080431377034" lon="12.885125978785531"><ele>91.0</ele><time>2026-04-12T08:19:33.001Z</time></trkpt><trkpt lat="46.06514162789861" lon="12.885296922663748"><ele>91.0</ele><time>2026-04-12T08:19:34.001Z</time></trkpt><trkpt lat="46.06521104747897" lon="12.885479063141668"><ele>91.0</ele><time>2026-04-12T08:19:35.001Z</time></trkpt><trkpt lat="46.06528354031101" lon="12.885674770782947"><ele>91.0</ele><time>2026-04-12T08:19:36.001Z</time></trkpt><trkpt lat="46.06535155641396" lon="12.885856700182652"><ele>91.0</ele><time>2026-04-12T08:19:37.001Z</time></trkpt><trkpt lat="46.06541348606198" lon="12.886022626681667"><ele>91.25</ele><time>2026-04-12T08:19:38.001Z</time></trkpt><trkpt lat="46.06547131795757" lon="12.886182148862716"><ele>91.5</ele><time>2026-04-12T08:19:39.001Z</time></trkpt><trkpt lat="46.06552926203405" lon="12.886329282669333"><ele>91.75</ele><time>2026-04-12T08:19:40.001Z</time></trkpt><trkpt lat="46.06558544221853" lon="12.886463449268726"><ele>92.0</ele><time>2026-04-12T08:19:41.001Z</time></trkpt><trkpt lat="46.06563519001634" lon="12.88659207759912"><ele>92.0</ele><time>2026-04-12T08:19:42.001Z</time></trkpt><trkpt lat="46.06566921945132" lon="12.88672033217004"><ele>92.0</ele><time>2026-04-12T08:19:43.001Z</time></trkpt><trkpt lat="46.065694582682475" lon="12.88684014914313"><ele>92.0</ele><time>2026-04-12T08:19:44.001Z</time></trkpt><trkpt lat="46.06571069281369" lon="12.88695508622767"><ele>92.0</ele><time>2026-04-12T08:19:45.001Z</time></trkpt><trkpt lat="46.06572211309739" lon="12.887050228776243"><ele>92.0</ele><time>2026-04-12T08:19:46.001Z</time></trkpt><trkpt lat="46.065723825073995" lon="12.887172311075627"><ele>92.0</ele><time>2026-04-12T08:19:50.001Z</time></trkpt><trkpt lat="46.06569083916125" lon="12.887256435228611"><ele>92.0</ele><time>2026-04-12T08:19:51.001Z</time></trkpt><trkpt lat="46.065521975615546" lon="12.887306148952277"><ele>92.0</ele><time>2026-04-12T08:19:52.001Z</time></trkpt><trkpt lat="46.06538731982745" lon="12.887415221186773"><ele>92.0</ele><time>2026-04-12T08:19:53.001Z</time></trkpt><trkpt lat="46.065247989176804" lon="12.887540400866206"><ele>92.0</ele><time>2026-04-12T08:19:54.001Z</time></trkpt><trkpt lat="46.065130805413595" lon="12.887644788252267"><ele>92.0</ele><time>2026-04-12T08:19:55.001Z</time></trkpt><trkpt lat="46.065027632124384" lon="12.887734169405016"><ele>92.0</ele><time>2026-04-12T08:19:56.001Z</time></trkpt><trkpt lat="46.06494364988477" lon="12.887808959579218"><ele>92.0</ele><time>2026-04-12T08:19:57.001Z</time></trkpt><trkpt lat="46.0648840105711" lon="12.887872408185652"><ele>92.0</ele><time>2026-04-12T08:19:58.001Z</time></trkpt><trkpt lat="46.06481569244615" lon="12.887941505634535"><ele>92.0</ele><time>2026-04-12T08:20:00.001Z</time></trkpt><trkpt lat="46.064954914697424" lon="12.888117991709839"><ele>92.0</ele><time>2026-04-12T08:20:03Z</time></trkpt><trkpt lat="46.06506635297701" lon="12.888181333625663"><ele>92.0</ele><time>2026-04-12T08:20:04Z</time></trkpt><trkpt lat="46.06520691113872" lon="12.888249624998007"><ele>92.0</ele><time>2026-04-12T08:20:05Z</time></trkpt><trkpt lat="46.065371761163036" lon="12.888329718423224"><ele>92.0</ele><time>2026-04-12T08:20:06Z</time></trkpt><trkpt lat="46.06551980637476" lon="12.888401647234097"><ele>92.0</ele><time>2026-04-12T08:20:07Z</time></trkpt><trkpt lat="46.0656426523277" lon="12.888461967347325"><ele>91.66666666666667</ele><time>2026-04-12T08:20:08Z</time></trkpt><trkpt lat="46.06574401405002" lon="12.888512840180619"><ele>91.33333333333334</ele><time>2026-04-12T08:20:09Z</time></trkpt><trkpt lat="46.065835653988074" lon="12.888537911360315"><ele>91.0</ele><time>2026-04-12T08:20:10Z</time></trkpt><trkpt lat="46.06590395170699" lon="12.888602874011092"><ele>90.66666666666667</ele><time>2026-04-12T08:20:11Z</time></trkpt><trkpt lat="46.0659594192407" lon="12.888681667800189"><ele>90.33333333333333</ele><time>2026-04-12T08:20:12Z</time></trkpt><trkpt lat="46.06599704054291" lon="12.888768123618883"><ele>90.0</ele><time>2026-04-12T08:20:13Z</time></trkpt><trkpt lat="46.066022693472" lon="12.888864733068528"><ele>90.0</ele><time>2026-04-12T08:20:14Z</time></trkpt><trkpt lat="46.06604455506503" lon="12.888972921942194"><ele>90.0</ele><time>2026-04-12T08:20:15Z</time></trkpt><trkpt lat="46.066063763354826" lon="12.889080867712318"><ele>90.0</ele><time>2026-04-12T08:20:16Z</time></trkpt><trkpt lat="46.06608705346724" lon="12.889193953725748"><ele>90.0</ele><time>2026-04-12T08:20:17Z</time></trkpt><trkpt lat="46.06611440320228" lon="12.88930901087522"><ele>90.0</ele><time>2026-04-12T08:20:18Z</time></trkpt><trkpt lat="46.066142065601994" lon="12.889428470680846"><ele>90.0</ele><time>2026-04-12T08:20:19Z</time></trkpt><trkpt lat="46.066170624660266" lon="12.889551232490447"><ele>90.0</ele><time>2026-04-12T08:20:20Z</time></trkpt><trkpt lat="46.06619777265884" lon="12.889675388435185"><ele>90.0</ele><time>2026-04-12T08:20:21Z</time></trkpt><trkpt lat="46.066227995782114" lon="12.889806220221669"><ele>90.0</ele><time>2026-04-12T08:20:22Z</time></trkpt><trkpt lat="46.06625318032788" lon="12.889946235614442"><ele>90.0</ele><time>2026-04-12T08:20:23Z</time></trkpt><trkpt lat="46.06628234600023" lon="12.890088892261518"><ele>90.0</ele><time>2026-04-12T08:20:24Z</time></trkpt><trkpt lat="46.06630439981573" lon="12.890218861144755"><ele>90.0</ele><time>2026-04-12T08:20:25Z</time></trkpt><trkpt lat="46.06631799588034" lon="12.890337772051595"><ele>90.0</ele><time>2026-04-12T08:20:26Z</time></trkpt><trkpt lat="46.06632589630547" lon="12.890447160152597"><ele>90.0</ele><time>2026-04-12T08:20:27Z</time></trkpt><trkpt lat="46.066329880049736" lon="12.890557332288013"><ele>90.0</ele><time>2026-04-12T08:20:28Z</time></trkpt><trkpt lat="46.066328956810196" lon="12.89067974551226"><ele>90.0</ele><time>2026-04-12T08:20:29Z</time></trkpt><trkpt lat="46.06631805866742" lon="12.890810475524937"><ele>90.0</ele><time>2026-04-12T08:20:30Z</time></trkpt><trkpt lat="46.06630184277332" lon="12.890951621728071"><ele>90.0</ele><time>2026-04-12T08:20:31Z</time></trkpt><trkpt lat="46.06628262067521" lon="12.891103210793162"><ele>90.0</ele><time>2026-04-12T08:20:32Z</time></trkpt><trkpt lat="46.06626297940648" lon="12.891254072722342"><ele>90.0</ele><time>2026-04-12T08:20:33Z</time></trkpt><trkpt lat="46.066245749083365" lon="12.891386500248306"><ele>90.0</ele><time>2026-04-12T08:20:34Z</time></trkpt><trkpt lat="46.06622914777227" lon="12.891506266675952"><ele>90.0</ele><time>2026-04-12T08:20:35Z</time></trkpt><trkpt lat="46.0662130879863" lon="12.8916186861338"><ele>90.0</ele><time>2026-04-12T08:20:36Z</time></trkpt><trkpt lat="46.066198058716175" lon="12.891735086687788"><ele>90.0</ele><time>2026-04-12T08:20:37Z</time></trkpt><trkpt lat="46.0661884535839" lon="12.891860402153798"><ele>90.0</ele><time>2026-04-12T08:20:38Z</time></trkpt><trkpt lat="46.06617987652902" lon="12.891991102973359"><ele>90.0</ele><time>2026-04-12T08:20:39Z</time></trkpt><trkpt lat="46.06616661591479" lon="12.892122457554596"><ele>90.0</ele><time>2026-04-12T08:20:40Z</time></trkpt><trkpt lat="46.066150769361364" lon="12.892255597152223"><ele>90.0</ele><time>2026-04-12T08:20:41Z</time></trkpt><trkpt lat="46.06613770766949" lon="12.892387383036503"><ele>89.8</ele><time>2026-04-12T08:20:42Z</time></trkpt><trkpt lat="46.06612618763999" lon="12.892509490152241"><ele>89.6</ele><time>2026-04-12T08:20:43Z</time></trkpt><trkpt lat="46.06611133979595" lon="12.89261700847813"><ele>89.4</ele><time>2026-04-12T08:20:44Z</time></trkpt><trkpt lat="46.06609790637712" lon="12.892736575370309"><ele>89.2</ele><time>2026-04-12T08:20:46Z</time></trkpt><trkpt lat="46.06592323225815" lon="12.892752846342324"><ele>89.0</ele><time>2026-04-12T08:20:49Z</time></trkpt><trkpt lat="46.065815194889595" lon="12.89272764679394"><ele>88.0</ele><time>2026-04-12T08:20:50Z</time></trkpt><trkpt lat="46.06567041785636" lon="12.89272120681446"><ele>87.0</ele><time>2026-04-12T08:20:51Z</time></trkpt><trkpt lat="46.065496960551556" lon="12.892674766436935"><ele>86.0</ele><time>2026-04-12T08:20:52Z</time></trkpt><trkpt lat="46.0653395526136" lon="12.892644034632015"><ele>86.0</ele><time>2026-04-12T08:20:53Z</time></trkpt><trkpt lat="46.065202717321576" lon="12.892620824453077"><ele>86.0</ele><time>2026-04-12T08:20:54Z</time></trkpt><trkpt lat="46.06506387130964" lon="12.892610401203282"><ele>86.0</ele><time>2026-04-12T08:20:55Z</time></trkpt><trkpt lat="46.06492455694251" lon="12.89261626071133"><ele>86.0</ele><time>2026-04-12T08:20:56Z</time></trkpt><trkpt lat="46.064789080095764" lon="12.892614061328542"><ele>85.25</ele><time>2026-04-12T08:20:57Z</time></trkpt><trkpt lat="46.06466554372296" lon="12.892685231122547"><ele>84.5</ele><time>2026-04-12T08:20:58Z</time></trkpt><trkpt lat="46.064553700573704" lon="12.892748810924429"><ele>83.75</ele><time>2026-04-12T08:20:59Z</time></trkpt><trkpt lat="46.06444775002432" lon="12.892837470841894"><ele>83.0</ele><time>2026-04-12T08:21:00Z</time></trkpt><trkpt lat="46.06434971641936" lon="12.892947332361256"><ele>83.0</ele><time>2026-04-12T08:21:01Z</time></trkpt><trkpt lat="46.06425100832502" lon="12.893095642578709"><ele>83.0</ele><time>2026-04-12T08:21:02Z</time></trkpt><trkpt lat="46.06414705101473" lon="12.893275955576618"><ele>83.0</ele><time>2026-04-12T08:21:03Z</time></trkpt><trkpt lat="46.064027538538056" lon="12.89348669102657"><ele>84.0</ele><time>2026-04-12T08:21:04Z</time></trkpt><trkpt lat="46.06392008432244" lon="12.893669390985348"><ele>85.0</ele><time>2026-04-12T08:21:05Z</time></trkpt><trkpt lat="46.06382397285767" lon="12.893825188952842"><ele>86.0</ele><time>2026-04-12T08:21:06Z</time></trkpt><trkpt lat="46.063730327329694" lon="12.89397706008677"><ele>86.0</ele><time>2026-04-12T08:21:07Z</time></trkpt><trkpt lat="46.06363117046265" lon="12.894133559092575"><ele>86.0</ele><time>2026-04-12T08:21:08Z</time></trkpt><trkpt lat="46.06352542287835" lon="12.894294782134322"><ele>86.0</ele><time>2026-04-12T08:21:09Z</time></trkpt><trkpt lat="46.06340313595831" lon="12.894456703005602"><ele>85.33333333333334</ele><time>2026-04-12T08:21:10Z</time></trkpt><trkpt lat="46.06326897859478" lon="12.894618952892179"><ele>84.66666666666667</ele><time>2026-04-12T08:21:11Z</time></trkpt><trkpt lat="46.063126875453" lon="12.89478399252485"><ele>84.0</ele><time>2026-04-12T08:21:12Z</time></trkpt><trkpt lat="46.06297616752337" lon="12.894947768900494"><ele>84.33333333333333</ele><time>2026-04-12T08:21:13Z</time></trkpt><trkpt lat="46.06283259910959" lon="12.895092599921673"><ele>84.66666666666666</ele><time>2026-04-12T08:21:14Z</time></trkpt><trkpt lat="46.06269583500932" lon="12.895236773645834"><ele>85.0</ele><time>2026-04-12T08:21:15.001Z</time></trkpt><trkpt lat="46.06256231195787" lon="12.895382743844602"><ele>84.25</ele><time>2026-04-12T08:21:16.001Z</time></trkpt><trkpt lat="46.062444768310556" lon="12.89551353700299"><ele>83.5</ele><time>2026-04-12T08:21:17.001Z</time></trkpt><trkpt lat="46.06232855394183" lon="12.895583473688514"><ele>82.75</ele><time>2026-04-12T08:21:18.001Z</time></trkpt><trkpt lat="46.062227225199656" lon="12.895638075490083"><ele>82.0</ele><time>2026-04-12T08:21:19.001Z</time></trkpt><trkpt lat="46.062126967845266" lon="12.895680843583333"><ele>82.0</ele><time>2026-04-12T08:21:20.001Z</time></trkpt><trkpt lat="46.062036259581916" lon="12.895734153458994"><ele>82.0</ele><time>2026-04-12T08:21:21.001Z</time></trkpt><trkpt lat="46.06194705517881" lon="12.895746132479925"><ele>82.0</ele><time>2026-04-12T08:21:22.001Z</time></trkpt><trkpt lat="46.06186239555483" lon="12.8957681258666"><ele>82.0</ele><time>2026-04-12T08:21:23.001Z</time></trkpt><trkpt lat="46.06178740095819" lon="12.895806307238598"><ele>82.0</ele><time>2026-04-12T08:21:24.001Z</time></trkpt><trkpt lat="46.06170870824493" lon="12.895850346417085"><ele>82.0</ele><time>2026-04-12T08:21:25.001Z</time></trkpt><trkpt lat="46.061629974234705" lon="12.895895323781444"><ele>82.39999999999999</ele><time>2026-04-12T08:21:26.001Z</time></trkpt><trkpt lat="46.06155023457758" lon="12.895949634885037"><ele>82.8</ele><time>2026-04-12T08:21:27.001Z</time></trkpt><trkpt lat="46.06147026753644" lon="12.896014904322772"><ele>83.2</ele><time>2026-04-12T08:21:28.001Z</time></trkpt><trkpt lat="46.06138654251077" lon="12.896083061671044"><ele>83.6</ele><time>2026-04-12T08:21:29.001Z</time></trkpt><trkpt lat="46.061295042141445" lon="12.8961493547477"><ele>84.0</ele><time>2026-04-12T08:21:30.001Z</time></trkpt><trkpt lat="46.061214972035636" lon="12.896203202748891"><ele>84.0</ele><time>2026-04-12T08:21:31.001Z</time></trkpt><trkpt lat="46.06113159183423" lon="12.89627472306942"><ele>84.0</ele><time>2026-04-12T08:21:33.001Z</time></trkpt><trkpt lat="46.06124051765218" lon="12.896416952481772"><ele>84.0</ele><time>2026-04-12T08:21:38.001Z</time></trkpt><trkpt lat="46.06139468889148" lon="12.89646062112771"><ele>84.0</ele><time>2026-04-12T08:21:39.001Z</time></trkpt><trkpt lat="46.06156438148069" lon="12.896504633926105"><ele>84.0</ele><time>2026-04-12T08:21:40.001Z</time></trkpt><trkpt lat="46.061730877197085" lon="12.896522485958167"><ele>84.0</ele><time>2026-04-12T08:21:41.001Z</time></trkpt><trkpt lat="46.06189868977017" lon="12.896562539663817"><ele>84.0</ele><time>2026-04-12T08:21:42.001Z</time></trkpt><trkpt lat="46.06204727817988" lon="12.89659504882024"><ele>84.0</ele><time>2026-04-12T08:21:43.001Z</time></trkpt><trkpt lat="46.06216994945631" lon="12.896651507398134"><ele>84.0</ele><time>2026-04-12T08:21:44.001Z</time></trkpt><trkpt lat="46.062274863520834" lon="12.896681187266779"><ele>84.0</ele><time>2026-04-12T08:21:45.001Z</time></trkpt><trkpt lat="46.06236680155636" lon="12.896707196260108"><ele>84.0</ele><time>2026-04-12T08:21:46.001Z</time></trkpt><trkpt lat="46.06244975717401" lon="12.89670647210046"><ele>84.0</ele><time>2026-04-12T08:21:47.001Z</time></trkpt><trkpt lat="46.06252285661805" lon="12.896721186207442"><ele>84.0</ele><time>2026-04-12T08:21:48.001Z</time></trkpt><trkpt lat="46.06262355758968" lon="12.896796994670948"><ele>84.0</ele><time>2026-04-12T08:21:50.001Z</time></trkpt><trkpt lat="46.06267585146661" lon="12.89685005480226"><ele>84.0</ele><time>2026-04-12T08:21:51.001Z</time></trkpt><trkpt lat="46.062759242198524" lon="12.896923313494534"><ele>84.0</ele><time>2026-04-12T08:21:52.001Z</time></trkpt><trkpt lat="46.06288416189351" lon="12.896918708436559"><ele>84.0</ele><time>2026-04-12T08:21:53.001Z</time></trkpt><trkpt lat="46.06298745824816" lon="12.89696481743827"><ele>84.0</ele><time>2026-04-12T08:21:54.001Z</time></trkpt><trkpt lat="46.06309030792656" lon="12.89698829773104"><ele>84.0</ele><time>2026-04-12T08:21:55.001Z</time></trkpt><trkpt lat="46.06320067950128" lon="12.896977036986051"><ele>84.0</ele><time>2026-04-12T08:21:56.001Z</time></trkpt><trkpt lat="46.06332352327525" lon="12.89693711782765"><ele>84.0</ele><time>2026-04-12T08:21:57.001Z</time></trkpt><trkpt lat="46.06343172782285" lon="12.896890305572457"><ele>84.0</ele><time>2026-04-12T08:21:58.001Z</time></trkpt><trkpt lat="46.063530305300574" lon="12.896880132605967"><ele>84.0</ele><time>2026-04-12T08:21:59.001Z</time></trkpt><trkpt lat="46.0636455066313" lon="12.896902585748428"><ele>84.0</ele><time>2026-04-12T08:22:00.001Z</time></trkpt><trkpt lat="46.063790265745915" lon="12.89695548543574"><ele>84.0</ele><time>2026-04-12T08:22:01.001Z</time></trkpt><trkpt lat="46.06396051245249" lon="12.897009160595669"><ele>84.5</ele><time>2026-04-12T08:22:02.001Z</time></trkpt><trkpt lat="46.06411650709456" lon="12.897056201459927"><ele>85.0</ele><time>2026-04-12T08:22:03.001Z</time></trkpt><trkpt lat="46.064250950373065" lon="12.897090201611782"><ele>85.5</ele><time>2026-04-12T08:22:04.001Z</time></trkpt><trkpt lat="46.064388004079476" lon="12.897129476706372"><ele>86.0</ele><time>2026-04-12T08:22:05.001Z</time></trkpt><trkpt lat="46.06453222256742" lon="12.897180001019036"><ele>86.0</ele><time>2026-04-12T08:22:06.001Z</time></trkpt><trkpt lat="46.064665616536494" lon="12.897232927510116"><ele>86.0</ele><time>2026-04-12T08:22:07Z</time></trkpt><trkpt lat="46.064774903845944" lon="12.897279728977614"><ele>86.0</ele><time>2026-04-12T08:22:08Z</time></trkpt><trkpt lat="46.06487718167591" lon="12.897312891942391"><ele>86.0</ele><time>2026-04-12T08:22:09Z</time></trkpt><trkpt lat="46.06496032732785" lon="12.897345779588916"><ele>86.0</ele><time>2026-04-12T08:22:10Z</time></trkpt><trkpt lat="46.06504996063996" lon="12.897387080813361"><ele>86.0</ele><time>2026-04-12T08:22:11Z</time></trkpt><trkpt lat="46.06514789981965" lon="12.897425573413594"><ele>86.0</ele><time>2026-04-12T08:22:12Z</time></trkpt><trkpt lat="46.065250716492834" lon="12.897492940511478"><ele>86.0</ele><time>2026-04-12T08:22:13Z</time></trkpt><trkpt lat="46.06536204268456" lon="12.897575501259649"><ele>86.0</ele><time>2026-04-12T08:22:14Z</time></trkpt><trkpt lat="46.065477755524924" lon="12.897653272576484"><ele>86.0</ele><time>2026-04-12T08:22:15Z</time></trkpt><trkpt lat="46.065605068114124" lon="12.897726149921114"><ele>86.0</ele><time>2026-04-12T08:22:16Z</time></trkpt><trkpt lat="46.06574161945396" lon="12.897794083393896"><ele>86.0</ele><time>2026-04-12T08:22:17Z</time></trkpt><trkpt lat="46.06587494443028" lon="12.897858720158187"><ele>86.0</ele><time>2026-04-12T08:22:18Z</time></trkpt><trkpt lat="46.06598766875717" lon="12.89791273550803"><ele>86.0</ele><time>2026-04-12T08:22:19Z</time></trkpt><trkpt lat="46.066079273284394" lon="12.897956549362458"><ele>86.0</ele><time>2026-04-12T08:22:20Z</time></trkpt><trkpt lat="46.066142619453785" lon="12.898000109359415"><ele>86.0</ele><time>2026-04-12T08:22:21Z</time></trkpt><trkpt lat="46.06619566847133" lon="12.89809643139948"><ele>86.0</ele><time>2026-04-12T08:22:23Z</time></trkpt><trkpt lat="46.06620185132383" lon="12.898204699029526"><ele>86.0</ele><time>2026-04-12T08:22:25Z</time></trkpt><trkpt lat="46.06618589305784" lon="12.898299927563363"><ele>86.0</ele><time>2026-04-12T08:22:26Z</time></trkpt><trkpt lat="46.066160940175834" lon="12.89841183246774"><ele>86.19999999999999</ele><time>2026-04-12T08:22:27Z</time></trkpt><trkpt lat="46.06614047433549" lon="12.898554786100862"><ele>86.39999999999999</ele><time>2026-04-12T08:22:28Z</time></trkpt><trkpt lat="46.066117948828165" lon="12.898703204984791"><ele>86.6</ele><time>2026-04-12T08:22:29Z</time></trkpt><trkpt lat="46.06609315660057" lon="12.898823713387946"><ele>86.8</ele><time>2026-04-12T08:22:30Z</time></trkpt><trkpt lat="46.066049938027675" lon="12.898948497951446"><ele>87.0</ele><time>2026-04-12T08:22:31Z</time></trkpt><trkpt lat="46.0660254889169" lon="12.899061836266515"><ele>87.0</ele><time>2026-04-12T08:22:32Z</time></trkpt><trkpt lat="46.06605467519204" lon="12.899184649579256"><ele>87.0</ele><time>2026-04-12T08:22:34Z</time></trkpt><trkpt lat="46.06610225474745" lon="12.89924475197702"><ele>87.0</ele><time>2026-04-12T08:22:35Z</time></trkpt><trkpt lat="46.06617135377791" lon="12.899316767313147"><ele>87.0</ele><time>2026-04-12T08:22:36Z</time></trkpt><trkpt lat="46.066230328718035" lon="12.899384924724197"><ele>87.0</ele><time>2026-04-12T08:22:37Z</time></trkpt><trkpt lat="46.06626454205104" lon="12.899466149564832"><ele>87.0</ele><time>2026-04-12T08:22:39Z</time></trkpt><trkpt lat="46.06630687062455" lon="12.899604965141886"><ele>87.19999999999999</ele><time>2026-04-12T08:22:43Z</time></trkpt><trkpt lat="46.066335127197455" lon="12.899730865685639"><ele>87.4</ele><time>2026-04-12T08:22:45Z</time></trkpt><trkpt lat="46.06636022906467" lon="12.899926322854173"><ele>87.6</ele><time>2026-04-12T08:22:47Z</time></trkpt><trkpt lat="46.066378228294866" lon="12.900055959966544"><ele>87.80000000000001</ele><time>2026-04-12T08:22:48Z</time></trkpt><trkpt lat="46.06640163495368" lon="12.900180098037062"><ele>88.0</ele><time>2026-04-12T08:22:49Z</time></trkpt><trkpt lat="46.06642484889019" lon="12.90030552369667"><ele>88.2</ele><time>2026-04-12T08:22:50Z</time></trkpt><trkpt lat="46.0664479873407" lon="12.900437218921189"><ele>88.4</ele><time>2026-04-12T08:22:51Z</time></trkpt><trkpt lat="46.06648048005501" lon="12.900570798524184"><ele>88.60000000000001</ele><time>2026-04-12T08:22:52Z</time></trkpt><trkpt lat="46.06651255703964" lon="12.900709605491029"><ele>88.80000000000001</ele><time>2026-04-12T08:22:53Z</time></trkpt><trkpt lat="46.06653812648292" lon="12.900850264041235"><ele>89.0</ele><time>2026-04-12T08:22:54Z</time></trkpt><trkpt lat="46.06655651092309" lon="12.900987441496316"><ele>89.0</ele><time>2026-04-12T08:22:55Z</time></trkpt><trkpt lat="46.06658042960329" lon="12.90111998305"><ele>89.0</ele><time>2026-04-12T08:22:56Z</time></trkpt><trkpt lat="46.06660074101067" lon="12.901245960675238"><ele>89.0</ele><time>2026-04-12T08:22:57Z</time></trkpt><trkpt lat="46.066628067419295" lon="12.90134888115173"><ele>89.0</ele><time>2026-04-12T08:22:58Z</time></trkpt><trkpt lat="46.066664896480056" lon="12.901445451804843"><ele>89.0</ele><time>2026-04-12T08:22:59Z</time></trkpt><trkpt lat="46.06671358325643" lon="12.901510765266227"><ele>89.0</ele><time>2026-04-12T08:23:00Z</time></trkpt><trkpt lat="46.06677841913122" lon="12.901547497117887"><ele>88.4</ele><time>2026-04-12T08:23:01Z</time></trkpt><trkpt lat="46.06685417907125" lon="12.901585714620392"><ele>87.80000000000001</ele><time>2026-04-12T08:23:02Z</time></trkpt><trkpt lat="46.06691834627696" lon="12.901554235520837"><ele>87.19999999999999</ele><time>2026-04-12T08:23:04Z</time></trkpt><trkpt lat="46.066944726928305" lon="12.901375687508317"><ele>86.6</ele><time>2026-04-12T08:23:06Z</time></trkpt><trkpt lat="46.066969986131916" lon="12.901222665356155"><ele>86.0</ele><time>2026-04-12T08:23:07Z</time></trkpt><trkpt lat="46.067004801184225" lon="12.901039986117214"><ele>86.0</ele><time>2026-04-12T08:23:08Z</time></trkpt><trkpt lat="46.06703692204349" lon="12.900888940405556"><ele>86.0</ele><time>2026-04-12T08:23:09Z</time></trkpt><trkpt lat="46.06706468716074" lon="12.900777938439742"><ele>86.0</ele><time>2026-04-12T08:23:10Z</time></trkpt><trkpt lat="46.067124029555586" lon="12.90072956614176"><ele>86.0</ele><time>2026-04-12T08:24:00.001Z</time></trkpt><trkpt lat="46.067220516743944" lon="12.900701394290149"><ele>86.0</ele><time>2026-04-12T08:24:02.001Z</time></trkpt><trkpt lat="46.06732213910592" lon="12.900751549351389"><ele>86.0</ele><time>2026-04-12T08:24:04.001Z</time></trkpt><trkpt lat="46.06738222835652" lon="12.90079992059659"><ele>86.0</ele><time>2026-04-12T08:24:05.001Z</time></trkpt><trkpt lat="46.06747223014921" lon="12.9008727189581"><ele>86.0</ele><time>2026-04-12T08:24:07.001Z</time></trkpt><trkpt lat="46.067386794048005" lon="12.900908035771101"><ele>86.0</ele><time>2026-04-12T08:24:11.001Z</time></trkpt><trkpt lat="46.06731075151016" lon="12.900857209602023"><ele>86.0</ele><time>2026-04-12T08:24:12.001Z</time></trkpt><trkpt lat="46.06723047496139" lon="12.900794686264542"><ele>86.0</ele><time>2026-04-12T08:24:13Z</time></trkpt><trkpt lat="46.067128296883865" lon="12.900866518766458"><ele>86.0</ele><time>2026-04-12T08:24:15Z</time></trkpt><trkpt lat="46.06711144000313" lon="12.900965787688163"><ele>86.0</ele><time>2026-04-12T08:24:16Z</time></trkpt><trkpt lat="46.06709107810163" lon="12.901139975638793"><ele>86.0</ele><time>2026-04-12T08:24:17Z</time></trkpt><trkpt lat="46.06706333291014" lon="12.901345638028491"><ele>86.0</ele><time>2026-04-12T08:24:18Z</time></trkpt><trkpt lat="46.06702325709471" lon="12.901526621577112"><ele>86.0</ele><time>2026-04-12T08:24:19Z</time></trkpt><trkpt lat="46.06698913799363" lon="12.901684618996429"><ele>86.0</ele><time>2026-04-12T08:24:20Z</time></trkpt><trkpt lat="46.06696185656617" lon="12.901833093492668"><ele>86.0</ele><time>2026-04-12T08:24:21Z</time></trkpt><trkpt lat="46.066931669818885" lon="12.90199943691162"><ele>86.0</ele><time>2026-04-12T08:24:22Z</time></trkpt><trkpt lat="46.06690049680422" lon="12.90216044704014"><ele>86.19999999999999</ele><time>2026-04-12T08:24:23Z</time></trkpt><trkpt lat="46.06686782101698" lon="12.902311306531342"><ele>86.39999999999999</ele><time>2026-04-12T08:24:24Z</time></trkpt><trkpt lat="46.0668390397567" lon="12.90246336752069"><ele>86.6</ele><time>2026-04-12T08:24:25Z</time></trkpt><trkpt lat="46.06681009163269" lon="12.902605351461906"><ele>86.8</ele><time>2026-04-12T08:24:26Z</time></trkpt><trkpt lat="46.06677800931646" lon="12.902767652954068"><ele>87.0</ele><time>2026-04-12T08:24:27Z</time></trkpt><trkpt lat="46.06674395487482" lon="12.902918030154375"><ele>87.0</ele><time>2026-04-12T08:24:28Z</time></trkpt><trkpt lat="46.0667080337191" lon="12.903065201297844"><ele>87.0</ele><time>2026-04-12T08:24:29Z</time></trkpt><trkpt lat="46.06668085156591" lon="12.903210247806255"><ele>87.0</ele><time>2026-04-12T08:24:30Z</time></trkpt><trkpt lat="46.06665190090466" lon="12.903359586733007"><ele>87.0</ele><time>2026-04-12T08:24:31Z</time></trkpt><trkpt lat="46.06662068655432" lon="12.90350861959378"><ele>87.0</ele><time>2026-04-12T08:24:32Z</time></trkpt><trkpt lat="46.06659396668473" lon="12.903634278724295"><ele>86.6</ele><time>2026-04-12T08:24:33Z</time></trkpt><trkpt lat="46.066563614273264" lon="12.903783697314351"><ele>86.19999999999999</ele><time>2026-04-12T08:24:34Z</time></trkpt><trkpt lat="46.06653285830075" lon="12.903918269866956"><ele>85.8</ele><time>2026-04-12T08:24:35Z</time></trkpt><trkpt lat="46.06650853166335" lon="12.904057848777908"><ele>85.4</ele><time>2026-04-12T08:24:36Z</time></trkpt><trkpt lat="46.06648201883439" lon="12.904212797384252"><ele>85.0</ele><time>2026-04-12T08:24:37Z</time></trkpt><trkpt lat="46.06645348717622" lon="12.904359026938595"><ele>84.8</ele><time>2026-04-12T08:24:38Z</time></trkpt><trkpt lat="46.066417452306" lon="12.90451730981049"><ele>84.6</ele><time>2026-04-12T08:24:39Z</time></trkpt><trkpt lat="46.06638464893457" lon="12.904674266521612"><ele>84.4</ele><time>2026-04-12T08:24:40Z</time></trkpt><trkpt lat="46.066357992959105" lon="12.904814916218978"><ele>84.2</ele><time>2026-04-12T08:24:41Z</time></trkpt><trkpt lat="46.066329011954814" lon="12.904942843782354"><ele>84.0</ele><time>2026-04-12T08:24:42Z</time></trkpt><trkpt lat="46.066295819382646" lon="12.905069919149675"><ele>84.2</ele><time>2026-04-12T08:24:43Z</time></trkpt><trkpt lat="46.0662615841209" lon="12.905190166079972"><ele>84.4</ele><time>2026-04-12T08:24:44Z</time></trkpt><trkpt lat="46.06621359816661" lon="12.90530433128358"><ele>84.6</ele><time>2026-04-12T08:24:45Z</time></trkpt><trkpt lat="46.066154134103215" lon="12.905421702834587"><ele>84.8</ele><time>2026-04-12T08:24:46Z</time></trkpt><trkpt lat="46.066087672099755" lon="12.905534808934762"><ele>85.0</ele><time>2026-04-12T08:24:47Z</time></trkpt><trkpt lat="46.06601192808467" lon="12.905678361660689"><ele>85.0</ele><time>2026-04-12T08:24:48Z</time></trkpt><trkpt lat="46.06593275242325" lon="12.90582443231012"><ele>85.0</ele><time>2026-04-12T08:24:49Z</time></trkpt><trkpt lat="46.06585141379442" lon="12.905977390037709"><ele>85.0</ele><time>2026-04-12T08:24:50Z</time></trkpt><trkpt lat="46.065777100299435" lon="12.906123325371125"><ele>85.0</ele><time>2026-04-12T08:24:51Z</time></trkpt><trkpt lat="46.06570981044253" lon="12.906257394445477"><ele>84.66666666666666</ele><time>2026-04-12T08:24:52Z</time></trkpt><trkpt lat="46.06565825869639" lon="12.906380872683455"><ele>84.33333333333333</ele><time>2026-04-12T08:24:53Z</time></trkpt><trkpt lat="46.0656207711428" lon="12.906500592364948"><ele>84.0</ele><time>2026-04-12T08:24:54Z</time></trkpt><trkpt lat="46.065583925671156" lon="12.906596734311668"><ele>83.66666666666667</ele><time>2026-04-12T08:24:55Z</time></trkpt><trkpt lat="46.06552905014441" lon="12.906705394727712"><ele>83.33333333333334</ele><time>2026-04-12T08:24:57Z</time></trkpt><trkpt lat="46.065584325220904" lon="12.906772336872123"><ele>83.0</ele><time>2026-04-12T08:25:01Z</time></trkpt><trkpt lat="46.065748921869286" lon="12.9067696392097"><ele>83.5</ele><time>2026-04-12T08:25:03Z</time></trkpt><trkpt lat="46.06585804817739" lon="12.906775053628248"><ele>84.0</ele><time>2026-04-12T08:25:04Z</time></trkpt><trkpt lat="46.06598285969273" lon="12.906785404725584"><ele>84.5</ele><time>2026-04-12T08:25:05Z</time></trkpt><trkpt lat="46.066106856365316" lon="12.90679680677355"><ele>85.0</ele><time>2026-04-12T08:25:06Z</time></trkpt><trkpt lat="46.06622168385174" lon="12.906813403569567"><ele>85.0</ele><time>2026-04-12T08:25:07Z</time></trkpt><trkpt lat="46.066334817173036" lon="12.906820338876205"><ele>85.0</ele><time>2026-04-12T08:25:08Z</time></trkpt><trkpt lat="46.06645110673578" lon="12.906826891897268"><ele>85.0</ele><time>2026-04-12T08:25:09Z</time></trkpt><trkpt lat="46.06656545102069" lon="12.906831449838709"><ele>85.0</ele><time>2026-04-12T08:25:10Z</time></trkpt><trkpt lat="46.06667093592511" lon="12.906838964219402"><ele>85.4</ele><time>2026-04-12T08:25:11Z</time></trkpt><trkpt lat="46.066742584807386" lon="12.906851238510447"><ele>85.8</ele><time>2026-04-12T08:25:12Z</time></trkpt><trkpt lat="46.0668350686181" lon="12.906867952543049"><ele>86.19999999999999</ele><time>2026-04-12T08:25:13Z</time></trkpt><trkpt lat="46.06693813182315" lon="12.906873676839767"><ele>86.6</ele><time>2026-04-12T08:25:14Z</time></trkpt><trkpt lat="46.067035202145014" lon="12.906886274137953"><ele>87.0</ele><time>2026-04-12T08:25:15Z</time></trkpt><trkpt lat="46.067131420583955" lon="12.906887377406045"><ele>87.0</ele><time>2026-04-12T08:25:16Z</time></trkpt><trkpt lat="46.06721786706402" lon="12.906888370425047"><ele>87.0</ele><time>2026-04-12T08:25:17Z</time></trkpt><trkpt lat="46.06732399091582" lon="12.906893341156419"><ele>87.0</ele><time>2026-04-12T08:25:18Z</time></trkpt><trkpt lat="46.06742448490038" lon="12.906901150646517"><ele>87.0</ele><time>2026-04-12T08:25:19Z</time></trkpt><trkpt lat="46.067512309288034" lon="12.906907814147047"><ele>87.0</ele><time>2026-04-12T08:25:20Z</time></trkpt><trkpt lat="46.06760501165471" lon="12.90691469518712"><ele>87.0</ele><time>2026-04-12T08:25:21Z</time></trkpt><trkpt lat="46.067708000798056" lon="12.906917455605385"><ele>87.0</ele><time>2026-04-12T08:25:22Z</time></trkpt><trkpt lat="46.06781711391369" lon="12.906922178023217"><ele>87.0</ele><time>2026-04-12T08:25:23Z</time></trkpt><trkpt lat="46.06794187799567" lon="12.90692425242868"><ele>87.0</ele><time>2026-04-12T08:25:24Z</time></trkpt><trkpt lat="46.06809052538042" lon="12.906935587211235"><ele>87.0</ele><time>2026-04-12T08:25:25Z</time></trkpt><trkpt lat="46.068228271573815" lon="12.906946884958085"><ele>87.0</ele><time>2026-04-12T08:25:26Z</time></trkpt><trkpt lat="46.06835203521911" lon="12.906952321612957"><ele>87.0</ele><time>2026-04-12T08:25:27Z</time></trkpt><trkpt lat="46.06846634696909" lon="12.906956724087316"><ele>87.0</ele><time>2026-04-12T08:25:28Z</time></trkpt><trkpt lat="46.06857480768124" lon="12.906966213473305"><ele>86.75</ele><time>2026-04-12T08:25:29.001Z</time></trkpt><trkpt lat="46.06869707788262" lon="12.906977400623957"><ele>86.5</ele><time>2026-04-12T08:25:30.001Z</time></trkpt><trkpt lat="46.06881665764761" lon="12.906985539966861"><ele>86.25</ele><time>2026-04-12T08:25:31.001Z</time></trkpt><trkpt lat="46.06892665617626" lon="12.906991365885718"><ele>86.0</ele><time>2026-04-12T08:25:32.001Z</time></trkpt><trkpt lat="46.06905340233378" lon="12.90699365394973"><ele>85.5</ele><time>2026-04-12T08:25:33.001Z</time></trkpt><trkpt lat="46.06917740659244" lon="12.906993472121098"><ele>85.0</ele><time>2026-04-12T08:25:34.001Z</time></trkpt><trkpt lat="46.06929716826578" lon="12.906989788632474"><ele>84.5</ele><time>2026-04-12T08:25:35.001Z</time></trkpt><trkpt lat="46.069420173006066" lon="12.906999085427241"><ele>84.0</ele><time>2026-04-12T08:25:36.001Z</time></trkpt><trkpt lat="46.0695513841649" lon="12.907008535271872"><ele>84.0</ele><time>2026-04-12T08:25:37.001Z</time></trkpt><trkpt lat="46.069667316401926" lon="12.907012353641834"><ele>84.0</ele><time>2026-04-12T08:25:38.001Z</time></trkpt><trkpt lat="46.06977286578116" lon="12.90701822703591"><ele>84.0</ele><time>2026-04-12T08:25:39.001Z</time></trkpt><trkpt lat="46.06989962162236" lon="12.907015112128686"><ele>84.0</ele><time>2026-04-12T08:25:40.001Z</time></trkpt><trkpt lat="46.07002746326785" lon="12.9070128682142"><ele>84.5</ele><time>2026-04-12T08:25:41.001Z</time></trkpt><trkpt lat="46.07015186173817" lon="12.907019301475641"><ele>85.0</ele><time>2026-04-12T08:25:42.001Z</time></trkpt><trkpt lat="46.07027044782258" lon="12.907021902565225"><ele>85.5</ele><time>2026-04-12T08:25:43.001Z</time></trkpt><trkpt lat="46.070407994913815" lon="12.907026692274101"><ele>86.0</ele><time>2026-04-12T08:25:44.001Z</time></trkpt><trkpt lat="46.070549613860166" lon="12.907029514421204"><ele>86.0</ele><time>2026-04-12T08:25:45.001Z</time></trkpt><trkpt lat="46.07068534625936" lon="12.907034401720594"><ele>86.0</ele><time>2026-04-12T08:25:46.001Z</time></trkpt><trkpt lat="46.070821505813804" lon="12.907046663391068"><ele>86.0</ele><time>2026-04-12T08:25:47.001Z</time></trkpt><trkpt lat="46.07095499501431" lon="12.907055365789034"><ele>86.0</ele><time>2026-04-12T08:25:48.001Z</time></trkpt><trkpt lat="46.07108769776062" lon="12.90705324521767"><ele>86.0</ele><time>2026-04-12T08:25:49.001Z</time></trkpt><trkpt lat="46.07122327967418" lon="12.907056027183865"><ele>86.0</ele><time>2026-04-12T08:25:50.001Z</time></trkpt><trkpt lat="46.07136078085837" lon="12.907061216869176"><ele>86.0</ele><time>2026-04-12T08:25:51.001Z</time></trkpt><trkpt lat="46.07150560018074" lon="12.907060165308318"><ele>86.0</ele><time>2026-04-12T08:25:52.001Z</time></trkpt><trkpt lat="46.07165263301372" lon="12.907063229536408"><ele>86.0</ele><time>2026-04-12T08:25:53.001Z</time></trkpt><trkpt lat="46.071807035255375" lon="12.907073977378678"><ele>86.0</ele><time>2026-04-12T08:25:54.001Z</time></trkpt><trkpt lat="46.07195804240687" lon="12.907089886218486"><ele>86.0</ele><time>2026-04-12T08:25:55.001Z</time></trkpt><trkpt lat="46.07211250477579" lon="12.907102690689088"><ele>86.0</ele><time>2026-04-12T08:25:56.001Z</time></trkpt><trkpt lat="46.07226357838796" lon="12.907106105139313"><ele>86.0</ele><time>2026-04-12T08:25:57.001Z</time></trkpt><trkpt lat="46.07241645053542" lon="12.907114019504933"><ele>86.0</ele><time>2026-04-12T08:25:58.001Z</time></trkpt><trkpt lat="46.07255986427052" lon="12.907132675405082"><ele>86.0</ele><time>2026-04-12T08:25:59.001Z</time></trkpt><trkpt lat="46.072716599084764" lon="12.907141826311069"><ele>86.25</ele><time>2026-04-12T08:26:00.001Z</time></trkpt><trkpt lat="46.07287211328289" lon="12.907145624338822"><ele>86.5</ele><time>2026-04-12T08:26:01.001Z</time></trkpt><trkpt lat="46.073017890893226" lon="12.907147992383859"><ele>86.75</ele><time>2026-04-12T08:26:02.001Z</time></trkpt><trkpt lat="46.07316127343032" lon="12.907154460289034"><ele>87.0</ele><time>2026-04-12T08:26:03.001Z</time></trkpt><trkpt lat="46.073312559044325" lon="12.907165863765455"><ele>87.25</ele><time>2026-04-12T08:26:04.001Z</time></trkpt><trkpt lat="46.073469380386946" lon="12.907185786840296"><ele>87.5</ele><time>2026-04-12T08:26:05.001Z</time></trkpt><trkpt lat="46.07361966634926" lon="12.907212666226622"><ele>87.75</ele><time>2026-04-12T08:26:06.001Z</time></trkpt><trkpt lat="46.07373066756263" lon="12.907252076737098"><ele>88.0</ele><time>2026-04-12T08:26:07.001Z</time></trkpt><trkpt lat="46.07382815972243" lon="12.907285357675324"><ele>88.0</ele><time>2026-04-12T08:26:08.001Z</time></trkpt><trkpt lat="46.07390756624322" lon="12.907315513643114"><ele>88.0</ele><time>2026-04-12T08:26:09.001Z</time></trkpt><trkpt lat="46.073975072545544" lon="12.907326599955844"><ele>88.0</ele><time>2026-04-12T08:26:14.001Z</time></trkpt><trkpt lat="46.07397886816991" lon="12.907571319417109"><ele>88.0</ele><time>2026-04-12T08:26:16.001Z</time></trkpt><trkpt lat="46.0739753128077" lon="12.907746561258822"><ele>88.0</ele><time>2026-04-12T08:26:17.001Z</time></trkpt><trkpt lat="46.07399300840463" lon="12.907955608869507"><ele>88.0</ele><time>2026-04-12T08:26:18.001Z</time></trkpt><trkpt lat="46.074023141515674" lon="12.908203050030176"><ele>88.0</ele><time>2026-04-12T08:26:19Z</time></trkpt><trkpt lat="46.07405216414732" lon="12.908452889046004"><ele>88.0</ele><time>2026-04-12T08:26:20Z</time></trkpt><trkpt lat="46.074078150905876" lon="12.908676255988919"><ele>88.0</ele><time>2026-04-12T08:26:21Z</time></trkpt><trkpt lat="46.074104635048165" lon="12.908884902394469"><ele>88.0</ele><time>2026-04-12T08:26:22Z</time></trkpt><trkpt lat="46.07412615170229" lon="12.909096817825898"><ele>88.0</ele><time>2026-04-12T08:26:23Z</time></trkpt><trkpt lat="46.07415013097523" lon="12.909312211969757"><ele>88.0</ele><time>2026-04-12T08:26:24Z</time></trkpt><trkpt lat="46.07417492337738" lon="12.909532443027862"><ele>88.0</ele><time>2026-04-12T08:26:25Z</time></trkpt><trkpt lat="46.0741980472099" lon="12.909763933875894"><ele>88.0</ele><time>2026-04-12T08:26:26Z</time></trkpt><trkpt lat="46.0742210491835" lon="12.909999953904487"><ele>88.0</ele><time>2026-04-12T08:26:27Z</time></trkpt><trkpt lat="46.07424450566439" lon="12.910226518043634"><ele>88.0</ele><time>2026-04-12T08:26:28Z</time></trkpt><trkpt lat="46.07426569807325" lon="12.910424453421937"><ele>88.0</ele><time>2026-04-12T08:26:29Z</time></trkpt><trkpt lat="46.07428721213704" lon="12.9106030572807"><ele>88.0</ele><time>2026-04-12T08:26:30Z</time></trkpt><trkpt lat="46.074307084086776" lon="12.910778560488922"><ele>88.0</ele><time>2026-04-12T08:26:31Z</time></trkpt><trkpt lat="46.07432566979545" lon="12.910940416652846"><ele>88.2</ele><time>2026-04-12T08:26:32Z</time></trkpt><trkpt lat="46.07434242043494" lon="12.911085764768236"><ele>88.4</ele><time>2026-04-12T08:26:33Z</time></trkpt><trkpt lat="46.074358361709265" lon="12.911231240994931"><ele>88.60000000000001</ele><time>2026-04-12T08:26:34Z</time></trkpt><trkpt lat="46.07437543054154" lon="12.911369424014229"><ele>88.80000000000001</ele><time>2026-04-12T08:26:35Z</time></trkpt><trkpt lat="46.0743966704467" lon="12.911507920505247"><ele>89.0</ele><time>2026-04-12T08:26:36Z</time></trkpt><trkpt lat="46.07440963590251" lon="12.911630845690121"><ele>88.66666666666667</ele><time>2026-04-12T08:26:37Z</time></trkpt><trkpt lat="46.07442299303089" lon="12.911743422119585"><ele>88.33333333333334</ele><time>2026-04-12T08:26:38Z</time></trkpt><trkpt lat="46.074443250125015" lon="12.91184394655763"><ele>88.0</ele><time>2026-04-12T08:26:39Z</time></trkpt><trkpt lat="46.074448018170074" lon="12.91194813184733"><ele>87.66666666666667</ele><time>2026-04-12T08:26:40Z</time></trkpt><trkpt lat="46.0744488733146" lon="12.912077360004698"><ele>87.33333333333333</ele><time>2026-04-12T08:26:41Z</time></trkpt><trkpt lat="46.074447304934644" lon="12.912203219972543"><ele>87.0</ele><time>2026-04-12T08:26:42Z</time></trkpt><trkpt lat="46.074455604384745" lon="12.912320909966537"><ele>87.0</ele><time>2026-04-12T08:26:43Z</time></trkpt><trkpt lat="46.07446539183117" lon="12.912448609168056"><ele>87.0</ele><time>2026-04-12T08:26:44Z</time></trkpt><trkpt lat="46.07447843931907" lon="12.91256594924792"><ele>87.0</ele><time>2026-04-12T08:26:45Z</time></trkpt><trkpt lat="46.07448909468763" lon="12.912662396142382"><ele>87.0</ele><time>2026-04-12T08:26:46Z</time></trkpt><trkpt lat="46.07448335914052" lon="12.912754648746589"><ele>87.0</ele><time>2026-04-12T08:26:47Z</time></trkpt><trkpt lat="46.074419469447925" lon="12.912903610600662"><ele>87.0</ele><time>2026-04-12T08:26:49Z</time></trkpt><trkpt lat="46.074360716789634" lon="12.91298429873129"><ele>86.83333333333333</ele><time>2026-04-12T08:26:50Z</time></trkpt><trkpt lat="46.074300365850654" lon="12.91304349073565"><ele>86.66666666666667</ele><time>2026-04-12T08:26:51Z</time></trkpt><trkpt lat="46.074205894808394" lon="12.913084314955176"><ele>86.5</ele><time>2026-04-12T08:26:53Z</time></trkpt><trkpt lat="46.07411905458583" lon="12.913146093277215"><ele>86.33333333333334</ele><time>2026-04-12T08:26:56Z</time></trkpt><trkpt lat="46.07404210499551" lon="12.91325482361274"><ele>86.16666666666667</ele><time>2026-04-12T08:26:58Z</time></trkpt><trkpt lat="46.073977710634935" lon="12.913287548733834"><ele>86.0</ele><time>2026-04-12T08:26:59Z</time></trkpt><trkpt lat="46.07389617660442" lon="12.913325979972578"><ele>86.0</ele><time>2026-04-12T08:27:00Z</time></trkpt><trkpt lat="46.07381019317067" lon="12.913402658077247"><ele>86.0</ele><time>2026-04-12T08:27:01Z</time></trkpt><trkpt lat="46.07371355240784" lon="12.913495369699294"><ele>86.0</ele><time>2026-04-12T08:27:02Z</time></trkpt><trkpt lat="46.07363042389361" lon="12.913554418901516"><ele>86.0</ele><time>2026-04-12T08:27:03Z</time></trkpt><trkpt lat="46.07357012237289" lon="12.91360484374135"><ele>86.0</ele><time>2026-04-12T08:27:04Z</time></trkpt><trkpt lat="46.07347864963407" lon="12.913705855005471"><ele>86.19999999999999</ele><time>2026-04-12T08:27:06Z</time></trkpt><trkpt lat="46.0734244452047" lon="12.913801698440336"><ele>86.39999999999999</ele><time>2026-04-12T08:27:09Z</time></trkpt><trkpt lat="46.07336331189109" lon="12.913933122394614"><ele>86.6</ele><time>2026-04-12T08:27:11Z</time></trkpt><trkpt lat="46.073327128643854" lon="12.914058296402725"><ele>86.8</ele><time>2026-04-12T08:27:35.001Z</time></trkpt><trkpt lat="46.073291661981436" lon="12.914191431349085"><ele>87.0</ele><time>2026-04-12T08:27:37.001Z</time></trkpt><trkpt lat="46.073248740628436" lon="12.91435023822491"><ele>86.5</ele><time>2026-04-12T08:27:39.001Z</time></trkpt><trkpt lat="46.07320108108167" lon="12.914455693658406"><ele>86.0</ele><time>2026-04-12T08:27:41.001Z</time></trkpt><trkpt lat="46.07314507448928" lon="12.914626830622105"><ele>85.5</ele><time>2026-04-12T08:27:43.001Z</time></trkpt><trkpt lat="46.073117966483004" lon="12.914712133080014"><ele>85.0</ele><time>2026-04-12T08:27:44.001Z</time></trkpt><trkpt lat="46.07309238455516" lon="12.914795153285622"><ele>84.5</ele><time>2026-04-12T08:27:45.001Z</time></trkpt><trkpt lat="46.073039236912365" lon="12.91491055850153"><ele>84.0</ele><time>2026-04-12T08:27:47.001Z</time></trkpt><trkpt lat="46.07298232315544" lon="12.9150361687301"><ele>84.4</ele><time>2026-04-12T08:27:49.001Z</time></trkpt><trkpt lat="46.07295406244487" lon="12.915131752948872"><ele>84.80000000000001</ele><time>2026-04-12T08:27:50.001Z</time></trkpt><trkpt lat="46.07290412306669" lon="12.915269905782198"><ele>85.19999999999999</ele><time>2026-04-12T08:27:52.001Z</time></trkpt><trkpt lat="46.07285353871096" lon="12.91532914101385"><ele>85.6</ele><time>2026-04-12T08:27:53.001Z</time></trkpt><trkpt lat="46.07276536526922" lon="12.915433366766628"><ele>86.0</ele><time>2026-04-12T08:27:55.001Z</time></trkpt><trkpt lat="46.07268199778253" lon="12.915537555814497"><ele>86.0</ele><time>2026-04-12T08:27:57.001Z</time></trkpt><trkpt lat="46.07262686568801" lon="12.915632505957968"><ele>86.0</ele><time>2026-04-12T08:27:58.001Z</time></trkpt><trkpt lat="46.07256547140219" lon="12.915743076034138"><ele>86.0</ele><time>2026-04-12T08:27:59.001Z</time></trkpt><trkpt lat="46.07252762079572" lon="12.91581572290898"><ele>86.0</ele><time>2026-04-12T08:28:00.001Z</time></trkpt><trkpt lat="46.0724653246528" lon="12.915931457063362"><ele>86.0</ele><time>2026-04-12T08:28:02.001Z</time></trkpt><trkpt lat="46.0724284625371" lon="12.916005282326203"><ele>86.0</ele><time>2026-04-12T08:28:03.001Z</time></trkpt><trkpt lat="46.07238454770563" lon="12.916082333240373"><ele>85.83333333333334</ele><time>2026-04-12T08:28:04.001Z</time></trkpt><trkpt lat="46.07234391453891" lon="12.916168951002055"><ele>85.66666666666667</ele><time>2026-04-12T08:28:05.001Z</time></trkpt><trkpt lat="46.0723047236224" lon="12.91625639371313"><ele>85.5</ele><time>2026-04-12T08:28:06.001Z</time></trkpt><trkpt lat="46.072271748714975" lon="12.916334920975418"><ele>85.33333333333333</ele><time>2026-04-12T08:28:07.001Z</time></trkpt><trkpt lat="46.07224472512523" lon="12.916428679620562"><ele>85.16666666666666</ele><time>2026-04-12T08:28:09.001Z</time></trkpt><trkpt lat="46.0722091449413" lon="12.91651372231919"><ele>85.0</ele><time>2026-04-12T08:28:11.001Z</time></trkpt><trkpt lat="46.07214868381883" lon="12.916656200100999"><ele>85.0</ele><time>2026-04-12T08:28:13.001Z</time></trkpt><trkpt lat="46.072096572179184" lon="12.91676320890326"><ele>85.0</ele><time>2026-04-12T08:28:15.001Z</time></trkpt><trkpt lat="46.07203869203964" lon="12.91685024138466"><ele>85.0</ele><time>2026-04-12T08:28:17.001Z</time></trkpt><trkpt lat="46.07198233117667" lon="12.91695092950643"><ele>85.0</ele><time>2026-04-12T08:28:23.001Z</time></trkpt><trkpt lat="46.071919610973865" lon="12.917090638806812"><ele>85.0</ele><time>2026-04-12T08:28:25Z</time></trkpt><trkpt lat="46.0718528435998" lon="12.917231913850957"><ele>85.0</ele><time>2026-04-12T08:28:27Z</time></trkpt><trkpt lat="46.07181138863506" lon="12.917305413745492"><ele>85.0</ele><time>2026-04-12T08:28:28Z</time></trkpt><trkpt lat="46.07172147978352" lon="12.917442959922894"><ele>85.0</ele><time>2026-04-12T08:28:30Z</time></trkpt><trkpt lat="46.07167578847669" lon="12.917522008555046"><ele>85.0</ele><time>2026-04-12T08:28:31Z</time></trkpt><trkpt lat="46.07162521680584" lon="12.917605526395496"><ele>85.0</ele><time>2026-04-12T08:28:32Z</time></trkpt><trkpt lat="46.071584209658674" lon="12.917676232300025"><ele>85.0</ele><time>2026-04-12T08:28:33Z</time></trkpt><trkpt lat="46.07152066313665" lon="12.917779523580142"><ele>85.16666666666666</ele><time>2026-04-12T08:28:35Z</time></trkpt><trkpt lat="46.07144389768138" lon="12.9179196605092"><ele>85.33333333333333</ele><time>2026-04-12T08:28:37Z</time></trkpt><trkpt lat="46.0713769052148" lon="12.917995055904294"><ele>85.5</ele><time>2026-04-12T08:28:39Z</time></trkpt><trkpt lat="46.07134252115985" lon="12.918107787014389"><ele>85.66666666666667</ele><time>2026-04-12T08:32:50.001Z</time></trkpt><trkpt lat="46.07132768770693" lon="12.9182107654938"><ele>85.83333333333334</ele><time>2026-04-12T08:32:52.001Z</time></trkpt><trkpt lat="46.07130931714623" lon="12.918298474420542"><ele>86.0</ele><time>2026-04-12T08:32:54.001Z</time></trkpt><trkpt lat="46.07121972016134" lon="12.918353284461567"><ele>86.0</ele><time>2026-04-12T08:32:57.001Z</time></trkpt><trkpt lat="46.0711494802708" lon="12.918380877777254"><ele>86.0</ele><time>2026-04-12T08:32:59.001Z</time></trkpt><trkpt lat="46.071122755669336" lon="12.918484034917133"><ele>86.0</ele><time>2026-04-12T08:33:03.001Z</time></trkpt><trkpt lat="46.0711413252441" lon="12.91858430565002"><ele>86.0</ele><time>2026-04-12T08:33:13.001Z</time></trkpt><trkpt lat="46.07118833798572" lon="12.91868746993836"><ele>86.0</ele><time>2026-04-12T08:33:18.001Z</time></trkpt><trkpt lat="46.07122846725661" lon="12.918798313721346"><ele>86.0</ele><time>2026-04-12T08:33:20.001Z</time></trkpt><trkpt lat="46.07124860565651" lon="12.91893727545016"><ele>86.16666666666667</ele><time>2026-04-12T08:33:22.001Z</time></trkpt><trkpt lat="46.071268503442454" lon="12.919055472212634"><ele>86.33333333333334</ele><time>2026-04-12T08:33:24.001Z</time></trkpt><trkpt lat="46.07127554359408" lon="12.919184815866839"><ele>86.5</ele><time>2026-04-12T08:33:26.001Z</time></trkpt><trkpt lat="46.07127013117196" lon="12.919327831527296"><ele>86.66666666666667</ele><time>2026-04-12T08:33:28.001Z</time></trkpt><trkpt lat="46.071281190420116" lon="12.91944985402256"><ele>86.83333333333333</ele><time>2026-04-12T08:33:30.001Z</time></trkpt><trkpt lat="46.071295279462426" lon="12.919577480060854"><ele>87.0</ele><time>2026-04-12T08:33:32.001Z</time></trkpt><trkpt lat="46.07130178621733" lon="12.919668150675287"><ele>86.66666666666667</ele><time>2026-04-12T08:33:33.001Z</time></trkpt><trkpt lat="46.07130367490231" lon="12.919828056126466"><ele>86.33333333333333</ele><time>2026-04-12T08:33:35.001Z</time></trkpt><trkpt lat="46.07128853917518" lon="12.919931463771809"><ele>86.0</ele><time>2026-04-12T08:33:37.001Z</time></trkpt><trkpt lat="46.07127886452422" lon="12.920051578113055"><ele>85.66666666666666</ele><time>2026-04-12T08:33:39.001Z</time></trkpt><trkpt lat="46.07123861972112" lon="12.920176249707785"><ele>85.33333333333333</ele><time>2026-04-12T08:33:41.001Z</time></trkpt><trkpt lat="46.0712092349391" lon="12.920259097443939"><ele>85.0</ele><time>2026-04-12T08:33:42.001Z</time></trkpt><trkpt lat="46.071185620793244" lon="12.920347844112365"><ele>84.8</ele><time>2026-04-12T08:33:43.001Z</time></trkpt><trkpt lat="46.07114138405395" lon="12.920485625553905"><ele>84.6</ele><time>2026-04-12T08:33:45.001Z</time></trkpt><trkpt lat="46.07110817013527" lon="12.920601140211602"><ele>84.4</ele><time>2026-04-12T08:33:47.001Z</time></trkpt><trkpt lat="46.07105812596147" lon="12.92073084376501"><ele>84.2</ele><time>2026-04-12T08:33:49.001Z</time></trkpt><trkpt lat="46.07100128574913" lon="12.920864047926301"><ele>84.0</ele><time>2026-04-12T08:33:51.001Z</time></trkpt><trkpt lat="46.07093438484165" lon="12.92096847779065"><ele>84.0</ele><time>2026-04-12T08:33:53.001Z</time></trkpt><trkpt lat="46.070894444037144" lon="12.921041201847542"><ele>84.0</ele><time>2026-04-12T08:33:54.001Z</time></trkpt><trkpt lat="46.07083095306442" lon="12.92115329636947"><ele>84.0</ele><time>2026-04-12T08:33:56.001Z</time></trkpt><trkpt lat="46.070753466110446" lon="12.92129554795062"><ele>84.0</ele><time>2026-04-12T08:33:58.001Z</time></trkpt><trkpt lat="46.07071755242248" lon="12.92138282831801"><ele>84.0</ele><time>2026-04-12T08:33:59.001Z</time></trkpt><trkpt lat="46.07067562246788" lon="12.92148794014555"><ele>84.0</ele><time>2026-04-12T08:34:00.001Z</time></trkpt><trkpt lat="46.07061329421262" lon="12.921617017319216"><ele>84.2</ele><time>2026-04-12T08:34:02.001Z</time></trkpt><trkpt lat="46.07057283149867" lon="12.921703581951776"><ele>84.4</ele><time>2026-04-12T08:34:04.001Z</time></trkpt><trkpt lat="46.07051281024585" lon="12.921857426147378"><ele>84.6</ele><time>2026-04-12T08:34:06.001Z</time></trkpt><trkpt lat="46.070484840868254" lon="12.921944953648334"><ele>84.8</ele><time>2026-04-12T08:34:07.001Z</time></trkpt><trkpt lat="46.07045358237727" lon="12.922114523065519"><ele>85.0</ele><time>2026-04-12T08:34:09.001Z</time></trkpt><trkpt lat="46.07043637391066" lon="12.922208770427483"><ele>85.0</ele><time>2026-04-12T08:34:10.001Z</time></trkpt><trkpt lat="46.07042379272697" lon="12.922311138871226"><ele>85.0</ele><time>2026-04-12T08:34:11.001Z</time></trkpt><trkpt lat="46.07039605080138" lon="12.922491192445476"><ele>85.0</ele><time>2026-04-12T08:34:13.001Z</time></trkpt><trkpt lat="46.07037672324502" lon="12.922612032745064"><ele>85.0</ele><time>2026-04-12T08:34:15.001Z</time></trkpt><trkpt lat="46.07033041942741" lon="12.92273159659202"><ele>85.0</ele><time>2026-04-12T08:34:17.001Z</time></trkpt><trkpt lat="46.07028571233839" lon="12.922856935091986"><ele>85.16666666666666</ele><time>2026-04-12T08:34:18.001Z</time></trkpt><trkpt lat="46.07025226727734" lon="12.922963674814525"><ele>85.33333333333333</ele><time>2026-04-12T08:34:19.001Z</time></trkpt><trkpt lat="46.07021415740331" lon="12.923085316893069"><ele>85.5</ele><time>2026-04-12T08:34:20.001Z</time></trkpt><trkpt lat="46.070183837954346" lon="12.92320176923775"><ele>85.66666666666667</ele><time>2026-04-12T08:34:21.001Z</time></trkpt><trkpt lat="46.07015682042198" lon="12.923310791249216"><ele>85.83333333333334</ele><time>2026-04-12T08:34:22.001Z</time></trkpt><trkpt lat="46.07012155677653" lon="12.923414893506017"><ele>86.0</ele><time>2026-04-12T08:34:23.001Z</time></trkpt><trkpt lat="46.07008803492092" lon="12.923525684472105"><ele>86.5</ele><time>2026-04-12T08:34:24.001Z</time></trkpt><trkpt lat="46.07006619610038" lon="12.923616131590448"><ele>87.0</ele><time>2026-04-12T08:34:25.001Z</time></trkpt><trkpt lat="46.070049789126074" lon="12.923706000376926"><ele>87.5</ele><time>2026-04-12T08:34:26.001Z</time></trkpt><trkpt lat="46.07005590821376" lon="12.923826705144641"><ele>88.0</ele><time>2026-04-12T08:34:28.001Z</time></trkpt><trkpt lat="46.07011123152043" lon="12.923962551753496"><ele>88.5</ele><time>2026-04-12T08:34:30.001Z</time></trkpt><trkpt lat="46.07015054378099" lon="12.92403631859466"><ele>89.0</ele><time>2026-04-12T08:34:31.001Z</time></trkpt><trkpt lat="46.070205052338174" lon="12.924097688012615"><ele>89.0</ele><time>2026-04-12T08:34:32.001Z</time></trkpt><trkpt lat="46.07026634995834" lon="12.92415680430669"><ele>89.0</ele><time>2026-04-12T08:34:33.001Z</time></trkpt><trkpt lat="46.070336382603394" lon="12.924198757521705"><ele>89.0</ele><time>2026-04-12T08:34:34.001Z</time></trkpt><trkpt lat="46.07042306250812" lon="12.92423461915342"><ele>89.0</ele><time>2026-04-12T08:34:35.001Z</time></trkpt><trkpt lat="46.07050128681957" lon="12.924273342105359"><ele>89.0</ele><time>2026-04-12T08:34:36.001Z</time></trkpt><trkpt lat="46.07058117579302" lon="12.924307970048924"><ele>89.0</ele><time>2026-04-12T08:34:37.001Z</time></trkpt><trkpt lat="46.07065055387556" lon="12.924333924285223"><ele>89.16666666666667</ele><time>2026-04-12T08:34:38.001Z</time></trkpt><trkpt lat="46.070728957117836" lon="12.924363870822733"><ele>89.33333333333334</ele><time>2026-04-12T08:34:39.001Z</time></trkpt><trkpt lat="46.07082163857317" lon="12.924404985831911"><ele>89.5</ele><time>2026-04-12T08:34:40.001Z</time></trkpt><trkpt lat="46.07090632483262" lon="12.924444512545614"><ele>89.66666666666667</ele><time>2026-04-12T08:34:41.001Z</time></trkpt><trkpt lat="46.07097525825167" lon="12.924482195697383"><ele>89.83333333333333</ele><time>2026-04-12T08:34:42.001Z</time></trkpt><trkpt lat="46.071046928487185" lon="12.92452167385258"><ele>90.0</ele><time>2026-04-12T08:34:43Z</time></trkpt><trkpt lat="46.07113058247372" lon="12.924558521073306"><ele>90.0</ele><time>2026-04-12T08:34:44Z</time></trkpt><trkpt lat="46.071219241513234" lon="12.92459522935405"><ele>90.0</ele><time>2026-04-12T08:34:45Z</time></trkpt><trkpt lat="46.07129617318978" lon="12.924622377676751"><ele>90.0</ele><time>2026-04-12T08:34:46Z</time></trkpt><trkpt lat="46.07138310813917" lon="12.924679835380559"><ele>90.0</ele><time>2026-04-12T08:34:47Z</time></trkpt><trkpt lat="46.071476348149154" lon="12.92474863196236"><ele>90.0</ele><time>2026-04-12T08:34:48Z</time></trkpt><trkpt lat="46.071563570076144" lon="12.924816240676124"><ele>89.83333333333333</ele><time>2026-04-12T08:34:49Z</time></trkpt><trkpt lat="46.071636296152896" lon="12.924876466575832"><ele>89.66666666666667</ele><time>2026-04-12T08:34:50Z</time></trkpt><trkpt lat="46.07170711316427" lon="12.92493793929256"><ele>89.5</ele><time>2026-04-12T08:34:51Z</time></trkpt><trkpt lat="46.071788662567165" lon="12.924993219523698"><ele>89.33333333333334</ele><time>2026-04-12T08:34:52Z</time></trkpt><trkpt lat="46.0718664328126" lon="12.925058718606834"><ele>89.16666666666667</ele><time>2026-04-12T08:34:53Z</time></trkpt><trkpt lat="46.07193674548602" lon="12.925143784269324"><ele>89.0</ele><time>2026-04-12T08:34:54Z</time></trkpt><trkpt lat="46.0719957086063" lon="12.925217367313218"><ele>90.0</ele><time>2026-04-12T08:34:55Z</time></trkpt><trkpt lat="46.07207003409631" lon="12.925285771452625"><ele>91.0</ele><time>2026-04-12T08:34:56Z</time></trkpt><trkpt lat="46.0721501485295" lon="12.925339455673562"><ele>92.0</ele><time>2026-04-12T08:34:57Z</time></trkpt><trkpt lat="46.07224573199681" lon="12.925395305363446"><ele>93.0</ele><time>2026-04-12T08:34:58Z</time></trkpt><trkpt lat="46.07233332543718" lon="12.925465493326959"><ele>94.0</ele><time>2026-04-12T08:34:59Z</time></trkpt><trkpt lat="46.07240264310447" lon="12.925533128865968"><ele>93.33333333333333</ele><time>2026-04-12T08:35:00Z</time></trkpt><trkpt lat="46.072475654425325" lon="12.92559710254244"><ele>92.66666666666666</ele><time>2026-04-12T08:35:01Z</time></trkpt><trkpt lat="46.072559604996115" lon="12.925648227143059"><ele>92.0</ele><time>2026-04-12T08:35:02Z</time></trkpt><trkpt lat="46.07264961854287" lon="12.92568903629549"><ele>91.33333333333333</ele><time>2026-04-12T08:35:03Z</time></trkpt><trkpt lat="46.072727274403306" lon="12.925712063170735"><ele>90.66666666666667</ele><time>2026-04-12T08:35:04Z</time></trkpt><trkpt lat="46.07280417366257" lon="12.92573405075752"><ele>90.0</ele><time>2026-04-12T08:35:05Z</time></trkpt><trkpt lat="46.072885145134705" lon="12.92576240300868"><ele>90.0</ele><time>2026-04-12T08:35:06Z</time></trkpt><trkpt lat="46.072965079589196" lon="12.925781442114008"><ele>90.0</ele><time>2026-04-12T08:35:07Z</time></trkpt><trkpt lat="46.0730609068222" lon="12.925780793838625"><ele>90.0</ele><time>2026-04-12T08:35:08Z</time></trkpt><trkpt lat="46.07316181364754" lon="12.925764031755781"><ele>90.0</ele><time>2026-04-12T08:35:09Z</time></trkpt><trkpt lat="46.07325460518413" lon="12.925747262635307"><ele>90.0</ele><time>2026-04-12T08:35:10Z</time></trkpt><trkpt lat="46.07334610321584" lon="12.925725663064972"><ele>89.4</ele><time>2026-04-12T08:35:11Z</time></trkpt><trkpt lat="46.07343833454107" lon="12.925700890020762"><ele>88.8</ele><time>2026-04-12T08:35:12Z</time></trkpt><trkpt lat="46.07352704770907" lon="12.925670325746001"><ele>88.19999999999999</ele><time>2026-04-12T08:35:13Z</time></trkpt><trkpt lat="46.073606067425416" lon="12.925634805354866"><ele>87.6</ele><time>2026-04-12T08:35:14Z</time></trkpt><trkpt lat="46.073690241330816" lon="12.92559371727914"><ele>87.0</ele><time>2026-04-12T08:35:15Z</time></trkpt><trkpt lat="46.07379864963246" lon="12.925514724751698"><ele>87.0</ele><time>2026-04-12T08:35:17Z</time></trkpt><trkpt lat="46.07387195503848" lon="12.925509447891974"><ele>87.0</ele><time>2026-04-12T08:35:19Z</time></trkpt><trkpt lat="46.07392323807943" lon="12.925656959829027"><ele>87.0</ele><time>2026-04-12T08:35:22Z</time></trkpt><trkpt lat="46.07394347169515" lon="12.925745803287533"><ele>87.0</ele><time>2026-04-12T08:35:23Z</time></trkpt><trkpt lat="46.07397099533032" lon="12.92582944954695"><ele>87.0</ele><time>2026-04-12T08:35:24Z</time></trkpt><trkpt lat="46.07402645886579" lon="12.925911179867063"><ele>87.0</ele><time>2026-04-12T08:35:26Z</time></trkpt><trkpt lat="46.074097306584484" lon="12.92593505778708"><ele>87.39999999999999</ele><time>2026-04-12T08:35:27Z</time></trkpt><trkpt lat="46.074176106007066" lon="12.925971376362831"><ele>87.8</ele><time>2026-04-12T08:35:28Z</time></trkpt><trkpt lat="46.07426616850559" lon="12.926025701470117"><ele>88.2</ele><time>2026-04-12T08:35:29Z</time></trkpt><trkpt lat="46.074364891522755" lon="12.926078527807439"><ele>88.6</ele><time>2026-04-12T08:35:30Z</time></trkpt><trkpt lat="46.074462402567534" lon="12.926148029835552"><ele>89.0</ele><time>2026-04-12T08:35:31Z</time></trkpt><trkpt lat="46.07456110887455" lon="12.926231228401576"><ele>89.0</ele><time>2026-04-12T08:35:32Z</time></trkpt><trkpt lat="46.07464653646852" lon="12.926311556808685"><ele>89.0</ele><time>2026-04-12T08:35:33Z</time></trkpt><trkpt lat="46.07473514745834" lon="12.92637343107618"><ele>89.0</ele><time>2026-04-12T08:35:34Z</time></trkpt><trkpt lat="46.07484428375515" lon="12.926422697702598"><ele>89.0</ele><time>2026-04-12T08:35:35Z</time></trkpt><trkpt lat="46.07495918671153" lon="12.926495921274821"><ele>89.0</ele><time>2026-04-12T08:35:36Z</time></trkpt><trkpt lat="46.07506751873385" lon="12.926557252566436"><ele>89.0</ele><time>2026-04-12T08:35:37Z</time></trkpt><trkpt lat="46.075180466183234" lon="12.926624956315486"><ele>89.0</ele><time>2026-04-12T08:35:38Z</time></trkpt><trkpt lat="46.07529503784717" lon="12.926687744466983"><ele>89.0</ele><time>2026-04-12T08:35:39Z</time></trkpt><trkpt lat="46.075410678530744" lon="12.926754347024966"><ele>89.0</ele><time>2026-04-12T08:35:40Z</time></trkpt><trkpt lat="46.07552591279905" lon="12.926820660166108"><ele>89.0</ele><time>2026-04-12T08:35:41Z</time></trkpt><trkpt lat="46.075623141272075" lon="12.926874729245059"><ele>89.0</ele><time>2026-04-12T08:35:42Z</time></trkpt><trkpt lat="46.07571332479803" lon="12.926924459013442"><ele>89.0</ele><time>2026-04-12T08:35:43Z</time></trkpt><trkpt lat="46.07579401774744" lon="12.926967019995978"><ele>89.0</ele><time>2026-04-12T08:35:44Z</time></trkpt><trkpt lat="46.07588397903657" lon="12.927007139814306"><ele>89.0</ele><time>2026-04-12T08:35:45Z</time></trkpt><trkpt lat="46.07598742794842" lon="12.927055850572025"><ele>89.2</ele><time>2026-04-12T08:35:46Z</time></trkpt><trkpt lat="46.076103284966415" lon="12.927102725573304"><ele>89.4</ele><time>2026-04-12T08:35:47Z</time></trkpt><trkpt lat="46.076203779498655" lon="12.927141245301977"><ele>89.6</ele><time>2026-04-12T08:35:48Z</time></trkpt><trkpt lat="46.07627796817" lon="12.927171634199981"><ele>89.8</ele><time>2026-04-12T08:35:49Z</time></trkpt><trkpt lat="46.07634818196993" lon="12.92720402730219"><ele>90.0</ele><time>2026-04-12T08:35:51Z</time></trkpt><trkpt lat="46.07627706856485" lon="12.92728349637145"><ele>90.0</ele><time>2026-04-12T08:36:00Z</time></trkpt><trkpt lat="46.07619844468532" lon="12.927352855694178"><ele>90.0</ele><time>2026-04-12T08:36:01Z</time></trkpt><trkpt lat="46.076071297177265" lon="12.927388470035938"><ele>90.0</ele><time>2026-04-12T08:36:03Z</time></trkpt><trkpt lat="46.076008014651016" lon="12.927431461759562"><ele>90.0</ele><time>2026-04-12T08:36:04Z</time></trkpt><trkpt lat="46.075942153862556" lon="12.927513196014926"><ele>90.0</ele><time>2026-04-12T08:36:06Z</time></trkpt><trkpt lat="46.075898152885415" lon="12.927617093585788"><ele>90.2</ele><time>2026-04-12T08:36:20.001Z</time></trkpt><trkpt lat="46.07580637801154" lon="12.927691670210374"><ele>90.4</ele><time>2026-04-12T08:36:22.001Z</time></trkpt><trkpt lat="46.075682414753466" lon="12.927714075592535"><ele>90.6</ele><time>2026-04-12T08:36:24.001Z</time></trkpt><trkpt lat="46.07559607308178" lon="12.927731770564153"><ele>90.8</ele><time>2026-04-12T08:36:26.001Z</time></trkpt><trkpt lat="46.075501835813895" lon="12.927788761124516"><ele>91.0</ele><time>2026-04-12T08:36:28.001Z</time></trkpt><trkpt lat="46.07538068515247" lon="12.927723511081421"><ele>91.0</ele><time>2026-04-12T08:36:30.001Z</time></trkpt><trkpt lat="46.07530586904221" lon="12.927684464022118"><ele>91.0</ele><time>2026-04-12T08:36:31.001Z</time></trkpt><trkpt lat="46.075234453714884" lon="12.92764603604795"><ele>91.0</ele><time>2026-04-12T08:36:32.001Z</time></trkpt><trkpt lat="46.07516151110186" lon="12.927609297321702"><ele>91.0</ele><time>2026-04-12T08:36:33.001Z</time></trkpt><trkpt lat="46.07509790321272" lon="12.927572875179019"><ele>91.0</ele><time>2026-04-12T08:36:34.001Z</time></trkpt><trkpt lat="46.07500009822758" lon="12.927545874094045"><ele>91.0</ele><time>2026-04-12T08:36:36.001Z</time></trkpt><trkpt lat="46.074951171430115" lon="12.927667806898352"><ele>91.0</ele><time>2026-04-12T08:36:38.001Z</time></trkpt><trkpt lat="46.07501127710661" lon="12.927800130779417"><ele>91.0</ele><time>2026-04-12T08:36:40.001Z</time></trkpt><trkpt lat="46.0751250834866" lon="12.927851823224408"><ele>91.0</ele><time>2026-04-12T08:36:42.001Z</time></trkpt><trkpt lat="46.0751978708714" lon="12.92787222309669"><ele>91.0</ele><time>2026-04-12T08:36:43.001Z</time></trkpt><trkpt lat="46.07524739384509" lon="12.92796782619708"><ele>91.0</ele><time>2026-04-12T08:36:45.001Z</time></trkpt><trkpt lat="46.07515982414792" lon="12.928020886311536"><ele>91.0</ele><time>2026-04-12T08:36:47.001Z</time></trkpt><trkpt lat="46.075094557034156" lon="12.92803925923731"><ele>91.0</ele><time>2026-04-12T08:36:48.001Z</time></trkpt><trkpt lat="46.074981331542844" lon="12.928086419389233"><ele>91.0</ele><time>2026-04-12T08:36:49.999Z</time></trkpt><trkpt lat="46.074911795442134" lon="12.928121284873171"><ele>91.0</ele><time>2026-04-12T08:36:50.999Z</time></trkpt><trkpt lat="46.074820676500714" lon="12.928149716956485"><ele>91.0</ele><time>2026-04-12T08:36:52.999Z</time></trkpt><trkpt lat="46.0747040484248" lon="12.928150987861324"><ele>91.0</ele><time>2026-04-12T08:36:54.999Z</time></trkpt><trkpt lat="46.074595394869434" lon="12.928133211975235"><ele>91.0</ele><time>2026-04-12T08:36:56.999Z</time></trkpt><trkpt lat="46.074569408493055" lon="12.928240307942016"><ele>91.0</ele><time>2026-04-12T08:36:58.999Z</time></trkpt><trkpt lat="46.074657980139555" lon="12.928348836002698"><ele>91.0</ele><time>2026-04-12T08:37:00.999Z</time></trkpt><trkpt lat="46.07476009328335" lon="12.928405344429512"><ele>91.0</ele><time>2026-04-12T08:37:02.999Z</time></trkpt><trkpt lat="46.074842204392226" lon="12.928393623429965"><ele>91.0</ele><time>2026-04-12T08:37:04.999Z</time></trkpt><trkpt lat="46.07491559706689" lon="12.928376678748629"><ele>91.0</ele><time>2026-04-12T08:37:06.999Z</time></trkpt><trkpt lat="46.07497065794262" lon="12.92842649816931"><ele>91.0</ele><time>2026-04-12T08:37:20Z</time></trkpt><trkpt lat="46.075032577834605" lon="12.928586512513805"><ele>91.0</ele><time>2026-04-12T08:37:22Z</time></trkpt><trkpt lat="46.075087798411566" lon="12.92865471863082"><ele>91.0</ele><time>2026-04-12T08:37:23Z</time></trkpt><trkpt lat="46.0751890105414" lon="12.928742238094763"><ele>90.8</ele><time>2026-04-12T08:37:25Z</time></trkpt><trkpt lat="46.075261100759114" lon="12.928818752946558"><ele>90.6</ele><time>2026-04-12T08:37:27Z</time></trkpt><trkpt lat="46.075178519348135" lon="12.928725026372419"><ele>90.4</ele><time>2026-04-12T08:37:36Z</time></trkpt><trkpt lat="46.07511375120233" lon="12.928660570449795"><ele>90.2</ele><time>2026-04-12T08:37:37Z</time></trkpt><trkpt lat="46.07505670127661" lon="12.928595665049547"><ele>90.0</ele><time>2026-04-12T08:37:38Z</time></trkpt><trkpt lat="46.07496722373271" lon="12.928453722967886"><ele>90.2</ele><time>2026-04-12T08:37:39Z</time></trkpt><trkpt lat="46.07493185809661" lon="12.928361618135643"><ele>90.4</ele><time>2026-04-12T08:37:40Z</time></trkpt><trkpt lat="46.0748975074656" lon="12.928255093341635"><ele>90.6</ele><time>2026-04-12T08:37:41Z</time></trkpt><trkpt lat="46.07487237431493" lon="12.928152789136682"><ele>90.8</ele><time>2026-04-12T08:37:42Z</time></trkpt><trkpt lat="46.07483307207862" lon="12.92798570141734"><ele>91.0</ele><time>2026-04-12T08:37:44Z</time></trkpt><trkpt lat="46.07478234458186" lon="12.92784359232732"><ele>91.0</ele><time>2026-04-12T08:37:46Z</time></trkpt><trkpt lat="46.07477715987244" lon="12.927751739920861"><ele>91.0</ele><time>2026-04-12T08:37:47Z</time></trkpt><trkpt lat="46.07476609514993" lon="12.92766108564914"><ele>91.0</ele><time>2026-04-12T08:37:48Z</time></trkpt><trkpt lat="46.07472913407457" lon="12.927563351073605"><ele>91.0</ele><time>2026-04-12T08:37:49Z</time></trkpt><trkpt lat="46.07468527700386" lon="12.927479895826606"><ele>91.0</ele><time>2026-04-12T08:37:50Z</time></trkpt><trkpt lat="46.074633996561836" lon="12.927394677198043"><ele>91.0</ele><time>2026-04-12T08:37:51Z</time></trkpt><trkpt lat="46.07458059302931" lon="12.927303646969941"><ele>91.0</ele><time>2026-04-12T08:37:52Z</time></trkpt><trkpt lat="46.07454007957805" lon="12.92723326066886"><ele>90.66666666666666</ele><time>2026-04-12T08:37:53Z</time></trkpt><trkpt lat="46.07452868682585" lon="12.927077246780133"><ele>90.33333333333333</ele><time>2026-04-12T08:37:55Z</time></trkpt><trkpt lat="46.074541863496" lon="12.926927878988895"><ele>90.0</ele><time>2026-04-12T08:37:57Z</time></trkpt><trkpt lat="46.07458406533327" lon="12.926832590594842"><ele>89.66666666666667</ele><time>2026-04-12T08:37:59Z</time></trkpt><trkpt lat="46.07460915896364" lon="12.926745589628881"><ele>89.33333333333334</ele><time>2026-04-12T08:38:00Z</time></trkpt><trkpt lat="46.07461121018491" lon="12.926646199937855"><ele>89.0</ele><time>2026-04-12T08:38:01Z</time></trkpt><trkpt lat="46.07458983658902" lon="12.926455552767147"><ele>89.0</ele><time>2026-04-12T08:38:03Z</time></trkpt><trkpt lat="46.07454139061063" lon="12.92631032812957"><ele>89.0</ele><time>2026-04-12T08:38:05Z</time></trkpt><trkpt lat="46.074688168976316" lon="12.926344968525726"><ele>89.0</ele><time>2026-04-12T08:38:26Z</time></trkpt><trkpt lat="46.07476740926463" lon="12.92639167911351"><ele>89.0</ele><time>2026-04-12T08:38:27Z</time></trkpt><trkpt lat="46.07487250795411" lon="12.92645859324698"><ele>88.80000000000001</ele><time>2026-04-12T08:38:28.001Z</time></trkpt><trkpt lat="46.07498388219142" lon="12.926519501002149"><ele>88.60000000000001</ele><time>2026-04-12T08:38:29.001Z</time></trkpt><trkpt lat="46.0750704773959" lon="12.926561523102814"><ele>88.4</ele><time>2026-04-12T08:38:30.001Z</time></trkpt><trkpt lat="46.07514242212011" lon="12.926606024786398"><ele>88.2</ele><time>2026-04-12T08:38:31.001Z</time></trkpt><trkpt lat="46.075213691862686" lon="12.926650915305117"><ele>88.0</ele><time>2026-04-12T08:38:32.001Z</time></trkpt><trkpt lat="46.075302161393786" lon="12.92670215894559"><ele>88.2</ele><time>2026-04-12T08:38:33.001Z</time></trkpt><trkpt lat="46.075395897053106" lon="12.926757949114641"><ele>88.4</ele><time>2026-04-12T08:38:34.001Z</time></trkpt><trkpt lat="46.07548656500493" lon="12.926809036126793"><ele>88.60000000000001</ele><time>2026-04-12T08:38:35.001Z</time></trkpt><trkpt lat="46.075572037267285" lon="12.926860283869356"><ele>88.80000000000001</ele><time>2026-04-12T08:38:36.001Z</time></trkpt><trkpt lat="46.0756577400992" lon="12.926908256871354"><ele>89.0</ele><time>2026-04-12T08:38:37.001Z</time></trkpt><trkpt lat="46.07575055901566" lon="12.92695335088446"><ele>89.2</ele><time>2026-04-12T08:38:38.001Z</time></trkpt><trkpt lat="46.07585313086515" lon="12.927002351295902"><ele>89.4</ele><time>2026-04-12T08:38:39.001Z</time></trkpt><trkpt lat="46.07596321900071" lon="12.92705218853793"><ele>89.6</ele><time>2026-04-12T08:38:40.001Z</time></trkpt><trkpt lat="46.07606782976667" lon="12.927094986270546"><ele>89.8</ele><time>2026-04-12T08:38:41.001Z</time></trkpt><trkpt lat="46.07616522977687" lon="12.927130851561337"><ele>90.0</ele><time>2026-04-12T08:38:42.001Z</time></trkpt><trkpt lat="46.07625491309013" lon="12.92716617635068"><ele>90.0</ele><time>2026-04-12T08:38:43.001Z</time></trkpt><trkpt lat="46.07634621938781" lon="12.927205930699493"><ele>90.0</ele><time>2026-04-12T08:38:44.001Z</time></trkpt><trkpt lat="46.076449516153204" lon="12.927249900215761"><ele>90.0</ele><time>2026-04-12T08:38:45.001Z</time></trkpt><trkpt lat="46.07655748595575" lon="12.927292087123169"><ele>90.0</ele><time>2026-04-12T08:38:46.001Z</time></trkpt><trkpt lat="46.076677519713954" lon="12.927331236438379"><ele>90.0</ele><time>2026-04-12T08:38:47.001Z</time></trkpt><trkpt lat="46.076788771670515" lon="12.927368689469825"><ele>90.0</ele><time>2026-04-12T08:38:48.001Z</time></trkpt><trkpt lat="46.07688411671918" lon="12.927399060151933"><ele>90.0</ele><time>2026-04-12T08:38:49.001Z</time></trkpt><trkpt lat="46.07697871979361" lon="12.927413605540517"><ele>90.0</ele><time>2026-04-12T08:38:50.001Z</time></trkpt><trkpt lat="46.07706019819024" lon="12.927434030562742"><ele>90.0</ele><time>2026-04-12T08:38:51.001Z</time></trkpt><trkpt lat="46.07715156660773" lon="12.927461884084318"><ele>90.0</ele><time>2026-04-12T08:38:53.001Z</time></trkpt><trkpt lat="46.07703240008817" lon="12.927418851741207"><ele>90.0</ele><time>2026-04-12T08:39:17Z</time></trkpt><trkpt lat="46.07694762976104" lon="12.927397452373496"><ele>90.0</ele><time>2026-04-12T08:39:18Z</time></trkpt><trkpt lat="46.07683186253462" lon="12.927373425551355"><ele>90.0</ele><time>2026-04-12T08:39:19Z</time></trkpt><trkpt lat="46.07670767452499" lon="12.927332961323284"><ele>90.0</ele><time>2026-04-12T08:39:20Z</time></trkpt><trkpt lat="46.07658154523043" lon="12.927278547773136"><ele>90.0</ele><time>2026-04-12T08:39:21Z</time></trkpt><trkpt lat="46.07646091832629" lon="12.927244844904266"><ele>90.0</ele><time>2026-04-12T08:39:22Z</time></trkpt><trkpt lat="46.07635785368904" lon="12.92720785106942"><ele>90.0</ele><time>2026-04-12T08:39:23Z</time></trkpt><trkpt lat="46.076269600515424" lon="12.927172310851079"><ele>90.0</ele><time>2026-04-12T08:39:24Z</time></trkpt><trkpt lat="46.07618679698272" lon="12.927137309611528"><ele>90.0</ele><time>2026-04-12T08:39:25Z</time></trkpt><trkpt lat="46.07611620531874" lon="12.92710718760289"><ele>90.0</ele><time>2026-04-12T08:39:26Z</time></trkpt><trkpt lat="46.076042814478896" lon="12.927077899187077"><ele>90.0</ele><time>2026-04-12T08:39:27Z</time></trkpt><trkpt lat="46.07596232422864" lon="12.92704375654632"><ele>90.0</ele><time>2026-04-12T08:39:28Z</time></trkpt><trkpt lat="46.075876734743616" lon="12.927009610275821"><ele>90.0</ele><time>2026-04-12T08:39:29Z</time></trkpt><trkpt lat="46.075789463577344" lon="12.926967975947528"><ele>90.0</ele><time>2026-04-12T08:39:30Z</time></trkpt><trkpt lat="46.075697000158186" lon="12.926923663843535"><ele>90.0</ele><time>2026-04-12T08:39:31Z</time></trkpt><trkpt lat="46.07561137710102" lon="12.92687524357061"><ele>89.8</ele><time>2026-04-12T08:39:32Z</time></trkpt><trkpt lat="46.07552615299416" lon="12.926826706106395"><ele>89.6</ele><time>2026-04-12T08:39:33Z</time></trkpt><trkpt lat="46.075437485187955" lon="12.926777547562226"><ele>89.4</ele><time>2026-04-12T08:39:34Z</time></trkpt><trkpt lat="46.07535257052606" lon="12.926733092084087"><ele>89.2</ele><time>2026-04-12T08:39:35Z</time></trkpt><trkpt lat="46.07527246212758" lon="12.926681034437886"><ele>89.0</ele><time>2026-04-12T08:39:36Z</time></trkpt><trkpt lat="46.07519123628526" lon="12.926631888026192"><ele>89.0</ele><time>2026-04-12T08:39:37Z</time></trkpt><trkpt lat="46.075106098314336" lon="12.926585975869656"><ele>89.0</ele><time>2026-04-12T08:39:38Z</time></trkpt><trkpt lat="46.07502035727745" lon="12.926536741255035"><ele>89.0</ele><time>2026-04-12T08:39:39Z</time></trkpt><trkpt lat="46.07492960453673" lon="12.926485280392125"><ele>89.0</ele><time>2026-04-12T08:39:40Z</time></trkpt><trkpt lat="46.07484579007318" lon="12.926433852158826"><ele>89.0</ele><time>2026-04-12T08:39:41Z</time></trkpt><trkpt lat="46.07476360441079" lon="12.92638905840072"><ele>89.0</ele><time>2026-04-12T08:39:42Z</time></trkpt><trkpt lat="46.074681803489966" lon="12.926337952658692"><ele>89.0</ele><time>2026-04-12T08:39:43Z</time></trkpt><trkpt lat="46.07459638212711" lon="12.926281455262691"><ele>89.0</ele><time>2026-04-12T08:39:44Z</time></trkpt><trkpt lat="46.07451714360624" lon="12.926209091853249"><ele>89.0</ele><time>2026-04-12T08:39:45Z</time></trkpt><trkpt lat="46.0744265782176" lon="12.926126659722543"><ele>89.0</ele><time>2026-04-12T08:39:46Z</time></trkpt><trkpt lat="46.07434210434676" lon="12.926066419147412"><ele>89.0</ele><time>2026-04-12T08:39:47Z</time></trkpt><trkpt lat="46.07426670473717" lon="12.926022173290647"><ele>89.0</ele><time>2026-04-12T08:39:48Z</time></trkpt><trkpt lat="46.0741844868491" lon="12.925990117921"><ele>89.0</ele><time>2026-04-12T08:39:49Z</time></trkpt><trkpt lat="46.074119540066995" lon="12.925948071434698"><ele>89.0</ele><time>2026-04-12T08:39:50Z</time></trkpt><trkpt lat="46.07406132394814" lon="12.925911849895918"><ele>89.0</ele><time>2026-04-12T08:39:51Z</time></trkpt><trkpt lat="46.073989875247975" lon="12.925858099708796"><ele>89.0</ele><time>2026-04-12T08:39:53Z</time></trkpt><trkpt lat="46.07393535037538" lon="12.925750497698784"><ele>88.66666666666667</ele><time>2026-04-12T08:39:57Z</time></trkpt><trkpt lat="46.07389528283738" lon="12.925636032413932"><ele>88.33333333333334</ele><time>2026-04-12T08:39:59Z</time></trkpt><trkpt lat="46.07381755111324" lon="12.925520364584258"><ele>88.0</ele><time>2026-04-12T08:40:01Z</time></trkpt><trkpt lat="46.073729201899724" lon="12.925500231941646"><ele>87.66666666666667</ele><time>2026-04-12T08:40:03Z</time></trkpt><trkpt lat="46.0736622617876" lon="12.92551750283012"><ele>87.33333333333333</ele><time>2026-04-12T08:40:04Z</time></trkpt><trkpt lat="46.07358129389636" lon="12.925552551886256"><ele>87.0</ele><time>2026-04-12T08:40:05Z</time></trkpt><trkpt lat="46.07349491023427" lon="12.925582611075406"><ele>87.0</ele><time>2026-04-12T08:40:06Z</time></trkpt><trkpt lat="46.073417925575434" lon="12.925594885338128"><ele>87.0</ele><time>2026-04-12T08:40:07Z</time></trkpt><trkpt lat="46.07332306798523" lon="12.92561636160408"><ele>87.0</ele><time>2026-04-12T08:40:08Z</time></trkpt><trkpt lat="46.073255573910195" lon="12.925634436340337"><ele>87.0</ele><time>2026-04-12T08:40:09Z</time></trkpt><trkpt lat="46.07317355292397" lon="12.925643443218272"><ele>87.0</ele><time>2026-04-12T08:40:10Z</time></trkpt><trkpt lat="46.07307560663685" lon="12.925653122784086"><ele>87.0</ele><time>2026-04-12T08:40:11Z</time></trkpt><trkpt lat="46.073002673541765" lon="12.92567690134191"><ele>87.5</ele><time>2026-04-12T08:40:12Z</time></trkpt><trkpt lat="46.072937968658586" lon="12.925690488867621"><ele>88.0</ele><time>2026-04-12T08:40:13Z</time></trkpt><trkpt lat="46.07281330200937" lon="12.925707637857547"><ele>88.5</ele><time>2026-04-12T08:40:15Z</time></trkpt><trkpt lat="46.072748413864765" lon="12.925700898042738"><ele>89.0</ele><time>2026-04-12T08:40:16Z</time></trkpt><trkpt lat="46.07267816790041" lon="12.925690640835827"><ele>89.5</ele><time>2026-04-12T08:40:17Z</time></trkpt><trkpt lat="46.07260713524724" lon="12.925667178361708"><ele>90.0</ele><time>2026-04-12T08:40:18Z</time></trkpt><trkpt lat="46.072527459832635" lon="12.925640839970528"><ele>90.0</ele><time>2026-04-12T08:40:19.001Z</time></trkpt><trkpt lat="46.07245327300001" lon="12.925611694938722"><ele>90.0</ele><time>2026-04-12T08:40:20.001Z</time></trkpt><trkpt lat="46.072383528825185" lon="12.925575711661857"><ele>90.0</ele><time>2026-04-12T08:40:21.001Z</time></trkpt><trkpt lat="46.07231838966627" lon="12.925528669504228"><ele>90.0</ele><time>2026-04-12T08:40:22.001Z</time></trkpt><trkpt lat="46.07225815665903" lon="12.925468553891243"><ele>90.0</ele><time>2026-04-12T08:40:23.001Z</time></trkpt><trkpt lat="46.07219580056308" lon="12.925401057840826"><ele>90.0</ele><time>2026-04-12T08:40:24.001Z</time></trkpt><trkpt lat="46.07213425899481" lon="12.92533846290211"><ele>89.83333333333333</ele><time>2026-04-12T08:40:25.001Z</time></trkpt><trkpt lat="46.07206626329811" lon="12.925275221545718"><ele>89.66666666666667</ele><time>2026-04-12T08:40:26.001Z</time></trkpt><trkpt lat="46.07200275710635" lon="12.925208422839544"><ele>89.5</ele><time>2026-04-12T08:40:27.001Z</time></trkpt><trkpt lat="46.07194331824598" lon="12.92514279854438"><ele>89.33333333333334</ele><time>2026-04-12T08:40:28.001Z</time></trkpt><trkpt lat="46.071878088605416" lon="12.925082784745426"><ele>89.16666666666667</ele><time>2026-04-12T08:40:29.001Z</time></trkpt><trkpt lat="46.07181233172037" lon="12.92503902881901"><ele>89.0</ele><time>2026-04-12T08:40:30.001Z</time></trkpt><trkpt lat="46.07172304378686" lon="12.924986513562832"><ele>89.0</ele><time>2026-04-12T08:40:31.001Z</time></trkpt><trkpt lat="46.07164490335478" lon="12.924930814864304"><ele>89.0</ele><time>2026-04-12T08:40:32.001Z</time></trkpt><trkpt lat="46.071555662163945" lon="12.924849762412"><ele>89.0</ele><time>2026-04-12T08:40:33.001Z</time></trkpt><trkpt lat="46.07148131308576" lon="12.924778858952985"><ele>89.0</ele><time>2026-04-12T08:40:34.001Z</time></trkpt><trkpt lat="46.0714022626451" lon="12.924707901521659"><ele>89.0</ele><time>2026-04-12T08:40:35.001Z</time></trkpt><trkpt lat="46.07131998408087" lon="12.924639687932666"><ele>89.2</ele><time>2026-04-12T08:40:36.001Z</time></trkpt><trkpt lat="46.07123082694128" lon="12.924568998036476"><ele>89.4</ele><time>2026-04-12T08:40:37.001Z</time></trkpt><trkpt lat="46.07113399589357" lon="12.924501793263664"><ele>89.6</ele><time>2026-04-12T08:40:38.001Z</time></trkpt><trkpt lat="46.071041312045445" lon="12.924444055432778"><ele>89.8</ele><time>2026-04-12T08:40:39.001Z</time></trkpt><trkpt lat="46.070956313106066" lon="12.924395371654482"><ele>90.0</ele><time>2026-04-12T08:40:40.001Z</time></trkpt><trkpt lat="46.07085412753257" lon="12.924342165193758"><ele>90.16666666666667</ele><time>2026-04-12T08:40:41.001Z</time></trkpt><trkpt lat="46.07075981652361" lon="12.924308882496108"><ele>90.33333333333333</ele><time>2026-04-12T08:40:42.001Z</time></trkpt><trkpt lat="46.07066497818808" lon="12.924283500981431"><ele>90.5</ele><time>2026-04-12T08:40:43.001Z</time></trkpt><trkpt lat="46.070601085612985" lon="12.924260913280813"><ele>90.66666666666666</ele><time>2026-04-12T08:40:44.001Z</time></trkpt><trkpt lat="46.07052040019198" lon="12.924212339349044"><ele>90.83333333333333</ele><time>2026-04-12T08:40:46.001Z</time></trkpt><trkpt lat="46.07044715754524" lon="12.924112041967886"><ele>91.0</ele><time>2026-04-12T08:40:48.001Z</time></trkpt><trkpt lat="46.07038927714738" lon="12.92404989107329"><ele>90.83333333333333</ele><time>2026-04-12T08:40:49.001Z</time></trkpt><trkpt lat="46.07031471847732" lon="12.92400720112287"><ele>90.66666666666666</ele><time>2026-04-12T08:40:50.001Z</time></trkpt><trkpt lat="46.07024743591745" lon="12.92396988924487"><ele>90.5</ele><time>2026-04-12T08:40:51.001Z</time></trkpt><trkpt lat="46.070177992899154" lon="12.92394261363802"><ele>90.33333333333333</ele><time>2026-04-12T08:40:52.001Z</time></trkpt><trkpt lat="46.07010842632213" lon="12.923916068187523"><ele>90.16666666666667</ele><time>2026-04-12T08:40:53.001Z</time></trkpt><trkpt lat="46.070039312918766" lon="12.923901416762403"><ele>90.0</ele><time>2026-04-12T08:40:54.001Z</time></trkpt><trkpt lat="46.06991525798124" lon="12.923882226857456"><ele>90.0</ele><time>2026-04-12T08:40:56.001Z</time></trkpt><trkpt lat="46.06980502356714" lon="12.923870957398952"><ele>90.0</ele><time>2026-04-12T08:40:58.001Z</time></trkpt><trkpt lat="46.069737788929835" lon="12.923895862466388"><ele>90.0</ele><time>2026-04-12T08:41:00.001Z</time></trkpt><trkpt lat="46.069621063542186" lon="12.923899645990751"><ele>90.0</ele><time>2026-04-12T08:41:01.999Z</time></trkpt><trkpt lat="46.06950101056356" lon="12.923859409051092"><ele>90.0</ele><time>2026-04-12T08:41:03.999Z</time></trkpt><trkpt lat="46.06942116280314" lon="12.92382751609803"><ele>90.0</ele><time>2026-04-12T08:41:04.999Z</time></trkpt><trkpt lat="46.06934437000849" lon="12.923788293726313"><ele>90.0</ele><time>2026-04-12T08:41:05.999Z</time></trkpt><trkpt lat="46.06928132365819" lon="12.923734844252664"><ele>90.0</ele><time>2026-04-12T08:41:06.999Z</time></trkpt><trkpt lat="46.06921837465909" lon="12.923666155418402"><ele>90.0</ele><time>2026-04-12T08:41:07.999Z</time></trkpt><trkpt lat="46.06916012981439" lon="12.923594312132623"><ele>90.0</ele><time>2026-04-12T08:41:08.999Z</time></trkpt><trkpt lat="46.06911114408044" lon="12.923519367612046"><ele>90.0</ele><time>2026-04-12T08:41:09.999Z</time></trkpt><trkpt lat="46.06905725268704" lon="12.92345262641225"><ele>89.16666666666667</ele><time>2026-04-12T08:41:10.999Z</time></trkpt><trkpt lat="46.06901123365681" lon="12.923383858620573"><ele>88.33333333333333</ele><time>2026-04-12T08:41:11.999Z</time></trkpt><trkpt lat="46.06895390188262" lon="12.92327156149952"><ele>87.5</ele><time>2026-04-12T08:41:13Z</time></trkpt><trkpt lat="46.06889963466845" lon="12.923183549512917"><ele>86.66666666666666</ele><time>2026-04-12T08:41:14Z</time></trkpt><trkpt lat="46.06884247788485" lon="12.923111589402254"><ele>85.83333333333333</ele><time>2026-04-12T08:41:15Z</time></trkpt><trkpt lat="46.06879210948555" lon="12.9230539258156"><ele>85.0</ele><time>2026-04-12T08:41:16Z</time></trkpt><trkpt lat="46.06868288858999" lon="12.92294681730168"><ele>85.0</ele><time>2026-04-12T08:41:18Z</time></trkpt><trkpt lat="46.0686162622006" lon="12.922856785485267"><ele>85.0</ele><time>2026-04-12T08:41:19Z</time></trkpt><trkpt lat="46.068555665846844" lon="12.92275145549458"><ele>85.0</ele><time>2026-04-12T08:41:20Z</time></trkpt><trkpt lat="46.06848534863638" lon="12.9226483916253"><ele>85.0</ele><time>2026-04-12T08:41:21Z</time></trkpt><trkpt lat="46.0684139714173" lon="12.922555846519387"><ele>85.0</ele><time>2026-04-12T08:41:22Z</time></trkpt><trkpt lat="46.06834257280547" lon="12.92245844718572"><ele>85.0</ele><time>2026-04-12T08:41:23Z</time></trkpt><trkpt lat="46.06827184228251" lon="12.922368657343146"><ele>85.0</ele><time>2026-04-12T08:41:24Z</time></trkpt><trkpt lat="46.06820420880527" lon="12.922290918157028"><ele>85.0</ele><time>2026-04-12T08:41:25Z</time></trkpt><trkpt lat="46.068136606726235" lon="12.922222514789366"><ele>85.0</ele><time>2026-04-12T08:41:26Z</time></trkpt><trkpt lat="46.068074748096436" lon="12.922162726056898"><ele>85.0</ele><time>2026-04-12T08:41:27Z</time></trkpt><trkpt lat="46.06800846319242" lon="12.922090192189177"><ele>85.0</ele><time>2026-04-12T08:41:28Z</time></trkpt><trkpt lat="46.067929324526695" lon="12.922001835255655"><ele>85.0</ele><time>2026-04-12T08:41:29Z</time></trkpt><trkpt lat="46.06785517676363" lon="12.921917095944584"><ele>85.0</ele><time>2026-04-12T08:41:30Z</time></trkpt><trkpt lat="46.06778376484394" lon="12.9218305854058"><ele>85.0</ele><time>2026-04-12T08:41:31Z</time></trkpt><trkpt lat="46.06771204008121" lon="12.921757986507439"><ele>85.0</ele><time>2026-04-12T08:41:32Z</time></trkpt><trkpt lat="46.06763988203755" lon="12.921672795527787"><ele>85.0</ele><time>2026-04-12T08:41:33Z</time></trkpt><trkpt lat="46.067557338309776" lon="12.921588187147218"><ele>84.8</ele><time>2026-04-12T08:41:34Z</time></trkpt><trkpt lat="46.06747506271409" lon="12.92149629295546"><ele>84.6</ele><time>2026-04-12T08:41:35Z</time></trkpt><trkpt lat="46.06739477768123" lon="12.921407409526584"><ele>84.4</ele><time>2026-04-12T08:41:36Z</time></trkpt><trkpt lat="46.06732126354402" lon="12.921329617447098"><ele>84.2</ele><time>2026-04-12T08:41:37Z</time></trkpt><trkpt lat="46.067242668452906" lon="12.921242059764495"><ele>84.0</ele><time>2026-04-12T08:41:38Z</time></trkpt><trkpt lat="46.067164156847674" lon="12.921161612338496"><ele>84.0</ele><time>2026-04-12T08:41:39Z</time></trkpt><trkpt lat="46.06707558918888" lon="12.921069506167985"><ele>84.0</ele><time>2026-04-12T08:41:40Z</time></trkpt><trkpt lat="46.066995025603646" lon="12.920996443179076"><ele>84.0</ele><time>2026-04-12T08:41:41Z</time></trkpt><trkpt lat="46.06690351185571" lon="12.920931280353608"><ele>84.0</ele><time>2026-04-12T08:41:42Z</time></trkpt><trkpt lat="46.06681252062673" lon="12.92087509304956"><ele>84.0</ele><time>2026-04-12T08:41:43Z</time></trkpt><trkpt lat="46.066717425177345" lon="12.920821593468625"><ele>84.0</ele><time>2026-04-12T08:41:44Z</time></trkpt><trkpt lat="46.06662106209948" lon="12.92076761787155"><ele>84.0</ele><time>2026-04-12T08:41:45Z</time></trkpt><trkpt lat="46.06653812365078" lon="12.920730454386467"><ele>84.0</ele><time>2026-04-12T08:41:46Z</time></trkpt><trkpt lat="46.06644646563699" lon="12.920682061385987"><ele>84.0</ele><time>2026-04-12T08:41:47Z</time></trkpt><trkpt lat="46.06635501249626" lon="12.920621062624317"><ele>84.0</ele><time>2026-04-12T08:41:48Z</time></trkpt><trkpt lat="46.06626275175808" lon="12.92055269880094"><ele>84.0</ele><time>2026-04-12T08:41:49Z</time></trkpt><trkpt lat="46.06617520351094" lon="12.920478764156423"><ele>84.0</ele><time>2026-04-12T08:41:50Z</time></trkpt><trkpt lat="46.06609348050741" lon="12.920416130592297"><ele>84.0</ele><time>2026-04-12T08:41:51Z</time></trkpt><trkpt lat="46.06600538590165" lon="12.920355065009334"><ele>84.0</ele><time>2026-04-12T08:41:52Z</time></trkpt><trkpt lat="46.0659031765009" lon="12.920292306078206"><ele>84.0</ele><time>2026-04-12T08:41:53Z</time></trkpt><trkpt lat="46.06579153507158" lon="12.920243490284479"><ele>83.80000000000001</ele><time>2026-04-12T08:41:54Z</time></trkpt><trkpt lat="46.06568333407203" lon="12.920209373736869"><ele>83.60000000000001</ele><time>2026-04-12T08:41:55Z</time></trkpt><trkpt lat="46.06558826009092" lon="12.920185445615141"><ele>83.4</ele><time>2026-04-12T08:41:56Z</time></trkpt><trkpt lat="46.0655044757069" lon="12.920156852188102"><ele>83.2</ele><time>2026-04-12T08:41:57Z</time></trkpt><trkpt lat="46.06542311004178" lon="12.920126310440665"><ele>83.0</ele><time>2026-04-12T08:41:58Z</time></trkpt><trkpt lat="46.06532529106768" lon="12.92007823317431"><ele>82.80000000000001</ele><time>2026-04-12T08:42:00Z</time></trkpt><trkpt lat="46.06522476083467" lon="12.919981713000327"><ele>82.6</ele><time>2026-04-12T08:42:02Z</time></trkpt><trkpt lat="46.065138101061784" lon="12.919934187697374"><ele>82.4</ele><time>2026-04-12T08:42:03Z</time></trkpt><trkpt lat="46.06503608029201" lon="12.9199094848744"><ele>82.19999999999999</ele><time>2026-04-12T08:42:04Z</time></trkpt><trkpt lat="46.06490837422905" lon="12.919908269773613"><ele>82.0</ele><time>2026-04-12T08:42:05Z</time></trkpt><trkpt lat="46.06479440728907" lon="12.919911941389788"><ele>82.0</ele><time>2026-04-12T08:42:06Z</time></trkpt><trkpt lat="46.06468725527721" lon="12.919895843763456"><ele>82.0</ele><time>2026-04-12T08:42:07Z</time></trkpt><trkpt lat="46.06460706801916" lon="12.919871742891381"><ele>82.0</ele><time>2026-04-12T08:42:08Z</time></trkpt><trkpt lat="46.064505976693226" lon="12.919850377461518"><ele>82.0</ele><time>2026-04-12T08:42:10Z</time></trkpt><trkpt lat="46.06437430360153" lon="12.919773580373855"><ele>82.0</ele><time>2026-04-12T08:42:12Z</time></trkpt><trkpt lat="46.06430218946907" lon="12.9197120419674"><ele>82.0</ele><time>2026-04-12T08:42:13.001Z</time></trkpt><trkpt lat="46.064226939834136" lon="12.919637240485592"><ele>82.0</ele><time>2026-04-12T08:42:14.001Z</time></trkpt><trkpt lat="46.06415964646232" lon="12.919582453181562"><ele>82.0</ele><time>2026-04-12T08:42:15.001Z</time></trkpt><trkpt lat="46.06407537050775" lon="12.919549252615909"><ele>82.0</ele><time>2026-04-12T08:42:16.001Z</time></trkpt><trkpt lat="46.06397670230121" lon="12.919538773679287"><ele>82.0</ele><time>2026-04-12T08:42:17.001Z</time></trkpt><trkpt lat="46.063869114953555" lon="12.919556603209246"><ele>81.83333333333333</ele><time>2026-04-12T08:42:18.001Z</time></trkpt><trkpt lat="46.063786662993756" lon="12.91957330686273"><ele>81.66666666666666</ele><time>2026-04-12T08:42:19.001Z</time></trkpt><trkpt lat="46.06370577673371" lon="12.919596428203175"><ele>81.5</ele><time>2026-04-12T08:42:20.001Z</time></trkpt><trkpt lat="46.06363653847058" lon="12.919622614364961"><ele>81.33333333333333</ele><time>2026-04-12T08:42:21.001Z</time></trkpt><trkpt lat="46.0635645207132" lon="12.91963466027167"><ele>81.16666666666667</ele><time>2026-04-12T08:42:22.001Z</time></trkpt><trkpt lat="46.06348777236793" lon="12.919647574920079"><ele>81.0</ele><time>2026-04-12T08:42:23.001Z</time></trkpt><trkpt lat="46.06341733534597" lon="12.91966393527208"><ele>81.0</ele><time>2026-04-12T08:42:24.001Z</time></trkpt><trkpt lat="46.063342060136534" lon="12.919686620526617"><ele>81.0</ele><time>2026-04-12T08:42:25.001Z</time></trkpt><trkpt lat="46.063251310038794" lon="12.919701187324538"><ele>81.0</ele><time>2026-04-12T08:42:27.001Z</time></trkpt><trkpt lat="46.06312386676286" lon="12.91973351092904"><ele>81.0</ele><time>2026-04-12T08:42:29.001Z</time></trkpt><trkpt lat="46.0630101589137" lon="12.91975192265081"><ele>81.0</ele><time>2026-04-12T08:42:31.001Z</time></trkpt><trkpt lat="46.06290532403397" lon="12.919777324082006"><ele>81.0</ele><time>2026-04-12T08:42:33.001Z</time></trkpt><trkpt lat="46.062831631277255" lon="12.919803601812054"><ele>81.0</ele><time>2026-04-12T08:42:36.001Z</time></trkpt><trkpt lat="46.06283158846084" lon="12.919916156573557"><ele>81.0</ele><time>2026-04-12T08:42:40.001Z</time></trkpt><trkpt lat="46.06285434310626" lon="12.920001116491868"><ele>81.0</ele><time>2026-04-12T08:42:41.001Z</time></trkpt><trkpt lat="46.062886046641474" lon="12.920083859126068"><ele>81.0</ele><time>2026-04-12T08:42:42.001Z</time></trkpt><trkpt lat="46.0628965844786" lon="12.92019067991079"><ele>81.0</ele><time>2026-04-12T08:42:44.001Z</time></trkpt><trkpt lat="46.06290471525697" lon="12.920321469520179"><ele>81.0</ele><time>2026-04-12T08:42:46.001Z</time></trkpt><trkpt lat="46.06293864645785" lon="12.920492201188647"><ele>81.16666666666667</ele><time>2026-04-12T08:42:48.001Z</time></trkpt><trkpt lat="46.06294716145433" lon="12.920586290996443"><ele>81.33333333333333</ele><time>2026-04-12T08:42:49.001Z</time></trkpt><trkpt lat="46.06296555046813" lon="12.920698569648017"><ele>81.5</ele><time>2026-04-12T08:42:50.001Z</time></trkpt><trkpt lat="46.06299699081373" lon="12.920842851246071"><ele>81.66666666666666</ele><time>2026-04-12T08:42:52.001Z</time></trkpt><trkpt lat="46.06299736524975" lon="12.92096082118877"><ele>81.83333333333333</ele><time>2026-04-12T08:42:54.001Z</time></trkpt><trkpt lat="46.0630114393432" lon="12.921071763739244"><ele>82.0</ele><time>2026-04-12T08:42:57.001Z</time></trkpt><trkpt lat="46.0630253170858" lon="12.92117432624168"><ele>82.0</ele><time>2026-04-12T08:42:59.001Z</time></trkpt><trkpt lat="46.06300288464257" lon="12.921260975885968"><ele>82.0</ele><time>2026-04-12T08:43:01.001Z</time></trkpt><trkpt lat="46.06297916400415" lon="12.921423712896805"><ele>82.0</ele><time>2026-04-12T08:43:03.001Z</time></trkpt><trkpt lat="46.062936641884356" lon="12.921522741199963"><ele>82.0</ele><time>2026-04-12T08:43:05.001Z</time></trkpt><trkpt lat="46.06286550362053" lon="12.921557015575347"><ele>82.0</ele><time>2026-04-12T08:43:07Z</time></trkpt><trkpt lat="46.06278714183098" lon="12.921537941031405"><ele>82.0</ele><time>2026-04-12T08:43:10Z</time></trkpt><trkpt lat="46.06271254513084" lon="12.921433307236388"><ele>82.0</ele><time>2026-04-12T08:43:12Z</time></trkpt><trkpt lat="46.0626058170127" lon="12.921378141147839"><ele>82.0</ele><time>2026-04-12T08:43:14Z</time></trkpt><trkpt lat="46.062496438113534" lon="12.92135841349424"><ele>82.0</ele><time>2026-04-12T08:43:16Z</time></trkpt><trkpt lat="46.06242109507184" lon="12.921280184442686"><ele>82.0</ele><time>2026-04-12T08:43:18Z</time></trkpt><trkpt lat="46.06236732685463" lon="12.921183606830715"><ele>82.0</ele><time>2026-04-12T08:43:20Z</time></trkpt><trkpt lat="46.062276552466535" lon="12.921098733604273"><ele>82.0</ele><time>2026-04-12T08:43:24Z</time></trkpt><trkpt lat="46.06218320585769" lon="12.921021618216326"><ele>82.0</ele><time>2026-04-12T08:43:26Z</time></trkpt><trkpt lat="46.06209756159893" lon="12.920934544413239"><ele>82.0</ele><time>2026-04-12T08:43:28Z</time></trkpt><trkpt lat="46.062042919587455" lon="12.920872309396458"><ele>82.0</ele><time>2026-04-12T08:43:30Z</time></trkpt><trkpt lat="46.06204309433421" lon="12.921004338152443"><ele>82.0</ele><time>2026-04-12T08:43:44Z</time></trkpt><trkpt lat="46.062046220364486" lon="12.921109605417701"><ele>82.0</ele><time>2026-04-12T08:43:46Z</time></trkpt><trkpt lat="46.06205790036171" lon="12.92120141195445"><ele>82.0</ele><time>2026-04-12T08:43:48Z</time></trkpt><trkpt lat="46.06210121045872" lon="12.921311275140724"><ele>82.0</ele><time>2026-04-12T08:43:50Z</time></trkpt><trkpt lat="46.06214565856098" lon="12.921389535464659"><ele>82.0</ele><time>2026-04-12T08:43:51Z</time></trkpt><trkpt lat="46.062207753011336" lon="12.921476005825026"><ele>82.0</ele><time>2026-04-12T08:43:52Z</time></trkpt><trkpt lat="46.062265560434625" lon="12.921550972009406"><ele>82.0</ele><time>2026-04-12T08:43:53Z</time></trkpt><trkpt lat="46.062318155749814" lon="12.921611657632322"><ele>82.0</ele><time>2026-04-12T08:43:54Z</time></trkpt><trkpt lat="46.062396300999914" lon="12.921693129988132"><ele>82.16666666666666</ele><time>2026-04-12T08:43:56Z</time></trkpt><trkpt lat="46.06245319239869" lon="12.92174501666007"><ele>82.33333333333333</ele><time>2026-04-12T08:43:59Z</time></trkpt><trkpt lat="46.062518098723295" lon="12.921805596105473"><ele>82.5</ele><time>2026-04-12T08:45:07.001Z</time></trkpt><trkpt lat="46.06258673023209" lon="12.921873675341784"><ele>82.66666666666667</ele><time>2026-04-12T08:45:10.001Z</time></trkpt><trkpt lat="46.06265209294625" lon="12.921917510417883"><ele>82.83333333333334</ele><time>2026-04-12T08:45:12.001Z</time></trkpt><trkpt lat="46.06273493906544" lon="12.9219722232438"><ele>83.0</ele><time>2026-04-12T08:45:12.999Z</time></trkpt><trkpt lat="46.06280649675527" lon="12.922044856141614"><ele>83.0</ele><time>2026-04-12T08:45:13.999Z</time></trkpt><trkpt lat="46.062872269628826" lon="12.922110369074353"><ele>83.0</ele><time>2026-04-12T08:45:14.999Z</time></trkpt><trkpt lat="46.06292989689701" lon="12.922160152390388"><ele>83.0</ele><time>2026-04-12T08:45:15.999Z</time></trkpt><trkpt lat="46.063039233753614" lon="12.922248107320344"><ele>83.0</ele><time>2026-04-12T08:45:17.999Z</time></trkpt><trkpt lat="46.06317221318025" lon="12.922299007281993"><ele>83.0</ele><time>2026-04-12T08:45:19.999Z</time></trkpt><trkpt lat="46.06330308197399" lon="12.92228332715974"><ele>82.80000000000001</ele><time>2026-04-12T08:45:21.999Z</time></trkpt><trkpt lat="46.06339339659842" lon="12.922253656649369"><ele>82.6</ele><time>2026-04-12T08:45:22.999Z</time></trkpt><trkpt lat="46.06347506384668" lon="12.922220833523149"><ele>82.4</ele><time>2026-04-12T08:45:23.999Z</time></trkpt><trkpt lat="46.06354723258137" lon="12.922194208999025"><ele>82.19999999999999</ele><time>2026-04-12T08:45:24.999Z</time></trkpt><trkpt lat="46.063657560081985" lon="12.922160753853358"><ele>82.0</ele><time>2026-04-12T08:45:27Z</time></trkpt><trkpt lat="46.063761517850786" lon="12.922108579878833"><ele>82.0</ele><time>2026-04-12T08:45:29Z</time></trkpt><trkpt lat="46.06382403997138" lon="12.922086307230504"><ele>82.0</ele><time>2026-04-12T08:45:30Z</time></trkpt><trkpt lat="46.063899080146136" lon="12.922051881278925"><ele>82.0</ele><time>2026-04-12T08:45:31Z</time></trkpt><trkpt lat="46.06398158958912" lon="12.922013030312973"><ele>82.0</ele><time>2026-04-12T08:45:32Z</time></trkpt><trkpt lat="46.06404667083357" lon="12.92196948345564"><ele>82.0</ele><time>2026-04-12T08:45:33Z</time></trkpt><trkpt lat="46.064158543257314" lon="12.921922799974531"><ele>82.0</ele><time>2026-04-12T08:45:35Z</time></trkpt><trkpt lat="46.0642364439349" lon="12.921906010378429"><ele>82.39999999999999</ele><time>2026-04-12T08:45:37Z</time></trkpt><trkpt lat="46.064318842444564" lon="12.921871842914708"><ele>82.8</ele><time>2026-04-12T08:45:40Z</time></trkpt><trkpt lat="46.06442338303659" lon="12.921873713449209"><ele>83.2</ele><time>2026-04-12T08:45:42Z</time></trkpt><trkpt lat="46.06453045321852" lon="12.921858113196619"><ele>83.6</ele><time>2026-04-12T08:45:44Z</time></trkpt><trkpt lat="46.06460006679996" lon="12.921840028899355"><ele>84.0</ele><time>2026-04-12T08:45:46Z</time></trkpt><trkpt lat="46.06468830946085" lon="12.921866056166033"><ele>84.0</ele><time>2026-04-12T08:45:48Z</time></trkpt><trkpt lat="46.06474848470388" lon="12.92190342060856"><ele>84.0</ele><time>2026-04-12T08:45:49Z</time></trkpt><trkpt lat="46.06485698795193" lon="12.921936904450254"><ele>84.0</ele><time>2026-04-12T08:45:51Z</time></trkpt><trkpt lat="46.06495914155144" lon="12.921958451107203"><ele>84.0</ele><time>2026-04-12T08:45:53Z</time></trkpt><trkpt lat="46.0650562634814" lon="12.921923326590331"><ele>84.0</ele><time>2026-04-12T08:45:55Z</time></trkpt><trkpt lat="46.0651641885759" lon="12.92190874285074"><ele>84.0</ele><time>2026-04-12T08:45:57Z</time></trkpt><trkpt lat="46.06527839551442" lon="12.921866599562039"><ele>84.0</ele><time>2026-04-12T08:45:59Z</time></trkpt><trkpt lat="46.06535931244524" lon="12.921921821030361"><ele>84.0</ele><time>2026-04-12T08:46:01Z</time></trkpt><trkpt lat="46.065423286518325" lon="12.92198659794701"><ele>84.0</ele><time>2026-04-12T08:46:02Z</time></trkpt><trkpt lat="46.06549164914262" lon="12.922027666316819"><ele>84.0</ele><time>2026-04-12T08:46:03Z</time></trkpt><trkpt lat="46.065569916240264" lon="12.922070702110164"><ele>84.0</ele><time>2026-04-12T08:46:05Z</time></trkpt><trkpt lat="46.065633263395895" lon="12.92209925760126"><ele>84.0</ele><time>2026-04-12T08:46:07Z</time></trkpt><trkpt lat="46.06569771594101" lon="12.92206213449954"><ele>84.0</ele><time>2026-04-12T08:46:09Z</time></trkpt><trkpt lat="46.065797356478036" lon="12.922034247171084"><ele>84.0</ele><time>2026-04-12T08:46:11Z</time></trkpt><trkpt lat="46.06589445965157" lon="12.922113567117279"><ele>84.0</ele><time>2026-04-12T08:46:13Z</time></trkpt><trkpt lat="46.06595446568081" lon="12.922154592356389"><ele>84.0</ele><time>2026-04-12T08:46:14.001Z</time></trkpt><trkpt lat="46.06605994734905" lon="12.922224751210928"><ele>83.80000000000001</ele><time>2026-04-12T08:46:16.001Z</time></trkpt><trkpt lat="46.06616872138316" lon="12.922308064531245"><ele>83.60000000000001</ele><time>2026-04-12T08:46:18.001Z</time></trkpt><trkpt lat="46.06622827493663" lon="12.922341014724932"><ele>83.4</ele><time>2026-04-12T08:46:19.001Z</time></trkpt><trkpt lat="46.06633670541461" lon="12.92239098575942"><ele>83.2</ele><time>2026-04-12T08:46:21.001Z</time></trkpt><trkpt lat="46.06642048089306" lon="12.922424187887307"><ele>83.0</ele><time>2026-04-12T08:46:25.001Z</time></trkpt><trkpt lat="46.066523870716864" lon="12.922386898639493"><ele>83.0</ele><time>2026-04-12T08:46:27.001Z</time></trkpt><trkpt lat="46.06659159691081" lon="12.922382049083637"><ele>83.0</ele><time>2026-04-12T08:46:28.001Z</time></trkpt><trkpt lat="46.066665732483536" lon="12.922382723111294"><ele>83.0</ele><time>2026-04-12T08:46:29.001Z</time></trkpt><trkpt lat="46.06674372276029" lon="12.922377752611158"><ele>83.0</ele><time>2026-04-12T08:46:30.001Z</time></trkpt><trkpt lat="46.06681688414964" lon="12.922375425423397"><ele>83.0</ele><time>2026-04-12T08:46:31.001Z</time></trkpt><trkpt lat="46.066928289868045" lon="12.922386185974773"><ele>83.0</ele><time>2026-04-12T08:46:33.001Z</time></trkpt><trkpt lat="46.067022948882574" lon="12.922378472879075"><ele>83.0</ele><time>2026-04-12T08:46:35.001Z</time></trkpt><trkpt lat="46.0671394809364" lon="12.9223417343691"><ele>83.0</ele><time>2026-04-12T08:46:37.001Z</time></trkpt><trkpt lat="46.0672104900008" lon="12.922314873814969"><ele>83.0</ele><time>2026-04-12T08:46:38.001Z</time></trkpt><trkpt lat="46.0672805422031" lon="12.922297330789107"><ele>83.0</ele><time>2026-04-12T08:46:39.001Z</time></trkpt><trkpt lat="46.067349013646464" lon="12.922290925552286"><ele>83.0</ele><time>2026-04-12T08:46:40.001Z</time></trkpt><trkpt lat="46.06741616638523" lon="12.922292425188823"><ele>83.0</ele><time>2026-04-12T08:46:41.001Z</time></trkpt><trkpt lat="46.0675365058566" lon="12.922296730677374"><ele>83.28571428571428</ele><time>2026-04-12T08:46:43.001Z</time></trkpt><trkpt lat="46.06760557777008" lon="12.922295700260367"><ele>83.57142857142858</ele><time>2026-04-12T08:46:44.001Z</time></trkpt><trkpt lat="46.067670663140525" lon="12.922300452351093"><ele>83.85714285714286</ele><time>2026-04-12T08:46:45.001Z</time></trkpt><trkpt lat="46.06773995132381" lon="12.922308257865279"><ele>84.14285714285714</ele><time>2026-04-12T08:46:46.001Z</time></trkpt><trkpt lat="46.06780492276718" lon="12.922314191066725"><ele>84.42857142857142</ele><time>2026-04-12T08:46:47.001Z</time></trkpt><trkpt lat="46.06787028747867" lon="12.922314545162864"><ele>84.71428571428572</ele><time>2026-04-12T08:46:48.001Z</time></trkpt><trkpt lat="46.067973508715724" lon="12.922369222050715"><ele>85.0</ele><time>2026-04-12T08:46:50.001Z</time></trkpt><trkpt lat="46.068080287262035" lon="12.922449550782568"><ele>85.0</ele><time>2026-04-12T08:46:52.001Z</time></trkpt><trkpt lat="46.06814867684801" lon="12.922492265763688"><ele>85.0</ele><time>2026-04-12T08:46:53.001Z</time></trkpt><trkpt lat="46.06826126034694" lon="12.922541590492637"><ele>85.0</ele><time>2026-04-12T08:46:55.001Z</time></trkpt><trkpt lat="46.06835342052018" lon="12.922621891274353"><ele>85.0</ele><time>2026-04-12T08:46:57.001Z</time></trkpt><trkpt lat="46.06839770300255" lon="12.922686433565175"><ele>85.0</ele><time>2026-04-12T08:46:58.001Z</time></trkpt><trkpt lat="46.068447098273126" lon="12.922745078047601"><ele>85.0</ele><time>2026-04-12T08:46:59.001Z</time></trkpt><trkpt lat="46.06850729204638" lon="12.922788309121103"><ele>85.0</ele><time>2026-04-12T08:47:00.001Z</time></trkpt><trkpt lat="46.06857334944891" lon="12.922830250100818"><ele>85.0</ele><time>2026-04-12T08:47:01.001Z</time></trkpt><trkpt lat="46.06867330166388" lon="12.922917332143479"><ele>85.0</ele><time>2026-04-12T08:47:03.001Z</time></trkpt><trkpt lat="46.068754024051415" lon="12.923064237626129"><ele>85.0</ele><time>2026-04-12T08:47:05.001Z</time></trkpt><trkpt lat="46.06880748795809" lon="12.923157704577063"><ele>85.0</ele><time>2026-04-12T08:47:06.001Z</time></trkpt><trkpt lat="46.068869915938365" lon="12.923251949665847"><ele>85.0</ele><time>2026-04-12T08:47:07.001Z</time></trkpt><trkpt lat="46.06892359839638" lon="12.923330229960333"><ele>85.0</ele><time>2026-04-12T08:47:08.001Z</time></trkpt><trkpt lat="46.068973538731605" lon="12.923397083946673"><ele>85.0</ele><time>2026-04-12T08:47:09.001Z</time></trkpt><trkpt lat="46.06905771743238" lon="12.92348764283763"><ele>85.0</ele><time>2026-04-12T08:47:11.001Z</time></trkpt><trkpt lat="46.06911063510316" lon="12.923590470782386"><ele>85.0</ele><time>2026-04-12T08:47:13.001Z</time></trkpt><trkpt lat="46.06904914831999" lon="12.923656373528457"><ele>85.0</ele><time>2026-04-12T08:47:18.002Z</time></trkpt><trkpt lat="46.06898892155612" lon="12.923613095764866"><ele>85.2</ele><time>2026-04-12T08:47:19Z</time></trkpt><trkpt lat="46.06892328278761" lon="12.923558120696242"><ele>85.4</ele><time>2026-04-12T08:47:20Z</time></trkpt><trkpt lat="46.06880066357388" lon="12.923605422054083"><ele>85.6</ele><time>2026-04-12T08:47:22Z</time></trkpt><trkpt lat="46.06870280528895" lon="12.923629127505778"><ele>85.8</ele><time>2026-04-12T08:47:23Z</time></trkpt><trkpt lat="46.068607431766175" lon="12.923641709470008"><ele>86.0</ele><time>2026-04-12T08:47:24Z</time></trkpt><trkpt lat="46.06850956582518" lon="12.923657102697728"><ele>86.0</ele><time>2026-04-12T08:47:25Z</time></trkpt><trkpt lat="46.06841323661023" lon="12.923679593039694"><ele>86.0</ele><time>2026-04-12T08:47:26Z</time></trkpt><trkpt lat="46.06832043524093" lon="12.923689870598414"><ele>86.0</ele><time>2026-04-12T08:47:27Z</time></trkpt><trkpt lat="46.06822176882513" lon="12.923686354453165"><ele>86.0</ele><time>2026-04-12T08:47:28Z</time></trkpt><trkpt lat="46.068123193701524" lon="12.923694685238752"><ele>86.0</ele><time>2026-04-12T08:47:29Z</time></trkpt><trkpt lat="46.06803034564997" lon="12.923725777847475"><ele>85.66666666666667</ele><time>2026-04-12T08:47:30Z</time></trkpt><trkpt lat="46.06796440359959" lon="12.923767953728989"><ele>85.33333333333334</ele><time>2026-04-12T08:47:31Z</time></trkpt><trkpt lat="46.0679115044469" lon="12.923817596501737"><ele>85.0</ele><time>2026-04-12T08:47:32Z</time></trkpt><trkpt lat="46.067823853641784" lon="12.923931268749861"><ele>84.66666666666667</ele><time>2026-04-12T08:47:34Z</time></trkpt><trkpt lat="46.06777467472047" lon="12.924011227482048"><ele>84.33333333333333</ele><time>2026-04-12T08:47:35Z</time></trkpt><trkpt lat="46.06771466038032" lon="12.924098704974206"><ele>84.0</ele><time>2026-04-12T08:47:36Z</time></trkpt><trkpt lat="46.0676522366406" lon="12.924191710852519"><ele>84.4</ele><time>2026-04-12T08:47:37Z</time></trkpt><trkpt lat="46.067589491088484" lon="12.924277629692424"><ele>84.80000000000001</ele><time>2026-04-12T08:47:38Z</time></trkpt><trkpt lat="46.06752817627624" lon="12.924355753633506"><ele>85.19999999999999</ele><time>2026-04-12T08:47:39Z</time></trkpt><trkpt lat="46.067466333864516" lon="12.924453499173536"><ele>85.6</ele><time>2026-04-12T08:47:40Z</time></trkpt><trkpt lat="46.06740265819616" lon="12.92457244674287"><ele>86.0</ele><time>2026-04-12T08:47:41Z</time></trkpt><trkpt lat="46.06734084562896" lon="12.924668026927547"><ele>86.4</ele><time>2026-04-12T08:47:42Z</time></trkpt><trkpt lat="46.067274600290254" lon="12.924739763230052"><ele>86.8</ele><time>2026-04-12T08:47:43Z</time></trkpt><trkpt lat="46.067211132616634" lon="12.924803779180099"><ele>87.2</ele><time>2026-04-12T08:47:44Z</time></trkpt><trkpt lat="46.06710325765056" lon="12.924887791199913"><ele>87.60000000000001</ele><time>2026-04-12T08:47:46Z</time></trkpt><trkpt lat="46.066992059106845" lon="12.924917463548987"><ele>88.0</ele><time>2026-04-12T08:47:48Z</time></trkpt><trkpt lat="46.066925220972664" lon="12.924937422619976"><ele>88.0</ele><time>2026-04-12T08:47:49Z</time></trkpt><trkpt lat="46.06685580077214" lon="12.924951971488806"><ele>88.0</ele><time>2026-04-12T08:47:50Z</time></trkpt><trkpt lat="46.06673497274726" lon="12.924939682692433"><ele>88.0</ele><time>2026-04-12T08:47:52Z</time></trkpt><trkpt lat="46.06666779668357" lon="12.924930969509328"><ele>88.0</ele><time>2026-04-12T08:47:53Z</time></trkpt><trkpt lat="46.066590309037224" lon="12.924923939448933"><ele>88.0</ele><time>2026-04-12T08:47:54Z</time></trkpt><trkpt lat="46.06651365489341" lon="12.924927884366332"><ele>88.0</ele><time>2026-04-12T08:47:55Z</time></trkpt><trkpt lat="46.066450201432595" lon="12.924945928833628"><ele>87.5</ele><time>2026-04-12T08:47:56Z</time></trkpt><trkpt lat="46.06637205059244" lon="12.924969921856388"><ele>87.0</ele><time>2026-04-12T08:47:57Z</time></trkpt><trkpt lat="46.066306392545386" lon="12.92497942326311"><ele>86.5</ele><time>2026-04-12T08:47:58Z</time></trkpt><trkpt lat="46.06623290824369" lon="12.924988689521042"><ele>86.0</ele><time>2026-04-12T08:47:59.001Z</time></trkpt><trkpt lat="46.06615786845876" lon="12.924976372066435"><ele>85.5</ele><time>2026-04-12T08:48:00.001Z</time></trkpt><trkpt lat="46.066075652097425" lon="12.924968170915479"><ele>85.0</ele><time>2026-04-12T08:48:01.001Z</time></trkpt><trkpt lat="46.065990533155926" lon="12.924966952913676"><ele>85.0</ele><time>2026-04-12T08:48:02.001Z</time></trkpt><trkpt lat="46.06590840172305" lon="12.924979438349524"><ele>85.0</ele><time>2026-04-12T08:48:03.001Z</time></trkpt><trkpt lat="46.06583593613647" lon="12.924996011108226"><ele>85.0</ele><time>2026-04-12T08:48:04.001Z</time></trkpt><trkpt lat="46.06575759682258" lon="12.925008489067931"><ele>85.0</ele><time>2026-04-12T08:48:05.001Z</time></trkpt><trkpt lat="46.06568464165188" lon="12.92503071061914"><ele>85.0</ele><time>2026-04-12T08:48:06.001Z</time></trkpt><trkpt lat="46.06560972013663" lon="12.925053070794714"><ele>85.0</ele><time>2026-04-12T08:48:07.001Z</time></trkpt><trkpt lat="46.06552147865597" lon="12.925082039188899"><ele>85.16666666666666</ele><time>2026-04-12T08:48:08.001Z</time></trkpt><trkpt lat="46.06543613878483" lon="12.92509884071455"><ele>85.33333333333333</ele><time>2026-04-12T08:48:09.001Z</time></trkpt><trkpt lat="46.06534653767499" lon="12.925108315891382"><ele>85.5</ele><time>2026-04-12T08:48:10.001Z</time></trkpt><trkpt lat="46.06526701465765" lon="12.925116326825394"><ele>85.66666666666667</ele><time>2026-04-12T08:48:11.001Z</time></trkpt><trkpt lat="46.065186177023755" lon="12.925119841170055"><ele>85.83333333333334</ele><time>2026-04-12T08:48:12.001Z</time></trkpt><trkpt lat="46.06510954487522" lon="12.9251123992486"><ele>86.0</ele><time>2026-04-12T08:48:13.001Z</time></trkpt><trkpt lat="46.065027832744676" lon="12.925084897065657"><ele>85.83333333333334</ele><time>2026-04-12T08:48:14.001Z</time></trkpt><trkpt lat="46.06493788056452" lon="12.925053677538225"><ele>85.66666666666667</ele><time>2026-04-12T08:48:15.001Z</time></trkpt><trkpt lat="46.064859812592246" lon="12.925010371323669"><ele>85.5</ele><time>2026-04-12T08:48:16.001Z</time></trkpt><trkpt lat="46.0647962179667" lon="12.924971292044578"><ele>85.33333333333333</ele><time>2026-04-12T08:48:17.001Z</time></trkpt><trkpt lat="46.06472743017026" lon="12.924917188237346"><ele>85.16666666666666</ele><time>2026-04-12T08:48:18.001Z</time></trkpt><trkpt lat="46.064643878164205" lon="12.924863670642706"><ele>85.0</ele><time>2026-04-12T08:48:19.001Z</time></trkpt><trkpt lat="46.064557072430674" lon="12.92481069842704"><ele>85.0</ele><time>2026-04-12T08:48:20.001Z</time></trkpt><trkpt lat="46.064481029173564" lon="12.924764924309216"><ele>85.0</ele><time>2026-04-12T08:48:21.001Z</time></trkpt><trkpt lat="46.06439927477291" lon="12.924716957633187"><ele>85.0</ele><time>2026-04-12T08:48:22.001Z</time></trkpt><trkpt lat="46.0643170800854" lon="12.924664042816016"><ele>85.0</ele><time>2026-04-12T08:48:23.001Z</time></trkpt><trkpt lat="46.06424840552587" lon="12.92461690398451"><ele>85.0</ele><time>2026-04-12T08:48:24.001Z</time></trkpt><trkpt lat="46.06418778004599" lon="12.924571222612862"><ele>85.0</ele><time>2026-04-12T08:48:25.001Z</time></trkpt><trkpt lat="46.064119779958055" lon="12.924509060495346"><ele>85.33333333333333</ele><time>2026-04-12T08:48:26.001Z</time></trkpt><trkpt lat="46.06405676502133" lon="12.924435962323768"><ele>85.66666666666666</ele><time>2026-04-12T08:48:27.001Z</time></trkpt><trkpt lat="46.063991488143536" lon="12.924364488315812"><ele>86.0</ele><time>2026-04-12T08:48:28.001Z</time></trkpt><trkpt lat="46.06392455397414" lon="12.924287186439976"><ele>86.33333333333333</ele><time>2026-04-12T08:48:29.001Z</time></trkpt><trkpt lat="46.06385344211386" lon="12.924225314282332"><ele>86.66666666666667</ele><time>2026-04-12T08:48:30.001Z</time></trkpt><trkpt lat="46.0637942926611" lon="12.924187711522237"><ele>87.0</ele><time>2026-04-12T08:48:31.001Z</time></trkpt><trkpt lat="46.06370470718399" lon="12.924167220182664"><ele>87.16666666666667</ele><time>2026-04-12T08:48:33.001Z</time></trkpt><trkpt lat="46.06362290583961" lon="12.924156961631333"><ele>87.33333333333333</ele><time>2026-04-12T08:48:35.001Z</time></trkpt><trkpt lat="46.06352784273403" lon="12.924147365047824"><ele>87.5</ele><time>2026-04-12T08:48:37.001Z</time></trkpt><trkpt lat="46.06344272498885" lon="12.924117355127011"><ele>87.66666666666666</ele><time>2026-04-12T08:49:13.002Z</time></trkpt><trkpt lat="46.063330831120446" lon="12.924082699486569"><ele>87.83333333333333</ele><time>2026-04-12T08:49:15.002Z</time></trkpt><trkpt lat="46.063269787432084" lon="12.92405904560419"><ele>88.0</ele><time>2026-04-12T08:49:16.002Z</time></trkpt><trkpt lat="46.06320756264895" lon="12.924040017962298"><ele>87.60000000000001</ele><time>2026-04-12T08:49:17.002Z</time></trkpt><trkpt lat="46.06309150729837" lon="12.924053651555164"><ele>87.2</ele><time>2026-04-12T08:49:19.002Z</time></trkpt><trkpt lat="46.06302645109158" lon="12.924065397711388"><ele>86.8</ele><time>2026-04-12T08:49:20.002Z</time></trkpt><trkpt lat="46.06292294288715" lon="12.924094649611977"><ele>86.4</ele><time>2026-04-12T08:49:22.002Z</time></trkpt><trkpt lat="46.06285264549514" lon="12.924112046927766"><ele>86.0</ele><time>2026-04-12T08:49:30Z</time></trkpt><trkpt lat="46.06271743903179" lon="12.924122279357036"><ele>86.0</ele><time>2026-04-12T08:49:32Z</time></trkpt><trkpt lat="46.06264245704769" lon="12.92413342983081"><ele>86.0</ele><time>2026-04-12T08:49:33Z</time></trkpt><trkpt lat="46.06250878557522" lon="12.92412981110702"><ele>86.0</ele><time>2026-04-12T08:49:35Z</time></trkpt><trkpt lat="46.06243815376451" lon="12.924120257432268"><ele>86.0</ele><time>2026-04-12T08:49:36Z</time></trkpt><trkpt lat="46.062364032007366" lon="12.924115314397104"><ele>86.0</ele><time>2026-04-12T08:49:37Z</time></trkpt><trkpt lat="46.06229110465499" lon="12.924115661784702"><ele>86.0</ele><time>2026-04-12T08:49:38Z</time></trkpt><trkpt lat="46.062224209232106" lon="12.924123196444947"><ele>85.83333333333334</ele><time>2026-04-12T08:49:39Z</time></trkpt><trkpt lat="46.06215758981509" lon="12.924140800601092"><ele>85.66666666666667</ele><time>2026-04-12T08:49:40Z</time></trkpt><trkpt lat="46.062080641663" lon="12.924167080467782"><ele>85.5</ele><time>2026-04-12T08:49:41Z</time></trkpt><trkpt lat="46.06199516441919" lon="12.924198361120569"><ele>85.33333333333333</ele><time>2026-04-12T08:49:42Z</time></trkpt><trkpt lat="46.0619064945067" lon="12.924235476726304"><ele>85.16666666666666</ele><time>2026-04-12T08:49:43Z</time></trkpt><trkpt lat="46.06182456532011" lon="12.924272326404807"><ele>85.0</ele><time>2026-04-12T08:49:44Z</time></trkpt><trkpt lat="46.06173813681526" lon="12.924322213531594"><ele>85.0</ele><time>2026-04-12T08:49:45Z</time></trkpt><trkpt lat="46.06164763429984" lon="12.924380736763625"><ele>85.0</ele><time>2026-04-12T08:49:46Z</time></trkpt><trkpt lat="46.06157432312235" lon="12.924434352603253"><ele>85.0</ele><time>2026-04-12T08:49:47Z</time></trkpt><trkpt lat="46.06151614937143" lon="12.924477900380602"><ele>85.0</ele><time>2026-04-12T08:49:48Z</time></trkpt><trkpt lat="46.06145664245767" lon="12.924528853671253"><ele>85.0</ele><time>2026-04-12T08:49:49Z</time></trkpt><trkpt lat="46.06138125272191" lon="12.924599120665276"><ele>85.0</ele><time>2026-04-12T08:49:50Z</time></trkpt><trkpt lat="46.061298715179056" lon="12.92467004590482"><ele>84.4</ele><time>2026-04-12T08:49:51Z</time></trkpt><trkpt lat="46.06120752663865" lon="12.924728968478593"><ele>83.8</ele><time>2026-04-12T08:49:52Z</time></trkpt><trkpt lat="46.061124567753446" lon="12.924764423917603"><ele>83.19999999999999</ele><time>2026-04-12T08:49:53Z</time></trkpt><trkpt lat="46.06103771120504" lon="12.924791491409778"><ele>82.6</ele><time>2026-04-12T08:49:54Z</time></trkpt><trkpt lat="46.060946568900015" lon="12.924817798851652"><ele>82.0</ele><time>2026-04-12T08:49:55Z</time></trkpt><trkpt lat="46.06084960154248" lon="12.924839431281756"><ele>82.0</ele><time>2026-04-12T08:49:56Z</time></trkpt><trkpt lat="46.060752098404386" lon="12.924856176154096"><ele>82.0</ele><time>2026-04-12T08:49:57Z</time></trkpt><trkpt lat="46.06067323732011" lon="12.924876800230352"><ele>82.0</ele><time>2026-04-12T08:49:58.001Z</time></trkpt><trkpt lat="46.060599460952645" lon="12.924899816139675"><ele>82.0</ele><time>2026-04-12T08:49:59.001Z</time></trkpt><trkpt lat="46.06051295644541" lon="12.924923927065937"><ele>82.0</ele><time>2026-04-12T08:50:00.001Z</time></trkpt><trkpt lat="46.06044391239035" lon="12.924954495319168"><ele>82.0</ele><time>2026-04-12T08:50:01.001Z</time></trkpt><trkpt lat="46.060370495644875" lon="12.924983742620933"><ele>82.0</ele><time>2026-04-12T08:50:02.001Z</time></trkpt><trkpt lat="46.0602916116302" lon="12.925017404416023"><ele>82.0</ele><time>2026-04-12T08:50:03.001Z</time></trkpt><trkpt lat="46.06021273571172" lon="12.925061258170388"><ele>82.0</ele><time>2026-04-12T08:50:04.001Z</time></trkpt><trkpt lat="46.06013934942631" lon="12.925092831887554"><ele>82.0</ele><time>2026-04-12T08:50:05.001Z</time></trkpt><trkpt lat="46.060057002889685" lon="12.925120455992957"><ele>82.0</ele><time>2026-04-12T08:50:06.001Z</time></trkpt><trkpt lat="46.059975328258396" lon="12.925138276604644"><ele>82.0</ele><time>2026-04-12T08:50:07.001Z</time></trkpt><trkpt lat="46.05989118496753" lon="12.925149164784314"><ele>82.0</ele><time>2026-04-12T08:50:08.001Z</time></trkpt><trkpt lat="46.059798760830496" lon="12.925154356567761"><ele>82.0</ele><time>2026-04-12T08:50:09.001Z</time></trkpt><trkpt lat="46.05972311103762" lon="12.92514441232064"><ele>82.0</ele><time>2026-04-12T08:50:10.001Z</time></trkpt><trkpt lat="46.059641817145234" lon="12.925124265954068"><ele>82.0</ele><time>2026-04-12T08:50:11.001Z</time></trkpt><trkpt lat="46.05956771656368" lon="12.925100490093534"><ele>82.0</ele><time>2026-04-12T08:50:12.001Z</time></trkpt><trkpt lat="46.059500316329405" lon="12.925072345047521"><ele>82.0</ele><time>2026-04-12T08:50:13.001Z</time></trkpt><trkpt lat="46.05942221654656" lon="12.925033484127276"><ele>82.0</ele><time>2026-04-12T08:50:14.001Z</time></trkpt><trkpt lat="46.05933541779425" lon="12.924989980389933"><ele>82.0</ele><time>2026-04-12T08:50:15.001Z</time></trkpt><trkpt lat="46.05925061533719" lon="12.924933899645525"><ele>82.0</ele><time>2026-04-12T08:50:16.001Z</time></trkpt><trkpt lat="46.059167953585" lon="12.924892450032502"><ele>82.0</ele><time>2026-04-12T08:50:17.001Z</time></trkpt><trkpt lat="46.05908906227543" lon="12.924854713937762"><ele>82.0</ele><time>2026-04-12T08:50:18.001Z</time></trkpt><trkpt lat="46.059019461497954" lon="12.92481723854051"><ele>82.0</ele><time>2026-04-12T08:50:19.001Z</time></trkpt><trkpt lat="46.058951251034934" lon="12.924769172544895"><ele>82.0</ele><time>2026-04-12T08:50:20.001Z</time></trkpt><trkpt lat="46.05888733805778" lon="12.924712434779089"><ele>82.0</ele><time>2026-04-12T08:50:21.001Z</time></trkpt><trkpt lat="46.05882968323791" lon="12.924651198534134"><ele>82.0</ele><time>2026-04-12T08:50:22.001Z</time></trkpt><trkpt lat="46.05875190459777" lon="12.924578298695243"><ele>82.0</ele><time>2026-04-12T08:50:23.001Z</time></trkpt><trkpt lat="46.058688535205285" lon="12.924517527637855"><ele>82.0</ele><time>2026-04-12T08:50:24.001Z</time></trkpt><trkpt lat="46.05861162148844" lon="12.924457672969677"><ele>82.0</ele><time>2026-04-12T08:50:25.001Z</time></trkpt><trkpt lat="46.05853937120934" lon="12.924395128250135"><ele>82.0</ele><time>2026-04-12T08:50:26.001Z</time></trkpt><trkpt lat="46.05846429602416" lon="12.924329175516494"><ele>82.0</ele><time>2026-04-12T08:50:27.001Z</time></trkpt><trkpt lat="46.05838861266494" lon="12.924266147573752"><ele>82.0</ele><time>2026-04-12T08:50:28.001Z</time></trkpt><trkpt lat="46.05832910978403" lon="12.924207055716877"><ele>82.0</ele><time>2026-04-12T08:50:29.001Z</time></trkpt><trkpt lat="46.05827275828375" lon="12.924157981641201"><ele>82.0</ele><time>2026-04-12T08:50:30.001Z</time></trkpt><trkpt lat="46.05820959019842" lon="12.924140830763754"><ele>82.0</ele><time>2026-04-12T08:50:34.001Z</time></trkpt><trkpt lat="46.05815024441446" lon="12.924244692223446"><ele>81.83333333333333</ele><time>2026-04-12T08:50:37.001Z</time></trkpt><trkpt lat="46.05807747518344" lon="12.924392693161137"><ele>81.66666666666666</ele><time>2026-04-12T08:50:39.001Z</time></trkpt><trkpt lat="46.05803498670994" lon="12.92446869190357"><ele>81.5</ele><time>2026-04-12T08:50:40.001Z</time></trkpt><trkpt lat="46.057993282426935" lon="12.924537973755262"><ele>81.33333333333333</ele><time>2026-04-12T08:50:41.001Z</time></trkpt><trkpt lat="46.05793716786265" lon="12.92460800462576"><ele>81.16666666666667</ele><time>2026-04-12T08:50:42.001Z</time></trkpt><trkpt lat="46.057882291364386" lon="12.92467323421234"><ele>81.0</ele><time>2026-04-12T08:50:43.001Z</time></trkpt><trkpt lat="46.05779073624841" lon="12.924743647007425"><ele>81.0</ele><time>2026-04-12T08:50:45.001Z</time></trkpt><trkpt lat="46.05772458438731" lon="12.9248030044811"><ele>81.0</ele><time>2026-04-12T08:50:47.001Z</time></trkpt><trkpt lat="46.057628331595765" lon="12.924797578174097"><ele>81.0</ele><time>2026-04-12T08:50:49.001Z</time></trkpt><trkpt lat="46.05755187336033" lon="12.924753776614573"><ele>81.0</ele><time>2026-04-12T08:50:50.001Z</time></trkpt><trkpt lat="46.0574477790309" lon="12.924714883203618"><ele>81.0</ele><time>2026-04-12T08:50:51.001Z</time></trkpt><trkpt lat="46.05732263345099" lon="12.924676834148183"><ele>80.75</ele><time>2026-04-12T08:50:52.001Z</time></trkpt><trkpt lat="46.05719131699799" lon="12.924636996088406"><ele>80.5</ele><time>2026-04-12T08:50:53.001Z</time></trkpt><trkpt lat="46.05705961059454" lon="12.924619396849312"><ele>80.25</ele><time>2026-04-12T08:50:54.001Z</time></trkpt><trkpt lat="46.0569286652904" lon="12.924605812104845"><ele>80.0</ele><time>2026-04-12T08:50:55.001Z</time></trkpt><trkpt lat="46.05681039014878" lon="12.924586961335581"><ele>80.0</ele><time>2026-04-12T08:50:56.001Z</time></trkpt><trkpt lat="46.056691784964364" lon="12.924572583784787"><ele>80.0</ele><time>2026-04-12T08:50:57.001Z</time></trkpt><trkpt lat="46.056568785193825" lon="12.924557416626062"><ele>80.0</ele><time>2026-04-12T08:50:58.001Z</time></trkpt><trkpt lat="46.05644262170551" lon="12.924541912642452"><ele>80.0</ele><time>2026-04-12T08:50:59.001Z</time></trkpt><trkpt lat="46.05631887580504" lon="12.924527021036518"><ele>80.2</ele><time>2026-04-12T08:51:00.001Z</time></trkpt><trkpt lat="46.05619259192416" lon="12.924514729223823"><ele>80.4</ele><time>2026-04-12T08:51:01.001Z</time></trkpt><trkpt lat="46.05608032137" lon="12.924498511419486"><ele>80.6</ele><time>2026-04-12T08:51:02.001Z</time></trkpt><trkpt lat="46.055996225209746" lon="12.924487474535367"><ele>80.8</ele><time>2026-04-12T08:51:03.001Z</time></trkpt><trkpt lat="46.05592421133314" lon="12.924524603058154"><ele>81.0</ele><time>2026-04-12T08:51:05.001Z</time></trkpt><trkpt lat="46.055914887826155" lon="12.92463584201439"><ele>81.0</ele><time>2026-04-12T08:51:07.001Z</time></trkpt><trkpt lat="46.05592760827632" lon="12.924736545901109"><ele>81.0</ele><time>2026-04-12T08:51:08.001Z</time></trkpt><trkpt lat="46.05595865326759" lon="12.92483536170275"><ele>81.0</ele><time>2026-04-12T08:51:09.002Z</time></trkpt><trkpt lat="46.05595158180437" lon="12.925000522808597"><ele>81.0</ele><time>2026-04-12T08:51:11.002Z</time></trkpt><trkpt lat="46.055860223645894" lon="12.925068401473562"><ele>81.0</ele><time>2026-04-12T08:51:13.002Z</time></trkpt><trkpt lat="46.05578235641797" lon="12.925060815398302"><ele>81.0</ele><time>2026-04-12T08:51:14.002Z</time></trkpt><trkpt lat="46.05568356423113" lon="12.9250109830855"><ele>80.5</ele><time>2026-04-12T08:51:15.002Z</time></trkpt><trkpt lat="46.05556470200972" lon="12.924947947197836"><ele>80.0</ele><time>2026-04-12T08:51:16.002Z</time></trkpt><trkpt lat="46.05544193837356" lon="12.924902902225352"><ele>79.5</ele><time>2026-04-12T08:51:17.002Z</time></trkpt><trkpt lat="46.05530794581241" lon="12.924858857030204"><ele>79.0</ele><time>2026-04-12T08:51:18.002Z</time></trkpt><trkpt lat="46.05518698404503" lon="12.924826968276545"><ele>79.0</ele><time>2026-04-12T08:51:19.002Z</time></trkpt><trkpt lat="46.05507210880646" lon="12.924804863907694"><ele>79.0</ele><time>2026-04-12T08:51:20.002Z</time></trkpt><trkpt lat="46.054934745203546" lon="12.924788276065724"><ele>79.0</ele><time>2026-04-12T08:51:21.002Z</time></trkpt><trkpt lat="46.05478831645309" lon="12.924771179228179"><ele>79.0</ele><time>2026-04-12T08:51:22.002Z</time></trkpt><trkpt lat="46.05463867432266" lon="12.924755638018622"><ele>79.75</ele><time>2026-04-12T08:51:23.002Z</time></trkpt><trkpt lat="46.054509030325825" lon="12.924746896432962"><ele>80.5</ele><time>2026-04-12T08:51:24.002Z</time></trkpt><trkpt lat="46.054375951881326" lon="12.924755944599536"><ele>81.25</ele><time>2026-04-12T08:51:25.002Z</time></trkpt><trkpt lat="46.054256061228536" lon="12.924773236334023"><ele>82.0</ele><time>2026-04-12T08:51:26.002Z</time></trkpt><trkpt lat="46.054149573748205" lon="12.924796267222348"><ele>82.0</ele><time>2026-04-12T08:51:27.002Z</time></trkpt><trkpt lat="46.05406014330842" lon="12.924827657024318"><ele>82.0</ele><time>2026-04-12T08:51:28.002Z</time></trkpt><trkpt lat="46.0539988584" lon="12.924849384246293"><ele>82.0</ele><time>2026-04-12T08:51:29.002Z</time></trkpt><trkpt lat="46.05393277383453" lon="12.924845296184785"><ele>82.0</ele><time>2026-04-12T08:51:31Z</time></trkpt><trkpt lat="46.05382967396142" lon="12.924741064458543"><ele>82.0</ele><time>2026-04-12T08:51:33Z</time></trkpt><trkpt lat="46.05375747774925" lon="12.924656789264356"><ele>82.0</ele><time>2026-04-12T08:51:34Z</time></trkpt><trkpt lat="46.05367465998921" lon="12.924594936935856"><ele>82.0</ele><time>2026-04-12T08:51:35Z</time></trkpt><trkpt lat="46.053573272457854" lon="12.924553195394386"><ele>82.0</ele><time>2026-04-12T08:51:36Z</time></trkpt><trkpt lat="46.053444183457586" lon="12.924548140535173"><ele>82.0</ele><time>2026-04-12T08:51:37Z</time></trkpt><trkpt lat="46.05328998080506" lon="12.924547662438338"><ele>82.0</ele><time>2026-04-12T08:51:38Z</time></trkpt><trkpt lat="46.053135153304474" lon="12.92453313873788"><ele>81.66666666666666</ele><time>2026-04-12T08:51:39Z</time></trkpt><trkpt lat="46.05297360231782" lon="12.924513584116358"><ele>81.33333333333333</ele><time>2026-04-12T08:51:40Z</time></trkpt><trkpt lat="46.05280710557968" lon="12.924492148258967"><ele>81.0</ele><time>2026-04-12T08:51:41Z</time></trkpt><trkpt lat="46.052641980053046" lon="12.924472528152531"><ele>81.0</ele><time>2026-04-12T08:51:42Z</time></trkpt><trkpt lat="46.05247945708004" lon="12.924456572808383"><ele>81.0</ele><time>2026-04-12T08:51:43Z</time></trkpt><trkpt lat="46.052315780159844" lon="12.924437916381319"><ele>81.0</ele><time>2026-04-12T08:51:44Z</time></trkpt><trkpt lat="46.05216470280585" lon="12.924421656538113"><ele>80.5</ele><time>2026-04-12T08:51:45Z</time></trkpt><trkpt lat="46.052021722853794" lon="12.924403931914712"><ele>80.0</ele><time>2026-04-12T08:51:46Z</time></trkpt><trkpt lat="46.05188396256499" lon="12.924379197216872"><ele>79.5</ele><time>2026-04-12T08:51:47Z</time></trkpt><trkpt lat="46.051755913522214" lon="12.924355667514698"><ele>79.0</ele><time>2026-04-12T08:51:48Z</time></trkpt><trkpt lat="46.05164614064141" lon="12.924335864505766"><ele>79.5</ele><time>2026-04-12T08:51:49Z</time></trkpt><trkpt lat="46.05154189184689" lon="12.924328945281768"><ele>80.0</ele><time>2026-04-12T08:51:50Z</time></trkpt><trkpt lat="46.05142468561437" lon="12.924364578438432"><ele>80.5</ele><time>2026-04-12T08:51:51Z</time></trkpt><trkpt lat="46.05130070575876" lon="12.924431668247962"><ele>81.0</ele><time>2026-04-12T08:51:52Z</time></trkpt><trkpt lat="46.05117150089478" lon="12.924517021308576"><ele>81.0</ele><time>2026-04-12T08:51:53Z</time></trkpt><trkpt lat="46.05103516982825" lon="12.924606762075879"><ele>81.0</ele><time>2026-04-12T08:51:54Z</time></trkpt><trkpt lat="46.05089177291545" lon="12.924693632447116"><ele>81.0</ele><time>2026-04-12T08:51:55Z</time></trkpt><trkpt lat="46.05075450095457" lon="12.92476622906836"><ele>80.5</ele><time>2026-04-12T08:51:56Z</time></trkpt><trkpt lat="46.05064035490472" lon="12.924834604757741"><ele>80.0</ele><time>2026-04-12T08:51:57Z</time></trkpt><trkpt lat="46.05053275420238" lon="12.924901422373344"><ele>79.5</ele><time>2026-04-12T08:51:58Z</time></trkpt><trkpt lat="46.0504244401372" lon="12.924977257319426"><ele>79.0</ele><time>2026-04-12T08:51:59Z</time></trkpt><trkpt lat="46.05031135757425" lon="12.92505212708914"><ele>79.2</ele><time>2026-04-12T08:52:00Z</time></trkpt><trkpt lat="46.050230972885736" lon="12.925117595088658"><ele>79.4</ele><time>2026-04-12T08:52:01Z</time></trkpt><trkpt lat="46.05016677187497" lon="12.925217139936946"><ele>79.6</ele><time>2026-04-12T08:52:02Z</time></trkpt><trkpt lat="46.050104048190924" lon="12.925330928380824"><ele>79.8</ele><time>2026-04-12T08:52:03Z</time></trkpt><trkpt lat="46.0500191213021" lon="12.925413941121207"><ele>80.0</ele><time>2026-04-12T08:52:04Z</time></trkpt><trkpt lat="46.04993569011201" lon="12.925478646254058"><ele>79.83333333333334</ele><time>2026-04-12T08:52:05Z</time></trkpt><trkpt lat="46.04987862953158" lon="12.925556769179245"><ele>79.66666666666667</ele><time>2026-04-12T08:52:06Z</time></trkpt><trkpt lat="46.049848100413364" lon="12.925648801537466"><ele>79.5</ele><time>2026-04-12T08:52:07Z</time></trkpt><trkpt lat="46.0498357373116" lon="12.925755390040086"><ele>79.33333333333333</ele><time>2026-04-12T08:52:08Z</time></trkpt><trkpt lat="46.04983315211307" lon="12.925851844946402"><ele>79.16666666666666</ele><time>2026-04-12T08:52:09Z</time></trkpt><trkpt lat="46.04981480801436" lon="12.925956043974985"><ele>79.0</ele><time>2026-04-12T08:52:11.001Z</time></trkpt><trkpt lat="46.04975592960148" lon="12.926100957785355"><ele>79.0</ele><time>2026-04-12T08:52:14.001Z</time></trkpt><trkpt lat="46.04973268763375" lon="12.926193941465426"><ele>79.0</ele><time>2026-04-12T08:52:15.001Z</time></trkpt><trkpt lat="46.049714451690484" lon="12.926294139618651"><ele>79.0</ele><time>2026-04-12T08:52:16.001Z</time></trkpt><trkpt lat="46.04969695947812" lon="12.926407721300654"><ele>79.0</ele><time>2026-04-12T08:52:17.001Z</time></trkpt><trkpt lat="46.04967476073302" lon="12.926524573433664"><ele>79.0</ele><time>2026-04-12T08:52:18.001Z</time></trkpt><trkpt lat="46.04965048163574" lon="12.926642667429158"><ele>79.0</ele><time>2026-04-12T08:52:19.001Z</time></trkpt><trkpt lat="46.04962862733921" lon="12.926736382592804"><ele>79.0</ele><time>2026-04-12T08:52:20.001Z</time></trkpt><trkpt lat="46.04960276614164" lon="12.926824149011633"><ele>79.0</ele><time>2026-04-12T08:52:21.001Z</time></trkpt><trkpt lat="46.049584298141184" lon="12.926929140110754"><ele>79.0</ele><time>2026-04-12T08:52:24.001Z</time></trkpt><trkpt lat="46.04961450414945" lon="12.926783928597693"><ele>79.0</ele><time>2026-04-12T08:52:30.001Z</time></trkpt><trkpt lat="46.049639554081175" lon="12.926687973236147"><ele>79.0</ele><time>2026-04-12T08:52:31.001Z</time></trkpt><trkpt lat="46.049706655365675" lon="12.926486117413006"><ele>79.0</ele><time>2026-04-12T08:52:32.001Z</time></trkpt><trkpt lat="46.049728581612506" lon="12.926340987187555"><ele>79.0</ele><time>2026-04-12T08:52:33.001Z</time></trkpt><trkpt lat="46.04973997654636" lon="12.926230024526841"><ele>79.0</ele><time>2026-04-12T08:52:34.001Z</time></trkpt><trkpt lat="46.049747676944385" lon="12.926132475606032"><ele>79.0</ele><time>2026-04-12T08:52:35.001Z</time></trkpt><trkpt lat="46.04974070385628" lon="12.926041135575375"><ele>79.0</ele><time>2026-04-12T08:52:36.001Z</time></trkpt><trkpt lat="46.0497150647147" lon="12.92592589607977"><ele>79.0</ele><time>2026-04-12T08:52:37.001Z</time></trkpt><trkpt lat="46.04968453038518" lon="12.925810244602644"><ele>78.83333333333333</ele><time>2026-04-12T08:52:38.001Z</time></trkpt><trkpt lat="46.04966099302189" lon="12.92569588120196"><ele>78.66666666666666</ele><time>2026-04-12T08:52:39.001Z</time></trkpt><trkpt lat="46.049645748824766" lon="12.925595304055134"><ele>78.5</ele><time>2026-04-12T08:52:40.001Z</time></trkpt><trkpt lat="46.04960328025173" lon="12.925459113663294"><ele>78.33333333333333</ele><time>2026-04-12T08:52:42.001Z</time></trkpt><trkpt lat="46.04951317175579" lon="12.925459722888867"><ele>78.16666666666667</ele><time>2026-04-12T08:52:44.001Z</time></trkpt><trkpt lat="46.04943591404212" lon="12.925517632510836"><ele>78.0</ele><time>2026-04-12T08:52:45.001Z</time></trkpt><trkpt lat="46.049322359786935" lon="12.925586726666698"><ele>78.0</ele><time>2026-04-12T08:52:46.001Z</time></trkpt><trkpt lat="46.04919368484202" lon="12.92565308839951"><ele>78.0</ele><time>2026-04-12T08:52:47.001Z</time></trkpt><trkpt lat="46.04906097262529" lon="12.925724710542472"><ele>78.0</ele><time>2026-04-12T08:52:48.001Z</time></trkpt><trkpt lat="46.04892245232309" lon="12.925794163300635"><ele>78.0</ele><time>2026-04-12T08:52:49.001Z</time></trkpt><trkpt lat="46.04877798892673" lon="12.925866437624494"><ele>77.75</ele><time>2026-04-12T08:52:50.001Z</time></trkpt><trkpt lat="46.0486299852253" lon="12.925946001188969"><ele>77.5</ele><time>2026-04-12T08:52:51.001Z</time></trkpt><trkpt lat="46.048503946646555" lon="12.926008527877123"><ele>77.25</ele><time>2026-04-12T08:52:52.001Z</time></trkpt><trkpt lat="46.04837657620629" lon="12.926074419495766"><ele>77.0</ele><time>2026-04-12T08:52:53.001Z</time></trkpt><trkpt lat="46.04823843523796" lon="12.926134776512423"><ele>76.75</ele><time>2026-04-12T08:52:54.001Z</time></trkpt><trkpt lat="46.04809889934828" lon="12.926196132190162"><ele>76.5</ele><time>2026-04-12T08:52:55.001Z</time></trkpt><trkpt lat="46.04795288200204" lon="12.926257957010172"><ele>76.25</ele><time>2026-04-12T08:52:56.001Z</time></trkpt><trkpt lat="46.0478073266865" lon="12.926313175099542"><ele>76.0</ele><time>2026-04-12T08:52:57.001Z</time></trkpt><trkpt lat="46.04765754579162" lon="12.926362506840928"><ele>76.0</ele><time>2026-04-12T08:52:58.001Z</time></trkpt><trkpt lat="46.04750317710779" lon="12.926409595206568"><ele>76.0</ele><time>2026-04-12T08:52:59.001Z</time></trkpt><trkpt lat="46.047346586741384" lon="12.92645903843011"><ele>76.0</ele><time>2026-04-12T08:53:00.001Z</time></trkpt><trkpt lat="46.04719590393721" lon="12.92650742147242"><ele>75.66666666666666</ele><time>2026-04-12T08:53:01.001Z</time></trkpt><trkpt lat="46.047044946219685" lon="12.926549060114771"><ele>75.33333333333333</ele><time>2026-04-12T08:53:02.001Z</time></trkpt><trkpt lat="46.04688385265401" lon="12.926588833237934"><ele>75.0</ele><time>2026-04-12T08:53:03.001Z</time></trkpt><trkpt lat="46.04672955880772" lon="12.92662977031688"><ele>75.0</ele><time>2026-04-12T08:53:04.001Z</time></trkpt><trkpt lat="46.046591515278855" lon="12.926662984314467"><ele>75.0</ele><time>2026-04-12T08:53:05.001Z</time></trkpt><trkpt lat="46.046451100470506" lon="12.92669856506642"><ele>75.0</ele><time>2026-04-12T08:53:06.001Z</time></trkpt><trkpt lat="46.04630966321426" lon="12.926729489175969"><ele>75.0</ele><time>2026-04-12T08:53:07.001Z</time></trkpt><trkpt lat="46.046157935345526" lon="12.926750931700875"><ele>75.0</ele><time>2026-04-12T08:53:08.001Z</time></trkpt><trkpt lat="46.046000893325356" lon="12.926770270013543"><ele>75.0</ele><time>2026-04-12T08:53:09.001Z</time></trkpt><trkpt lat="46.04583559558335" lon="12.92678939988594"><ele>75.0</ele><time>2026-04-12T08:53:10.001Z</time></trkpt><trkpt lat="46.04566640563388" lon="12.926812569205017"><ele>75.33333333333333</ele><time>2026-04-12T08:53:11.001Z</time></trkpt><trkpt lat="46.04548970656186" lon="12.926837799212256"><ele>75.66666666666666</ele><time>2026-04-12T08:53:12.001Z</time></trkpt><trkpt lat="46.0453171879711" lon="12.92685466048704"><ele>76.0</ele><time>2026-04-12T08:53:13.001Z</time></trkpt><trkpt lat="46.04515004159982" lon="12.926864854708738"><ele>76.0</ele><time>2026-04-12T08:53:14.001Z</time></trkpt><trkpt lat="46.04498026058031" lon="12.926874697894863"><ele>76.0</ele><time>2026-04-12T08:53:15.001Z</time></trkpt><trkpt lat="46.044800867605886" lon="12.926887509931001"><ele>76.0</ele><time>2026-04-12T08:53:16.001Z</time></trkpt><trkpt lat="46.04462245102549" lon="12.926903497295333"><ele>76.0</ele><time>2026-04-12T08:53:17.001Z</time></trkpt><trkpt lat="46.044460368123616" lon="12.926915432586675"><ele>76.0</ele><time>2026-04-12T08:53:18.001Z</time></trkpt><trkpt lat="46.0443053354952" lon="12.926928597850855"><ele>76.0</ele><time>2026-04-12T08:53:19.001Z</time></trkpt><trkpt lat="46.044145689826195" lon="12.926937589972198"><ele>77.0</ele><time>2026-04-12T08:53:20.002Z</time></trkpt><trkpt lat="46.043983358520606" lon="12.926938392769358"><ele>78.0</ele><time>2026-04-12T08:53:21.002Z</time></trkpt><trkpt lat="46.04381676824524" lon="12.926932354500636"><ele>79.0</ele><time>2026-04-12T08:53:22.002Z</time></trkpt><trkpt lat="46.04365817780622" lon="12.926925655929514"><ele>79.0</ele><time>2026-04-12T08:53:23.002Z</time></trkpt><trkpt lat="46.0435169828477" lon="12.926912942403915"><ele>79.0</ele><time>2026-04-12T08:53:24.002Z</time></trkpt><trkpt lat="46.04338587610221" lon="12.926899611250814"><ele>79.0</ele><time>2026-04-12T08:53:25.002Z</time></trkpt><trkpt lat="46.043251535683915" lon="12.926895061185826"><ele>79.0</ele><time>2026-04-12T08:53:26.002Z</time></trkpt><trkpt lat="46.04313527008438" lon="12.926894640357087"><ele>78.8</ele><time>2026-04-12T08:53:27.002Z</time></trkpt><trkpt lat="46.043040890853" lon="12.926892215101551"><ele>78.60000000000001</ele><time>2026-04-12T08:53:28.002Z</time></trkpt><trkpt lat="46.042959068276076" lon="12.926885060557174"><ele>78.4</ele><time>2026-04-12T08:53:29.002Z</time></trkpt><trkpt lat="46.04287884057648" lon="12.926933665910616"><ele>78.2</ele><time>2026-04-12T08:53:31.002Z</time></trkpt><trkpt lat="46.04286997505168" lon="12.927113174661715"><ele>78.0</ele><time>2026-04-12T08:53:33.002Z</time></trkpt><trkpt lat="46.042870971385" lon="12.92724054437321"><ele>78.0</ele><time>2026-04-12T08:53:34.002Z</time></trkpt><trkpt lat="46.042896237377064" lon="12.927367365609737"><ele>78.0</ele><time>2026-04-12T08:53:35.002Z</time></trkpt><trkpt lat="46.04293400535926" lon="12.927505077961728"><ele>78.0</ele><time>2026-04-12T08:53:36.002Z</time></trkpt><trkpt lat="46.04299247996654" lon="12.927641453325608"><ele>78.0</ele><time>2026-04-12T08:53:37Z</time></trkpt><trkpt lat="46.04305355072659" lon="12.92778303940833"><ele>78.0</ele><time>2026-04-12T08:53:38Z</time></trkpt><trkpt lat="46.043122365580736" lon="12.927925508697319"><ele>77.75</ele><time>2026-04-12T08:53:39Z</time></trkpt><trkpt lat="46.04319412003773" lon="12.928068266110836"><ele>77.5</ele><time>2026-04-12T08:53:40Z</time></trkpt><trkpt lat="46.04326622756977" lon="12.928219616650079"><ele>77.25</ele><time>2026-04-12T08:53:41Z</time></trkpt><trkpt lat="46.0433326235639" lon="12.92835813440557"><ele>77.0</ele><time>2026-04-12T08:53:42Z</time></trkpt><trkpt lat="46.04340396205314" lon="12.928495567803498"><ele>76.6</ele><time>2026-04-12T08:53:43Z</time></trkpt><trkpt lat="46.0434768872582" lon="12.928635448214745"><ele>76.2</ele><time>2026-04-12T08:53:44Z</time></trkpt><trkpt lat="46.04353265504364" lon="12.928750210030888"><ele>75.8</ele><time>2026-04-12T08:53:45Z</time></trkpt><trkpt lat="46.043579240173585" lon="12.928858543546127"><ele>75.4</ele><time>2026-04-12T08:53:46Z</time></trkpt><trkpt lat="46.04363117377807" lon="12.928986073333435"><ele>75.0</ele><time>2026-04-12T08:53:47Z</time></trkpt><trkpt lat="46.04368506279258" lon="12.929130750266898"><ele>75.6</ele><time>2026-04-12T08:53:48Z</time></trkpt><trkpt lat="46.0437248873037" lon="12.929249821549899"><ele>76.2</ele><time>2026-04-12T08:53:49Z</time></trkpt><trkpt lat="46.0437574326376" lon="12.929368979933594"><ele>76.8</ele><time>2026-04-12T08:53:50Z</time></trkpt><trkpt lat="46.04377566712395" lon="12.929490948445236"><ele>77.4</ele><time>2026-04-12T08:53:51Z</time></trkpt><trkpt lat="46.04378409914236" lon="12.929638196282477"><ele>78.0</ele><time>2026-04-12T08:53:52Z</time></trkpt><trkpt lat="46.04377674783107" lon="12.929781913781536"><ele>78.0</ele><time>2026-04-12T08:53:53Z</time></trkpt><trkpt lat="46.0437314381236" lon="12.929931206205058"><ele>78.0</ele><time>2026-04-12T08:53:54Z</time></trkpt><trkpt lat="46.04371890953909" lon="12.930084311402764"><ele>78.0</ele><time>2026-04-12T08:53:55Z</time></trkpt><trkpt lat="46.043715156367355" lon="12.930221429994766"><ele>78.0</ele><time>2026-04-12T08:53:56Z</time></trkpt><trkpt lat="46.04373525394275" lon="12.930344456510177"><ele>78.0</ele><time>2026-04-12T08:53:57Z</time></trkpt><trkpt lat="46.04375693268233" lon="12.930484250292908"><ele>79.5</ele><time>2026-04-12T08:53:58Z</time></trkpt><trkpt lat="46.04381028281886" lon="12.930619116453132"><ele>81.0</ele><time>2026-04-12T08:53:59Z</time></trkpt><trkpt lat="46.04389378231018" lon="12.930699722432468"><ele>82.5</ele><time>2026-04-12T08:54:00Z</time></trkpt><trkpt lat="46.0439815691768" lon="12.93079195316496"><ele>84.0</ele><time>2026-04-12T08:54:01Z</time></trkpt><trkpt lat="46.04410034561036" lon="12.93089614338619"><ele>84.33333333333333</ele><time>2026-04-12T08:54:02Z</time></trkpt><trkpt lat="46.04424768836557" lon="12.931014744218079"><ele>84.66666666666666</ele><time>2026-04-12T08:54:03Z</time></trkpt><trkpt lat="46.04440162035157" lon="12.93111603885385"><ele>85.0</ele><time>2026-04-12T08:54:04Z</time></trkpt><trkpt lat="46.04452552576457" lon="12.931214520292698"><ele>85.0</ele><time>2026-04-12T08:54:05Z</time></trkpt><trkpt lat="46.04462864380544" lon="12.931294705826689"><ele>85.0</ele><time>2026-04-12T08:54:06Z</time></trkpt><trkpt lat="46.04471789501185" lon="12.931391199712763"><ele>85.0</ele><time>2026-04-12T08:54:07Z</time></trkpt><trkpt lat="46.0448193063803" lon="12.931443167348384"><ele>85.0</ele><time>2026-04-12T08:54:08Z</time></trkpt><trkpt lat="46.04490822357031" lon="12.93153932055197"><ele>85.0</ele><time>2026-04-12T08:54:09Z</time></trkpt><trkpt lat="46.04500998115191" lon="12.931619830845014"><ele>85.33333333333333</ele><time>2026-04-12T08:54:10Z</time></trkpt><trkpt lat="46.04509532816174" lon="12.931693367667815"><ele>85.66666666666666</ele><time>2026-04-12T08:54:11Z</time></trkpt><trkpt lat="46.04516955405245" lon="12.931762167144818"><ele>86.0</ele><time>2026-04-12T08:54:12Z</time></trkpt><trkpt lat="46.04524400508887" lon="12.931833626869244"><ele>86.33333333333333</ele><time>2026-04-12T08:54:14Z</time></trkpt><trkpt lat="46.04517804082282" lon="12.93179906084581"><ele>86.66666666666667</ele><time>2026-04-12T08:54:18Z</time></trkpt><trkpt lat="46.045079542162654" lon="12.931776660984859"><ele>87.0</ele><time>2026-04-12T08:54:19Z</time></trkpt><trkpt lat="46.044994475306154" lon="12.931711503509211"><ele>86.5</ele><time>2026-04-12T08:54:20Z</time></trkpt><trkpt lat="46.04489817256202" lon="12.931639691807863"><ele>86.0</ele><time>2026-04-12T08:54:21Z</time></trkpt><trkpt lat="46.04477606550868" lon="12.931548636374144"><ele>85.5</ele><time>2026-04-12T08:54:22.001Z</time></trkpt><trkpt lat="46.044661359034485" lon="12.93148387177734"><ele>85.0</ele><time>2026-04-12T08:54:23.001Z</time></trkpt><trkpt lat="46.04455067833672" lon="12.931401166470748"><ele>85.0</ele><time>2026-04-12T08:54:24.001Z</time></trkpt><trkpt lat="46.04442451388974" lon="12.931321310082929"><ele>85.0</ele><time>2026-04-12T08:54:25.001Z</time></trkpt><trkpt lat="46.04430088601341" lon="12.931224820007307"><ele>85.0</ele><time>2026-04-12T08:54:26.001Z</time></trkpt><trkpt lat="46.04417081727315" lon="12.931132438689525"><ele>85.0</ele><time>2026-04-12T08:54:27.001Z</time></trkpt><trkpt lat="46.044042099815314" lon="12.931043574776686"><ele>85.25</ele><time>2026-04-12T08:54:28.001Z</time></trkpt><trkpt lat="46.04392987646641" lon="12.93096449541791"><ele>85.5</ele><time>2026-04-12T08:54:29.001Z</time></trkpt><trkpt lat="46.04381805182031" lon="12.930883616109742"><ele>85.75</ele><time>2026-04-12T08:54:30.001Z</time></trkpt><trkpt lat="46.043714271862655" lon="12.930775115119832"><ele>86.0</ele><time>2026-04-12T08:54:31.001Z</time></trkpt><trkpt lat="46.0436023421471" lon="12.930712879638568"><ele>85.5</ele><time>2026-04-12T08:54:32.001Z</time></trkpt><trkpt lat="46.04347411648266" lon="12.930675670120623"><ele>85.0</ele><time>2026-04-12T08:54:33.001Z</time></trkpt><trkpt lat="46.043340634237396" lon="12.930664299256138"><ele>84.5</ele><time>2026-04-12T08:54:34.001Z</time></trkpt><trkpt lat="46.043197882374706" lon="12.93067260377348"><ele>84.0</ele><time>2026-04-12T08:54:35.001Z</time></trkpt><trkpt lat="46.043066167614505" lon="12.930685525563582"><ele>83.5</ele><time>2026-04-12T08:54:36.001Z</time></trkpt><trkpt lat="46.0429519815482" lon="12.930695436178878"><ele>83.0</ele><time>2026-04-12T08:54:37.001Z</time></trkpt><trkpt lat="46.042830911103266" lon="12.930696350787255"><ele>82.5</ele><time>2026-04-12T08:54:38.001Z</time></trkpt><trkpt lat="46.04269545577765" lon="12.930688782789385"><ele>82.0</ele><time>2026-04-12T08:54:39.001Z</time></trkpt><trkpt lat="46.042590397966336" lon="12.930688611369359"><ele>82.0</ele><time>2026-04-12T08:54:40.001Z</time></trkpt><trkpt lat="46.04250587340405" lon="12.930658934665942"><ele>82.0</ele><time>2026-04-12T08:54:41.001Z</time></trkpt><trkpt lat="46.04240107992146" lon="12.930614347730208"><ele>82.0</ele><time>2026-04-12T08:54:42.001Z</time></trkpt><trkpt lat="46.042270141988574" lon="12.930573088351718"><ele>82.0</ele><time>2026-04-12T08:54:43.001Z</time></trkpt><trkpt lat="46.04214558672578" lon="12.930577164883923"><ele>81.8</ele><time>2026-04-12T08:54:44.001Z</time></trkpt><trkpt lat="46.042053847762496" lon="12.930583808736579"><ele>81.6</ele><time>2026-04-12T08:54:45.001Z</time></trkpt><trkpt lat="46.04194032223098" lon="12.930608044400676"><ele>81.39999999999999</ele><time>2026-04-12T08:54:46.001Z</time></trkpt><trkpt lat="46.041822589324454" lon="12.930628546753915"><ele>81.19999999999999</ele><time>2026-04-12T08:54:47.001Z</time></trkpt><trkpt lat="46.04173349181995" lon="12.930717067390269"><ele>81.0</ele><time>2026-04-12T08:54:48.001Z</time></trkpt><trkpt lat="46.041638325607686" lon="12.930801920403004"><ele>81.0</ele><time>2026-04-12T08:54:49.001Z</time></trkpt><trkpt lat="46.04155117386878" lon="12.930829830026106"><ele>81.0</ele><time>2026-04-12T08:54:50.001Z</time></trkpt><trkpt lat="46.041484646080065" lon="12.930825904104761"><ele>81.0</ele><time>2026-04-12T08:54:51.001Z</time></trkpt><trkpt lat="46.041413630525525" lon="12.930788172712951"><ele>81.0</ele><time>2026-04-12T08:54:52.001Z</time></trkpt><trkpt lat="46.041307157067585" lon="12.930762455955826"><ele>81.0</ele><time>2026-04-12T08:54:53.001Z</time></trkpt><trkpt lat="46.041196187638434" lon="12.930761401755625"><ele>81.0</ele><time>2026-04-12T08:54:54.001Z</time></trkpt><trkpt lat="46.04109135732028" lon="12.930765475146282"><ele>81.0</ele><time>2026-04-12T08:54:55.001Z</time></trkpt><trkpt lat="46.040992811096054" lon="12.93079798861806"><ele>81.0</ele><time>2026-04-12T08:54:56.001Z</time></trkpt><trkpt lat="46.04090288823654" lon="12.930820264924145"><ele>81.0</ele><time>2026-04-12T08:54:57.001Z</time></trkpt><trkpt lat="46.040837632385504" lon="12.930908974007822"><ele>81.0</ele><time>2026-04-12T08:54:58.001Z</time></trkpt><trkpt lat="46.04078660167068" lon="12.930973389813207"><ele>81.0</ele><time>2026-04-12T08:54:59.001Z</time></trkpt><trkpt lat="46.040667682663184" lon="12.931045088664483"><ele>81.0</ele><time>2026-04-12T08:55:01.001Z</time></trkpt><trkpt lat="46.04063852637346" lon="12.930914631616139"><ele>81.0</ele><time>2026-04-12T08:55:06.001Z</time></trkpt><trkpt lat="46.04064681687115" lon="12.930809090435568"><ele>81.0</ele><time>2026-04-12T08:55:07.001Z</time></trkpt><trkpt lat="46.04066699977031" lon="12.930626044054039"><ele>81.0</ele><time>2026-04-12T08:55:08.001Z</time></trkpt><trkpt lat="46.04065770940908" lon="12.930467344373366"><ele>81.0</ele><time>2026-04-12T08:55:09.001Z</time></trkpt><trkpt lat="46.040636186126356" lon="12.930306465623046"><ele>81.0</ele><time>2026-04-12T08:55:10.001Z</time></trkpt><trkpt lat="46.04061958258926" lon="12.930133676891442"><ele>81.0</ele><time>2026-04-12T08:55:11.001Z</time></trkpt><trkpt lat="46.040605243783176" lon="12.929954678980394"><ele>81.0</ele><time>2026-04-12T08:55:12.001Z</time></trkpt><trkpt lat="46.04059273174768" lon="12.929784649430017"><ele>79.8</ele><time>2026-04-12T08:55:13.001Z</time></trkpt><trkpt lat="46.040585288133244" lon="12.929618278035921"><ele>78.6</ele><time>2026-04-12T08:55:14.001Z</time></trkpt><trkpt lat="46.04059061289631" lon="12.929456410515563"><ele>77.4</ele><time>2026-04-12T08:55:15.001Z</time></trkpt><trkpt lat="46.0406039933938" lon="12.929320992362994"><ele>76.2</ele><time>2026-04-12T08:55:16.001Z</time></trkpt><trkpt lat="46.04062241331457" lon="12.929196665068059"><ele>75.0</ele><time>2026-04-12T08:55:17.001Z</time></trkpt><trkpt lat="46.040643086559776" lon="12.929064372000953"><ele>75.0</ele><time>2026-04-12T08:55:18.001Z</time></trkpt><trkpt lat="46.04067016867421" lon="12.928881526027237"><ele>75.0</ele><time>2026-04-12T08:55:19.001Z</time></trkpt><trkpt lat="46.04069483614482" lon="12.928712831096126"><ele>75.0</ele><time>2026-04-12T08:55:20.001Z</time></trkpt><trkpt lat="46.04070729130606" lon="12.928548430487773"><ele>75.0</ele><time>2026-04-12T08:55:21.001Z</time></trkpt><trkpt lat="46.04071192871115" lon="12.928381678345497"><ele>75.0</ele><time>2026-04-12T08:55:22.001Z</time></trkpt><trkpt lat="46.04070185561414" lon="12.928218937809948"><ele>75.0</ele><time>2026-04-12T08:55:23.001Z</time></trkpt><trkpt lat="46.04067644068814" lon="12.92804577478479"><ele>75.0</ele><time>2026-04-12T08:55:24.001Z</time></trkpt><trkpt lat="46.040647703351475" lon="12.927897012830327"><ele>75.0</ele><time>2026-04-12T08:55:25.001Z</time></trkpt><trkpt lat="46.04062078826032" lon="12.927748024756767"><ele>75.0</ele><time>2026-04-12T08:55:26.001Z</time></trkpt><trkpt lat="46.04060108075347" lon="12.927607863315245"><ele>75.0</ele><time>2026-04-12T08:55:27.001Z</time></trkpt><trkpt lat="46.04058786126634" lon="12.927480494646508"><ele>75.0</ele><time>2026-04-12T08:55:28.001Z</time></trkpt><trkpt lat="46.04057252737521" lon="12.92737899108316"><ele>75.0</ele><time>2026-04-12T08:55:29.001Z</time></trkpt><trkpt lat="46.040527185236556" lon="12.927247520847503"><ele>75.0</ele><time>2026-04-12T08:55:31.001Z</time></trkpt><trkpt lat="46.04045301913925" lon="12.927192239634865"><ele>75.0</ele><time>2026-04-12T08:55:32.002Z</time></trkpt><trkpt lat="46.040349495413786" lon="12.927144035529594"><ele>75.25</ele><time>2026-04-12T08:55:33.002Z</time></trkpt><trkpt lat="46.04021936966112" lon="12.92710878190893"><ele>75.5</ele><time>2026-04-12T08:55:34.002Z</time></trkpt><trkpt lat="46.04007837611825" lon="12.927077321542916"><ele>75.75</ele><time>2026-04-12T08:55:35.002Z</time></trkpt><trkpt lat="46.03996691846941" lon="12.927061586585788"><ele>76.0</ele><time>2026-04-12T08:55:36.002Z</time></trkpt><trkpt lat="46.03988780361345" lon="12.927038674063537"><ele>75.66666666666666</ele><time>2026-04-12T08:55:37.002Z</time></trkpt><trkpt lat="46.039814829104046" lon="12.92700962646472"><ele>75.33333333333333</ele><time>2026-04-12T08:55:38.002Z</time></trkpt><trkpt lat="46.03975400886961" lon="12.926958670845744"><ele>75.0</ele><time>2026-04-12T08:55:39.002Z</time></trkpt><trkpt lat="46.039710765524106" lon="12.926889809489214"><ele>74.66666666666667</ele><time>2026-04-12T08:55:40.002Z</time></trkpt><trkpt lat="46.03968438769111" lon="12.926800273747437"><ele>74.33333333333334</ele><time>2026-04-12T08:55:41.002Z</time></trkpt><trkpt lat="46.03966044869192" lon="12.92667309859393"><ele>74.0</ele><time>2026-04-12T08:55:42.002Z</time></trkpt><trkpt lat="46.039620792325636" lon="12.926493880074682"><ele>74.0</ele><time>2026-04-12T08:55:43Z</time></trkpt><trkpt lat="46.03957795174318" lon="12.926375020536197"><ele>74.0</ele><time>2026-04-12T08:55:44Z</time></trkpt><trkpt lat="46.03952006294471" lon="12.926288360895832"><ele>74.0</ele><time>2026-04-12T08:55:46Z</time></trkpt><trkpt lat="46.039427351354185" lon="12.9262880433425"><ele>74.0</ele><time>2026-04-12T08:55:48Z</time></trkpt><trkpt lat="46.0393367164906" lon="12.926306560290007"><ele>74.0</ele><time>2026-04-12T08:55:49Z</time></trkpt><trkpt lat="46.039200688132" lon="12.926305911544937"><ele>74.0</ele><time>2026-04-12T08:55:50Z</time></trkpt><trkpt lat="46.039062798495976" lon="12.926299962386464"><ele>74.0</ele><time>2026-04-12T08:55:51Z</time></trkpt><trkpt lat="46.03893366866039" lon="12.926301204947631"><ele>74.0</ele><time>2026-04-12T08:55:52Z</time></trkpt><trkpt lat="46.038819964771704" lon="12.926293949960568"><ele>74.0</ele><time>2026-04-12T08:55:53Z</time></trkpt><trkpt lat="46.03869878662161" lon="12.926283407362991"><ele>74.0</ele><time>2026-04-12T08:55:54Z</time></trkpt><trkpt lat="46.03856591406442" lon="12.926261063424151"><ele>74.0</ele><time>2026-04-12T08:55:55Z</time></trkpt><trkpt lat="46.03842604733338" lon="12.926241814701516"><ele>74.0</ele><time>2026-04-12T08:55:56Z</time></trkpt><trkpt lat="46.038291392950825" lon="12.926219385635079"><ele>74.0</ele><time>2026-04-12T08:55:57Z</time></trkpt><trkpt lat="46.0381561270591" lon="12.926189411371153"><ele>74.0</ele><time>2026-04-12T08:55:58Z</time></trkpt><trkpt lat="46.03802091766954" lon="12.926153051330393"><ele>74.0</ele><time>2026-04-12T08:55:59Z</time></trkpt><trkpt lat="46.03788586185579" lon="12.92611095671632"><ele>74.0</ele><time>2026-04-12T08:56:00Z</time></trkpt><trkpt lat="46.037751216319656" lon="12.926055969049116"><ele>74.0</ele><time>2026-04-12T08:56:01Z</time></trkpt><trkpt lat="46.0376139381915" lon="12.926008425751753"><ele>74.0</ele><time>2026-04-12T08:56:02Z</time></trkpt><trkpt lat="46.0374894683163" lon="12.925964994591572"><ele>74.0</ele><time>2026-04-12T08:56:03Z</time></trkpt><trkpt lat="46.0373757058404" lon="12.92592077753732"><ele>74.0</ele><time>2026-04-12T08:56:04Z</time></trkpt><trkpt lat="46.037256524949605" lon="12.925862081704249"><ele>74.0</ele><time>2026-04-12T08:56:05Z</time></trkpt><trkpt lat="46.03712240132581" lon="12.925795802766887"><ele>73.75</ele><time>2026-04-12T08:56:06Z</time></trkpt><trkpt lat="46.036984546053446" lon="12.925726800475967"><ele>73.5</ele><time>2026-04-12T08:56:07Z</time></trkpt><trkpt lat="46.03684801544811" lon="12.925666833968561"><ele>73.25</ele><time>2026-04-12T08:56:08Z</time></trkpt><trkpt lat="46.036720987101425" lon="12.9256186867243"><ele>73.0</ele><time>2026-04-12T08:56:09Z</time></trkpt><trkpt lat="46.03659373621863" lon="12.925572799636386"><ele>73.0</ele><time>2026-04-12T08:56:10Z</time></trkpt><trkpt lat="46.03646529630532" lon="12.92552484067134"><ele>73.0</ele><time>2026-04-12T08:56:11Z</time></trkpt><trkpt lat="46.03633750938094" lon="12.925485189590951"><ele>73.0</ele><time>2026-04-12T08:56:12Z</time></trkpt><trkpt lat="46.03620013235398" lon="12.925451015826592"><ele>73.0</ele><time>2026-04-12T08:56:13Z</time></trkpt><trkpt lat="46.0360524888829" lon="12.925413960251685"><ele>73.0</ele><time>2026-04-12T08:56:14Z</time></trkpt><trkpt lat="46.035905329643114" lon="12.925370860139898"><ele>73.0</ele><time>2026-04-12T08:56:15Z</time></trkpt><trkpt lat="46.035767137895" lon="12.925330265796852"><ele>73.0</ele><time>2026-04-12T08:56:16Z</time></trkpt><trkpt lat="46.03564318534659" lon="12.925295014078978"><ele>73.0</ele><time>2026-04-12T08:56:17Z</time></trkpt><trkpt lat="46.035537272797846" lon="12.925269222691483"><ele>73.0</ele><time>2026-04-12T08:56:18Z</time></trkpt><trkpt lat="46.0354207898021" lon="12.925251632755302"><ele>73.0</ele><time>2026-04-12T08:56:19Z</time></trkpt><trkpt lat="46.03529432632109" lon="12.92524726279502"><ele>73.0</ele><time>2026-04-12T08:56:20Z</time></trkpt><trkpt lat="46.0351713616081" lon="12.925232807324791"><ele>73.0</ele><time>2026-04-12T08:56:21Z</time></trkpt><trkpt lat="46.0350725444019" lon="12.925216560402754"><ele>73.0</ele><time>2026-04-12T08:56:22Z</time></trkpt><trkpt lat="46.034980023293755" lon="12.925216340042242"><ele>73.0</ele><time>2026-04-12T08:56:23Z</time></trkpt><trkpt lat="46.03488157211758" lon="12.925240349162944"><ele>73.0</ele><time>2026-04-12T08:56:24Z</time></trkpt><trkpt lat="46.03474852429942" lon="12.92527290243933"><ele>73.0</ele><time>2026-04-12T08:56:25Z</time></trkpt><trkpt lat="46.034614321097955" lon="12.925322578911533"><ele>73.66666666666666</ele><time>2026-04-12T08:56:26Z</time></trkpt><trkpt lat="46.03446093811468" lon="12.925382023401555"><ele>74.33333333333333</ele><time>2026-04-12T08:56:27Z</time></trkpt><trkpt lat="46.034296544856325" lon="12.925444403153685"><ele>75.0</ele><time>2026-04-12T08:56:28Z</time></trkpt><trkpt lat="46.03413843691259" lon="12.92550873677247"><ele>74.25</ele><time>2026-04-12T08:56:29Z</time></trkpt><trkpt lat="46.03400209477673" lon="12.925558788401984"><ele>73.5</ele><time>2026-04-12T08:56:30.001Z</time></trkpt><trkpt lat="46.03386270608941" lon="12.925610552629346"><ele>72.75</ele><time>2026-04-12T08:56:31.001Z</time></trkpt><trkpt lat="46.033724223353786" lon="12.92566291488551"><ele>72.0</ele><time>2026-04-12T08:56:32.001Z</time></trkpt><trkpt lat="46.03359647453905" lon="12.92570692181679"><ele>72.0</ele><time>2026-04-12T08:56:33.001Z</time></trkpt><trkpt lat="46.03347940594345" lon="12.925742723617399"><ele>72.0</ele><time>2026-04-12T08:56:34.001Z</time></trkpt><trkpt lat="46.033356854768314" lon="12.925776367328165"><ele>72.0</ele><time>2026-04-12T08:56:35.001Z</time></trkpt><trkpt lat="46.03322479808576" lon="12.925794658846755"><ele>72.0</ele><time>2026-04-12T08:56:36.001Z</time></trkpt><trkpt lat="46.03307808732226" lon="12.92580980795593"><ele>72.0</ele><time>2026-04-12T08:56:37.001Z</time></trkpt><trkpt lat="46.03292513660799" lon="12.92582998385271"><ele>72.0</ele><time>2026-04-12T08:56:38.001Z</time></trkpt><trkpt lat="46.03277861021354" lon="12.925856077268898"><ele>72.0</ele><time>2026-04-12T08:56:39.001Z</time></trkpt><trkpt lat="46.03264534562303" lon="12.925882154735952"><ele>72.0</ele><time>2026-04-12T08:56:40.001Z</time></trkpt><trkpt lat="46.03252190002811" lon="12.925905430030703"><ele>72.0</ele><time>2026-04-12T08:56:41.001Z</time></trkpt><trkpt lat="46.03241939642902" lon="12.925915300027768"><ele>72.0</ele><time>2026-04-12T08:56:42.001Z</time></trkpt><trkpt lat="46.032321651436064" lon="12.925905692322539"><ele>72.0</ele><time>2026-04-12T08:56:43.001Z</time></trkpt><trkpt lat="46.0321947049549" lon="12.925881870882346"><ele>72.0</ele><time>2026-04-12T08:56:44.001Z</time></trkpt><trkpt lat="46.03202943859062" lon="12.925856787820067"><ele>72.0</ele><time>2026-04-12T08:56:45.001Z</time></trkpt><trkpt lat="46.03185089897253" lon="12.925824010152466"><ele>72.0</ele><time>2026-04-12T08:56:46.001Z</time></trkpt><trkpt lat="46.03168984590468" lon="12.925790903910489"><ele>72.0</ele><time>2026-04-12T08:56:47.001Z</time></trkpt><trkpt lat="46.03153065536146" lon="12.925756862253584"><ele>72.0</ele><time>2026-04-12T08:56:48.001Z</time></trkpt><trkpt lat="46.031383101812224" lon="12.925711452160364"><ele>72.0</ele><time>2026-04-12T08:56:49.001Z</time></trkpt><trkpt lat="46.031246863684295" lon="12.92567893250329"><ele>72.0</ele><time>2026-04-12T08:56:50.001Z</time></trkpt><trkpt lat="46.031126855750784" lon="12.925660258074952"><ele>72.0</ele><time>2026-04-12T08:56:51.001Z</time></trkpt><trkpt lat="46.03100542580139" lon="12.9256288509013"><ele>72.0</ele><time>2026-04-12T08:56:52.001Z</time></trkpt><trkpt lat="46.03087132140165" lon="12.925577263806982"><ele>72.0</ele><time>2026-04-12T08:56:53.001Z</time></trkpt><trkpt lat="46.03071456849235" lon="12.925539049864074"><ele>72.0</ele><time>2026-04-12T08:56:54.001Z</time></trkpt><trkpt lat="46.030549202538744" lon="12.925505600499864"><ele>71.5</ele><time>2026-04-12T08:56:55.001Z</time></trkpt><trkpt lat="46.030414395590114" lon="12.925481164712297"><ele>71.0</ele><time>2026-04-12T08:56:56.001Z</time></trkpt><trkpt lat="46.03030340298806" lon="12.925464763247728"><ele>70.5</ele><time>2026-04-12T08:56:57.001Z</time></trkpt><trkpt lat="46.03017161887735" lon="12.925466050178798"><ele>70.0</ele><time>2026-04-12T08:56:58.001Z</time></trkpt><trkpt lat="46.030033854024005" lon="12.925471512084718"><ele>70.25</ele><time>2026-04-12T08:56:59.001Z</time></trkpt><trkpt lat="46.029926420774466" lon="12.925464830419438"><ele>70.5</ele><time>2026-04-12T08:57:00.001Z</time></trkpt><trkpt lat="46.02980684453551" lon="12.92544999965478"><ele>70.75</ele><time>2026-04-12T08:57:01.001Z</time></trkpt><trkpt lat="46.02966720626109" lon="12.925451691215052"><ele>71.0</ele><time>2026-04-12T08:57:02.001Z</time></trkpt><trkpt lat="46.02951363756638" lon="12.92546498698878"><ele>71.0</ele><time>2026-04-12T08:57:03.001Z</time></trkpt><trkpt lat="46.029368694267355" lon="12.925465363364248"><ele>71.0</ele><time>2026-04-12T08:57:04.001Z</time></trkpt><trkpt lat="46.029251009793796" lon="12.92546615587268"><ele>71.0</ele><time>2026-04-12T08:57:05.001Z</time></trkpt><trkpt lat="46.02915022821134" lon="12.925464269020583"><ele>71.0</ele><time>2026-04-12T08:57:06.001Z</time></trkpt><trkpt lat="46.02904703433121" lon="12.925477575999901"><ele>70.75</ele><time>2026-04-12T08:57:07.001Z</time></trkpt><trkpt lat="46.028934271023665" lon="12.925509869396016"><ele>70.5</ele><time>2026-04-12T08:57:08.001Z</time></trkpt><trkpt lat="46.02879905661656" lon="12.925554090690449"><ele>70.25</ele><time>2026-04-12T08:57:09.001Z</time></trkpt><trkpt lat="46.028643372606425" lon="12.92560059331595"><ele>70.0</ele><time>2026-04-12T08:57:10.001Z</time></trkpt><trkpt lat="46.0285086494383" lon="12.92564297615464"><ele>70.0</ele><time>2026-04-12T08:57:11.001Z</time></trkpt><trkpt lat="46.028372211557475" lon="12.92568274577106"><ele>70.0</ele><time>2026-04-12T08:57:12.001Z</time></trkpt><trkpt lat="46.02824165792006" lon="12.925725197734398"><ele>70.0</ele><time>2026-04-12T08:57:13.001Z</time></trkpt><trkpt lat="46.028112782224404" lon="12.925771382030105"><ele>70.0</ele><time>2026-04-12T08:57:14.001Z</time></trkpt><trkpt lat="46.02799406182116" lon="12.925810181962541"><ele>69.75</ele><time>2026-04-12T08:57:15.001Z</time></trkpt><trkpt lat="46.02787614062614" lon="12.925835301295269"><ele>69.5</ele><time>2026-04-12T08:57:16.001Z</time></trkpt><trkpt lat="46.027752179255586" lon="12.925855786671733"><ele>69.25</ele><time>2026-04-12T08:57:17.001Z</time></trkpt><trkpt lat="46.02763578036927" lon="12.925867956631869"><ele>69.0</ele><time>2026-04-12T08:57:18.001Z</time></trkpt><trkpt lat="46.02751860304292" lon="12.925863693127948"><ele>69.5</ele><time>2026-04-12T08:57:19.001Z</time></trkpt><trkpt lat="46.027395894332535" lon="12.925845808792548"><ele>70.0</ele><time>2026-04-12T08:57:20.001Z</time></trkpt><trkpt lat="46.027272445563256" lon="12.925813863412785"><ele>70.5</ele><time>2026-04-12T08:57:21.001Z</time></trkpt><trkpt lat="46.027138876493744" lon="12.925763568693425"><ele>71.0</ele><time>2026-04-12T08:57:22.001Z</time></trkpt><trkpt lat="46.027005078890106" lon="12.925707728049908"><ele>71.0</ele><time>2026-04-12T08:57:23.001Z</time></trkpt><trkpt lat="46.026890551994846" lon="12.925661774221759"><ele>71.0</ele><time>2026-04-12T08:57:24.001Z</time></trkpt><trkpt lat="46.02678525317744" lon="12.925619845926825"><ele>71.0</ele><time>2026-04-12T08:57:25.001Z</time></trkpt><trkpt lat="46.02667696875147" lon="12.925567177322487"><ele>71.0</ele><time>2026-04-12T08:57:26.001Z</time></trkpt><trkpt lat="46.026563151731715" lon="12.925490171342767"><ele>71.0</ele><time>2026-04-12T08:57:27.001Z</time></trkpt><trkpt lat="46.02644630696773" lon="12.925404925270634"><ele>71.0</ele><time>2026-04-12T08:57:28.001Z</time></trkpt><trkpt lat="46.026324892045984" lon="12.925342942042947"><ele>71.0</ele><time>2026-04-12T08:57:29.001Z</time></trkpt><trkpt lat="46.02624038974758" lon="12.92530387295992"><ele>71.0</ele><time>2026-04-12T08:57:30.001Z</time></trkpt><trkpt lat="46.02617881297426" lon="12.925279398416501"><ele>71.0</ele><time>2026-04-12T08:57:31.001Z</time></trkpt><trkpt lat="46.02610417575359" lon="12.925147567207205"><ele>70.66666666666667</ele><time>2026-04-12T08:57:33.001Z</time></trkpt><trkpt lat="46.026086265537366" lon="12.92499878642434"><ele>70.33333333333334</ele><time>2026-04-12T08:57:34.001Z</time></trkpt><trkpt lat="46.026062781717854" lon="12.92485809905325"><ele>70.0</ele><time>2026-04-12T08:57:35.001Z</time></trkpt><trkpt lat="46.026011533907734" lon="12.924751000503626"><ele>69.66666666666667</ele><time>2026-04-12T08:57:36.001Z</time></trkpt><trkpt lat="46.02593763561653" lon="12.924680818803807"><ele>69.33333333333333</ele><time>2026-04-12T08:57:37.001Z</time></trkpt><trkpt lat="46.02587526817115" lon="12.92465401976175"><ele>69.0</ele><time>2026-04-12T08:57:38.001Z</time></trkpt><trkpt lat="46.02574723297554" lon="12.924651368609569"><ele>68.8</ele><time>2026-04-12T08:57:40.002Z</time></trkpt><trkpt lat="46.025637935794435" lon="12.924732448382342"><ele>68.60000000000001</ele><time>2026-04-12T08:57:42.002Z</time></trkpt><trkpt lat="46.0255597423198" lon="12.924779648982028"><ele>68.4</ele><time>2026-04-12T08:57:43.002Z</time></trkpt><trkpt lat="46.02545827238164" lon="12.92482141337981"><ele>68.2</ele><time>2026-04-12T08:57:44.002Z</time></trkpt><trkpt lat="46.02534180177788" lon="12.924848201876065"><ele>68.0</ele><time>2026-04-12T08:57:45.002Z</time></trkpt><trkpt lat="46.025213455067714" lon="12.924871810630377"><ele>68.0</ele><time>2026-04-12T08:57:46.002Z</time></trkpt><trkpt lat="46.02506469250902" lon="12.924895501995062"><ele>68.0</ele><time>2026-04-12T08:57:47.002Z</time></trkpt><trkpt lat="46.02490182993545" lon="12.924912421077677"><ele>68.0</ele><time>2026-04-12T08:57:48.002Z</time></trkpt><trkpt lat="46.02472953843" lon="12.92492167198632"><ele>67.66666666666667</ele><time>2026-04-12T08:57:49Z</time></trkpt><trkpt lat="46.02456918792835" lon="12.924924763898675"><ele>67.33333333333333</ele><time>2026-04-12T08:57:50Z</time></trkpt><trkpt lat="46.024402666165265" lon="12.924925292587881"><ele>67.0</ele><time>2026-04-12T08:57:51Z</time></trkpt><trkpt lat="46.02423268549189" lon="12.924928896975509"><ele>67.25</ele><time>2026-04-12T08:57:52Z</time></trkpt><trkpt lat="46.02407141948072" lon="12.924936104893956"><ele>67.5</ele><time>2026-04-12T08:57:53Z</time></trkpt><trkpt lat="46.02393305931276" lon="12.92495346841781"><ele>67.75</ele><time>2026-04-12T08:57:54Z</time></trkpt><trkpt lat="46.02379856494567" lon="12.924977208702881"><ele>68.0</ele><time>2026-04-12T08:57:55Z</time></trkpt><trkpt lat="46.02366185250162" lon="12.925009163533774"><ele>68.0</ele><time>2026-04-12T08:57:56Z</time></trkpt><trkpt lat="46.023513664560184" lon="12.925052614554753"><ele>68.0</ele><time>2026-04-12T08:57:57Z</time></trkpt><trkpt lat="46.02335974041802" lon="12.925113359555965"><ele>68.0</ele><time>2026-04-12T08:57:58Z</time></trkpt><trkpt lat="46.02319256411507" lon="12.92518173192112"><ele>67.66666666666667</ele><time>2026-04-12T08:57:59Z</time></trkpt><trkpt lat="46.023024257091905" lon="12.925263849518833"><ele>67.33333333333333</ele><time>2026-04-12T08:58:00Z</time></trkpt><trkpt lat="46.02284225568971" lon="12.925351006152585"><ele>67.0</ele><time>2026-04-12T08:58:01Z</time></trkpt><trkpt lat="46.02266322743297" lon="12.925436385792766"><ele>67.0</ele><time>2026-04-12T08:58:02Z</time></trkpt><trkpt lat="46.02249872747022" lon="12.925514917034514"><ele>67.0</ele><time>2026-04-12T08:58:03Z</time></trkpt><trkpt lat="46.02234063744151" lon="12.925591428047284"><ele>67.0</ele><time>2026-04-12T08:58:04Z</time></trkpt><trkpt lat="46.02218954070545" lon="12.925660010167462"><ele>67.0</ele><time>2026-04-12T08:58:05Z</time></trkpt><trkpt lat="46.022038948483754" lon="12.925726821094361"><ele>67.0</ele><time>2026-04-12T08:58:06Z</time></trkpt><trkpt lat="46.021892406299614" lon="12.925793261521516"><ele>67.0</ele><time>2026-04-12T08:58:07Z</time></trkpt><trkpt lat="46.02174404855105" lon="12.925872007320818"><ele>66.75</ele><time>2026-04-12T08:58:08Z</time></trkpt><trkpt lat="46.02159115389781" lon="12.925960237254303"><ele>66.5</ele><time>2026-04-12T08:58:09Z</time></trkpt><trkpt lat="46.0214589497355" lon="12.926050831839158"><ele>66.25</ele><time>2026-04-12T08:58:10Z</time></trkpt><trkpt lat="46.02135834582418" lon="12.926122198227377"><ele>66.0</ele><time>2026-04-12T08:58:11Z</time></trkpt><trkpt lat="46.02128316688386" lon="12.926188964990734"><ele>66.0</ele><time>2026-04-12T08:58:12Z</time></trkpt><trkpt lat="46.02122499087339" lon="12.926265034617076"><ele>66.0</ele><time>2026-04-12T08:58:13Z</time></trkpt><trkpt lat="46.02117057242625" lon="12.926371182197048"><ele>66.0</ele><time>2026-04-12T08:58:14Z</time></trkpt><trkpt lat="46.02112184873683" lon="12.926490450150835"><ele>66.0</ele><time>2026-04-12T08:58:15Z</time></trkpt><trkpt lat="46.02107346606162" lon="12.926575536638767"><ele>66.0</ele><time>2026-04-12T08:58:16Z</time></trkpt><trkpt lat="46.02095733841881" lon="12.92662401352585"><ele>66.0</ele><time>2026-04-12T08:58:18Z</time></trkpt><trkpt lat="46.020839112469865" lon="12.9265632633128"><ele>66.0</ele><time>2026-04-12T08:58:20Z</time></trkpt><trkpt lat="46.02077159088896" lon="12.926502110866284"><ele>66.0</ele><time>2026-04-12T08:58:21Z</time></trkpt><trkpt lat="46.020709204922944" lon="12.926433274218017"><ele>66.0</ele><time>2026-04-12T08:58:22Z</time></trkpt><trkpt lat="46.02065460732848" lon="12.926354403244007"><ele>66.0</ele><time>2026-04-12T08:58:23Z</time></trkpt><trkpt lat="46.020612403894106" lon="12.926277742784848"><ele>66.0</ele><time>2026-04-12T08:58:24Z</time></trkpt><trkpt lat="46.02048413495981" lon="12.926208250508138"><ele>65.8</ele><time>2026-04-12T08:58:26Z</time></trkpt><trkpt lat="46.020414363636206" lon="12.926136763389971"><ele>65.6</ele><time>2026-04-12T08:58:27Z</time></trkpt><trkpt lat="46.02034545978295" lon="12.926044995110688"><ele>65.4</ele><time>2026-04-12T08:58:28Z</time></trkpt><trkpt lat="46.0202680790139" lon="12.925989020908336"><ele>65.2</ele><time>2026-04-12T08:58:29Z</time></trkpt><trkpt lat="46.02015507167307" lon="12.925947549255113"><ele>65.0</ele><time>2026-04-12T08:58:30Z</time></trkpt><trkpt lat="46.02004446115551" lon="12.925918528613195"><ele>65.0</ele><time>2026-04-12T08:58:31Z</time></trkpt><trkpt lat="46.01996353542944" lon="12.925888023309703"><ele>65.0</ele><time>2026-04-12T08:58:32Z</time></trkpt><trkpt lat="46.01991372576122" lon="12.925826817303092"><ele>65.0</ele><time>2026-04-12T08:58:33Z</time></trkpt><trkpt lat="46.019855168234585" lon="12.925768437725461"><ele>65.0</ele><time>2026-04-12T08:58:34Z</time></trkpt><trkpt lat="46.01977746982476" lon="12.92573545558899"><ele>65.0</ele><time>2026-04-12T08:58:35Z</time></trkpt><trkpt lat="46.0196607916119" lon="12.925707068406533"><ele>65.0</ele><time>2026-04-12T08:58:36.001Z</time></trkpt><trkpt lat="46.019511704504765" lon="12.92568532786465"><ele>65.0</ele><time>2026-04-12T08:58:37.001Z</time></trkpt><trkpt lat="46.01939293008747" lon="12.92565139655309"><ele>65.0</ele><time>2026-04-12T08:58:38.001Z</time></trkpt><trkpt lat="46.019272875622626" lon="12.925617340128364"><ele>65.0</ele><time>2026-04-12T08:58:39.001Z</time></trkpt><trkpt lat="46.01916558011432" lon="12.925604786358484"><ele>65.0</ele><time>2026-04-12T08:58:40.001Z</time></trkpt><trkpt lat="46.01909170300162" lon="12.92559573629705"><ele>65.0</ele><time>2026-04-12T08:58:41.001Z</time></trkpt><trkpt lat="46.018974377747256" lon="12.925561682351518"><ele>65.0</ele><time>2026-04-12T08:58:43.001Z</time></trkpt><trkpt lat="46.018863299355274" lon="12.925532231627564"><ele>65.0</ele><time>2026-04-12T08:58:44.001Z</time></trkpt><trkpt lat="46.01874538541258" lon="12.92548720013503"><ele>65.0</ele><time>2026-04-12T08:58:45.001Z</time></trkpt><trkpt lat="46.01863089354871" lon="12.925435408923786"><ele>65.0</ele><time>2026-04-12T08:58:46.001Z</time></trkpt><trkpt lat="46.018503722013854" lon="12.925384917091451"><ele>65.0</ele><time>2026-04-12T08:58:47.001Z</time></trkpt><trkpt lat="46.018381409838135" lon="12.92534000154863"><ele>65.0</ele><time>2026-04-12T08:58:48.001Z</time></trkpt><trkpt lat="46.01827331422724" lon="12.925304872111573"><ele>65.0</ele><time>2026-04-12T08:58:49.001Z</time></trkpt><trkpt lat="46.01815893042025" lon="12.92527584764915"><ele>65.0</ele><time>2026-04-12T08:58:50.001Z</time></trkpt><trkpt lat="46.01803906743009" lon="12.925232963593894"><ele>65.0</ele><time>2026-04-12T08:58:51.001Z</time></trkpt><trkpt lat="46.017913410398364" lon="12.925172559656545"><ele>65.0</ele><time>2026-04-12T08:58:52.001Z</time></trkpt><trkpt lat="46.01779309738282" lon="12.92510568757719"><ele>65.0</ele><time>2026-04-12T08:58:53.001Z</time></trkpt><trkpt lat="46.01767911653859" lon="12.925049846990253"><ele>65.0</ele><time>2026-04-12T08:58:54.001Z</time></trkpt><trkpt lat="46.01756955308917" lon="12.924987458357249"><ele>65.0</ele><time>2026-04-12T08:58:55.001Z</time></trkpt><trkpt lat="46.017461828247164" lon="12.924917684080713"><ele>65.0</ele><time>2026-04-12T08:58:56.001Z</time></trkpt><trkpt lat="46.0173559779313" lon="12.924852439303324"><ele>65.0</ele><time>2026-04-12T08:58:57.001Z</time></trkpt><trkpt lat="46.01724446163423" lon="12.924784149168987"><ele>65.0</ele><time>2026-04-12T08:58:58.001Z</time></trkpt><trkpt lat="46.01714018139788" lon="12.924719915773094"><ele>65.0</ele><time>2026-04-12T08:58:59.001Z</time></trkpt><trkpt lat="46.017054808900454" lon="12.924678843535931"><ele>65.0</ele><time>2026-04-12T08:59:00.001Z</time></trkpt><trkpt lat="46.01698102118666" lon="12.924640672780551"><ele>65.0</ele><time>2026-04-12T08:59:01.001Z</time></trkpt><trkpt lat="46.01689648842844" lon="12.924600985168452"><ele>65.0</ele><time>2026-04-12T08:59:02.001Z</time></trkpt><trkpt lat="46.016790299135565" lon="12.92455740605524"><ele>65.0</ele><time>2026-04-12T08:59:03.001Z</time></trkpt><trkpt lat="46.016670939102525" lon="12.92452510719817"><ele>64.8</ele><time>2026-04-12T08:59:04.001Z</time></trkpt><trkpt lat="46.01654450054174" lon="12.924482346027483"><ele>64.6</ele><time>2026-04-12T08:59:05.001Z</time></trkpt><trkpt lat="46.01643330211234" lon="12.924444778644952"><ele>64.4</ele><time>2026-04-12T08:59:06.001Z</time></trkpt><trkpt lat="46.016332086577336" lon="12.924416857258448"><ele>64.2</ele><time>2026-04-12T08:59:07.001Z</time></trkpt><trkpt lat="46.01625883864906" lon="12.924395664207502"><ele>64.0</ele><time>2026-04-12T08:59:08.001Z</time></trkpt><trkpt lat="46.01609793384336" lon="12.924352637868193"><ele>64.0</ele><time>2026-04-12T08:59:10.001Z</time></trkpt><trkpt lat="46.015982155957225" lon="12.924331785137399"><ele>64.0</ele><time>2026-04-12T08:59:11.001Z</time></trkpt><trkpt lat="46.0158740825219" lon="12.924308661348983"><ele>64.0</ele><time>2026-04-12T08:59:12.001Z</time></trkpt><trkpt lat="46.01576622867654" lon="12.924279272730564"><ele>64.0</ele><time>2026-04-12T08:59:13.001Z</time></trkpt><trkpt lat="46.01565306094332" lon="12.924241455809588"><ele>63.25</ele><time>2026-04-12T08:59:14.001Z</time></trkpt><trkpt lat="46.01553152697493" lon="12.924185277108547"><ele>62.5</ele><time>2026-04-12T08:59:15.001Z</time></trkpt><trkpt lat="46.01539356366281" lon="12.92413622527458"><ele>61.75</ele><time>2026-04-12T08:59:16.001Z</time></trkpt><trkpt lat="46.01524440503063" lon="12.924101591210626"><ele>61.0</ele><time>2026-04-12T08:59:17.001Z</time></trkpt><trkpt lat="46.01509658075298" lon="12.924066798914671"><ele>61.25</ele><time>2026-04-12T08:59:18.001Z</time></trkpt><trkpt lat="46.01495952390472" lon="12.92403230546223"><ele>61.5</ele><time>2026-04-12T08:59:19.001Z</time></trkpt><trkpt lat="46.01481844582303" lon="12.923991802947295"><ele>61.75</ele><time>2026-04-12T08:59:20.001Z</time></trkpt><trkpt lat="46.014671877963686" lon="12.923942362739428"><ele>62.0</ele><time>2026-04-12T08:59:21.001Z</time></trkpt><trkpt lat="46.014525041461226" lon="12.923887655256154"><ele>62.0</ele><time>2026-04-12T08:59:22.001Z</time></trkpt><trkpt lat="46.014378919335584" lon="12.923830828009423"><ele>62.0</ele><time>2026-04-12T08:59:23.001Z</time></trkpt><trkpt lat="46.014235342302015" lon="12.923770316112925"><ele>62.0</ele><time>2026-04-12T08:59:24.001Z</time></trkpt><trkpt lat="46.01409022109518" lon="12.923699728578312"><ele>62.0</ele><time>2026-04-12T08:59:25.001Z</time></trkpt><trkpt lat="46.013943802689695" lon="12.923619944213934"><ele>62.0</ele><time>2026-04-12T08:59:26.001Z</time></trkpt><trkpt lat="46.01380693822115" lon="12.92352801626169"><ele>62.0</ele><time>2026-04-12T08:59:27.001Z</time></trkpt><trkpt lat="46.01368751546913" lon="12.923436151864987"><ele>62.0</ele><time>2026-04-12T08:59:28.001Z</time></trkpt><trkpt lat="46.01356560293499" lon="12.923337808206714"><ele>62.0</ele><time>2026-04-12T08:59:29.001Z</time></trkpt><trkpt lat="46.013446484089634" lon="12.92324642127345"><ele>62.0</ele><time>2026-04-12T08:59:30.001Z</time></trkpt><trkpt lat="46.01334769215944" lon="12.92317760218871"><ele>62.0</ele><time>2026-04-12T08:59:31.001Z</time></trkpt><trkpt lat="46.013279036237094" lon="12.92313658711044"><ele>62.0</ele><time>2026-04-12T08:59:32.001Z</time></trkpt><trkpt lat="46.01318072415442" lon="12.92308026011357"><ele>62.0</ele><time>2026-04-12T08:59:34.001Z</time></trkpt><trkpt lat="46.01307790287911" lon="12.922991962459763"><ele>62.16666666666667</ele><time>2026-04-12T08:59:36.001Z</time></trkpt><trkpt lat="46.0130242132568" lon="12.922931777143482"><ele>62.333333333333336</ele><time>2026-04-12T08:59:37.001Z</time></trkpt><trkpt lat="46.01296361622293" lon="12.922869002191444"><ele>62.5</ele><time>2026-04-12T08:59:38.001Z</time></trkpt><trkpt lat="46.012896170233844" lon="12.922809820269606"><ele>62.66666666666667</ele><time>2026-04-12T08:59:39.001Z</time></trkpt><trkpt lat="46.012818078429724" lon="12.922760330812007"><ele>62.833333333333336</ele><time>2026-04-12T08:59:40.001Z</time></trkpt><trkpt lat="46.01275634412016" lon="12.922722275601464"><ele>63.0</ele><time>2026-04-12T08:59:41.001Z</time></trkpt><trkpt lat="46.01268176194857" lon="12.922629743850852"><ele>63.0</ele><time>2026-04-12T08:59:43.001Z</time></trkpt><trkpt lat="46.01270327132954" lon="12.922480409222885"><ele>63.0</ele><time>2026-04-12T08:59:45.001Z</time></trkpt><trkpt lat="46.01265874770748" lon="12.92237370854634"><ele>63.0</ele><time>2026-04-12T08:59:47.002Z</time></trkpt><trkpt lat="46.01254165638109" lon="12.922420999024759"><ele>63.0</ele><time>2026-04-12T08:59:49.002Z</time></trkpt><trkpt lat="46.01243209112678" lon="12.922514083688217"><ele>63.0</ele><time>2026-04-12T08:59:50.002Z</time></trkpt><trkpt lat="46.01232515496709" lon="12.922599633914533"><ele>63.0</ele><time>2026-04-12T08:59:51.002Z</time></trkpt><trkpt lat="46.01225941161623" lon="12.922660401620359"><ele>63.0</ele><time>2026-04-12T08:59:52.002Z</time></trkpt><trkpt lat="46.01218201278583" lon="12.922719675279552"><ele>63.0</ele><time>2026-04-12T08:59:53.002Z</time></trkpt><trkpt lat="46.01209527282533" lon="12.922780796495845"><ele>63.0</ele><time>2026-04-12T08:59:54.002Z</time></trkpt><trkpt lat="46.01199298522083" lon="12.922859217307632"><ele>63.0</ele><time>2026-04-12T08:59:55Z</time></trkpt><trkpt lat="46.01190745310366" lon="12.922935162936165"><ele>63.0</ele><time>2026-04-12T08:59:56Z</time></trkpt><trkpt lat="46.01182065709298" lon="12.923012128997874"><ele>63.0</ele><time>2026-04-12T08:59:57Z</time></trkpt><trkpt lat="46.01176547965721" lon="12.923062370594362"><ele>63.0</ele><time>2026-04-12T08:59:58Z</time></trkpt><trkpt lat="46.01169721100525" lon="12.9230997286258"><ele>63.0</ele><time>2026-04-12T08:59:59Z</time></trkpt><trkpt lat="46.01161370412194" lon="12.923122544269521"><ele>63.0</ele><time>2026-04-12T09:00:00Z</time></trkpt><trkpt lat="46.011529331147344" lon="12.923117263401808"><ele>63.0</ele><time>2026-04-12T09:00:01Z</time></trkpt><trkpt lat="46.011458851026" lon="12.92308951249809"><ele>63.0</ele><time>2026-04-12T09:00:02Z</time></trkpt><trkpt lat="46.01139497138463" lon="12.923045071251147"><ele>63.0</ele><time>2026-04-12T09:00:03Z</time></trkpt><trkpt lat="46.011340040160704" lon="12.922991909497446"><ele>63.0</ele><time>2026-04-12T09:00:04Z</time></trkpt><trkpt lat="46.01126586472814" lon="12.92292953539197"><ele>63.0</ele><time>2026-04-12T09:00:05Z</time></trkpt><trkpt lat="46.01118661938687" lon="12.922850733172158"><ele>63.0</ele><time>2026-04-12T09:00:06Z</time></trkpt><trkpt lat="46.01113264210668" lon="12.922792083591526"><ele>63.0</ele><time>2026-04-12T09:00:07Z</time></trkpt><trkpt lat="46.01101457753436" lon="12.922708855546125"><ele>63.0</ele><time>2026-04-12T09:00:09Z</time></trkpt><trkpt lat="46.01093510591119" lon="12.922667709407891"><ele>63.0</ele><time>2026-04-12T09:00:10Z</time></trkpt><trkpt lat="46.01085282218906" lon="12.922619334567083"><ele>63.0</ele><time>2026-04-12T09:00:11Z</time></trkpt><trkpt lat="46.01077201595506" lon="12.922560315262963"><ele>63.0</ele><time>2026-04-12T09:00:12Z</time></trkpt><trkpt lat="46.01067648858761" lon="12.922508816532888"><ele>63.0</ele><time>2026-04-12T09:00:13Z</time></trkpt><trkpt lat="46.010568713812575" lon="12.922460131739568"><ele>62.75</ele><time>2026-04-12T09:00:14Z</time></trkpt><trkpt lat="46.01046353546255" lon="12.922408617651906"><ele>62.5</ele><time>2026-04-12T09:00:15Z</time></trkpt><trkpt lat="46.01034952723812" lon="12.922345731554044"><ele>62.25</ele><time>2026-04-12T09:00:16Z</time></trkpt><trkpt lat="46.010228818966056" lon="12.922276779847888"><ele>62.0</ele><time>2026-04-12T09:00:17Z</time></trkpt><trkpt lat="46.01009796870839" lon="12.922205147382025"><ele>62.25</ele><time>2026-04-12T09:00:18Z</time></trkpt><trkpt lat="46.00997894337522" lon="12.922138912403282"><ele>62.5</ele><time>2026-04-12T09:00:19Z</time></trkpt><trkpt lat="46.00986864544488" lon="12.922082111054364"><ele>62.75</ele><time>2026-04-12T09:00:20Z</time></trkpt><trkpt lat="46.009767832475035" lon="12.922033014474247"><ele>63.0</ele><time>2026-04-12T09:00:21Z</time></trkpt><trkpt lat="46.009659672378" lon="12.921994027359755"><ele>63.0</ele><time>2026-04-12T09:00:22Z</time></trkpt><trkpt lat="46.009531190352696" lon="12.921954275719342"><ele>63.0</ele><time>2026-04-12T09:00:23Z</time></trkpt><trkpt lat="46.00940173444853" lon="12.921931612593818"><ele>63.0</ele><time>2026-04-12T09:00:24Z</time></trkpt><trkpt lat="46.00927613510039" lon="12.921909893530415"><ele>63.0</ele><time>2026-04-12T09:00:25Z</time></trkpt><trkpt lat="46.009165399373124" lon="12.921896204213018"><ele>62.8</ele><time>2026-04-12T09:00:26Z</time></trkpt><trkpt lat="46.00907312302887" lon="12.921886321533743"><ele>62.599999999999994</ele><time>2026-04-12T09:00:27Z</time></trkpt><trkpt lat="46.00898494538146" lon="12.9218682659594"><ele>62.400000000000006</ele><time>2026-04-12T09:00:28Z</time></trkpt><trkpt lat="46.008901832904876" lon="12.921858417109753"><ele>62.2</ele><time>2026-04-12T09:00:29Z</time></trkpt><trkpt lat="46.00880890309121" lon="12.921868819311484"><ele>62.0</ele><time>2026-04-12T09:00:30Z</time></trkpt><trkpt lat="46.00869310268448" lon="12.921860578564809"><ele>62.0</ele><time>2026-04-12T09:00:31Z</time></trkpt><trkpt lat="46.008580236635254" lon="12.921857901437479"><ele>62.0</ele><time>2026-04-12T09:00:32Z</time></trkpt><trkpt lat="46.00848382250188" lon="12.921853362236579"><ele>62.0</ele><time>2026-04-12T09:00:33Z</time></trkpt><trkpt lat="46.008391300290555" lon="12.921836673847519"><ele>62.0</ele><time>2026-04-12T09:00:34Z</time></trkpt><trkpt lat="46.00829940018582" lon="12.921817856048195"><ele>62.0</ele><time>2026-04-12T09:00:35Z</time></trkpt><trkpt lat="46.00821960547359" lon="12.921789812502405"><ele>62.400000000000006</ele><time>2026-04-12T09:00:36Z</time></trkpt><trkpt lat="46.0081320802795" lon="12.921756599699359"><ele>62.800000000000004</ele><time>2026-04-12T09:00:37Z</time></trkpt><trkpt lat="46.008047848200434" lon="12.921744990031707"><ele>63.2</ele><time>2026-04-12T09:00:38Z</time></trkpt><trkpt lat="46.007953606212475" lon="12.921750230151913"><ele>63.6</ele><time>2026-04-12T09:00:39.001Z</time></trkpt><trkpt lat="46.007858812049655" lon="12.921762368994205"><ele>64.0</ele><time>2026-04-12T09:00:40.001Z</time></trkpt><trkpt lat="46.00774719145071" lon="12.921772426435854"><ele>64.0</ele><time>2026-04-12T09:00:41.001Z</time></trkpt><trkpt lat="46.00764179818988" lon="12.921773260714616"><ele>64.0</ele><time>2026-04-12T09:00:42.001Z</time></trkpt><trkpt lat="46.00752042114572" lon="12.92175481867511"><ele>64.0</ele><time>2026-04-12T09:00:43.001Z</time></trkpt><trkpt lat="46.00738992334564" lon="12.92174077619622"><ele>64.0</ele><time>2026-04-12T09:00:44.001Z</time></trkpt><trkpt lat="46.007264443340404" lon="12.921726192459753"><ele>63.0</ele><time>2026-04-12T09:00:45.001Z</time></trkpt><trkpt lat="46.007138950577655" lon="12.92171358186989"><ele>62.0</ele><time>2026-04-12T09:00:46.001Z</time></trkpt><trkpt lat="46.007021026526665" lon="12.921698733095658"><ele>61.0</ele><time>2026-04-12T09:00:47.001Z</time></trkpt><trkpt lat="46.00689829417993" lon="12.921692234525802"><ele>60.0</ele><time>2026-04-12T09:00:48.001Z</time></trkpt><trkpt lat="46.0067843431431" lon="12.92170426741845"><ele>60.0</ele><time>2026-04-12T09:00:49.001Z</time></trkpt><trkpt lat="46.006673148965696" lon="12.921712619001543"><ele>60.0</ele><time>2026-04-12T09:00:50.001Z</time></trkpt><trkpt lat="46.00656090117092" lon="12.921718523015446"><ele>60.0</ele><time>2026-04-12T09:00:51.001Z</time></trkpt><trkpt lat="46.00643605830282" lon="12.921716387460046"><ele>60.0</ele><time>2026-04-12T09:00:52.001Z</time></trkpt><trkpt lat="46.00630096226497" lon="12.921710959968811"><ele>60.0</ele><time>2026-04-12T09:00:53.001Z</time></trkpt><trkpt lat="46.00616774029883" lon="12.921718878974263"><ele>60.0</ele><time>2026-04-12T09:00:54.001Z</time></trkpt><trkpt lat="46.00602772257114" lon="12.921729498957355"><ele>60.0</ele><time>2026-04-12T09:00:55.001Z</time></trkpt><trkpt lat="46.005904207700546" lon="12.921732600824647"><ele>60.0</ele><time>2026-04-12T09:00:56.001Z</time></trkpt><trkpt lat="46.00578382480319" lon="12.921740774314788"><ele>59.75</ele><time>2026-04-12T09:00:57.001Z</time></trkpt><trkpt lat="46.00568062941784" lon="12.921746030669611"><ele>59.5</ele><time>2026-04-12T09:00:58.001Z</time></trkpt><trkpt lat="46.00557957249936" lon="12.921751326010977"><ele>59.25</ele><time>2026-04-12T09:00:59.001Z</time></trkpt><trkpt lat="46.00545868451858" lon="12.92176396068616"><ele>59.0</ele><time>2026-04-12T09:01:00.001Z</time></trkpt><trkpt lat="46.00533086608569" lon="12.921744534137598"><ele>59.0</ele><time>2026-04-12T09:01:01.001Z</time></trkpt><trkpt lat="46.00519836688482" lon="12.921705529108095"><ele>59.0</ele><time>2026-04-12T09:01:02.001Z</time></trkpt><trkpt lat="46.00507080863275" lon="12.921661445801213"><ele>59.0</ele><time>2026-04-12T09:01:03.001Z</time></trkpt><trkpt lat="46.00494467819007" lon="12.921610286457213"><ele>59.0</ele><time>2026-04-12T09:01:04.001Z</time></trkpt><trkpt lat="46.00483338628368" lon="12.921572410759257"><ele>59.0</ele><time>2026-04-12T09:01:05.001Z</time></trkpt><trkpt lat="46.004719218119725" lon="12.921569545057"><ele>59.00000000000001</ele><time>2026-04-12T09:01:06.001Z</time></trkpt><trkpt lat="46.004629485063525" lon="12.921579933788681"><ele>59.00000000000001</ele><time>2026-04-12T09:01:07.001Z</time></trkpt><trkpt lat="46.00453809081478" lon="12.921595004430019"><ele>59.0</ele><time>2026-04-12T09:01:08.001Z</time></trkpt><trkpt lat="46.004450284035485" lon="12.921643363654407"><ele>59.0</ele><time>2026-04-12T09:01:09.001Z</time></trkpt><trkpt lat="46.004377994833014" lon="12.921692195824903"><ele>59.0</ele><time>2026-04-12T09:01:10.001Z</time></trkpt><trkpt lat="46.00431118337498" lon="12.92171295048416"><ele>59.00000000000001</ele><time>2026-04-12T09:01:11.001Z</time></trkpt><trkpt lat="46.00422165874323" lon="12.921699240098606"><ele>59.00000000000001</ele><time>2026-04-12T09:01:12.001Z</time></trkpt><trkpt lat="46.00411724980231" lon="12.92170281132623"><ele>59.0</ele><time>2026-04-12T09:01:13.001Z</time></trkpt><trkpt lat="46.004000654643036" lon="12.921693902095564"><ele>59.0</ele><time>2026-04-12T09:01:14.001Z</time></trkpt><trkpt lat="46.0038758936876" lon="12.92167784373722"><ele>59.0</ele><time>2026-04-12T09:01:15.001Z</time></trkpt><trkpt lat="46.00375006382964" lon="12.921655478541721"><ele>59.0</ele><time>2026-04-12T09:01:16.001Z</time></trkpt><trkpt lat="46.00363386972545" lon="12.921635975564453"><ele>59.0</ele><time>2026-04-12T09:01:17.001Z</time></trkpt><trkpt lat="46.003515938063124" lon="12.921620011020437"><ele>59.0</ele><time>2026-04-12T09:01:18.001Z</time></trkpt><trkpt lat="46.003404389814484" lon="12.921596671106505"><ele>59.400000000000006</ele><time>2026-04-12T09:01:19.001Z</time></trkpt><trkpt lat="46.00331291886693" lon="12.921579249409618"><ele>59.800000000000004</ele><time>2026-04-12T09:01:20.001Z</time></trkpt><trkpt lat="46.003210742064" lon="12.921546131912201"><ele>60.199999999999996</ele><time>2026-04-12T09:01:21.001Z</time></trkpt><trkpt lat="46.003094471577256" lon="12.92151735943756"><ele>60.599999999999994</ele><time>2026-04-12T09:01:22.001Z</time></trkpt><trkpt lat="46.00296457135188" lon="12.921485243492972"><ele>61.0</ele><time>2026-04-12T09:01:23.001Z</time></trkpt><trkpt lat="46.002829598183204" lon="12.921456366897472"><ele>61.0</ele><time>2026-04-12T09:01:24.001Z</time></trkpt><trkpt lat="46.00269723877917" lon="12.92142565597094"><ele>61.0</ele><time>2026-04-12T09:01:25.001Z</time></trkpt><trkpt lat="46.002560670827286" lon="12.921396461025845"><ele>61.0</ele><time>2026-04-12T09:01:26.001Z</time></trkpt><trkpt lat="46.00241922513584" lon="12.921377877343765"><ele>61.0</ele><time>2026-04-12T09:01:27.001Z</time></trkpt><trkpt lat="46.00227566899419" lon="12.921361164820716"><ele>60.5</ele><time>2026-04-12T09:01:28.001Z</time></trkpt><trkpt lat="46.00214069866973" lon="12.921342437098422"><ele>60.0</ele><time>2026-04-12T09:01:29.001Z</time></trkpt><trkpt lat="46.00202786601862" lon="12.921326192236839"><ele>59.5</ele><time>2026-04-12T09:01:30.001Z</time></trkpt><trkpt lat="46.00191486295688" lon="12.921300700639923"><ele>59.0</ele><time>2026-04-12T09:01:31.001Z</time></trkpt><trkpt lat="46.001799741695805" lon="12.921270637649608"><ele>59.0</ele><time>2026-04-12T09:01:32.001Z</time></trkpt><trkpt lat="46.00168663524043" lon="12.921227944123737"><ele>59.0</ele><time>2026-04-12T09:01:33.001Z</time></trkpt><trkpt lat="46.0015785521248" lon="12.921167936641366"><ele>59.0</ele><time>2026-04-12T09:01:34.001Z</time></trkpt><trkpt lat="46.00146807886038" lon="12.921099798140302"><ele>59.0</ele><time>2026-04-12T09:01:35.001Z</time></trkpt><trkpt lat="46.001350561292526" lon="12.921038827564495"><ele>59.0</ele><time>2026-04-12T09:01:36.001Z</time></trkpt><trkpt lat="46.0012194510924" lon="12.920992889957168"><ele>59.0</ele><time>2026-04-12T09:01:37.001Z</time></trkpt><trkpt lat="46.00108837625626" lon="12.920957398183642"><ele>59.0</ele><time>2026-04-12T09:01:38.001Z</time></trkpt><trkpt lat="46.000942474004866" lon="12.920924542134783"><ele>59.0</ele><time>2026-04-12T09:01:39.001Z</time></trkpt><trkpt lat="46.00080539036435" lon="12.920893435015579"><ele>58.6</ele><time>2026-04-12T09:01:40.001Z</time></trkpt><trkpt lat="46.00067973759474" lon="12.920853400216972"><ele>58.2</ele><time>2026-04-12T09:01:41.001Z</time></trkpt><trkpt lat="46.00057629495707" lon="12.920808878277343"><ele>57.800000000000004</ele><time>2026-04-12T09:01:42.001Z</time></trkpt><trkpt lat="46.00049046636161" lon="12.920771524325062"><ele>57.400000000000006</ele><time>2026-04-12T09:01:43.001Z</time></trkpt><trkpt lat="46.00041994774982" lon="12.920738917759719"><ele>57.0</ele><time>2026-04-12T09:01:44.001Z</time></trkpt><trkpt lat="46.00035379927219" lon="12.920719714543104"><ele>57.0</ele><time>2026-04-12T09:01:46.001Z</time></trkpt><trkpt lat="46.00028368264715" lon="12.920653658108321"><ele>57.0</ele><time>2026-04-12T09:03:07.001Z</time></trkpt><trkpt lat="46.00022883545939" lon="12.920595559754974"><ele>57.0</ele><time>2026-04-12T09:03:09.001Z</time></trkpt><trkpt lat="46.00022275609539" lon="12.92050018129483"><ele>57.0</ele><time>2026-04-12T09:04:32Z</time></trkpt><trkpt lat="46.00017253905582" lon="12.920404802453486"><ele>57.0</ele><time>2026-04-12T09:04:35Z</time></trkpt><trkpt lat="46.00009710820362" lon="12.920351071994018"><ele>57.0</ele><time>2026-04-12T09:04:37Z</time></trkpt><trkpt lat="46.00000012605879" lon="12.92032331028168"><ele>57.0</ele><time>2026-04-12T09:04:39Z</time></trkpt><trkpt lat="45.99989748304994" lon="12.920296776002656"><ele>57.0</ele><time>2026-04-12T09:04:41Z</time></trkpt><trkpt lat="45.999765940770445" lon="12.920281858398624"><ele>57.0</ele><time>2026-04-12T09:04:43Z</time></trkpt><trkpt lat="45.99964130291828" lon="12.920266610721322"><ele>57.0</ele><time>2026-04-12T09:04:45Z</time></trkpt><trkpt lat="45.999572169552366" lon="12.920260960502649"><ele>57.0</ele><time>2026-04-12T09:04:46Z</time></trkpt><trkpt lat="45.999506453949756" lon="12.920256905874846"><ele>57.0</ele><time>2026-04-12T09:04:47Z</time></trkpt><trkpt lat="45.99938099560344" lon="12.920224345858763"><ele>57.0</ele><time>2026-04-12T09:04:49Z</time></trkpt><trkpt lat="45.99926715757007" lon="12.920178902490754"><ele>57.0</ele><time>2026-04-12T09:04:51Z</time></trkpt><trkpt lat="45.99915056706843" lon="12.920113831899577"><ele>57.0</ele><time>2026-04-12T09:04:53Z</time></trkpt><trkpt lat="45.999054000244286" lon="12.920070927268313"><ele>57.0</ele><time>2026-04-12T09:04:55.001Z</time></trkpt><trkpt lat="45.99899225989584" lon="12.920024128559804"><ele>57.0</ele><time>2026-04-12T09:05:15.001Z</time></trkpt><trkpt lat="45.99894425416572" lon="12.91985982041251"><ele>57.0</ele><time>2026-04-12T09:05:17.001Z</time></trkpt><trkpt lat="45.99890231394966" lon="12.919693547965647"><ele>57.0</ele><time>2026-04-12T09:05:19.001Z</time></trkpt><trkpt lat="45.998881141690696" lon="12.919599103308377"><ele>57.0</ele><time>2026-04-12T09:05:20.001Z</time></trkpt><trkpt lat="45.998865487970626" lon="12.919492964868567"><ele>57.0</ele><time>2026-04-12T09:05:21.001Z</time></trkpt><trkpt lat="45.99884641211042" lon="12.919331096924347"><ele>57.0</ele><time>2026-04-12T09:05:23.001Z</time></trkpt><trkpt lat="45.998839332475754" lon="12.919240999886364"><ele>57.0</ele><time>2026-04-12T09:05:24.001Z</time></trkpt><trkpt lat="45.99883291483382" lon="12.919137917249516"><ele>57.0</ele><time>2026-04-12T09:05:25.001Z</time></trkpt><trkpt lat="45.998825248816686" lon="12.919036248633427"><ele>57.0</ele><time>2026-04-12T09:05:26.001Z</time></trkpt><trkpt lat="45.99882016872516" lon="12.918934700932661"><ele>57.0</ele><time>2026-04-12T09:05:27.001Z</time></trkpt><trkpt lat="45.998808574782494" lon="12.918764234686536"><ele>57.0</ele><time>2026-04-12T09:05:29.001Z</time></trkpt><trkpt lat="45.99877975503702" lon="12.918594875388582"><ele>57.0</ele><time>2026-04-12T09:05:31.001Z</time></trkpt><trkpt lat="45.998752782958505" lon="12.91849526882588"><ele>57.0</ele><time>2026-04-12T09:05:32.001Z</time></trkpt><trkpt lat="45.99873348498686" lon="12.918407104376968"><ele>57.0</ele><time>2026-04-12T09:05:33.001Z</time></trkpt><trkpt lat="45.99870848630597" lon="12.918240310775031"><ele>57.0</ele><time>2026-04-12T09:05:35.001Z</time></trkpt><trkpt lat="45.99869174974032" lon="12.918099979366627"><ele>57.166666666666664</ele><time>2026-04-12T09:05:37.001Z</time></trkpt><trkpt lat="45.998683015763426" lon="12.917976442524546"><ele>57.33333333333333</ele><time>2026-04-12T09:05:39.001Z</time></trkpt><trkpt lat="45.99867166155155" lon="12.917803483822693"><ele>57.5</ele><time>2026-04-12T09:05:41.001Z</time></trkpt><trkpt lat="45.99865827733213" lon="12.917707001180485"><ele>57.666666666666664</ele><time>2026-04-12T09:05:42.001Z</time></trkpt><trkpt lat="45.99864337630414" lon="12.917610385711185"><ele>57.83333333333333</ele><time>2026-04-12T09:05:43.001Z</time></trkpt><trkpt lat="45.99862697480422" lon="12.917474073106028"><ele>58.0</ele><time>2026-04-12T09:05:45.001Z</time></trkpt><trkpt lat="45.99860114456805" lon="12.917326482815671"><ele>57.599999999999994</ele><time>2026-04-12T09:05:47.001Z</time></trkpt><trkpt lat="45.99858890469878" lon="12.917233173283398"><ele>57.199999999999996</ele><time>2026-04-12T09:05:48.001Z</time></trkpt><trkpt lat="45.99856719948936" lon="12.917065276081393"><ele>56.8</ele><time>2026-04-12T09:05:50.001Z</time></trkpt><trkpt lat="45.99857141359402" lon="12.91694875091987"><ele>56.4</ele><time>2026-04-12T09:05:52.001Z</time></trkpt><trkpt lat="45.99861892984571" lon="12.916830906363353"><ele>56.0</ele><time>2026-04-12T09:05:54.001Z</time></trkpt><trkpt lat="45.998669794605796" lon="12.916704989037148"><ele>55.599999999999994</ele><time>2026-04-12T09:05:56.001Z</time></trkpt><trkpt lat="45.99868502089588" lon="12.916576547885054"><ele>55.199999999999996</ele><time>2026-04-12T09:05:58.001Z</time></trkpt><trkpt lat="45.99869175136088" lon="12.91642896001406"><ele>54.800000000000004</ele><time>2026-04-12T09:06:00.001Z</time></trkpt><trkpt lat="45.99869951664474" lon="12.916304785022575"><ele>54.400000000000006</ele><time>2026-04-12T09:06:02.001Z</time></trkpt><trkpt lat="45.99869762241686" lon="12.91611895212099"><ele>54.0</ele><time>2026-04-12T09:06:04.001Z</time></trkpt><trkpt lat="45.99869817924759" lon="12.916026370228172"><ele>54.0</ele><time>2026-04-12T09:06:05.001Z</time></trkpt><trkpt lat="45.99869683336499" lon="12.915933686608751"><ele>54.0</ele><time>2026-04-12T09:06:06.001Z</time></trkpt><trkpt lat="45.998701207470354" lon="12.915833223424466"><ele>54.0</ele><time>2026-04-12T09:06:07.001Z</time></trkpt><trkpt lat="45.99870751707331" lon="12.91573441465006"><ele>54.0</ele><time>2026-04-12T09:06:08.001Z</time></trkpt><trkpt lat="45.99871573430117" lon="12.915633627050711"><ele>54.0</ele><time>2026-04-12T09:06:09.001Z</time></trkpt><trkpt lat="45.99872759078521" lon="12.91546444171464"><ele>54.0</ele><time>2026-04-12T09:06:11.001Z</time></trkpt><trkpt lat="45.99868631903555" lon="12.915288029927556"><ele>54.2</ele><time>2026-04-12T09:06:13Z</time></trkpt><trkpt lat="45.99866567010954" lon="12.915183366407543"><ele>54.400000000000006</ele><time>2026-04-12T09:06:14Z</time></trkpt><trkpt lat="45.99863462355764" lon="12.915089087616252"><ele>54.6</ele><time>2026-04-12T09:06:15Z</time></trkpt><trkpt lat="45.998604609101164" lon="12.914988594265143"><ele>54.8</ele><time>2026-04-12T09:06:16Z</time></trkpt><trkpt lat="45.99853509722381" lon="12.914838398351698"><ele>55.0</ele><time>2026-04-12T09:06:18Z</time></trkpt><trkpt lat="45.99844949356912" lon="12.91470754592948"><ele>55.0</ele><time>2026-04-12T09:06:20Z</time></trkpt><trkpt lat="45.998400338820424" lon="12.914580301701982"><ele>55.0</ele><time>2026-04-12T09:06:22Z</time></trkpt><trkpt lat="45.998382467731155" lon="12.914417737760754"><ele>55.0</ele><time>2026-04-12T09:06:24Z</time></trkpt><trkpt lat="45.99838332459806" lon="12.914257722943917"><ele>55.0</ele><time>2026-04-12T09:06:26Z</time></trkpt><trkpt lat="45.99838676532488" lon="12.914147118063818"><ele>55.0</ele><time>2026-04-12T09:06:29Z</time></trkpt><trkpt lat="45.99838600414892" lon="12.914028279000632"><ele>54.8</ele><time>2026-04-12T09:06:31Z</time></trkpt><trkpt lat="45.99839809541678" lon="12.913887410796992"><ele>54.6</ele><time>2026-04-12T09:06:33Z</time></trkpt><trkpt lat="45.99839952597536" lon="12.91372609616258"><ele>54.400000000000006</ele><time>2026-04-12T09:06:35Z</time></trkpt><trkpt lat="45.99840013906266" lon="12.913524611781686"><ele>54.2</ele><time>2026-04-12T09:06:37Z</time></trkpt><trkpt lat="45.998401514199784" lon="12.913416832204033"><ele>54.0</ele><time>2026-04-12T09:06:38Z</time></trkpt><trkpt lat="45.99840733474262" lon="12.913324023810711"><ele>54.0</ele><time>2026-04-12T09:06:39Z</time></trkpt><trkpt lat="45.998426146388645" lon="12.91317459041014"><ele>54.00000000000001</ele><time>2026-04-12T09:06:41Z</time></trkpt><trkpt lat="45.998445533808905" lon="12.91303335292066"><ele>54.00000000000001</ele><time>2026-04-12T09:06:43Z</time></trkpt><trkpt lat="45.998494181778455" lon="12.91291678571243"><ele>54.0</ele><time>2026-04-12T09:06:45Z</time></trkpt><trkpt lat="45.9985148486702" lon="12.912808554374383"><ele>54.0</ele><time>2026-04-12T09:06:48Z</time></trkpt><trkpt lat="45.99854731512439" lon="12.912661334698173"><ele>54.166666666666664</ele><time>2026-04-12T09:06:50Z</time></trkpt><trkpt lat="45.99858050065774" lon="12.912542532870102"><ele>54.33333333333333</ele><time>2026-04-12T09:06:52Z</time></trkpt><trkpt lat="45.99860403882448" lon="12.91237914408427"><ele>54.5</ele><time>2026-04-12T09:06:54Z</time></trkpt><trkpt lat="45.99862070233729" lon="12.912288744107872"><ele>54.666666666666664</ele><time>2026-04-12T09:06:55Z</time></trkpt><trkpt lat="45.99863601315722" lon="12.91219863935916"><ele>54.83333333333333</ele><time>2026-04-12T09:06:56Z</time></trkpt><trkpt lat="45.998656619312634" lon="12.912047958180038"><ele>55.0</ele><time>2026-04-12T09:06:58Z</time></trkpt><trkpt lat="45.9986768464514" lon="12.911883178543164"><ele>54.99999999999999</ele><time>2026-04-12T09:07:00Z</time></trkpt><trkpt lat="45.99867999491745" lon="12.911786987848714"><ele>55.0</ele><time>2026-04-12T09:07:01Z</time></trkpt><trkpt lat="45.99868610086822" lon="12.911637023255812"><ele>55.0</ele><time>2026-04-12T09:07:03Z</time></trkpt><trkpt lat="45.998691867892575" lon="12.911475610995328"><ele>55.0</ele><time>2026-04-12T09:07:05Z</time></trkpt><trkpt lat="45.99869329144097" lon="12.911377242836702"><ele>54.99999999999999</ele><time>2026-04-12T09:07:06Z</time></trkpt><trkpt lat="45.99869684724471" lon="12.911242988548974"><ele>55.0</ele><time>2026-04-12T09:07:08Z</time></trkpt><trkpt lat="45.99869487674469" lon="12.911150903161413"><ele>55.0</ele><time>2026-04-12T09:07:09Z</time></trkpt><trkpt lat="45.998682650577685" lon="12.911010771656503"><ele>55.0</ele><time>2026-04-12T09:07:11Z</time></trkpt><trkpt lat="45.99866947019164" lon="12.910863360407856"><ele>55.0</ele><time>2026-04-12T09:07:13Z</time></trkpt><trkpt lat="45.9986554044905" lon="12.910683740133171"><ele>55.0</ele><time>2026-04-12T09:07:15Z</time></trkpt><trkpt lat="45.99864443658234" lon="12.910492120361962"><ele>55.2</ele><time>2026-04-12T09:07:17Z</time></trkpt><trkpt lat="45.99862786795305" lon="12.910393838446007"><ele>55.4</ele><time>2026-04-12T09:07:18Z</time></trkpt><trkpt lat="45.99860219752357" lon="12.910230603202399"><ele>55.599999999999994</ele><time>2026-04-12T09:07:20.001Z</time></trkpt><trkpt lat="45.99857564967881" lon="12.910062077204094"><ele>55.8</ele><time>2026-04-12T09:07:22.001Z</time></trkpt><trkpt lat="45.998542090324065" lon="12.909910445540804"><ele>56.0</ele><time>2026-04-12T09:07:24.001Z</time></trkpt><trkpt lat="45.9985208994357" lon="12.909807498166273"><ele>56.0</ele><time>2026-04-12T09:07:25.001Z</time></trkpt><trkpt lat="45.998474810713105" lon="12.909628101378953"><ele>55.99999999999999</ele><time>2026-04-12T09:07:27.001Z</time></trkpt><trkpt lat="45.99844991310988" lon="12.909447012747675"><ele>55.99999999999999</ele><time>2026-04-12T09:07:29.001Z</time></trkpt><trkpt lat="45.99843691133419" lon="12.909326446135212"><ele>56.0</ele><time>2026-04-12T09:07:30.001Z</time></trkpt><trkpt lat="45.99842542512189" lon="12.90923365345198"><ele>56.0</ele><time>2026-04-12T09:07:31.001Z</time></trkpt><trkpt lat="45.998412218202176" lon="12.909138937827999"><ele>55.833333333333336</ele><time>2026-04-12T09:07:32.001Z</time></trkpt><trkpt lat="45.99839880111829" lon="12.909041572491686"><ele>55.66666666666667</ele><time>2026-04-12T09:07:33.001Z</time></trkpt><trkpt lat="45.99838401661336" lon="12.908953232693209"><ele>55.5</ele><time>2026-04-12T09:07:34.001Z</time></trkpt><trkpt lat="45.99836981784186" lon="12.908864495159193"><ele>55.33333333333333</ele><time>2026-04-12T09:07:35.001Z</time></trkpt><trkpt lat="45.99834162209175" lon="12.908696405825717"><ele>55.166666666666664</ele><time>2026-04-12T09:07:37.001Z</time></trkpt><trkpt lat="45.998339667191445" lon="12.908571642754124"><ele>55.0</ele><time>2026-04-12T09:07:39.001Z</time></trkpt><trkpt lat="45.9983525017951" lon="12.908400681524318"><ele>55.0</ele><time>2026-04-12T09:07:41.001Z</time></trkpt><trkpt lat="45.99835364080684" lon="12.908241095286455"><ele>55.0</ele><time>2026-04-12T09:07:43.001Z</time></trkpt><trkpt lat="45.99835822753084" lon="12.908096156025222"><ele>55.0</ele><time>2026-04-12T09:07:45.001Z</time></trkpt><trkpt lat="45.99834702717961" lon="12.90792940953375"><ele>55.0</ele><time>2026-04-12T09:07:47.001Z</time></trkpt><trkpt lat="45.9983580873536" lon="12.907801950065787"><ele>55.0</ele><time>2026-04-12T09:07:49.001Z</time></trkpt><trkpt lat="45.99837540870285" lon="12.907704020963976"><ele>55.0</ele><time>2026-04-12T09:07:51.001Z</time></trkpt><trkpt lat="45.99842630084013" lon="12.907579728484572"><ele>55.0</ele><time>2026-04-12T09:07:53.001Z</time></trkpt><trkpt lat="45.9984720583287" lon="12.907506905533365"><ele>55.0</ele><time>2026-04-12T09:07:54.001Z</time></trkpt><trkpt lat="45.998546212824195" lon="12.907386968001916"><ele>55.0</ele><time>2026-04-12T09:07:56.001Z</time></trkpt><trkpt lat="45.998618274363906" lon="12.907244415370553"><ele>55.0</ele><time>2026-04-12T09:07:58.001Z</time></trkpt><trkpt lat="45.99867091681411" lon="12.907130425294618"><ele>54.99999999999999</ele><time>2026-04-12T09:08:00.001Z</time></trkpt><trkpt lat="45.99871075891266" lon="12.907020585337817"><ele>55.0</ele><time>2026-04-12T09:08:03.001Z</time></trkpt><trkpt lat="45.998706900211396" lon="12.906926384349608"><ele>55.0</ele><time>2026-04-12T09:08:05.001Z</time></trkpt><trkpt lat="45.9986618666747" lon="12.90683836159438"><ele>55.0</ele><time>2026-04-12T09:08:07.001Z</time></trkpt><trkpt lat="45.99858276121241" lon="12.906812397655749"><ele>54.99999999999999</ele><time>2026-04-12T09:08:09.001Z</time></trkpt><trkpt lat="45.99848217205957" lon="12.906821797976626"><ele>55.0</ele><time>2026-04-12T09:08:11.001Z</time></trkpt><trkpt lat="45.998412678774194" lon="12.906816038162637"><ele>54.99999999999999</ele><time>2026-04-12T09:08:12.001Z</time></trkpt><trkpt lat="45.998340993228275" lon="12.906820604402828"><ele>55.0</ele><time>2026-04-12T09:08:13.001Z</time></trkpt><trkpt lat="45.998275614587286" lon="12.906820624878751"><ele>55.0</ele><time>2026-04-12T09:08:14.001Z</time></trkpt><trkpt lat="45.998151452152634" lon="12.9068119754904"><ele>55.0</ele><time>2026-04-12T09:08:16.001Z</time></trkpt><trkpt lat="45.99807349895462" lon="12.906813799797828"><ele>54.99999999999999</ele><time>2026-04-12T09:08:17.001Z</time></trkpt><trkpt lat="45.99800686254902" lon="12.906804929347427"><ele>55.0</ele><time>2026-04-12T09:08:18.001Z</time></trkpt><trkpt lat="45.99794182763309" lon="12.906799000045515"><ele>55.0</ele><time>2026-04-12T09:08:18.999Z</time></trkpt><trkpt lat="45.99783813286846" lon="12.906817678486947"><ele>55.0</ele><time>2026-04-12T09:08:20.999Z</time></trkpt><trkpt lat="45.99775973667746" lon="12.906831416250899"><ele>55.0</ele><time>2026-04-12T09:08:21.999Z</time></trkpt><trkpt lat="45.99766179827799" lon="12.906840341092376"><ele>55.0</ele><time>2026-04-12T09:08:22.999Z</time></trkpt><trkpt lat="45.99755426253513" lon="12.906843764903952"><ele>55.0</ele><time>2026-04-12T09:08:23.999Z</time></trkpt><trkpt lat="45.99745800757286" lon="12.906830762281169"><ele>55.0</ele><time>2026-04-12T09:08:24.999Z</time></trkpt><trkpt lat="45.997372372962644" lon="12.906811895903171"><ele>55.0</ele><time>2026-04-12T09:08:25.999Z</time></trkpt><trkpt lat="45.99728533203141" lon="12.906783714520317"><ele>55.0</ele><time>2026-04-12T09:08:26.999Z</time></trkpt><trkpt lat="45.99718744668182" lon="12.90674648054889"><ele>55.0</ele><time>2026-04-12T09:08:27.999Z</time></trkpt><trkpt lat="45.99708998168641" lon="12.906695848217538"><ele>55.0</ele><time>2026-04-12T09:08:28.999Z</time></trkpt><trkpt lat="45.99700393871514" lon="12.906639755835611"><ele>54.99999999999999</ele><time>2026-04-12T09:08:29.999Z</time></trkpt><trkpt lat="45.996927417158375" lon="12.90658046860868"><ele>55.0</ele><time>2026-04-12T09:08:30.999Z</time></trkpt><trkpt lat="45.99685647457128" lon="12.906523763890204"><ele>55.0</ele><time>2026-04-12T09:08:31.999Z</time></trkpt><trkpt lat="45.99680067479775" lon="12.906477297038666"><ele>55.0</ele><time>2026-04-12T09:08:32.999Z</time></trkpt><trkpt lat="45.99674410210822" lon="12.906435594423357"><ele>55.0</ele><time>2026-04-12T09:08:33.999Z</time></trkpt><trkpt lat="45.99668472161197" lon="12.906401615777426"><ele>54.99999999999999</ele><time>2026-04-12T09:08:34.999Z</time></trkpt><trkpt lat="45.99662202035051" lon="12.9063693200483"><ele>55.0</ele><time>2026-04-12T09:08:35.999Z</time></trkpt><trkpt lat="45.9964962895446" lon="12.906324265027706"><ele>55.0</ele><time>2026-04-12T09:08:37.999Z</time></trkpt><trkpt lat="45.9964112773815" lon="12.906294749366976"><ele>55.0</ele><time>2026-04-12T09:08:38.999Z</time></trkpt><trkpt lat="45.99633485805746" lon="12.906262784267383"><ele>55.0</ele><time>2026-04-12T09:08:39.999Z</time></trkpt><trkpt lat="45.996207005234595" lon="12.906202441282097"><ele>55.0</ele><time>2026-04-12T09:08:42Z</time></trkpt><trkpt lat="45.99612696540635" lon="12.906174953268161"><ele>55.0</ele><time>2026-04-12T09:08:43Z</time></trkpt><trkpt lat="45.99605663074004" lon="12.9061465054026"><ele>54.99999999999999</ele><time>2026-04-12T09:08:44Z</time></trkpt><trkpt lat="45.995990588594644" lon="12.9061069300657"><ele>55.0</ele><time>2026-04-12T09:08:45Z</time></trkpt><trkpt lat="45.995909913791515" lon="12.906065173885247"><ele>55.0</ele><time>2026-04-12T09:08:46Z</time></trkpt><trkpt lat="45.99581731668074" lon="12.906022122097106"><ele>55.0</ele><time>2026-04-12T09:08:47Z</time></trkpt><trkpt lat="45.99572640529016" lon="12.906000227866645"><ele>54.99999999999999</ele><time>2026-04-12T09:08:48Z</time></trkpt><trkpt lat="45.99563835720934" lon="12.90597884241025"><ele>55.0</ele><time>2026-04-12T09:08:49Z</time></trkpt><trkpt lat="45.99554973763677" lon="12.905968371974664"><ele>55.2</ele><time>2026-04-12T09:08:50Z</time></trkpt><trkpt lat="45.99547845679495" lon="12.905956677763259"><ele>55.4</ele><time>2026-04-12T09:08:51Z</time></trkpt><trkpt lat="45.99533892243746" lon="12.905912925101308"><ele>55.599999999999994</ele><time>2026-04-12T09:08:53Z</time></trkpt><trkpt lat="45.99524748964407" lon="12.90588146408767"><ele>55.8</ele><time>2026-04-12T09:08:54Z</time></trkpt><trkpt lat="45.995157465417" lon="12.905854462615098"><ele>56.0</ele><time>2026-04-12T09:08:55Z</time></trkpt><trkpt lat="45.99508457810885" lon="12.905817022282363"><ele>55.833333333333336</ele><time>2026-04-12T09:08:56Z</time></trkpt><trkpt lat="45.99500337706925" lon="12.905771057827845"><ele>55.66666666666667</ele><time>2026-04-12T09:08:57Z</time></trkpt><trkpt lat="45.99492958605307" lon="12.905712767223442"><ele>55.5</ele><time>2026-04-12T09:08:58Z</time></trkpt><trkpt lat="45.99486511701316" lon="12.905652115951192"><ele>55.33333333333333</ele><time>2026-04-12T09:08:59Z</time></trkpt><trkpt lat="45.99479409462558" lon="12.905594584827195"><ele>55.166666666666664</ele><time>2026-04-12T09:09:00Z</time></trkpt><trkpt lat="45.994694755187574" lon="12.905516327955759"><ele>55.0</ele><time>2026-04-12T09:09:01Z</time></trkpt><trkpt lat="45.99461001463992" lon="12.905442961472897"><ele>55.0</ele><time>2026-04-12T09:09:02Z</time></trkpt><trkpt lat="45.99453444565639" lon="12.905372945212138"><ele>55.0</ele><time>2026-04-12T09:09:03Z</time></trkpt><trkpt lat="45.99444190619271" lon="12.905303781244037"><ele>55.0</ele><time>2026-04-12T09:09:04Z</time></trkpt><trkpt lat="45.99435323029518" lon="12.905257591298778"><ele>55.0</ele><time>2026-04-12T09:09:05Z</time></trkpt><trkpt lat="45.99426026554905" lon="12.905227532840351"><ele>55.0</ele><time>2026-04-12T09:09:06Z</time></trkpt><trkpt lat="45.99417039139173" lon="12.905199827519631"><ele>55.0</ele><time>2026-04-12T09:09:07Z</time></trkpt><trkpt lat="45.994082464251" lon="12.905159834536414"><ele>55.0</ele><time>2026-04-12T09:09:08Z</time></trkpt><trkpt lat="45.99400651346295" lon="12.905139815802583"><ele>55.0</ele><time>2026-04-12T09:09:09Z</time></trkpt><trkpt lat="45.99389178472095" lon="12.905193753867765"><ele>55.0</ele><time>2026-04-12T09:09:11Z</time></trkpt><trkpt lat="45.993838062789735" lon="12.905268769939028"><ele>55.0</ele><time>2026-04-12T09:09:12Z</time></trkpt><trkpt lat="45.993786880943446" lon="12.905369261021193"><ele>54.99999999999999</ele><time>2026-04-12T09:09:13Z</time></trkpt><trkpt lat="45.99372913268373" lon="12.905433604631304"><ele>55.0</ele><time>2026-04-12T09:09:14Z</time></trkpt><trkpt lat="45.99366336904079" lon="12.90547137115495"><ele>55.0</ele><time>2026-04-12T09:09:15Z</time></trkpt><trkpt lat="45.99358996257077" lon="12.905495044098172"><ele>55.0</ele><time>2026-04-12T09:09:16Z</time></trkpt><trkpt lat="45.99350787082104" lon="12.905533361758819"><ele>54.99999999999999</ele><time>2026-04-12T09:09:17Z</time></trkpt><trkpt lat="45.99342042385768" lon="12.905554629181049"><ele>55.0</ele><time>2026-04-12T09:09:18Z</time></trkpt><trkpt lat="45.99334087606813" lon="12.905572469828346"><ele>54.99999999999999</ele><time>2026-04-12T09:09:19Z</time></trkpt><trkpt lat="45.99326419341042" lon="12.905571147286135"><ele>55.0</ele><time>2026-04-12T09:09:20Z</time></trkpt><trkpt lat="45.993184412946995" lon="12.905551159013475"><ele>55.0</ele><time>2026-04-12T09:09:21Z</time></trkpt><trkpt lat="45.993113236601445" lon="12.905529836363023"><ele>55.0</ele><time>2026-04-12T09:09:22Z</time></trkpt><trkpt lat="45.99303669485626" lon="12.90550700300313"><ele>54.99999999999999</ele><time>2026-04-12T09:09:23Z</time></trkpt><trkpt lat="45.99296157118944" lon="12.905476327810074"><ele>55.0</ele><time>2026-04-12T09:09:24Z</time></trkpt><trkpt lat="45.992865356806746" lon="12.905442440494932"><ele>55.0</ele><time>2026-04-12T09:09:25Z</time></trkpt><trkpt lat="45.992754491599506" lon="12.905421131922646"><ele>55.0</ele><time>2026-04-12T09:09:26Z</time></trkpt><trkpt lat="45.992683636660644" lon="12.905399630044416"><ele>55.0</ele><time>2026-04-12T09:09:27Z</time></trkpt><trkpt lat="45.9926059983355" lon="12.905344208292505"><ele>55.0</ele><time>2026-04-12T09:09:28Z</time></trkpt><trkpt lat="45.99252594014118" lon="12.90527089399571"><ele>55.0</ele><time>2026-04-12T09:09:29Z</time></trkpt><trkpt lat="45.99244540881183" lon="12.905182115223965"><ele>54.8</ele><time>2026-04-12T09:09:30Z</time></trkpt><trkpt lat="45.992370847972225" lon="12.905105212686344"><ele>54.6</ele><time>2026-04-12T09:09:31.001Z</time></trkpt><trkpt lat="45.99227788481514" lon="12.90502880768725"><ele>54.400000000000006</ele><time>2026-04-12T09:09:32.001Z</time></trkpt><trkpt lat="45.99217090974198" lon="12.904953107163736"><ele>54.2</ele><time>2026-04-12T09:09:33.001Z</time></trkpt><trkpt lat="45.99206202506247" lon="12.90487897894273"><ele>54.0</ele><time>2026-04-12T09:09:34.001Z</time></trkpt><trkpt lat="45.991966564002354" lon="12.904822743996228"><ele>54.0</ele><time>2026-04-12T09:09:35.001Z</time></trkpt><trkpt lat="45.99186940686752" lon="12.904773348277246"><ele>54.00000000000001</ele><time>2026-04-12T09:09:36.001Z</time></trkpt><trkpt lat="45.99177074167903" lon="12.904743130351026"><ele>54.00000000000001</ele><time>2026-04-12T09:09:37.001Z</time></trkpt><trkpt lat="45.99168709148356" lon="12.904736756835476"><ele>54.0</ele><time>2026-04-12T09:09:38.001Z</time></trkpt><trkpt lat="45.99161682437626" lon="12.904727530440631"><ele>54.0</ele><time>2026-04-12T09:09:40.001Z</time></trkpt><trkpt lat="45.99164319863368" lon="12.904590651319369"><ele>54.0</ele><time>2026-04-12T09:09:43.001Z</time></trkpt><trkpt lat="45.99168298415551" lon="12.904499177320144"><ele>54.00000000000001</ele><time>2026-04-12T09:09:44.001Z</time></trkpt><trkpt lat="45.99172466573786" lon="12.904386852232617"><ele>54.00000000000001</ele><time>2026-04-12T09:09:45.001Z</time></trkpt><trkpt lat="45.991743912885376" lon="12.904282670619397"><ele>54.0</ele><time>2026-04-12T09:09:46.001Z</time></trkpt><trkpt lat="45.99173031021934" lon="12.904147854479278"><ele>54.0</ele><time>2026-04-12T09:09:47.001Z</time></trkpt><trkpt lat="45.991700118993776" lon="12.9039805682275"><ele>54.0</ele><time>2026-04-12T09:09:48.001Z</time></trkpt><trkpt lat="45.99167542848917" lon="12.903827292060363"><ele>54.00000000000001</ele><time>2026-04-12T09:09:49.001Z</time></trkpt><trkpt lat="45.991652561644976" lon="12.903684122798728"><ele>54.00000000000001</ele><time>2026-04-12T09:09:50.001Z</time></trkpt><trkpt lat="45.99161175589831" lon="12.903543330930273"><ele>54.0</ele><time>2026-04-12T09:09:51.001Z</time></trkpt><trkpt lat="45.99155945317643" lon="12.903416382885176"><ele>54.0</ele><time>2026-04-12T09:09:52.001Z</time></trkpt><trkpt lat="45.991504789301175" lon="12.903291701796443"><ele>54.0</ele><time>2026-04-12T09:09:53.001Z</time></trkpt><trkpt lat="45.99143776191276" lon="12.903158145571576"><ele>54.0</ele><time>2026-04-12T09:09:54.001Z</time></trkpt><trkpt lat="45.991359641836766" lon="12.903024531149619"><ele>54.0</ele><time>2026-04-12T09:09:55.001Z</time></trkpt><trkpt lat="45.991281683302304" lon="12.902905467387349"><ele>54.0</ele><time>2026-04-12T09:09:56.001Z</time></trkpt><trkpt lat="45.991198743781005" lon="12.90278893081314"><ele>54.0</ele><time>2026-04-12T09:09:57.001Z</time></trkpt><trkpt lat="45.99109785375147" lon="12.902674789003315"><ele>54.00000000000001</ele><time>2026-04-12T09:09:58.001Z</time></trkpt><trkpt lat="45.99101144885123" lon="12.902585203347982"><ele>54.00000000000001</ele><time>2026-04-12T09:09:59.001Z</time></trkpt><trkpt lat="45.99093864362552" lon="12.902494218107163"><ele>54.0</ele><time>2026-04-12T09:10:00.001Z</time></trkpt><trkpt lat="45.99088383356131" lon="12.902400365794849"><ele>54.0</ele><time>2026-04-12T09:10:01.001Z</time></trkpt><trkpt lat="45.99082691262658" lon="12.902290347677996"><ele>53.833333333333336</ele><time>2026-04-12T09:10:02.001Z</time></trkpt><trkpt lat="45.99076937489441" lon="12.902178563980364"><ele>53.66666666666667</ele><time>2026-04-12T09:10:03.001Z</time></trkpt><trkpt lat="45.990719717304" lon="12.902075072785475"><ele>53.5</ele><time>2026-04-12T09:10:04.001Z</time></trkpt><trkpt lat="45.99067135216188" lon="12.901981236711283"><ele>53.333333333333336</ele><time>2026-04-12T09:10:05.001Z</time></trkpt><trkpt lat="45.99063504736737" lon="12.90190394734115"><ele>53.16666666666667</ele><time>2026-04-12T09:10:06.001Z</time></trkpt><trkpt lat="45.990561541395785" lon="12.901844341166857"><ele>53.0</ele><time>2026-04-12T09:10:45.999Z</time></trkpt><trkpt lat="45.99049831334092" lon="12.90180287208093"><ele>53.0</ele><time>2026-04-12T09:10:46.999Z</time></trkpt><trkpt lat="45.99041354190928" lon="12.901756741510559"><ele>53.0</ele><time>2026-04-12T09:10:48Z</time></trkpt><trkpt lat="45.99033190325327" lon="12.901651015557293"><ele>53.0</ele><time>2026-04-12T09:10:49Z</time></trkpt><trkpt lat="45.990230650992224" lon="12.901599452175793"><ele>53.0</ele><time>2026-04-12T09:10:50Z</time></trkpt><trkpt lat="45.99014336881083" lon="12.901555003182082"><ele>53.0</ele><time>2026-04-12T09:10:51Z</time></trkpt><trkpt lat="45.990062611224275" lon="12.90151387687205"><ele>53.333333333333336</ele><time>2026-04-12T09:10:52Z</time></trkpt><trkpt lat="45.9899874774013" lon="12.90147687089604"><ele>53.66666666666667</ele><time>2026-04-12T09:10:53Z</time></trkpt><trkpt lat="45.98991439361701" lon="12.901441953164557"><ele>54.0</ele><time>2026-04-12T09:10:54Z</time></trkpt><trkpt lat="45.98984240431482" lon="12.901409725733352"><ele>54.33333333333333</ele><time>2026-04-12T09:10:55Z</time></trkpt><trkpt lat="45.98976616658767" lon="12.901377838479478"><ele>54.666666666666664</ele><time>2026-04-12T09:10:56Z</time></trkpt><trkpt lat="45.98968203014012" lon="12.901345211162091"><ele>55.0</ele><time>2026-04-12T09:10:57Z</time></trkpt><trkpt lat="45.98960296387729" lon="12.901318093055732"><ele>54.99999999999999</ele><time>2026-04-12T09:10:58Z</time></trkpt><trkpt lat="45.9895238379153" lon="12.901294158475949"><ele>55.0</ele><time>2026-04-12T09:10:59Z</time></trkpt><trkpt lat="45.98944606287341" lon="12.901272018750143"><ele>55.0</ele><time>2026-04-12T09:11:00Z</time></trkpt><trkpt lat="45.98936886406669" lon="12.901252201418457"><ele>55.0</ele><time>2026-04-12T09:11:01Z</time></trkpt><trkpt lat="45.989288872689976" lon="12.901231986000003"><ele>54.99999999999999</ele><time>2026-04-12T09:11:02Z</time></trkpt><trkpt lat="45.98920818081419" lon="12.901211871310867"><ele>55.0</ele><time>2026-04-12T09:11:03Z</time></trkpt><trkpt lat="45.98913556951213" lon="12.901193770937507"><ele>54.71428571428571</ele><time>2026-04-12T09:11:04Z</time></trkpt><trkpt lat="45.98905943840271" lon="12.90117378791785"><ele>54.42857142857143</ele><time>2026-04-12T09:11:05Z</time></trkpt><trkpt lat="45.988986510796934" lon="12.901153180853273"><ele>54.14285714285714</ele><time>2026-04-12T09:11:06Z</time></trkpt><trkpt lat="45.98891487112152" lon="12.901129905667934"><ele>53.857142857142854</ele><time>2026-04-12T09:11:07Z</time></trkpt><trkpt lat="45.988845916208305" lon="12.901104859912186"><ele>53.57142857142857</ele><time>2026-04-12T09:11:08Z</time></trkpt><trkpt lat="45.988774270670504" lon="12.90107590143938"><ele>53.285714285714285</ele><time>2026-04-12T09:11:09Z</time></trkpt><trkpt lat="45.988708275674824" lon="12.90104439660526"><ele>53.0</ele><time>2026-04-12T09:11:10Z</time></trkpt><trkpt lat="45.988639641862505" lon="12.901003228487616"><ele>53.0</ele><time>2026-04-12T09:11:11Z</time></trkpt><trkpt lat="45.988566142664055" lon="12.900947438753208"><ele>53.0</ele><time>2026-04-12T09:11:12Z</time></trkpt><trkpt lat="45.988483700725034" lon="12.900874500863704"><ele>53.0</ele><time>2026-04-12T09:11:13Z</time></trkpt><trkpt lat="45.988392036375544" lon="12.90079681994835"><ele>53.0</ele><time>2026-04-12T09:11:14Z</time></trkpt><trkpt lat="45.98830573477014" lon="12.9006994825308"><ele>53.0</ele><time>2026-04-12T09:11:15Z</time></trkpt><trkpt lat="45.98822699688389" lon="12.900579986544415"><ele>53.25</ele><time>2026-04-12T09:11:16Z</time></trkpt><trkpt lat="45.98813219742151" lon="12.90048138809668"><ele>53.5</ele><time>2026-04-12T09:11:17Z</time></trkpt><trkpt lat="45.98802197514076" lon="12.900399586316734"><ele>53.75</ele><time>2026-04-12T09:11:18Z</time></trkpt><trkpt lat="45.98790414921642" lon="12.900353468738642"><ele>54.0</ele><time>2026-04-12T09:11:19Z</time></trkpt><trkpt lat="45.98779746635876" lon="12.900275238367223"><ele>54.0</ele><time>2026-04-12T09:11:20Z</time></trkpt><trkpt lat="45.98767012226313" lon="12.900236546614947"><ele>54.0</ele><time>2026-04-12T09:11:21Z</time></trkpt><trkpt lat="45.98752348934489" lon="12.900182941348266"><ele>54.0</ele><time>2026-04-12T09:11:22Z</time></trkpt><trkpt lat="45.987379603682626" lon="12.90013627220562"><ele>54.0</ele><time>2026-04-12T09:11:23Z</time></trkpt><trkpt lat="45.987261609227424" lon="12.90009398456562"><ele>53.666666666666664</ele><time>2026-04-12T09:11:24Z</time></trkpt><trkpt lat="45.98716172610888" lon="12.900070755597255"><ele>53.33333333333333</ele><time>2026-04-12T09:11:25Z</time></trkpt><trkpt lat="45.98708059646499" lon="12.90003985484612"><ele>53.0</ele><time>2026-04-12T09:11:26Z</time></trkpt><trkpt lat="45.98701455893402" lon="12.900022938933242"><ele>52.666666666666664</ele><time>2026-04-12T09:11:27Z</time></trkpt><trkpt lat="45.98695153839994" lon="12.900006806801985"><ele>52.33333333333333</ele><time>2026-04-12T09:11:29.001Z</time></trkpt><trkpt lat="45.98701408191086" lon="12.900017612323085"><ele>52.0</ele><time>2026-04-12T09:11:35.001Z</time></trkpt><trkpt lat="45.98709483724749" lon="12.900033112620914"><ele>52.0</ele><time>2026-04-12T09:11:36.001Z</time></trkpt><trkpt lat="45.987187013663785" lon="12.900102755631085"><ele>52.0</ele><time>2026-04-12T09:11:37.001Z</time></trkpt><trkpt lat="45.98727745221363" lon="12.900118010770303"><ele>52.0</ele><time>2026-04-12T09:11:38.001Z</time></trkpt><trkpt lat="45.98738534658525" lon="12.900144350600915"><ele>52.0</ele><time>2026-04-12T09:11:39.001Z</time></trkpt><trkpt lat="45.98751314750882" lon="12.900177558160918"><ele>52.0</ele><time>2026-04-12T09:11:40.001Z</time></trkpt><trkpt lat="45.9876482849194" lon="12.900215303119353"><ele>52.5</ele><time>2026-04-12T09:11:41.001Z</time></trkpt><trkpt lat="45.98776501619511" lon="12.900312685335205"><ele>53.0</ele><time>2026-04-12T09:11:42.001Z</time></trkpt><trkpt lat="45.987886273557024" lon="12.900370478010244"><ele>53.5</ele><time>2026-04-12T09:11:43.001Z</time></trkpt><trkpt lat="45.988007437303715" lon="12.900442553030222"><ele>54.0</ele><time>2026-04-12T09:11:44.001Z</time></trkpt><trkpt lat="45.98811807851872" lon="12.900525924131468"><ele>54.0</ele><time>2026-04-12T09:11:45.001Z</time></trkpt><trkpt lat="45.98821801162177" lon="12.90062721385878"><ele>54.0</ele><time>2026-04-12T09:11:46.001Z</time></trkpt><trkpt lat="45.98830864696222" lon="12.900737205273757"><ele>54.0</ele><time>2026-04-12T09:11:47.001Z</time></trkpt><trkpt lat="45.98840161961492" lon="12.900847283523168"><ele>54.0</ele><time>2026-04-12T09:11:48.001Z</time></trkpt><trkpt lat="45.98849822257639" lon="12.900945396196736"><ele>53.75</ele><time>2026-04-12T09:11:49.001Z</time></trkpt><trkpt lat="45.98861273831418" lon="12.901024104972096"><ele>53.5</ele><time>2026-04-12T09:11:50.001Z</time></trkpt><trkpt lat="45.988735397208124" lon="12.901104649468845"><ele>53.25</ele><time>2026-04-12T09:11:51.001Z</time></trkpt><trkpt lat="45.98887024292987" lon="12.901167300650206"><ele>53.0</ele><time>2026-04-12T09:11:52.001Z</time></trkpt><trkpt lat="45.989010529981606" lon="12.901211316292192"><ele>53.0</ele><time>2026-04-12T09:11:53.001Z</time></trkpt><trkpt lat="45.98915845618119" lon="12.901243929168393"><ele>53.0</ele><time>2026-04-12T09:11:54.001Z</time></trkpt><trkpt lat="45.98930865770321" lon="12.90128281849328"><ele>53.0</ele><time>2026-04-12T09:11:55.001Z</time></trkpt><trkpt lat="45.989463380317595" lon="12.901311234503105"><ele>53.25</ele><time>2026-04-12T09:11:56.001Z</time></trkpt><trkpt lat="45.989609005897584" lon="12.901348555679048"><ele>53.5</ele><time>2026-04-12T09:11:57.001Z</time></trkpt><trkpt lat="45.98974516225961" lon="12.901418957453542"><ele>53.75</ele><time>2026-04-12T09:11:58.001Z</time></trkpt><trkpt lat="45.989892647720694" lon="12.901459575943518"><ele>54.0</ele><time>2026-04-12T09:11:59.001Z</time></trkpt><trkpt lat="45.99004141459882" lon="12.901547280498711"><ele>54.0</ele><time>2026-04-12T09:12:00.001Z</time></trkpt><trkpt lat="45.990203463692126" lon="12.90163599348432"><ele>54.0</ele><time>2026-04-12T09:12:01.001Z</time></trkpt><trkpt lat="45.99037722024872" lon="12.901720179922338"><ele>54.0</ele><time>2026-04-12T09:12:02.001Z</time></trkpt><trkpt lat="45.99053903538209" lon="12.901792982656236"><ele>53.75</ele><time>2026-04-12T09:12:03.001Z</time></trkpt><trkpt lat="45.99069172028412" lon="12.90185595640727"><ele>53.5</ele><time>2026-04-12T09:12:04.001Z</time></trkpt><trkpt lat="45.99082535069431" lon="12.90191223633822"><ele>53.25</ele><time>2026-04-12T09:12:05.001Z</time></trkpt><trkpt lat="45.99096289971552" lon="12.901975984506223"><ele>53.0</ele><time>2026-04-12T09:12:06.001Z</time></trkpt><trkpt lat="45.99110670437817" lon="12.902000901870903"><ele>53.66666666666667</ele><time>2026-04-12T09:12:07.001Z</time></trkpt><trkpt lat="45.991256740913485" lon="12.90201245357342"><ele>54.33333333333333</ele><time>2026-04-12T09:12:08.001Z</time></trkpt><trkpt lat="45.991412819378105" lon="12.902015070519676"><ele>55.0</ele><time>2026-04-12T09:12:09.001Z</time></trkpt><trkpt lat="45.99157143474337" lon="12.901995863997406"><ele>54.666666666666664</ele><time>2026-04-12T09:12:10.001Z</time></trkpt><trkpt lat="45.99173604134797" lon="12.901983629709141"><ele>54.33333333333333</ele><time>2026-04-12T09:12:11.001Z</time></trkpt><trkpt lat="45.99190754449785" lon="12.901961563632446"><ele>54.0</ele><time>2026-04-12T09:12:12.001Z</time></trkpt><trkpt lat="45.99207017705619" lon="12.90196324622772"><ele>54.0</ele><time>2026-04-12T09:12:13.001Z</time></trkpt><trkpt lat="45.992223791474366" lon="12.901947141040525"><ele>54.0</ele><time>2026-04-12T09:12:14.001Z</time></trkpt><trkpt lat="45.99237651285564" lon="12.90196703328734"><ele>54.0</ele><time>2026-04-12T09:12:15.001Z</time></trkpt><trkpt lat="45.99253937233624" lon="12.901997747876116"><ele>54.0</ele><time>2026-04-12T09:12:16.001Z</time></trkpt><trkpt lat="45.99270270705034" lon="12.902020894898342"><ele>54.0</ele><time>2026-04-12T09:12:17.001Z</time></trkpt><trkpt lat="45.992862894130916" lon="12.902043851363615"><ele>54.0</ele><time>2026-04-12T09:12:18.001Z</time></trkpt><trkpt lat="45.993017476853524" lon="12.902072907415155"><ele>54.0</ele><time>2026-04-12T09:12:19.002Z</time></trkpt><trkpt lat="45.99316403325838" lon="12.90208908896563"><ele>54.0</ele><time>2026-04-12T09:12:20.002Z</time></trkpt><trkpt lat="45.99331133658344" lon="12.902083697064901"><ele>54.0</ele><time>2026-04-12T09:12:21.002Z</time></trkpt><trkpt lat="45.99346865342667" lon="12.902051783049744"><ele>54.33333333333333</ele><time>2026-04-12T09:12:22.002Z</time></trkpt><trkpt lat="45.993627949978816" lon="12.901995806550179"><ele>54.666666666666664</ele><time>2026-04-12T09:12:23.002Z</time></trkpt><trkpt lat="45.99379003455986" lon="12.901930061818092"><ele>55.0</ele><time>2026-04-12T09:12:24.002Z</time></trkpt><trkpt lat="45.99394669278167" lon="12.901876674812428"><ele>55.0</ele><time>2026-04-12T09:12:25.002Z</time></trkpt><trkpt lat="45.99410252644191" lon="12.901827025968473"><ele>55.0</ele><time>2026-04-12T09:12:26.002Z</time></trkpt><trkpt lat="45.994256517838984" lon="12.901792397915894"><ele>55.0</ele><time>2026-04-12T09:12:27.002Z</time></trkpt><trkpt lat="45.99441109393541" lon="12.901753480449717"><ele>55.33333333333333</ele><time>2026-04-12T09:12:28.002Z</time></trkpt><trkpt lat="45.994564963346924" lon="12.901728912832867"><ele>55.66666666666667</ele><time>2026-04-12T09:12:29.002Z</time></trkpt><trkpt lat="45.99472357592498" lon="12.901721504687085"><ele>56.0</ele><time>2026-04-12T09:12:30.002Z</time></trkpt><trkpt lat="45.99487745073792" lon="12.901726347602887"><ele>56.66666666666667</ele><time>2026-04-12T09:12:30.999Z</time></trkpt><trkpt lat="45.995030028412394" lon="12.901777834301042"><ele>57.33333333333333</ele><time>2026-04-12T09:12:31.999Z</time></trkpt><trkpt lat="45.99517287468025" lon="12.901820533798162"><ele>58.0</ele><time>2026-04-12T09:12:32.999Z</time></trkpt><trkpt lat="45.99531825568425" lon="12.901868969421391"><ele>58.0</ele><time>2026-04-12T09:12:33.999Z</time></trkpt><trkpt lat="45.9954591584691" lon="12.901915912845332"><ele>58.0</ele><time>2026-04-12T09:12:34.999Z</time></trkpt><trkpt lat="45.99561475897115" lon="12.901949261040818"><ele>58.0</ele><time>2026-04-12T09:12:35.999Z</time></trkpt><trkpt lat="45.99576821369672" lon="12.902008232768074"><ele>58.0</ele><time>2026-04-12T09:12:36.999Z</time></trkpt><trkpt lat="45.995909587099476" lon="12.902084794044557"><ele>58.0</ele><time>2026-04-12T09:12:37.999Z</time></trkpt><trkpt lat="45.99605309132207" lon="12.902147150753168"><ele>58.0</ele><time>2026-04-12T09:12:38.999Z</time></trkpt><trkpt lat="45.99620955037025" lon="12.902215138659528"><ele>58.0</ele><time>2026-04-12T09:12:39.999Z</time></trkpt><trkpt lat="45.9963537863564" lon="12.902279779181997"><ele>58.0</ele><time>2026-04-12T09:12:40.999Z</time></trkpt><trkpt lat="45.996478314079184" lon="12.902358367663295"><ele>58.0</ele><time>2026-04-12T09:12:41.999Z</time></trkpt><trkpt lat="45.99660284804109" lon="12.902468614575472"><ele>58.0</ele><time>2026-04-12T09:12:42.999Z</time></trkpt><trkpt lat="45.99675114538455" lon="12.902641019670439"><ele>58.33333333333333</ele><time>2026-04-12T09:12:43.999Z</time></trkpt><trkpt lat="45.996913677814796" lon="12.902841164564716"><ele>58.66666666666667</ele><time>2026-04-12T09:12:44.999Z</time></trkpt><trkpt lat="45.9970919556149" lon="12.903021182503734"><ele>59.0</ele><time>2026-04-12T09:12:46Z</time></trkpt><trkpt lat="45.997241063935476" lon="12.90319220371826"><ele>59.0</ele><time>2026-04-12T09:12:47Z</time></trkpt><trkpt lat="45.99740585070282" lon="12.90335623803862"><ele>59.0</ele><time>2026-04-12T09:12:48Z</time></trkpt><trkpt lat="45.99756970622905" lon="12.903514988099051"><ele>59.0</ele><time>2026-04-12T09:12:49Z</time></trkpt><trkpt lat="45.997712680869014" lon="12.903648750599473"><ele>58.5</ele><time>2026-04-12T09:12:50Z</time></trkpt><trkpt lat="45.99783049419161" lon="12.903765371473588"><ele>58.0</ele><time>2026-04-12T09:12:51Z</time></trkpt><trkpt lat="45.99793289804174" lon="12.903879751930772"><ele>57.5</ele><time>2026-04-12T09:12:52Z</time></trkpt><trkpt lat="45.99802539846024" lon="12.904007367216808"><ele>57.0</ele><time>2026-04-12T09:12:53Z</time></trkpt><trkpt lat="45.99812839133349" lon="12.904143931159457"><ele>56.75</ele><time>2026-04-12T09:12:54Z</time></trkpt><trkpt lat="45.99823786393064" lon="12.904253692422989"><ele>56.5</ele><time>2026-04-12T09:12:55Z</time></trkpt><trkpt lat="45.99834992049533" lon="12.9043240697465"><ele>56.25</ele><time>2026-04-12T09:12:56Z</time></trkpt><trkpt lat="45.99846450175629" lon="12.904370503159063"><ele>56.0</ele><time>2026-04-12T09:12:57Z</time></trkpt><trkpt lat="45.99857167085298" lon="12.904377576291866"><ele>56.0</ele><time>2026-04-12T09:12:58Z</time></trkpt><trkpt lat="45.998649317442634" lon="12.904399904890008"><ele>55.99999999999999</ele><time>2026-04-12T09:12:59Z</time></trkpt><trkpt lat="45.99872840195613" lon="12.904427752391856"><ele>55.99999999999999</ele><time>2026-04-12T09:13:01Z</time></trkpt><trkpt lat="45.99861763400767" lon="12.904389503976429"><ele>56.0</ele><time>2026-04-12T09:13:06Z</time></trkpt><trkpt lat="45.99852492887254" lon="12.904378082579269"><ele>56.0</ele><time>2026-04-12T09:13:07Z</time></trkpt><trkpt lat="45.99845864744002" lon="12.904283216812326"><ele>56.25</ele><time>2026-04-12T09:13:09Z</time></trkpt><trkpt lat="45.99847108750903" lon="12.904141300063888"><ele>56.5</ele><time>2026-04-12T09:13:11Z</time></trkpt><trkpt lat="45.998533373263385" lon="12.90394829579519"><ele>56.75</ele><time>2026-04-12T09:13:13Z</time></trkpt><trkpt lat="45.99858037760557" lon="12.903793954594482"><ele>57.0</ele><time>2026-04-12T09:13:14Z</time></trkpt><trkpt lat="45.99861196148283" lon="12.90363206322331"><ele>57.0</ele><time>2026-04-12T09:13:15Z</time></trkpt><trkpt lat="45.998639495688586" lon="12.903462244794039"><ele>57.0</ele><time>2026-04-12T09:13:16Z</time></trkpt><trkpt lat="45.998661871320394" lon="12.903300063045618"><ele>57.0</ele><time>2026-04-12T09:13:17Z</time></trkpt><trkpt lat="45.99868171126955" lon="12.903134384921215"><ele>57.0</ele><time>2026-04-12T09:13:18Z</time></trkpt><trkpt lat="45.99870267604394" lon="12.902976820484042"><ele>57.0</ele><time>2026-04-12T09:13:19Z</time></trkpt><trkpt lat="45.99872063913327" lon="12.902836202987757"><ele>57.0</ele><time>2026-04-12T09:13:20Z</time></trkpt><trkpt lat="45.99875081899089" lon="12.902692342940131"><ele>57.0</ele><time>2026-04-12T09:13:21Z</time></trkpt><trkpt lat="45.99878586913317" lon="12.902547654715471"><ele>57.0</ele><time>2026-04-12T09:13:22.001Z</time></trkpt><trkpt lat="45.99881150296479" lon="12.902396350412054"><ele>57.0</ele><time>2026-04-12T09:13:23.001Z</time></trkpt><trkpt lat="45.99882520636911" lon="12.902238311882664"><ele>57.0</ele><time>2026-04-12T09:13:24.001Z</time></trkpt><trkpt lat="45.99883242448648" lon="12.90207037989077"><ele>57.0</ele><time>2026-04-12T09:13:25.001Z</time></trkpt><trkpt lat="45.998840125970446" lon="12.90189313356315"><ele>57.0</ele><time>2026-04-12T09:13:26.001Z</time></trkpt><trkpt lat="45.99884669877787" lon="12.901704465724006"><ele>57.0</ele><time>2026-04-12T09:13:27.001Z</time></trkpt><trkpt lat="45.998854462672575" lon="12.901527429149116"><ele>57.0</ele><time>2026-04-12T09:13:28.001Z</time></trkpt><trkpt lat="45.99886521814184" lon="12.901351635403692"><ele>57.0</ele><time>2026-04-12T09:13:29.001Z</time></trkpt><trkpt lat="45.99887364146319" lon="12.90117216536929"><ele>57.0</ele><time>2026-04-12T09:13:30.001Z</time></trkpt><trkpt lat="45.99888222967216" lon="12.901007528756017"><ele>57.0</ele><time>2026-04-12T09:13:31.001Z</time></trkpt><trkpt lat="45.998886260162074" lon="12.900885280146436"><ele>57.0</ele><time>2026-04-12T09:13:32.001Z</time></trkpt><trkpt lat="45.998892337274654" lon="12.90077281069707"><ele>57.0</ele><time>2026-04-12T09:13:33.001Z</time></trkpt><trkpt lat="45.99889418614056" lon="12.9006290134085"><ele>57.0</ele><time>2026-04-12T09:13:35.001Z</time></trkpt><trkpt lat="45.99882584548664" lon="12.900522633117657"><ele>57.0</ele><time>2026-04-12T09:13:37.001Z</time></trkpt><trkpt lat="45.998722654671646" lon="12.9004458005694"><ele>57.0</ele><time>2026-04-12T09:13:39.001Z</time></trkpt><trkpt lat="45.9987225489291" lon="12.900254796547296"><ele>57.0</ele><time>2026-04-12T09:13:41.001Z</time></trkpt><trkpt lat="45.99874677820546" lon="12.900092582215368"><ele>57.400000000000006</ele><time>2026-04-12T09:13:42.001Z</time></trkpt><trkpt lat="45.99875825113323" lon="12.899880765001793"><ele>57.800000000000004</ele><time>2026-04-12T09:13:43.001Z</time></trkpt><trkpt lat="45.9987659842168" lon="12.899708825841403"><ele>58.2</ele><time>2026-04-12T09:13:44.001Z</time></trkpt><trkpt lat="45.99876962634775" lon="12.899576541072758"><ele>58.6</ele><time>2026-04-12T09:13:45.001Z</time></trkpt><trkpt lat="45.998775120471834" lon="12.899479455806743"><ele>59.0</ele><time>2026-04-12T09:13:46.001Z</time></trkpt><trkpt lat="45.99883550843994" lon="12.89940094843785"><ele>59.00000000000001</ele><time>2026-04-12T09:13:48.001Z</time></trkpt><trkpt lat="45.998914052409916" lon="12.899397342074726"><ele>59.0</ele><time>2026-04-12T09:13:49.001Z</time></trkpt><trkpt lat="45.99900617647066" lon="12.899413698908068"><ele>59.0</ele><time>2026-04-12T09:13:50.001Z</time></trkpt><trkpt lat="45.99910035858684" lon="12.899378314143547"><ele>59.0</ele><time>2026-04-12T09:13:52.001Z</time></trkpt><trkpt lat="45.999047791414725" lon="12.89927014646036"><ele>59.00000000000001</ele><time>2026-04-12T09:13:55.001Z</time></trkpt><trkpt lat="45.9989743090059" lon="12.899258043895543"><ele>59.0</ele><time>2026-04-12T09:13:56.001Z</time></trkpt><trkpt lat="45.99887778618349" lon="12.899256122979407"><ele>58.75</ele><time>2026-04-12T09:13:57.001Z</time></trkpt><trkpt lat="45.99880468622758" lon="12.899117115053215"><ele>58.5</ele><time>2026-04-12T09:13:59.001Z</time></trkpt><trkpt lat="45.99879922817393" lon="12.898971769256994"><ele>58.25</ele><time>2026-04-12T09:14:00.001Z</time></trkpt><trkpt lat="45.99881724985203" lon="12.898779144651034"><ele>58.0</ele><time>2026-04-12T09:14:01.001Z</time></trkpt><trkpt lat="45.99884117606869" lon="12.898551540179819"><ele>57.666666666666664</ele><time>2026-04-12T09:14:02.001Z</time></trkpt><trkpt lat="45.998860998479415" lon="12.89828183979278"><ele>57.33333333333333</ele><time>2026-04-12T09:14:03.001Z</time></trkpt><trkpt lat="45.99887709709449" lon="12.897983997539175"><ele>57.0</ele><time>2026-04-12T09:14:04.001Z</time></trkpt><trkpt lat="45.99889449949965" lon="12.8976750830484"><ele>57.0</ele><time>2026-04-12T09:14:05.001Z</time></trkpt><trkpt lat="45.998905933342414" lon="12.89741447948077"><ele>57.0</ele><time>2026-04-12T09:14:06.001Z</time></trkpt><trkpt lat="45.99892068544972" lon="12.897184331906564"><ele>57.0</ele><time>2026-04-12T09:14:07.001Z</time></trkpt><trkpt lat="45.998935408297534" lon="12.896972613026177"><ele>57.0</ele><time>2026-04-12T09:14:08.002Z</time></trkpt><trkpt lat="45.998947200749505" lon="12.896764867052484"><ele>57.0</ele><time>2026-04-12T09:14:09.002Z</time></trkpt><trkpt lat="45.99895877619379" lon="12.896553996215276"><ele>57.0</ele><time>2026-04-12T09:14:10.002Z</time></trkpt><trkpt lat="45.998971919602994" lon="12.896335737823485"><ele>57.0</ele><time>2026-04-12T09:14:11.002Z</time></trkpt><trkpt lat="45.99898343870244" lon="12.896112701064567"><ele>57.33333333333333</ele><time>2026-04-12T09:14:12.002Z</time></trkpt><trkpt lat="45.99901803054552" lon="12.89588577362086"><ele>57.666666666666664</ele><time>2026-04-12T09:14:13.002Z</time></trkpt><trkpt lat="45.99902905061395" lon="12.895654436831261"><ele>58.0</ele><time>2026-04-12T09:14:14.002Z</time></trkpt><trkpt lat="45.99904040968458" lon="12.89542292363071"><ele>58.0</ele><time>2026-04-12T09:14:15.002Z</time></trkpt><trkpt lat="45.99905225475985" lon="12.895186525548182"><ele>58.0</ele><time>2026-04-12T09:14:16.002Z</time></trkpt><trkpt lat="45.999064217631414" lon="12.894947776652572"><ele>58.0</ele><time>2026-04-12T09:14:17.002Z</time></trkpt><trkpt lat="45.99907619928759" lon="12.894708652905688"><ele>58.0</ele><time>2026-04-12T09:14:18.002Z</time></trkpt><trkpt lat="45.99908879587796" lon="12.894467021534597"><ele>58.0</ele><time>2026-04-12T09:14:19.002Z</time></trkpt><trkpt lat="45.99910205095707" lon="12.894225195670911"><ele>58.0</ele><time>2026-04-12T09:14:20.002Z</time></trkpt><trkpt lat="45.99911533116898" lon="12.893982911283276"><ele>58.0</ele><time>2026-04-12T09:14:21.002Z</time></trkpt><trkpt lat="45.99912867373593" lon="12.89373948942256"><ele>58.0</ele><time>2026-04-12T09:14:22.002Z</time></trkpt><trkpt lat="45.99914266761862" lon="12.893484184911184"><ele>58.0</ele><time>2026-04-12T09:14:23.002Z</time></trkpt><trkpt lat="45.99915580630202" lon="12.893244482615916"><ele>58.0</ele><time>2026-04-12T09:14:24.002Z</time></trkpt><trkpt lat="45.999168446516485" lon="12.893013874455432"><ele>58.0</ele><time>2026-04-12T09:14:25.002Z</time></trkpt><trkpt lat="45.99917975084754" lon="12.892807638126833"><ele>58.0</ele><time>2026-04-12T09:14:26.002Z</time></trkpt><trkpt lat="45.999190328950384" lon="12.892614651203198"><ele>58.0</ele><time>2026-04-12T09:14:27.002Z</time></trkpt><trkpt lat="45.999199868273315" lon="12.892435698079748"><ele>57.75</ele><time>2026-04-12T09:14:28.002Z</time></trkpt><trkpt lat="45.999194668936205" lon="12.892265169851783"><ele>57.5</ele><time>2026-04-12T09:14:29.002Z</time></trkpt><trkpt lat="45.99921668308256" lon="12.892108625018313"><ele>57.25</ele><time>2026-04-12T09:14:30.002Z</time></trkpt><trkpt lat="45.999224948877924" lon="12.891947843030866"><ele>57.0</ele><time>2026-04-12T09:14:31.002Z</time></trkpt><trkpt lat="45.99921674453069" lon="12.891783289008275"><ele>57.0</ele><time>2026-04-12T09:14:32.002Z</time></trkpt><trkpt lat="45.99924176301319" lon="12.891620783145605"><ele>57.0</ele><time>2026-04-12T09:14:33.002Z</time></trkpt><trkpt lat="45.999250237133104" lon="12.89145594884987"><ele>57.0</ele><time>2026-04-12T09:14:34.002Z</time></trkpt><trkpt lat="45.999246401728875" lon="12.8912912046792"><ele>57.0</ele><time>2026-04-12T09:14:35.002Z</time></trkpt><trkpt lat="45.99926696976222" lon="12.891130474288214"><ele>57.0</ele><time>2026-04-12T09:14:36.002Z</time></trkpt><trkpt lat="45.99927508940671" lon="12.890971175636087"><ele>57.0</ele><time>2026-04-12T09:14:37Z</time></trkpt><trkpt lat="45.99928256807038" lon="12.890820593204"><ele>57.0</ele><time>2026-04-12T09:14:38Z</time></trkpt><trkpt lat="45.99927405414452" lon="12.890656454389765"><ele>57.0</ele><time>2026-04-12T09:14:39Z</time></trkpt><trkpt lat="45.999285767768775" lon="12.890474682043584"><ele>56.66666666666667</ele><time>2026-04-12T09:14:40Z</time></trkpt><trkpt lat="45.99929609176145" lon="12.890277348959167"><ele>56.333333333333336</ele><time>2026-04-12T09:14:41Z</time></trkpt><trkpt lat="45.99930527099739" lon="12.890033457911471"><ele>56.0</ele><time>2026-04-12T09:14:42Z</time></trkpt><trkpt lat="45.99932126594477" lon="12.88979285659329"><ele>56.0</ele><time>2026-04-12T09:14:43Z</time></trkpt><trkpt lat="45.999332294405015" lon="12.889572896554714"><ele>56.0</ele><time>2026-04-12T09:14:44Z</time></trkpt><trkpt lat="45.999341678872796" lon="12.889363402386783"><ele>56.0</ele><time>2026-04-12T09:14:45Z</time></trkpt><trkpt lat="45.99935056984786" lon="12.889155894201474"><ele>56.0</ele><time>2026-04-12T09:14:46Z</time></trkpt><trkpt lat="45.99937717667365" lon="12.888955872862038"><ele>56.0</ele><time>2026-04-12T09:14:47Z</time></trkpt><trkpt lat="45.99938807552371" lon="12.888757219637128"><ele>56.0</ele><time>2026-04-12T09:14:48Z</time></trkpt><trkpt lat="45.999398695911125" lon="12.888563641844943"><ele>56.0</ele><time>2026-04-12T09:14:49Z</time></trkpt><trkpt lat="45.99940885928271" lon="12.88837839416801"><ele>56.0</ele><time>2026-04-12T09:14:50Z</time></trkpt><trkpt lat="45.99941855163817" lon="12.888201731643841"><ele>56.199999999999996</ele><time>2026-04-12T09:14:51Z</time></trkpt><trkpt lat="45.99942712801878" lon="12.888034883975264"><ele>56.39999999999999</ele><time>2026-04-12T09:14:52Z</time></trkpt><trkpt lat="45.99943483278629" lon="12.88788054059854"><ele>56.6</ele><time>2026-04-12T09:14:53Z</time></trkpt><trkpt lat="45.999442249347666" lon="12.887731970722133"><ele>56.8</ele><time>2026-04-12T09:14:54Z</time></trkpt><trkpt lat="45.99944956888086" lon="12.887585344453003"><ele>57.0</ele><time>2026-04-12T09:14:55Z</time></trkpt><trkpt lat="45.99945617043582" lon="12.887453100897151"><ele>57.0</ele><time>2026-04-12T09:14:56Z</time></trkpt><trkpt lat="45.99946214822333" lon="12.88733335267433"><ele>57.0</ele><time>2026-04-12T09:14:57Z</time></trkpt><trkpt lat="45.99946787345651" lon="12.887218663664141"><ele>57.0</ele><time>2026-04-12T09:14:58Z</time></trkpt><trkpt lat="45.9994745326852" lon="12.887117509591762"><ele>57.0</ele><time>2026-04-12T09:14:59Z</time></trkpt><trkpt lat="45.999465026425575" lon="12.887015262695424"><ele>57.0</ele><time>2026-04-12T09:15:00Z</time></trkpt><trkpt lat="45.99947197283905" lon="12.886921830060311"><ele>57.0</ele><time>2026-04-12T09:15:01Z</time></trkpt><trkpt lat="45.99948640442043" lon="12.886751401944284"><ele>57.0</ele><time>2026-04-12T09:15:03Z</time></trkpt><trkpt lat="45.999493390200094" lon="12.88660778615861"><ele>57.0</ele><time>2026-04-12T09:15:05Z</time></trkpt><trkpt lat="45.99956202938858" lon="12.886520833094666"><ele>57.0</ele><time>2026-04-12T09:15:08Z</time></trkpt><trkpt lat="45.99964329408203" lon="12.886533028331739"><ele>57.0</ele><time>2026-04-12T09:15:09Z</time></trkpt><trkpt lat="45.99974814180768" lon="12.88658188623994"><ele>57.0</ele><time>2026-04-12T09:15:10Z</time></trkpt><trkpt lat="45.99985852214363" lon="12.88665026956277"><ele>57.0</ele><time>2026-04-12T09:15:11Z</time></trkpt><trkpt lat="45.999995948280194" lon="12.886670931472798"><ele>57.0</ele><time>2026-04-12T09:15:12Z</time></trkpt><trkpt lat="46.00011421740515" lon="12.886699915332185"><ele>57.0</ele><time>2026-04-12T09:15:13Z</time></trkpt><trkpt lat="46.00022055041135" lon="12.886733411510264"><ele>57.0</ele><time>2026-04-12T09:15:14Z</time></trkpt><trkpt lat="46.00032747572882" lon="12.886791976264579"><ele>57.25</ele><time>2026-04-12T09:15:15Z</time></trkpt><trkpt lat="46.00043190049336" lon="12.88687376393543"><ele>57.5</ele><time>2026-04-12T09:15:16Z</time></trkpt><trkpt lat="46.000523819237245" lon="12.88699214699136"><ele>57.75</ele><time>2026-04-12T09:15:17Z</time></trkpt><trkpt lat="46.00061205051527" lon="12.887107414906684"><ele>58.0</ele><time>2026-04-12T09:15:18Z</time></trkpt><trkpt lat="46.000698966444226" lon="12.887199612746796"><ele>58.0</ele><time>2026-04-12T09:15:19Z</time></trkpt><trkpt lat="46.000775614482706" lon="12.887309430218005"><ele>58.0</ele><time>2026-04-12T09:15:20Z</time></trkpt><trkpt lat="46.000851245594816" lon="12.887398676666102"><ele>58.0</ele><time>2026-04-12T09:15:21.001Z</time></trkpt><trkpt lat="46.00093703704021" lon="12.88747222441677"><ele>58.0</ele><time>2026-04-12T09:15:22.001Z</time></trkpt><trkpt lat="46.00103033337606" lon="12.88752264690614"><ele>58.0</ele><time>2026-04-12T09:15:23.001Z</time></trkpt><trkpt lat="46.00114553387606" lon="12.887542666085567"><ele>58.0</ele><time>2026-04-12T09:15:24.001Z</time></trkpt><trkpt lat="46.001273587031115" lon="12.88754089060207"><ele>58.0</ele><time>2026-04-12T09:15:25.001Z</time></trkpt><trkpt lat="46.00141854220773" lon="12.887513582873101"><ele>58.0</ele><time>2026-04-12T09:15:26.001Z</time></trkpt><trkpt lat="46.00157643841267" lon="12.887466407236913"><ele>58.0</ele><time>2026-04-12T09:15:27.001Z</time></trkpt><trkpt lat="46.00174724039073" lon="12.887410482554689"><ele>57.666666666666664</ele><time>2026-04-12T09:15:28.001Z</time></trkpt><trkpt lat="46.00190382490774" lon="12.887369696474938"><ele>57.33333333333333</ele><time>2026-04-12T09:15:29.001Z</time></trkpt><trkpt lat="46.00204657996997" lon="12.88733918150933"><ele>57.0</ele><time>2026-04-12T09:15:30.001Z</time></trkpt><trkpt lat="46.00220123268518" lon="12.887310173534319"><ele>57.0</ele><time>2026-04-12T09:15:31.001Z</time></trkpt><trkpt lat="46.0023645908251" lon="12.8872916969972"><ele>57.0</ele><time>2026-04-12T09:15:32.001Z</time></trkpt><trkpt lat="46.00254208601299" lon="12.887294887669382"><ele>57.0</ele><time>2026-04-12T09:15:33.001Z</time></trkpt><trkpt lat="46.00271897000566" lon="12.887273506792564"><ele>57.66666666666667</ele><time>2026-04-12T09:15:34.001Z</time></trkpt><trkpt lat="46.00289355346273" lon="12.887204280543276"><ele>58.333333333333336</ele><time>2026-04-12T09:15:35.001Z</time></trkpt><trkpt lat="46.00305869295477" lon="12.887170006588642"><ele>59.0</ele><time>2026-04-12T09:15:36.001Z</time></trkpt><trkpt lat="46.00321780907525" lon="12.887140830045523"><ele>59.0</ele><time>2026-04-12T09:15:37.001Z</time></trkpt><trkpt lat="46.00337561152618" lon="12.887111943796336"><ele>59.0</ele><time>2026-04-12T09:15:38.001Z</time></trkpt><trkpt lat="46.00351576649529" lon="12.887097935702629"><ele>59.0</ele><time>2026-04-12T09:15:39.001Z</time></trkpt><trkpt lat="46.00362917416728" lon="12.88709900344882"><ele>59.0</ele><time>2026-04-12T09:15:40.001Z</time></trkpt><trkpt lat="46.00373375409478" lon="12.887102585408194"><ele>59.0</ele><time>2026-04-12T09:15:41.001Z</time></trkpt><trkpt lat="46.00383796438935" lon="12.887109026757678"><ele>59.00000000000001</ele><time>2026-04-12T09:15:42.001Z</time></trkpt><trkpt lat="46.00392818079553" lon="12.887115896082017"><ele>59.00000000000001</ele><time>2026-04-12T09:15:43.001Z</time></trkpt><trkpt lat="46.004001572937135" lon="12.887117962723206"><ele>59.0</ele><time>2026-04-12T09:15:44.001Z</time></trkpt><trkpt lat="46.00412104884462" lon="12.88710781087365"><ele>59.0</ele><time>2026-04-12T09:15:46.001Z</time></trkpt><trkpt lat="46.00419354933905" lon="12.88709347129809"><ele>59.2</ele><time>2026-04-12T09:15:47.001Z</time></trkpt><trkpt lat="46.00428234549611" lon="12.887089121896576"><ele>59.400000000000006</ele><time>2026-04-12T09:15:48.001Z</time></trkpt><trkpt lat="46.00437837085319" lon="12.887095894093866"><ele>59.6</ele><time>2026-04-12T09:15:49.001Z</time></trkpt><trkpt lat="46.00447658222489" lon="12.887097058618147"><ele>59.8</ele><time>2026-04-12T09:15:50.001Z</time></trkpt><trkpt lat="46.00456789497655" lon="12.887097982822848"><ele>60.0</ele><time>2026-04-12T09:15:51.001Z</time></trkpt><trkpt lat="46.00464737173968" lon="12.887090383912485"><ele>60.0</ele><time>2026-04-12T09:15:52.001Z</time></trkpt><trkpt lat="46.004716221336224" lon="12.88707697131971"><ele>60.0</ele><time>2026-04-12T09:15:53.001Z</time></trkpt><trkpt lat="46.004779499590526" lon="12.88708419396974"><ele>60.0</ele><time>2026-04-12T09:15:54.001Z</time></trkpt><trkpt lat="46.00484415382978" lon="12.887068856275068"><ele>60.0</ele><time>2026-04-12T09:15:55.001Z</time></trkpt><trkpt lat="46.00493674414896" lon="12.886926181026926"><ele>60.0</ele><time>2026-04-12T09:15:57.001Z</time></trkpt><trkpt lat="46.00490911745772" lon="12.88677258484543"><ele>60.0</ele><time>2026-04-12T09:15:58.001Z</time></trkpt><trkpt lat="46.00491734982535" lon="12.886617644475121"><ele>59.5</ele><time>2026-04-12T09:15:59.001Z</time></trkpt><trkpt lat="46.00492102166185" lon="12.886449083199961"><ele>59.0</ele><time>2026-04-12T09:16:00.001Z</time></trkpt><trkpt lat="46.00492996162168" lon="12.88626543052909"><ele>58.5</ele><time>2026-04-12T09:16:01.001Z</time></trkpt><trkpt lat="46.00492807517518" lon="12.886034482515921"><ele>58.0</ele><time>2026-04-12T09:16:02.001Z</time></trkpt><trkpt lat="46.00495575956274" lon="12.885772901689212"><ele>57.666666666666664</ele><time>2026-04-12T09:16:03.002Z</time></trkpt><trkpt lat="46.00497799488188" lon="12.88548907850161"><ele>57.33333333333333</ele><time>2026-04-12T09:16:04.002Z</time></trkpt><trkpt lat="46.004998956423734" lon="12.885232786891194"><ele>57.0</ele><time>2026-04-12T09:16:05.002Z</time></trkpt><trkpt lat="46.00501676251266" lon="12.885011644191414"><ele>56.75</ele><time>2026-04-12T09:16:06.002Z</time></trkpt><trkpt lat="46.00503448827825" lon="12.884806310884928"><ele>56.5</ele><time>2026-04-12T09:16:07.002Z</time></trkpt><trkpt lat="46.00505636460455" lon="12.884595122437775"><ele>56.25</ele><time>2026-04-12T09:16:08.002Z</time></trkpt><trkpt lat="46.00508235072971" lon="12.884379156496074"><ele>56.0</ele><time>2026-04-12T09:16:09.002Z</time></trkpt><trkpt lat="46.00511339007674" lon="12.884176808651308"><ele>56.0</ele><time>2026-04-12T09:16:10.002Z</time></trkpt><trkpt lat="46.00515326400759" lon="12.883978563280868"><ele>56.0</ele><time>2026-04-12T09:16:11.002Z</time></trkpt><trkpt lat="46.005233018021286" lon="12.88380357020207"><ele>56.0</ele><time>2026-04-12T09:16:12.002Z</time></trkpt><trkpt lat="46.00531810772579" lon="12.883605389260328"><ele>56.333333333333336</ele><time>2026-04-12T09:16:13.002Z</time></trkpt><trkpt lat="46.00541330169215" lon="12.883387011866965"><ele>56.66666666666667</ele><time>2026-04-12T09:16:14.002Z</time></trkpt><trkpt lat="46.00550967182416" lon="12.883162992021393"><ele>57.0</ele><time>2026-04-12T09:16:15.002Z</time></trkpt><trkpt lat="46.005608112533736" lon="12.882929575762212"><ele>57.0</ele><time>2026-04-12T09:16:16.002Z</time></trkpt><trkpt lat="46.00570780351902" lon="12.882691346634985"><ele>57.0</ele><time>2026-04-12T09:16:17.002Z</time></trkpt><trkpt lat="46.005807304741566" lon="12.88245300510584"><ele>57.0</ele><time>2026-04-12T09:16:18.002Z</time></trkpt><trkpt lat="46.00590736223839" lon="12.882212574905969"><ele>57.33333333333333</ele><time>2026-04-12T09:16:19.002Z</time></trkpt><trkpt lat="46.00599138354539" lon="12.881974366936348"><ele>57.666666666666664</ele><time>2026-04-12T09:16:20.002Z</time></trkpt><trkpt lat="46.00608340574201" lon="12.881765693817684"><ele>58.0</ele><time>2026-04-12T09:16:21.002Z</time></trkpt><trkpt lat="46.006164854062916" lon="12.881573063829455"><ele>58.25</ele><time>2026-04-12T09:16:22.002Z</time></trkpt><trkpt lat="46.006255925477056" lon="12.881414945925195"><ele>58.5</ele><time>2026-04-12T09:16:23.002Z</time></trkpt><trkpt lat="46.00632659735272" lon="12.881257055988836"><ele>58.75</ele><time>2026-04-12T09:16:24.002Z</time></trkpt><trkpt lat="46.00640236654608" lon="12.881081786650451"><ele>59.0</ele><time>2026-04-12T09:16:25.002Z</time></trkpt><trkpt lat="46.00648364428457" lon="12.880887173233994"><ele>58.66666666666667</ele><time>2026-04-12T09:16:26.002Z</time></trkpt><trkpt lat="46.006575424332446" lon="12.880667215677619"><ele>58.33333333333333</ele><time>2026-04-12T09:16:27.002Z</time></trkpt><trkpt lat="46.006667842461546" lon="12.88040804597497"><ele>58.0</ele><time>2026-04-12T09:16:28.002Z</time></trkpt><trkpt lat="46.006777185602274" lon="12.880155280435027"><ele>58.5</ele><time>2026-04-12T09:16:29.002Z</time></trkpt><trkpt lat="46.00689031774153" lon="12.87989153411846"><ele>59.0</ele><time>2026-04-12T09:16:30.002Z</time></trkpt><trkpt lat="46.0070142899608" lon="12.879598647786088"><ele>59.0</ele><time>2026-04-12T09:16:31.002Z</time></trkpt><trkpt lat="46.00714079146066" lon="12.879298616655836"><ele>59.0</ele><time>2026-04-12T09:16:32.002Z</time></trkpt><trkpt lat="46.007254270713915" lon="12.87902860154555"><ele>59.0</ele><time>2026-04-12T09:16:33.002Z</time></trkpt><trkpt lat="46.00735317798489" lon="12.878792256114647"><ele>59.0</ele><time>2026-04-12T09:16:34.002Z</time></trkpt><trkpt lat="46.00744511195922" lon="12.878573708499392"><ele>59.0</ele><time>2026-04-12T09:16:35.002Z</time></trkpt><trkpt lat="46.00753057219453" lon="12.878374502384329"><ele>59.0</ele><time>2026-04-12T09:16:36.002Z</time></trkpt><trkpt lat="46.00762237930818" lon="12.878208112489261"><ele>59.0</ele><time>2026-04-12T09:16:37.002Z</time></trkpt><trkpt lat="46.00770138901984" lon="12.878029655769176"><ele>59.0</ele><time>2026-04-12T09:16:38.002Z</time></trkpt><trkpt lat="46.00778255673766" lon="12.877849308034085"><ele>59.0</ele><time>2026-04-12T09:16:39.002Z</time></trkpt><trkpt lat="46.00786515567184" lon="12.87766811028758"><ele>58.75</ele><time>2026-04-12T09:16:40.002Z</time></trkpt><trkpt lat="46.00794300556361" lon="12.877500683838877"><ele>58.5</ele><time>2026-04-12T09:16:41.002Z</time></trkpt><trkpt lat="46.008013244882335" lon="12.87734962493028"><ele>58.25</ele><time>2026-04-12T09:16:42.002Z</time></trkpt><trkpt lat="46.00807644933291" lon="12.877214132065323"><ele>58.0</ele><time>2026-04-12T09:16:43Z</time></trkpt><trkpt lat="46.008136335134445" lon="12.877087866826091"><ele>58.0</ele><time>2026-04-12T09:16:44Z</time></trkpt><trkpt lat="46.0081917318629" lon="12.876971066497704"><ele>58.0</ele><time>2026-04-12T09:16:45Z</time></trkpt><trkpt lat="46.00824305068917" lon="12.87686286412769"><ele>58.0</ele><time>2026-04-12T09:16:46Z</time></trkpt><trkpt lat="46.008290934417175" lon="12.87676293053943"><ele>58.0</ele><time>2026-04-12T09:16:47Z</time></trkpt><trkpt lat="46.008326349915606" lon="12.876649824766021"><ele>58.0</ele><time>2026-04-12T09:16:48Z</time></trkpt><trkpt lat="46.008394768632265" lon="12.876564676154407"><ele>58.2</ele><time>2026-04-12T09:16:49Z</time></trkpt><trkpt lat="46.00845232821329" lon="12.876457862620603"><ele>58.4</ele><time>2026-04-12T09:16:50Z</time></trkpt><trkpt lat="46.00850235824548" lon="12.876330132300467"><ele>58.60000000000001</ele><time>2026-04-12T09:16:51Z</time></trkpt><trkpt lat="46.008541507388955" lon="12.876173478271731"><ele>58.800000000000004</ele><time>2026-04-12T09:16:52Z</time></trkpt><trkpt lat="46.00856666943282" lon="12.875998932982355"><ele>59.0</ele><time>2026-04-12T09:16:53Z</time></trkpt><trkpt lat="46.0085858306661" lon="12.875817639695896"><ele>59.0</ele><time>2026-04-12T09:16:54Z</time></trkpt><trkpt lat="46.00860537284729" lon="12.87562673587728"><ele>59.0</ele><time>2026-04-12T09:16:55Z</time></trkpt><trkpt lat="46.00862496577143" lon="12.87542604774833"><ele>59.0</ele><time>2026-04-12T09:16:56Z</time></trkpt><trkpt lat="46.00864544450875" lon="12.875216286320569"><ele>59.0</ele><time>2026-04-12T09:16:57Z</time></trkpt><trkpt lat="46.008666995652675" lon="12.874999081789124"><ele>59.333333333333336</ele><time>2026-04-12T09:16:58Z</time></trkpt><trkpt lat="46.00868928002614" lon="12.87477504211158"><ele>59.66666666666667</ele><time>2026-04-12T09:16:59Z</time></trkpt><trkpt lat="46.00871220689909" lon="12.874547219010308"><ele>60.0</ele><time>2026-04-12T09:17:00Z</time></trkpt><trkpt lat="46.00873475051989" lon="12.874328080418127"><ele>60.25</ele><time>2026-04-12T09:17:01Z</time></trkpt><trkpt lat="46.0087555451909" lon="12.87412703151767"><ele>60.5</ele><time>2026-04-12T09:17:02Z</time></trkpt><trkpt lat="46.00877625624667" lon="12.873937036350304"><ele>60.75</ele><time>2026-04-12T09:17:03Z</time></trkpt><trkpt lat="46.008796439355265" lon="12.873762522440224"><ele>61.0</ele><time>2026-04-12T09:17:04Z</time></trkpt><trkpt lat="46.00881561669651" lon="12.873601052347704"><ele>61.0</ele><time>2026-04-12T09:17:05Z</time></trkpt><trkpt lat="46.008833106178024" lon="12.873453793758976"><ele>60.99999999999999</ele><time>2026-04-12T09:17:06Z</time></trkpt><trkpt lat="46.00884956828102" lon="12.873315185535299"><ele>60.99999999999999</ele><time>2026-04-12T09:17:07Z</time></trkpt><trkpt lat="46.00886352418265" lon="12.873188056263782"><ele>61.0</ele><time>2026-04-12T09:17:08Z</time></trkpt><trkpt lat="46.00887609703753" lon="12.873066247362956"><ele>61.0</ele><time>2026-04-12T09:17:09Z</time></trkpt><trkpt lat="46.008887913870744" lon="12.872951762991965"><ele>61.199999999999996</ele><time>2026-04-12T09:17:10Z</time></trkpt><trkpt lat="46.0088990802124" lon="12.872843580748578"><ele>61.39999999999999</ele><time>2026-04-12T09:17:11Z</time></trkpt><trkpt lat="46.008909893908005" lon="12.87273881502042"><ele>61.6</ele><time>2026-04-12T09:17:12Z</time></trkpt><trkpt lat="46.00890464587118" lon="12.872637436663586"><ele>61.8</ele><time>2026-04-12T09:17:13Z</time></trkpt><trkpt lat="46.00893675349513" lon="12.872518159374472"><ele>62.0</ele><time>2026-04-12T09:17:15Z</time></trkpt><trkpt lat="46.00908869176571" lon="12.872494584550589"><ele>61.25</ele><time>2026-04-12T09:17:19Z</time></trkpt><trkpt lat="46.00918685060535" lon="12.872541071534634"><ele>60.5</ele><time>2026-04-12T09:17:20Z</time></trkpt><trkpt lat="46.00932954310253" lon="12.872579119397031"><ele>59.75</ele><time>2026-04-12T09:17:21.001Z</time></trkpt><trkpt lat="46.009494300600835" lon="12.872619338272628"><ele>59.0</ele><time>2026-04-12T09:17:22.001Z</time></trkpt><trkpt lat="46.009686642255815" lon="12.872670243357168"><ele>59.0</ele><time>2026-04-12T09:17:23.001Z</time></trkpt><trkpt lat="46.00990424646761" lon="12.8727343869725"><ele>59.0</ele><time>2026-04-12T09:17:24.001Z</time></trkpt><trkpt lat="46.01011410054405" lon="12.872791054625084"><ele>59.0</ele><time>2026-04-12T09:17:25.001Z</time></trkpt><trkpt lat="46.01030273970736" lon="12.87284027722783"><ele>60.333333333333336</ele><time>2026-04-12T09:17:26.001Z</time></trkpt><trkpt lat="46.01047554933681" lon="12.872888021471889"><ele>61.66666666666667</ele><time>2026-04-12T09:17:27.001Z</time></trkpt><trkpt lat="46.01063782666798" lon="12.872931460481016"><ele>63.0</ele><time>2026-04-12T09:17:28.001Z</time></trkpt><trkpt lat="46.01079037283673" lon="12.872969325518369"><ele>62.5</ele><time>2026-04-12T09:17:29.001Z</time></trkpt><trkpt lat="46.010935640810885" lon="12.873002947813632"><ele>62.0</ele><time>2026-04-12T09:17:30.001Z</time></trkpt><trkpt lat="46.011072504799394" lon="12.873029413171936"><ele>61.5</ele><time>2026-04-12T09:17:31.001Z</time></trkpt><trkpt lat="46.01119845496836" lon="12.87305216471019"><ele>61.0</ele><time>2026-04-12T09:17:32.001Z</time></trkpt><trkpt lat="46.0113140130699" lon="12.873077355203675"><ele>61.0</ele><time>2026-04-12T09:17:33.001Z</time></trkpt><trkpt lat="46.011411583946405" lon="12.873096357873488"><ele>60.99999999999999</ele><time>2026-04-12T09:17:34.001Z</time></trkpt><trkpt lat="46.01149130597758" lon="12.873108546632542"><ele>60.99999999999999</ele><time>2026-04-12T09:17:35.001Z</time></trkpt><trkpt lat="46.01155898714054" lon="12.873127519356037"><ele>61.0</ele><time>2026-04-12T09:17:36.001Z</time></trkpt><trkpt lat="46.011657817938676" lon="12.873143878477595"><ele>61.0</ele><time>2026-04-12T09:17:38.001Z</time></trkpt><trkpt lat="46.01168946419506" lon="12.872932074667125"><ele>61.0</ele><time>2026-04-12T09:17:39.001Z</time></trkpt><trkpt lat="46.01169626156349" lon="12.87279373158678"><ele>61.0</ele><time>2026-04-12T09:17:40.001Z</time></trkpt><trkpt lat="46.01169997446703" lon="12.872614159062586"><ele>61.0</ele><time>2026-04-12T09:17:41.001Z</time></trkpt><trkpt lat="46.011692857833694" lon="12.872418653065363"><ele>61.0</ele><time>2026-04-12T09:17:42.001Z</time></trkpt><trkpt lat="46.011682836834595" lon="12.872213002431286"><ele>61.33333333333333</ele><time>2026-04-12T09:17:43.001Z</time></trkpt><trkpt lat="46.011678224337665" lon="12.87198034427635"><ele>61.66666666666667</ele><time>2026-04-12T09:17:44.001Z</time></trkpt><trkpt lat="46.01167106544001" lon="12.871753528642822"><ele>62.0</ele><time>2026-04-12T09:17:45.001Z</time></trkpt><trkpt lat="46.01166788834698" lon="12.871551418443952"><ele>62.0</ele><time>2026-04-12T09:17:46.001Z</time></trkpt><trkpt lat="46.01166964725909" lon="12.871353374443572"><ele>62.0</ele><time>2026-04-12T09:17:47.001Z</time></trkpt><trkpt lat="46.01168083131146" lon="12.871145392241186"><ele>62.0</ele><time>2026-04-12T09:17:48.001Z</time></trkpt><trkpt lat="46.011702445520164" lon="12.87092747153781"><ele>62.0</ele><time>2026-04-12T09:17:49.001Z</time></trkpt><trkpt lat="46.01174748400772" lon="12.870705665832334"><ele>61.75</ele><time>2026-04-12T09:17:50.001Z</time></trkpt><trkpt lat="46.01177853696481" lon="12.870497874094312"><ele>61.5</ele><time>2026-04-12T09:17:51.001Z</time></trkpt><trkpt lat="46.011806935411975" lon="12.870303741949316"><ele>61.25</ele><time>2026-04-12T09:17:52.001Z</time></trkpt><trkpt lat="46.01183153760604" lon="12.870118969854762"><ele>61.0</ele><time>2026-04-12T09:17:53.001Z</time></trkpt><trkpt lat="46.01183944516952" lon="12.869948227056325"><ele>61.0</ele><time>2026-04-12T09:17:54.001Z</time></trkpt><trkpt lat="46.01187268977758" lon="12.869818130192613"><ele>61.0</ele><time>2026-04-12T09:17:55.001Z</time></trkpt><trkpt lat="46.011895485160544" lon="12.869714705071052"><ele>61.0</ele><time>2026-04-12T09:17:56.001Z</time></trkpt><trkpt lat="46.012063533022726" lon="12.869614204687096"><ele>61.0</ele><time>2026-04-12T09:17:58.001Z</time></trkpt><trkpt lat="46.012169801174956" lon="12.869606856865996"><ele>61.0</ele><time>2026-04-12T09:17:59.001Z</time></trkpt><trkpt lat="46.01231967560482" lon="12.869622480802448"><ele>61.0</ele><time>2026-04-12T09:18:00.001Z</time></trkpt><trkpt lat="46.01246748607384" lon="12.869648401244156"><ele>61.0</ele><time>2026-04-12T09:18:01.001Z</time></trkpt><trkpt lat="46.01259362165065" lon="12.869672549065147"><ele>61.0</ele><time>2026-04-12T09:18:02.001Z</time></trkpt><trkpt lat="46.01270955413246" lon="12.869686151280865"><ele>61.33333333333333</ele><time>2026-04-12T09:18:03.001Z</time></trkpt><trkpt lat="46.012816169790966" lon="12.869699263392214"><ele>61.666666666666664</ele><time>2026-04-12T09:18:04.001Z</time></trkpt><trkpt lat="46.01291444861253" lon="12.869714824505934"><ele>62.0</ele><time>2026-04-12T09:18:05.001Z</time></trkpt><trkpt lat="46.013003333746624" lon="12.86972540058791"><ele>62.33333333333333</ele><time>2026-04-12T09:18:06.001Z</time></trkpt><trkpt lat="46.013084495115386" lon="12.869733183791736"><ele>62.666666666666664</ele><time>2026-04-12T09:18:07.002Z</time></trkpt><trkpt lat="46.013156638212706" lon="12.86973050862465"><ele>63.0</ele><time>2026-04-12T09:18:08.002Z</time></trkpt><trkpt lat="46.01322338762199" lon="12.869713292240345"><ele>63.0</ele><time>2026-04-12T09:18:09.002Z</time></trkpt><trkpt lat="46.01332223231959" lon="12.86963934569625"><ele>63.0</ele><time>2026-04-12T09:18:11.002Z</time></trkpt><trkpt lat="46.013393374718234" lon="12.869515550543156"><ele>63.0</ele><time>2026-04-12T09:18:13.002Z</time></trkpt><trkpt lat="46.013442610127925" lon="12.869412139093514"><ele>63.0</ele><time>2026-04-12T09:18:14.002Z</time></trkpt><trkpt lat="46.01348415985708" lon="12.869253944658448"><ele>63.0</ele><time>2026-04-12T09:18:15.002Z</time></trkpt><trkpt lat="46.01352809932412" lon="12.869080659520828"><ele>62.33333333333333</ele><time>2026-04-12T09:18:16.002Z</time></trkpt><trkpt lat="46.01357479838818" lon="12.868885527162716"><ele>61.666666666666664</ele><time>2026-04-12T09:18:17.002Z</time></trkpt><trkpt lat="46.01362579006156" lon="12.868665290906204"><ele>61.0</ele><time>2026-04-12T09:18:18.002Z</time></trkpt><trkpt lat="46.013676526015445" lon="12.868424448157263"><ele>61.0</ele><time>2026-04-12T09:18:19.002Z</time></trkpt><trkpt lat="46.01371613150491" lon="12.868157673480521"><ele>61.0</ele><time>2026-04-12T09:18:20.002Z</time></trkpt><trkpt lat="46.013782423083015" lon="12.867943928565087"><ele>61.0</ele><time>2026-04-12T09:18:21.002Z</time></trkpt><trkpt lat="46.013830162091715" lon="12.867739646612552"><ele>61.25</ele><time>2026-04-12T09:18:22.002Z</time></trkpt><trkpt lat="46.01385376644997" lon="12.86754257711857"><ele>61.5</ele><time>2026-04-12T09:18:23.002Z</time></trkpt><trkpt lat="46.01388664803587" lon="12.867362052915299"><ele>61.75</ele><time>2026-04-12T09:18:24.002Z</time></trkpt><trkpt lat="46.01391274838244" lon="12.867197297590712"><ele>62.0</ele><time>2026-04-12T09:18:25.002Z</time></trkpt><trkpt lat="46.01393654840817" lon="12.867050603469815"><ele>62.0</ele><time>2026-04-12T09:18:26.002Z</time></trkpt><trkpt lat="46.01395433157518" lon="12.866944364037648"><ele>62.0</ele><time>2026-04-12T09:18:27.002Z</time></trkpt><trkpt lat="46.01398501196083" lon="12.866815360686534"><ele>62.0</ele><time>2026-04-12T09:18:29.002Z</time></trkpt><trkpt lat="46.01404574903237" lon="12.866641184624074"><ele>62.0</ele><time>2026-04-12T09:18:31.002Z</time></trkpt><trkpt lat="46.01409394042486" lon="12.866544645951983"><ele>62.0</ele><time>2026-04-12T09:18:32.002Z</time></trkpt><trkpt lat="46.014158507302" lon="12.866445614108995"><ele>62.25</ele><time>2026-04-12T09:18:33.002Z</time></trkpt><trkpt lat="46.01422424687484" lon="12.866345331386634"><ele>62.5</ele><time>2026-04-12T09:18:34.002Z</time></trkpt><trkpt lat="46.01427072982756" lon="12.866256168683613"><ele>62.75</ele><time>2026-04-12T09:18:35.002Z</time></trkpt><trkpt lat="46.01433712815032" lon="12.866174635103228"><ele>63.0</ele><time>2026-04-12T09:18:37.002Z</time></trkpt><trkpt lat="46.01417900324819" lon="12.866006407030207"><ele>63.0</ele><time>2026-04-12T09:18:39.002Z</time></trkpt><trkpt lat="46.01408058379612" lon="12.865938121018845"><ele>63.0</ele><time>2026-04-12T09:18:40.002Z</time></trkpt><trkpt lat="46.01397645121906" lon="12.865861584318454"><ele>63.0</ele><time>2026-04-12T09:18:41.002Z</time></trkpt><trkpt lat="46.01386279693414" lon="12.865770748231528"><ele>63.0</ele><time>2026-04-12T09:18:42.002Z</time></trkpt><trkpt lat="46.013748084739106" lon="12.865675664738085"><ele>63.0</ele><time>2026-04-12T09:18:43.002Z</time></trkpt><trkpt lat="46.013644662406385" lon="12.865584207782668"><ele>63.0</ele><time>2026-04-12T09:18:44.002Z</time></trkpt><trkpt lat="46.01355031795381" lon="12.865499922654568"><ele>63.0</ele><time>2026-04-12T09:18:45.002Z</time></trkpt><trkpt lat="46.01345473102727" lon="12.865421366145183"><ele>63.0</ele><time>2026-04-12T09:18:46.002Z</time></trkpt><trkpt lat="46.01337235631252" lon="12.865359996576164"><ele>63.0</ele><time>2026-04-12T09:18:47.002Z</time></trkpt><trkpt lat="46.01329796737121" lon="12.865329452757628"><ele>62.8</ele><time>2026-04-12T09:18:48.002Z</time></trkpt><trkpt lat="46.01324349337605" lon="12.865276662989759"><ele>62.599999999999994</ele><time>2026-04-12T09:18:49Z</time></trkpt><trkpt lat="46.01320545758863" lon="12.865136939842557"><ele>62.400000000000006</ele><time>2026-04-12T09:18:51Z</time></trkpt><trkpt lat="46.013150905349754" lon="12.864934633914283"><ele>62.2</ele><time>2026-04-12T09:18:53Z</time></trkpt><trkpt lat="46.01314693423379" lon="12.864787817614866"><ele>62.0</ele><time>2026-04-12T09:18:54Z</time></trkpt><trkpt lat="46.01316470732866" lon="12.864643003475383"><ele>62.0</ele><time>2026-04-12T09:18:55Z</time></trkpt><trkpt lat="46.01317215632898" lon="12.864508179967522"><ele>62.0</ele><time>2026-04-12T09:18:56Z</time></trkpt><trkpt lat="46.013188324079174" lon="12.864374147428157"><ele>62.0</ele><time>2026-04-12T09:18:57Z</time></trkpt><trkpt lat="46.013209136050975" lon="12.864239597775256"><ele>62.0</ele><time>2026-04-12T09:18:58Z</time></trkpt><trkpt lat="46.01322680629929" lon="12.864101573015981"><ele>62.0</ele><time>2026-04-12T09:18:59Z</time></trkpt><trkpt lat="46.01324401963983" lon="12.863939848213528"><ele>62.0</ele><time>2026-04-12T09:19:00Z</time></trkpt><trkpt lat="46.013247922764116" lon="12.863756074398479"><ele>62.0</ele><time>2026-04-12T09:19:01Z</time></trkpt><trkpt lat="46.013243416448496" lon="12.863583200573087"><ele>62.0</ele><time>2026-04-12T09:19:02Z</time></trkpt><trkpt lat="46.01323134159554" lon="12.863422241845182"><ele>62.0</ele><time>2026-04-12T09:19:03Z</time></trkpt><trkpt lat="46.01325089271842" lon="12.863264549339556"><ele>62.0</ele><time>2026-04-12T09:19:04Z</time></trkpt><trkpt lat="46.013296344838736" lon="12.86309351613462"><ele>62.0</ele><time>2026-04-12T09:19:05Z</time></trkpt><trkpt lat="46.013369880748364" lon="12.862930595258797"><ele>62.0</ele><time>2026-04-12T09:19:06Z</time></trkpt><trkpt lat="46.013447291264264" lon="12.862726951216136"><ele>62.0</ele><time>2026-04-12T09:19:07Z</time></trkpt><trkpt lat="46.01353439697759" lon="12.862497332236776"><ele>62.0</ele><time>2026-04-12T09:19:08Z</time></trkpt><trkpt lat="46.013623189339754" lon="12.862254201794892"><ele>62.0</ele><time>2026-04-12T09:19:09Z</time></trkpt><trkpt lat="46.01371521994195" lon="12.861996195011887"><ele>62.0</ele><time>2026-04-12T09:19:10Z</time></trkpt><trkpt lat="46.01378435362437" lon="12.86175450303623"><ele>62.333333333333336</ele><time>2026-04-12T09:19:11Z</time></trkpt><trkpt lat="46.013865832732414" lon="12.86153208704481"><ele>62.66666666666667</ele><time>2026-04-12T09:19:12Z</time></trkpt><trkpt lat="46.013955170946595" lon="12.861314359196813"><ele>63.0</ele><time>2026-04-12T09:19:13Z</time></trkpt><trkpt lat="46.014058293451804" lon="12.861100566514605"><ele>62.0</ele><time>2026-04-12T09:19:14Z</time></trkpt><trkpt lat="46.0141808109497" lon="12.860891712722111"><ele>61.0</ele><time>2026-04-12T09:19:15Z</time></trkpt><trkpt lat="46.01431498259579" lon="12.860675888808577"><ele>60.0</ele><time>2026-04-12T09:19:16Z</time></trkpt><trkpt lat="46.01445305750616" lon="12.86048792268016"><ele>60.0</ele><time>2026-04-12T09:19:17Z</time></trkpt><trkpt lat="46.01457207941507" lon="12.860288551644816"><ele>60.0</ele><time>2026-04-12T09:19:18Z</time></trkpt><trkpt lat="46.01468233647049" lon="12.86007015021346"><ele>60.0</ele><time>2026-04-12T09:19:19Z</time></trkpt><trkpt lat="46.01475554186132" lon="12.859850350348744"><ele>60.0</ele><time>2026-04-12T09:19:20Z</time></trkpt><trkpt lat="46.01483208395587" lon="12.859649768962456"><ele>60.0</ele><time>2026-04-12T09:19:21Z</time></trkpt><trkpt lat="46.014918377951794" lon="12.859481511602008"><ele>60.0</ele><time>2026-04-12T09:19:22Z</time></trkpt><trkpt lat="46.014985489785225" lon="12.859324143989543"><ele>60.0</ele><time>2026-04-12T09:19:23.001Z</time></trkpt><trkpt lat="46.015051023943236" lon="12.859184654760583"><ele>61.0</ele><time>2026-04-12T09:19:24.001Z</time></trkpt><trkpt lat="46.01512210138438" lon="12.85905133180092"><ele>62.0</ele><time>2026-04-12T09:19:25.001Z</time></trkpt><trkpt lat="46.0152047314665" lon="12.858911202780524"><ele>63.0</ele><time>2026-04-12T09:19:26.001Z</time></trkpt><trkpt lat="46.015302285195425" lon="12.858778110099381"><ele>64.0</ele><time>2026-04-12T09:19:27.001Z</time></trkpt><trkpt lat="46.01540802278024" lon="12.858650105844678"><ele>64.0</ele><time>2026-04-12T09:19:28.001Z</time></trkpt><trkpt lat="46.01551734271097" lon="12.85852223269255"><ele>64.0</ele><time>2026-04-12T09:19:29.001Z</time></trkpt><trkpt lat="46.015616760306415" lon="12.858405940986353"><ele>64.0</ele><time>2026-04-12T09:19:30.001Z</time></trkpt><trkpt lat="46.015694695938485" lon="12.858287801754472"><ele>64.0</ele><time>2026-04-12T09:19:31.001Z</time></trkpt><trkpt lat="46.01577798485343" lon="12.85820615908909"><ele>63.83333333333333</ele><time>2026-04-12T09:19:32.001Z</time></trkpt><trkpt lat="46.015855679105336" lon="12.858130025745478"><ele>63.666666666666664</ele><time>2026-04-12T09:19:33.001Z</time></trkpt><trkpt lat="46.01592913742478" lon="12.858066950599008"><ele>63.5</ele><time>2026-04-12T09:19:34.001Z</time></trkpt><trkpt lat="46.016001078196226" lon="12.858025186587652"><ele>63.33333333333333</ele><time>2026-04-12T09:19:35.001Z</time></trkpt><trkpt lat="46.01606839567839" lon="12.858004107270181"><ele>63.166666666666664</ele><time>2026-04-12T09:19:36.001Z</time></trkpt><trkpt lat="46.01616209836616" lon="12.858016363026369"><ele>63.0</ele><time>2026-04-12T09:19:38.001Z</time></trkpt><trkpt lat="46.01628700386693" lon="12.858122858648768"><ele>63.0</ele><time>2026-04-12T09:19:40.001Z</time></trkpt><trkpt lat="46.01636972073473" lon="12.858228709554917"><ele>63.0</ele><time>2026-04-12T09:19:41.001Z</time></trkpt><trkpt lat="46.01646032523396" lon="12.858359050736265"><ele>63.0</ele><time>2026-04-12T09:19:42.001Z</time></trkpt><trkpt lat="46.01653944073116" lon="12.858508042082097"><ele>63.0</ele><time>2026-04-12T09:19:43.001Z</time></trkpt><trkpt lat="46.016608460242466" lon="12.85869055072739"><ele>63.0</ele><time>2026-04-12T09:19:44.001Z</time></trkpt><trkpt lat="46.01667805864693" lon="12.858909809090715"><ele>63.0</ele><time>2026-04-12T09:19:45.001Z</time></trkpt><trkpt lat="46.0167406057271" lon="12.859152423037601"><ele>63.0</ele><time>2026-04-12T09:19:46.001Z</time></trkpt><trkpt lat="46.01678920188151" lon="12.859371111754113"><ele>63.25</ele><time>2026-04-12T09:19:47.001Z</time></trkpt><trkpt lat="46.0168245928785" lon="12.85954115908563"><ele>63.5</ele><time>2026-04-12T09:19:48.001Z</time></trkpt><trkpt lat="46.016852627085335" lon="12.85966811679479"><ele>63.75</ele><time>2026-04-12T09:19:49.001Z</time></trkpt><trkpt lat="46.01689650073452" lon="12.859780231000586"><ele>64.0</ele><time>2026-04-12T09:19:51.001Z</time></trkpt><trkpt lat="46.01702876702017" lon="12.859665088206652"><ele>64.0</ele><time>2026-04-12T09:19:57.001Z</time></trkpt><trkpt lat="46.0170878272278" lon="12.859547674594955"><ele>64.0</ele><time>2026-04-12T09:19:58.001Z</time></trkpt><trkpt lat="46.01718132504626" lon="12.859375473575613"><ele>64.0</ele><time>2026-04-12T09:19:59.001Z</time></trkpt><trkpt lat="46.017289324534985" lon="12.85918655247237"><ele>64.0</ele><time>2026-04-12T09:20:00.001Z</time></trkpt><trkpt lat="46.017405543920304" lon="12.858985189133428"><ele>64.33333333333333</ele><time>2026-04-12T09:20:01.001Z</time></trkpt><trkpt lat="46.01752240535704" lon="12.85877610757575"><ele>64.66666666666667</ele><time>2026-04-12T09:20:02.001Z</time></trkpt><trkpt lat="46.01765119901525" lon="12.858587858140613"><ele>65.0</ele><time>2026-04-12T09:20:03.001Z</time></trkpt><trkpt lat="46.0177667362276" lon="12.858384992314681"><ele>65.0</ele><time>2026-04-12T09:20:04.001Z</time></trkpt><trkpt lat="46.017879467103185" lon="12.85818644054193"><ele>65.0</ele><time>2026-04-12T09:20:05.001Z</time></trkpt><trkpt lat="46.01796288538275" lon="12.8580029794379"><ele>65.0</ele><time>2026-04-12T09:20:06.001Z</time></trkpt><trkpt lat="46.01804460758199" lon="12.8578583875749"><ele>65.0</ele><time>2026-04-12T09:20:07.002Z</time></trkpt><trkpt lat="46.018140393469615" lon="12.85772253942008"><ele>65.0</ele><time>2026-04-12T09:20:08.002Z</time></trkpt><trkpt lat="46.01823945146735" lon="12.857549253171888"><ele>65.0</ele><time>2026-04-12T09:20:09.002Z</time></trkpt><trkpt lat="46.01833948021495" lon="12.857374268780555"><ele>65.0</ele><time>2026-04-12T09:20:10.002Z</time></trkpt><trkpt lat="46.0184341757792" lon="12.857176869484345"><ele>65.0</ele><time>2026-04-12T09:20:11.002Z</time></trkpt><trkpt lat="46.01854093142561" lon="12.856991761029034"><ele>65.0</ele><time>2026-04-12T09:20:12.002Z</time></trkpt><trkpt lat="46.018644555025894" lon="12.856811590464433"><ele>65.0</ele><time>2026-04-12T09:20:13.002Z</time></trkpt><trkpt lat="46.01874128622518" lon="12.856639374471664"><ele>65.0</ele><time>2026-04-12T09:20:14.002Z</time></trkpt><trkpt lat="46.01883404101995" lon="12.856474210101954"><ele>65.0</ele><time>2026-04-12T09:20:15.002Z</time></trkpt><trkpt lat="46.01892049115173" lon="12.856321902448304"><ele>65.0</ele><time>2026-04-12T09:20:16.002Z</time></trkpt><trkpt lat="46.019008480338755" lon="12.856163458861515"><ele>65.0</ele><time>2026-04-12T09:20:17.002Z</time></trkpt><trkpt lat="46.0191134671964" lon="12.856015404838956"><ele>65.0</ele><time>2026-04-12T09:20:18.002Z</time></trkpt><trkpt lat="46.01920777756689" lon="12.855848318217179"><ele>65.0</ele><time>2026-04-12T09:20:19.002Z</time></trkpt><trkpt lat="46.01930233577102" lon="12.855680792563108"><ele>65.0</ele><time>2026-04-12T09:20:20.002Z</time></trkpt><trkpt lat="46.01938472731485" lon="12.855497103593295"><ele>65.0</ele><time>2026-04-12T09:20:21.002Z</time></trkpt><trkpt lat="46.01948215372243" lon="12.855327286533361"><ele>65.0</ele><time>2026-04-12T09:20:22.002Z</time></trkpt><trkpt lat="46.01957865338997" lon="12.855158162909964"><ele>65.0</ele><time>2026-04-12T09:20:23.002Z</time></trkpt><trkpt lat="46.01968660802156" lon="12.855007067044966"><ele>65.66666666666667</ele><time>2026-04-12T09:20:24.002Z</time></trkpt><trkpt lat="46.01978589608022" lon="12.85483161682966"><ele>66.33333333333333</ele><time>2026-04-12T09:20:25.002Z</time></trkpt><trkpt lat="46.01988829239073" lon="12.854648415160545"><ele>67.0</ele><time>2026-04-12T09:20:26.002Z</time></trkpt><trkpt lat="46.01999189686572" lon="12.854460526213732"><ele>67.0</ele><time>2026-04-12T09:20:27.002Z</time></trkpt><trkpt lat="46.02007509797118" lon="12.854281173407122"><ele>67.0</ele><time>2026-04-12T09:20:28.002Z</time></trkpt><trkpt lat="46.02015848035077" lon="12.854118309033499"><ele>67.0</ele><time>2026-04-12T09:20:29.002Z</time></trkpt><trkpt lat="46.020261011990556" lon="12.85396091090676"><ele>67.0</ele><time>2026-04-12T09:20:30.002Z</time></trkpt><trkpt lat="46.02035612032771" lon="12.853772034685663"><ele>67.0</ele><time>2026-04-12T09:20:31.002Z</time></trkpt><trkpt lat="46.020460203771904" lon="12.853560190470986"><ele>67.0</ele><time>2026-04-12T09:20:32.002Z</time></trkpt><trkpt lat="46.02055904792125" lon="12.853355204632713"><ele>67.0</ele><time>2026-04-12T09:20:33.002Z</time></trkpt><trkpt lat="46.02065234109828" lon="12.853156664264468"><ele>67.0</ele><time>2026-04-12T09:20:34.002Z</time></trkpt><trkpt lat="46.02074049859641" lon="12.852949957101128"><ele>67.0</ele><time>2026-04-12T09:20:35.002Z</time></trkpt><trkpt lat="46.020816555686174" lon="12.852732485269541"><ele>67.0</ele><time>2026-04-12T09:20:36.002Z</time></trkpt><trkpt lat="46.02088597607257" lon="12.852494428348473"><ele>66.66666666666666</ele><time>2026-04-12T09:20:37.002Z</time></trkpt><trkpt lat="46.02094972012276" lon="12.852220274594043"><ele>66.33333333333333</ele><time>2026-04-12T09:20:38.002Z</time></trkpt><trkpt lat="46.02101273029744" lon="12.851917280662265"><ele>66.0</ele><time>2026-04-12T09:20:39.002Z</time></trkpt><trkpt lat="46.02107599482176" lon="12.85159147125537"><ele>66.0</ele><time>2026-04-12T09:20:40.002Z</time></trkpt><trkpt lat="46.02113463736931" lon="12.851266078645795"><ele>66.0</ele><time>2026-04-12T09:20:41.002Z</time></trkpt><trkpt lat="46.02119187143425" lon="12.850940806734794"><ele>66.0</ele><time>2026-04-12T09:20:42.002Z</time></trkpt><trkpt lat="46.02125047216394" lon="12.850607767850612"><ele>66.0</ele><time>2026-04-12T09:20:43.002Z</time></trkpt><trkpt lat="46.02130924173758" lon="12.85027376924952"><ele>66.0</ele><time>2026-04-12T09:20:44.002Z</time></trkpt><trkpt lat="46.02137107515563" lon="12.84993962809503"><ele>66.0</ele><time>2026-04-12T09:20:45.002Z</time></trkpt><trkpt lat="46.02143764975244" lon="12.849603553539744"><ele>66.0</ele><time>2026-04-12T09:20:46.002Z</time></trkpt><trkpt lat="46.02150540471172" lon="12.849274925459607"><ele>66.0</ele><time>2026-04-12T09:20:47.002Z</time></trkpt><trkpt lat="46.0215700341329" lon="12.848974412770806"><ele>66.0</ele><time>2026-04-12T09:20:48.002Z</time></trkpt><trkpt lat="46.02163005228974" lon="12.848687579590404"><ele>66.0</ele><time>2026-04-12T09:20:49.002Z</time></trkpt><trkpt lat="46.02168393262778" lon="12.848425070602197"><ele>66.0</ele><time>2026-04-12T09:20:50.002Z</time></trkpt><trkpt lat="46.02173296730278" lon="12.848186170246603"><ele>66.25</ele><time>2026-04-12T09:20:51.003Z</time></trkpt><trkpt lat="46.021762769163956" lon="12.847965928656242"><ele>66.5</ele><time>2026-04-12T09:20:52.003Z</time></trkpt><trkpt lat="46.02180318873495" lon="12.847774166372195"><ele>66.75</ele><time>2026-04-12T09:20:53.003Z</time></trkpt><trkpt lat="46.02185935569513" lon="12.847613037272728"><ele>67.0</ele><time>2026-04-12T09:20:54.003Z</time></trkpt><trkpt lat="46.021908714424356" lon="12.847476256336241"><ele>67.0</ele><time>2026-04-12T09:20:55Z</time></trkpt><trkpt lat="46.021963897982275" lon="12.847339826855112"><ele>67.0</ele><time>2026-04-12T09:20:56Z</time></trkpt><trkpt lat="46.0220721446235" lon="12.84722900586553"><ele>67.0</ele><time>2026-04-12T09:20:57Z</time></trkpt><trkpt lat="46.022176281187974" lon="12.847090559821128"><ele>67.0</ele><time>2026-04-12T09:20:58Z</time></trkpt><trkpt lat="46.02225601818276" lon="12.846947265917338"><ele>67.25</ele><time>2026-04-12T09:20:59Z</time></trkpt><trkpt lat="46.02231783337669" lon="12.846772879445993"><ele>67.5</ele><time>2026-04-12T09:21:00Z</time></trkpt><trkpt lat="46.022356280033456" lon="12.846577570984559"><ele>67.75</ele><time>2026-04-12T09:21:01Z</time></trkpt><trkpt lat="46.02238238253009" lon="12.84641477184741"><ele>68.0</ele><time>2026-04-12T09:21:02Z</time></trkpt><trkpt lat="46.02240244280454" lon="12.846271056496569"><ele>68.0</ele><time>2026-04-12T09:21:03Z</time></trkpt><trkpt lat="46.022402103248915" lon="12.846153199046126"><ele>68.0</ele><time>2026-04-12T09:21:04Z</time></trkpt><trkpt lat="46.02243275839077" lon="12.846066837724756"><ele>68.0</ele><time>2026-04-12T09:21:05Z</time></trkpt><trkpt lat="46.02245434188886" lon="12.845972381213585"><ele>68.0</ele><time>2026-04-12T09:21:06Z</time></trkpt><trkpt lat="46.022571382127644" lon="12.845906308255696"><ele>68.0</ele><time>2026-04-12T09:21:07Z</time></trkpt><trkpt lat="46.022677421091245" lon="12.8458089482314"><ele>68.0</ele><time>2026-04-12T09:21:08Z</time></trkpt><trkpt lat="46.022794780107645" lon="12.845706043272855"><ele>68.0</ele><time>2026-04-12T09:21:09Z</time></trkpt><trkpt lat="46.0229167750862" lon="12.84560129358141"><ele>68.0</ele><time>2026-04-12T09:21:10Z</time></trkpt><trkpt lat="46.023041633404844" lon="12.845475123366192"><ele>68.0</ele><time>2026-04-12T09:21:11Z</time></trkpt><trkpt lat="46.02317678187973" lon="12.8453643676265"><ele>68.33333333333334</ele><time>2026-04-12T09:21:12Z</time></trkpt><trkpt lat="46.023333451868695" lon="12.845257524988105"><ele>68.66666666666667</ele><time>2026-04-12T09:21:13Z</time></trkpt><trkpt lat="46.023490849988775" lon="12.845103070268594"><ele>69.0</ele><time>2026-04-12T09:21:14Z</time></trkpt><trkpt lat="46.023663845294045" lon="12.844966219503911"><ele>69.0</ele><time>2026-04-12T09:21:15Z</time></trkpt><trkpt lat="46.02382271683424" lon="12.844836918309477"><ele>69.0</ele><time>2026-04-12T09:21:16Z</time></trkpt><trkpt lat="46.023972134499964" lon="12.844715856291907"><ele>69.0</ele><time>2026-04-12T09:21:17Z</time></trkpt><trkpt lat="46.024113830984774" lon="12.844600977144466"><ele>69.0</ele><time>2026-04-12T09:21:18Z</time></trkpt><trkpt lat="46.024257477564596" lon="12.844475762429507"><ele>69.0</ele><time>2026-04-12T09:21:19Z</time></trkpt><trkpt lat="46.024417539290575" lon="12.844356514354862"><ele>69.0</ele><time>2026-04-12T09:21:20Z</time></trkpt><trkpt lat="46.0245729295931" lon="12.844195472467854"><ele>69.0</ele><time>2026-04-12T09:21:21Z</time></trkpt><trkpt lat="46.02473316916861" lon="12.844017473503161"><ele>69.0</ele><time>2026-04-12T09:21:22Z</time></trkpt><trkpt lat="46.024900031332365" lon="12.843831849266971"><ele>69.0</ele><time>2026-04-12T09:21:23Z</time></trkpt><trkpt lat="46.025070851634354" lon="12.843638778185735"><ele>68.5</ele><time>2026-04-12T09:21:24Z</time></trkpt><trkpt lat="46.02524520487002" lon="12.84343963303168"><ele>68.0</ele><time>2026-04-12T09:21:25Z</time></trkpt><trkpt lat="46.025422916218155" lon="12.843234287630187"><ele>68.0</ele><time>2026-04-12T09:21:26Z</time></trkpt><trkpt lat="46.025595511905145" lon="12.843034853429124"><ele>68.0</ele><time>2026-04-12T09:21:27.001Z</time></trkpt><trkpt lat="46.02574828132665" lon="12.84285458665948"><ele>68.0</ele><time>2026-04-12T09:21:28.001Z</time></trkpt><trkpt lat="46.0258744696807" lon="12.842671880722612"><ele>68.5</ele><time>2026-04-12T09:21:29.001Z</time></trkpt><trkpt lat="46.02599316729226" lon="12.84252776227068"><ele>69.0</ele><time>2026-04-12T09:21:30.001Z</time></trkpt><trkpt lat="46.026102630336965" lon="12.842399973386307"><ele>69.5</ele><time>2026-04-12T09:21:31.001Z</time></trkpt><trkpt lat="46.0262020448145" lon="12.84229523979897"><ele>70.0</ele><time>2026-04-12T09:21:32.001Z</time></trkpt><trkpt lat="46.026297896355445" lon="12.842227820743188"><ele>70.0</ele><time>2026-04-12T09:21:33.001Z</time></trkpt><trkpt lat="46.02639011282611" lon="12.842193721874965"><ele>70.0</ele><time>2026-04-12T09:21:34.001Z</time></trkpt><trkpt lat="46.02648817094822" lon="12.842198431030573"><ele>70.0</ele><time>2026-04-12T09:21:35.001Z</time></trkpt><trkpt lat="46.026609912005135" lon="12.842259705448003"><ele>70.0</ele><time>2026-04-12T09:21:36.001Z</time></trkpt><trkpt lat="46.02675239678209" lon="12.842294392934173"><ele>70.25</ele><time>2026-04-12T09:21:37.001Z</time></trkpt><trkpt lat="46.026878043644295" lon="12.842260881103025"><ele>70.5</ele><time>2026-04-12T09:21:38.001Z</time></trkpt><trkpt lat="46.02701713171977" lon="12.842208017984097"><ele>70.75</ele><time>2026-04-12T09:21:39.001Z</time></trkpt><trkpt lat="46.02716255806893" lon="12.84212614484433"><ele>71.0</ele><time>2026-04-12T09:21:40.001Z</time></trkpt><trkpt lat="46.02731968649798" lon="12.84202560802795"><ele>71.33333333333334</ele><time>2026-04-12T09:21:41.001Z</time></trkpt><trkpt lat="46.02749000490651" lon="12.841901860663963"><ele>71.66666666666667</ele><time>2026-04-12T09:21:42.001Z</time></trkpt><trkpt lat="46.02766323874855" lon="12.841764520414168"><ele>72.0</ele><time>2026-04-12T09:21:43.001Z</time></trkpt><trkpt lat="46.02784411567922" lon="12.841613766012772"><ele>72.0</ele><time>2026-04-12T09:21:44.001Z</time></trkpt><trkpt lat="46.028031722773214" lon="12.841456810793938"><ele>72.0</ele><time>2026-04-12T09:21:45.001Z</time></trkpt><trkpt lat="46.02822652379457" lon="12.841297337955417"><ele>72.0</ele><time>2026-04-12T09:21:46.001Z</time></trkpt><trkpt lat="46.02842604601824" lon="12.841137145277264"><ele>72.33333333333333</ele><time>2026-04-12T09:21:47.001Z</time></trkpt><trkpt lat="46.02861895237987" lon="12.84098345143093"><ele>72.66666666666666</ele><time>2026-04-12T09:21:48.001Z</time></trkpt><trkpt lat="46.028803079061575" lon="12.840867451359813"><ele>73.0</ele><time>2026-04-12T09:21:49.001Z</time></trkpt><trkpt lat="46.02897114346884" lon="12.840743961923518"><ele>73.0</ele><time>2026-04-12T09:21:50.001Z</time></trkpt><trkpt lat="46.02913376457363" lon="12.840619294865823"><ele>73.0</ele><time>2026-04-12T09:21:51.001Z</time></trkpt><trkpt lat="46.02928986584107" lon="12.84049938643085"><ele>73.0</ele><time>2026-04-12T09:21:52.001Z</time></trkpt><trkpt lat="46.029439170811344" lon="12.840362337554131"><ele>73.0</ele><time>2026-04-12T09:21:53.001Z</time></trkpt><trkpt lat="46.029579865081324" lon="12.840268037865062"><ele>73.0</ele><time>2026-04-12T09:21:54.001Z</time></trkpt><trkpt lat="46.02969709650554" lon="12.840177545871953"><ele>73.0</ele><time>2026-04-12T09:21:55.001Z</time></trkpt><trkpt lat="46.02978688000113" lon="12.840103083224804"><ele>73.0</ele><time>2026-04-12T09:21:56.001Z</time></trkpt><trkpt lat="46.02985869770493" lon="12.840020078131797"><ele>73.0</ele><time>2026-04-12T09:21:57.001Z</time></trkpt><trkpt lat="46.029936250946285" lon="12.839966948020844"><ele>73.0</ele><time>2026-04-12T09:21:58.001Z</time></trkpt><trkpt lat="46.02997227880317" lon="12.83976745476758"><ele>73.0</ele><time>2026-04-12T09:21:59.001Z</time></trkpt><trkpt lat="46.03003881313356" lon="12.839592189540973"><ele>73.0</ele><time>2026-04-12T09:22:00.001Z</time></trkpt><trkpt lat="46.030114745339915" lon="12.839402885463656"><ele>73.0</ele><time>2026-04-12T09:22:01.001Z</time></trkpt><trkpt lat="46.03018950155723" lon="12.839240333356734"><ele>73.0</ele><time>2026-04-12T09:22:02.001Z</time></trkpt><trkpt lat="46.0302535625135" lon="12.83909736359104"><ele>73.0</ele><time>2026-04-12T09:22:03.001Z</time></trkpt><trkpt lat="46.03030731423473" lon="12.838988936857058"><ele>73.0</ele><time>2026-04-12T09:22:04.001Z</time></trkpt><trkpt lat="46.03034318588378" lon="12.838896737720006"><ele>73.0</ele><time>2026-04-12T09:22:06.001Z</time></trkpt><trkpt lat="46.030272908967135" lon="12.838780832550855"><ele>73.0</ele><time>2026-04-12T09:22:09.001Z</time></trkpt><trkpt lat="46.03019360126011" lon="12.838712358906912"><ele>73.0</ele><time>2026-04-12T09:22:10.001Z</time></trkpt><trkpt lat="46.03011159084255" lon="12.838646230016899"><ele>73.0</ele><time>2026-04-12T09:22:11.002Z</time></trkpt><trkpt lat="46.03001702078262" lon="12.838569973344288"><ele>73.0</ele><time>2026-04-12T09:22:12.002Z</time></trkpt><trkpt lat="46.029895501542626" lon="12.838472343279792"><ele>73.0</ele><time>2026-04-12T09:22:13.002Z</time></trkpt><trkpt lat="46.0297686090675" lon="12.838370980450081"><ele>72.5</ele><time>2026-04-12T09:22:14.002Z</time></trkpt><trkpt lat="46.02964123398252" lon="12.83826923186945"><ele>72.0</ele><time>2026-04-12T09:22:15.002Z</time></trkpt><trkpt lat="46.02951448035609" lon="12.838167980064226"><ele>71.5</ele><time>2026-04-12T09:22:16.002Z</time></trkpt><trkpt lat="46.02938657871856" lon="12.83806600813679"><ele>71.0</ele><time>2026-04-12T09:22:17.002Z</time></trkpt><trkpt lat="46.02926735926089" lon="12.837972019097919"><ele>71.0</ele><time>2026-04-12T09:22:18.002Z</time></trkpt><trkpt lat="46.02915450615656" lon="12.837883049175495"><ele>71.0</ele><time>2026-04-12T09:22:19.002Z</time></trkpt><trkpt lat="46.02904607590187" lon="12.837798118029863"><ele>71.0</ele><time>2026-04-12T09:22:20.002Z</time></trkpt><trkpt lat="46.02893897044259" lon="12.837715005206416"><ele>71.0</ele><time>2026-04-12T09:22:21.002Z</time></trkpt><trkpt lat="46.0288279512248" lon="12.837628855399688"><ele>71.33333333333334</ele><time>2026-04-12T09:22:22.002Z</time></trkpt><trkpt lat="46.028693218821886" lon="12.837524610439003"><ele>71.66666666666667</ele><time>2026-04-12T09:22:23.002Z</time></trkpt><trkpt lat="46.02854541924261" lon="12.837410529346599"><ele>72.0</ele><time>2026-04-12T09:22:24.002Z</time></trkpt><trkpt lat="46.028397352331474" lon="12.83729624181196"><ele>72.0</ele><time>2026-04-12T09:22:25.002Z</time></trkpt><trkpt lat="46.0282436760574" lon="12.837177624667865"><ele>72.0</ele><time>2026-04-12T09:22:26.002Z</time></trkpt><trkpt lat="46.02809615783012" lon="12.837059768445952"><ele>72.0</ele><time>2026-04-12T09:22:27.002Z</time></trkpt><trkpt lat="46.02795011101475" lon="12.836940606167643"><ele>72.0</ele><time>2026-04-12T09:22:28.002Z</time></trkpt><trkpt lat="46.027804764497276" lon="12.836823574808134"><ele>72.0</ele><time>2026-04-12T09:22:29.002Z</time></trkpt><trkpt lat="46.02766057119936" lon="12.836708340383579"><ele>72.0</ele><time>2026-04-12T09:22:30.002Z</time></trkpt><trkpt lat="46.027516666848" lon="12.836593336900878"><ele>71.75</ele><time>2026-04-12T09:22:31.002Z</time></trkpt><trkpt lat="46.02738069715645" lon="12.836484635194989"><ele>71.5</ele><time>2026-04-12T09:22:32.002Z</time></trkpt><trkpt lat="46.02725127762019" lon="12.836381160876709"><ele>71.25</ele><time>2026-04-12T09:22:33.002Z</time></trkpt><trkpt lat="46.02713608778098" lon="12.836291347154228"><ele>71.0</ele><time>2026-04-12T09:22:34.002Z</time></trkpt><trkpt lat="46.0270337801266" lon="12.83621354606881"><ele>71.0</ele><time>2026-04-12T09:22:35.002Z</time></trkpt><trkpt lat="46.02695814601005" lon="12.836153818766288"><ele>71.0</ele><time>2026-04-12T09:22:36.002Z</time></trkpt><trkpt lat="46.02690492080547" lon="12.836099955416834"><ele>71.0</ele><time>2026-04-12T09:22:37.002Z</time></trkpt><trkpt lat="46.02685684414931" lon="12.835985826597167"><ele>71.0</ele><time>2026-04-12T09:22:39.002Z</time></trkpt><trkpt lat="46.02690717906906" lon="12.835889451919611"><ele>71.0</ele><time>2026-04-12T09:22:40.002Z</time></trkpt><trkpt lat="46.026971053835155" lon="12.835790344326432"><ele>71.0</ele><time>2026-04-12T09:22:41.002Z</time></trkpt><trkpt lat="46.02704796797153" lon="12.83562058613135"><ele>70.66666666666667</ele><time>2026-04-12T09:22:42.002Z</time></trkpt><trkpt lat="46.027129474200756" lon="12.835425362981951"><ele>70.33333333333333</ele><time>2026-04-12T09:22:43.002Z</time></trkpt><trkpt lat="46.02721136560508" lon="12.835190482967331"><ele>70.0</ele><time>2026-04-12T09:22:44.002Z</time></trkpt><trkpt lat="46.027284998305774" lon="12.834972369106756"><ele>70.0</ele><time>2026-04-12T09:22:45.002Z</time></trkpt><trkpt lat="46.02735281280494" lon="12.834772241963092"><ele>70.0</ele><time>2026-04-12T09:22:46.002Z</time></trkpt><trkpt lat="46.02741703348694" lon="12.834581386352578"><ele>70.0</ele><time>2026-04-12T09:22:47.002Z</time></trkpt><trkpt lat="46.02747690566056" lon="12.834382002932932"><ele>70.25</ele><time>2026-04-12T09:22:48.002Z</time></trkpt><trkpt lat="46.027533981546405" lon="12.834162650514523"><ele>70.5</ele><time>2026-04-12T09:22:49.002Z</time></trkpt><trkpt lat="46.02757390805461" lon="12.833965440646873"><ele>70.75</ele><time>2026-04-12T09:22:50.002Z</time></trkpt><trkpt lat="46.0276140881518" lon="12.83377929500453"><ele>71.0</ele><time>2026-04-12T09:22:51.002Z</time></trkpt><trkpt lat="46.02767515720234" lon="12.833638189903837"><ele>71.0</ele><time>2026-04-12T09:22:52.002Z</time></trkpt><trkpt lat="46.02771228763006" lon="12.83351235103719"><ele>71.0</ele><time>2026-04-12T09:22:53.002Z</time></trkpt><trkpt lat="46.02772920182599" lon="12.83342248967176"><ele>71.0</ele><time>2026-04-12T09:22:54.002Z</time></trkpt><trkpt lat="46.02767095207012" lon="12.83324954470518"><ele>71.0</ele><time>2026-04-12T09:22:56.003Z</time></trkpt><trkpt lat="46.02760475037652" lon="12.833175028501785"><ele>71.0</ele><time>2026-04-12T09:22:57.003Z</time></trkpt><trkpt lat="46.02748152530076" lon="12.833157924671132"><ele>71.0</ele><time>2026-04-12T09:22:58.003Z</time></trkpt><trkpt lat="46.02736722614433" lon="12.833101954569303"><ele>71.0</ele><time>2026-04-12T09:22:59.003Z</time></trkpt><trkpt lat="46.02724666546503" lon="12.833035543176656"><ele>71.0</ele><time>2026-04-12T09:23:00.003Z</time></trkpt><trkpt lat="46.02712089236363" lon="12.832963507528513"><ele>71.0</ele><time>2026-04-12T09:23:01Z</time></trkpt><trkpt lat="46.026988579937466" lon="12.832887255566892"><ele>71.0</ele><time>2026-04-12T09:23:02Z</time></trkpt><trkpt lat="46.02686627745478" lon="12.832812271820094"><ele>71.0</ele><time>2026-04-12T09:23:03Z</time></trkpt><trkpt lat="46.02675123496713" lon="12.83274899484917"><ele>71.0</ele><time>2026-04-12T09:23:04Z</time></trkpt><trkpt lat="46.02663092642379" lon="12.832694263006532"><ele>71.0</ele><time>2026-04-12T09:23:05Z</time></trkpt><trkpt lat="46.02652315195632" lon="12.832695655207162"><ele>71.0</ele><time>2026-04-12T09:23:06Z</time></trkpt><trkpt lat="46.02641526994286" lon="12.832693506989596"><ele>71.0</ele><time>2026-04-12T09:23:07Z</time></trkpt><trkpt lat="46.02627880094795" lon="12.832693200117037"><ele>71.0</ele><time>2026-04-12T09:23:08Z</time></trkpt><trkpt lat="46.02614669664632" lon="12.832742962273244"><ele>71.0</ele><time>2026-04-12T09:23:09Z</time></trkpt><trkpt lat="46.026013712945144" lon="12.832774516871785"><ele>71.0</ele><time>2026-04-12T09:23:10Z</time></trkpt><trkpt lat="46.025877921669206" lon="12.832810226541172"><ele>71.0</ele><time>2026-04-12T09:23:11Z</time></trkpt><trkpt lat="46.025748577595664" lon="12.832845654972111"><ele>71.0</ele><time>2026-04-12T09:23:12Z</time></trkpt><trkpt lat="46.02563453514782" lon="12.832875207765401"><ele>71.0</ele><time>2026-04-12T09:23:13Z</time></trkpt><trkpt lat="46.02553200446204" lon="12.832911967526798"><ele>71.0</ele><time>2026-04-12T09:23:14Z</time></trkpt><trkpt lat="46.02543796742028" lon="12.832941780938256"><ele>71.0</ele><time>2026-04-12T09:23:15Z</time></trkpt><trkpt lat="46.025366270596905" lon="12.832959780930619"><ele>71.0</ele><time>2026-04-12T09:23:16Z</time></trkpt><trkpt lat="46.02529286187216" lon="12.832976564129941"><ele>71.0</ele><time>2026-04-12T09:23:18Z</time></trkpt><trkpt lat="46.02527946434379" lon="12.832839828842562"><ele>71.0</ele><time>2026-04-12T09:23:22Z</time></trkpt><trkpt lat="46.025279549394966" lon="12.832682919585155"><ele>71.0</ele><time>2026-04-12T09:23:23Z</time></trkpt><trkpt lat="46.02527683953324" lon="12.832462829728685"><ele>70.0</ele><time>2026-04-12T09:23:24Z</time></trkpt><trkpt lat="46.025274491917024" lon="12.832246153012145"><ele>69.0</ele><time>2026-04-12T09:23:25Z</time></trkpt><trkpt lat="46.02527321314742" lon="12.831975633737565"><ele>68.0</ele><time>2026-04-12T09:23:26Z</time></trkpt><trkpt lat="46.0252709925832" lon="12.831689745342334"><ele>68.0</ele><time>2026-04-12T09:23:27Z</time></trkpt><trkpt lat="46.02526856899221" lon="12.831377718373929"><ele>68.0</ele><time>2026-04-12T09:23:28Z</time></trkpt><trkpt lat="46.02526636074901" lon="12.831093416498298"><ele>68.0</ele><time>2026-04-12T09:23:29Z</time></trkpt><trkpt lat="46.025264336523655" lon="12.830832805964917"><ele>68.33333333333334</ele><time>2026-04-12T09:23:30.001Z</time></trkpt><trkpt lat="46.02526239216364" lon="12.830582477927669"><ele>68.66666666666667</ele><time>2026-04-12T09:23:31.001Z</time></trkpt><trkpt lat="46.02526058704619" lon="12.830350076755353"><ele>69.0</ele><time>2026-04-12T09:23:32.001Z</time></trkpt><trkpt lat="46.025258843208924" lon="12.830125565224547"><ele>69.0</ele><time>2026-04-12T09:23:33.001Z</time></trkpt><trkpt lat="46.025257208553256" lon="12.829915110130328"><ele>69.0</ele><time>2026-04-12T09:23:34.001Z</time></trkpt><trkpt lat="46.0252439347102" lon="12.82971611263626"><ele>69.0</ele><time>2026-04-12T09:23:35.001Z</time></trkpt><trkpt lat="46.02524347425329" lon="12.829529070105762"><ele>69.0</ele><time>2026-04-12T09:23:36.001Z</time></trkpt><trkpt lat="46.025253882382145" lon="12.829352003096497"><ele>68.8</ele><time>2026-04-12T09:23:37.001Z</time></trkpt><trkpt lat="46.02525648810538" lon="12.829184918084424"><ele>68.60000000000001</ele><time>2026-04-12T09:23:38.001Z</time></trkpt><trkpt lat="46.02524045878106" lon="12.829027905509816"><ele>68.4</ele><time>2026-04-12T09:23:39.001Z</time></trkpt><trkpt lat="46.025237596257696" lon="12.828877405866372"><ele>68.2</ele><time>2026-04-12T09:23:40.001Z</time></trkpt><trkpt lat="46.02524815109139" lon="12.828732102490475"><ele>68.0</ele><time>2026-04-12T09:23:41.001Z</time></trkpt><trkpt lat="46.02522736689936" lon="12.828572157624441"><ele>68.4</ele><time>2026-04-12T09:23:42.001Z</time></trkpt><trkpt lat="46.025219056801724" lon="12.828408372338236"><ele>68.8</ele><time>2026-04-12T09:23:43.001Z</time></trkpt><trkpt lat="46.02522550849053" lon="12.828239320759993"><ele>69.2</ele><time>2026-04-12T09:23:44.001Z</time></trkpt><trkpt lat="46.025216104736145" lon="12.828083355053225"><ele>69.6</ele><time>2026-04-12T09:23:45.001Z</time></trkpt><trkpt lat="46.025205763738256" lon="12.827937228395887"><ele>70.0</ele><time>2026-04-12T09:23:46.001Z</time></trkpt><trkpt lat="46.02517746811757" lon="12.827792958736513"><ele>69.75</ele><time>2026-04-12T09:23:47.001Z</time></trkpt><trkpt lat="46.02516470523389" lon="12.827623575337737"><ele>69.5</ele><time>2026-04-12T09:23:48.001Z</time></trkpt><trkpt lat="46.02515087923575" lon="12.827426119668848"><ele>69.25</ele><time>2026-04-12T09:23:49.001Z</time></trkpt><trkpt lat="46.02513314143014" lon="12.82724676936159"><ele>69.0</ele><time>2026-04-12T09:23:50.001Z</time></trkpt><trkpt lat="46.025118090927826" lon="12.827082690737475"><ele>69.0</ele><time>2026-04-12T09:23:51.001Z</time></trkpt><trkpt lat="46.02510572022951" lon="12.826932690997937"><ele>69.0</ele><time>2026-04-12T09:23:52.001Z</time></trkpt><trkpt lat="46.0250908268837" lon="12.826794525630017"><ele>69.0</ele><time>2026-04-12T09:23:53.001Z</time></trkpt><trkpt lat="46.025081873086364" lon="12.826689010293187"><ele>69.0</ele><time>2026-04-12T09:23:54.001Z</time></trkpt><trkpt lat="46.0250845924691" lon="12.826580053862353"><ele>69.0</ele><time>2026-04-12T09:23:56.001Z</time></trkpt><trkpt lat="46.025154142878606" lon="12.826512814974636"><ele>69.0</ele><time>2026-04-12T09:23:58.001Z</time></trkpt><trkpt lat="46.02513716648145" lon="12.826236211376843"><ele>69.0</ele><time>2026-04-12T09:24:06.001Z</time></trkpt><trkpt lat="46.025089123868845" lon="12.826108957425905"><ele>69.0</ele><time>2026-04-12T09:24:07.001Z</time></trkpt><trkpt lat="46.025039734448974" lon="12.825978752850249"><ele>69.0</ele><time>2026-04-12T09:24:08.001Z</time></trkpt><trkpt lat="46.02498398936883" lon="12.825860362758444"><ele>69.0</ele><time>2026-04-12T09:24:09.001Z</time></trkpt><trkpt lat="46.02495377795581" lon="12.825747728723531"><ele>69.0</ele><time>2026-04-12T09:24:10.001Z</time></trkpt><trkpt lat="46.02492885193341" lon="12.825645988665572"><ele>69.0</ele><time>2026-04-12T09:24:11.001Z</time></trkpt><trkpt lat="46.02492603866111" lon="12.825541682371098"><ele>69.0</ele><time>2026-04-12T09:24:12.001Z</time></trkpt><trkpt lat="46.02491075999795" lon="12.825450269824245"><ele>69.0</ele><time>2026-04-12T09:24:13.001Z</time></trkpt><trkpt lat="46.02488674077819" lon="12.825314123382764"><ele>69.0</ele><time>2026-04-12T09:24:15.001Z</time></trkpt><trkpt lat="46.024879663321606" lon="12.825200391157589"><ele>69.0</ele><time>2026-04-12T09:24:17.002Z</time></trkpt><trkpt lat="46.024866232153514" lon="12.825093226647358"><ele>69.0</ele><time>2026-04-12T09:24:19.002Z</time></trkpt><trkpt lat="46.0248679493758" lon="12.824939877348283"><ele>68.8</ele><time>2026-04-12T09:24:21.002Z</time></trkpt><trkpt lat="46.02487734205081" lon="12.824747602431176"><ele>68.60000000000001</ele><time>2026-04-12T09:24:23.002Z</time></trkpt><trkpt lat="46.024874956243444" lon="12.824642043146724"><ele>68.4</ele><time>2026-04-12T09:24:24.002Z</time></trkpt><trkpt lat="46.02487113883654" lon="12.824534759268085"><ele>68.2</ele><time>2026-04-12T09:24:25.002Z</time></trkpt><trkpt lat="46.02488197488294" lon="12.824425177552621"><ele>68.0</ele><time>2026-04-12T09:24:26.002Z</time></trkpt><trkpt lat="46.02489364057639" lon="12.824293409800873"><ele>68.0</ele><time>2026-04-12T09:24:28.002Z</time></trkpt><trkpt lat="46.024962576163205" lon="12.824063963948207"><ele>68.0</ele><time>2026-04-12T09:26:49.002Z</time></trkpt><trkpt lat="46.02495172474249" lon="12.823931872696955"><ele>68.0</ele><time>2026-04-12T09:26:50.002Z</time></trkpt><trkpt lat="46.024942115823926" lon="12.823778212733231"><ele>68.0</ele><time>2026-04-12T09:26:51.002Z</time></trkpt><trkpt lat="46.024939292684245" lon="12.823610705134625"><ele>68.25</ele><time>2026-04-12T09:26:52.002Z</time></trkpt><trkpt lat="46.024939065593266" lon="12.823431951546183"><ele>68.5</ele><time>2026-04-12T09:26:53.002Z</time></trkpt><trkpt lat="46.02493518222033" lon="12.823244561222886"><ele>68.75</ele><time>2026-04-12T09:26:54.002Z</time></trkpt><trkpt lat="46.024940049120886" lon="12.823048882968418"><ele>69.0</ele><time>2026-04-12T09:26:55.002Z</time></trkpt><trkpt lat="46.02493741627353" lon="12.822874361926358"><ele>69.0</ele><time>2026-04-12T09:26:56.002Z</time></trkpt><trkpt lat="46.02493565314099" lon="12.822721807162303"><ele>69.0</ele><time>2026-04-12T09:26:57.002Z</time></trkpt><trkpt lat="46.02493297532834" lon="12.822583866248"><ele>69.0</ele><time>2026-04-12T09:26:58.002Z</time></trkpt><trkpt lat="46.02491740583352" lon="12.822455003744617"><ele>69.0</ele><time>2026-04-12T09:26:59.002Z</time></trkpt><trkpt lat="46.024886503673535" lon="12.822311823697138"><ele>69.0</ele><time>2026-04-12T09:27:00.002Z</time></trkpt><trkpt lat="46.024839637821906" lon="12.822166119394968"><ele>68.5</ele><time>2026-04-12T09:27:01.002Z</time></trkpt><trkpt lat="46.02476977235361" lon="12.822029105448928"><ele>68.0</ele><time>2026-04-12T09:27:02.002Z</time></trkpt><trkpt lat="46.024671973342045" lon="12.821909381577502"><ele>67.5</ele><time>2026-04-12T09:27:03.002Z</time></trkpt><trkpt lat="46.02455832351139" lon="12.821801361757174"><ele>67.0</ele><time>2026-04-12T09:27:04.002Z</time></trkpt><trkpt lat="46.02443068524524" lon="12.821701738008954"><ele>67.0</ele><time>2026-04-12T09:27:05.002Z</time></trkpt><trkpt lat="46.02427367720933" lon="12.821600752915304"><ele>67.0</ele><time>2026-04-12T09:27:06.002Z</time></trkpt><trkpt lat="46.024097211523" lon="12.821497006900149"><ele>67.0</ele><time>2026-04-12T09:27:07.002Z</time></trkpt><trkpt lat="46.02391027290798" lon="12.821386840552993"><ele>66.66666666666666</ele><time>2026-04-12T09:27:08.002Z</time></trkpt><trkpt lat="46.023704817817844" lon="12.821250808497876"><ele>66.33333333333333</ele><time>2026-04-12T09:27:09.002Z</time></trkpt><trkpt lat="46.02350242525603" lon="12.821118293514985"><ele>66.0</ele><time>2026-04-12T09:27:10.002Z</time></trkpt><trkpt lat="46.023308321423706" lon="12.820980555826093"><ele>66.0</ele><time>2026-04-12T09:27:11.002Z</time></trkpt><trkpt lat="46.02311361980196" lon="12.820844967093755"><ele>66.0</ele><time>2026-04-12T09:27:12.003Z</time></trkpt><trkpt lat="46.02291983704583" lon="12.82070806911089"><ele>66.0</ele><time>2026-04-12T09:27:13.001Z</time></trkpt><trkpt lat="46.022729247930464" lon="12.820570228144085"><ele>66.0</ele><time>2026-04-12T09:27:14.001Z</time></trkpt><trkpt lat="46.022551120014185" lon="12.820444345369161"><ele>66.0</ele><time>2026-04-12T09:27:15.001Z</time></trkpt><trkpt lat="46.02238435407248" lon="12.820324296050154"><ele>66.0</ele><time>2026-04-12T09:27:16.001Z</time></trkpt><trkpt lat="46.02222667353709" lon="12.82020903688844"><ele>66.33333333333333</ele><time>2026-04-12T09:27:17.001Z</time></trkpt><trkpt lat="46.02207720548708" lon="12.820095528561673"><ele>66.66666666666666</ele><time>2026-04-12T09:27:18.001Z</time></trkpt><trkpt lat="46.021930243759165" lon="12.819984778528188"><ele>67.0</ele><time>2026-04-12T09:27:19.001Z</time></trkpt><trkpt lat="46.021786236549104" lon="12.819875348791328"><ele>66.66666666666666</ele><time>2026-04-12T09:27:20Z</time></trkpt><trkpt lat="46.021638229942376" lon="12.819775565854252"><ele>66.33333333333333</ele><time>2026-04-12T09:27:21.001Z</time></trkpt><trkpt lat="46.02148775105514" lon="12.819682553765507"><ele>66.0</ele><time>2026-04-12T09:27:22Z</time></trkpt><trkpt lat="46.02133681302665" lon="12.819600955684678"><ele>66.0</ele><time>2026-04-12T09:27:23Z</time></trkpt><trkpt lat="46.02118168910742" lon="12.819521408630559"><ele>66.0</ele><time>2026-04-12T09:27:24Z</time></trkpt><trkpt lat="46.02102050647779" lon="12.819449877437863"><ele>66.0</ele><time>2026-04-12T09:27:25Z</time></trkpt><trkpt lat="46.020850514517434" lon="12.819388695058146"><ele>66.0</ele><time>2026-04-12T09:27:26Z</time></trkpt><trkpt lat="46.02067818153192" lon="12.819332896653387"><ele>66.0</ele><time>2026-04-12T09:27:27Z</time></trkpt><trkpt lat="46.02049935743825" lon="12.819278425326315"><ele>66.0</ele><time>2026-04-12T09:27:28Z</time></trkpt><trkpt lat="46.020318085245506" lon="12.81922655937194"><ele>66.0</ele><time>2026-04-12T09:27:29Z</time></trkpt><trkpt lat="46.020133430015" lon="12.819184157645145"><ele>66.0</ele><time>2026-04-12T09:27:30Z</time></trkpt><trkpt lat="46.019943147727105" lon="12.819146599214102"><ele>66.0</ele><time>2026-04-12T09:27:31Z</time></trkpt><trkpt lat="46.01974821720829" lon="12.819109029334046"><ele>66.0</ele><time>2026-04-12T09:27:32Z</time></trkpt><trkpt lat="46.019550548021726" lon="12.81906974707916"><ele>66.0</ele><time>2026-04-12T09:27:33Z</time></trkpt><trkpt lat="46.019350615081606" lon="12.81902808882349"><ele>66.0</ele><time>2026-04-12T09:27:34.001Z</time></trkpt><trkpt lat="46.01914656060735" lon="12.81898492036391"><ele>65.33333333333333</ele><time>2026-04-12T09:27:35.001Z</time></trkpt><trkpt lat="46.01894399288936" lon="12.818944221592647"><ele>64.66666666666666</ele><time>2026-04-12T09:27:36.001Z</time></trkpt><trkpt lat="46.0187404173998" lon="12.818905093370459"><ele>64.0</ele><time>2026-04-12T09:27:37.001Z</time></trkpt><trkpt lat="46.01853670827071" lon="12.818861300418213"><ele>64.0</ele><time>2026-04-12T09:27:38.001Z</time></trkpt><trkpt lat="46.01832997391824" lon="12.818812984147774"><ele>64.0</ele><time>2026-04-12T09:27:39.001Z</time></trkpt><trkpt lat="46.018124401087476" lon="12.818759022664816"><ele>64.0</ele><time>2026-04-12T09:27:40.001Z</time></trkpt><trkpt lat="46.01791878887386" lon="12.818695216180705"><ele>63.33333333333333</ele><time>2026-04-12T09:27:41.001Z</time></trkpt><trkpt lat="46.01771302220069" lon="12.818622084227238"><ele>62.66666666666667</ele><time>2026-04-12T09:27:42.001Z</time></trkpt><trkpt lat="46.017508160657854" lon="12.818543282831826"><ele>62.0</ele><time>2026-04-12T09:27:43.001Z</time></trkpt><trkpt lat="46.01730125807248" lon="12.818463467892563"><ele>62.0</ele><time>2026-04-12T09:27:44.001Z</time></trkpt><trkpt lat="46.017092750009624" lon="12.818376769739688"><ele>62.0</ele><time>2026-04-12T09:27:45.001Z</time></trkpt><trkpt lat="46.0168872457802" lon="12.818293677779078"><ele>62.0</ele><time>2026-04-12T09:27:46.001Z</time></trkpt><trkpt lat="46.016682880121444" lon="12.818211265732124"><ele>62.0</ele><time>2026-04-12T09:27:47.001Z</time></trkpt><trkpt lat="46.016484347527516" lon="12.81813070251268"><ele>62.0</ele><time>2026-04-12T09:27:48.001Z</time></trkpt><trkpt lat="46.016296610854646" lon="12.818056262913533"><ele>62.0</ele><time>2026-04-12T09:27:49.001Z</time></trkpt><trkpt lat="46.01612400075936" lon="12.817961830495651"><ele>62.0</ele><time>2026-04-12T09:27:50.001Z</time></trkpt><trkpt lat="46.015956943448224" lon="12.817893932202205"><ele>62.0</ele><time>2026-04-12T09:27:51.001Z</time></trkpt><trkpt lat="46.01579039360277" lon="12.817826240144344"><ele>62.0</ele><time>2026-04-12T09:27:52.001Z</time></trkpt><trkpt lat="46.01561254343179" lon="12.817774557457627"><ele>62.0</ele><time>2026-04-12T09:27:53.001Z</time></trkpt><trkpt lat="46.015431667670164" lon="12.817698434670353"><ele>62.0</ele><time>2026-04-12T09:27:54.001Z</time></trkpt><trkpt lat="46.01524383253485" lon="12.81762191152302"><ele>62.0</ele><time>2026-04-12T09:27:55.001Z</time></trkpt><trkpt lat="46.015050518562745" lon="12.817543194101969"><ele>61.333333333333336</ele><time>2026-04-12T09:27:56.001Z</time></trkpt><trkpt lat="46.014854769957964" lon="12.817463242772181"><ele>60.66666666666667</ele><time>2026-04-12T09:27:57.001Z</time></trkpt><trkpt lat="46.014667019760026" lon="12.81738752356812"><ele>60.0</ele><time>2026-04-12T09:27:58.001Z</time></trkpt><trkpt lat="46.0144893855288" lon="12.817317960965415"><ele>60.0</ele><time>2026-04-12T09:27:59.001Z</time></trkpt><trkpt lat="46.014317041088376" lon="12.81724752507054"><ele>60.0</ele><time>2026-04-12T09:28:00.001Z</time></trkpt><trkpt lat="46.01414484426724" lon="12.817174927154873"><ele>60.0</ele><time>2026-04-12T09:28:01.001Z</time></trkpt><trkpt lat="46.013972036681764" lon="12.817101375191973"><ele>59.66666666666667</ele><time>2026-04-12T09:28:02.001Z</time></trkpt><trkpt lat="46.01379539403984" lon="12.81702821993109"><ele>59.333333333333336</ele><time>2026-04-12T09:28:03.001Z</time></trkpt><trkpt lat="46.01361587491465" lon="12.816955588613169"><ele>59.0</ele><time>2026-04-12T09:28:04.001Z</time></trkpt><trkpt lat="46.01343171574318" lon="12.816881810398877"><ele>59.0</ele><time>2026-04-12T09:28:05.001Z</time></trkpt><trkpt lat="46.013243495918694" lon="12.816807706409909"><ele>59.0</ele><time>2026-04-12T09:28:06.001Z</time></trkpt><trkpt lat="46.01305148147268" lon="12.81673099033949"><ele>59.0</ele><time>2026-04-12T09:28:07.001Z</time></trkpt><trkpt lat="46.01285419064119" lon="12.816651552925709"><ele>59.0</ele><time>2026-04-12T09:28:08.001Z</time></trkpt><trkpt lat="46.01265380355072" lon="12.81656501511199"><ele>59.0</ele><time>2026-04-12T09:28:09.001Z</time></trkpt><trkpt lat="46.01245006308761" lon="12.816478515189047"><ele>59.0</ele><time>2026-04-12T09:28:10.001Z</time></trkpt><trkpt lat="46.01224198714331" lon="12.816392579172202"><ele>58.66666666666667</ele><time>2026-04-12T09:28:11.001Z</time></trkpt><trkpt lat="46.01202872923584" lon="12.816309129460775"><ele>58.33333333333333</ele><time>2026-04-12T09:28:12.001Z</time></trkpt><trkpt lat="46.01181047200994" lon="12.816223264166066"><ele>58.0</ele><time>2026-04-12T09:28:13.001Z</time></trkpt><trkpt lat="46.01159130591668" lon="12.816110009127053"><ele>58.0</ele><time>2026-04-12T09:28:14.001Z</time></trkpt><trkpt lat="46.011359874094346" lon="12.816040874628897"><ele>58.0</ele><time>2026-04-12T09:28:15.001Z</time></trkpt><trkpt lat="46.011128826277464" lon="12.815946423424748"><ele>57.5</ele><time>2026-04-12T09:28:16.001Z</time></trkpt><trkpt lat="46.010896090480756" lon="12.815850985145934"><ele>57.0</ele><time>2026-04-12T09:28:17.001Z</time></trkpt><trkpt lat="46.01065834726018" lon="12.815753579029023"><ele>58.5</ele><time>2026-04-12T09:28:18.001Z</time></trkpt><trkpt lat="46.01041983413316" lon="12.81565697301649"><ele>60.0</ele><time>2026-04-12T09:28:19.001Z</time></trkpt><trkpt lat="46.01018543676551" lon="12.815560174260517"><ele>59.5</ele><time>2026-04-12T09:28:20.001Z</time></trkpt><trkpt lat="46.009964113288916" lon="12.81546822717024"><ele>59.0</ele><time>2026-04-12T09:28:21.001Z</time></trkpt><trkpt lat="46.00975166982885" lon="12.815377277557454"><ele>59.0</ele><time>2026-04-12T09:28:22.001Z</time></trkpt><trkpt lat="46.009541635794164" lon="12.81529131127166"><ele>59.0</ele><time>2026-04-12T09:28:23.001Z</time></trkpt><trkpt lat="46.009335840380004" lon="12.815206359556026"><ele>59.0</ele><time>2026-04-12T09:28:24.001Z</time></trkpt><trkpt lat="46.00913350529653" lon="12.815123843236258"><ele>58.333333333333336</ele><time>2026-04-12T09:28:25.001Z</time></trkpt><trkpt lat="46.00893303470102" lon="12.815043003774973"><ele>57.66666666666667</ele><time>2026-04-12T09:28:26.001Z</time></trkpt><trkpt lat="46.00873302380447" lon="12.814961684026247"><ele>57.0</ele><time>2026-04-12T09:28:27.001Z</time></trkpt><trkpt lat="46.008528866440265" lon="12.814879729217058"><ele>56.33333333333333</ele><time>2026-04-12T09:28:28.001Z</time></trkpt><trkpt lat="46.008323389525046" lon="12.814799666095528"><ele>55.666666666666664</ele><time>2026-04-12T09:28:29.002Z</time></trkpt><trkpt lat="46.00811911729588" lon="12.814716845287476"><ele>55.0</ele><time>2026-04-12T09:28:30.002Z</time></trkpt><trkpt lat="46.00791404194813" lon="12.814632414085427"><ele>55.0</ele><time>2026-04-12T09:28:31.002Z</time></trkpt><trkpt lat="46.00770875695574" lon="12.81454790775695"><ele>55.0</ele><time>2026-04-12T09:28:32.002Z</time></trkpt><trkpt lat="46.007500983070656" lon="12.814462713439319"><ele>55.0</ele><time>2026-04-12T09:28:33.002Z</time></trkpt><trkpt lat="46.007293327460296" lon="12.814379608579054"><ele>55.0</ele><time>2026-04-12T09:28:34.002Z</time></trkpt><trkpt lat="46.0070860883223" lon="12.814293294883996"><ele>55.0</ele><time>2026-04-12T09:28:35.002Z</time></trkpt><trkpt lat="46.00688130391428" lon="12.814185563857038"><ele>55.0</ele><time>2026-04-12T09:28:36.002Z</time></trkpt><trkpt lat="46.00667571833883" lon="12.814100385547643"><ele>55.0</ele><time>2026-04-12T09:28:37.002Z</time></trkpt><trkpt lat="46.00647180112885" lon="12.814015700469763"><ele>55.0</ele><time>2026-04-12T09:28:38.002Z</time></trkpt><trkpt lat="46.00627040490847" lon="12.813932060377892"><ele>55.0</ele><time>2026-04-12T09:28:39.002Z</time></trkpt><trkpt lat="46.00606962277245" lon="12.813848675338827"><ele>55.0</ele><time>2026-04-12T09:28:40.002Z</time></trkpt><trkpt lat="46.00587169818088" lon="12.81376769328112"><ele>55.0</ele><time>2026-04-12T09:28:41.002Z</time></trkpt><trkpt lat="46.005671544006695" lon="12.81370981019208"><ele>55.0</ele><time>2026-04-12T09:28:42.002Z</time></trkpt><trkpt lat="46.00547931490267" lon="12.813612550221084"><ele>55.0</ele><time>2026-04-12T09:28:43.002Z</time></trkpt><trkpt lat="46.00528807060601" lon="12.813505294865015"><ele>55.0</ele><time>2026-04-12T09:28:44.002Z</time></trkpt><trkpt lat="46.00509871277423" lon="12.813382395526222"><ele>55.0</ele><time>2026-04-12T09:28:45.002Z</time></trkpt><trkpt lat="46.00491399312339" lon="12.81324503380614"><ele>54.666666666666664</ele><time>2026-04-12T09:28:46.002Z</time></trkpt><trkpt lat="46.00473266730686" lon="12.813094953952383"><ele>54.33333333333333</ele><time>2026-04-12T09:28:47.002Z</time></trkpt><trkpt lat="46.00455626284599" lon="12.812932325030168"><ele>54.0</ele><time>2026-04-12T09:28:48.002Z</time></trkpt><trkpt lat="46.00438260010484" lon="12.812754157357844"><ele>54.0</ele><time>2026-04-12T09:28:49.002Z</time></trkpt><trkpt lat="46.00421445513175" lon="12.812563046844925"><ele>54.0</ele><time>2026-04-12T09:28:50.002Z</time></trkpt><trkpt lat="46.004048506256375" lon="12.8123606763072"><ele>54.0</ele><time>2026-04-12T09:28:51.002Z</time></trkpt><trkpt lat="46.003879720115116" lon="12.812143353031908"><ele>54.0</ele><time>2026-04-12T09:28:52.002Z</time></trkpt><trkpt lat="46.003711491349236" lon="12.811924020777129"><ele>54.0</ele><time>2026-04-12T09:28:53.002Z</time></trkpt><trkpt lat="46.003540714270855" lon="12.81170281837683"><ele>54.0</ele><time>2026-04-12T09:28:54.002Z</time></trkpt><trkpt lat="46.00336913604416" lon="12.81147589853901"><ele>54.0</ele><time>2026-04-12T09:28:55.002Z</time></trkpt><trkpt lat="46.00319791107238" lon="12.811246698868464"><ele>53.66666666666667</ele><time>2026-04-12T09:28:56.002Z</time></trkpt><trkpt lat="46.00302948284581" lon="12.811020966280424"><ele>53.333333333333336</ele><time>2026-04-12T09:28:57.002Z</time></trkpt><trkpt lat="46.00287138986334" lon="12.810809653957708"><ele>53.0</ele><time>2026-04-12T09:28:58.002Z</time></trkpt><trkpt lat="46.00272058343107" lon="12.81061047750605"><ele>53.0</ele><time>2026-04-12T09:28:59.002Z</time></trkpt><trkpt lat="46.00257709917716" lon="12.810417110946421"><ele>53.0</ele><time>2026-04-12T09:29:00.002Z</time></trkpt><trkpt lat="46.00243969846087" lon="12.810234399282297"><ele>53.0</ele><time>2026-04-12T09:29:01.002Z</time></trkpt><trkpt lat="46.002307069467406" lon="12.810057121175367"><ele>53.0</ele><time>2026-04-12T09:29:02.002Z</time></trkpt><trkpt lat="46.00218067006052" lon="12.809886745795911"><ele>53.0</ele><time>2026-04-12T09:29:03.002Z</time></trkpt><trkpt lat="46.0020576224892" lon="12.809723525769744"><ele>53.0</ele><time>2026-04-12T09:29:04.002Z</time></trkpt><trkpt lat="46.0019349890172" lon="12.809563130606696"><ele>53.0</ele><time>2026-04-12T09:29:05.002Z</time></trkpt><trkpt lat="46.00181173180313" lon="12.809398617172873"><ele>53.0</ele><time>2026-04-12T09:29:06.002Z</time></trkpt><trkpt lat="46.00168624307397" lon="12.8092364689886"><ele>53.0</ele><time>2026-04-12T09:29:07.002Z</time></trkpt><trkpt lat="46.001560010502374" lon="12.809072177463214"><ele>52.0</ele><time>2026-04-12T09:29:08.002Z</time></trkpt><trkpt lat="46.00142983724277" lon="12.80890788904689"><ele>51.0</ele><time>2026-04-12T09:29:09.002Z</time></trkpt><trkpt lat="46.00130154017582" lon="12.808742712291055"><ele>50.0</ele><time>2026-04-12T09:29:10.002Z</time></trkpt><trkpt lat="46.00117419897627" lon="12.808575663961165"><ele>50.333333333333336</ele><time>2026-04-12T09:29:11.002Z</time></trkpt><trkpt lat="46.00104914454205" lon="12.8084077251239"><ele>50.66666666666667</ele><time>2026-04-12T09:29:12.002Z</time></trkpt><trkpt lat="46.00092747778812" lon="12.808241422455474"><ele>51.0</ele><time>2026-04-12T09:29:13.002Z</time></trkpt><trkpt lat="46.000807552777594" lon="12.808076887450667"><ele>51.0</ele><time>2026-04-12T09:29:14.002Z</time></trkpt><trkpt lat="46.00069241391065" lon="12.80792360742856"><ele>51.0</ele><time>2026-04-12T09:29:15.002Z</time></trkpt><trkpt lat="46.00058127967115" lon="12.807777131121474"><ele>51.0</ele><time>2026-04-12T09:29:16.002Z</time></trkpt><trkpt lat="46.00047749869437" lon="12.807637372657446"><ele>51.0</ele><time>2026-04-12T09:29:17.002Z</time></trkpt><trkpt lat="46.000379970288854" lon="12.807510625702317"><ele>51.0</ele><time>2026-04-12T09:29:18.003Z</time></trkpt><trkpt lat="46.00029058984606" lon="12.807400647322918"><ele>51.0</ele><time>2026-04-12T09:29:19Z</time></trkpt><trkpt lat="46.000213674259356" lon="12.807292680188196"><ele>51.0</ele><time>2026-04-12T09:29:20Z</time></trkpt><trkpt lat="46.00016392528689" lon="12.807185925421242"><ele>51.0</ele><time>2026-04-12T09:29:21Z</time></trkpt><trkpt lat="46.00013530329783" lon="12.807071476566417"><ele>51.0</ele><time>2026-04-12T09:29:22Z</time></trkpt><trkpt lat="46.00011894751274" lon="12.80694636432785"><ele>51.0</ele><time>2026-04-12T09:29:23Z</time></trkpt><trkpt lat="46.00012083505966" lon="12.806806167966126"><ele>51.0</ele><time>2026-04-12T09:29:24Z</time></trkpt><trkpt lat="46.00014670211682" lon="12.806648149235233"><ele>51.0</ele><time>2026-04-12T09:29:25Z</time></trkpt><trkpt lat="46.00019829882412" lon="12.806463186113529"><ele>51.0</ele><time>2026-04-12T09:29:26Z</time></trkpt><trkpt lat="46.00027560349606" lon="12.806243728589456"><ele>50.33333333333333</ele><time>2026-04-12T09:29:27Z</time></trkpt><trkpt lat="46.000374703058235" lon="12.805997349488228"><ele>49.666666666666664</ele><time>2026-04-12T09:29:28Z</time></trkpt><trkpt lat="46.00049229819577" lon="12.805738896314251"><ele>49.0</ele><time>2026-04-12T09:29:29Z</time></trkpt><trkpt lat="46.00062899632347" lon="12.805479715157652"><ele>49.0</ele><time>2026-04-12T09:29:30Z</time></trkpt><trkpt lat="46.00077962943161" lon="12.80523407983818"><ele>49.0</ele><time>2026-04-12T09:29:31Z</time></trkpt><trkpt lat="46.000927178064465" lon="12.805012546019887"><ele>49.0</ele><time>2026-04-12T09:29:32Z</time></trkpt><trkpt lat="46.001061873452485" lon="12.804802284308781"><ele>49.33333333333333</ele><time>2026-04-12T09:29:33Z</time></trkpt><trkpt lat="46.00118919187537" lon="12.8045917958609"><ele>49.66666666666667</ele><time>2026-04-12T09:29:34Z</time></trkpt><trkpt lat="46.0013128028383" lon="12.804366350688582"><ele>50.0</ele><time>2026-04-12T09:29:35Z</time></trkpt><trkpt lat="46.001427829591684" lon="12.804132927638205"><ele>50.0</ele><time>2026-04-12T09:29:36Z</time></trkpt><trkpt lat="46.001531855534054" lon="12.803883939170802"><ele>50.0</ele><time>2026-04-12T09:29:37Z</time></trkpt><trkpt lat="46.00162080275703" lon="12.803626005234406"><ele>50.0</ele><time>2026-04-12T09:29:38Z</time></trkpt><trkpt lat="46.001695104144964" lon="12.803366003683179"><ele>50.66666666666667</ele><time>2026-04-12T09:29:39Z</time></trkpt><trkpt lat="46.00175253984682" lon="12.803104352528825"><ele>51.33333333333333</ele><time>2026-04-12T09:29:40Z</time></trkpt><trkpt lat="46.00179762223201" lon="12.802834492278922"><ele>52.0</ele><time>2026-04-12T09:29:41Z</time></trkpt><trkpt lat="46.00182137702112" lon="12.802538111280235"><ele>52.5</ele><time>2026-04-12T09:29:42Z</time></trkpt><trkpt lat="46.00183604236273" lon="12.802207478788658"><ele>53.0</ele><time>2026-04-12T09:29:43Z</time></trkpt><trkpt lat="46.001846651734624" lon="12.801839373388326"><ele>52.5</ele><time>2026-04-12T09:29:44Z</time></trkpt><trkpt lat="46.00185510019653" lon="12.801450472545755"><ele>52.0</ele><time>2026-04-12T09:29:45Z</time></trkpt><trkpt lat="46.00186355844555" lon="12.801034072026855"><ele>51.0</ele><time>2026-04-12T09:29:46Z</time></trkpt><trkpt lat="46.00187400370434" lon="12.80060809758431"><ele>50.0</ele><time>2026-04-12T09:29:47Z</time></trkpt><trkpt lat="46.00188329719379" lon="12.800197071871455"><ele>49.0</ele><time>2026-04-12T09:29:48.001Z</time></trkpt><trkpt lat="46.00189187748854" lon="12.799820769785745"><ele>48.0</ele><time>2026-04-12T09:29:49.001Z</time></trkpt><trkpt lat="46.0018969191012" lon="12.799462244569376"><ele>48.5</ele><time>2026-04-12T09:29:50.001Z</time></trkpt><trkpt lat="46.00190125139752" lon="12.799127309983138"><ele>49.0</ele><time>2026-04-12T09:29:51.001Z</time></trkpt><trkpt lat="46.00190637999951" lon="12.79880173101177"><ele>49.0</ele><time>2026-04-12T09:29:52.001Z</time></trkpt><trkpt lat="46.00190884685984" lon="12.79847479241913"><ele>49.0</ele><time>2026-04-12T09:29:53.001Z</time></trkpt><trkpt lat="46.00190422338809" lon="12.798148991448889"><ele>49.0</ele><time>2026-04-12T09:29:54.001Z</time></trkpt><trkpt lat="46.00188750415299" lon="12.79781320940991"><ele>49.0</ele><time>2026-04-12T09:29:55.001Z</time></trkpt><trkpt lat="46.00185568665589" lon="12.797465274642562"><ele>51.5</ele><time>2026-04-12T09:29:56.001Z</time></trkpt><trkpt lat="46.00183985303215" lon="12.79709581476453"><ele>54.0</ele><time>2026-04-12T09:29:57.001Z</time></trkpt><trkpt lat="46.00179150686443" lon="12.796716639230878"><ele>54.0</ele><time>2026-04-12T09:29:58.001Z</time></trkpt><trkpt lat="46.00174221124187" lon="12.796327617168588"><ele>54.0</ele><time>2026-04-12T09:29:59.001Z</time></trkpt><trkpt lat="46.00169192090929" lon="12.795930232061211"><ele>51.5</ele><time>2026-04-12T09:30:00.001Z</time></trkpt><trkpt lat="46.00164255024752" lon="12.79554336207717"><ele>49.0</ele><time>2026-04-12T09:30:01.001Z</time></trkpt><trkpt lat="46.00159633817392" lon="12.795183138163118"><ele>49.0</ele><time>2026-04-12T09:30:02.001Z</time></trkpt><trkpt lat="46.001553233951235" lon="12.794844474090644"><ele>49.0</ele><time>2026-04-12T09:30:03.001Z</time></trkpt><trkpt lat="46.00151422449117" lon="12.794525644351559"><ele>49.0</ele><time>2026-04-12T09:30:04.001Z</time></trkpt><trkpt lat="46.001477695890436" lon="12.794226166224915"><ele>49.0</ele><time>2026-04-12T09:30:05.001Z</time></trkpt><trkpt lat="46.00144174163464" lon="12.793936720477088"><ele>49.0</ele><time>2026-04-12T09:30:06.001Z</time></trkpt><trkpt lat="46.00140558635254" lon="12.7936456564617"><ele>50.0</ele><time>2026-04-12T09:30:07.001Z</time></trkpt><trkpt lat="46.00137070850277" lon="12.793355552504234"><ele>51.0</ele><time>2026-04-12T09:30:08.001Z</time></trkpt><trkpt lat="46.001336945158926" lon="12.793066440025449"><ele>52.0</ele><time>2026-04-12T09:30:09.001Z</time></trkpt><trkpt lat="46.001289270957564" lon="12.79279967060406"><ele>51.666666666666664</ele><time>2026-04-12T09:30:10.001Z</time></trkpt><trkpt lat="46.00126124361243" lon="12.792546774870694"><ele>51.33333333333333</ele><time>2026-04-12T09:30:11.001Z</time></trkpt><trkpt lat="46.00123775651685" lon="12.79230802447639"><ele>51.0</ele><time>2026-04-12T09:30:12.001Z</time></trkpt><trkpt lat="46.001215192618275" lon="12.792076722954551"><ele>51.0</ele><time>2026-04-12T09:30:13.001Z</time></trkpt><trkpt lat="46.00119403421616" lon="12.7918401428373"><ele>51.0</ele><time>2026-04-12T09:30:14.001Z</time></trkpt><trkpt lat="46.00117590077048" lon="12.791597910778473"><ele>51.0</ele><time>2026-04-12T09:30:15.001Z</time></trkpt><trkpt lat="46.001160494382006" lon="12.79135093244922"><ele>51.0</ele><time>2026-04-12T09:30:16.001Z</time></trkpt><trkpt lat="46.001148387896876" lon="12.791096510623715"><ele>51.0</ele><time>2026-04-12T09:30:17.001Z</time></trkpt><trkpt lat="46.001142332125525" lon="12.790833879790002"><ele>51.0</ele><time>2026-04-12T09:30:18.001Z</time></trkpt><trkpt lat="46.00114435467159" lon="12.79056262422527"><ele>51.0</ele><time>2026-04-12T09:30:19.001Z</time></trkpt><trkpt lat="46.00114906684436" lon="12.79028942086072"><ele>51.0</ele><time>2026-04-12T09:30:20.001Z</time></trkpt><trkpt lat="46.001153604008074" lon="12.79000993520602"><ele>51.0</ele><time>2026-04-12T09:30:21.001Z</time></trkpt><trkpt lat="46.00116225899743" lon="12.789722504666551"><ele>51.0</ele><time>2026-04-12T09:30:22.001Z</time></trkpt><trkpt lat="46.001181736766924" lon="12.789438338972856"><ele>51.0</ele><time>2026-04-12T09:30:23.001Z</time></trkpt><trkpt lat="46.001210744286915" lon="12.78916326363789"><ele>51.0</ele><time>2026-04-12T09:30:24.001Z</time></trkpt><trkpt lat="46.00124464724131" lon="12.78889916707"><ele>51.0</ele><time>2026-04-12T09:30:25.001Z</time></trkpt><trkpt lat="46.001289535522" lon="12.788649210553883"><ele>51.0</ele><time>2026-04-12T09:30:26.001Z</time></trkpt><trkpt lat="46.001345645898795" lon="12.788418156424287"><ele>51.0</ele><time>2026-04-12T09:30:27.001Z</time></trkpt><trkpt lat="46.00140632942821" lon="12.78820287700722"><ele>51.0</ele><time>2026-04-12T09:30:28.001Z</time></trkpt><trkpt lat="46.00147628466796" lon="12.788006182710983"><ele>51.0</ele><time>2026-04-12T09:30:29.001Z</time></trkpt><trkpt lat="46.00155798733138" lon="12.78781463162707"><ele>51.0</ele><time>2026-04-12T09:30:30.001Z</time></trkpt><trkpt lat="46.00164910973841" lon="12.787628343999565"><ele>51.0</ele><time>2026-04-12T09:30:31.001Z</time></trkpt><trkpt lat="46.00175233716167" lon="12.787452534711097"><ele>51.0</ele><time>2026-04-12T09:30:32.001Z</time></trkpt><trkpt lat="46.00186078156428" lon="12.787291196413086"><ele>51.0</ele><time>2026-04-12T09:30:33.001Z</time></trkpt><trkpt lat="46.00197406931461" lon="12.787145461244064"><ele>51.0</ele><time>2026-04-12T09:30:34.001Z</time></trkpt><trkpt lat="46.00209508322264" lon="12.7870115313743"><ele>51.0</ele><time>2026-04-12T09:30:35.001Z</time></trkpt><trkpt lat="46.00221687399917" lon="12.786886032376996"><ele>51.0</ele><time>2026-04-12T09:30:36.001Z</time></trkpt><trkpt lat="46.00233036508101" lon="12.786778287860187"><ele>51.0</ele><time>2026-04-12T09:30:37.001Z</time></trkpt><trkpt lat="46.00244287986634" lon="12.786689194016587"><ele>51.199999999999996</ele><time>2026-04-12T09:30:38.001Z</time></trkpt><trkpt lat="46.002553605659045" lon="12.786635532621053"><ele>51.4</ele><time>2026-04-12T09:30:39.002Z</time></trkpt><trkpt lat="46.00266369824205" lon="12.78661608901375"><ele>51.6</ele><time>2026-04-12T09:30:40.002Z</time></trkpt><trkpt lat="46.00277058856826" lon="12.786627800431399"><ele>51.8</ele><time>2026-04-12T09:30:41.002Z</time></trkpt><trkpt lat="46.002878011910646" lon="12.786669382591024"><ele>52.0</ele><time>2026-04-12T09:30:42.002Z</time></trkpt><trkpt lat="46.00296797172192" lon="12.786743345616099"><ele>52.2</ele><time>2026-04-12T09:30:43.002Z</time></trkpt><trkpt lat="46.00303911601022" lon="12.78685004393501"><ele>52.400000000000006</ele><time>2026-04-12T09:30:44.002Z</time></trkpt><trkpt lat="46.00309702407998" lon="12.786993064192465"><ele>52.599999999999994</ele><time>2026-04-12T09:30:45.002Z</time></trkpt><trkpt lat="46.003129892384635" lon="12.787148631462818"><ele>52.8</ele><time>2026-04-12T09:30:46.002Z</time></trkpt><trkpt lat="46.003130645004305" lon="12.78730620796277"><ele>53.0</ele><time>2026-04-12T09:30:47.002Z</time></trkpt><trkpt lat="46.003094743538846" lon="12.787455027101416"><ele>53.0</ele><time>2026-04-12T09:30:48.002Z</time></trkpt><trkpt lat="46.00303634896399" lon="12.787602209274986"><ele>53.0</ele><time>2026-04-12T09:30:49.002Z</time></trkpt><trkpt lat="46.00296247658537" lon="12.787718932292021"><ele>53.0</ele><time>2026-04-12T09:30:50.002Z</time></trkpt><trkpt lat="46.002882819939124" lon="12.787793523333246"><ele>53.0</ele><time>2026-04-12T09:30:51.002Z</time></trkpt><trkpt lat="46.002792751787446" lon="12.787823770591281"><ele>53.0</ele><time>2026-04-12T09:30:52.002Z</time></trkpt><trkpt lat="46.00268053419519" lon="12.78781510024896"><ele>53.0</ele><time>2026-04-12T09:30:53.002Z</time></trkpt><trkpt lat="46.002554626317654" lon="12.787773950774202"><ele>53.0</ele><time>2026-04-12T09:30:54.002Z</time></trkpt><trkpt lat="46.00244183870153" lon="12.787696598039606"><ele>53.0</ele><time>2026-04-12T09:30:55.002Z</time></trkpt><trkpt lat="46.00233619760567" lon="12.787568455648259"><ele>53.0</ele><time>2026-04-12T09:30:56.002Z</time></trkpt><trkpt lat="46.0022215988906" lon="12.787396724023253"><ele>53.0</ele><time>2026-04-12T09:30:57.002Z</time></trkpt><trkpt lat="46.002098366302974" lon="12.787179894509555"><ele>53.0</ele><time>2026-04-12T09:30:58.002Z</time></trkpt><trkpt lat="46.001971573423646" lon="12.786934661446804"><ele>53.0</ele><time>2026-04-12T09:30:59.002Z</time></trkpt><trkpt lat="46.0018430900957" lon="12.786671293789281"><ele>53.0</ele><time>2026-04-12T09:31:00.002Z</time></trkpt><trkpt lat="46.00170879249563" lon="12.786390134208629"><ele>53.0</ele><time>2026-04-12T09:31:01.002Z</time></trkpt><trkpt lat="46.001569513733756" lon="12.786095930093282"><ele>52.5</ele><time>2026-04-12T09:31:02.002Z</time></trkpt><trkpt lat="46.00142524581776" lon="12.785792979205338"><ele>52.0</ele><time>2026-04-12T09:31:03.002Z</time></trkpt><trkpt lat="46.00127493587239" lon="12.785482463049588"><ele>51.5</ele><time>2026-04-12T09:31:04.002Z</time></trkpt><trkpt lat="46.00112797263686" lon="12.785170777167277"><ele>51.0</ele><time>2026-04-12T09:31:05.002Z</time></trkpt><trkpt lat="46.000986379999866" lon="12.784865763211418"><ele>51.0</ele><time>2026-04-12T09:31:06.002Z</time></trkpt><trkpt lat="46.00086439536419" lon="12.784551247940938"><ele>51.0</ele><time>2026-04-12T09:31:07.002Z</time></trkpt><trkpt lat="46.00073384816111" lon="12.78426228093626"><ele>50.66666666666667</ele><time>2026-04-12T09:31:08.002Z</time></trkpt><trkpt lat="46.00061203498634" lon="12.78399414144848"><ele>50.333333333333336</ele><time>2026-04-12T09:31:09.002Z</time></trkpt><trkpt lat="46.00049521238624" lon="12.783735156135677"><ele>50.0</ele><time>2026-04-12T09:31:10.002Z</time></trkpt><trkpt lat="46.000372141008484" lon="12.783503931104152"><ele>50.0</ele><time>2026-04-12T09:31:11.002Z</time></trkpt><trkpt lat="46.000266132498304" lon="12.783268496592616"><ele>50.0</ele><time>2026-04-12T09:31:12.002Z</time></trkpt><trkpt lat="46.00016094985122" lon="12.783033094156515"><ele>50.0</ele><time>2026-04-12T09:31:13.002Z</time></trkpt><trkpt lat="46.00005758079986" lon="12.782796732019355"><ele>49.333333333333336</ele><time>2026-04-12T09:31:14.002Z</time></trkpt><trkpt lat="45.999955221619395" lon="12.782558932579951"><ele>48.66666666666667</ele><time>2026-04-12T09:31:15.002Z</time></trkpt><trkpt lat="45.99985004196053" lon="12.78232273110488"><ele>48.0</ele><time>2026-04-12T09:31:16.002Z</time></trkpt><trkpt lat="45.99974431766454" lon="12.782087629594946"><ele>48.0</ele><time>2026-04-12T09:31:17.002Z</time></trkpt><trkpt lat="45.99963730443909" lon="12.781852502722769"><ele>48.0</ele><time>2026-04-12T09:31:18.002Z</time></trkpt><trkpt lat="45.99953021933014" lon="12.781616991939256"><ele>48.0</ele><time>2026-04-12T09:31:19.002Z</time></trkpt><trkpt lat="45.99942096520201" lon="12.781377338142168"><ele>48.0</ele><time>2026-04-12T09:31:20.002Z</time></trkpt><trkpt lat="45.99931149151315" lon="12.781135842688846"><ele>48.0</ele><time>2026-04-12T09:31:21.002Z</time></trkpt><trkpt lat="45.99919915417971" lon="12.780894320403014"><ele>48.0</ele><time>2026-04-12T09:31:22.002Z</time></trkpt><trkpt lat="45.99908376487249" lon="12.780653751231444"><ele>47.333333333333336</ele><time>2026-04-12T09:31:23.002Z</time></trkpt><trkpt lat="45.99898215336063" lon="12.780398965073426"><ele>46.66666666666667</ele><time>2026-04-12T09:31:24.002Z</time></trkpt><trkpt lat="45.99886878357018" lon="12.780150963256755"><ele>46.0</ele><time>2026-04-12T09:31:25Z</time></trkpt><trkpt lat="45.99874079050008" lon="12.77991499643892"><ele>46.0</ele><time>2026-04-12T09:31:26Z</time></trkpt><trkpt lat="45.998626203981594" lon="12.779662914083607"><ele>46.0</ele><time>2026-04-12T09:31:27Z</time></trkpt><trkpt lat="45.99850819985613" lon="12.77941304462887"><ele>46.0</ele><time>2026-04-12T09:31:28Z</time></trkpt><trkpt lat="45.99838803419218" lon="12.779165168721587"><ele>46.333333333333336</ele><time>2026-04-12T09:31:29Z</time></trkpt><trkpt lat="45.99826337077662" lon="12.778915854962221"><ele>46.666666666666664</ele><time>2026-04-12T09:31:30Z</time></trkpt><trkpt lat="45.99813690400791" lon="12.778664905868922"><ele>47.0</ele><time>2026-04-12T09:31:31Z</time></trkpt><trkpt lat="45.998005827772566" lon="12.778414566278416"><ele>47.0</ele><time>2026-04-12T09:31:32Z</time></trkpt><trkpt lat="45.99787164193595" lon="12.778166644839827"><ele>47.0</ele><time>2026-04-12T09:31:33Z</time></trkpt><trkpt lat="45.99774637367944" lon="12.777898732703957"><ele>47.0</ele><time>2026-04-12T09:31:34Z</time></trkpt><trkpt lat="45.99760802307551" lon="12.777650020710716"><ele>46.33333333333333</ele><time>2026-04-12T09:31:35Z</time></trkpt><trkpt lat="45.9974558638194" lon="12.777420759760098"><ele>45.666666666666664</ele><time>2026-04-12T09:31:36Z</time></trkpt><trkpt lat="45.997317114298276" lon="12.777183399503667"><ele>45.0</ele><time>2026-04-12T09:31:37Z</time></trkpt><trkpt lat="45.99717814308946" lon="12.776952311560837"><ele>45.333333333333336</ele><time>2026-04-12T09:31:38Z</time></trkpt><trkpt lat="45.99704281471403" lon="12.776728977658554"><ele>45.66666666666667</ele><time>2026-04-12T09:31:39Z</time></trkpt><trkpt lat="45.996913672598126" lon="12.776521905953928"><ele>46.0</ele><time>2026-04-12T09:31:40Z</time></trkpt><trkpt lat="45.99678896273287" lon="12.776326596225296"><ele>46.0</ele><time>2026-04-12T09:31:41Z</time></trkpt><trkpt lat="45.9966708189945" lon="12.776143122647198"><ele>46.0</ele><time>2026-04-12T09:31:42Z</time></trkpt><trkpt lat="45.99655462880836" lon="12.775963957285095"><ele>46.0</ele><time>2026-04-12T09:31:43Z</time></trkpt><trkpt lat="45.99643716117057" lon="12.775785442178766"><ele>46.0</ele><time>2026-04-12T09:31:44Z</time></trkpt><trkpt lat="45.99631634279029" lon="12.77560691137995"><ele>46.0</ele><time>2026-04-12T09:31:45Z</time></trkpt><trkpt lat="45.99619339347147" lon="12.775431221210715"><ele>46.0</ele><time>2026-04-12T09:31:46Z</time></trkpt><trkpt lat="45.996065193735795" lon="12.775252011482625"><ele>45.333333333333336</ele><time>2026-04-12T09:31:47Z</time></trkpt><trkpt lat="45.995934796343526" lon="12.775076708224985"><ele>44.666666666666664</ele><time>2026-04-12T09:31:48Z</time></trkpt><trkpt lat="45.995801437350046" lon="12.774904282313619"><ele>44.0</ele><time>2026-04-12T09:31:49Z</time></trkpt><trkpt lat="45.99566635776209" lon="12.774730312615084"><ele>44.0</ele><time>2026-04-12T09:31:50Z</time></trkpt><trkpt lat="45.99552972798451" lon="12.774556691727547"><ele>44.0</ele><time>2026-04-12T09:31:51Z</time></trkpt><trkpt lat="45.99539066092298" lon="12.774381875462147"><ele>44.0</ele><time>2026-04-12T09:31:52Z</time></trkpt><trkpt lat="45.995249540519616" lon="12.774205429742649"><ele>44.0</ele><time>2026-04-12T09:31:53Z</time></trkpt><trkpt lat="45.995109311460716" lon="12.774032466862685"><ele>44.0</ele><time>2026-04-12T09:31:54Z</time></trkpt><trkpt lat="45.994969722759045" lon="12.773863601278606"><ele>44.0</ele><time>2026-04-12T09:31:55Z</time></trkpt><trkpt lat="45.99482988667782" lon="12.773698424369888"><ele>43.666666666666664</ele><time>2026-04-12T09:31:56Z</time></trkpt><trkpt lat="45.99469028770556" lon="12.773536996460365"><ele>43.333333333333336</ele><time>2026-04-12T09:31:57Z</time></trkpt><trkpt lat="45.99454839130868" lon="12.773375740913155"><ele>43.0</ele><time>2026-04-12T09:31:58Z</time></trkpt><trkpt lat="45.9944050156747" lon="12.773215474814362"><ele>43.0</ele><time>2026-04-12T09:31:59Z</time></trkpt><trkpt lat="45.99425899593865" lon="12.773053730000807"><ele>43.0</ele><time>2026-04-12T09:32:00.001Z</time></trkpt><trkpt lat="45.9941136817784" lon="12.772896879749345"><ele>43.0</ele><time>2026-04-12T09:32:01.001Z</time></trkpt><trkpt lat="45.993963113222215" lon="12.772738609938674"><ele>43.66666666666667</ele><time>2026-04-12T09:32:02.001Z</time></trkpt><trkpt lat="45.99380918446974" lon="12.772581519488465"><ele>44.333333333333336</ele><time>2026-04-12T09:32:03.001Z</time></trkpt><trkpt lat="45.99364959436778" lon="12.772424568927482"><ele>45.0</ele><time>2026-04-12T09:32:04.001Z</time></trkpt><trkpt lat="45.99348428756557" lon="12.772266536423691"><ele>44.666666666666664</ele><time>2026-04-12T09:32:05.001Z</time></trkpt><trkpt lat="45.993315527658574" lon="12.772111150793881"><ele>44.33333333333333</ele><time>2026-04-12T09:32:06.001Z</time></trkpt><trkpt lat="45.99313656519268" lon="12.771947601186783"><ele>44.0</ele><time>2026-04-12T09:32:07.001Z</time></trkpt><trkpt lat="45.99295320535187" lon="12.771782590000868"><ele>44.0</ele><time>2026-04-12T09:32:08.001Z</time></trkpt><trkpt lat="45.99276719413959" lon="12.771615877859302"><ele>44.0</ele><time>2026-04-12T09:32:09.001Z</time></trkpt><trkpt lat="45.99257469621132" lon="12.771447974561038"><ele>44.0</ele><time>2026-04-12T09:32:10.001Z</time></trkpt><trkpt lat="45.99237232012175" lon="12.771281691890604"><ele>43.5</ele><time>2026-04-12T09:32:11.001Z</time></trkpt><trkpt lat="45.99216041662237" lon="12.771117851185231"><ele>43.0</ele><time>2026-04-12T09:32:12.001Z</time></trkpt><trkpt lat="45.991939319138325" lon="12.770947859027357"><ele>43.0</ele><time>2026-04-12T09:32:13.001Z</time></trkpt><trkpt lat="45.99171407262826" lon="12.770776010944768"><ele>43.0</ele><time>2026-04-12T09:32:14.001Z</time></trkpt><trkpt lat="45.99148867750075" lon="12.770609233313555"><ele>42.5</ele><time>2026-04-12T09:32:15.001Z</time></trkpt><trkpt lat="45.9912639328334" lon="12.770443775997302"><ele>42.0</ele><time>2026-04-12T09:32:16.001Z</time></trkpt><trkpt lat="45.99104160595255" lon="12.770285373526754"><ele>42.0</ele><time>2026-04-12T09:32:17.001Z</time></trkpt><trkpt lat="45.9908190663334" lon="12.770132896454744"><ele>42.0</ele><time>2026-04-12T09:32:18.001Z</time></trkpt><trkpt lat="45.99059893700782" lon="12.769987065086893"><ele>42.0</ele><time>2026-04-12T09:32:19.001Z</time></trkpt><trkpt lat="45.990377643868705" lon="12.769844333478686"><ele>42.0</ele><time>2026-04-12T09:32:20.001Z</time></trkpt><trkpt lat="45.99015536559148" lon="12.76970385905579"><ele>42.0</ele><time>2026-04-12T09:32:21.001Z</time></trkpt><trkpt lat="45.989934865479015" lon="12.769566602153976"><ele>42.0</ele><time>2026-04-12T09:32:22.001Z</time></trkpt><trkpt lat="45.98971393643196" lon="12.769433295134466"><ele>42.0</ele><time>2026-04-12T09:32:23.001Z</time></trkpt><trkpt lat="45.98949576444976" lon="12.769301171378194"><ele>42.0</ele><time>2026-04-12T09:32:24.001Z</time></trkpt><trkpt lat="45.98927999319944" lon="12.769167637638125"><ele>41.5</ele><time>2026-04-12T09:32:25.001Z</time></trkpt><trkpt lat="45.989066189655865" lon="12.76903469306119"><ele>41.0</ele><time>2026-04-12T09:32:26.001Z</time></trkpt><trkpt lat="45.98885397448359" lon="12.76890141288929"><ele>41.0</ele><time>2026-04-12T09:32:27.001Z</time></trkpt><trkpt lat="45.98864112700985" lon="12.768770248767035"><ele>41.0</ele><time>2026-04-12T09:32:28.001Z</time></trkpt><trkpt lat="45.98842891855936" lon="12.76864397927889"><ele>40.5</ele><time>2026-04-12T09:32:29.001Z</time></trkpt><trkpt lat="45.98821940496775" lon="12.7685165750157"><ele>40.0</ele><time>2026-04-12T09:32:30.001Z</time></trkpt><trkpt lat="45.98801186222535" lon="12.76838803239977"><ele>40.0</ele><time>2026-04-12T09:32:31.001Z</time></trkpt><trkpt lat="45.9878040157576" lon="12.768260974360013"><ele>40.0</ele><time>2026-04-12T09:32:32.001Z</time></trkpt><trkpt lat="45.98760136829094" lon="12.768134892757399"><ele>40.0</ele><time>2026-04-12T09:32:33.001Z</time></trkpt><trkpt lat="45.98739662175964" lon="12.768006574801994"><ele>39.0</ele><time>2026-04-12T09:32:34.001Z</time></trkpt><trkpt lat="45.98719423091611" lon="12.767880792936007"><ele>38.0</ele><time>2026-04-12T09:32:35.001Z</time></trkpt><trkpt lat="45.98699033303721" lon="12.76775727816315"><ele>37.0</ele><time>2026-04-12T09:32:36.001Z</time></trkpt><trkpt lat="45.986782598791315" lon="12.767633637180435"><ele>37.66666666666667</ele><time>2026-04-12T09:32:37.001Z</time></trkpt><trkpt lat="45.98657776266202" lon="12.767508203990596"><ele>38.333333333333336</ele><time>2026-04-12T09:32:38.001Z</time></trkpt><trkpt lat="45.98637177236319" lon="12.76737883105889"><ele>39.0</ele><time>2026-04-12T09:32:39.001Z</time></trkpt><trkpt lat="45.98616453936269" lon="12.76724735343066"><ele>39.0</ele><time>2026-04-12T09:32:40.001Z</time></trkpt><trkpt lat="45.985955302980514" lon="12.767114816377411"><ele>39.0</ele><time>2026-04-12T09:32:41.001Z</time></trkpt><trkpt lat="45.9857443667617" lon="12.766983614259086"><ele>39.0</ele><time>2026-04-12T09:32:42.001Z</time></trkpt><trkpt lat="45.98553169174546" lon="12.766852610341626"><ele>39.0</ele><time>2026-04-12T09:32:43.001Z</time></trkpt><trkpt lat="45.98531640588134" lon="12.76672173457985"><ele>39.0</ele><time>2026-04-12T09:32:44.001Z</time></trkpt><trkpt lat="45.985104012522356" lon="12.766588862634235"><ele>39.0</ele><time>2026-04-12T09:32:45.001Z</time></trkpt><trkpt lat="45.98490040492077" lon="12.766449855628856"><ele>39.0</ele><time>2026-04-12T09:32:46.001Z</time></trkpt><trkpt lat="45.984703870799066" lon="12.766305527344183"><ele>39.0</ele><time>2026-04-12T09:32:47.001Z</time></trkpt><trkpt lat="45.98451147407984" lon="12.766153262523465"><ele>39.0</ele><time>2026-04-12T09:32:48.001Z</time></trkpt><trkpt lat="45.98432268852379" lon="12.76599255946218"><ele>38.666666666666664</ele><time>2026-04-12T09:32:49.001Z</time></trkpt><trkpt lat="45.98413534108154" lon="12.765825130224982"><ele>38.33333333333333</ele><time>2026-04-12T09:32:50.001Z</time></trkpt><trkpt lat="45.98395229661065" lon="12.76565071234646"><ele>38.0</ele><time>2026-04-12T09:32:51.001Z</time></trkpt><trkpt lat="45.98377524873874" lon="12.765468774928127"><ele>38.0</ele><time>2026-04-12T09:32:52.001Z</time></trkpt><trkpt lat="45.98359824508042" lon="12.765272248248419"><ele>38.0</ele><time>2026-04-12T09:32:53.001Z</time></trkpt><trkpt lat="45.98342733258592" lon="12.765069775537501"><ele>38.0</ele><time>2026-04-12T09:32:54.002Z</time></trkpt><trkpt lat="45.98325650028817" lon="12.7648562380761"><ele>36.5</ele><time>2026-04-12T09:32:55.002Z</time></trkpt><trkpt lat="45.98309025964557" lon="12.764629748989451"><ele>35.0</ele><time>2026-04-12T09:32:56.002Z</time></trkpt><trkpt lat="45.98293040866177" lon="12.764395482937685"><ele>35.0</ele><time>2026-04-12T09:32:57.002Z</time></trkpt><trkpt lat="45.98277305711138" lon="12.764149358641205"><ele>35.0</ele><time>2026-04-12T09:32:58.002Z</time></trkpt><trkpt lat="45.98261685191464" lon="12.763896495356926"><ele>35.0</ele><time>2026-04-12T09:32:59.002Z</time></trkpt><trkpt lat="45.98246314402537" lon="12.763640820013618"><ele>35.0</ele><time>2026-04-12T09:33:00.002Z</time></trkpt><trkpt lat="45.982307790290605" lon="12.763382147156756"><ele>34.5</ele><time>2026-04-12T09:33:01.002Z</time></trkpt><trkpt lat="45.982153275482766" lon="12.763123408374284"><ele>34.0</ele><time>2026-04-12T09:33:02.002Z</time></trkpt><trkpt lat="45.982000406551826" lon="12.762857673519518"><ele>34.5</ele><time>2026-04-12T09:33:03.002Z</time></trkpt><trkpt lat="45.98185043105688" lon="12.762589237385669"><ele>35.0</ele><time>2026-04-12T09:33:04.002Z</time></trkpt><trkpt lat="45.981697527978206" lon="12.762322495675207"><ele>34.5</ele><time>2026-04-12T09:33:05.002Z</time></trkpt><trkpt lat="45.981542127028135" lon="12.762055227305483"><ele>34.0</ele><time>2026-04-12T09:33:06.002Z</time></trkpt><trkpt lat="45.98138575883001" lon="12.761789760386577"><ele>33.5</ele><time>2026-04-12T09:33:07.002Z</time></trkpt><trkpt lat="45.98123007081928" lon="12.761527486160208"><ele>33.0</ele><time>2026-04-12T09:33:08.002Z</time></trkpt><trkpt lat="45.981077635351596" lon="12.761263329970804"><ele>33.5</ele><time>2026-04-12T09:33:09.002Z</time></trkpt><trkpt lat="45.980921480016605" lon="12.760999090254119"><ele>34.0</ele><time>2026-04-12T09:33:10.002Z</time></trkpt><trkpt lat="45.98076662184499" lon="12.760732216768076"><ele>34.0</ele><time>2026-04-12T09:33:11.002Z</time></trkpt><trkpt lat="45.980613529864506" lon="12.760465455300784"><ele>34.0</ele><time>2026-04-12T09:33:12.002Z</time></trkpt><trkpt lat="45.980458313261934" lon="12.760199963142906"><ele>33.5</ele><time>2026-04-12T09:33:13.002Z</time></trkpt><trkpt lat="45.98030521769345" lon="12.759932351550143"><ele>33.0</ele><time>2026-04-12T09:33:14.002Z</time></trkpt><trkpt lat="45.98015035066743" lon="12.759666675337918"><ele>32.5</ele><time>2026-04-12T09:33:15.002Z</time></trkpt><trkpt lat="45.97999310946804" lon="12.759400145793931"><ele>32.0</ele><time>2026-04-12T09:33:16.002Z</time></trkpt><trkpt lat="45.97983858414983" lon="12.759138691372248"><ele>32.0</ele><time>2026-04-12T09:33:17.002Z</time></trkpt><trkpt lat="45.979682798068175" lon="12.75886843847252"><ele>32.0</ele><time>2026-04-12T09:33:18.002Z</time></trkpt><trkpt lat="45.97952897321623" lon="12.758597501917924"><ele>31.5</ele><time>2026-04-12T09:33:19.002Z</time></trkpt><trkpt lat="45.97937392151641" lon="12.758324309076107"><ele>31.0</ele><time>2026-04-12T09:33:20.002Z</time></trkpt><trkpt lat="45.97921853460277" lon="12.758047540343831"><ele>31.0</ele><time>2026-04-12T09:33:21.002Z</time></trkpt><trkpt lat="45.97906418684816" lon="12.757770087045891"><ele>31.0</ele><time>2026-04-12T09:33:22.002Z</time></trkpt><trkpt lat="45.97891277104211" lon="12.75749414702053"><ele>31.5</ele><time>2026-04-12T09:33:23.002Z</time></trkpt><trkpt lat="45.97875708103025" lon="12.75721387285329"><ele>32.0</ele><time>2026-04-12T09:33:24.002Z</time></trkpt><trkpt lat="45.978604004846325" lon="12.75692952227505"><ele>32.0</ele><time>2026-04-12T09:33:25.002Z</time></trkpt><trkpt lat="45.97845685855144" lon="12.756642117829056"><ele>32.0</ele><time>2026-04-12T09:33:26.002Z</time></trkpt><trkpt lat="45.978312081023844" lon="12.75635263466165"><ele>31.5</ele><time>2026-04-12T09:33:27.002Z</time></trkpt><trkpt lat="45.97817279074597" lon="12.75606008776934"><ele>31.0</ele><time>2026-04-12T09:33:28.002Z</time></trkpt><trkpt lat="45.978032472903166" lon="12.755763165152748"><ele>31.0</ele><time>2026-04-12T09:33:29.002Z</time></trkpt><trkpt lat="45.9779003619799" lon="12.755462535041415"><ele>31.0</ele><time>2026-04-12T09:33:30.002Z</time></trkpt><trkpt lat="45.97776584103967" lon="12.755162619773888"><ele>31.0</ele><time>2026-04-12T09:33:31Z</time></trkpt><trkpt lat="45.97763906711505" lon="12.754859081673905"><ele>31.0</ele><time>2026-04-12T09:33:32Z</time></trkpt><trkpt lat="45.977511742262784" lon="12.754559386806733"><ele>31.0</ele><time>2026-04-12T09:33:33Z</time></trkpt><trkpt lat="45.977386055719705" lon="12.754254716476176"><ele>31.0</ele><time>2026-04-12T09:33:34Z</time></trkpt><trkpt lat="45.977260412122526" lon="12.753949245706835"><ele>31.0</ele><time>2026-04-12T09:33:35Z</time></trkpt><trkpt lat="45.97713907675274" lon="12.753646326565141"><ele>31.0</ele><time>2026-04-12T09:33:36Z</time></trkpt><trkpt lat="45.977016959985235" lon="12.753342773786104"><ele>31.5</ele><time>2026-04-12T09:33:37Z</time></trkpt><trkpt lat="45.97690420653878" lon="12.753050898339314"><ele>32.0</ele><time>2026-04-12T09:33:38Z</time></trkpt><trkpt lat="45.97679433672497" lon="12.752776725016806"><ele>31.666666666666664</ele><time>2026-04-12T09:33:39Z</time></trkpt><trkpt lat="45.976695325864476" lon="12.752520570520437"><ele>31.333333333333336</ele><time>2026-04-12T09:33:40Z</time></trkpt><trkpt lat="45.97660380848472" lon="12.752279966581339"><ele>31.0</ele><time>2026-04-12T09:33:41Z</time></trkpt><trkpt lat="45.97651246882815" lon="12.75205597587379"><ele>31.333333333333336</ele><time>2026-04-12T09:33:42Z</time></trkpt><trkpt lat="45.97642172627156" lon="12.751839318255433"><ele>31.666666666666664</ele><time>2026-04-12T09:33:43Z</time></trkpt><trkpt lat="45.97632963525269" lon="12.751622957666827"><ele>32.0</ele><time>2026-04-12T09:33:44Z</time></trkpt><trkpt lat="45.97623555206635" lon="12.751406923737258"><ele>32.0</ele><time>2026-04-12T09:33:45Z</time></trkpt><trkpt lat="45.976141411993574" lon="12.75119225837443"><ele>32.0</ele><time>2026-04-12T09:33:46Z</time></trkpt><trkpt lat="45.97604671797363" lon="12.75097985786017"><ele>32.0</ele><time>2026-04-12T09:33:47Z</time></trkpt><trkpt lat="45.97594788605087" lon="12.750766183064112"><ele>31.666666666666664</ele><time>2026-04-12T09:33:48Z</time></trkpt><trkpt lat="45.97584597575723" lon="12.750556762989714"><ele>31.333333333333336</ele><time>2026-04-12T09:33:49Z</time></trkpt><trkpt lat="45.975745722657955" lon="12.75034564013912"><ele>31.0</ele><time>2026-04-12T09:33:50Z</time></trkpt><trkpt lat="45.97564367323102" lon="12.750135514877591"><ele>32.0</ele><time>2026-04-12T09:33:51Z</time></trkpt><trkpt lat="45.975539823088035" lon="12.749924293336678"><ele>33.0</ele><time>2026-04-12T09:33:52Z</time></trkpt><trkpt lat="45.97543688972046" lon="12.749716654228724"><ele>34.0</ele><time>2026-04-12T09:33:53Z</time></trkpt><trkpt lat="45.97532779591473" lon="12.749502329010221"><ele>34.66666666666667</ele><time>2026-04-12T09:33:54Z</time></trkpt><trkpt lat="45.97521757300888" lon="12.749293282370415"><ele>35.333333333333336</ele><time>2026-04-12T09:33:55Z</time></trkpt><trkpt lat="45.97510314529215" lon="12.749078006191791"><ele>36.0</ele><time>2026-04-12T09:33:56Z</time></trkpt><trkpt lat="45.974989015189344" lon="12.748858897648418"><ele>34.666666666666664</ele><time>2026-04-12T09:33:57Z</time></trkpt><trkpt lat="45.97487480146671" lon="12.748639411670705"><ele>33.33333333333333</ele><time>2026-04-12T09:33:58Z</time></trkpt><trkpt lat="45.97476013715081" lon="12.748414884302738"><ele>32.0</ele><time>2026-04-12T09:33:59Z</time></trkpt><trkpt lat="45.97464560982974" lon="12.748190761549095"><ele>32.0</ele><time>2026-04-12T09:34:00Z</time></trkpt><trkpt lat="45.97452747932973" lon="12.747960566924771"><ele>32.0</ele><time>2026-04-12T09:34:01Z</time></trkpt><trkpt lat="45.97441068512531" lon="12.747732706107305"><ele>32.0</ele><time>2026-04-12T09:34:02Z</time></trkpt><trkpt lat="45.974290493205906" lon="12.747499648010084"><ele>31.333333333333332</ele><time>2026-04-12T09:34:03Z</time></trkpt><trkpt lat="45.97416584136488" lon="12.747260406721782"><ele>30.666666666666664</ele><time>2026-04-12T09:34:04Z</time></trkpt><trkpt lat="45.974036805745705" lon="12.747015924169519"><ele>30.0</ele><time>2026-04-12T09:34:05Z</time></trkpt><trkpt lat="45.97390838863017" lon="12.746766969389078"><ele>29.333333333333336</ele><time>2026-04-12T09:34:06.001Z</time></trkpt><trkpt lat="45.97377835173437" lon="12.746516582358774"><ele>28.666666666666668</ele><time>2026-04-12T09:34:07.001Z</time></trkpt><trkpt lat="45.97364800596243" lon="12.746261620238293"><ele>28.0</ele><time>2026-04-12T09:34:08.001Z</time></trkpt><trkpt lat="45.9735171322646" lon="12.746010528094503"><ele>28.0</ele><time>2026-04-12T09:34:09.001Z</time></trkpt><trkpt lat="45.97338453173792" lon="12.745751306510142"><ele>28.0</ele><time>2026-04-12T09:34:10.001Z</time></trkpt><trkpt lat="45.9732491633756" lon="12.745491904053988"><ele>28.0</ele><time>2026-04-12T09:34:11.001Z</time></trkpt><trkpt lat="45.97311250313368" lon="12.745234970317219"><ele>28.333333333333336</ele><time>2026-04-12T09:34:12.001Z</time></trkpt><trkpt lat="45.97297832625574" lon="12.744984702043338"><ele>28.666666666666664</ele><time>2026-04-12T09:34:13.001Z</time></trkpt><trkpt lat="45.97284192789193" lon="12.744726684867414"><ele>29.0</ele><time>2026-04-12T09:34:14.001Z</time></trkpt><trkpt lat="45.97271181229684" lon="12.744473004164067"><ele>29.0</ele><time>2026-04-12T09:34:15.001Z</time></trkpt><trkpt lat="45.97258065790524" lon="12.744221303866082"><ele>29.0</ele><time>2026-04-12T09:34:16.001Z</time></trkpt><trkpt lat="45.97245072595088" lon="12.743976402634528"><ele>29.0</ele><time>2026-04-12T09:34:17.001Z</time></trkpt><trkpt lat="45.97231385444119" lon="12.743733919088506"><ele>29.0</ele><time>2026-04-12T09:34:18.001Z</time></trkpt><trkpt lat="45.972174946080344" lon="12.74349605188057"><ele>29.0</ele><time>2026-04-12T09:34:19.001Z</time></trkpt><trkpt lat="45.972026469185344" lon="12.74326160233075"><ele>29.0</ele><time>2026-04-12T09:34:20.001Z</time></trkpt><trkpt lat="45.97187158950553" lon="12.743037107972237"><ele>29.0</ele><time>2026-04-12T09:34:21.001Z</time></trkpt><trkpt lat="45.97170845688379" lon="12.742829507468132"><ele>29.0</ele><time>2026-04-12T09:34:22.001Z</time></trkpt><trkpt lat="45.97153637709244" lon="12.742632646874549"><ele>29.0</ele><time>2026-04-12T09:34:23.001Z</time></trkpt><trkpt lat="45.971360130176" lon="12.742448891292522"><ele>28.666666666666664</ele><time>2026-04-12T09:34:24.001Z</time></trkpt><trkpt lat="45.971178022325574" lon="12.742274626400123"><ele>28.333333333333336</ele><time>2026-04-12T09:34:25.001Z</time></trkpt><trkpt lat="45.97099119459271" lon="12.742113755167017"><ele>28.0</ele><time>2026-04-12T09:34:26.001Z</time></trkpt><trkpt lat="45.97079943760147" lon="12.741969695571012"><ele>27.0</ele><time>2026-04-12T09:34:27.001Z</time></trkpt><trkpt lat="45.970604519180185" lon="12.741840903740178"><ele>26.0</ele><time>2026-04-12T09:34:28.001Z</time></trkpt><trkpt lat="45.970403391827446" lon="12.741722164810565"><ele>25.0</ele><time>2026-04-12T09:34:29.001Z</time></trkpt><trkpt lat="45.9701978674926" lon="12.741616550989358"><ele>26.0</ele><time>2026-04-12T09:34:30.001Z</time></trkpt><trkpt lat="45.969991470826635" lon="12.741523181154978"><ele>27.0</ele><time>2026-04-12T09:34:31.001Z</time></trkpt><trkpt lat="45.96977101000067" lon="12.741433745727589"><ele>28.0</ele><time>2026-04-12T09:34:32.001Z</time></trkpt><trkpt lat="45.96953880619023" lon="12.741336677393088"><ele>28.0</ele><time>2026-04-12T09:34:33.001Z</time></trkpt><trkpt lat="45.9692982154198" lon="12.741230228690236"><ele>28.0</ele><time>2026-04-12T09:34:34.001Z</time></trkpt><trkpt lat="45.96904886066678" lon="12.741146742576845"><ele>27.5</ele><time>2026-04-12T09:34:35.001Z</time></trkpt><trkpt lat="45.96878632393871" lon="12.741054145661181"><ele>27.0</ele><time>2026-04-12T09:34:36.001Z</time></trkpt><trkpt lat="45.96852368458071" lon="12.740958796897544"><ele>27.0</ele><time>2026-04-12T09:34:37.001Z</time></trkpt><trkpt lat="45.96825485559801" lon="12.740859700507755"><ele>27.0</ele><time>2026-04-12T09:34:38.001Z</time></trkpt><trkpt lat="45.96798980336213" lon="12.740762293074667"><ele>27.0</ele><time>2026-04-12T09:34:39.001Z</time></trkpt><trkpt lat="45.96772840825816" lon="12.740667585033771"><ele>27.0</ele><time>2026-04-12T09:34:40.001Z</time></trkpt><trkpt lat="45.967473394798816" lon="12.740572748333422"><ele>26.5</ele><time>2026-04-12T09:34:41.001Z</time></trkpt><trkpt lat="45.96722288524385" lon="12.74048021047878"><ele>26.0</ele><time>2026-04-12T09:34:42.001Z</time></trkpt><trkpt lat="45.96697754291339" lon="12.740390369859092"><ele>26.0</ele><time>2026-04-12T09:34:43.001Z</time></trkpt><trkpt lat="45.966743931527624" lon="12.740305620315418"><ele>26.0</ele><time>2026-04-12T09:34:44.001Z</time></trkpt><trkpt lat="45.96651458679341" lon="12.740219571441502"><ele>25.5</ele><time>2026-04-12T09:34:45.001Z</time></trkpt><trkpt lat="45.96628845564846" lon="12.740127642184087"><ele>25.0</ele><time>2026-04-12T09:34:46.001Z</time></trkpt><trkpt lat="45.96608012022319" lon="12.740037241413512"><ele>25.0</ele><time>2026-04-12T09:34:47.001Z</time></trkpt><trkpt lat="45.96588057388683" lon="12.739939787980337"><ele>25.0</ele><time>2026-04-12T09:34:48.001Z</time></trkpt><trkpt lat="45.96568181166657" lon="12.73983038910177"><ele>25.0</ele><time>2026-04-12T09:34:49.001Z</time></trkpt><trkpt lat="45.965488718277385" lon="12.73970801761737"><ele>24.666666666666668</ele><time>2026-04-12T09:34:50.001Z</time></trkpt><trkpt lat="45.96529940090251" lon="12.73957418140874"><ele>24.333333333333336</ele><time>2026-04-12T09:34:51.001Z</time></trkpt><trkpt lat="45.96511376439412" lon="12.739425000627287"><ele>24.0</ele><time>2026-04-12T09:34:52.001Z</time></trkpt><trkpt lat="45.96493267269862" lon="12.739256229507514"><ele>24.0</ele><time>2026-04-12T09:34:53.001Z</time></trkpt><trkpt lat="45.96475562482343" lon="12.739084306044061"><ele>24.0</ele><time>2026-04-12T09:34:54.001Z</time></trkpt><trkpt lat="45.96457810364854" lon="12.738905317956398"><ele>24.0</ele><time>2026-04-12T09:34:55.001Z</time></trkpt><trkpt lat="45.96439807572285" lon="12.738717570920434"><ele>24.0</ele><time>2026-04-12T09:34:56.001Z</time></trkpt><trkpt lat="45.96421423997355" lon="12.738518902337397"><ele>24.0</ele><time>2026-04-12T09:34:57.001Z</time></trkpt><trkpt lat="45.96402940255357" lon="12.738320201583972"><ele>24.0</ele><time>2026-04-12T09:34:58.001Z</time></trkpt><trkpt lat="45.96383984158276" lon="12.738110123602103"><ele>24.0</ele><time>2026-04-12T09:34:59.001Z</time></trkpt><trkpt lat="45.963642527109364" lon="12.737891785332648"><ele>24.0</ele><time>2026-04-12T09:35:00.001Z</time></trkpt><trkpt lat="45.96343108217354" lon="12.737662800259706"><ele>24.0</ele><time>2026-04-12T09:35:01.001Z</time></trkpt><trkpt lat="45.96321442920791" lon="12.737430914525373"><ele>23.5</ele><time>2026-04-12T09:35:02.001Z</time></trkpt><trkpt lat="45.96300453820759" lon="12.737203941922642"><ele>23.0</ele><time>2026-04-12T09:35:03.002Z</time></trkpt><trkpt lat="45.96281113747098" lon="12.736989203461455"><ele>23.0</ele><time>2026-04-12T09:35:04.002Z</time></trkpt><trkpt lat="45.96262829438181" lon="12.736781379014065"><ele>23.0</ele><time>2026-04-12T09:35:05.002Z</time></trkpt><trkpt lat="45.96244393325063" lon="12.73657958346041"><ele>23.0</ele><time>2026-04-12T09:35:06.002Z</time></trkpt><trkpt lat="45.96225823499722" lon="12.736380883467387"><ele>23.0</ele><time>2026-04-12T09:35:07.002Z</time></trkpt><trkpt lat="45.96207354974338" lon="12.73618485928814"><ele>24.0</ele><time>2026-04-12T09:35:08.002Z</time></trkpt><trkpt lat="45.96189312532487" lon="12.735986917010527"><ele>25.0</ele><time>2026-04-12T09:35:09.002Z</time></trkpt><trkpt lat="45.9617160642225" lon="12.735790223491854"><ele>24.666666666666668</ele><time>2026-04-12T09:35:10.002Z</time></trkpt><trkpt lat="45.96153804429091" lon="12.735593489765959"><ele>24.333333333333336</ele><time>2026-04-12T09:35:11.002Z</time></trkpt><trkpt lat="45.96136093233452" lon="12.735398973227769"><ele>24.0</ele><time>2026-04-12T09:35:12.002Z</time></trkpt><trkpt lat="45.961183254669045" lon="12.735208958310455"><ele>24.333333333333336</ele><time>2026-04-12T09:35:13.002Z</time></trkpt><trkpt lat="45.961007125471184" lon="12.73502590099391"><ele>24.666666666666668</ele><time>2026-04-12T09:35:14.002Z</time></trkpt><trkpt lat="45.96082906066715" lon="12.73484859613221"><ele>25.0</ele><time>2026-04-12T09:35:15.002Z</time></trkpt><trkpt lat="45.96064606350707" lon="12.734682209272613"><ele>25.0</ele><time>2026-04-12T09:35:16.002Z</time></trkpt><trkpt lat="45.96045447100577" lon="12.734528512025824"><ele>25.0</ele><time>2026-04-12T09:35:17.002Z</time></trkpt><trkpt lat="45.960267590900564" lon="12.734365554985088"><ele>25.0</ele><time>2026-04-12T09:35:18.002Z</time></trkpt><trkpt lat="45.960076267794676" lon="12.73421855934616"><ele>24.666666666666668</ele><time>2026-04-12T09:35:19.002Z</time></trkpt><trkpt lat="45.95988895124123" lon="12.734074641985954"><ele>24.333333333333336</ele><time>2026-04-12T09:35:20.002Z</time></trkpt><trkpt lat="45.959654945017164" lon="12.734058467161503"><ele>24.0</ele><time>2026-04-12T09:35:21.002Z</time></trkpt><trkpt lat="45.9594498567306" lon="12.733968588463664"><ele>24.0</ele><time>2026-04-12T09:35:22.002Z</time></trkpt><trkpt lat="45.959245144121155" lon="12.73387940998293"><ele>24.0</ele><time>2026-04-12T09:35:23.002Z</time></trkpt><trkpt lat="45.95904063090485" lon="12.733789253573148"><ele>24.0</ele><time>2026-04-12T09:35:24.002Z</time></trkpt><trkpt lat="45.958836083367316" lon="12.733699933613781"><ele>23.333333333333332</ele><time>2026-04-12T09:35:25.002Z</time></trkpt><trkpt lat="45.958634538688315" lon="12.733609057350673"><ele>22.666666666666664</ele><time>2026-04-12T09:35:26.002Z</time></trkpt><trkpt lat="45.958445193232905" lon="12.733524584184007"><ele>22.0</ele><time>2026-04-12T09:35:27.002Z</time></trkpt><trkpt lat="45.95826644904087" lon="12.733443235287412"><ele>22.0</ele><time>2026-04-12T09:35:28.002Z</time></trkpt><trkpt lat="45.958096454783075" lon="12.73336706321735"><ele>22.0</ele><time>2026-04-12T09:35:29.002Z</time></trkpt><trkpt lat="45.9579367304896" lon="12.733298197056008"><ele>22.0</ele><time>2026-04-12T09:35:30.002Z</time></trkpt><trkpt lat="45.957782583795534" lon="12.733227036258947"><ele>22.0</ele><time>2026-04-12T09:35:31.002Z</time></trkpt><trkpt lat="45.95761866975047" lon="12.733140681328107"><ele>22.0</ele><time>2026-04-12T09:35:32.002Z</time></trkpt><trkpt lat="45.95744989817368" lon="12.733048384948143"><ele>22.0</ele><time>2026-04-12T09:35:33.002Z</time></trkpt><trkpt lat="45.95727998875666" lon="12.732938747790863"><ele>22.0</ele><time>2026-04-12T09:35:34.002Z</time></trkpt><trkpt lat="45.957107389763515" lon="12.732816828898656"><ele>22.0</ele><time>2026-04-12T09:35:35.002Z</time></trkpt><trkpt lat="45.95693133991084" lon="12.732682537191375"><ele>22.0</ele><time>2026-04-12T09:35:36.002Z</time></trkpt><trkpt lat="45.95675774203451" lon="12.73252988870008"><ele>22.333333333333332</ele><time>2026-04-12T09:35:37Z</time></trkpt><trkpt lat="45.9565865033276" lon="12.732361908779827"><ele>22.666666666666668</ele><time>2026-04-12T09:35:38Z</time></trkpt><trkpt lat="45.95642310912867" lon="12.732183903407414"><ele>23.0</ele><time>2026-04-12T09:35:39Z</time></trkpt><trkpt lat="45.95626717331941" lon="12.731999550184147"><ele>23.0</ele><time>2026-04-12T09:35:40Z</time></trkpt><trkpt lat="45.95612103073411" lon="12.731803761717773"><ele>23.0</ele><time>2026-04-12T09:35:41Z</time></trkpt><trkpt lat="45.95598245309795" lon="12.731605034687068"><ele>23.0</ele><time>2026-04-12T09:35:42Z</time></trkpt><trkpt lat="45.95585486479529" lon="12.731396443927494"><ele>23.0</ele><time>2026-04-12T09:35:43Z</time></trkpt><trkpt lat="45.95573344853644" lon="12.731185269109233"><ele>23.0</ele><time>2026-04-12T09:35:44Z</time></trkpt><trkpt lat="45.95561762683479" lon="12.730971402390828"><ele>23.0</ele><time>2026-04-12T09:35:45Z</time></trkpt><trkpt lat="45.95551099519878" lon="12.730750414638461"><ele>22.666666666666668</ele><time>2026-04-12T09:35:46Z</time></trkpt><trkpt lat="45.955411217113515" lon="12.730524541422517"><ele>22.333333333333332</ele><time>2026-04-12T09:35:47Z</time></trkpt><trkpt lat="45.955316890880944" lon="12.730296974278614"><ele>22.0</ele><time>2026-04-12T09:35:48Z</time></trkpt><trkpt lat="45.95522860724985" lon="12.730069012962794"><ele>22.0</ele><time>2026-04-12T09:35:49Z</time></trkpt><trkpt lat="45.955147487215065" lon="12.72983656702459"><ele>22.0</ele><time>2026-04-12T09:35:50Z</time></trkpt><trkpt lat="45.95507625324513" lon="12.729595472501433"><ele>22.0</ele><time>2026-04-12T09:35:51Z</time></trkpt><trkpt lat="45.955005342461284" lon="12.729351541694754"><ele>21.666666666666664</ele><time>2026-04-12T09:35:52Z</time></trkpt><trkpt lat="45.95493841057281" lon="12.729116350322847"><ele>21.333333333333332</ele><time>2026-04-12T09:35:53Z</time></trkpt><trkpt lat="45.95486642099152" lon="12.728878247655178"><ele>21.0</ele><time>2026-04-12T09:35:54Z</time></trkpt><trkpt lat="45.954796661390006" lon="12.728638674363323"><ele>21.333333333333332</ele><time>2026-04-12T09:35:55Z</time></trkpt><trkpt lat="45.95472808062182" lon="12.72840033834388"><ele>21.666666666666664</ele><time>2026-04-12T09:35:56Z</time></trkpt><trkpt lat="45.95465858389562" lon="12.728161609653787"><ele>22.0</ele><time>2026-04-12T09:35:57Z</time></trkpt><trkpt lat="45.95458898073867" lon="12.72792615071154"><ele>22.0</ele><time>2026-04-12T09:35:58Z</time></trkpt><trkpt lat="45.95451653029943" lon="12.727689641490302"><ele>22.0</ele><time>2026-04-12T09:35:59Z</time></trkpt><trkpt lat="45.95444445951524" lon="12.727453706308056"><ele>22.0</ele><time>2026-04-12T09:36:00Z</time></trkpt><trkpt lat="45.954373260473176" lon="12.727218397451246"><ele>22.0</ele><time>2026-04-12T09:36:01Z</time></trkpt><trkpt lat="45.95430343670224" lon="12.726982238974799"><ele>22.0</ele><time>2026-04-12T09:36:02Z</time></trkpt><trkpt lat="45.95423287738823" lon="12.726744187340334"><ele>22.0</ele><time>2026-04-12T09:36:03Z</time></trkpt><trkpt lat="45.95415934069886" lon="12.726503704120132"><ele>22.0</ele><time>2026-04-12T09:36:04Z</time></trkpt><trkpt lat="45.95407880859882" lon="12.726262344261306"><ele>22.0</ele><time>2026-04-12T09:36:05Z</time></trkpt><trkpt lat="45.95399448044478" lon="12.726024543968885"><ele>22.0</ele><time>2026-04-12T09:36:06Z</time></trkpt><trkpt lat="45.95390609594689" lon="12.725784569864148"><ele>22.0</ele><time>2026-04-12T09:36:07Z</time></trkpt><trkpt lat="45.95381727261218" lon="12.725542390802701"><ele>22.0</ele><time>2026-04-12T09:36:08Z</time></trkpt><trkpt lat="45.95372667020319" lon="12.72529829595784"><ele>22.0</ele><time>2026-04-12T09:36:09Z</time></trkpt><trkpt lat="45.953633269080775" lon="12.725052137981939"><ele>22.0</ele><time>2026-04-12T09:36:10Z</time></trkpt><trkpt lat="45.95353674546198" lon="12.72480405429509"><ele>22.0</ele><time>2026-04-12T09:36:11Z</time></trkpt><trkpt lat="45.95343865974164" lon="12.724554357034839"><ele>22.0</ele><time>2026-04-12T09:36:12Z</time></trkpt><trkpt lat="45.95333754889297" lon="12.724302418519896"><ele>22.0</ele><time>2026-04-12T09:36:13Z</time></trkpt><trkpt lat="45.95323351070446" lon="12.724051943909087"><ele>22.0</ele><time>2026-04-12T09:36:14Z</time></trkpt><trkpt lat="45.953125454402404" lon="12.723803343650008"><ele>22.0</ele><time>2026-04-12T09:36:15Z</time></trkpt><trkpt lat="45.95301417001194" lon="12.723557349801442"><ele>22.333333333333332</ele><time>2026-04-12T09:36:16.001Z</time></trkpt><trkpt lat="45.9529065645244" lon="12.7233138377723"><ele>22.666666666666668</ele><time>2026-04-12T09:36:17.001Z</time></trkpt><trkpt lat="45.95280132247963" lon="12.723075993756991"><ele>23.0</ele><time>2026-04-12T09:36:18.001Z</time></trkpt><trkpt lat="45.95269623482273" lon="12.722845010590516"><ele>22.333333333333336</ele><time>2026-04-12T09:36:19.001Z</time></trkpt><trkpt lat="45.95258881631346" lon="12.722618038936723"><ele>21.666666666666668</ele><time>2026-04-12T09:36:20.001Z</time></trkpt><trkpt lat="45.95248039139602" lon="12.722394786197249"><ele>21.0</ele><time>2026-04-12T09:36:21.001Z</time></trkpt><trkpt lat="45.952368840793504" lon="12.722177951252839"><ele>21.0</ele><time>2026-04-12T09:36:22.001Z</time></trkpt><trkpt lat="45.95225129587585" lon="12.721966543352567"><ele>21.0</ele><time>2026-04-12T09:36:23.001Z</time></trkpt><trkpt lat="45.95212610609372" lon="12.721765589343402"><ele>21.0</ele><time>2026-04-12T09:36:24.001Z</time></trkpt><trkpt lat="45.95199432451545" lon="12.721572319370722"><ele>21.0</ele><time>2026-04-12T09:36:25.001Z</time></trkpt><trkpt lat="45.951854918761" lon="12.721386437078985"><ele>21.0</ele><time>2026-04-12T09:36:26.001Z</time></trkpt><trkpt lat="45.95170743987575" lon="12.721207462785708"><ele>21.0</ele><time>2026-04-12T09:36:27.001Z</time></trkpt><trkpt lat="45.95155269619466" lon="12.721035046974725"><ele>21.333333333333332</ele><time>2026-04-12T09:36:28.001Z</time></trkpt><trkpt lat="45.95139105815077" lon="12.720868948396818"><ele>21.666666666666664</ele><time>2026-04-12T09:36:29.001Z</time></trkpt><trkpt lat="45.95122363181819" lon="12.720713042530374"><ele>22.0</ele><time>2026-04-12T09:36:30.001Z</time></trkpt><trkpt lat="45.951051560012615" lon="12.720568412404441"><ele>22.0</ele><time>2026-04-12T09:36:31.001Z</time></trkpt><trkpt lat="45.95086947033884" lon="12.72043144002019"><ele>22.0</ele><time>2026-04-12T09:36:32.001Z</time></trkpt><trkpt lat="45.9506669648181" lon="12.720296208953329"><ele>22.0</ele><time>2026-04-12T09:36:33.001Z</time></trkpt><trkpt lat="45.950450724733564" lon="12.720167976626618"><ele>22.0</ele><time>2026-04-12T09:36:34.001Z</time></trkpt><trkpt lat="45.95023380009891" lon="12.720051790420605"><ele>22.0</ele><time>2026-04-12T09:36:35.001Z</time></trkpt><trkpt lat="45.9500119933543" lon="12.719965741013734"><ele>20.5</ele><time>2026-04-12T09:36:36.001Z</time></trkpt><trkpt lat="45.949785399137475" lon="12.71989220164647"><ele>19.0</ele><time>2026-04-12T09:36:37.001Z</time></trkpt><trkpt lat="45.94955871470289" lon="12.719834018270994"><ele>19.0</ele><time>2026-04-12T09:36:38.001Z</time></trkpt><trkpt lat="45.949333854934686" lon="12.719796904434585"><ele>19.0</ele><time>2026-04-12T09:36:39.001Z</time></trkpt><trkpt lat="45.949107772826075" lon="12.719776927964473"><ele>19.666666666666664</ele><time>2026-04-12T09:36:40.001Z</time></trkpt><trkpt lat="45.94888389981208" lon="12.719780154081771"><ele>20.333333333333332</ele><time>2026-04-12T09:36:41.001Z</time></trkpt><trkpt lat="45.94866325591536" lon="12.71979258019695"><ele>21.0</ele><time>2026-04-12T09:36:42.001Z</time></trkpt><trkpt lat="45.94844439086138" lon="12.719815149014343"><ele>23.0</ele><time>2026-04-12T09:36:43.001Z</time></trkpt><trkpt lat="45.94822381719197" lon="12.719847795213116"><ele>25.0</ele><time>2026-04-12T09:36:44.001Z</time></trkpt><trkpt lat="45.94798897568675" lon="12.719889356292978"><ele>25.0</ele><time>2026-04-12T09:36:45.001Z</time></trkpt><trkpt lat="45.94773990147473" lon="12.71993929136039"><ele>25.0</ele><time>2026-04-12T09:36:46.001Z</time></trkpt><trkpt lat="45.94747506328123" lon="12.719993832209248"><ele>24.0</ele><time>2026-04-12T09:36:47.001Z</time></trkpt><trkpt lat="45.94720132956651" lon="12.720048897208164"><ele>23.0</ele><time>2026-04-12T09:36:48.001Z</time></trkpt><trkpt lat="45.94691063534237" lon="12.720108061698369"><ele>24.5</ele><time>2026-04-12T09:36:49.001Z</time></trkpt><trkpt lat="45.94660824092545" lon="12.720170068765867"><ele>26.0</ele><time>2026-04-12T09:36:50.001Z</time></trkpt><trkpt lat="45.94630276981901" lon="12.720230560105247"><ele>25.5</ele><time>2026-04-12T09:36:51.001Z</time></trkpt><trkpt lat="45.94601687871238" lon="12.720288894629377"><ele>25.0</ele><time>2026-04-12T09:36:52.001Z</time></trkpt><trkpt lat="45.94575550250849" lon="12.720341040058825"><ele>24.5</ele><time>2026-04-12T09:36:53.001Z</time></trkpt><trkpt lat="45.945508305498265" lon="12.72039222970021"><ele>24.0</ele><time>2026-04-12T09:36:54.001Z</time></trkpt><trkpt lat="45.94527822311329" lon="12.72043936995756"><ele>24.0</ele><time>2026-04-12T09:36:55.001Z</time></trkpt><trkpt lat="45.94506010188312" lon="12.720485678733262"><ele>24.0</ele><time>2026-04-12T09:36:56.001Z</time></trkpt><trkpt lat="45.944841857079886" lon="12.720526550453943"><ele>24.0</ele><time>2026-04-12T09:36:57.001Z</time></trkpt><trkpt lat="45.94461967190057" lon="12.720569236620815"><ele>24.5</ele><time>2026-04-12T09:36:58.001Z</time></trkpt><trkpt lat="45.94438821670747" lon="12.720615486482064"><ele>25.0</ele><time>2026-04-12T09:36:59.001Z</time></trkpt><trkpt lat="45.94416956401781" lon="12.720659848099361"><ele>24.0</ele><time>2026-04-12T09:37:00.001Z</time></trkpt><trkpt lat="45.94395364308644" lon="12.720702027451138"><ele>23.0</ele><time>2026-04-12T09:37:01.001Z</time></trkpt><trkpt lat="45.94372491298741" lon="12.720748070203506"><ele>22.0</ele><time>2026-04-12T09:37:02.001Z</time></trkpt><trkpt lat="45.943518689292176" lon="12.720786752498798"><ele>22.666666666666664</ele><time>2026-04-12T09:37:03.001Z</time></trkpt><trkpt lat="45.9433217577938" lon="12.72082601029343"><ele>23.333333333333332</ele><time>2026-04-12T09:37:04.001Z</time></trkpt><trkpt lat="45.943136306973436" lon="12.720864774055414"><ele>24.0</ele><time>2026-04-12T09:37:05.001Z</time></trkpt><trkpt lat="45.94294551491087" lon="12.72090179771314"><ele>24.0</ele><time>2026-04-12T09:37:06.001Z</time></trkpt><trkpt lat="45.94275067491799" lon="12.72093720680788"><ele>24.0</ele><time>2026-04-12T09:37:07.001Z</time></trkpt><trkpt lat="45.942557378568765" lon="12.720972678755494"><ele>24.0</ele><time>2026-04-12T09:37:08.001Z</time></trkpt><trkpt lat="45.942364473717774" lon="12.721010080437816"><ele>24.0</ele><time>2026-04-12T09:37:09.001Z</time></trkpt><trkpt lat="45.94217039569522" lon="12.721051828337522"><ele>24.0</ele><time>2026-04-12T09:37:10.001Z</time></trkpt><trkpt lat="45.941973834477906" lon="12.721093640925558"><ele>24.0</ele><time>2026-04-12T09:37:11.001Z</time></trkpt><trkpt lat="45.94177459842443" lon="12.721132798380777"><ele>23.333333333333332</ele><time>2026-04-12T09:37:12.002Z</time></trkpt><trkpt lat="45.941570223602504" lon="12.721166623489646"><ele>22.666666666666664</ele><time>2026-04-12T09:37:13.002Z</time></trkpt><trkpt lat="45.941361750734764" lon="12.721197083677126"><ele>22.0</ele><time>2026-04-12T09:37:14.002Z</time></trkpt><trkpt lat="45.94114806304117" lon="12.721220940424992"><ele>22.0</ele><time>2026-04-12T09:37:15.002Z</time></trkpt><trkpt lat="45.94092993970836" lon="12.721237816061684"><ele>22.0</ele><time>2026-04-12T09:37:16.002Z</time></trkpt><trkpt lat="45.940720230913186" lon="12.721250447671519"><ele>22.0</ele><time>2026-04-12T09:37:17.002Z</time></trkpt><trkpt lat="45.94051084548634" lon="12.721257225365926"><ele>22.0</ele><time>2026-04-12T09:37:18.002Z</time></trkpt><trkpt lat="45.940299009466955" lon="12.721256669815626"><ele>22.0</ele><time>2026-04-12T09:37:19.002Z</time></trkpt><trkpt lat="45.94008523456359" lon="12.721241667927867"><ele>22.0</ele><time>2026-04-12T09:37:20.002Z</time></trkpt><trkpt lat="45.93987061178101" lon="12.721209934451812"><ele>22.0</ele><time>2026-04-12T09:37:21.002Z</time></trkpt><trkpt lat="45.939659699272674" lon="12.721156447186331"><ele>22.0</ele><time>2026-04-12T09:37:22.002Z</time></trkpt><trkpt lat="45.939447724407295" lon="12.72108017993814"><ele>22.0</ele><time>2026-04-12T09:37:23.002Z</time></trkpt><trkpt lat="45.93923644940863" lon="12.720984795145082"><ele>22.333333333333332</ele><time>2026-04-12T09:37:24.002Z</time></trkpt><trkpt lat="45.93904194006364" lon="12.720876099303435"><ele>22.666666666666668</ele><time>2026-04-12T09:37:25.002Z</time></trkpt><trkpt lat="45.93885108777016" lon="12.720755981020929"><ele>23.0</ele><time>2026-04-12T09:37:26.002Z</time></trkpt><trkpt lat="45.93868383615626" lon="12.720614187289586"><ele>23.0</ele><time>2026-04-12T09:37:27.002Z</time></trkpt><trkpt lat="45.938522063616425" lon="12.720461817737792"><ele>23.0</ele><time>2026-04-12T09:37:28.002Z</time></trkpt><trkpt lat="45.93832210740437" lon="12.720277995485748"><ele>23.0</ele><time>2026-04-12T09:37:29.002Z</time></trkpt><trkpt lat="45.93814793811839" lon="12.720073410064462"><ele>22.0</ele><time>2026-04-12T09:37:30.002Z</time></trkpt><trkpt lat="45.9379726189716" lon="12.719847873715727"><ele>21.0</ele><time>2026-04-12T09:37:31.002Z</time></trkpt><trkpt lat="45.937793602784" lon="12.71960044136415"><ele>20.5</ele><time>2026-04-12T09:37:32.002Z</time></trkpt><trkpt lat="45.93762124750868" lon="12.719352777923545"><ele>20.0</ele><time>2026-04-12T09:37:33.002Z</time></trkpt><trkpt lat="45.93744909777863" lon="12.719095079961846"><ele>21.0</ele><time>2026-04-12T09:37:34.002Z</time></trkpt><trkpt lat="45.937275243386416" lon="12.718833641864773"><ele>22.0</ele><time>2026-04-12T09:37:35.002Z</time></trkpt><trkpt lat="45.93709817496952" lon="12.718569647507485"><ele>21.0</ele><time>2026-04-12T09:37:36.002Z</time></trkpt><trkpt lat="45.93692284698026" lon="12.718307122649255"><ele>20.0</ele><time>2026-04-12T09:37:37.002Z</time></trkpt><trkpt lat="45.93675180669095" lon="12.71804406156852"><ele>20.0</ele><time>2026-04-12T09:37:38.002Z</time></trkpt><trkpt lat="45.93658598506643" lon="12.717784836399176"><ele>20.0</ele><time>2026-04-12T09:37:39.002Z</time></trkpt><trkpt lat="45.93642099542381" lon="12.717526134109203"><ele>19.5</ele><time>2026-04-12T09:37:40.002Z</time></trkpt><trkpt lat="45.93625254650993" lon="12.71726834598731"><ele>19.0</ele><time>2026-04-12T09:37:41.002Z</time></trkpt><trkpt lat="45.936080689356565" lon="12.71700907943771"><ele>19.5</ele><time>2026-04-12T09:37:42.002Z</time></trkpt><trkpt lat="45.935906326111024" lon="12.716750579889814"><ele>20.0</ele><time>2026-04-12T09:37:43Z</time></trkpt><trkpt lat="45.935731812259405" lon="12.716483502437509"><ele>20.0</ele><time>2026-04-12T09:37:44Z</time></trkpt><trkpt lat="45.93555646673497" lon="12.716217625882285"><ele>20.0</ele><time>2026-04-12T09:37:45Z</time></trkpt><trkpt lat="45.93537756392095" lon="12.7159606057066"><ele>20.5</ele><time>2026-04-12T09:37:46Z</time></trkpt><trkpt lat="45.93520051080805" lon="12.715717214699659"><ele>21.0</ele><time>2026-04-12T09:37:47Z</time></trkpt><trkpt lat="45.93502102271" lon="12.715484184619953"><ele>21.5</ele><time>2026-04-12T09:37:48Z</time></trkpt><trkpt lat="45.93483854638398" lon="12.71526211987193"><ele>22.0</ele><time>2026-04-12T09:37:49Z</time></trkpt><trkpt lat="45.93464706656205" lon="12.71505932285629"><ele>21.0</ele><time>2026-04-12T09:37:50Z</time></trkpt><trkpt lat="45.93444718535622" lon="12.714864368322786"><ele>20.0</ele><time>2026-04-12T09:37:51Z</time></trkpt><trkpt lat="45.93424126903885" lon="12.714680828850783"><ele>20.0</ele><time>2026-04-12T09:37:52Z</time></trkpt><trkpt lat="45.934026363931544" lon="12.714510073547467"><ele>20.0</ele><time>2026-04-12T09:37:53Z</time></trkpt><trkpt lat="45.93380753269184" lon="12.714353546627416"><ele>20.5</ele><time>2026-04-12T09:37:54Z</time></trkpt><trkpt lat="45.93358321226691" lon="12.714203688568807"><ele>21.0</ele><time>2026-04-12T09:37:55Z</time></trkpt><trkpt lat="45.9333607960978" lon="12.714062212044322"><ele>21.0</ele><time>2026-04-12T09:37:56Z</time></trkpt><trkpt lat="45.93314142757085" lon="12.713924708522812"><ele>21.0</ele><time>2026-04-12T09:37:57Z</time></trkpt><trkpt lat="45.93291667573049" lon="12.713785123100298"><ele>21.0</ele><time>2026-04-12T09:37:58Z</time></trkpt><trkpt lat="45.93268055892799" lon="12.713640481780775"><ele>21.0</ele><time>2026-04-12T09:37:59Z</time></trkpt><trkpt lat="45.93245565495604" lon="12.713510745023678"><ele>20.0</ele><time>2026-04-12T09:38:00Z</time></trkpt><trkpt lat="45.932243040520476" lon="12.713377130501268"><ele>19.0</ele><time>2026-04-12T09:38:01Z</time></trkpt><trkpt lat="45.93203081230083" lon="12.713242291758077"><ele>19.0</ele><time>2026-04-12T09:38:02Z</time></trkpt><trkpt lat="45.93181634618967" lon="12.713106914244891"><ele>19.0</ele><time>2026-04-12T09:38:03Z</time></trkpt><trkpt lat="45.93160102543227" lon="12.712970443269262"><ele>19.5</ele><time>2026-04-12T09:38:04Z</time></trkpt><trkpt lat="45.93138550329589" lon="12.712832058415373"><ele>20.0</ele><time>2026-04-12T09:38:05Z</time></trkpt><trkpt lat="45.93116579861014" lon="12.712678683426235"><ele>20.0</ele><time>2026-04-12T09:38:06Z</time></trkpt><trkpt lat="45.93094526082506" lon="12.712513143885833"><ele>20.0</ele><time>2026-04-12T09:38:07Z</time></trkpt><trkpt lat="45.93071495555182" lon="12.71232770815506"><ele>20.5</ele><time>2026-04-12T09:38:08Z</time></trkpt><trkpt lat="45.930479210243114" lon="12.712132318144937"><ele>21.0</ele><time>2026-04-12T09:38:09Z</time></trkpt><trkpt lat="45.93025445078568" lon="12.71192877448101"><ele>20.0</ele><time>2026-04-12T09:38:10Z</time></trkpt><trkpt lat="45.930045668927924" lon="12.711733724057032"><ele>19.0</ele><time>2026-04-12T09:38:11Z</time></trkpt><trkpt lat="45.92983492959175" lon="12.711535367887734"><ele>19.0</ele><time>2026-04-12T09:38:12Z</time></trkpt><trkpt lat="45.92962780042893" lon="12.711337599492698"><ele>19.0</ele><time>2026-04-12T09:38:13Z</time></trkpt><trkpt lat="45.929434658724134" lon="12.711163115977172"><ele>19.0</ele><time>2026-04-12T09:38:14Z</time></trkpt><trkpt lat="45.92923489985432" lon="12.710984865003935"><ele>19.0</ele><time>2026-04-12T09:38:15Z</time></trkpt><trkpt lat="45.92903715587715" lon="12.710809056115277"><ele>18.333333333333332</ele><time>2026-04-12T09:38:16Z</time></trkpt><trkpt lat="45.92885505358479" lon="12.710645705763081"><ele>17.666666666666668</ele><time>2026-04-12T09:38:17Z</time></trkpt><trkpt lat="45.928682971677" lon="12.710488357308996"><ele>17.0</ele><time>2026-04-12T09:38:18Z</time></trkpt><trkpt lat="45.92851078872328" lon="12.710330584193755"><ele>16.666666666666668</ele><time>2026-04-12T09:38:19Z</time></trkpt><trkpt lat="45.92833944385652" lon="12.710170962769878"><ele>16.333333333333332</ele><time>2026-04-12T09:38:20Z</time></trkpt><trkpt lat="45.92816603148433" lon="12.710013324138282"><ele>16.0</ele><time>2026-04-12T09:38:21Z</time></trkpt><trkpt lat="45.92799069527191" lon="12.709850508720473"><ele>16.0</ele><time>2026-04-12T09:38:22Z</time></trkpt><trkpt lat="45.927813114779745" lon="12.709682479306634"><ele>16.0</ele><time>2026-04-12T09:38:23Z</time></trkpt><trkpt lat="45.927633360716435" lon="12.70951506864414"><ele>16.0</ele><time>2026-04-12T09:38:24Z</time></trkpt><trkpt lat="45.9274513962082" lon="12.709348932125415"><ele>16.333333333333332</ele><time>2026-04-12T09:38:25Z</time></trkpt><trkpt lat="45.92726971968709" lon="12.709184375772198"><ele>16.666666666666668</ele><time>2026-04-12T09:38:26.001Z</time></trkpt><trkpt lat="45.927087226359234" lon="12.709020816089962"><ele>17.0</ele><time>2026-04-12T09:38:27.001Z</time></trkpt><trkpt lat="45.926905844079144" lon="12.708855571395864"><ele>17.333333333333336</ele><time>2026-04-12T09:38:28.001Z</time></trkpt><trkpt lat="45.92672713028847" lon="12.708693729431968"><ele>17.666666666666668</ele><time>2026-04-12T09:38:29.001Z</time></trkpt><trkpt lat="45.92654841461971" lon="12.70852702365968"><ele>18.0</ele><time>2026-04-12T09:38:30.001Z</time></trkpt><trkpt lat="45.92637127171073" lon="12.708362259382119"><ele>18.0</ele><time>2026-04-12T09:38:31.001Z</time></trkpt><trkpt lat="45.926195735832614" lon="12.708202568739354"><ele>18.0</ele><time>2026-04-12T09:38:32.001Z</time></trkpt><trkpt lat="45.926018153501225" lon="12.708042571724365"><ele>18.0</ele><time>2026-04-12T09:38:33.001Z</time></trkpt><trkpt lat="45.925841186036976" lon="12.707883387643916"><ele>17.333333333333332</ele><time>2026-04-12T09:38:34.001Z</time></trkpt><trkpt lat="45.92566787980176" lon="12.70772274941409"><ele>16.666666666666664</ele><time>2026-04-12T09:38:35.001Z</time></trkpt><trkpt lat="45.92549406223757" lon="12.707561282068516"><ele>16.0</ele><time>2026-04-12T09:38:36.001Z</time></trkpt><trkpt lat="45.925320495742355" lon="12.707397601972351"><ele>16.0</ele><time>2026-04-12T09:38:37.001Z</time></trkpt><trkpt lat="45.92514439363352" lon="12.707237317509803"><ele>16.0</ele><time>2026-04-12T09:38:38.001Z</time></trkpt><trkpt lat="45.92496193280482" lon="12.707076066646023"><ele>16.0</ele><time>2026-04-12T09:38:39.001Z</time></trkpt><trkpt lat="45.92477908997097" lon="12.706909347667022"><ele>16.0</ele><time>2026-04-12T09:38:40.001Z</time></trkpt><trkpt lat="45.92459571680847" lon="12.706740527393428"><ele>16.0</ele><time>2026-04-12T09:38:41.001Z</time></trkpt><trkpt lat="45.92440818163822" lon="12.706567976341887"><ele>16.0</ele><time>2026-04-12T09:38:42.001Z</time></trkpt><trkpt lat="45.92422063683688" lon="12.706392693144103"><ele>16.0</ele><time>2026-04-12T09:38:43.001Z</time></trkpt><trkpt lat="45.92403472354407" lon="12.70621845038628"><ele>16.0</ele><time>2026-04-12T09:38:44.001Z</time></trkpt><trkpt lat="45.923846162850126" lon="12.706043542166324"><ele>16.0</ele><time>2026-04-12T09:38:45.001Z</time></trkpt><trkpt lat="45.923655224039244" lon="12.705869111500196"><ele>16.5</ele><time>2026-04-12T09:38:46.001Z</time></trkpt><trkpt lat="45.923460319170324" lon="12.705689155463535"><ele>17.0</ele><time>2026-04-12T09:38:47.001Z</time></trkpt><trkpt lat="45.923263154233254" lon="12.705509833514808"><ele>17.0</ele><time>2026-04-12T09:38:48.001Z</time></trkpt><trkpt lat="45.92305068012791" lon="12.705313259557439"><ele>17.0</ele><time>2026-04-12T09:38:49.001Z</time></trkpt><trkpt lat="45.92285281620974" lon="12.705128495314755"><ele>16.666666666666668</ele><time>2026-04-12T09:38:50.001Z</time></trkpt><trkpt lat="45.92266608434835" lon="12.70495479344059"><ele>16.333333333333332</ele><time>2026-04-12T09:38:51.001Z</time></trkpt><trkpt lat="45.92248482400624" lon="12.70478885806308"><ele>16.0</ele><time>2026-04-12T09:38:52.001Z</time></trkpt><trkpt lat="45.92231388039559" lon="12.704632689992366"><ele>16.0</ele><time>2026-04-12T09:38:53.001Z</time></trkpt><trkpt lat="45.92214637383509" lon="12.704482005008822"><ele>16.0</ele><time>2026-04-12T09:38:54.001Z</time></trkpt><trkpt lat="45.92197297468881" lon="12.704339769446312"><ele>16.0</ele><time>2026-04-12T09:38:55.001Z</time></trkpt><trkpt lat="45.9217905531083" lon="12.70420286098238"><ele>16.0</ele><time>2026-04-12T09:38:56.001Z</time></trkpt><trkpt lat="45.921595975453386" lon="12.7040673206325"><ele>16.0</ele><time>2026-04-12T09:38:57.001Z</time></trkpt><trkpt lat="45.92140319422034" lon="12.703941990392446"><ele>16.0</ele><time>2026-04-12T09:38:58.001Z</time></trkpt><trkpt lat="45.921217834964395" lon="12.703825755081256"><ele>16.0</ele><time>2026-04-12T09:38:59.001Z</time></trkpt><trkpt lat="45.92104330944636" lon="12.703720392902754"><ele>16.0</ele><time>2026-04-12T09:39:00.001Z</time></trkpt><trkpt lat="45.92087495660931" lon="12.703620869210404"><ele>16.0</ele><time>2026-04-12T09:39:01.001Z</time></trkpt><trkpt lat="45.92071511661484" lon="12.703535879071758"><ele>15.666666666666666</ele><time>2026-04-12T09:39:02.001Z</time></trkpt><trkpt lat="45.920562356502074" lon="12.70345761328951"><ele>15.333333333333332</ele><time>2026-04-12T09:39:03.001Z</time></trkpt><trkpt lat="45.9204217433452" lon="12.703371521922081"><ele>15.0</ele><time>2026-04-12T09:39:04.001Z</time></trkpt><trkpt lat="45.92029213641241" lon="12.703273130702994"><ele>15.0</ele><time>2026-04-12T09:39:05.001Z</time></trkpt><trkpt lat="45.920178293631714" lon="12.703162024178338"><ele>15.0</ele><time>2026-04-12T09:39:06.001Z</time></trkpt><trkpt lat="45.920078307695" lon="12.703038539503082"><ele>15.0</ele><time>2026-04-12T09:39:07.001Z</time></trkpt><trkpt lat="45.91999832499877" lon="12.702902077261285"><ele>15.0</ele><time>2026-04-12T09:39:08.001Z</time></trkpt><trkpt lat="45.91993512697849" lon="12.702754942377869"><ele>15.25</ele><time>2026-04-12T09:39:09.001Z</time></trkpt><trkpt lat="45.91987861363565" lon="12.702567857283201"><ele>15.5</ele><time>2026-04-12T09:39:10.001Z</time></trkpt><trkpt lat="45.919838773608625" lon="12.70236278824653"><ele>15.75</ele><time>2026-04-12T09:39:11.001Z</time></trkpt><trkpt lat="45.91981923121179" lon="12.70215466395272"><ele>16.0</ele><time>2026-04-12T09:39:12.001Z</time></trkpt><trkpt lat="45.91982873405062" lon="12.701949303783362"><ele>15.666666666666666</ele><time>2026-04-12T09:39:13.001Z</time></trkpt><trkpt lat="45.91986765590783" lon="12.701735377400086"><ele>15.333333333333332</ele><time>2026-04-12T09:39:14.001Z</time></trkpt><trkpt lat="45.91992738243559" lon="12.701513445405292"><ele>15.0</ele><time>2026-04-12T09:39:15.001Z</time></trkpt><trkpt lat="45.92001051394215" lon="12.701279640233407"><ele>15.333333333333332</ele><time>2026-04-12T09:39:16.001Z</time></trkpt><trkpt lat="45.92011988186693" lon="12.701037687630423"><ele>15.666666666666666</ele><time>2026-04-12T09:39:17.001Z</time></trkpt><trkpt lat="45.92024524973029" lon="12.700784960491124"><ele>16.0</ele><time>2026-04-12T09:39:18.001Z</time></trkpt><trkpt lat="45.92036971966618" lon="12.70052981309482"><ele>16.5</ele><time>2026-04-12T09:39:19.001Z</time></trkpt><trkpt lat="45.920500464626336" lon="12.700243217460997"><ele>17.0</ele><time>2026-04-12T09:39:20.001Z</time></trkpt><trkpt lat="45.92063725407895" lon="12.699933015623769"><ele>17.0</ele><time>2026-04-12T09:39:21.001Z</time></trkpt><trkpt lat="45.920783328221226" lon="12.699605745397587"><ele>17.0</ele><time>2026-04-12T09:39:22.001Z</time></trkpt><trkpt lat="45.920932095540635" lon="12.69929325147232"><ele>17.0</ele><time>2026-04-12T09:39:23.002Z</time></trkpt><trkpt lat="45.92108633188766" lon="12.698989100968658"><ele>17.0</ele><time>2026-04-12T09:39:24.002Z</time></trkpt><trkpt lat="45.9212350951365" lon="12.698695076757023"><ele>17.5</ele><time>2026-04-12T09:39:25.002Z</time></trkpt><trkpt lat="45.92138855978742" lon="12.698397032532807"><ele>18.0</ele><time>2026-04-12T09:39:26.002Z</time></trkpt><trkpt lat="45.921545378855235" lon="12.698093279991657"><ele>18.0</ele><time>2026-04-12T09:39:27.002Z</time></trkpt><trkpt lat="45.92170723679351" lon="12.697782064267905"><ele>18.0</ele><time>2026-04-12T09:39:28.002Z</time></trkpt><trkpt lat="45.92188075054217" lon="12.697448986151533"><ele>18.0</ele><time>2026-04-12T09:39:29.002Z</time></trkpt><trkpt lat="45.92206661058932" lon="12.697090272680997"><ele>18.0</ele><time>2026-04-12T09:39:30.002Z</time></trkpt><trkpt lat="45.92225533082452" lon="12.69672519400998"><ele>18.0</ele><time>2026-04-12T09:39:31.002Z</time></trkpt><trkpt lat="45.92244539880601" lon="12.696357280595231"><ele>18.0</ele><time>2026-04-12T09:39:32.002Z</time></trkpt><trkpt lat="45.922630514625396" lon="12.695994018845134"><ele>18.0</ele><time>2026-04-12T09:39:33.002Z</time></trkpt><trkpt lat="45.922807963141146" lon="12.695639953822322"><ele>18.0</ele><time>2026-04-12T09:39:34.002Z</time></trkpt><trkpt lat="45.92297439666941" lon="12.695305148278418"><ele>18.0</ele><time>2026-04-12T09:39:35.002Z</time></trkpt><trkpt lat="45.923136432368054" lon="12.694977624253076"><ele>18.0</ele><time>2026-04-12T09:39:36.002Z</time></trkpt><trkpt lat="45.92329196981903" lon="12.69465427971651"><ele>17.5</ele><time>2026-04-12T09:39:37.002Z</time></trkpt><trkpt lat="45.92344323420889" lon="12.694334252593846"><ele>17.0</ele><time>2026-04-12T09:39:38.002Z</time></trkpt><trkpt lat="45.923591765902884" lon="12.694014648640545"><ele>17.0</ele><time>2026-04-12T09:39:39.002Z</time></trkpt><trkpt lat="45.92373739759768" lon="12.69369664777048"><ele>17.0</ele><time>2026-04-12T09:39:40.002Z</time></trkpt><trkpt lat="45.923883562061974" lon="12.69337600200192"><ele>18.0</ele><time>2026-04-12T09:39:41.002Z</time></trkpt><trkpt lat="45.92402973571904" lon="12.6930497818795"><ele>19.0</ele><time>2026-04-12T09:39:42.002Z</time></trkpt><trkpt lat="45.924176440642434" lon="12.692713838529551"><ele>19.5</ele><time>2026-04-12T09:39:43.002Z</time></trkpt><trkpt lat="45.924323815649345" lon="12.692373021900897"><ele>20.0</ele><time>2026-04-12T09:39:44.002Z</time></trkpt><trkpt lat="45.92447285541359" lon="12.692026290232869"><ele>18.0</ele><time>2026-04-12T09:39:45.002Z</time></trkpt><trkpt lat="45.924621590558424" lon="12.691670459054219"><ele>16.0</ele><time>2026-04-12T09:39:46.002Z</time></trkpt><trkpt lat="45.92476901050748" lon="12.691311253876147"><ele>17.0</ele><time>2026-04-12T09:39:47.002Z</time></trkpt><trkpt lat="45.924915735251794" lon="12.690956103694083"><ele>18.0</ele><time>2026-04-12T09:39:48.002Z</time></trkpt><trkpt lat="45.925060179967986" lon="12.690607209037449"><ele>18.5</ele><time>2026-04-12T09:39:49Z</time></trkpt><trkpt lat="45.92520093274251" lon="12.69026253701139"><ele>19.0</ele><time>2026-04-12T09:39:50Z</time></trkpt><trkpt lat="45.92533993816124" lon="12.689915235471517"><ele>19.0</ele><time>2026-04-12T09:39:51Z</time></trkpt><trkpt lat="45.92547853652549" lon="12.689551707130585"><ele>19.0</ele><time>2026-04-12T09:39:52Z</time></trkpt><trkpt lat="45.92561497646457" lon="12.689184521136376"><ele>19.0</ele><time>2026-04-12T09:39:53Z</time></trkpt><trkpt lat="45.925752418017794" lon="12.688816551613069"><ele>19.0</ele><time>2026-04-12T09:39:54Z</time></trkpt><trkpt lat="45.92589012700664" lon="12.688438656197508"><ele>18.0</ele><time>2026-04-12T09:39:55Z</time></trkpt><trkpt lat="45.92602921417068" lon="12.688039548873423"><ele>17.0</ele><time>2026-04-12T09:39:56Z</time></trkpt><trkpt lat="45.926173975840605" lon="12.687624913865559"><ele>16.5</ele><time>2026-04-12T09:39:57Z</time></trkpt><trkpt lat="45.926323415757714" lon="12.687197992549061"><ele>16.0</ele><time>2026-04-12T09:39:58Z</time></trkpt><trkpt lat="45.92646846804495" lon="12.686787299800674"><ele>17.0</ele><time>2026-04-12T09:39:59Z</time></trkpt><trkpt lat="45.92661050447552" lon="12.686389063872658"><ele>18.0</ele><time>2026-04-12T09:40:00Z</time></trkpt><trkpt lat="45.92675272937327" lon="12.68599828668013"><ele>18.0</ele><time>2026-04-12T09:40:01Z</time></trkpt><trkpt lat="45.92689548520762" lon="12.68561543123591"><ele>18.0</ele><time>2026-04-12T09:40:02Z</time></trkpt><trkpt lat="45.92704011891497" lon="12.6852346757767"><ele>20.5</ele><time>2026-04-12T09:40:03Z</time></trkpt><trkpt lat="45.927187685158884" lon="12.68485716220017"><ele>23.0</ele><time>2026-04-12T09:40:04Z</time></trkpt><trkpt lat="45.92733197595519" lon="12.684484145692677"><ele>22.5</ele><time>2026-04-12T09:40:05Z</time></trkpt><trkpt lat="45.927471919730884" lon="12.684117757421388"><ele>22.0</ele><time>2026-04-12T09:40:06Z</time></trkpt><trkpt lat="45.92760890255791" lon="12.6837511533769"><ele>20.0</ele><time>2026-04-12T09:40:07Z</time></trkpt><trkpt lat="45.92773964152373" lon="12.683393001389051"><ele>18.0</ele><time>2026-04-12T09:40:08Z</time></trkpt><trkpt lat="45.927868729365464" lon="12.683037059980023"><ele>18.0</ele><time>2026-04-12T09:40:09Z</time></trkpt><trkpt lat="45.92799523191625" lon="12.682684439704003"><ele>18.0</ele><time>2026-04-12T09:40:10Z</time></trkpt><trkpt lat="45.92812189375431" lon="12.682328816116012"><ele>18.0</ele><time>2026-04-12T09:40:11Z</time></trkpt><trkpt lat="45.928249694232186" lon="12.681970431941727"><ele>18.0</ele><time>2026-04-12T09:40:12Z</time></trkpt><trkpt lat="45.92837881957232" lon="12.681612152102657"><ele>17.0</ele><time>2026-04-12T09:40:13Z</time></trkpt><trkpt lat="45.92850925982231" lon="12.681248556786722"><ele>16.0</ele><time>2026-04-12T09:40:14Z</time></trkpt><trkpt lat="45.928643757143774" lon="12.680873146358753"><ele>16.0</ele><time>2026-04-12T09:40:15Z</time></trkpt><trkpt lat="45.928782842446694" lon="12.6804914497805"><ele>16.0</ele><time>2026-04-12T09:40:16Z</time></trkpt><trkpt lat="45.9289221193647" lon="12.680113738193718"><ele>17.0</ele><time>2026-04-12T09:40:17Z</time></trkpt><trkpt lat="45.92905716760599" lon="12.679740241632759"><ele>18.0</ele><time>2026-04-12T09:40:18Z</time></trkpt><trkpt lat="45.92919150693629" lon="12.679369549718565"><ele>18.0</ele><time>2026-04-12T09:40:19Z</time></trkpt><trkpt lat="45.92932669482623" lon="12.67899958703968"><ele>18.0</ele><time>2026-04-12T09:40:20Z</time></trkpt><trkpt lat="45.9294625521681" lon="12.678629219233752"><ele>19.0</ele><time>2026-04-12T09:40:21Z</time></trkpt><trkpt lat="45.92959965372091" lon="12.678256089656669"><ele>20.0</ele><time>2026-04-12T09:40:22Z</time></trkpt><trkpt lat="45.92973455541563" lon="12.677887746927782"><ele>19.0</ele><time>2026-04-12T09:40:23Z</time></trkpt><trkpt lat="45.929866243333144" lon="12.677528321955778"><ele>18.0</ele><time>2026-04-12T09:40:24Z</time></trkpt><trkpt lat="45.929995352926774" lon="12.677170660690676"><ele>18.5</ele><time>2026-04-12T09:40:25Z</time></trkpt><trkpt lat="45.93012220753926" lon="12.676818494078962"><ele>19.0</ele><time>2026-04-12T09:40:26Z</time></trkpt><trkpt lat="45.93024716033371" lon="12.6764697552376"><ele>19.0</ele><time>2026-04-12T09:40:27Z</time></trkpt><trkpt lat="45.93037084056177" lon="12.676124461378908"><ele>19.0</ele><time>2026-04-12T09:40:28Z</time></trkpt><trkpt lat="45.93049615604571" lon="12.6757799738223"><ele>19.0</ele><time>2026-04-12T09:40:29.001Z</time></trkpt><trkpt lat="45.93062283897715" lon="12.675439180107299"><ele>19.0</ele><time>2026-04-12T09:40:30.001Z</time></trkpt><trkpt lat="45.93075274481688" lon="12.675103471228324"><ele>19.0</ele><time>2026-04-12T09:40:31.001Z</time></trkpt><trkpt lat="45.930884578547094" lon="12.67477307447499"><ele>19.0</ele><time>2026-04-12T09:40:32.001Z</time></trkpt><trkpt lat="45.93101588816546" lon="12.674453794544982"><ele>19.0</ele><time>2026-04-12T09:40:33.001Z</time></trkpt><trkpt lat="45.931150320200885" lon="12.674140610206926"><ele>19.0</ele><time>2026-04-12T09:40:34.001Z</time></trkpt><trkpt lat="45.93128157319343" lon="12.6738306226116"><ele>19.5</ele><time>2026-04-12T09:40:35.001Z</time></trkpt><trkpt lat="45.93141197081566" lon="12.673527274739575"><ele>20.0</ele><time>2026-04-12T09:40:36.001Z</time></trkpt><trkpt lat="45.931539031383586" lon="12.673237190794568"><ele>20.0</ele><time>2026-04-12T09:40:37.001Z</time></trkpt><trkpt lat="45.93166512900861" lon="12.67296035593665"><ele>20.0</ele><time>2026-04-12T09:40:38.001Z</time></trkpt><trkpt lat="45.93179562198521" lon="12.67268520936048"><ele>18.5</ele><time>2026-04-12T09:40:39.001Z</time></trkpt><trkpt lat="45.93192677077775" lon="12.6724134531475"><ele>17.0</ele><time>2026-04-12T09:40:40.001Z</time></trkpt><trkpt lat="45.932058624346546" lon="12.67214148891434"><ele>17.5</ele><time>2026-04-12T09:40:41.001Z</time></trkpt><trkpt lat="45.93219021035511" lon="12.671869078707507"><ele>18.0</ele><time>2026-04-12T09:40:42.001Z</time></trkpt><trkpt lat="45.93232458029109" lon="12.671597615130656"><ele>18.0</ele><time>2026-04-12T09:40:43.001Z</time></trkpt><trkpt lat="45.93245921989036" lon="12.671326694059392"><ele>18.0</ele><time>2026-04-12T09:40:44.001Z</time></trkpt><trkpt lat="45.93259538889691" lon="12.67106416348222"><ele>17.5</ele><time>2026-04-12T09:40:45.001Z</time></trkpt><trkpt lat="45.93273392419319" lon="12.670793430293601"><ele>17.0</ele><time>2026-04-12T09:40:46.001Z</time></trkpt><trkpt lat="45.93287654582146" lon="12.670520955079912"><ele>19.0</ele><time>2026-04-12T09:40:47.001Z</time></trkpt><trkpt lat="45.93302322711114" lon="12.670250889513433"><ele>21.0</ele><time>2026-04-12T09:40:48.001Z</time></trkpt><trkpt lat="45.93317408004761" lon="12.669980171647012"><ele>21.0</ele><time>2026-04-12T09:40:49.001Z</time></trkpt><trkpt lat="45.93332869369756" lon="12.669709874314877"><ele>21.0</ele><time>2026-04-12T09:40:50.001Z</time></trkpt><trkpt lat="45.93348432884085" lon="12.6694407330754"><ele>21.0</ele><time>2026-04-12T09:40:51.001Z</time></trkpt><trkpt lat="45.93364344461077" lon="12.66916884509883"><ele>21.0</ele><time>2026-04-12T09:40:52.001Z</time></trkpt><trkpt lat="45.933803996731214" lon="12.668898663478238"><ele>21.0</ele><time>2026-04-12T09:40:53.001Z</time></trkpt><trkpt lat="45.93396714478011" lon="12.668628857965432"><ele>21.0</ele><time>2026-04-12T09:40:54.001Z</time></trkpt><trkpt lat="45.93413251700607" lon="12.668359967380486"><ele>20.5</ele><time>2026-04-12T09:40:55.001Z</time></trkpt><trkpt lat="45.93430041046911" lon="12.668090522000002"><ele>20.0</ele><time>2026-04-12T09:40:56.001Z</time></trkpt><trkpt lat="45.93447081506432" lon="12.667820171307506"><ele>20.5</ele><time>2026-04-12T09:40:57.001Z</time></trkpt><trkpt lat="45.934645336769115" lon="12.667552239049487"><ele>21.0</ele><time>2026-04-12T09:40:58.001Z</time></trkpt><trkpt lat="45.934823336997084" lon="12.66728536472627"><ele>21.0</ele><time>2026-04-12T09:40:59.001Z</time></trkpt><trkpt lat="45.93500490907513" lon="12.667021031664003"><ele>21.0</ele><time>2026-04-12T09:41:00.001Z</time></trkpt><trkpt lat="45.935192190799576" lon="12.666761465653446"><ele>19.5</ele><time>2026-04-12T09:41:01.001Z</time></trkpt><trkpt lat="45.93537747693038" lon="12.666498151837356"><ele>18.0</ele><time>2026-04-12T09:41:02.001Z</time></trkpt><trkpt lat="45.93556467831872" lon="12.66623627537563"><ele>18.5</ele><time>2026-04-12T09:41:03.001Z</time></trkpt><trkpt lat="45.935752303848126" lon="12.665975415910804"><ele>19.0</ele><time>2026-04-12T09:41:04.001Z</time></trkpt><trkpt lat="45.935941557469974" lon="12.665715636872745"><ele>19.5</ele><time>2026-04-12T09:41:05.001Z</time></trkpt><trkpt lat="45.936130229784496" lon="12.665456852116154"><ele>20.0</ele><time>2026-04-12T09:41:06.001Z</time></trkpt><trkpt lat="45.93631675170654" lon="12.665198429757476"><ele>20.0</ele><time>2026-04-12T09:41:07.001Z</time></trkpt><trkpt lat="45.93650315055625" lon="12.664937343985043"><ele>20.0</ele><time>2026-04-12T09:41:08.001Z</time></trkpt><trkpt lat="45.93668954122843" lon="12.664678030613695"><ele>19.0</ele><time>2026-04-12T09:41:09.001Z</time></trkpt><trkpt lat="45.93687962194603" lon="12.664420853821758"><ele>18.0</ele><time>2026-04-12T09:41:10.001Z</time></trkpt><trkpt lat="45.937071246359935" lon="12.66416305885088"><ele>18.0</ele><time>2026-04-12T09:41:11.001Z</time></trkpt><trkpt lat="45.93726305538729" lon="12.66390202471897"><ele>18.0</ele><time>2026-04-12T09:41:12.001Z</time></trkpt><trkpt lat="45.9374528795081" lon="12.663637802818133"><ele>19.0</ele><time>2026-04-12T09:41:13.001Z</time></trkpt><trkpt lat="45.93764139693714" lon="12.663368884267026"><ele>20.0</ele><time>2026-04-12T09:41:14.001Z</time></trkpt><trkpt lat="45.937830858752164" lon="12.663097364399961"><ele>20.0</ele><time>2026-04-12T09:41:15.001Z</time></trkpt><trkpt lat="45.938021894570056" lon="12.662822545835839"><ele>20.0</ele><time>2026-04-12T09:41:16.001Z</time></trkpt><trkpt lat="45.93821349244712" lon="12.662545957730295"><ele>19.0</ele><time>2026-04-12T09:41:17.001Z</time></trkpt><trkpt lat="45.93840504869364" lon="12.662266654502785"><ele>18.0</ele><time>2026-04-12T09:41:18.001Z</time></trkpt><trkpt lat="45.938594335628665" lon="12.661988074453916"><ele>19.5</ele><time>2026-04-12T09:41:19.001Z</time></trkpt><trkpt lat="45.9387800753109" lon="12.661707713715442"><ele>21.0</ele><time>2026-04-12T09:41:20.001Z</time></trkpt><trkpt lat="45.938963478535406" lon="12.661426439840826"><ele>21.0</ele><time>2026-04-12T09:41:21.001Z</time></trkpt><trkpt lat="45.93914418044745" lon="12.66114176940197"><ele>21.0</ele><time>2026-04-12T09:41:22.001Z</time></trkpt><trkpt lat="45.939323008391696" lon="12.66085250981295"><ele>21.0</ele><time>2026-04-12T09:41:23.001Z</time></trkpt><trkpt lat="45.939500744200515" lon="12.660561636150526"><ele>21.0</ele><time>2026-04-12T09:41:24.001Z</time></trkpt><trkpt lat="45.9396765550137" lon="12.660270013876994"><ele>21.0</ele><time>2026-04-12T09:41:25.001Z</time></trkpt><trkpt lat="45.93985451907563" lon="12.659977029375234"><ele>21.0</ele><time>2026-04-12T09:41:26.002Z</time></trkpt><trkpt lat="45.940033638942545" lon="12.65967545957671"><ele>19.5</ele><time>2026-04-12T09:41:27.002Z</time></trkpt><trkpt lat="45.94021566462398" lon="12.659358318929327"><ele>18.0</ele><time>2026-04-12T09:41:28.002Z</time></trkpt><trkpt lat="45.94039061553806" lon="12.659038283445382"><ele>18.0</ele><time>2026-04-12T09:41:29.002Z</time></trkpt><trkpt lat="45.94055650763539" lon="12.658724033500702"><ele>18.0</ele><time>2026-04-12T09:41:30.002Z</time></trkpt><trkpt lat="45.94070609496741" lon="12.658425891777664"><ele>18.5</ele><time>2026-04-12T09:41:31.002Z</time></trkpt><trkpt lat="45.940846977886366" lon="12.658136940782288"><ele>19.0</ele><time>2026-04-12T09:41:32.002Z</time></trkpt><trkpt lat="45.94098514736942" lon="12.657846462596732"><ele>19.5</ele><time>2026-04-12T09:41:33.002Z</time></trkpt><trkpt lat="45.941120057589174" lon="12.657556841276087"><ele>20.0</ele><time>2026-04-12T09:41:34.002Z</time></trkpt><trkpt lat="45.941252728638176" lon="12.657270005482877"><ele>20.0</ele><time>2026-04-12T09:41:35.002Z</time></trkpt><trkpt lat="45.941383297430356" lon="12.656979618040108"><ele>20.0</ele><time>2026-04-12T09:41:36.002Z</time></trkpt><trkpt lat="45.941509854403094" lon="12.65668732596191"><ele>20.0</ele><time>2026-04-12T09:41:37.002Z</time></trkpt><trkpt lat="45.94163305221573" lon="12.656390596606856"><ele>20.0</ele><time>2026-04-12T09:41:38.002Z</time></trkpt><trkpt lat="45.941754023866395" lon="12.656092908516648"><ele>18.5</ele><time>2026-04-12T09:41:39.002Z</time></trkpt><trkpt lat="45.941872000738904" lon="12.655793533361038"><ele>17.0</ele><time>2026-04-12T09:41:40.002Z</time></trkpt><trkpt lat="45.94198628291284" lon="12.655490790026146"><ele>18.0</ele><time>2026-04-12T09:41:41.002Z</time></trkpt><trkpt lat="45.94209801425585" lon="12.655182961184419"><ele>19.0</ele><time>2026-04-12T09:41:42.002Z</time></trkpt><trkpt lat="45.94220687944835" lon="12.654870176518717"><ele>19.0</ele><time>2026-04-12T09:41:43.002Z</time></trkpt><trkpt lat="45.94231172870766" lon="12.65455211144066"><ele>19.0</ele><time>2026-04-12T09:41:44.002Z</time></trkpt><trkpt lat="45.94241535010883" lon="12.654232267896154"><ele>19.5</ele><time>2026-04-12T09:41:45.002Z</time></trkpt><trkpt lat="45.94251939458181" lon="12.65390862210596"><ele>20.0</ele><time>2026-04-12T09:41:46.002Z</time></trkpt><trkpt lat="45.94262081899419" lon="12.653585280876433"><ele>20.0</ele><time>2026-04-12T09:41:47.002Z</time></trkpt><trkpt lat="45.94271844382718" lon="12.653255942353097"><ele>20.0</ele><time>2026-04-12T09:41:48.002Z</time></trkpt><trkpt lat="45.9428137646902" lon="12.652921717373006"><ele>20.5</ele><time>2026-04-12T09:41:49.002Z</time></trkpt><trkpt lat="45.94290537943186" lon="12.652581417610053"><ele>21.0</ele><time>2026-04-12T09:41:50.002Z</time></trkpt><trkpt lat="45.94299484563518" lon="12.652236034032962"><ele>21.0</ele><time>2026-04-12T09:41:51.002Z</time></trkpt><trkpt lat="45.94308251461034" lon="12.651887338826109"><ele>21.0</ele><time>2026-04-12T09:41:52.002Z</time></trkpt><trkpt lat="45.943168648805496" lon="12.651534384510493"><ele>21.0</ele><time>2026-04-12T09:41:53.002Z</time></trkpt><trkpt lat="45.94325036206871" lon="12.651177846248418"><ele>21.0</ele><time>2026-04-12T09:41:54.002Z</time></trkpt><trkpt lat="45.94332631637792" lon="12.650822154566397"><ele>20.5</ele><time>2026-04-12T09:41:55Z</time></trkpt><trkpt lat="45.94340052120843" lon="12.650462681350916"><ele>20.0</ele><time>2026-04-12T09:41:56Z</time></trkpt><trkpt lat="45.94347252656866" lon="12.650100260998416"><ele>17.5</ele><time>2026-04-12T09:41:57Z</time></trkpt><trkpt lat="45.94353990620707" lon="12.649734028655747"><ele>15.0</ele><time>2026-04-12T09:41:58Z</time></trkpt><trkpt lat="45.943603777206725" lon="12.649361852672401"><ele>14.5</ele><time>2026-04-12T09:41:59Z</time></trkpt><trkpt lat="45.94366428750719" lon="12.648988454642803"><ele>14.0</ele><time>2026-04-12T09:42:00Z</time></trkpt><trkpt lat="45.943720480229075" lon="12.648613360384308"><ele>14.0</ele><time>2026-04-12T09:42:01Z</time></trkpt><trkpt lat="45.9437738596004" lon="12.648237307294869"><ele>14.0</ele><time>2026-04-12T09:42:02Z</time></trkpt><trkpt lat="45.94382256648183" lon="12.647867034581456"><ele>14.0</ele><time>2026-04-12T09:42:03Z</time></trkpt><trkpt lat="45.9438642459055" lon="12.647518582866267"><ele>14.0</ele><time>2026-04-12T09:42:04Z</time></trkpt><trkpt lat="45.943902379946365" lon="12.647188937370094"><ele>15.333333333333334</ele><time>2026-04-12T09:42:05Z</time></trkpt><trkpt lat="45.94393645293244" lon="12.646871389575644"><ele>16.666666666666668</ele><time>2026-04-12T09:42:06Z</time></trkpt><trkpt lat="45.94396859081559" lon="12.646567711432521"><ele>18.0</ele><time>2026-04-12T09:42:07Z</time></trkpt><trkpt lat="45.943998781752" lon="12.646270188255064"><ele>18.5</ele><time>2026-04-12T09:42:08Z</time></trkpt><trkpt lat="45.94402855542449" lon="12.645948405124713"><ele>19.0</ele><time>2026-04-12T09:42:09Z</time></trkpt><trkpt lat="45.944053726353424" lon="12.645608975966786"><ele>18.0</ele><time>2026-04-12T09:42:10Z</time></trkpt><trkpt lat="45.94407773562096" lon="12.64525867476103"><ele>17.0</ele><time>2026-04-12T09:42:11Z</time></trkpt><trkpt lat="45.94410277644643" lon="12.644895113159352"><ele>17.0</ele><time>2026-04-12T09:42:12Z</time></trkpt><trkpt lat="45.94412995130582" lon="12.644517584658635"><ele>17.0</ele><time>2026-04-12T09:42:13Z</time></trkpt><trkpt lat="45.944157793025234" lon="12.64412738198541"><ele>15.0</ele><time>2026-04-12T09:42:14Z</time></trkpt><trkpt lat="45.94418591856433" lon="12.643733497904616"><ele>13.0</ele><time>2026-04-12T09:42:15Z</time></trkpt><trkpt lat="45.94421135484104" lon="12.643340493204692"><ele>11.5</ele><time>2026-04-12T09:42:16Z</time></trkpt><trkpt lat="45.94423524235015" lon="12.642946642646912"><ele>10.0</ele><time>2026-04-12T09:42:17Z</time></trkpt><trkpt lat="45.944259257780466" lon="12.642558206923493"><ele>10.0</ele><time>2026-04-12T09:42:18Z</time></trkpt><trkpt lat="45.94427978929947" lon="12.642186156051304"><ele>10.0</ele><time>2026-04-12T09:42:19Z</time></trkpt><trkpt lat="45.94429863885112" lon="12.64183556943756"><ele>9.5</ele><time>2026-04-12T09:42:20Z</time></trkpt><trkpt lat="45.94431552630888" lon="12.64149540562166"><ele>9.0</ele><time>2026-04-12T09:42:21Z</time></trkpt><trkpt lat="45.944333630414" lon="12.641159437092794"><ele>10.0</ele><time>2026-04-12T09:42:22Z</time></trkpt><trkpt lat="45.94435135449374" lon="12.640824142353432"><ele>11.0</ele><time>2026-04-12T09:42:23Z</time></trkpt><trkpt lat="45.94436907151132" lon="12.640488256971148"><ele>10.5</ele><time>2026-04-12T09:42:24Z</time></trkpt><trkpt lat="45.94438734195345" lon="12.640148184568094"><ele>10.0</ele><time>2026-04-12T09:42:25Z</time></trkpt><trkpt lat="45.94440641882174" lon="12.639806806911915"><ele>10.0</ele><time>2026-04-12T09:42:26Z</time></trkpt><trkpt lat="45.94442716845445" lon="12.639464552373665"><ele>10.0</ele><time>2026-04-12T09:42:27Z</time></trkpt><trkpt lat="45.94444572565411" lon="12.639117859802642"><ele>10.0</ele><time>2026-04-12T09:42:28Z</time></trkpt><trkpt lat="45.94446315047876" lon="12.638767238518192"><ele>10.0</ele><time>2026-04-12T09:42:29Z</time></trkpt><trkpt lat="45.94448049366398" lon="12.638413642505785"><ele>10.0</ele><time>2026-04-12T09:42:30Z</time></trkpt><trkpt lat="45.94449735975433" lon="12.638057497842237"><ele>10.0</ele><time>2026-04-12T09:42:31Z</time></trkpt><trkpt lat="45.944515673708494" lon="12.637697670764418"><ele>12.0</ele><time>2026-04-12T09:42:32Z</time></trkpt><trkpt lat="45.94453565324464" lon="12.63733484970697"><ele>14.0</ele><time>2026-04-12T09:42:33Z</time></trkpt><trkpt lat="45.944555654554236" lon="12.636977659318989"><ele>15.0</ele><time>2026-04-12T09:42:34Z</time></trkpt><trkpt lat="45.94457479594112" lon="12.636623360790372"><ele>16.0</ele><time>2026-04-12T09:42:35.001Z</time></trkpt><trkpt lat="45.944594952094" lon="12.636268488352918"><ele>16.5</ele><time>2026-04-12T09:42:36.001Z</time></trkpt><trkpt lat="45.9446154046147" lon="12.63590312690231"><ele>17.0</ele><time>2026-04-12T09:42:37.001Z</time></trkpt><trkpt lat="45.944633754074744" lon="12.635543619313461"><ele>18.0</ele><time>2026-04-12T09:42:38.001Z</time></trkpt><trkpt lat="45.944651722489816" lon="12.635177768194596"><ele>19.0</ele><time>2026-04-12T09:42:39.001Z</time></trkpt><trkpt lat="45.944670131629735" lon="12.634815522126132"><ele>18.5</ele><time>2026-04-12T09:42:40.001Z</time></trkpt><trkpt lat="45.94468828494732" lon="12.63445061755231"><ele>18.0</ele><time>2026-04-12T09:42:41.001Z</time></trkpt><trkpt lat="45.94470750840976" lon="12.634085645164602"><ele>18.0</ele><time>2026-04-12T09:42:42.001Z</time></trkpt><trkpt lat="45.94472713619134" lon="12.63371982364126"><ele>18.0</ele><time>2026-04-12T09:42:43.001Z</time></trkpt><trkpt lat="45.94474656183303" lon="12.63335219421889"><ele>18.0</ele><time>2026-04-12T09:42:44.001Z</time></trkpt><trkpt lat="45.9447664904721" lon="12.632986885783025"><ele>18.0</ele><time>2026-04-12T09:42:45.001Z</time></trkpt><trkpt lat="45.944785603533745" lon="12.632640398480664"><ele>19.0</ele><time>2026-04-12T09:42:46.001Z</time></trkpt><trkpt lat="45.94480384261899" lon="12.632308140076663"><ele>20.0</ele><time>2026-04-12T09:42:47.001Z</time></trkpt><trkpt lat="45.9448219544508" lon="12.6319812095031"><ele>20.5</ele><time>2026-04-12T09:42:48.001Z</time></trkpt><trkpt lat="45.944837685451546" lon="12.63165706595473"><ele>21.0</ele><time>2026-04-12T09:42:49.001Z</time></trkpt><trkpt lat="45.94485181258363" lon="12.631334356964546"><ele>20.666666666666668</ele><time>2026-04-12T09:42:50.001Z</time></trkpt><trkpt lat="45.94486664473658" lon="12.631013279742062"><ele>20.333333333333336</ele><time>2026-04-12T09:42:51.001Z</time></trkpt><trkpt lat="45.944879289394116" lon="12.630695167675702"><ele>20.0</ele><time>2026-04-12T09:42:52.001Z</time></trkpt><trkpt lat="45.94488804738538" lon="12.630377679898102"><ele>20.0</ele><time>2026-04-12T09:42:53.001Z</time></trkpt><trkpt lat="45.944891387993785" lon="12.630056547842704"><ele>20.0</ele><time>2026-04-12T09:42:54.001Z</time></trkpt><trkpt lat="45.94489232634344" lon="12.629739293567601"><ele>20.0</ele><time>2026-04-12T09:42:55.001Z</time></trkpt><trkpt lat="45.944892215730505" lon="12.629427170577385"><ele>20.0</ele><time>2026-04-12T09:42:56.001Z</time></trkpt><trkpt lat="45.94489149193856" lon="12.629111483480457"><ele>20.0</ele><time>2026-04-12T09:42:57.001Z</time></trkpt><trkpt lat="45.94488784347293" lon="12.628789241496111"><ele>20.0</ele><time>2026-04-12T09:42:58.001Z</time></trkpt><trkpt lat="45.9448768189912" lon="12.628463939207274"><ele>20.0</ele><time>2026-04-12T09:42:59.001Z</time></trkpt><trkpt lat="45.94487512880112" lon="12.628163123592364"><ele>20.0</ele><time>2026-04-12T09:43:00.001Z</time></trkpt><trkpt lat="45.94485299391351" lon="12.627841456095558"><ele>20.0</ele><time>2026-04-12T09:43:01.001Z</time></trkpt><trkpt lat="45.94483022730614" lon="12.627524804082253"><ele>19.5</ele><time>2026-04-12T09:43:02.001Z</time></trkpt><trkpt lat="45.944800653341666" lon="12.627187280057829"><ele>19.0</ele><time>2026-04-12T09:43:03.001Z</time></trkpt><trkpt lat="45.94477286804829" lon="12.626877371088499"><ele>18.666666666666664</ele><time>2026-04-12T09:43:04.001Z</time></trkpt><trkpt lat="45.94474091942619" lon="12.626573428976306"><ele>18.333333333333332</ele><time>2026-04-12T09:43:05.001Z</time></trkpt><trkpt lat="45.94470129474614" lon="12.626267075818854"><ele>18.0</ele><time>2026-04-12T09:43:06.001Z</time></trkpt><trkpt lat="45.94465983650329" lon="12.625956729110339"><ele>18.0</ele><time>2026-04-12T09:43:07.001Z</time></trkpt><trkpt lat="45.94461298074895" lon="12.625641961822106"><ele>18.0</ele><time>2026-04-12T09:43:08.001Z</time></trkpt><trkpt lat="45.94456498674906" lon="12.625324059780787"><ele>18.0</ele><time>2026-04-12T09:43:09.001Z</time></trkpt><trkpt lat="45.94451208655734" lon="12.625026157916942"><ele>18.0</ele><time>2026-04-12T09:43:10.001Z</time></trkpt><trkpt lat="45.944459753799876" lon="12.624750929982152"><ele>18.0</ele><time>2026-04-12T09:43:11.001Z</time></trkpt><trkpt lat="45.944405744342724" lon="12.62448979046526"><ele>18.0</ele><time>2026-04-12T09:43:12.001Z</time></trkpt><trkpt lat="45.944356335695204" lon="12.624245990697924"><ele>18.0</ele><time>2026-04-12T09:43:13.001Z</time></trkpt><trkpt lat="45.94430883280079" lon="12.624001817581826"><ele>18.0</ele><time>2026-04-12T09:43:14.001Z</time></trkpt><trkpt lat="45.944272808446975" lon="12.623774313236105"><ele>18.666666666666668</ele><time>2026-04-12T09:43:15.001Z</time></trkpt><trkpt lat="45.944246235742405" lon="12.62354604130362"><ele>19.333333333333336</ele><time>2026-04-12T09:43:16.001Z</time></trkpt><trkpt lat="45.94422929224088" lon="12.62331116199809"><ele>20.0</ele><time>2026-04-12T09:43:17.001Z</time></trkpt><trkpt lat="45.94422571142579" lon="12.62309266021833"><ele>20.0</ele><time>2026-04-12T09:43:18.001Z</time></trkpt><trkpt lat="45.94425539783525" lon="12.622892874366084"><ele>20.0</ele><time>2026-04-12T09:43:19.001Z</time></trkpt><trkpt lat="45.94426513236523" lon="12.62270496782559"><ele>20.0</ele><time>2026-04-12T09:43:20.001Z</time></trkpt><trkpt lat="45.944308818804366" lon="12.622525098032229"><ele>20.0</ele><time>2026-04-12T09:43:21.001Z</time></trkpt><trkpt lat="45.944378328219315" lon="12.622335983991029"><ele>20.0</ele><time>2026-04-12T09:43:22.001Z</time></trkpt><trkpt lat="45.9444481153043" lon="12.622138441943463"><ele>20.0</ele><time>2026-04-12T09:43:23.001Z</time></trkpt><trkpt lat="45.94453650769367" lon="12.621965951709749"><ele>20.0</ele><time>2026-04-12T09:43:24.001Z</time></trkpt><trkpt lat="45.94463262974074" lon="12.621809258892892"><ele>20.0</ele><time>2026-04-12T09:43:25.001Z</time></trkpt><trkpt lat="45.94473933764651" lon="12.621672526946332"><ele>20.25</ele><time>2026-04-12T09:43:26.001Z</time></trkpt><trkpt lat="45.94484961901709" lon="12.62155402389237"><ele>20.5</ele><time>2026-04-12T09:43:27.001Z</time></trkpt><trkpt lat="45.944940038596414" lon="12.621424875483443"><ele>20.75</ele><time>2026-04-12T09:43:28.001Z</time></trkpt><trkpt lat="45.94504813725196" lon="12.621331595379973"><ele>21.0</ele><time>2026-04-12T09:43:29.001Z</time></trkpt><trkpt lat="45.945126795968875" lon="12.621221222382946"><ele>21.166666666666668</ele><time>2026-04-12T09:43:30.001Z</time></trkpt><trkpt lat="45.945188407149445" lon="12.62112472439738"><ele>21.333333333333332</ele><time>2026-04-12T09:43:31.001Z</time></trkpt><trkpt lat="45.94524924564208" lon="12.621056591649046"><ele>21.5</ele><time>2026-04-12T09:43:32.002Z</time></trkpt><trkpt lat="45.94532211343506" lon="12.621011561160723"><ele>21.666666666666664</ele><time>2026-04-12T09:43:33.002Z</time></trkpt><trkpt lat="45.94539203763397" lon="12.620946755432561"><ele>21.833333333333332</ele><time>2026-04-12T09:43:34.002Z</time></trkpt><trkpt lat="45.945433245234376" lon="12.620857615358155"><ele>22.0</ele><time>2026-04-12T09:43:35.002Z</time></trkpt><trkpt lat="45.94544012637267" lon="12.620755397368034"><ele>22.0</ele><time>2026-04-12T09:43:36.002Z</time></trkpt><trkpt lat="45.945425516677254" lon="12.620655641120292"><ele>22.0</ele><time>2026-04-12T09:43:37.002Z</time></trkpt><trkpt lat="45.94537246760317" lon="12.620555134766626"><ele>22.0</ele><time>2026-04-12T09:43:38.002Z</time></trkpt><trkpt lat="45.945285810152" lon="12.62046085166237"><ele>22.0</ele><time>2026-04-12T09:43:39.002Z</time></trkpt><trkpt lat="45.94514092989146" lon="12.620435670235347"><ele>22.0</ele><time>2026-04-12T09:43:40.002Z</time></trkpt><trkpt lat="45.94500021249664" lon="12.620218272311135"><ele>21.666666666666664</ele><time>2026-04-12T09:43:41.002Z</time></trkpt><trkpt lat="45.944844245581315" lon="12.620025406997607"><ele>21.333333333333332</ele><time>2026-04-12T09:43:42.002Z</time></trkpt><trkpt lat="45.944670181592635" lon="12.619827360257965"><ele>21.0</ele><time>2026-04-12T09:43:43.002Z</time></trkpt><trkpt lat="45.944502896344524" lon="12.619669826783714"><ele>21.0</ele><time>2026-04-12T09:43:44.002Z</time></trkpt><trkpt lat="45.94436741977399" lon="12.619511147084921"><ele>21.0</ele><time>2026-04-12T09:43:45.002Z</time></trkpt><trkpt lat="45.944238878102304" lon="12.619408715991698"><ele>21.0</ele><time>2026-04-12T09:43:46.002Z</time></trkpt><trkpt lat="45.94415204777565" lon="12.619307856965214"><ele>21.0</ele><time>2026-04-12T09:43:47.002Z</time></trkpt><trkpt lat="45.94408795554756" lon="12.619219631990699"><ele>21.0</ele><time>2026-04-12T09:43:48.002Z</time></trkpt><trkpt lat="45.944054147325794" lon="12.619139146213186"><ele>21.0</ele><time>2026-04-12T09:43:49.002Z</time></trkpt><trkpt lat="45.944073518190784" lon="12.618970714961142"><ele>21.0</ele><time>2026-04-12T09:43:51.002Z</time></trkpt><trkpt lat="45.94412866552647" lon="12.618911065929549"><ele>21.0</ele><time>2026-04-12T09:43:53.002Z</time></trkpt><trkpt lat="45.944204827589765" lon="12.618931787376406"><ele>21.0</ele><time>2026-04-12T09:43:54.002Z</time></trkpt><trkpt lat="45.944299611058405" lon="12.618936083441643"><ele>21.0</ele><time>2026-04-12T09:43:55.002Z</time></trkpt><trkpt lat="45.94445252788631" lon="12.618946879239342"><ele>21.0</ele><time>2026-04-12T09:43:56.002Z</time></trkpt><trkpt lat="45.94462664164466" lon="12.618947238540434"><ele>21.0</ele><time>2026-04-12T09:43:57.002Z</time></trkpt><trkpt lat="45.94482720337191" lon="12.618931804354723"><ele>21.0</ele><time>2026-04-12T09:43:58.002Z</time></trkpt><trkpt lat="45.94504140301847" lon="12.618907749339895"><ele>21.0</ele><time>2026-04-12T09:43:59.002Z</time></trkpt><trkpt lat="45.94526280008658" lon="12.618889011880457"><ele>21.0</ele><time>2026-04-12T09:44:00.002Z</time></trkpt><trkpt lat="45.94549610066876" lon="12.61886976731127"><ele>21.0</ele><time>2026-04-12T09:44:01Z</time></trkpt><trkpt lat="45.94572685939629" lon="12.61884870603201"><ele>21.0</ele><time>2026-04-12T09:44:02Z</time></trkpt><trkpt lat="45.945938190778094" lon="12.618830034763619"><ele>21.0</ele><time>2026-04-12T09:44:03Z</time></trkpt><trkpt lat="45.94613231412253" lon="12.61881630646506"><ele>21.333333333333332</ele><time>2026-04-12T09:44:04Z</time></trkpt><trkpt lat="45.946315776695656" lon="12.618802959758515"><ele>21.666666666666664</ele><time>2026-04-12T09:44:05Z</time></trkpt><trkpt lat="45.94648796884306" lon="12.618791700651597"><ele>22.0</ele><time>2026-04-12T09:44:06Z</time></trkpt><trkpt lat="45.94665017779237" lon="12.618779362960497"><ele>22.25</ele><time>2026-04-12T09:44:07Z</time></trkpt><trkpt lat="45.94680346087272" lon="12.618771990409444"><ele>22.5</ele><time>2026-04-12T09:44:08Z</time></trkpt><trkpt lat="45.94695130130954" lon="12.618771431609376"><ele>22.75</ele><time>2026-04-12T09:44:09Z</time></trkpt><trkpt lat="45.94709240129996" lon="12.618775445039718"><ele>23.0</ele><time>2026-04-12T09:44:10Z</time></trkpt><trkpt lat="45.94722713122799" lon="12.618779261049204"><ele>23.0</ele><time>2026-04-12T09:44:11Z</time></trkpt><trkpt lat="45.947355173162514" lon="12.618780694722846"><ele>23.0</ele><time>2026-04-12T09:44:12Z</time></trkpt><trkpt lat="45.947486601805494" lon="12.618781503349634"><ele>23.0</ele><time>2026-04-12T09:44:13Z</time></trkpt><trkpt lat="45.94762428324132" lon="12.61878285238012"><ele>23.0</ele><time>2026-04-12T09:44:14Z</time></trkpt><trkpt lat="45.94776661308265" lon="12.618790715203158"><ele>23.0</ele><time>2026-04-12T09:44:15Z</time></trkpt><trkpt lat="45.94791251254888" lon="12.618801005784173"><ele>23.0</ele><time>2026-04-12T09:44:16Z</time></trkpt><trkpt lat="45.94806117180131" lon="12.618806575571334"><ele>23.0</ele><time>2026-04-12T09:44:17Z</time></trkpt><trkpt lat="45.948215928133244" lon="12.618819000233515"><ele>23.0</ele><time>2026-04-12T09:44:18Z</time></trkpt><trkpt lat="45.9483725755002" lon="12.618830563689789"><ele>23.0</ele><time>2026-04-12T09:44:19Z</time></trkpt><trkpt lat="45.94853297197784" lon="12.618837646473317"><ele>23.0</ele><time>2026-04-12T09:44:20Z</time></trkpt><trkpt lat="45.94869344770895" lon="12.61884442478628"><ele>22.333333333333336</ele><time>2026-04-12T09:44:21Z</time></trkpt><trkpt lat="45.948855887790536" lon="12.618844884663611"><ele>21.666666666666668</ele><time>2026-04-12T09:44:22Z</time></trkpt><trkpt lat="45.949021205981985" lon="12.61883103808197"><ele>21.0</ele><time>2026-04-12T09:44:23Z</time></trkpt><trkpt lat="45.94918672834825" lon="12.618805504979363"><ele>22.0</ele><time>2026-04-12T09:44:24Z</time></trkpt><trkpt lat="45.94934898768395" lon="12.618770918601637"><ele>23.0</ele><time>2026-04-12T09:44:25Z</time></trkpt><trkpt lat="45.94950551325434" lon="12.61873202410753"><ele>24.0</ele><time>2026-04-12T09:44:26Z</time></trkpt><trkpt lat="45.9496565766844" lon="12.618687026111319"><ele>24.0</ele><time>2026-04-12T09:44:27Z</time></trkpt><trkpt lat="45.949811520374915" lon="12.61864202967357"><ele>24.0</ele><time>2026-04-12T09:44:28Z</time></trkpt><trkpt lat="45.949969640694384" lon="12.618604280236852"><ele>24.0</ele><time>2026-04-12T09:44:29Z</time></trkpt><trkpt lat="45.9501304458346" lon="12.618568506027986"><ele>24.333333333333336</ele><time>2026-04-12T09:44:30Z</time></trkpt><trkpt lat="45.95028846404388" lon="12.618536569722675"><ele>24.666666666666668</ele><time>2026-04-12T09:44:31Z</time></trkpt><trkpt lat="45.95044421793169" lon="12.6185016939313"><ele>25.0</ele><time>2026-04-12T09:44:32Z</time></trkpt><trkpt lat="45.950604393545476" lon="12.618463602155371"><ele>25.0</ele><time>2026-04-12T09:44:33Z</time></trkpt><trkpt lat="45.950769375478444" lon="12.618420258806552"><ele>25.0</ele><time>2026-04-12T09:44:34Z</time></trkpt><trkpt lat="45.950925932483216" lon="12.618384547088011"><ele>25.0</ele><time>2026-04-12T09:44:35Z</time></trkpt><trkpt lat="45.951094856429705" lon="12.618334457015456"><ele>24.333333333333336</ele><time>2026-04-12T09:44:36Z</time></trkpt><trkpt lat="45.951259956179214" lon="12.618292905303003"><ele>23.666666666666668</ele><time>2026-04-12T09:44:37Z</time></trkpt><trkpt lat="45.95142418860831" lon="12.618253164973828"><ele>23.0</ele><time>2026-04-12T09:44:38Z</time></trkpt><trkpt lat="45.95161671572237" lon="12.618208335982452"><ele>23.666666666666668</ele><time>2026-04-12T09:44:39.001Z</time></trkpt><trkpt lat="45.95179469072696" lon="12.618167842065597"><ele>24.333333333333336</ele><time>2026-04-12T09:44:40.001Z</time></trkpt><trkpt lat="45.951962434547966" lon="12.618135484389935"><ele>25.0</ele><time>2026-04-12T09:44:41.001Z</time></trkpt><trkpt lat="45.95212029467422" lon="12.618104219116573"><ele>25.0</ele><time>2026-04-12T09:44:42.001Z</time></trkpt><trkpt lat="45.95229009237265" lon="12.618079039679728"><ele>25.0</ele><time>2026-04-12T09:44:43.001Z</time></trkpt><trkpt lat="45.952470089064676" lon="12.618063189898855"><ele>25.0</ele><time>2026-04-12T09:44:44.001Z</time></trkpt><trkpt lat="45.95264791387865" lon="12.618066360312381"><ele>25.333333333333336</ele><time>2026-04-12T09:44:45.001Z</time></trkpt><trkpt lat="45.9528077508069" lon="12.618082557974054"><ele>25.666666666666664</ele><time>2026-04-12T09:44:46.001Z</time></trkpt><trkpt lat="45.95297296964731" lon="12.618107280568829"><ele>26.0</ele><time>2026-04-12T09:44:47.001Z</time></trkpt><trkpt lat="45.9531405157683" lon="12.618142382123542"><ele>26.0</ele><time>2026-04-12T09:44:48.001Z</time></trkpt><trkpt lat="45.95332210270751" lon="12.618172280855962"><ele>26.0</ele><time>2026-04-12T09:44:49.001Z</time></trkpt><trkpt lat="45.95352909140819" lon="12.618221000905706"><ele>26.0</ele><time>2026-04-12T09:44:50.001Z</time></trkpt><trkpt lat="45.953761086534215" lon="12.618277087846241"><ele>26.0</ele><time>2026-04-12T09:44:51.001Z</time></trkpt><trkpt lat="45.953982308781846" lon="12.618319601859351"><ele>26.0</ele><time>2026-04-12T09:44:52.001Z</time></trkpt><trkpt lat="45.95418394327673" lon="12.618365436117836"><ele>26.0</ele><time>2026-04-12T09:44:53.001Z</time></trkpt><trkpt lat="45.954378012009755" lon="12.618408984559679"><ele>26.0</ele><time>2026-04-12T09:44:54.001Z</time></trkpt><trkpt lat="45.954558643709525" lon="12.618446980454019"><ele>26.0</ele><time>2026-04-12T09:44:55.001Z</time></trkpt><trkpt lat="45.95472163674159" lon="12.618480370146045"><ele>26.0</ele><time>2026-04-12T09:44:56.001Z</time></trkpt><trkpt lat="45.95487823393989" lon="12.618508499076059"><ele>26.0</ele><time>2026-04-12T09:44:57.001Z</time></trkpt><trkpt lat="45.95502321298953" lon="12.618523242705477"><ele>26.0</ele><time>2026-04-12T09:44:58.001Z</time></trkpt><trkpt lat="45.95516048725642" lon="12.618537231138294"><ele>26.0</ele><time>2026-04-12T09:44:59.001Z</time></trkpt><trkpt lat="45.955295773859845" lon="12.618544627250982"><ele>26.0</ele><time>2026-04-12T09:45:00.001Z</time></trkpt><trkpt lat="45.95544433201551" lon="12.61854339113978"><ele>26.333333333333332</ele><time>2026-04-12T09:45:01.001Z</time></trkpt><trkpt lat="45.95562090156468" lon="12.61853910780741"><ele>26.666666666666664</ele><time>2026-04-12T09:45:02.001Z</time></trkpt><trkpt lat="45.955807998968886" lon="12.618526828910602"><ele>27.0</ele><time>2026-04-12T09:45:03.001Z</time></trkpt><trkpt lat="45.95597444926038" lon="12.61852034381662"><ele>28.333333333333336</ele><time>2026-04-12T09:45:04.001Z</time></trkpt><trkpt lat="45.95614610206856" lon="12.618509144398109"><ele>29.666666666666668</ele><time>2026-04-12T09:45:05.001Z</time></trkpt><trkpt lat="45.95631678420948" lon="12.618499051356768"><ele>31.0</ele><time>2026-04-12T09:45:06.001Z</time></trkpt><trkpt lat="45.95647348914104" lon="12.618487411715085"><ele>31.0</ele><time>2026-04-12T09:45:07.001Z</time></trkpt><trkpt lat="45.95662172782197" lon="12.618477096704122"><ele>31.0</ele><time>2026-04-12T09:45:08.001Z</time></trkpt><trkpt lat="45.956754654523955" lon="12.618474817573285"><ele>31.0</ele><time>2026-04-12T09:45:09.001Z</time></trkpt><trkpt lat="45.956868076785504" lon="12.618470513974422"><ele>31.0</ele><time>2026-04-12T09:45:10.001Z</time></trkpt><trkpt lat="45.95696071456488" lon="12.618477742623563"><ele>30.200000000000003</ele><time>2026-04-12T09:45:11.001Z</time></trkpt><trkpt lat="45.95702788167199" lon="12.61848622911919"><ele>29.400000000000002</ele><time>2026-04-12T09:45:12.001Z</time></trkpt><trkpt lat="45.95711749422026" lon="12.61850215063019"><ele>28.6</ele><time>2026-04-12T09:45:15.001Z</time></trkpt><trkpt lat="45.95718992284343" lon="12.618533334819695"><ele>27.8</ele><time>2026-04-12T09:45:18.001Z</time></trkpt><trkpt lat="45.95728287031017" lon="12.618601167045767"><ele>27.0</ele><time>2026-04-12T09:45:20.001Z</time></trkpt><trkpt lat="45.95724988592146" lon="12.618835961127264"><ele>27.0</ele><time>2026-04-12T09:45:22.001Z</time></trkpt><trkpt lat="45.95723432020372" lon="12.618947398365044"><ele>27.0</ele><time>2026-04-12T09:45:23.001Z</time></trkpt><trkpt lat="45.95720224206485" lon="12.619090564356776"><ele>27.0</ele><time>2026-04-12T09:45:25.001Z</time></trkpt><trkpt lat="45.957125363414235" lon="12.619269148361694"><ele>27.0</ele><time>2026-04-12T09:45:27.001Z</time></trkpt><trkpt lat="45.95710438606873" lon="12.618918968725243"><ele>27.0</ele><time>2026-04-12T09:45:30.001Z</time></trkpt><trkpt lat="45.95710759944741" lon="12.618809484730331"><ele>27.0</ele><time>2026-04-12T09:45:32.001Z</time></trkpt></trkseg></trk></gpx>